<?xml version='1.0' encoding='UTF-8'?><gpx version="1.1" creator="JPX - https://github.com/jenetics/jpx" xmlns="http://www.topografix.com/GPX/1/1"><trk><trkseg><trkpt lat="45.108229848316284" lon="10.076889566955415"><ele>40.16666666666667</ele><time>2026-03-29T05:28:04.998Z</time></trkpt><trkpt lat="45.10832184030877" lon="10.076863832124777"><ele>40.333333333333336</ele><time>2026-03-29T05:28:15.999Z</time></trkpt><trkpt lat="45.108406622909826" lon="10.076838738992228"><ele>40.5</ele><time>2026-03-29T05:28:17.999Z</time></trkpt><trkpt lat="45.1084743376155" lon="10.076775290608127"><ele>40.666666666666664</ele><time>2026-03-29T05:28:19.999Z</time></trkpt><trkpt lat="45.108543321826716" lon="10.076775701206603"><ele>40.83333333333333</ele><time>2026-03-29T05:28:21.999Z</time></trkpt><trkpt lat="45.108633780215314" lon="10.07672786503939"><ele>41.0</ele><time>2026-03-29T05:28:39.999Z</time></trkpt><trkpt lat="45.108692787684284" lon="10.076792791052661"><ele>41.0</ele><time>2026-03-29T05:29:52Z</time></trkpt><trkpt lat="45.10876149726327" lon="10.07689102017312"><ele>41.0</ele><time>2026-03-29T05:29:55Z</time></trkpt><trkpt lat="45.10881172873721" lon="10.07697692177857"><ele>41.0</ele><time>2026-03-29T05:29:57Z</time></trkpt><trkpt lat="45.108838843521184" lon="10.077097466981856"><ele>41.0</ele><time>2026-03-29T05:29:58.999Z</time></trkpt><trkpt lat="45.108834196806406" lon="10.077225238507589"><ele>41.0</ele><time>2026-03-29T05:30:00.999Z</time></trkpt><trkpt lat="45.10882157431992" lon="10.077361967286766"><ele>41.199999999999996</ele><time>2026-03-29T05:30:02.999Z</time></trkpt><trkpt lat="45.108806402836386" lon="10.077498511198534"><ele>41.4</ele><time>2026-03-29T05:30:04.999Z</time></trkpt><trkpt lat="45.10878523105234" lon="10.077625760345391"><ele>41.6</ele><time>2026-03-29T05:30:06.999Z</time></trkpt><trkpt lat="45.10875788462337" lon="10.07775803966253"><ele>41.8</ele><time>2026-03-29T05:30:08.999Z</time></trkpt><trkpt lat="45.108688805889116" lon="10.077853759821865"><ele>42.0</ele><time>2026-03-29T05:30:10.999Z</time></trkpt><trkpt lat="45.10859724626749" lon="10.077884890043862"><ele>42.0</ele><time>2026-03-29T05:30:12.999Z</time></trkpt><trkpt lat="45.10850987099022" lon="10.077854654145701"><ele>42.0</ele><time>2026-03-29T05:30:14.999Z</time></trkpt><trkpt lat="45.10841253492135" lon="10.07783139843632"><ele>42.0</ele><time>2026-03-29T05:30:16.999Z</time></trkpt><trkpt lat="45.10830295136523" lon="10.077805979982546"><ele>42.0</ele><time>2026-03-29T05:30:18.999Z</time></trkpt><trkpt lat="45.10823843037976" lon="10.07779512099018"><ele>42.0</ele><time>2026-03-29T05:30:19.999Z</time></trkpt><trkpt lat="45.10811759245591" lon="10.077761682251985"><ele>41.8</ele><time>2026-03-29T05:30:21.999Z</time></trkpt><trkpt lat="45.10799740698915" lon="10.077736427423062"><ele>41.6</ele><time>2026-03-29T05:30:23.999Z</time></trkpt><trkpt lat="45.10789177782892" lon="10.077698640834646"><ele>41.4</ele><time>2026-03-29T05:30:25.999Z</time></trkpt><trkpt lat="45.10779350425536" lon="10.077670087473498"><ele>41.199999999999996</ele><time>2026-03-29T05:30:27.999Z</time></trkpt><trkpt lat="45.10770254634034" lon="10.077656625437553"><ele>41.0</ele><time>2026-03-29T05:30:29.999Z</time></trkpt><trkpt lat="45.10761260771322" lon="10.077623066134993"><ele>41.0</ele><time>2026-03-29T05:30:31.999Z</time></trkpt><trkpt lat="45.107528626281876" lon="10.077581563387138"><ele>41.0</ele><time>2026-03-29T05:30:33.999Z</time></trkpt><trkpt lat="45.10745173427971" lon="10.077537341881703"><ele>41.0</ele><time>2026-03-29T05:30:35.999Z</time></trkpt><trkpt lat="45.1073821002489" lon="10.07749943280081"><ele>41.0</ele><time>2026-03-29T05:30:37.999Z</time></trkpt><trkpt lat="45.10731188113552" lon="10.077466838025439"><ele>41.0</ele><time>2026-03-29T05:30:39.999Z</time></trkpt><trkpt lat="45.10724244467883" lon="10.077409970775815"><ele>41.0</ele><time>2026-03-29T05:30:41.999Z</time></trkpt><trkpt lat="45.10730291196393" lon="10.077238299913708"><ele>40.75</ele><time>2026-03-29T05:30:44.999Z</time></trkpt><trkpt lat="45.10738005601487" lon="10.077116334531922"><ele>40.5</ele><time>2026-03-29T05:30:46.999Z</time></trkpt><trkpt lat="45.10746501691743" lon="10.077002474384123"><ele>40.25</ele><time>2026-03-29T05:30:48.999Z</time></trkpt><trkpt lat="45.107548782169125" lon="10.076884948832195"><ele>40.0</ele><time>2026-03-29T05:30:50.998Z</time></trkpt><trkpt lat="45.107622320598225" lon="10.076754618825413"><ele>40.0</ele><time>2026-03-29T05:30:52.998Z</time></trkpt><trkpt lat="45.10766497831183" lon="10.07668849670764"><ele>40.0</ele><time>2026-03-29T05:30:53.998Z</time></trkpt><trkpt lat="45.10771342789288" lon="10.076622499510165"><ele>40.0</ele><time>2026-03-29T05:30:54.998Z</time></trkpt><trkpt lat="45.107807887908464" lon="10.076518982767393"><ele>40.0</ele><time>2026-03-29T05:30:56.999Z</time></trkpt><trkpt lat="45.10786106001834" lon="10.076467397598764"><ele>40.0</ele><time>2026-03-29T05:30:57.999Z</time></trkpt><trkpt lat="45.10792439161015" lon="10.076428422089968"><ele>40.0</ele><time>2026-03-29T05:30:58.999Z</time></trkpt><trkpt lat="45.10798003416617" lon="10.076383838231422"><ele>40.0</ele><time>2026-03-29T05:30:59.999Z</time></trkpt><trkpt lat="45.1080870675078" lon="10.076300593952269"><ele>40.0</ele><time>2026-03-29T05:31:01.999Z</time></trkpt><trkpt lat="45.108198323633474" lon="10.076226275204755"><ele>40.0</ele><time>2026-03-29T05:31:03.999Z</time></trkpt><trkpt lat="45.108308451835285" lon="10.076155883089964"><ele>40.0</ele><time>2026-03-29T05:31:05.999Z</time></trkpt><trkpt lat="45.10836938615639" lon="10.076126310067412"><ele>40.0</ele><time>2026-03-29T05:31:06.999Z</time></trkpt><trkpt lat="45.10848232073353" lon="10.076058879475001"><ele>40.0</ele><time>2026-03-29T05:31:08.999Z</time></trkpt><trkpt lat="45.10858505888961" lon="10.075988031194123"><ele>40.0</ele><time>2026-03-29T05:31:10.999Z</time></trkpt><trkpt lat="45.10868124406679" lon="10.075885138157897"><ele>40.0</ele><time>2026-03-29T05:31:12.999Z</time></trkpt><trkpt lat="45.10876581678055" lon="10.075763706923674"><ele>40.0</ele><time>2026-03-29T05:31:14.999Z</time></trkpt><trkpt lat="45.10883919528696" lon="10.07563399769414"><ele>40.0</ele><time>2026-03-29T05:31:16.999Z</time></trkpt><trkpt lat="45.10890029838249" lon="10.0754894646832"><ele>39.75</ele><time>2026-03-29T05:31:18.999Z</time></trkpt><trkpt lat="45.10895055763404" lon="10.075336093453098"><ele>39.5</ele><time>2026-03-29T05:31:20.999Z</time></trkpt><trkpt lat="45.10899133606831" lon="10.07517296413062"><ele>39.25</ele><time>2026-03-29T05:31:22.999Z</time></trkpt><trkpt lat="45.109035071280395" lon="10.075013561025589"><ele>39.0</ele><time>2026-03-29T05:31:24.999Z</time></trkpt><trkpt lat="45.10908162847816" lon="10.074853192654926"><ele>39.0</ele><time>2026-03-29T05:31:26.999Z</time></trkpt><trkpt lat="45.10912923449781" lon="10.074693697510174"><ele>39.0</ele><time>2026-03-29T05:31:28.999Z</time></trkpt><trkpt lat="45.10917928510871" lon="10.0745354859045"><ele>39.0</ele><time>2026-03-29T05:31:30.999Z</time></trkpt><trkpt lat="45.10923340097804" lon="10.074384565332243"><ele>39.0</ele><time>2026-03-29T05:31:32.999Z</time></trkpt><trkpt lat="45.10930224046912" lon="10.074245411458406"><ele>39.5</ele><time>2026-03-29T05:31:35.001Z</time></trkpt><trkpt lat="45.1093698088126" lon="10.074103548585796"><ele>40.0</ele><time>2026-03-29T05:31:37.001Z</time></trkpt><trkpt lat="45.109443051312" lon="10.073967655179302"><ele>40.5</ele><time>2026-03-29T05:31:39.001Z</time></trkpt><trkpt lat="45.10951871681489" lon="10.073838356496514"><ele>41.0</ele><time>2026-03-29T05:31:41.001Z</time></trkpt><trkpt lat="45.1095878047186" lon="10.073698936400987"><ele>41.0</ele><time>2026-03-29T05:31:43.001Z</time></trkpt><trkpt lat="45.1096572012089" lon="10.073553594394783"><ele>41.0</ele><time>2026-03-29T05:31:45.001Z</time></trkpt><trkpt lat="45.10970158432428" lon="10.073478473726441"><ele>41.0</ele><time>2026-03-29T05:31:46.001Z</time></trkpt><trkpt lat="45.10974625174465" lon="10.07340068665179"><ele>41.0</ele><time>2026-03-29T05:31:47.001Z</time></trkpt><trkpt lat="45.10979184984312" lon="10.073324382971736"><ele>41.0</ele><time>2026-03-29T05:31:48.001Z</time></trkpt><trkpt lat="45.1098370841533" lon="10.073247488806338"><ele>41.0</ele><time>2026-03-29T05:31:49.001Z</time></trkpt><trkpt lat="45.10988087097447" lon="10.073168576083416"><ele>40.71428571428571</ele><time>2026-03-29T05:31:50.001Z</time></trkpt><trkpt lat="45.10992507277247" lon="10.073087773711704"><ele>40.42857142857143</ele><time>2026-03-29T05:31:51.001Z</time></trkpt><trkpt lat="45.109966969529296" lon="10.073007864466192"><ele>40.14285714285714</ele><time>2026-03-29T05:31:52.001Z</time></trkpt><trkpt lat="45.110009499622784" lon="10.07292848090578"><ele>39.857142857142854</ele><time>2026-03-29T05:31:53.001Z</time></trkpt><trkpt lat="45.11005278195984" lon="10.072846013383876"><ele>39.57142857142857</ele><time>2026-03-29T05:31:54.001Z</time></trkpt><trkpt lat="45.11009648086035" lon="10.072764447034722"><ele>39.285714285714285</ele><time>2026-03-29T05:31:55.001Z</time></trkpt><trkpt lat="45.1101389992259" lon="10.07268246836693"><ele>39.0</ele><time>2026-03-29T05:31:56.001Z</time></trkpt><trkpt lat="45.11017879968341" lon="10.07260046634746"><ele>39.0</ele><time>2026-03-29T05:31:57.001Z</time></trkpt><trkpt lat="45.11021660882355" lon="10.072517439929781"><ele>39.0</ele><time>2026-03-29T05:31:58.001Z</time></trkpt><trkpt lat="45.11025521297649" lon="10.07243315101638"><ele>39.0</ele><time>2026-03-29T05:31:59Z</time></trkpt><trkpt lat="45.11029004208562" lon="10.072346460923466"><ele>39.0</ele><time>2026-03-29T05:32:00Z</time></trkpt><trkpt lat="45.110325257662964" lon="10.072260793869644"><ele>39.0</ele><time>2026-03-29T05:32:01Z</time></trkpt><trkpt lat="45.110357229823684" lon="10.072171741555774"><ele>39.0</ele><time>2026-03-29T05:32:02Z</time></trkpt><trkpt lat="45.1103908170742" lon="10.072084096894589"><ele>39.0</ele><time>2026-03-29T05:32:03Z</time></trkpt><trkpt lat="45.110419507014974" lon="10.071995462425535"><ele>39.285714285714285</ele><time>2026-03-29T05:32:04Z</time></trkpt><trkpt lat="45.11044944938333" lon="10.071903837186037"><ele>39.57142857142857</ele><time>2026-03-29T05:32:05Z</time></trkpt><trkpt lat="45.11048046199338" lon="10.071812822113888"><ele>39.857142857142854</ele><time>2026-03-29T05:32:06Z</time></trkpt><trkpt lat="45.110512803404376" lon="10.071722396236677"><ele>40.14285714285714</ele><time>2026-03-29T05:32:07Z</time></trkpt><trkpt lat="45.110543757447054" lon="10.071630184679893"><ele>40.42857142857143</ele><time>2026-03-29T05:32:08Z</time></trkpt><trkpt lat="45.110575938628656" lon="10.071542081327411"><ele>40.71428571428571</ele><time>2026-03-29T05:32:09Z</time></trkpt><trkpt lat="45.11060715639715" lon="10.071453568500308"><ele>41.0</ele><time>2026-03-29T05:32:10Z</time></trkpt><trkpt lat="45.110641327559" lon="10.071367698773296"><ele>41.0</ele><time>2026-03-29T05:32:11Z</time></trkpt><trkpt lat="45.11067644321857" lon="10.071286254906854"><ele>41.0</ele><time>2026-03-29T05:32:12Z</time></trkpt><trkpt lat="45.11071445274951" lon="10.071211045427729"><ele>41.0</ele><time>2026-03-29T05:32:13Z</time></trkpt><trkpt lat="45.11076659166415" lon="10.07106824139127"><ele>41.0</ele><time>2026-03-29T05:32:15Z</time></trkpt><trkpt lat="45.11071273385413" lon="10.070929522368502"><ele>41.0</ele><time>2026-03-29T05:32:17Z</time></trkpt><trkpt lat="45.110600371943185" lon="10.070846606796282"><ele>41.42857142857142</ele><time>2026-03-29T05:32:19Z</time></trkpt><trkpt lat="45.11054146970363" lon="10.070805617652052"><ele>41.857142857142854</ele><time>2026-03-29T05:32:20Z</time></trkpt><trkpt lat="45.11048011921733" lon="10.07077104216696"><ele>42.285714285714285</ele><time>2026-03-29T05:32:21Z</time></trkpt><trkpt lat="45.110419230198225" lon="10.070734677199061"><ele>42.71428571428571</ele><time>2026-03-29T05:32:22Z</time></trkpt><trkpt lat="45.110357952673944" lon="10.070693448642398"><ele>43.14285714285714</ele><time>2026-03-29T05:32:23Z</time></trkpt><trkpt lat="45.110297868042565" lon="10.070652873841041"><ele>43.57142857142857</ele><time>2026-03-29T05:32:24Z</time></trkpt><trkpt lat="45.1102419571782" lon="10.070598972335405"><ele>44.0</ele><time>2026-03-29T05:32:25Z</time></trkpt><trkpt lat="45.11018598993551" lon="10.07054136131332"><ele>42.83333333333333</ele><time>2026-03-29T05:32:26Z</time></trkpt><trkpt lat="45.1101315854216" lon="10.07046982155628"><ele>41.666666666666664</ele><time>2026-03-29T05:32:27Z</time></trkpt><trkpt lat="45.110080518339174" lon="10.070385829982332"><ele>40.5</ele><time>2026-03-29T05:32:28Z</time></trkpt><trkpt lat="45.11003842446018" lon="10.07028779859888"><ele>39.333333333333336</ele><time>2026-03-29T05:32:29Z</time></trkpt><trkpt lat="45.10999978971008" lon="10.070185292927079"><ele>38.16666666666667</ele><time>2026-03-29T05:32:30Z</time></trkpt><trkpt lat="45.10996578866711" lon="10.07008490127143"><ele>37.0</ele><time>2026-03-29T05:32:31Z</time></trkpt><trkpt lat="45.109929908796175" lon="10.069984044618211"><ele>36.333333333333336</ele><time>2026-03-29T05:32:32Z</time></trkpt><trkpt lat="45.109898176595365" lon="10.069883973254495"><ele>35.66666666666667</ele><time>2026-03-29T05:32:33Z</time></trkpt><trkpt lat="45.1098693832669" lon="10.069784171272238"><ele>35.0</ele><time>2026-03-29T05:32:34Z</time></trkpt><trkpt lat="45.10983813202985" lon="10.069684763023126"><ele>34.333333333333336</ele><time>2026-03-29T05:32:35Z</time></trkpt><trkpt lat="45.10980517964111" lon="10.06958710356139"><ele>33.666666666666664</ele><time>2026-03-29T05:32:36Z</time></trkpt><trkpt lat="45.10977005265615" lon="10.069492515749133"><ele>33.0</ele><time>2026-03-29T05:32:37Z</time></trkpt><trkpt lat="45.10973475305052" lon="10.069397652040138"><ele>33.0</ele><time>2026-03-29T05:32:38Z</time></trkpt><trkpt lat="45.10969972022122" lon="10.069304600339105"><ele>33.0</ele><time>2026-03-29T05:32:39Z</time></trkpt><trkpt lat="45.10966440599088" lon="10.069211178970752"><ele>33.0</ele><time>2026-03-29T05:32:40Z</time></trkpt><trkpt lat="45.10962326779595" lon="10.069124371893492"><ele>33.0</ele><time>2026-03-29T05:32:41Z</time></trkpt><trkpt lat="45.10958026553034" lon="10.06904046483875"><ele>33.0</ele><time>2026-03-29T05:32:42Z</time></trkpt><trkpt lat="45.10953441973573" lon="10.068960289224085"><ele>33.0</ele><time>2026-03-29T05:32:43Z</time></trkpt><trkpt lat="45.10948593211745" lon="10.068880445448217"><ele>33.0</ele><time>2026-03-29T05:32:44Z</time></trkpt><trkpt lat="45.10943883403664" lon="10.068801768204032"><ele>33.0</ele><time>2026-03-29T05:32:45Z</time></trkpt><trkpt lat="45.10939440959859" lon="10.068721400746918"><ele>33.0</ele><time>2026-03-29T05:32:46Z</time></trkpt><trkpt lat="45.10934928532488" lon="10.068644120444164"><ele>33.0</ele><time>2026-03-29T05:32:47Z</time></trkpt><trkpt lat="45.10930128215936" lon="10.0685682290605"><ele>33.0</ele><time>2026-03-29T05:32:48Z</time></trkpt><trkpt lat="45.109254131259064" lon="10.068494392153486"><ele>33.0</ele><time>2026-03-29T05:32:49Z</time></trkpt><trkpt lat="45.10920576467862" lon="10.068418348957996"><ele>33.0</ele><time>2026-03-29T05:32:50Z</time></trkpt><trkpt lat="45.109159504141395" lon="10.068342469117884"><ele>33.0</ele><time>2026-03-29T05:32:50.999Z</time></trkpt><trkpt lat="45.10911407535945" lon="10.068262898105232"><ele>33.14285714285714</ele><time>2026-03-29T05:32:51.999Z</time></trkpt><trkpt lat="45.10906878729968" lon="10.068187901282275"><ele>33.285714285714285</ele><time>2026-03-29T05:32:52.999Z</time></trkpt><trkpt lat="45.109023596798174" lon="10.068110320743779"><ele>33.42857142857143</ele><time>2026-03-29T05:32:53.999Z</time></trkpt><trkpt lat="45.10897738657871" lon="10.06803411774641"><ele>33.57142857142857</ele><time>2026-03-29T05:32:54.999Z</time></trkpt><trkpt lat="45.108932988726934" lon="10.067957186631459"><ele>33.714285714285715</ele><time>2026-03-29T05:32:55.999Z</time></trkpt><trkpt lat="45.10888776091712" lon="10.06787916501646"><ele>33.857142857142854</ele><time>2026-03-29T05:32:56.999Z</time></trkpt><trkpt lat="45.10883919380204" lon="10.067805320617213"><ele>34.0</ele><time>2026-03-29T05:32:57.999Z</time></trkpt><trkpt lat="45.108793953197534" lon="10.067728682380219"><ele>33.99999999999999</ele><time>2026-03-29T05:32:58.999Z</time></trkpt><trkpt lat="45.10874709068401" lon="10.06765294016596"><ele>34.0</ele><time>2026-03-29T05:32:59.999Z</time></trkpt><trkpt lat="45.108700858964525" lon="10.067575692739586"><ele>34.0</ele><time>2026-03-29T05:33:00.999Z</time></trkpt><trkpt lat="45.10865360934336" lon="10.067498560884983"><ele>34.0</ele><time>2026-03-29T05:33:01.999Z</time></trkpt><trkpt lat="45.108606604911586" lon="10.067421365553635"><ele>34.0</ele><time>2026-03-29T05:33:02.999Z</time></trkpt><trkpt lat="45.108559392145956" lon="10.067341939370124"><ele>33.99999999999999</ele><time>2026-03-29T05:33:03.999Z</time></trkpt><trkpt lat="45.10851183441521" lon="10.067263295628146"><ele>34.0</ele><time>2026-03-29T05:33:04.999Z</time></trkpt><trkpt lat="45.10846446967484" lon="10.067183513592234"><ele>33.857142857142854</ele><time>2026-03-29T05:33:05.999Z</time></trkpt><trkpt lat="45.10841888004273" lon="10.067103582228652"><ele>33.714285714285715</ele><time>2026-03-29T05:33:06.999Z</time></trkpt><trkpt lat="45.10837142417767" lon="10.06702560498455"><ele>33.57142857142857</ele><time>2026-03-29T05:33:07.999Z</time></trkpt><trkpt lat="45.10832444154795" lon="10.066946638199834"><ele>33.42857142857143</ele><time>2026-03-29T05:33:08.999Z</time></trkpt><trkpt lat="45.10827710664758" lon="10.066867722630729"><ele>33.285714285714285</ele><time>2026-03-29T05:33:09.999Z</time></trkpt><trkpt lat="45.10823056197095" lon="10.066789982869107"><ele>33.14285714285714</ele><time>2026-03-29T05:33:10.999Z</time></trkpt><trkpt lat="45.10818276621041" lon="10.066709605739206"><ele>33.0</ele><time>2026-03-29T05:33:11.999Z</time></trkpt><trkpt lat="45.108135148515906" lon="10.066632371513192"><ele>33.0</ele><time>2026-03-29T05:33:12.999Z</time></trkpt><trkpt lat="45.10808924883912" lon="10.06655458097237"><ele>33.0</ele><time>2026-03-29T05:33:13.999Z</time></trkpt><trkpt lat="45.10805351980305" lon="10.066461404487896"><ele>33.0</ele><time>2026-03-29T05:33:14.999Z</time></trkpt><trkpt lat="45.10799523560627" lon="10.066397487064439"><ele>33.0</ele><time>2026-03-29T05:33:15.999Z</time></trkpt><trkpt lat="45.10795907811248" lon="10.066305579709853"><ele>33.0</ele><time>2026-03-29T05:33:16.999Z</time></trkpt><trkpt lat="45.107911121506625" lon="10.066226846829016"><ele>33.0</ele><time>2026-03-29T05:33:17.999Z</time></trkpt><trkpt lat="45.10786432330692" lon="10.066151138886232"><ele>33.0</ele><time>2026-03-29T05:33:18.999Z</time></trkpt><trkpt lat="45.107804806552416" lon="10.066089153317316"><ele>33.0</ele><time>2026-03-29T05:33:19.999Z</time></trkpt><trkpt lat="45.10775887832128" lon="10.066013184168026"><ele>33.0</ele><time>2026-03-29T05:33:20.999Z</time></trkpt><trkpt lat="45.107712242019524" lon="10.065933697660302"><ele>33.0</ele><time>2026-03-29T05:33:21.999Z</time></trkpt><trkpt lat="45.10766398778983" lon="10.065858331326325"><ele>33.0</ele><time>2026-03-29T05:33:22.999Z</time></trkpt><trkpt lat="45.10761538628183" lon="10.065780761321879"><ele>33.0</ele><time>2026-03-29T05:33:23.999Z</time></trkpt><trkpt lat="45.10756699099372" lon="10.065705511183372"><ele>33.0</ele><time>2026-03-29T05:33:24.999Z</time></trkpt><trkpt lat="45.10751920733441" lon="10.06562664331222"><ele>33.0</ele><time>2026-03-29T05:33:25.999Z</time></trkpt><trkpt lat="45.10747027261332" lon="10.065546839605277"><ele>33.0</ele><time>2026-03-29T05:33:26.999Z</time></trkpt><trkpt lat="45.1074225010865" lon="10.065467607298"><ele>33.0</ele><time>2026-03-29T05:33:27.999Z</time></trkpt><trkpt lat="45.1073732271841" lon="10.065391702583815"><ele>33.0</ele><time>2026-03-29T05:33:28.999Z</time></trkpt><trkpt lat="45.10732401412996" lon="10.06531260705707"><ele>33.0</ele><time>2026-03-29T05:33:29.999Z</time></trkpt><trkpt lat="45.10727329962387" lon="10.06523691640839"><ele>33.0</ele><time>2026-03-29T05:33:30.999Z</time></trkpt><trkpt lat="45.10722571897842" lon="10.065160466170903"><ele>33.0</ele><time>2026-03-29T05:33:31.999Z</time></trkpt><trkpt lat="45.10717867481253" lon="10.065083180881109"><ele>33.0</ele><time>2026-03-29T05:33:32.999Z</time></trkpt><trkpt lat="45.10713086221839" lon="10.065007472724794"><ele>33.0</ele><time>2026-03-29T05:33:33.999Z</time></trkpt><trkpt lat="45.10708329275133" lon="10.064929882615408"><ele>33.0</ele><time>2026-03-29T05:33:34.999Z</time></trkpt><trkpt lat="45.10703642409633" lon="10.06485427244143"><ele>33.0</ele><time>2026-03-29T05:33:35.999Z</time></trkpt><trkpt lat="45.106987494518464" lon="10.064777341178411"><ele>33.0</ele><time>2026-03-29T05:33:36.999Z</time></trkpt><trkpt lat="45.10693868022912" lon="10.064700994819008"><ele>33.0</ele><time>2026-03-29T05:33:37.999Z</time></trkpt><trkpt lat="45.10689033041827" lon="10.064626125098657"><ele>33.0</ele><time>2026-03-29T05:33:38.999Z</time></trkpt><trkpt lat="45.106842941280476" lon="10.06454958302966"><ele>33.0</ele><time>2026-03-29T05:33:39.999Z</time></trkpt><trkpt lat="45.106806762537154" lon="10.064458187924254"><ele>33.0</ele><time>2026-03-29T05:33:41.001Z</time></trkpt><trkpt lat="45.10674797848514" lon="10.064395104526394"><ele>33.0</ele><time>2026-03-29T05:33:42.001Z</time></trkpt><trkpt lat="45.10669975508971" lon="10.064318481242799"><ele>33.0</ele><time>2026-03-29T05:33:43.001Z</time></trkpt><trkpt lat="45.10665280469521" lon="10.064241885812994"><ele>33.0</ele><time>2026-03-29T05:33:44.001Z</time></trkpt><trkpt lat="45.106604571109" lon="10.064164015979877"><ele>33.0</ele><time>2026-03-29T05:33:45.001Z</time></trkpt><trkpt lat="45.106556360569904" lon="10.064088896089022"><ele>33.0</ele><time>2026-03-29T05:33:46.001Z</time></trkpt><trkpt lat="45.10650988428069" lon="10.064012838568535"><ele>33.0</ele><time>2026-03-29T05:33:47.001Z</time></trkpt><trkpt lat="45.10646688094973" lon="10.06393789001501"><ele>33.285714285714285</ele><time>2026-03-29T05:33:48.001Z</time></trkpt><trkpt lat="45.10642177685851" lon="10.063865733690955"><ele>33.57142857142857</ele><time>2026-03-29T05:33:49.001Z</time></trkpt><trkpt lat="45.10637753957518" lon="10.063794383049954"><ele>33.85714285714286</ele><time>2026-03-29T05:33:50.001Z</time></trkpt><trkpt lat="45.10633388262523" lon="10.063722166352445"><ele>34.14285714285714</ele><time>2026-03-29T05:33:51.001Z</time></trkpt><trkpt lat="45.10629084056734" lon="10.063652528545456"><ele>34.42857142857143</ele><time>2026-03-29T05:33:52.001Z</time></trkpt><trkpt lat="45.106247092845415" lon="10.06358333620521"><ele>34.714285714285715</ele><time>2026-03-29T05:33:53.001Z</time></trkpt><trkpt lat="45.106204174363135" lon="10.06351599849427"><ele>35.0</ele><time>2026-03-29T05:33:54.001Z</time></trkpt><trkpt lat="45.10616061109754" lon="10.06344764583929"><ele>35.0</ele><time>2026-03-29T05:33:55.001Z</time></trkpt><trkpt lat="45.10611829238195" lon="10.063378003384372"><ele>35.0</ele><time>2026-03-29T05:33:56.001Z</time></trkpt><trkpt lat="45.10607606884265" lon="10.063311458537587"><ele>35.0</ele><time>2026-03-29T05:33:57.001Z</time></trkpt><trkpt lat="45.10603550084855" lon="10.063241967555697"><ele>35.0</ele><time>2026-03-29T05:33:58.001Z</time></trkpt><trkpt lat="45.105955456796046" lon="10.063100585737365"><ele>35.0</ele><time>2026-03-29T05:34:00.001Z</time></trkpt><trkpt lat="45.10591289265298" lon="10.063033559306927"><ele>35.0</ele><time>2026-03-29T05:34:01Z</time></trkpt><trkpt lat="45.10586352195068" lon="10.062965157817498"><ele>34.857142857142854</ele><time>2026-03-29T05:34:02Z</time></trkpt><trkpt lat="45.10581463044537" lon="10.062896708677851"><ele>34.714285714285715</ele><time>2026-03-29T05:34:03Z</time></trkpt><trkpt lat="45.10576584011807" lon="10.06282441765659"><ele>34.57142857142857</ele><time>2026-03-29T05:34:04Z</time></trkpt><trkpt lat="45.10571611978508" lon="10.06274791613875"><ele>34.42857142857143</ele><time>2026-03-29T05:34:05Z</time></trkpt><trkpt lat="45.10566390556949" lon="10.06266948514926"><ele>34.285714285714285</ele><time>2026-03-29T05:34:06Z</time></trkpt><trkpt lat="45.10561089249563" lon="10.062589743195868"><ele>34.14285714285714</ele><time>2026-03-29T05:34:07Z</time></trkpt><trkpt lat="45.10557146231495" lon="10.06249180158259"><ele>34.0</ele><time>2026-03-29T05:34:08Z</time></trkpt><trkpt lat="45.10551836594422" lon="10.06240894457165"><ele>33.66666666666667</ele><time>2026-03-29T05:34:09Z</time></trkpt><trkpt lat="45.10545031546057" lon="10.062343849066709"><ele>33.333333333333336</ele><time>2026-03-29T05:34:10Z</time></trkpt><trkpt lat="45.105391348660596" lon="10.062266030398291"><ele>33.0</ele><time>2026-03-29T05:34:11Z</time></trkpt><trkpt lat="45.10532498555167" lon="10.06219869696194"><ele>32.666666666666664</ele><time>2026-03-29T05:34:12Z</time></trkpt><trkpt lat="45.10525342936998" lon="10.062144491879662"><ele>32.33333333333333</ele><time>2026-03-29T05:34:13Z</time></trkpt><trkpt lat="45.105183376729364" lon="10.062092083570947"><ele>32.0</ele><time>2026-03-29T05:34:14Z</time></trkpt><trkpt lat="45.1051129678516" lon="10.0620475623559"><ele>32.0</ele><time>2026-03-29T05:34:15Z</time></trkpt><trkpt lat="45.105045852109946" lon="10.062008656547626"><ele>31.999999999999996</ele><time>2026-03-29T05:34:16Z</time></trkpt><trkpt lat="45.10497945090234" lon="10.061981543563379"><ele>32.0</ele><time>2026-03-29T05:34:17Z</time></trkpt><trkpt lat="45.10491276885875" lon="10.061965211343464"><ele>32.0</ele><time>2026-03-29T05:34:18Z</time></trkpt><trkpt lat="45.104842421569266" lon="10.061964266321104"><ele>31.999999999999996</ele><time>2026-03-29T05:34:19Z</time></trkpt><trkpt lat="45.10477463665466" lon="10.061971196909543"><ele>32.0</ele><time>2026-03-29T05:34:20Z</time></trkpt><trkpt lat="45.10470542600924" lon="10.061982825806753"><ele>32.0</ele><time>2026-03-29T05:34:21Z</time></trkpt><trkpt lat="45.104638480863706" lon="10.062009489803696"><ele>32.0</ele><time>2026-03-29T05:34:22Z</time></trkpt><trkpt lat="45.104574495285114" lon="10.062049509933887"><ele>31.999999999999996</ele><time>2026-03-29T05:34:23Z</time></trkpt><trkpt lat="45.104510185294885" lon="10.06208645892654"><ele>32.0</ele><time>2026-03-29T05:34:24Z</time></trkpt><trkpt lat="45.104439932188676" lon="10.062101365563123"><ele>32.0</ele><time>2026-03-29T05:34:25Z</time></trkpt><trkpt lat="45.10437457670212" lon="10.062138182922734"><ele>31.999999999999996</ele><time>2026-03-29T05:34:26Z</time></trkpt><trkpt lat="45.104310674506486" lon="10.062175203027769"><ele>32.0</ele><time>2026-03-29T05:34:27Z</time></trkpt><trkpt lat="45.104245955056925" lon="10.062212696587789"><ele>32.0</ele><time>2026-03-29T05:34:28Z</time></trkpt><trkpt lat="45.104187237700806" lon="10.062270960979593"><ele>32.0</ele><time>2026-03-29T05:34:29Z</time></trkpt><trkpt lat="45.10412154729096" lon="10.062306916980898"><ele>31.999999999999996</ele><time>2026-03-29T05:34:30Z</time></trkpt><trkpt lat="45.10405596250796" lon="10.062346586750246"><ele>32.0</ele><time>2026-03-29T05:34:31Z</time></trkpt><trkpt lat="45.103990480421004" lon="10.062384654544351"><ele>32.0</ele><time>2026-03-29T05:34:32Z</time></trkpt><trkpt lat="45.10392367579151" lon="10.062421066396412"><ele>31.999999999999996</ele><time>2026-03-29T05:34:33Z</time></trkpt><trkpt lat="45.103857496094335" lon="10.062460906999677"><ele>32.0</ele><time>2026-03-29T05:34:34Z</time></trkpt><trkpt lat="45.10379004936949" lon="10.062498463715025"><ele>32.0</ele><time>2026-03-29T05:34:35Z</time></trkpt><trkpt lat="45.103724704775495" lon="10.062536126615699"><ele>32.285714285714285</ele><time>2026-03-29T05:34:36Z</time></trkpt><trkpt lat="45.10365913912481" lon="10.062572686838589"><ele>32.57142857142857</ele><time>2026-03-29T05:34:37Z</time></trkpt><trkpt lat="45.10359427651843" lon="10.062608662920264"><ele>32.857142857142854</ele><time>2026-03-29T05:34:38Z</time></trkpt><trkpt lat="45.10352906529524" lon="10.062645418857446"><ele>33.14285714285714</ele><time>2026-03-29T05:34:39Z</time></trkpt><trkpt lat="45.10346221693939" lon="10.062678111138748"><ele>33.42857142857143</ele><time>2026-03-29T05:34:40Z</time></trkpt><trkpt lat="45.10339736854335" lon="10.062713848850198"><ele>33.71428571428571</ele><time>2026-03-29T05:34:41Z</time></trkpt><trkpt lat="45.10333045554383" lon="10.062723497251767"><ele>34.0</ele><time>2026-03-29T05:34:42Z</time></trkpt><trkpt lat="45.10326927042333" lon="10.0626879223412"><ele>34.14285714285714</ele><time>2026-03-29T05:34:43Z</time></trkpt><trkpt lat="45.10323868415702" lon="10.062597754064392"><ele>34.285714285714285</ele><time>2026-03-29T05:34:44Z</time></trkpt><trkpt lat="45.103244705750555" lon="10.062496211040346"><ele>34.42857142857143</ele><time>2026-03-29T05:34:45Z</time></trkpt><trkpt lat="45.10326709911056" lon="10.062399667679607"><ele>34.57142857142857</ele><time>2026-03-29T05:34:46Z</time></trkpt><trkpt lat="45.10327427493934" lon="10.062308152494081"><ele>34.714285714285715</ele><time>2026-03-29T05:34:47Z</time></trkpt><trkpt lat="45.10327997451802" lon="10.062210383283622"><ele>34.857142857142854</ele><time>2026-03-29T05:34:48Z</time></trkpt><trkpt lat="45.103279214130445" lon="10.06211424567251"><ele>35.0</ele><time>2026-03-29T05:34:49Z</time></trkpt><trkpt lat="45.1032799965659" lon="10.062013437058733"><ele>35.0</ele><time>2026-03-29T05:34:50Z</time></trkpt><trkpt lat="45.10328412498719" lon="10.061914437545083"><ele>35.0</ele><time>2026-03-29T05:34:51Z</time></trkpt><trkpt lat="45.10328693523091" lon="10.061810344197404"><ele>35.0</ele><time>2026-03-29T05:34:51.999Z</time></trkpt><trkpt lat="45.10328564333226" lon="10.061713062031217"><ele>35.0</ele><time>2026-03-29T05:34:52.999Z</time></trkpt><trkpt lat="45.10328583280755" lon="10.061612110244736"><ele>35.0</ele><time>2026-03-29T05:34:53.999Z</time></trkpt><trkpt lat="45.10328691514939" lon="10.06151285455934"><ele>35.0</ele><time>2026-03-29T05:34:54.999Z</time></trkpt><trkpt lat="45.103288433549714" lon="10.061411876776559"><ele>35.0</ele><time>2026-03-29T05:34:55.999Z</time></trkpt><trkpt lat="45.10329318540193" lon="10.061310830921615"><ele>35.142857142857146</ele><time>2026-03-29T05:34:56.999Z</time></trkpt><trkpt lat="45.10329699527086" lon="10.061213950930949"><ele>35.285714285714285</ele><time>2026-03-29T05:34:57.999Z</time></trkpt><trkpt lat="45.10329930587856" lon="10.061111569797008"><ele>35.42857142857143</ele><time>2026-03-29T05:34:58.999Z</time></trkpt><trkpt lat="45.10330036884538" lon="10.061013022399143"><ele>35.57142857142857</ele><time>2026-03-29T05:34:59.999Z</time></trkpt><trkpt lat="45.10330268251527" lon="10.060912002621269"><ele>35.714285714285715</ele><time>2026-03-29T05:35:00.999Z</time></trkpt><trkpt lat="45.10330579483534" lon="10.060811846786802"><ele>35.85714285714286</ele><time>2026-03-29T05:35:01.999Z</time></trkpt><trkpt lat="45.103309739177966" lon="10.060710083013548"><ele>36.0</ele><time>2026-03-29T05:35:02.999Z</time></trkpt><trkpt lat="45.10331158637935" lon="10.060607368980497"><ele>35.85714285714286</ele><time>2026-03-29T05:35:03.999Z</time></trkpt><trkpt lat="45.10331052770379" lon="10.060508341540933"><ele>35.714285714285715</ele><time>2026-03-29T05:35:04.999Z</time></trkpt><trkpt lat="45.103317291363034" lon="10.06040182673334"><ele>35.57142857142857</ele><time>2026-03-29T05:35:05.999Z</time></trkpt><trkpt lat="45.103316554011705" lon="10.060303635302493"><ele>35.42857142857143</ele><time>2026-03-29T05:35:06.999Z</time></trkpt><trkpt lat="45.10332124899459" lon="10.06020009257519"><ele>35.285714285714285</ele><time>2026-03-29T05:35:07.999Z</time></trkpt><trkpt lat="45.10332220856956" lon="10.06010153450459"><ele>35.142857142857146</ele><time>2026-03-29T05:35:08.999Z</time></trkpt><trkpt lat="45.103321930542215" lon="10.059999756789823"><ele>35.0</ele><time>2026-03-29T05:35:09.999Z</time></trkpt><trkpt lat="45.103318999762216" lon="10.059901389099464"><ele>35.0</ele><time>2026-03-29T05:35:10.999Z</time></trkpt><trkpt lat="45.10331734321512" lon="10.059796110801145"><ele>35.0</ele><time>2026-03-29T05:35:11.999Z</time></trkpt><trkpt lat="45.10331863834187" lon="10.05969609101499"><ele>35.0</ele><time>2026-03-29T05:35:12.999Z</time></trkpt><trkpt lat="45.10332224298662" lon="10.059594778077692"><ele>35.0</ele><time>2026-03-29T05:35:13.999Z</time></trkpt><trkpt lat="45.10331621580692" lon="10.05949401899326"><ele>35.0</ele><time>2026-03-29T05:35:14.999Z</time></trkpt><trkpt lat="45.10330563722443" lon="10.059394175179737"><ele>35.0</ele><time>2026-03-29T05:35:15.999Z</time></trkpt><trkpt lat="45.10327925320367" lon="10.059301009603523"><ele>35.0</ele><time>2026-03-29T05:35:16.999Z</time></trkpt><trkpt lat="45.10323402567474" lon="10.059219131951815"><ele>35.142857142857146</ele><time>2026-03-29T05:35:17.999Z</time></trkpt><trkpt lat="45.10318921231201" lon="10.059138021045626"><ele>35.285714285714285</ele><time>2026-03-29T05:35:18.999Z</time></trkpt><trkpt lat="45.103103112701525" lon="10.059130474136477"><ele>35.42857142857143</ele><time>2026-03-29T05:35:19.999Z</time></trkpt><trkpt lat="45.103030169493145" lon="10.059114302648432"><ele>35.57142857142857</ele><time>2026-03-29T05:35:20.999Z</time></trkpt><trkpt lat="45.10296438610411" lon="10.059087101360895"><ele>35.714285714285715</ele><time>2026-03-29T05:35:21.999Z</time></trkpt><trkpt lat="45.1029030781302" lon="10.059066061349919"><ele>35.85714285714286</ele><time>2026-03-29T05:35:22.999Z</time></trkpt><trkpt lat="45.102839228515286" lon="10.0590424946643"><ele>36.0</ele><time>2026-03-29T05:35:23.999Z</time></trkpt><trkpt lat="45.10279522776967" lon="10.058966899141003"><ele>36.142857142857146</ele><time>2026-03-29T05:35:24.999Z</time></trkpt><trkpt lat="45.102772757594494" lon="10.058865222476788"><ele>36.285714285714285</ele><time>2026-03-29T05:35:25.999Z</time></trkpt><trkpt lat="45.1027576501558" lon="10.058762766445662"><ele>36.42857142857143</ele><time>2026-03-29T05:35:26.999Z</time></trkpt><trkpt lat="45.1027459884182" lon="10.058662731230768"><ele>36.57142857142857</ele><time>2026-03-29T05:35:27.999Z</time></trkpt><trkpt lat="45.102730728102756" lon="10.058559438041645"><ele>36.714285714285715</ele><time>2026-03-29T05:35:28.999Z</time></trkpt><trkpt lat="45.10271288699145" lon="10.058459283175655"><ele>36.85714285714286</ele><time>2026-03-29T05:35:29.999Z</time></trkpt><trkpt lat="45.102693657338094" lon="10.058361815337621"><ele>37.0</ele><time>2026-03-29T05:35:30.999Z</time></trkpt><trkpt lat="45.102670813988304" lon="10.05826111764097"><ele>37.42857142857143</ele><time>2026-03-29T05:35:31.999Z</time></trkpt><trkpt lat="45.102643572377644" lon="10.058165875372696"><ele>37.857142857142854</ele><time>2026-03-29T05:35:32.999Z</time></trkpt><trkpt lat="45.1026368504492" lon="10.058064238496492"><ele>38.285714285714285</ele><time>2026-03-29T05:35:33.999Z</time></trkpt><trkpt lat="45.10259867896119" lon="10.057976197614712"><ele>38.714285714285715</ele><time>2026-03-29T05:35:34.999Z</time></trkpt><trkpt lat="45.102576949970164" lon="10.057880276748929"><ele>39.142857142857146</ele><time>2026-03-29T05:35:35.999Z</time></trkpt><trkpt lat="45.10254745660035" lon="10.05778773435614"><ele>39.57142857142857</ele><time>2026-03-29T05:35:36.999Z</time></trkpt><trkpt lat="45.10251881680843" lon="10.05769219299351"><ele>40.0</ele><time>2026-03-29T05:35:37.999Z</time></trkpt><trkpt lat="45.10248981426745" lon="10.05760054747417"><ele>40.0</ele><time>2026-03-29T05:35:38.999Z</time></trkpt><trkpt lat="45.102463676933716" lon="10.05750644607289"><ele>40.0</ele><time>2026-03-29T05:35:39.999Z</time></trkpt><trkpt lat="45.102435778623764" lon="10.057412817419603"><ele>40.0</ele><time>2026-03-29T05:35:40.999Z</time></trkpt><trkpt lat="45.10240539753268" lon="10.057322295457395"><ele>40.0</ele><time>2026-03-29T05:35:41.999Z</time></trkpt><trkpt lat="45.102372017286925" lon="10.05723413333089"><ele>40.0</ele><time>2026-03-29T05:35:42.999Z</time></trkpt><trkpt lat="45.10233945939662" lon="10.057142248439723"><ele>40.0</ele><time>2026-03-29T05:35:43.999Z</time></trkpt><trkpt lat="45.1023073815715" lon="10.057053500838027"><ele>40.0</ele><time>2026-03-29T05:35:44.999Z</time></trkpt><trkpt lat="45.102274593133735" lon="10.056963344193601"><ele>39.714285714285715</ele><time>2026-03-29T05:35:46.001Z</time></trkpt><trkpt lat="45.10224249142836" lon="10.056873258759179"><ele>39.42857142857143</ele><time>2026-03-29T05:35:47.001Z</time></trkpt><trkpt lat="45.102212065224656" lon="10.05678218865331"><ele>39.14285714285714</ele><time>2026-03-29T05:35:48.001Z</time></trkpt><trkpt lat="45.10218253903562" lon="10.056687370104521"><ele>38.85714285714286</ele><time>2026-03-29T05:35:49.001Z</time></trkpt><trkpt lat="45.10215105231519" lon="10.056594536716046"><ele>38.57142857142858</ele><time>2026-03-29T05:35:50.001Z</time></trkpt><trkpt lat="45.10212089412807" lon="10.056502686551292"><ele>38.285714285714285</ele><time>2026-03-29T05:35:51.001Z</time></trkpt><trkpt lat="45.10209067324908" lon="10.056410588241118"><ele>38.0</ele><time>2026-03-29T05:35:52.001Z</time></trkpt><trkpt lat="45.10205991936147" lon="10.056318635795098"><ele>37.714285714285715</ele><time>2026-03-29T05:35:53.001Z</time></trkpt><trkpt lat="45.102029863136835" lon="10.056224428335264"><ele>37.42857142857143</ele><time>2026-03-29T05:35:54.001Z</time></trkpt><trkpt lat="45.10199806703452" lon="10.05613212034966"><ele>37.142857142857146</ele><time>2026-03-29T05:35:55.001Z</time></trkpt><trkpt lat="45.10196879856124" lon="10.0560374460922"><ele>36.85714285714286</ele><time>2026-03-29T05:35:56.001Z</time></trkpt><trkpt lat="45.10193641257783" lon="10.055942642752496"><ele>36.57142857142857</ele><time>2026-03-29T05:35:57.001Z</time></trkpt><trkpt lat="45.101905631333075" lon="10.055844751168276"><ele>36.28571428571429</ele><time>2026-03-29T05:35:58.001Z</time></trkpt><trkpt lat="45.10187549178981" lon="10.055748443664593"><ele>36.0</ele><time>2026-03-29T05:35:59.001Z</time></trkpt><trkpt lat="45.10184736690787" lon="10.055652528831649"><ele>35.714285714285715</ele><time>2026-03-29T05:36:00.001Z</time></trkpt><trkpt lat="45.101816634608504" lon="10.055557595890738"><ele>35.42857142857143</ele><time>2026-03-29T05:36:01.001Z</time></trkpt><trkpt lat="45.10178609567932" lon="10.055462713236178"><ele>35.14285714285714</ele><time>2026-03-29T05:36:02Z</time></trkpt><trkpt lat="45.10175242230372" lon="10.05536785646132"><ele>34.85714285714286</ele><time>2026-03-29T05:36:03Z</time></trkpt><trkpt lat="45.10171977260335" lon="10.055275162205211"><ele>34.57142857142857</ele><time>2026-03-29T05:36:04Z</time></trkpt><trkpt lat="45.101686981414495" lon="10.055181668832985"><ele>34.285714285714285</ele><time>2026-03-29T05:36:05Z</time></trkpt><trkpt lat="45.101654978259155" lon="10.055086678458206"><ele>34.0</ele><time>2026-03-29T05:36:06Z</time></trkpt><trkpt lat="45.101625263139226" lon="10.054993411330841"><ele>34.14285714285714</ele><time>2026-03-29T05:36:07Z</time></trkpt><trkpt lat="45.10159546899102" lon="10.054901000665076"><ele>34.285714285714285</ele><time>2026-03-29T05:36:08Z</time></trkpt><trkpt lat="45.101564636780566" lon="10.054806539683428"><ele>34.42857142857143</ele><time>2026-03-29T05:36:09Z</time></trkpt><trkpt lat="45.101534014065344" lon="10.054710938335024"><ele>34.57142857142857</ele><time>2026-03-29T05:36:10Z</time></trkpt><trkpt lat="45.101503117452815" lon="10.054617438876434"><ele>34.714285714285715</ele><time>2026-03-29T05:36:11Z</time></trkpt><trkpt lat="45.101475148836705" lon="10.054521558136834"><ele>34.857142857142854</ele><time>2026-03-29T05:36:12Z</time></trkpt><trkpt lat="45.10145050586" lon="10.054424370282021"><ele>35.0</ele><time>2026-03-29T05:36:13Z</time></trkpt><trkpt lat="45.10142197725774" lon="10.054329241708029"><ele>35.0</ele><time>2026-03-29T05:36:14Z</time></trkpt><trkpt lat="45.10139727139448" lon="10.054232481489331"><ele>35.0</ele><time>2026-03-29T05:36:15Z</time></trkpt><trkpt lat="45.10138122821767" lon="10.054131409594934"><ele>35.0</ele><time>2026-03-29T05:36:16Z</time></trkpt><trkpt lat="45.10137684310106" lon="10.054028343246381"><ele>35.0</ele><time>2026-03-29T05:36:17Z</time></trkpt><trkpt lat="45.10138037565572" lon="10.053925584982135"><ele>35.0</ele><time>2026-03-29T05:36:18Z</time></trkpt><trkpt lat="45.10138665272245" lon="10.05382192164509"><ele>35.0</ele><time>2026-03-29T05:36:19Z</time></trkpt><trkpt lat="45.10138922515024" lon="10.053720749155053"><ele>35.0</ele><time>2026-03-29T05:36:20Z</time></trkpt><trkpt lat="45.101394748559606" lon="10.053616153535435"><ele>35.0</ele><time>2026-03-29T05:36:21Z</time></trkpt><trkpt lat="45.10140255975878" lon="10.053514277642169"><ele>35.0</ele><time>2026-03-29T05:36:22Z</time></trkpt><trkpt lat="45.10140919964165" lon="10.053412008605122"><ele>35.0</ele><time>2026-03-29T05:36:23Z</time></trkpt><trkpt lat="45.10141393615975" lon="10.053309916035264"><ele>35.0</ele><time>2026-03-29T05:36:24Z</time></trkpt><trkpt lat="45.1014185464769" lon="10.053208002210376"><ele>35.0</ele><time>2026-03-29T05:36:25Z</time></trkpt><trkpt lat="45.10142570385465" lon="10.05310487153097"><ele>35.0</ele><time>2026-03-29T05:36:26Z</time></trkpt><trkpt lat="45.10143440922896" lon="10.053003562758773"><ele>35.0</ele><time>2026-03-29T05:36:27Z</time></trkpt><trkpt lat="45.10144168684004" lon="10.052900659503202"><ele>35.0</ele><time>2026-03-29T05:36:28Z</time></trkpt><trkpt lat="45.10145112779" lon="10.052796573487504"><ele>35.0</ele><time>2026-03-29T05:36:29Z</time></trkpt><trkpt lat="45.10145928165843" lon="10.05269296048012"><ele>35.0</ele><time>2026-03-29T05:36:30Z</time></trkpt><trkpt lat="45.101465948603256" lon="10.052591542506912"><ele>35.0</ele><time>2026-03-29T05:36:31Z</time></trkpt><trkpt lat="45.101474625709" lon="10.052488591391652"><ele>35.0</ele><time>2026-03-29T05:36:32Z</time></trkpt><trkpt lat="45.101484950090075" lon="10.052384330211943"><ele>35.0</ele><time>2026-03-29T05:36:33Z</time></trkpt><trkpt lat="45.10149316184222" lon="10.052281286992473"><ele>35.0</ele><time>2026-03-29T05:36:34Z</time></trkpt><trkpt lat="45.101502231679206" lon="10.052179165502508"><ele>35.142857142857146</ele><time>2026-03-29T05:36:35Z</time></trkpt><trkpt lat="45.10151033135945" lon="10.052075838443995"><ele>35.285714285714285</ele><time>2026-03-29T05:36:36Z</time></trkpt><trkpt lat="45.10152004607228" lon="10.051972755685135"><ele>35.42857142857143</ele><time>2026-03-29T05:36:37Z</time></trkpt><trkpt lat="45.10152905690553" lon="10.051868365515585"><ele>35.57142857142857</ele><time>2026-03-29T05:36:38Z</time></trkpt><trkpt lat="45.101536029535396" lon="10.051767549518553"><ele>35.714285714285715</ele><time>2026-03-29T05:36:39Z</time></trkpt><trkpt lat="45.10154361969748" lon="10.051662687758084"><ele>35.85714285714286</ele><time>2026-03-29T05:36:40Z</time></trkpt><trkpt lat="45.101551427233886" lon="10.051559481001366"><ele>36.0</ele><time>2026-03-29T05:36:41Z</time></trkpt><trkpt lat="45.10155661702797" lon="10.051457694216824"><ele>36.142857142857146</ele><time>2026-03-29T05:36:42Z</time></trkpt><trkpt lat="45.101562415395016" lon="10.051355623964621"><ele>36.285714285714285</ele><time>2026-03-29T05:36:43Z</time></trkpt><trkpt lat="45.10157261357231" lon="10.051253112091755"><ele>36.42857142857143</ele><time>2026-03-29T05:36:44Z</time></trkpt><trkpt lat="45.10158988778188" lon="10.051155090486771"><ele>36.57142857142857</ele><time>2026-03-29T05:36:45Z</time></trkpt><trkpt lat="45.1016255476636" lon="10.051062322861288"><ele>36.714285714285715</ele><time>2026-03-29T05:36:46Z</time></trkpt><trkpt lat="45.10168229423756" lon="10.05100010004245"><ele>36.85714285714286</ele><time>2026-03-29T05:36:47Z</time></trkpt><trkpt lat="45.10175648095168" lon="10.050994613949456"><ele>37.0</ele><time>2026-03-29T05:36:48Z</time></trkpt><trkpt lat="45.10182853666987" lon="10.051022309526628"><ele>37.0</ele><time>2026-03-29T05:36:49Z</time></trkpt><trkpt lat="45.10189703353553" lon="10.051048861136664"><ele>37.0</ele><time>2026-03-29T05:36:50Z</time></trkpt><trkpt lat="45.10196710017051" lon="10.05106444575102"><ele>37.0</ele><time>2026-03-29T05:36:51Z</time></trkpt><trkpt lat="45.10203908614998" lon="10.051066697701419"><ele>37.0</ele><time>2026-03-29T05:36:52Z</time></trkpt><trkpt lat="45.102110023922044" lon="10.051071655048949"><ele>37.0</ele><time>2026-03-29T05:36:52.999Z</time></trkpt><trkpt lat="45.10218250850251" lon="10.051078885224676"><ele>37.0</ele><time>2026-03-29T05:36:53.999Z</time></trkpt><trkpt lat="45.102253887010875" lon="10.051079893969618"><ele>37.0</ele><time>2026-03-29T05:36:54.999Z</time></trkpt><trkpt lat="45.102326750354045" lon="10.051084426870842"><ele>37.0</ele><time>2026-03-29T05:36:55.999Z</time></trkpt><trkpt lat="45.10239742897271" lon="10.05108850312508"><ele>37.0</ele><time>2026-03-29T05:36:56.999Z</time></trkpt><trkpt lat="45.10247153824093" lon="10.051117222324125"><ele>37.0</ele><time>2026-03-29T05:36:57.999Z</time></trkpt><trkpt lat="45.10254336942054" lon="10.05112491393034"><ele>37.0</ele><time>2026-03-29T05:36:58.999Z</time></trkpt><trkpt lat="45.10261651749645" lon="10.051133407928175"><ele>37.0</ele><time>2026-03-29T05:36:59.999Z</time></trkpt><trkpt lat="45.10269011505559" lon="10.051141954119231"><ele>37.0</ele><time>2026-03-29T05:37:00.999Z</time></trkpt><trkpt lat="45.102763954433335" lon="10.051150528390579"><ele>37.0</ele><time>2026-03-29T05:37:01.999Z</time></trkpt><trkpt lat="45.102837723766555" lon="10.051159094528188"><ele>36.66666666666667</ele><time>2026-03-29T05:37:02.999Z</time></trkpt><trkpt lat="45.10291076353224" lon="10.051168184157612"><ele>36.333333333333336</ele><time>2026-03-29T05:37:03.999Z</time></trkpt><trkpt lat="45.10298163388537" lon="10.05117908311839"><ele>36.0</ele><time>2026-03-29T05:37:04.999Z</time></trkpt><trkpt lat="45.103048925394155" lon="10.05118967735224"><ele>35.666666666666664</ele><time>2026-03-29T05:37:05.999Z</time></trkpt><trkpt lat="45.10311398237583" lon="10.051200351327058"><ele>35.33333333333333</ele><time>2026-03-29T05:37:06.999Z</time></trkpt><trkpt lat="45.103178194028594" lon="10.051210886609956"><ele>35.0</ele><time>2026-03-29T05:37:07.999Z</time></trkpt><trkpt lat="45.103293106538764" lon="10.051231041699753"><ele>34.8</ele><time>2026-03-29T05:37:09.999Z</time></trkpt><trkpt lat="45.10339595076165" lon="10.051249429131044"><ele>34.6</ele><time>2026-03-29T05:37:11.999Z</time></trkpt><trkpt lat="45.103479080551125" lon="10.051264291839916"><ele>34.4</ele><time>2026-03-29T05:37:14.999Z</time></trkpt><trkpt lat="45.103567417780766" lon="10.051280085576082"><ele>34.2</ele><time>2026-03-29T05:37:16.999Z</time></trkpt><trkpt lat="45.10368123474422" lon="10.051296691330547"><ele>34.0</ele><time>2026-03-29T05:37:18.999Z</time></trkpt><trkpt lat="45.10380534862963" lon="10.051324275702155"><ele>34.0</ele><time>2026-03-29T05:37:20.999Z</time></trkpt><trkpt lat="45.103875248932226" lon="10.051340145950588"><ele>34.0</ele><time>2026-03-29T05:37:21.999Z</time></trkpt><trkpt lat="45.103941620497444" lon="10.051353074984343"><ele>34.0</ele><time>2026-03-29T05:37:22.999Z</time></trkpt><trkpt lat="45.10406956561807" lon="10.051377609875548"><ele>34.0</ele><time>2026-03-29T05:37:24.999Z</time></trkpt><trkpt lat="45.10413433160061" lon="10.051394486159907"><ele>34.0</ele><time>2026-03-29T05:37:25.999Z</time></trkpt><trkpt lat="45.10420211452635" lon="10.051409298482874"><ele>34.0</ele><time>2026-03-29T05:37:26.999Z</time></trkpt><trkpt lat="45.104271891667686" lon="10.051424252663596"><ele>33.857142857142854</ele><time>2026-03-29T05:37:27.999Z</time></trkpt><trkpt lat="45.10434024216154" lon="10.051438356666003"><ele>33.714285714285715</ele><time>2026-03-29T05:37:28.999Z</time></trkpt><trkpt lat="45.10440807490715" lon="10.051452825025452"><ele>33.57142857142857</ele><time>2026-03-29T05:37:29.999Z</time></trkpt><trkpt lat="45.10447699612377" lon="10.051467068964556"><ele>33.42857142857143</ele><time>2026-03-29T05:37:30.999Z</time></trkpt><trkpt lat="45.104545969121105" lon="10.051480205275574"><ele>33.285714285714285</ele><time>2026-03-29T05:37:31.999Z</time></trkpt><trkpt lat="45.10461282124377" lon="10.051490903079442"><ele>33.14285714285714</ele><time>2026-03-29T05:37:32.999Z</time></trkpt><trkpt lat="45.10468093011805" lon="10.051496975557109"><ele>33.0</ele><time>2026-03-29T05:37:33.999Z</time></trkpt><trkpt lat="45.10475234305942" lon="10.051497805002498"><ele>33.0</ele><time>2026-03-29T05:37:34.999Z</time></trkpt><trkpt lat="45.10481967054942" lon="10.051495639216059"><ele>33.0</ele><time>2026-03-29T05:37:35.999Z</time></trkpt><trkpt lat="45.10488774013215" lon="10.051488883990046"><ele>33.0</ele><time>2026-03-29T05:37:36.999Z</time></trkpt><trkpt lat="45.104958543338626" lon="10.051491345136464"><ele>33.0</ele><time>2026-03-29T05:37:37.999Z</time></trkpt><trkpt lat="45.10502634105327" lon="10.051489045515954"><ele>33.0</ele><time>2026-03-29T05:37:38.999Z</time></trkpt><trkpt lat="45.105090219681955" lon="10.051487613980942"><ele>33.0</ele><time>2026-03-29T05:37:39.999Z</time></trkpt><trkpt lat="45.10519611272063" lon="10.051415996739095"><ele>33.0</ele><time>2026-03-29T05:37:41.999Z</time></trkpt><trkpt lat="45.10524604980814" lon="10.051355440175001"><ele>33.0</ele><time>2026-03-29T05:37:42.999Z</time></trkpt><trkpt lat="45.105241356190206" lon="10.051235217058942"><ele>33.0</ele><time>2026-03-29T05:37:43.999Z</time></trkpt><trkpt lat="45.10523429331603" lon="10.051127555048103"><ele>33.0</ele><time>2026-03-29T05:37:44.999Z</time></trkpt><trkpt lat="45.105230405808626" lon="10.051024320619563"><ele>33.0</ele><time>2026-03-29T05:37:45.999Z</time></trkpt><trkpt lat="45.10522908209263" lon="10.050919471965694"><ele>33.0</ele><time>2026-03-29T05:37:46.998Z</time></trkpt><trkpt lat="45.10522903321603" lon="10.0508109894011"><ele>33.14285714285714</ele><time>2026-03-29T05:37:47.998Z</time></trkpt><trkpt lat="45.10522862782816" lon="10.050701923553907"><ele>33.285714285714285</ele><time>2026-03-29T05:37:48.998Z</time></trkpt><trkpt lat="45.105228465039524" lon="10.050597628783636"><ele>33.42857142857143</ele><time>2026-03-29T05:37:49.998Z</time></trkpt><trkpt lat="45.1052257199963" lon="10.050494631111963"><ele>33.57142857142857</ele><time>2026-03-29T05:37:50.998Z</time></trkpt><trkpt lat="45.105227664660404" lon="10.050392552483387"><ele>33.714285714285715</ele><time>2026-03-29T05:37:52Z</time></trkpt><trkpt lat="45.105228920829134" lon="10.050290865413922"><ele>33.857142857142854</ele><time>2026-03-29T05:37:53Z</time></trkpt><trkpt lat="45.105229731998335" lon="10.050188071046302"><ele>34.0</ele><time>2026-03-29T05:37:54Z</time></trkpt><trkpt lat="45.105230424515234" lon="10.05008349682169"><ele>33.99999999999999</ele><time>2026-03-29T05:37:55Z</time></trkpt><trkpt lat="45.10523004203454" lon="10.049980334779146"><ele>34.0</ele><time>2026-03-29T05:37:56Z</time></trkpt><trkpt lat="45.105230942383" lon="10.049874677331841"><ele>34.0</ele><time>2026-03-29T05:37:57Z</time></trkpt><trkpt lat="45.1052295661043" lon="10.049773240700679"><ele>34.0</ele><time>2026-03-29T05:37:58Z</time></trkpt><trkpt lat="45.105227589498234" lon="10.0496682983249"><ele>34.0</ele><time>2026-03-29T05:37:59Z</time></trkpt><trkpt lat="45.105222000731025" lon="10.049562558144741"><ele>33.99999999999999</ele><time>2026-03-29T05:38:00Z</time></trkpt><trkpt lat="45.10521628947411" lon="10.049459561910739"><ele>34.0</ele><time>2026-03-29T05:38:01Z</time></trkpt><trkpt lat="45.105211703395256" lon="10.049354851820677"><ele>33.857142857142854</ele><time>2026-03-29T05:38:02Z</time></trkpt><trkpt lat="45.10520907630853" lon="10.049250198357214"><ele>33.714285714285715</ele><time>2026-03-29T05:38:03Z</time></trkpt><trkpt lat="45.10520665037969" lon="10.049147686374344"><ele>33.57142857142857</ele><time>2026-03-29T05:38:04Z</time></trkpt><trkpt lat="45.105201014930735" lon="10.049044416106586"><ele>33.42857142857143</ele><time>2026-03-29T05:38:05Z</time></trkpt><trkpt lat="45.10519076282129" lon="10.048941000542525"><ele>33.285714285714285</ele><time>2026-03-29T05:38:06Z</time></trkpt><trkpt lat="45.10518079775996" lon="10.048839154477104"><ele>33.14285714285714</ele><time>2026-03-29T05:38:07Z</time></trkpt><trkpt lat="45.10516846166074" lon="10.048734362044334"><ele>33.0</ele><time>2026-03-29T05:38:08Z</time></trkpt><trkpt lat="45.1051586103909" lon="10.04863191506404"><ele>33.285714285714285</ele><time>2026-03-29T05:38:09Z</time></trkpt><trkpt lat="45.10514673333186" lon="10.048526745366843"><ele>33.57142857142857</ele><time>2026-03-29T05:38:10Z</time></trkpt><trkpt lat="45.10513393782298" lon="10.048423685583904"><ele>33.85714285714286</ele><time>2026-03-29T05:38:11Z</time></trkpt><trkpt lat="45.105118423538094" lon="10.04832215549667"><ele>34.14285714285714</ele><time>2026-03-29T05:38:12Z</time></trkpt><trkpt lat="45.10510425179178" lon="10.048220802468393"><ele>34.42857142857143</ele><time>2026-03-29T05:38:13Z</time></trkpt><trkpt lat="45.10509167502987" lon="10.04811915996682"><ele>34.714285714285715</ele><time>2026-03-29T05:38:14Z</time></trkpt><trkpt lat="45.105081700943934" lon="10.04801899440651"><ele>35.0</ele><time>2026-03-29T05:38:15Z</time></trkpt><trkpt lat="45.10506968591538" lon="10.047918326495013"><ele>35.0</ele><time>2026-03-29T05:38:16Z</time></trkpt><trkpt lat="45.10505376800422" lon="10.047819347257123"><ele>35.0</ele><time>2026-03-29T05:38:17Z</time></trkpt><trkpt lat="45.10503075272603" lon="10.047724636190646"><ele>35.0</ele><time>2026-03-29T05:38:18Z</time></trkpt><trkpt lat="45.10500634808474" lon="10.047630662377063"><ele>35.0</ele><time>2026-03-29T05:38:19Z</time></trkpt><trkpt lat="45.104981893487775" lon="10.04753773251263"><ele>35.0</ele><time>2026-03-29T05:38:20Z</time></trkpt><trkpt lat="45.10495704932713" lon="10.047449150330053"><ele>35.0</ele><time>2026-03-29T05:38:21Z</time></trkpt><trkpt lat="45.10493524495313" lon="10.047355590610401"><ele>35.0</ele><time>2026-03-29T05:38:22Z</time></trkpt><trkpt lat="45.104912939604695" lon="10.047258139943239"><ele>34.714285714285715</ele><time>2026-03-29T05:38:23Z</time></trkpt><trkpt lat="45.10489150181339" lon="10.047162484829553"><ele>34.42857142857143</ele><time>2026-03-29T05:38:24Z</time></trkpt><trkpt lat="45.1048693102043" lon="10.047065463649608"><ele>34.14285714285714</ele><time>2026-03-29T05:38:25Z</time></trkpt><trkpt lat="45.10484801553669" lon="10.046968675488632"><ele>33.85714285714286</ele><time>2026-03-29T05:38:26Z</time></trkpt><trkpt lat="45.10482465223001" lon="10.046872097860481"><ele>33.57142857142857</ele><time>2026-03-29T05:38:27Z</time></trkpt><trkpt lat="45.10480168993778" lon="10.046773476738007"><ele>33.285714285714285</ele><time>2026-03-29T05:38:28Z</time></trkpt><trkpt lat="45.10477828965272" lon="10.046675381715545"><ele>33.0</ele><time>2026-03-29T05:38:29Z</time></trkpt><trkpt lat="45.104756379752864" lon="10.04657814460249"><ele>33.0</ele><time>2026-03-29T05:38:30Z</time></trkpt><trkpt lat="45.10473420686443" lon="10.046477414352491"><ele>33.0</ele><time>2026-03-29T05:38:31Z</time></trkpt><trkpt lat="45.104711918639495" lon="10.046376168340489"><ele>33.0</ele><time>2026-03-29T05:38:32Z</time></trkpt><trkpt lat="45.10468723949898" lon="10.046275839130601"><ele>33.0</ele><time>2026-03-29T05:38:33Z</time></trkpt><trkpt lat="45.1046632602407" lon="10.046177116568218"><ele>33.0</ele><time>2026-03-29T05:38:34Z</time></trkpt><trkpt lat="45.104639909658104" lon="10.046076350039739"><ele>33.0</ele><time>2026-03-29T05:38:35Z</time></trkpt><trkpt lat="45.10461727178281" lon="10.045977123465885"><ele>33.0</ele><time>2026-03-29T05:38:36Z</time></trkpt><trkpt lat="45.10459347902114" lon="10.045877061724495"><ele>33.285714285714285</ele><time>2026-03-29T05:38:37Z</time></trkpt><trkpt lat="45.104570762799305" lon="10.045775805456284"><ele>33.57142857142857</ele><time>2026-03-29T05:38:38Z</time></trkpt><trkpt lat="45.10454956546689" lon="10.045678424598762"><ele>33.85714285714286</ele><time>2026-03-29T05:38:39Z</time></trkpt><trkpt lat="45.104527285452576" lon="10.045580651250459"><ele>34.14285714285714</ele><time>2026-03-29T05:38:40Z</time></trkpt><trkpt lat="45.104506435266096" lon="10.04548429939166"><ele>34.42857142857143</ele><time>2026-03-29T05:38:41Z</time></trkpt><trkpt lat="45.10448369520275" lon="10.04539028245923"><ele>34.714285714285715</ele><time>2026-03-29T05:38:42Z</time></trkpt><trkpt lat="45.10446396695789" lon="10.045293341591181"><ele>35.0</ele><time>2026-03-29T05:38:43Z</time></trkpt><trkpt lat="45.10444255768881" lon="10.04519848856115"><ele>35.0</ele><time>2026-03-29T05:38:44Z</time></trkpt><trkpt lat="45.10442209922038" lon="10.045103046501056"><ele>35.0</ele><time>2026-03-29T05:38:45Z</time></trkpt><trkpt lat="45.10440132549541" lon="10.04500800382408"><ele>35.0</ele><time>2026-03-29T05:38:46Z</time></trkpt><trkpt lat="45.10438002872211" lon="10.044914153081969"><ele>35.0</ele><time>2026-03-29T05:38:47Z</time></trkpt><trkpt lat="45.10435910182444" lon="10.044823045187776"><ele>35.0</ele><time>2026-03-29T05:38:48Z</time></trkpt><trkpt lat="45.10433733203828" lon="10.04473232653009"><ele>35.0</ele><time>2026-03-29T05:38:49Z</time></trkpt><trkpt lat="45.104317660921055" lon="10.04464238213256"><ele>35.0</ele><time>2026-03-29T05:38:50Z</time></trkpt><trkpt lat="45.104298572483465" lon="10.044551769705915"><ele>35.166666666666664</ele><time>2026-03-29T05:38:51Z</time></trkpt><trkpt lat="45.10427862188238" lon="10.044463811303906"><ele>35.33333333333333</ele><time>2026-03-29T05:38:52Z</time></trkpt><trkpt lat="45.104257211888324" lon="10.044376257583144"><ele>35.5</ele><time>2026-03-29T05:38:53Z</time></trkpt><trkpt lat="45.10423614768903" lon="10.044290874428894"><ele>35.666666666666664</ele><time>2026-03-29T05:38:54Z</time></trkpt><trkpt lat="45.10421396371778" lon="10.044203605451482"><ele>35.833333333333336</ele><time>2026-03-29T05:38:55Z</time></trkpt><trkpt lat="45.10418973325376" lon="10.044119371699566"><ele>36.0</ele><time>2026-03-29T05:38:55.999Z</time></trkpt><trkpt lat="45.104135138986045" lon="10.04395897569861"><ele>35.5</ele><time>2026-03-29T05:38:57.999Z</time></trkpt><trkpt lat="45.10407891219553" lon="10.04380572146296"><ele>35.0</ele><time>2026-03-29T05:38:59.999Z</time></trkpt><trkpt lat="45.104020717909535" lon="10.043654068871094"><ele>34.5</ele><time>2026-03-29T05:39:01.999Z</time></trkpt><trkpt lat="45.10397575279419" lon="10.043504421359703"><ele>34.0</ele><time>2026-03-29T05:39:03.999Z</time></trkpt><trkpt lat="45.10391216120956" lon="10.043372368495858"><ele>34.4</ele><time>2026-03-29T05:39:05.999Z</time></trkpt><trkpt lat="45.10396777794633" lon="10.043237391163531"><ele>34.8</ele><time>2026-03-29T05:39:07.999Z</time></trkpt><trkpt lat="45.10404426586171" lon="10.043122002246607"><ele>35.2</ele><time>2026-03-29T05:39:09.999Z</time></trkpt><trkpt lat="45.10411114619374" lon="10.043008284172114"><ele>35.6</ele><time>2026-03-29T05:39:11.999Z</time></trkpt><trkpt lat="45.10417755890293" lon="10.042878455338014"><ele>36.0</ele><time>2026-03-29T05:39:13.999Z</time></trkpt><trkpt lat="45.10424653344409" lon="10.042750019548333"><ele>36.166666666666664</ele><time>2026-03-29T05:39:15.999Z</time></trkpt><trkpt lat="45.10431615090198" lon="10.042625558578132"><ele>36.333333333333336</ele><time>2026-03-29T05:39:17.999Z</time></trkpt><trkpt lat="45.10439190858049" lon="10.042499658793966"><ele>36.5</ele><time>2026-03-29T05:39:19.999Z</time></trkpt><trkpt lat="45.104430310922034" lon="10.042427798117695"><ele>36.66666666666667</ele><time>2026-03-29T05:39:20.999Z</time></trkpt><trkpt lat="45.10446975429396" lon="10.042354615307481"><ele>36.833333333333336</ele><time>2026-03-29T05:39:21.999Z</time></trkpt><trkpt lat="45.10451206264741" lon="10.042280760483422"><ele>37.0</ele><time>2026-03-29T05:39:22.999Z</time></trkpt><trkpt lat="45.104557988616676" lon="10.042206774642604"><ele>37.0</ele><time>2026-03-29T05:39:23.999Z</time></trkpt><trkpt lat="45.1046024239891" lon="10.042136484339085"><ele>37.0</ele><time>2026-03-29T05:39:24.999Z</time></trkpt><trkpt lat="45.10464513520208" lon="10.042063186208049"><ele>37.0</ele><time>2026-03-29T05:39:25.999Z</time></trkpt><trkpt lat="45.10468686039929" lon="10.04198818143053"><ele>37.0</ele><time>2026-03-29T05:39:26.999Z</time></trkpt><trkpt lat="45.10473012490597" lon="10.041913504229312"><ele>37.0</ele><time>2026-03-29T05:39:27.999Z</time></trkpt><trkpt lat="45.10477283361691" lon="10.041839949263181"><ele>37.0</ele><time>2026-03-29T05:39:28.999Z</time></trkpt><trkpt lat="45.10481700664252" lon="10.041765807121958"><ele>37.0</ele><time>2026-03-29T05:39:29.999Z</time></trkpt><trkpt lat="45.10485787092047" lon="10.04169418213875"><ele>37.2</ele><time>2026-03-29T05:39:30.999Z</time></trkpt><trkpt lat="45.10490005292288" lon="10.041627053233563"><ele>37.400000000000006</ele><time>2026-03-29T05:39:31.999Z</time></trkpt><trkpt lat="45.104980690592605" lon="10.041502038254766"><ele>37.599999999999994</ele><time>2026-03-29T05:39:33.999Z</time></trkpt><trkpt lat="45.105044840074335" lon="10.0413797680601"><ele>37.8</ele><time>2026-03-29T05:39:35.999Z</time></trkpt><trkpt lat="45.10511993525186" lon="10.041247998885014"><ele>38.0</ele><time>2026-03-29T05:39:37.999Z</time></trkpt><trkpt lat="45.1051648551657" lon="10.04118478953801"><ele>38.0</ele><time>2026-03-29T05:39:38.999Z</time></trkpt><trkpt lat="45.105229076462294" lon="10.041073295690287"><ele>38.0</ele><time>2026-03-29T05:39:40.999Z</time></trkpt><trkpt lat="45.10515167261803" lon="10.04096691719728"><ele>38.0</ele><time>2026-03-29T05:39:41.999Z</time></trkpt><trkpt lat="45.105034103244336" lon="10.040920256494102"><ele>38.0</ele><time>2026-03-29T05:39:43.999Z</time></trkpt><trkpt lat="45.10492798599919" lon="10.040860375793367"><ele>38.0</ele><time>2026-03-29T05:39:45.999Z</time></trkpt><trkpt lat="45.10481827639199" lon="10.040821745990954"><ele>38.199999999999996</ele><time>2026-03-29T05:39:47.999Z</time></trkpt><trkpt lat="45.10470153433868" lon="10.040781770062782"><ele>38.4</ele><time>2026-03-29T05:39:49.998Z</time></trkpt><trkpt lat="45.10458050656794" lon="10.040759325014493"><ele>38.599999999999994</ele><time>2026-03-29T05:39:51.998Z</time></trkpt><trkpt lat="45.104463768970895" lon="10.04071875887113"><ele>38.8</ele><time>2026-03-29T05:39:53.998Z</time></trkpt><trkpt lat="45.104401824113964" lon="10.040697461340448"><ele>39.0</ele><time>2026-03-29T05:39:54.998Z</time></trkpt><trkpt lat="45.10434066870954" lon="10.040674332808216"><ele>39.0</ele><time>2026-03-29T05:39:55.998Z</time></trkpt><trkpt lat="45.10427255714544" lon="10.040646306530736"><ele>39.0</ele><time>2026-03-29T05:39:56.998Z</time></trkpt><trkpt lat="45.10420707881005" lon="10.040628725443648"><ele>39.0</ele><time>2026-03-29T05:39:58Z</time></trkpt><trkpt lat="45.10408138078361" lon="10.040578754439268"><ele>39.0</ele><time>2026-03-29T05:40:00Z</time></trkpt><trkpt lat="45.10401747924386" lon="10.040552244495844"><ele>39.0</ele><time>2026-03-29T05:40:01Z</time></trkpt><trkpt lat="45.10394949498205" lon="10.040526988318703"><ele>39.0</ele><time>2026-03-29T05:40:02Z</time></trkpt><trkpt lat="45.10388554154225" lon="10.040498592601965"><ele>38.714285714285715</ele><time>2026-03-29T05:40:03Z</time></trkpt><trkpt lat="45.10381936194139" lon="10.04047377263903"><ele>38.42857142857142</ele><time>2026-03-29T05:40:04Z</time></trkpt><trkpt lat="45.1037536101809" lon="10.040451444488314"><ele>38.14285714285714</ele><time>2026-03-29T05:40:05Z</time></trkpt><trkpt lat="45.10368846653982" lon="10.04043321764276"><ele>37.85714285714286</ele><time>2026-03-29T05:40:06Z</time></trkpt><trkpt lat="45.103621491504626" lon="10.040412613328563"><ele>37.57142857142857</ele><time>2026-03-29T05:40:07Z</time></trkpt><trkpt lat="45.10355310865834" lon="10.04039573657504"><ele>37.285714285714285</ele><time>2026-03-29T05:40:08Z</time></trkpt><trkpt lat="45.103485063349154" lon="10.040375129047185"><ele>37.0</ele><time>2026-03-29T05:40:09Z</time></trkpt><trkpt lat="45.103417757393096" lon="10.040353159831719"><ele>37.0</ele><time>2026-03-29T05:40:10Z</time></trkpt><trkpt lat="45.10335066062966" lon="10.040330786915472"><ele>37.0</ele><time>2026-03-29T05:40:11Z</time></trkpt><trkpt lat="45.10328515996917" lon="10.040307048835945"><ele>37.0</ele><time>2026-03-29T05:40:12Z</time></trkpt><trkpt lat="45.10321632366553" lon="10.040283230660368"><ele>37.0</ele><time>2026-03-29T05:40:13Z</time></trkpt><trkpt lat="45.10314989009326" lon="10.040258065250377"><ele>37.0</ele><time>2026-03-29T05:40:14Z</time></trkpt><trkpt lat="45.103082476160566" lon="10.040233386404731"><ele>37.0</ele><time>2026-03-29T05:40:15Z</time></trkpt><trkpt lat="45.1030155251552" lon="10.040210002513616"><ele>37.0</ele><time>2026-03-29T05:40:16Z</time></trkpt><trkpt lat="45.10294725016471" lon="10.040180877809844"><ele>36.714285714285715</ele><time>2026-03-29T05:40:17Z</time></trkpt><trkpt lat="45.10288068907101" lon="10.040145511429868"><ele>36.42857142857143</ele><time>2026-03-29T05:40:18Z</time></trkpt><trkpt lat="45.1028144015636" lon="10.040116725217691"><ele>36.14285714285714</ele><time>2026-03-29T05:40:19Z</time></trkpt><trkpt lat="45.102745292424395" lon="10.040090633268989"><ele>35.85714285714286</ele><time>2026-03-29T05:40:20Z</time></trkpt><trkpt lat="45.10267688780311" lon="10.040060777257283"><ele>35.57142857142857</ele><time>2026-03-29T05:40:21Z</time></trkpt><trkpt lat="45.102610599653566" lon="10.040028329562334"><ele>35.285714285714285</ele><time>2026-03-29T05:40:22Z</time></trkpt><trkpt lat="45.10254085379995" lon="10.039993229451103"><ele>35.0</ele><time>2026-03-29T05:40:23Z</time></trkpt><trkpt lat="45.1024731818328" lon="10.039961575645194"><ele>35.142857142857146</ele><time>2026-03-29T05:40:24Z</time></trkpt><trkpt lat="45.10240397162184" lon="10.039928025897929"><ele>35.285714285714285</ele><time>2026-03-29T05:40:25Z</time></trkpt><trkpt lat="45.10233800875465" lon="10.039900225039906"><ele>35.42857142857143</ele><time>2026-03-29T05:40:26Z</time></trkpt><trkpt lat="45.10226754285169" lon="10.039867915338897"><ele>35.57142857142857</ele><time>2026-03-29T05:40:27Z</time></trkpt><trkpt lat="45.10219947413754" lon="10.039837909020438"><ele>35.714285714285715</ele><time>2026-03-29T05:40:28Z</time></trkpt><trkpt lat="45.10212993875699" lon="10.039811075775036"><ele>35.85714285714286</ele><time>2026-03-29T05:40:29Z</time></trkpt><trkpt lat="45.10206377029413" lon="10.039776962791153"><ele>36.0</ele><time>2026-03-29T05:40:30Z</time></trkpt><trkpt lat="45.101998143695354" lon="10.039738449832843"><ele>36.00000000000001</ele><time>2026-03-29T05:40:31Z</time></trkpt><trkpt lat="45.101931303480185" lon="10.039702401189002"><ele>36.0</ele><time>2026-03-29T05:40:32Z</time></trkpt><trkpt lat="45.10186476809155" lon="10.039660797915763"><ele>36.0</ele><time>2026-03-29T05:40:33Z</time></trkpt><trkpt lat="45.101799504666154" lon="10.039621444572301"><ele>36.0</ele><time>2026-03-29T05:40:34Z</time></trkpt><trkpt lat="45.10173425996949" lon="10.039583962888994"><ele>36.0</ele><time>2026-03-29T05:40:35Z</time></trkpt><trkpt lat="45.101671565384024" lon="10.039532213671935"><ele>36.00000000000001</ele><time>2026-03-29T05:40:36Z</time></trkpt><trkpt lat="45.10160708718499" lon="10.039485886848293"><ele>36.0</ele><time>2026-03-29T05:40:37Z</time></trkpt><trkpt lat="45.101540170158586" lon="10.03944278593617"><ele>36.142857142857146</ele><time>2026-03-29T05:40:38Z</time></trkpt><trkpt lat="45.10147330569392" lon="10.03940779191322"><ele>36.285714285714285</ele><time>2026-03-29T05:40:39Z</time></trkpt><trkpt lat="45.101407559666434" lon="10.039367324096833"><ele>36.42857142857143</ele><time>2026-03-29T05:40:40Z</time></trkpt><trkpt lat="45.10134321900728" lon="10.039327169746482"><ele>36.57142857142857</ele><time>2026-03-29T05:40:41Z</time></trkpt><trkpt lat="45.10127569237872" lon="10.039284550715218"><ele>36.714285714285715</ele><time>2026-03-29T05:40:42Z</time></trkpt><trkpt lat="45.10121071741264" lon="10.039239487087768"><ele>36.85714285714286</ele><time>2026-03-29T05:40:43Z</time></trkpt><trkpt lat="45.10114828676027" lon="10.039202149991624"><ele>37.0</ele><time>2026-03-29T05:40:44Z</time></trkpt><trkpt lat="45.10108273705615" lon="10.03916893871775"><ele>37.0</ele><time>2026-03-29T05:40:45Z</time></trkpt><trkpt lat="45.10101604953678" lon="10.039131097597595"><ele>37.0</ele><time>2026-03-29T05:40:46Z</time></trkpt><trkpt lat="45.1009525278792" lon="10.039092732067227"><ele>37.0</ele><time>2026-03-29T05:40:47Z</time></trkpt><trkpt lat="45.10088838228599" lon="10.03905871293405"><ele>37.0</ele><time>2026-03-29T05:40:48Z</time></trkpt><trkpt lat="45.100828832269926" lon="10.039019719215531"><ele>37.0</ele><time>2026-03-29T05:40:49Z</time></trkpt><trkpt lat="45.10076762009586" lon="10.038977052687057"><ele>37.0</ele><time>2026-03-29T05:40:50Z</time></trkpt><trkpt lat="45.100701756503476" lon="10.038930919306686"><ele>37.0</ele><time>2026-03-29T05:40:51Z</time></trkpt><trkpt lat="45.100636617237896" lon="10.038892981191509"><ele>37.142857142857146</ele><time>2026-03-29T05:40:52Z</time></trkpt><trkpt lat="45.1005713923031" lon="10.038852875602187"><ele>37.285714285714285</ele><time>2026-03-29T05:40:53Z</time></trkpt><trkpt lat="45.10050646012453" lon="10.038814120699195"><ele>37.42857142857143</ele><time>2026-03-29T05:40:54Z</time></trkpt><trkpt lat="45.10044291049668" lon="10.038777953651651"><ele>37.57142857142857</ele><time>2026-03-29T05:40:55Z</time></trkpt><trkpt lat="45.10038019359177" lon="10.038737036539981"><ele>37.714285714285715</ele><time>2026-03-29T05:40:56Z</time></trkpt><trkpt lat="45.10032122689723" lon="10.038693674592512"><ele>37.857142857142854</ele><time>2026-03-29T05:40:57Z</time></trkpt><trkpt lat="45.10026255119767" lon="10.038650604371695"><ele>38.0</ele><time>2026-03-29T05:40:58Z</time></trkpt><trkpt lat="45.100205549129754" lon="10.03860585220963"><ele>38.0</ele><time>2026-03-29T05:40:58.999Z</time></trkpt><trkpt lat="45.10014597278464" lon="10.038558412951785"><ele>38.0</ele><time>2026-03-29T05:40:59.999Z</time></trkpt><trkpt lat="45.10008131656048" lon="10.03850653494154"><ele>38.0</ele><time>2026-03-29T05:41:00.999Z</time></trkpt><trkpt lat="45.10001785565118" lon="10.038451267599521"><ele>38.0</ele><time>2026-03-29T05:41:01.999Z</time></trkpt><trkpt lat="45.09995280742667" lon="10.038401797877174"><ele>38.0</ele><time>2026-03-29T05:41:02.999Z</time></trkpt><trkpt lat="45.09988900697751" lon="10.038348386423008"><ele>38.0</ele><time>2026-03-29T05:41:03.999Z</time></trkpt><trkpt lat="45.09982719730825" lon="10.03829623618694"><ele>38.0</ele><time>2026-03-29T05:41:04.999Z</time></trkpt><trkpt lat="45.09976589886038" lon="10.03824436832878"><ele>37.714285714285715</ele><time>2026-03-29T05:41:05.999Z</time></trkpt><trkpt lat="45.09970547794799" lon="10.03819078892413"><ele>37.42857142857143</ele><time>2026-03-29T05:41:06.999Z</time></trkpt><trkpt lat="45.09964517247044" lon="10.038143421764026"><ele>37.142857142857146</ele><time>2026-03-29T05:41:07.999Z</time></trkpt><trkpt lat="45.09958238040867" lon="10.038090658504464"><ele>36.85714285714286</ele><time>2026-03-29T05:41:08.999Z</time></trkpt><trkpt lat="45.099523602163366" lon="10.0380336617103"><ele>36.57142857142857</ele><time>2026-03-29T05:41:09.999Z</time></trkpt><trkpt lat="45.099462212489904" lon="10.03797467735618"><ele>36.28571428571429</ele><time>2026-03-29T05:41:10.999Z</time></trkpt><trkpt lat="45.09940309281414" lon="10.037923350273147"><ele>36.0</ele><time>2026-03-29T05:41:11.999Z</time></trkpt><trkpt lat="45.09934238703148" lon="10.037870185862628"><ele>36.00000000000001</ele><time>2026-03-29T05:41:12.999Z</time></trkpt><trkpt lat="45.09928026719387" lon="10.037816576502669"><ele>36.0</ele><time>2026-03-29T05:41:13.999Z</time></trkpt><trkpt lat="45.099219875971585" lon="10.037761624929113"><ele>36.0</ele><time>2026-03-29T05:41:14.999Z</time></trkpt><trkpt lat="45.099160169472135" lon="10.03770049528681"><ele>36.0</ele><time>2026-03-29T05:41:15.999Z</time></trkpt><trkpt lat="45.09910118026933" lon="10.03763762947721"><ele>36.0</ele><time>2026-03-29T05:41:16.999Z</time></trkpt><trkpt lat="45.099045168665505" lon="10.037572938834174"><ele>36.00000000000001</ele><time>2026-03-29T05:41:17.999Z</time></trkpt><trkpt lat="45.0989890667341" lon="10.037504477482804"><ele>36.0</ele><time>2026-03-29T05:41:18.999Z</time></trkpt><trkpt lat="45.09893314421691" lon="10.037437268562853"><ele>35.714285714285715</ele><time>2026-03-29T05:41:19.999Z</time></trkpt><trkpt lat="45.098877130134206" lon="10.037371984865988"><ele>35.42857142857143</ele><time>2026-03-29T05:41:20.999Z</time></trkpt><trkpt lat="45.098822609007435" lon="10.037308203241226"><ele>35.14285714285714</ele><time>2026-03-29T05:41:21.999Z</time></trkpt><trkpt lat="45.09876806310501" lon="10.037240988498308"><ele>34.85714285714286</ele><time>2026-03-29T05:41:22.999Z</time></trkpt><trkpt lat="45.09870988841433" lon="10.037172358073764"><ele>34.57142857142857</ele><time>2026-03-29T05:41:23.999Z</time></trkpt><trkpt lat="45.09865619348108" lon="10.037105924744376"><ele>34.285714285714285</ele><time>2026-03-29T05:41:24.999Z</time></trkpt><trkpt lat="45.09860067330989" lon="10.03704074938617"><ele>34.0</ele><time>2026-03-29T05:41:25.999Z</time></trkpt><trkpt lat="45.098545752747626" lon="10.036976766265374"><ele>33.99999999999999</ele><time>2026-03-29T05:41:26.999Z</time></trkpt><trkpt lat="45.098487651887844" lon="10.036915198832173"><ele>34.0</ele><time>2026-03-29T05:41:27.999Z</time></trkpt><trkpt lat="45.09843011520535" lon="10.03685824089149"><ele>34.0</ele><time>2026-03-29T05:41:28.999Z</time></trkpt><trkpt lat="45.09837544683442" lon="10.036794695751373"><ele>34.0</ele><time>2026-03-29T05:41:29.999Z</time></trkpt><trkpt lat="45.09831929212889" lon="10.036739685637972"><ele>34.0</ele><time>2026-03-29T05:41:30.999Z</time></trkpt><trkpt lat="45.09826205473853" lon="10.036689157340028"><ele>33.99999999999999</ele><time>2026-03-29T05:41:31.999Z</time></trkpt><trkpt lat="45.09820360963954" lon="10.036645396005651"><ele>34.0</ele><time>2026-03-29T05:41:32.999Z</time></trkpt><trkpt lat="45.09814521372165" lon="10.036606622966508"><ele>34.57142857142857</ele><time>2026-03-29T05:41:33.999Z</time></trkpt><trkpt lat="45.098084358375566" lon="10.036565228377986"><ele>35.14285714285714</ele><time>2026-03-29T05:41:34.999Z</time></trkpt><trkpt lat="45.098025335103124" lon="10.036532705325522"><ele>35.71428571428571</ele><time>2026-03-29T05:41:35.999Z</time></trkpt><trkpt lat="45.09796423272512" lon="10.03650220936488"><ele>36.285714285714285</ele><time>2026-03-29T05:41:36.999Z</time></trkpt><trkpt lat="45.09790546211615" lon="10.036468540196148"><ele>36.85714285714286</ele><time>2026-03-29T05:41:37.999Z</time></trkpt><trkpt lat="45.09784845261946" lon="10.036427597847005"><ele>37.42857142857142</ele><time>2026-03-29T05:41:38.999Z</time></trkpt><trkpt lat="45.097794279898295" lon="10.036381565222698"><ele>38.0</ele><time>2026-03-29T05:41:39.999Z</time></trkpt><trkpt lat="45.0977446221466" lon="10.03631830166196"><ele>38.0</ele><time>2026-03-29T05:41:40.999Z</time></trkpt><trkpt lat="45.097695950713415" lon="10.036256824063523"><ele>38.0</ele><time>2026-03-29T05:41:41.999Z</time></trkpt><trkpt lat="45.09764890288688" lon="10.036192047132554"><ele>38.0</ele><time>2026-03-29T05:41:42.999Z</time></trkpt><trkpt lat="45.09760238074379" lon="10.036130191249203"><ele>38.0</ele><time>2026-03-29T05:41:43.999Z</time></trkpt><trkpt lat="45.09755618498761" lon="10.036065270982476"><ele>38.0</ele><time>2026-03-29T05:41:44.999Z</time></trkpt><trkpt lat="45.097507667231824" lon="10.036000058826904"><ele>38.0</ele><time>2026-03-29T05:41:45.999Z</time></trkpt><trkpt lat="45.09745984301759" lon="10.035935007472402"><ele>38.0</ele><time>2026-03-29T05:41:46.999Z</time></trkpt><trkpt lat="45.09741564251483" lon="10.035866270498042"><ele>37.5</ele><time>2026-03-29T05:41:47.999Z</time></trkpt><trkpt lat="45.09737029944797" lon="10.03579290404503"><ele>37.0</ele><time>2026-03-29T05:41:48.999Z</time></trkpt><trkpt lat="45.097329853770624" lon="10.035717037245306"><ele>36.5</ele><time>2026-03-29T05:41:49.999Z</time></trkpt><trkpt lat="45.097287823323924" lon="10.035641898576042"><ele>36.0</ele><time>2026-03-29T05:41:50.999Z</time></trkpt><trkpt lat="45.097251666417804" lon="10.035566650176893"><ele>35.5</ele><time>2026-03-29T05:41:51.998Z</time></trkpt><trkpt lat="45.09721973594799" lon="10.035488304100745"><ele>35.0</ele><time>2026-03-29T05:41:52.998Z</time></trkpt><trkpt lat="45.097154235321426" lon="10.035344034488025"><ele>35.0</ele><time>2026-03-29T05:41:54.998Z</time></trkpt><trkpt lat="45.09709298413495" lon="10.035209256365091"><ele>35.0</ele><time>2026-03-29T05:41:56.998Z</time></trkpt><trkpt lat="45.09705746076936" lon="10.03509586810127"><ele>35.0</ele><time>2026-03-29T05:41:58.998Z</time></trkpt><trkpt lat="45.09708540439489" lon="10.035001866421096"><ele>35.0</ele><time>2026-03-29T05:42:00.998Z</time></trkpt><trkpt lat="45.09718206575054" lon="10.034959802319904"><ele>35.0</ele><time>2026-03-29T05:42:02.998Z</time></trkpt><trkpt lat="45.097286216260656" lon="10.034967860459266"><ele>35.2</ele><time>2026-03-29T05:42:05Z</time></trkpt><trkpt lat="45.09739157963757" lon="10.03495527602248"><ele>35.4</ele><time>2026-03-29T05:42:07Z</time></trkpt><trkpt lat="45.09751770357911" lon="10.034934794748763"><ele>35.6</ele><time>2026-03-29T05:42:09Z</time></trkpt><trkpt lat="45.097643428110516" lon="10.034923010517018"><ele>35.8</ele><time>2026-03-29T05:42:11Z</time></trkpt><trkpt lat="45.09770692179872" lon="10.03491486159438"><ele>36.0</ele><time>2026-03-29T05:42:12Z</time></trkpt><trkpt lat="45.09777136096405" lon="10.034906141713906"><ele>36.00000000000001</ele><time>2026-03-29T05:42:13Z</time></trkpt><trkpt lat="45.097834510125054" lon="10.034900394349227"><ele>36.0</ele><time>2026-03-29T05:42:14Z</time></trkpt><trkpt lat="45.09789555077188" lon="10.034865225308181"><ele>36.0</ele><time>2026-03-29T05:42:15Z</time></trkpt><trkpt lat="45.097960773029016" lon="10.034855191116177"><ele>36.0</ele><time>2026-03-29T05:42:16Z</time></trkpt><trkpt lat="45.09802775176542" lon="10.034850422744958"><ele>36.0</ele><time>2026-03-29T05:42:17Z</time></trkpt><trkpt lat="45.09809205053952" lon="10.03484642902964"><ele>36.00000000000001</ele><time>2026-03-29T05:42:18Z</time></trkpt><trkpt lat="45.09815913354618" lon="10.034864449364585"><ele>36.0</ele><time>2026-03-29T05:42:19Z</time></trkpt><trkpt lat="45.09822720562843" lon="10.03485783756731"><ele>35.57142857142858</ele><time>2026-03-29T05:42:20Z</time></trkpt><trkpt lat="45.09829875980931" lon="10.034850450345868"><ele>35.142857142857146</ele><time>2026-03-29T05:42:21Z</time></trkpt><trkpt lat="45.09836657114066" lon="10.034842972540426"><ele>34.714285714285715</ele><time>2026-03-29T05:42:22Z</time></trkpt><trkpt lat="45.098435812346615" lon="10.034829465857936"><ele>34.28571428571429</ele><time>2026-03-29T05:42:23Z</time></trkpt><trkpt lat="45.09850226839296" lon="10.034817704819192"><ele>33.85714285714286</ele><time>2026-03-29T05:42:24Z</time></trkpt><trkpt lat="45.0985702494847" lon="10.034801347671854"><ele>33.42857142857143</ele><time>2026-03-29T05:42:25Z</time></trkpt><trkpt lat="45.0986364105115" lon="10.034794262095927"><ele>33.0</ele><time>2026-03-29T05:42:26Z</time></trkpt><trkpt lat="45.09870477656762" lon="10.034780932109491"><ele>33.0</ele><time>2026-03-29T05:42:27Z</time></trkpt><trkpt lat="45.09877461334595" lon="10.034769366255174"><ele>33.0</ele><time>2026-03-29T05:42:28Z</time></trkpt><trkpt lat="45.09884312781376" lon="10.034758730870154"><ele>33.0</ele><time>2026-03-29T05:42:29Z</time></trkpt><trkpt lat="45.0989116749673" lon="10.034750194869531"><ele>33.0</ele><time>2026-03-29T05:42:30Z</time></trkpt><trkpt lat="45.09898024478401" lon="10.034740267563116"><ele>33.0</ele><time>2026-03-29T05:42:31Z</time></trkpt><trkpt lat="45.09904932457283" lon="10.034729618737476"><ele>33.0</ele><time>2026-03-29T05:42:32Z</time></trkpt><trkpt lat="45.099117912844214" lon="10.03471721340176"><ele>33.0</ele><time>2026-03-29T05:42:33Z</time></trkpt><trkpt lat="45.09918730343987" lon="10.0347074756343"><ele>32.714285714285715</ele><time>2026-03-29T05:42:34Z</time></trkpt><trkpt lat="45.0992566568367" lon="10.034698638748672"><ele>32.42857142857143</ele><time>2026-03-29T05:42:35Z</time></trkpt><trkpt lat="45.09932656966143" lon="10.034689600607997"><ele>32.142857142857146</ele><time>2026-03-29T05:42:36Z</time></trkpt><trkpt lat="45.09939743229207" lon="10.034680705445586"><ele>31.857142857142858</ele><time>2026-03-29T05:42:37Z</time></trkpt><trkpt lat="45.09946806023633" lon="10.034672842213276"><ele>31.571428571428577</ele><time>2026-03-29T05:42:38Z</time></trkpt><trkpt lat="45.09953627631556" lon="10.034663621873644"><ele>31.28571428571429</ele><time>2026-03-29T05:42:39Z</time></trkpt><trkpt lat="45.099606994628736" lon="10.03465353403411"><ele>31.0</ele><time>2026-03-29T05:42:40Z</time></trkpt><trkpt lat="45.099677373021336" lon="10.034639172776103"><ele>31.0</ele><time>2026-03-29T05:42:41Z</time></trkpt><trkpt lat="45.099745294219915" lon="10.034621823240055"><ele>31.000000000000004</ele><time>2026-03-29T05:42:42Z</time></trkpt><trkpt lat="45.09981449402665" lon="10.03459492063654"><ele>31.0</ele><time>2026-03-29T05:42:43Z</time></trkpt><trkpt lat="45.09987930591199" lon="10.034558124951788"><ele>31.0</ele><time>2026-03-29T05:42:44Z</time></trkpt><trkpt lat="45.09994681994609" lon="10.034513511226974"><ele>31.000000000000004</ele><time>2026-03-29T05:42:45Z</time></trkpt><trkpt lat="45.10000785360912" lon="10.034463633164348"><ele>31.0</ele><time>2026-03-29T05:42:46Z</time></trkpt><trkpt lat="45.10007458826028" lon="10.034418656766597"><ele>31.0</ele><time>2026-03-29T05:42:47Z</time></trkpt><trkpt lat="45.100139406658606" lon="10.034374916584333"><ele>31.28571428571429</ele><time>2026-03-29T05:42:48Z</time></trkpt><trkpt lat="45.10020491257679" lon="10.03433125950874"><ele>31.571428571428577</ele><time>2026-03-29T05:42:49Z</time></trkpt><trkpt lat="45.10027175067895" lon="10.03429141554847"><ele>31.857142857142858</ele><time>2026-03-29T05:42:50Z</time></trkpt><trkpt lat="45.100338420292125" lon="10.03425099540526"><ele>32.142857142857146</ele><time>2026-03-29T05:42:51Z</time></trkpt><trkpt lat="45.10040551575658" lon="10.034208325703855"><ele>32.42857142857143</ele><time>2026-03-29T05:42:52Z</time></trkpt><trkpt lat="45.10047034730807" lon="10.03416592057576"><ele>32.714285714285715</ele><time>2026-03-29T05:42:53Z</time></trkpt><trkpt lat="45.10053634827296" lon="10.034121494721425"><ele>33.0</ele><time>2026-03-29T05:42:54Z</time></trkpt><trkpt lat="45.100601136660885" lon="10.034080487790348"><ele>33.0</ele><time>2026-03-29T05:42:55Z</time></trkpt><trkpt lat="45.10066689310833" lon="10.034038510460675"><ele>33.0</ele><time>2026-03-29T05:42:56Z</time></trkpt><trkpt lat="45.10073068031521" lon="10.033995565976213"><ele>33.0</ele><time>2026-03-29T05:42:57Z</time></trkpt><trkpt lat="45.1007964510175" lon="10.03395426112929"><ele>33.0</ele><time>2026-03-29T05:42:58Z</time></trkpt><trkpt lat="45.100861397089766" lon="10.033915201691267"><ele>33.0</ele><time>2026-03-29T05:42:59Z</time></trkpt><trkpt lat="45.10092760496605" lon="10.03387719920478"><ele>33.0</ele><time>2026-03-29T05:43:00Z</time></trkpt><trkpt lat="45.10099305407984" lon="10.033837969066113"><ele>33.0</ele><time>2026-03-29T05:43:01Z</time></trkpt><trkpt lat="45.10105826564544" lon="10.033797366457913"><ele>33.0</ele><time>2026-03-29T05:43:01.999Z</time></trkpt><trkpt lat="45.10112512409448" lon="10.033754768193115"><ele>33.0</ele><time>2026-03-29T05:43:02.999Z</time></trkpt><trkpt lat="45.10119000421871" lon="10.033712982154931"><ele>33.0</ele><time>2026-03-29T05:43:03.999Z</time></trkpt><trkpt lat="45.10125694305359" lon="10.03367196795317"><ele>33.0</ele><time>2026-03-29T05:43:04.999Z</time></trkpt><trkpt lat="45.10132245329931" lon="10.033630030554187"><ele>33.0</ele><time>2026-03-29T05:43:05.999Z</time></trkpt><trkpt lat="45.10138762205918" lon="10.033590893426322"><ele>33.0</ele><time>2026-03-29T05:43:06.999Z</time></trkpt><trkpt lat="45.10145246563019" lon="10.033549857824527"><ele>33.0</ele><time>2026-03-29T05:43:07.999Z</time></trkpt><trkpt lat="45.10152026093818" lon="10.033512562625026"><ele>33.0</ele><time>2026-03-29T05:43:08.999Z</time></trkpt><trkpt lat="45.1015865199934" lon="10.033475208752092"><ele>33.0</ele><time>2026-03-29T05:43:09.999Z</time></trkpt><trkpt lat="45.10165346438725" lon="10.033436452320673"><ele>33.0</ele><time>2026-03-29T05:43:10.999Z</time></trkpt><trkpt lat="45.10172016920773" lon="10.033398096570926"><ele>33.0</ele><time>2026-03-29T05:43:11.999Z</time></trkpt><trkpt lat="45.10178712097618" lon="10.033355577069376"><ele>33.0</ele><time>2026-03-29T05:43:12.999Z</time></trkpt><trkpt lat="45.101852618391554" lon="10.033313629766642"><ele>33.0</ele><time>2026-03-29T05:43:13.999Z</time></trkpt><trkpt lat="45.10191865507381" lon="10.033270990675193"><ele>33.0</ele><time>2026-03-29T05:43:14.999Z</time></trkpt><trkpt lat="45.10198321910491" lon="10.033228892357029"><ele>33.0</ele><time>2026-03-29T05:43:15.999Z</time></trkpt><trkpt lat="45.10204852778697" lon="10.033184238013309"><ele>33.0</ele><time>2026-03-29T05:43:16.999Z</time></trkpt><trkpt lat="45.1021133706199" lon="10.033135783613863"><ele>33.0</ele><time>2026-03-29T05:43:17.999Z</time></trkpt><trkpt lat="45.10217657889985" lon="10.033080550010542"><ele>33.0</ele><time>2026-03-29T05:43:18.999Z</time></trkpt><trkpt lat="45.102236152020886" lon="10.033023335641744"><ele>33.0</ele><time>2026-03-29T05:43:19.999Z</time></trkpt><trkpt lat="45.10229654144951" lon="10.03296073993838"><ele>33.0</ele><time>2026-03-29T05:43:20.999Z</time></trkpt><trkpt lat="45.102350682669126" lon="10.032890676541143"><ele>33.0</ele><time>2026-03-29T05:43:21.999Z</time></trkpt><trkpt lat="45.102401150006834" lon="10.032818881861541"><ele>33.14285714285714</ele><time>2026-03-29T05:43:22.999Z</time></trkpt><trkpt lat="45.10245242840286" lon="10.032744087570157"><ele>33.285714285714285</ele><time>2026-03-29T05:43:23.999Z</time></trkpt><trkpt lat="45.10250053535393" lon="10.032668848410763"><ele>33.42857142857143</ele><time>2026-03-29T05:43:24.999Z</time></trkpt><trkpt lat="45.102548379005654" lon="10.032592282663165"><ele>33.57142857142857</ele><time>2026-03-29T05:43:25.999Z</time></trkpt><trkpt lat="45.102595269660604" lon="10.03251672554733"><ele>33.714285714285715</ele><time>2026-03-29T05:43:26.999Z</time></trkpt><trkpt lat="45.10264333604439" lon="10.032441486315873"><ele>33.857142857142854</ele><time>2026-03-29T05:43:27.999Z</time></trkpt><trkpt lat="45.10269016651794" lon="10.032366168563552"><ele>34.0</ele><time>2026-03-29T05:43:28.999Z</time></trkpt><trkpt lat="45.10273831052746" lon="10.032290603772354"><ele>33.99999999999999</ele><time>2026-03-29T05:43:29.999Z</time></trkpt><trkpt lat="45.1027864707613" lon="10.032216238260213"><ele>34.0</ele><time>2026-03-29T05:43:30.999Z</time></trkpt><trkpt lat="45.10283374721695" lon="10.032141399681372"><ele>34.0</ele><time>2026-03-29T05:43:31.999Z</time></trkpt><trkpt lat="45.1028809348608" lon="10.032061870955163"><ele>34.0</ele><time>2026-03-29T05:43:32.999Z</time></trkpt><trkpt lat="45.102927706373016" lon="10.031985116930027"><ele>34.0</ele><time>2026-03-29T05:43:33.999Z</time></trkpt><trkpt lat="45.102973122928496" lon="10.03190736263737"><ele>33.99999999999999</ele><time>2026-03-29T05:43:34.999Z</time></trkpt><trkpt lat="45.10301473279696" lon="10.031828591966665"><ele>34.0</ele><time>2026-03-29T05:43:35.999Z</time></trkpt><trkpt lat="45.10305711152655" lon="10.031748261593751"><ele>33.99999999999999</ele><time>2026-03-29T05:43:36.999Z</time></trkpt><trkpt lat="45.103097844476636" lon="10.031668751951159"><ele>34.0</ele><time>2026-03-29T05:43:37.999Z</time></trkpt><trkpt lat="45.103141107687705" lon="10.031592233230194"><ele>34.0</ele><time>2026-03-29T05:43:38.999Z</time></trkpt><trkpt lat="45.10318544629519" lon="10.031516724906098"><ele>34.0</ele><time>2026-03-29T05:43:39.999Z</time></trkpt><trkpt lat="45.10323119600909" lon="10.031438733904487"><ele>34.0</ele><time>2026-03-29T05:43:40.999Z</time></trkpt><trkpt lat="45.10327714965834" lon="10.03135858789375"><ele>33.99999999999999</ele><time>2026-03-29T05:43:41.999Z</time></trkpt><trkpt lat="45.10332537609113" lon="10.031276167555472"><ele>34.0</ele><time>2026-03-29T05:43:42.999Z</time></trkpt><trkpt lat="45.10337441630802" lon="10.031194282927528"><ele>34.333333333333336</ele><time>2026-03-29T05:43:43.999Z</time></trkpt><trkpt lat="45.10342339439123" lon="10.031105684582073"><ele>34.66666666666667</ele><time>2026-03-29T05:43:44.999Z</time></trkpt><trkpt lat="45.103473289943985" lon="10.031017805996488"><ele>35.0</ele><time>2026-03-29T05:43:45.999Z</time></trkpt><trkpt lat="45.10352558443869" lon="10.030928414762068"><ele>35.333333333333336</ele><time>2026-03-29T05:43:46.999Z</time></trkpt><trkpt lat="45.103582664563575" lon="10.030844091012353"><ele>35.666666666666664</ele><time>2026-03-29T05:43:47.999Z</time></trkpt><trkpt lat="45.10365717574563" lon="10.03078543075011"><ele>36.0</ele><time>2026-03-29T05:43:48.999Z</time></trkpt><trkpt lat="45.10373213740472" lon="10.03072733995157"><ele>36.333333333333336</ele><time>2026-03-29T05:43:49.999Z</time></trkpt><trkpt lat="45.10380665334058" lon="10.030668695647053"><ele>36.666666666666664</ele><time>2026-03-29T05:43:50.999Z</time></trkpt><trkpt lat="45.10387829767359" lon="10.030610666067263"><ele>37.0</ele><time>2026-03-29T05:43:51.999Z</time></trkpt><trkpt lat="45.10394834989589" lon="10.030553247427159"><ele>37.33333333333333</ele><time>2026-03-29T05:43:52.999Z</time></trkpt><trkpt lat="45.10400231268493" lon="10.03047986046873"><ele>37.666666666666664</ele><time>2026-03-29T05:43:53.999Z</time></trkpt><trkpt lat="45.104070646521116" lon="10.030432097428852"><ele>38.0</ele><time>2026-03-29T05:43:54.999Z</time></trkpt><trkpt lat="45.104139920952626" lon="10.030380098388498"><ele>38.0</ele><time>2026-03-29T05:43:55.998Z</time></trkpt><trkpt lat="45.10418025744823" lon="10.030293923623825"><ele>38.0</ele><time>2026-03-29T05:43:56.998Z</time></trkpt><trkpt lat="45.10422539897906" lon="10.03021213369286"><ele>38.0</ele><time>2026-03-29T05:43:57.998Z</time></trkpt><trkpt lat="45.10426556321815" lon="10.030128624672166"><ele>38.0</ele><time>2026-03-29T05:43:58.998Z</time></trkpt><trkpt lat="45.10427904426195" lon="10.030033594613721"><ele>38.0</ele><time>2026-03-29T05:43:59.998Z</time></trkpt><trkpt lat="45.10427774675645" lon="10.029937830684874"><ele>38.0</ele><time>2026-03-29T05:44:00.998Z</time></trkpt><trkpt lat="45.10427482650283" lon="10.029847314242406"><ele>38.0</ele><time>2026-03-29T05:44:01.998Z</time></trkpt><trkpt lat="45.104271683858485" lon="10.029672813445346"><ele>38.0</ele><time>2026-03-29T05:44:03.998Z</time></trkpt><trkpt lat="45.104281190503976" lon="10.029500784182751"><ele>38.0</ele><time>2026-03-29T05:44:05.998Z</time></trkpt><trkpt lat="45.10429601163835" lon="10.02933517452098"><ele>38.0</ele><time>2026-03-29T05:44:07.998Z</time></trkpt><trkpt lat="45.10432992969159" lon="10.029173859799329"><ele>38.0</ele><time>2026-03-29T05:44:10Z</time></trkpt><trkpt lat="45.10437076946575" lon="10.029031513874648"><ele>37.8</ele><time>2026-03-29T05:44:12Z</time></trkpt><trkpt lat="45.104454121531184" lon="10.028925057692133"><ele>37.599999999999994</ele><time>2026-03-29T05:44:14Z</time></trkpt><trkpt lat="45.10455813098935" lon="10.028846398990872"><ele>37.400000000000006</ele><time>2026-03-29T05:44:16Z</time></trkpt><trkpt lat="45.10461826987111" lon="10.028798884410417"><ele>37.2</ele><time>2026-03-29T05:44:17Z</time></trkpt><trkpt lat="45.10470886472145" lon="10.02867362078715"><ele>37.0</ele><time>2026-03-29T05:44:19Z</time></trkpt><trkpt lat="45.10482120752049" lon="10.028583559478713"><ele>37.0</ele><time>2026-03-29T05:44:21Z</time></trkpt><trkpt lat="45.104877389370046" lon="10.028540821315428"><ele>37.0</ele><time>2026-03-29T05:44:22Z</time></trkpt><trkpt lat="45.10493562395973" lon="10.028495597418729"><ele>37.0</ele><time>2026-03-29T05:44:23Z</time></trkpt><trkpt lat="45.104993102288965" lon="10.02845185688336"><ele>37.0</ele><time>2026-03-29T05:44:24Z</time></trkpt><trkpt lat="45.105051066688326" lon="10.028411634866128"><ele>37.0</ele><time>2026-03-29T05:44:25Z</time></trkpt><trkpt lat="45.1051254393639" lon="10.02842210198232"><ele>37.0</ele><time>2026-03-29T05:44:26Z</time></trkpt><trkpt lat="45.10518850161962" lon="10.02838706306302"><ele>37.0</ele><time>2026-03-29T05:44:27Z</time></trkpt><trkpt lat="45.10525133513501" lon="10.028352151238217"><ele>36.714285714285715</ele><time>2026-03-29T05:44:28Z</time></trkpt><trkpt lat="45.105312482186996" lon="10.028319254888443"><ele>36.42857142857143</ele><time>2026-03-29T05:44:29Z</time></trkpt><trkpt lat="45.105374042223886" lon="10.028286238720657"><ele>36.14285714285714</ele><time>2026-03-29T05:44:30Z</time></trkpt><trkpt lat="45.10543548168532" lon="10.028253287220322"><ele>35.85714285714286</ele><time>2026-03-29T05:44:31Z</time></trkpt><trkpt lat="45.10549984097709" lon="10.028218769724115"><ele>35.57142857142857</ele><time>2026-03-29T05:44:32Z</time></trkpt><trkpt lat="45.105561405293315" lon="10.028185751254584"><ele>35.285714285714285</ele><time>2026-03-29T05:44:33Z</time></trkpt><trkpt lat="45.10562541383742" lon="10.028152473394957"><ele>35.0</ele><time>2026-03-29T05:44:34Z</time></trkpt><trkpt lat="45.10568855600552" lon="10.028120211412157"><ele>34.714285714285715</ele><time>2026-03-29T05:44:35Z</time></trkpt><trkpt lat="45.10575299611947" lon="10.028089354406053"><ele>34.42857142857143</ele><time>2026-03-29T05:44:36Z</time></trkpt><trkpt lat="45.105817574525744" lon="10.028058439203926"><ele>34.14285714285714</ele><time>2026-03-29T05:44:37Z</time></trkpt><trkpt lat="45.105884184130154" lon="10.028030943017678"><ele>33.85714285714286</ele><time>2026-03-29T05:44:38Z</time></trkpt><trkpt lat="45.105949637504615" lon="10.028008674452048"><ele>33.57142857142857</ele><time>2026-03-29T05:44:39Z</time></trkpt><trkpt lat="45.10601569759538" lon="10.027993377949972"><ele>33.285714285714285</ele><time>2026-03-29T05:44:40Z</time></trkpt><trkpt lat="45.10608204704119" lon="10.027982803247522"><ele>33.0</ele><time>2026-03-29T05:44:41Z</time></trkpt><trkpt lat="45.10614786778315" lon="10.027979755868792"><ele>33.0</ele><time>2026-03-29T05:44:42Z</time></trkpt><trkpt lat="45.10621481087665" lon="10.02798061496644"><ele>33.0</ele><time>2026-03-29T05:44:43Z</time></trkpt><trkpt lat="45.106283314415464" lon="10.02798268727714"><ele>33.0</ele><time>2026-03-29T05:44:44Z</time></trkpt><trkpt lat="45.10635172839635" lon="10.027984756879007"><ele>33.0</ele><time>2026-03-29T05:44:45Z</time></trkpt><trkpt lat="45.10641974019583" lon="10.027987977364944"><ele>33.0</ele><time>2026-03-29T05:44:46Z</time></trkpt><trkpt lat="45.10648843259574" lon="10.027991145477632"><ele>33.0</ele><time>2026-03-29T05:44:47Z</time></trkpt><trkpt lat="45.10655800260064" lon="10.027994354067342"><ele>33.0</ele><time>2026-03-29T05:44:48Z</time></trkpt><trkpt lat="45.106626541545516" lon="10.027997515103"><ele>33.285714285714285</ele><time>2026-03-29T05:44:49Z</time></trkpt><trkpt lat="45.10669667181739" lon="10.028000543219129"><ele>33.57142857142857</ele><time>2026-03-29T05:44:50Z</time></trkpt><trkpt lat="45.106766531871386" lon="10.028003274514045"><ele>33.85714285714286</ele><time>2026-03-29T05:44:51Z</time></trkpt><trkpt lat="45.10683642450194" lon="10.028006007080009"><ele>34.14285714285714</ele><time>2026-03-29T05:44:52Z</time></trkpt><trkpt lat="45.10690698307958" lon="10.028008765684037"><ele>34.42857142857143</ele><time>2026-03-29T05:44:53Z</time></trkpt><trkpt lat="45.106976526624635" lon="10.028011484603711"><ele>34.714285714285715</ele><time>2026-03-29T05:44:54Z</time></trkpt><trkpt lat="45.107048255027344" lon="10.028014288944407"><ele>35.0</ele><time>2026-03-29T05:44:55Z</time></trkpt><trkpt lat="45.10711922844805" lon="10.02801680246234"><ele>35.0</ele><time>2026-03-29T05:44:56Z</time></trkpt><trkpt lat="45.10718900030434" lon="10.028019075092109"><ele>35.0</ele><time>2026-03-29T05:44:57Z</time></trkpt><trkpt lat="45.107260439218464" lon="10.028021402021968"><ele>35.0</ele><time>2026-03-29T05:44:58Z</time></trkpt><trkpt lat="45.1073307159795" lon="10.028023691095932"><ele>35.0</ele><time>2026-03-29T05:44:59Z</time></trkpt><trkpt lat="45.107402624805296" lon="10.02802603333377"><ele>35.0</ele><time>2026-03-29T05:45:00Z</time></trkpt><trkpt lat="45.10747279840164" lon="10.028027931956185"><ele>35.0</ele><time>2026-03-29T05:45:01Z</time></trkpt><trkpt lat="45.10754235586316" lon="10.028029783666412"><ele>35.0</ele><time>2026-03-29T05:45:02Z</time></trkpt><trkpt lat="45.10761372665259" lon="10.028031683659098"><ele>34.57142857142857</ele><time>2026-03-29T05:45:03Z</time></trkpt><trkpt lat="45.10768374544319" lon="10.02803354765479"><ele>34.14285714285714</ele><time>2026-03-29T05:45:04Z</time></trkpt><trkpt lat="45.10775371251148" lon="10.028035410263133"><ele>33.714285714285715</ele><time>2026-03-29T05:45:05Z</time></trkpt><trkpt lat="45.10782335954272" lon="10.028037264363194"><ele>33.285714285714285</ele><time>2026-03-29T05:45:05.999Z</time></trkpt><trkpt lat="45.10789379735378" lon="10.028039139517775"><ele>32.857142857142854</ele><time>2026-03-29T05:45:06.999Z</time></trkpt><trkpt lat="45.10796285074306" lon="10.02804097975427"><ele>32.42857142857143</ele><time>2026-03-29T05:45:07.999Z</time></trkpt><trkpt lat="45.108031040713314" lon="10.028042795063289"><ele>32.0</ele><time>2026-03-29T05:45:08.999Z</time></trkpt><trkpt lat="45.10810108602919" lon="10.028044659763433"><ele>32.0</ele><time>2026-03-29T05:45:09.999Z</time></trkpt><trkpt lat="45.108171840627676" lon="10.028045720671722"><ele>31.999999999999996</ele><time>2026-03-29T05:45:10.999Z</time></trkpt><trkpt lat="45.10824201718036" lon="10.028045616682686"><ele>32.0</ele><time>2026-03-29T05:45:11.999Z</time></trkpt><trkpt lat="45.10831237932712" lon="10.028043418444653"><ele>32.0</ele><time>2026-03-29T05:45:12.999Z</time></trkpt><trkpt lat="45.108383176094044" lon="10.028040599583726"><ele>31.999999999999996</ele><time>2026-03-29T05:45:13.999Z</time></trkpt><trkpt lat="45.108456516148756" lon="10.028029724824561"><ele>32.0</ele><time>2026-03-29T05:45:14.999Z</time></trkpt><trkpt lat="45.10852954730784" lon="10.028012388810808"><ele>32.0</ele><time>2026-03-29T05:45:15.999Z</time></trkpt><trkpt lat="45.10860158035668" lon="10.02799446978795"><ele>32.0</ele><time>2026-03-29T05:45:16.999Z</time></trkpt><trkpt lat="45.108671967789604" lon="10.02797506730946"><ele>31.999999999999996</ele><time>2026-03-29T05:45:17.999Z</time></trkpt><trkpt lat="45.1087421496852" lon="10.027953825319889"><ele>32.0</ele><time>2026-03-29T05:45:18.999Z</time></trkpt><trkpt lat="45.108813401931776" lon="10.027932259350147"><ele>32.0</ele><time>2026-03-29T05:45:19.999Z</time></trkpt><trkpt lat="45.108883103456606" lon="10.027910420998294"><ele>31.999999999999996</ele><time>2026-03-29T05:45:20.999Z</time></trkpt><trkpt lat="45.108955627271676" lon="10.027887560636353"><ele>32.0</ele><time>2026-03-29T05:45:21.999Z</time></trkpt><trkpt lat="45.10902580912182" lon="10.027865243694665"><ele>32.0</ele><time>2026-03-29T05:45:22.999Z</time></trkpt><trkpt lat="45.10909637983554" lon="10.02784167460472"><ele>32.0</ele><time>2026-03-29T05:45:23.999Z</time></trkpt><trkpt lat="45.109166175122894" lon="10.027818364496744"><ele>31.999999999999996</ele><time>2026-03-29T05:45:24.999Z</time></trkpt><trkpt lat="45.10923588485378" lon="10.027795082960143"><ele>32.0</ele><time>2026-03-29T05:45:25.999Z</time></trkpt><trkpt lat="45.10930626061495" lon="10.02777157897999"><ele>32.0</ele><time>2026-03-29T05:45:26.999Z</time></trkpt><trkpt lat="45.10937515999377" lon="10.027748568082117"><ele>31.999999999999996</ele><time>2026-03-29T05:45:27.999Z</time></trkpt><trkpt lat="45.10944524630425" lon="10.027725160763072"><ele>32.0</ele><time>2026-03-29T05:45:28.999Z</time></trkpt><trkpt lat="45.109514251190774" lon="10.027702114636138"><ele>32.0</ele><time>2026-03-29T05:45:29.999Z</time></trkpt><trkpt lat="45.109582839786775" lon="10.027679207528221"><ele>32.0</ele><time>2026-03-29T05:45:30.999Z</time></trkpt><trkpt lat="45.109652927570615" lon="10.02765579973579"><ele>31.999999999999996</ele><time>2026-03-29T05:45:31.999Z</time></trkpt><trkpt lat="45.10972285650452" lon="10.027632444979414"><ele>32.0</ele><time>2026-03-29T05:45:32.999Z</time></trkpt><trkpt lat="45.109793465084515" lon="10.027608848652429"><ele>32.0</ele><time>2026-03-29T05:45:33.999Z</time></trkpt><trkpt lat="45.109863101025425" lon="10.027585215964681"><ele>31.999999999999996</ele><time>2026-03-29T05:45:34.999Z</time></trkpt><trkpt lat="45.1099337014774" lon="10.027561255930255"><ele>32.0</ele><time>2026-03-29T05:45:35.999Z</time></trkpt><trkpt lat="45.11000271678009" lon="10.027537833860439"><ele>32.0</ele><time>2026-03-29T05:45:36.999Z</time></trkpt><trkpt lat="45.11007273269295" lon="10.027514072214373"><ele>32.14285714285714</ele><time>2026-03-29T05:45:37.999Z</time></trkpt><trkpt lat="45.11014381410892" lon="10.027488957216187"><ele>32.285714285714285</ele><time>2026-03-29T05:45:38.999Z</time></trkpt><trkpt lat="45.11021254401902" lon="10.027463557775219"><ele>32.42857142857143</ele><time>2026-03-29T05:45:39.999Z</time></trkpt><trkpt lat="45.11028335316947" lon="10.027437389945401"><ele>32.57142857142857</ele><time>2026-03-29T05:45:40.999Z</time></trkpt><trkpt lat="45.110352281635954" lon="10.027411111836724"><ele>32.714285714285715</ele><time>2026-03-29T05:45:41.999Z</time></trkpt><trkpt lat="45.1104219502893" lon="10.027384009116439"><ele>32.857142857142854</ele><time>2026-03-29T05:45:42.999Z</time></trkpt><trkpt lat="45.11049133883946" lon="10.027357015369313"><ele>33.0</ele><time>2026-03-29T05:45:43.999Z</time></trkpt><trkpt lat="45.11056156051967" lon="10.027329697507804"><ele>33.0</ele><time>2026-03-29T05:45:44.999Z</time></trkpt><trkpt lat="45.11063110173109" lon="10.027301697324377"><ele>33.0</ele><time>2026-03-29T05:45:45.999Z</time></trkpt><trkpt lat="45.11069569187384" lon="10.027251174868898"><ele>33.0</ele><time>2026-03-29T05:45:46.999Z</time></trkpt><trkpt lat="45.11076501331363" lon="10.027222817196643"><ele>33.0</ele><time>2026-03-29T05:45:47.999Z</time></trkpt><trkpt lat="45.11083230423831" lon="10.027188357182336"><ele>33.0</ele><time>2026-03-29T05:45:48.999Z</time></trkpt><trkpt lat="45.110905520079434" lon="10.027173388102003"><ele>33.0</ele><time>2026-03-29T05:45:49.999Z</time></trkpt><trkpt lat="45.110974795305104" lon="10.027137705183497"><ele>33.0</ele><time>2026-03-29T05:45:50.999Z</time></trkpt><trkpt lat="45.11104326238287" lon="10.027101984749635"><ele>33.285714285714285</ele><time>2026-03-29T05:45:51.999Z</time></trkpt><trkpt lat="45.111110947283294" lon="10.027066368232395"><ele>33.57142857142857</ele><time>2026-03-29T05:45:52.999Z</time></trkpt><trkpt lat="45.11117899621326" lon="10.027030560190095"><ele>33.85714285714286</ele><time>2026-03-29T05:45:53.999Z</time></trkpt><trkpt lat="45.11124621936444" lon="10.026995186659216"><ele>34.14285714285714</ele><time>2026-03-29T05:45:54.999Z</time></trkpt><trkpt lat="45.11131485783284" lon="10.026958333803167"><ele>34.42857142857143</ele><time>2026-03-29T05:45:55.999Z</time></trkpt><trkpt lat="45.11138174499662" lon="10.026922349479172"><ele>34.714285714285715</ele><time>2026-03-29T05:45:56.999Z</time></trkpt><trkpt lat="45.11145008679797" lon="10.026885582633815"><ele>35.0</ele><time>2026-03-29T05:45:57.999Z</time></trkpt><trkpt lat="45.11151683185378" lon="10.026849674816296"><ele>34.57142857142857</ele><time>2026-03-29T05:45:58.999Z</time></trkpt><trkpt lat="45.11158436883428" lon="10.02681309790315"><ele>34.14285714285714</ele><time>2026-03-29T05:45:59.998Z</time></trkpt><trkpt lat="45.11165182848643" lon="10.026776152398822"><ele>33.714285714285715</ele><time>2026-03-29T05:46:00.998Z</time></trkpt><trkpt lat="45.11172017395803" lon="10.026738721744335"><ele>33.285714285714285</ele><time>2026-03-29T05:46:01.998Z</time></trkpt><trkpt lat="45.11178741073142" lon="10.02670189832343"><ele>32.857142857142854</ele><time>2026-03-29T05:46:02.998Z</time></trkpt><trkpt lat="45.11185540754287" lon="10.026663944972602"><ele>32.42857142857143</ele><time>2026-03-29T05:46:03.998Z</time></trkpt><trkpt lat="45.111922948036856" lon="10.026626058033363"><ele>32.0</ele><time>2026-03-29T05:46:04.998Z</time></trkpt><trkpt lat="45.11199050531216" lon="10.026588161673548"><ele>32.0</ele><time>2026-03-29T05:46:05.998Z</time></trkpt><trkpt lat="45.112058251105374" lon="10.026550159573157"><ele>31.999999999999996</ele><time>2026-03-29T05:46:06.998Z</time></trkpt><trkpt lat="45.11212681702078" lon="10.026511697433904"><ele>32.0</ele><time>2026-03-29T05:46:07.998Z</time></trkpt><trkpt lat="45.11219474784113" lon="10.026473591371763"><ele>32.0</ele><time>2026-03-29T05:46:08.998Z</time></trkpt><trkpt lat="45.11226382532089" lon="10.026434842456773"><ele>31.999999999999996</ele><time>2026-03-29T05:46:09.998Z</time></trkpt><trkpt lat="45.112333077264125" lon="10.026396546162182"><ele>32.0</ele><time>2026-03-29T05:46:10.998Z</time></trkpt><trkpt lat="45.11240141198957" lon="10.026359610882025"><ele>32.0</ele><time>2026-03-29T05:46:11.998Z</time></trkpt><trkpt lat="45.112470388301254" lon="10.026322329419623"><ele>32.0</ele><time>2026-03-29T05:46:12.998Z</time></trkpt><trkpt lat="45.11253879845746" lon="10.026286183819952"><ele>31.999999999999996</ele><time>2026-03-29T05:46:13.998Z</time></trkpt><trkpt lat="45.112607927852146" lon="10.026251448529036"><ele>32.0</ele><time>2026-03-29T05:46:14.998Z</time></trkpt><trkpt lat="45.11267631013945" lon="10.026220518544626"><ele>32.0</ele><time>2026-03-29T05:46:16Z</time></trkpt><trkpt lat="45.1127461432972" lon="10.026192856858902"><ele>31.999999999999996</ele><time>2026-03-29T05:46:17Z</time></trkpt><trkpt lat="45.112817907979796" lon="10.02616549681291"><ele>32.0</ele><time>2026-03-29T05:46:18Z</time></trkpt><trkpt lat="45.112887531052" lon="10.026141060991744"><ele>32.0</ele><time>2026-03-29T05:46:19Z</time></trkpt><trkpt lat="45.11295853796621" lon="10.02611641675186"><ele>32.0</ele><time>2026-03-29T05:46:20Z</time></trkpt><trkpt lat="45.1130315041493" lon="10.026091412693313"><ele>31.999999999999996</ele><time>2026-03-29T05:46:21Z</time></trkpt><trkpt lat="45.11310353469476" lon="10.026067799515216"><ele>32.0</ele><time>2026-03-29T05:46:22Z</time></trkpt><trkpt lat="45.11317425107247" lon="10.026044992469913"><ele>32.0</ele><time>2026-03-29T05:46:23Z</time></trkpt><trkpt lat="45.11324643476873" lon="10.02602265148668"><ele>31.999999999999996</ele><time>2026-03-29T05:46:24Z</time></trkpt><trkpt lat="45.11331750289453" lon="10.026000655774192"><ele>32.0</ele><time>2026-03-29T05:46:25Z</time></trkpt><trkpt lat="45.11339153412687" lon="10.025978104563773"><ele>32.0</ele><time>2026-03-29T05:46:26Z</time></trkpt><trkpt lat="45.11346437266259" lon="10.025956805332685"><ele>32.14285714285714</ele><time>2026-03-29T05:46:27Z</time></trkpt><trkpt lat="45.11353658935279" lon="10.02593568793403"><ele>32.285714285714285</ele><time>2026-03-29T05:46:28Z</time></trkpt><trkpt lat="45.113606819492524" lon="10.025913853645966"><ele>32.42857142857143</ele><time>2026-03-29T05:46:29Z</time></trkpt><trkpt lat="45.11367410492655" lon="10.025890721592047"><ele>32.57142857142857</ele><time>2026-03-29T05:46:30Z</time></trkpt><trkpt lat="45.11374311556043" lon="10.025866996431557"><ele>32.714285714285715</ele><time>2026-03-29T05:46:31Z</time></trkpt><trkpt lat="45.11381575504089" lon="10.025844304999858"><ele>32.857142857142854</ele><time>2026-03-29T05:46:32Z</time></trkpt><trkpt lat="45.113888435779195" lon="10.025821447178792"><ele>33.0</ele><time>2026-03-29T05:46:33Z</time></trkpt><trkpt lat="45.11396091018655" lon="10.025798654243015"><ele>33.0</ele><time>2026-03-29T05:46:34Z</time></trkpt><trkpt lat="45.114033280866536" lon="10.025775893932416"><ele>33.0</ele><time>2026-03-29T05:46:35Z</time></trkpt><trkpt lat="45.11410552643472" lon="10.025753172969418"><ele>33.0</ele><time>2026-03-29T05:46:36Z</time></trkpt><trkpt lat="45.11417673060866" lon="10.02573077951863"><ele>33.0</ele><time>2026-03-29T05:46:37Z</time></trkpt><trkpt lat="45.11424742017995" lon="10.025708547917105"><ele>33.0</ele><time>2026-03-29T05:46:38Z</time></trkpt><trkpt lat="45.11431721055754" lon="10.025686599094092"><ele>33.0</ele><time>2026-03-29T05:46:39Z</time></trkpt><trkpt lat="45.11438733938358" lon="10.0256645438342"><ele>33.0</ele><time>2026-03-29T05:46:40Z</time></trkpt><trkpt lat="45.11445517176337" lon="10.025643210799844"><ele>32.714285714285715</ele><time>2026-03-29T05:46:41Z</time></trkpt><trkpt lat="45.11452231962766" lon="10.025622093043182"><ele>32.42857142857143</ele><time>2026-03-29T05:46:42Z</time></trkpt><trkpt lat="45.114592590757894" lon="10.02559999303462"><ele>32.142857142857146</ele><time>2026-03-29T05:46:43Z</time></trkpt><trkpt lat="45.11466149795939" lon="10.025577210474813"><ele>31.857142857142858</ele><time>2026-03-29T05:46:44Z</time></trkpt><trkpt lat="45.11472839353997" lon="10.025553532093006"><ele>31.571428571428577</ele><time>2026-03-29T05:46:45Z</time></trkpt><trkpt lat="45.114796733218384" lon="10.025528563324208"><ele>31.28571428571429</ele><time>2026-03-29T05:46:46Z</time></trkpt><trkpt lat="45.114864402768426" lon="10.025503352105956"><ele>31.0</ele><time>2026-03-29T05:46:47Z</time></trkpt><trkpt lat="45.11493171632291" lon="10.025477704102228"><ele>31.0</ele><time>2026-03-29T05:46:48Z</time></trkpt><trkpt lat="45.11499749663529" lon="10.025452331686516"><ele>31.000000000000004</ele><time>2026-03-29T05:46:49Z</time></trkpt><trkpt lat="45.11506355606357" lon="10.02542685162262"><ele>31.0</ele><time>2026-03-29T05:46:50Z</time></trkpt><trkpt lat="45.11513059708812" lon="10.025400992937735"><ele>31.0</ele><time>2026-03-29T05:46:51Z</time></trkpt><trkpt lat="45.11519703040486" lon="10.02537536866246"><ele>31.000000000000004</ele><time>2026-03-29T05:46:52Z</time></trkpt><trkpt lat="45.11526466162274" lon="10.025349282334417"><ele>31.0</ele><time>2026-03-29T05:46:53Z</time></trkpt><trkpt lat="45.11533181567387" lon="10.025323380057884"><ele>31.0</ele><time>2026-03-29T05:46:54Z</time></trkpt><trkpt lat="45.115401065472405" lon="10.025296669421335"><ele>31.0</ele><time>2026-03-29T05:46:55Z</time></trkpt><trkpt lat="45.11546988326988" lon="10.025268947323719"><ele>31.000000000000004</ele><time>2026-03-29T05:46:56Z</time></trkpt><trkpt lat="45.11553736566339" lon="10.025240493887758"><ele>31.0</ele><time>2026-03-29T05:46:57Z</time></trkpt><trkpt lat="45.11560474298398" lon="10.02521114838898"><ele>31.0</ele><time>2026-03-29T05:46:58Z</time></trkpt><trkpt lat="45.11567342870936" lon="10.02516845802467"><ele>31.000000000000004</ele><time>2026-03-29T05:46:59Z</time></trkpt><trkpt lat="45.11573715376964" lon="10.02511924626265"><ele>31.0</ele><time>2026-03-29T05:47:00Z</time></trkpt><trkpt lat="45.115796542605366" lon="10.025054818638951"><ele>31.0</ele><time>2026-03-29T05:47:01Z</time></trkpt><trkpt lat="45.11583896154745" lon="10.02496500780658"><ele>31.142857142857146</ele><time>2026-03-29T05:47:02Z</time></trkpt><trkpt lat="45.11588609501182" lon="10.024885051077103"><ele>31.28571428571429</ele><time>2026-03-29T05:47:03Z</time></trkpt><trkpt lat="45.11592506533505" lon="10.024796199569405"><ele>31.42857142857143</ele><time>2026-03-29T05:47:04Z</time></trkpt><trkpt lat="45.11595784010493" lon="10.024705048633901"><ele>31.57142857142857</ele><time>2026-03-29T05:47:05Z</time></trkpt><trkpt lat="45.1160055595647" lon="10.024625065239503"><ele>31.71428571428571</ele><time>2026-03-29T05:47:06Z</time></trkpt><trkpt lat="45.11603941032351" lon="10.024533908413641"><ele>31.857142857142854</ele><time>2026-03-29T05:47:07Z</time></trkpt><trkpt lat="45.11607269437236" lon="10.024444308901522"><ele>32.0</ele><time>2026-03-29T05:47:08Z</time></trkpt><trkpt lat="45.116107169008835" lon="10.024351504359029"><ele>32.0</ele><time>2026-03-29T05:47:09Z</time></trkpt><trkpt lat="45.116141216117526" lon="10.024259850696987"><ele>31.999999999999996</ele><time>2026-03-29T05:47:09.999Z</time></trkpt><trkpt lat="45.11617473220929" lon="10.024169626524307"><ele>32.0</ele><time>2026-03-29T05:47:10.999Z</time></trkpt><trkpt lat="45.116208234172454" lon="10.02407944040411"><ele>32.0</ele><time>2026-03-29T05:47:11.999Z</time></trkpt><trkpt lat="45.11624168225269" lon="10.023989399315669"><ele>31.999999999999996</ele><time>2026-03-29T05:47:12.999Z</time></trkpt><trkpt lat="45.11626123301192" lon="10.023886832522557"><ele>32.0</ele><time>2026-03-29T05:47:13.999Z</time></trkpt><trkpt lat="45.11630996179475" lon="10.023807334938972"><ele>32.0</ele><time>2026-03-29T05:47:14.999Z</time></trkpt><trkpt lat="45.116346012438584" lon="10.023715431173388"><ele>32.0</ele><time>2026-03-29T05:47:15.999Z</time></trkpt><trkpt lat="45.116381510335124" lon="10.023627755927992"><ele>31.999999999999996</ele><time>2026-03-29T05:47:16.999Z</time></trkpt><trkpt lat="45.116420331498055" lon="10.02353992260996"><ele>32.0</ele><time>2026-03-29T05:47:17.999Z</time></trkpt><trkpt lat="45.11646127814085" lon="10.023453326405509"><ele>32.0</ele><time>2026-03-29T05:47:18.999Z</time></trkpt><trkpt lat="45.11650315124472" lon="10.02336849224007"><ele>31.999999999999996</ele><time>2026-03-29T05:47:19.999Z</time></trkpt><trkpt lat="45.116547112098665" lon="10.023285443195531"><ele>32.0</ele><time>2026-03-29T05:47:20.999Z</time></trkpt><trkpt lat="45.1165920883509" lon="10.023203940781766"><ele>32.0</ele><time>2026-03-29T05:47:21.999Z</time></trkpt><trkpt lat="45.116637951017054" lon="10.023121524107774"><ele>32.14285714285714</ele><time>2026-03-29T05:47:22.999Z</time></trkpt><trkpt lat="45.11668372107426" lon="10.023039273858696"><ele>32.285714285714285</ele><time>2026-03-29T05:47:23.999Z</time></trkpt><trkpt lat="45.116729307336435" lon="10.022957353890257"><ele>32.42857142857143</ele><time>2026-03-29T05:47:24.999Z</time></trkpt><trkpt lat="45.11677473746697" lon="10.022875714485494"><ele>32.57142857142857</ele><time>2026-03-29T05:47:25.999Z</time></trkpt><trkpt lat="45.116821297673376" lon="10.022794168909359"><ele>32.714285714285715</ele><time>2026-03-29T05:47:26.999Z</time></trkpt><trkpt lat="45.11686836981882" lon="10.022715822622606"><ele>32.857142857142854</ele><time>2026-03-29T05:47:27.999Z</time></trkpt><trkpt lat="45.116916812041595" lon="10.022639820276295"><ele>33.0</ele><time>2026-03-29T05:47:28.999Z</time></trkpt><trkpt lat="45.11696757375565" lon="10.02256710233122"><ele>33.0</ele><time>2026-03-29T05:47:29.999Z</time></trkpt><trkpt lat="45.117020805569815" lon="10.02249654517472"><ele>33.0</ele><time>2026-03-29T05:47:30.999Z</time></trkpt><trkpt lat="45.11707480728934" lon="10.022429336109719"><ele>33.0</ele><time>2026-03-29T05:47:31.999Z</time></trkpt><trkpt lat="45.11711591651847" lon="10.022334050042353"><ele>33.0</ele><time>2026-03-29T05:47:32.999Z</time></trkpt><trkpt lat="45.1171725943357" lon="10.022265840904696"><ele>33.0</ele><time>2026-03-29T05:47:33.999Z</time></trkpt><trkpt lat="45.117230493184" lon="10.02219915966748"><ele>33.0</ele><time>2026-03-29T05:47:34.999Z</time></trkpt><trkpt lat="45.117289328478186" lon="10.022131559573092"><ele>33.0</ele><time>2026-03-29T05:47:35.999Z</time></trkpt><trkpt lat="45.11734523931177" lon="10.022069493925967"><ele>33.0</ele><time>2026-03-29T05:47:36.999Z</time></trkpt><trkpt lat="45.11740278437665" lon="10.02200346100176"><ele>33.0</ele><time>2026-03-29T05:47:37.999Z</time></trkpt><trkpt lat="45.11746037899422" lon="10.02193881138959"><ele>33.0</ele><time>2026-03-29T05:47:38.999Z</time></trkpt><trkpt lat="45.11753140654979" lon="10.0218959727311"><ele>33.0</ele><time>2026-03-29T05:47:39.999Z</time></trkpt><trkpt lat="45.11758822968769" lon="10.021828806553737"><ele>33.0</ele><time>2026-03-29T05:47:40.999Z</time></trkpt><trkpt lat="45.11764460657416" lon="10.021762167909753"><ele>33.0</ele><time>2026-03-29T05:47:41.999Z</time></trkpt><trkpt lat="45.117700947080024" lon="10.021695692265403"><ele>33.0</ele><time>2026-03-29T05:47:42.999Z</time></trkpt><trkpt lat="45.117757059167495" lon="10.021630585916887"><ele>32.857142857142854</ele><time>2026-03-29T05:47:43.999Z</time></trkpt><trkpt lat="45.117813237554635" lon="10.021565504493777"><ele>32.714285714285715</ele><time>2026-03-29T05:47:44.999Z</time></trkpt><trkpt lat="45.11787027164874" lon="10.02150004491782"><ele>32.57142857142857</ele><time>2026-03-29T05:47:45.999Z</time></trkpt><trkpt lat="45.1179279546418" lon="10.021433840681599"><ele>32.42857142857143</ele><time>2026-03-29T05:47:46.999Z</time></trkpt><trkpt lat="45.117983893301854" lon="10.021368648939703"><ele>32.285714285714285</ele><time>2026-03-29T05:47:47.999Z</time></trkpt><trkpt lat="45.1180387847464" lon="10.021303782825695"><ele>32.14285714285714</ele><time>2026-03-29T05:47:48.999Z</time></trkpt><trkpt lat="45.11809428750111" lon="10.02123607198989"><ele>32.0</ele><time>2026-03-29T05:47:49.999Z</time></trkpt><trkpt lat="45.11814939757723" lon="10.021168535606899"><ele>32.0</ele><time>2026-03-29T05:47:50.999Z</time></trkpt><trkpt lat="45.118204903403786" lon="10.02109874334657"><ele>31.999999999999996</ele><time>2026-03-29T05:47:51.999Z</time></trkpt><trkpt lat="45.11825845607835" lon="10.021030719636347"><ele>32.0</ele><time>2026-03-29T05:47:52.999Z</time></trkpt><trkpt lat="45.11831185258756" lon="10.020959418689243"><ele>32.0</ele><time>2026-03-29T05:47:53.999Z</time></trkpt><trkpt lat="45.1183644350899" lon="10.020886606820806"><ele>31.999999999999996</ele><time>2026-03-29T05:47:54.999Z</time></trkpt><trkpt lat="45.1184156754521" lon="10.020813084965251"><ele>32.0</ele><time>2026-03-29T05:47:55.999Z</time></trkpt><trkpt lat="45.1184670358267" lon="10.020738073832266"><ele>32.0</ele><time>2026-03-29T05:47:56.999Z</time></trkpt><trkpt lat="45.118518545751606" lon="10.020662667996596"><ele>32.14285714285714</ele><time>2026-03-29T05:47:57.999Z</time></trkpt><trkpt lat="45.11856970687998" lon="10.020587640375611"><ele>32.285714285714285</ele><time>2026-03-29T05:47:58.999Z</time></trkpt><trkpt lat="45.11862072403997" lon="10.02051275909493"><ele>32.42857142857143</ele><time>2026-03-29T05:47:59.999Z</time></trkpt><trkpt lat="45.118672352464394" lon="10.020436970995066"><ele>32.57142857142857</ele><time>2026-03-29T05:48:00.999Z</time></trkpt><trkpt lat="45.11872411552065" lon="10.020360852856196"><ele>32.714285714285715</ele><time>2026-03-29T05:48:01.999Z</time></trkpt><trkpt lat="45.11877483445703" lon="10.02028627021345"><ele>32.857142857142854</ele><time>2026-03-29T05:48:02.999Z</time></trkpt><trkpt lat="45.118825333319556" lon="10.0202120110916"><ele>33.0</ele><time>2026-03-29T05:48:03.998Z</time></trkpt><trkpt lat="45.118876693098294" lon="10.020136486026885"><ele>33.0</ele><time>2026-03-29T05:48:04.998Z</time></trkpt><trkpt lat="45.11892745675398" lon="10.020061837595291"><ele>33.0</ele><time>2026-03-29T05:48:05.998Z</time></trkpt><trkpt lat="45.118977479781165" lon="10.019987937906913"><ele>33.0</ele><time>2026-03-29T05:48:06.998Z</time></trkpt><trkpt lat="45.119027051830244" lon="10.01991258735757"><ele>33.0</ele><time>2026-03-29T05:48:07.998Z</time></trkpt><trkpt lat="45.11907703269568" lon="10.019836295391496"><ele>33.0</ele><time>2026-03-29T05:48:08.998Z</time></trkpt><trkpt lat="45.11912721252259" lon="10.01975832534506"><ele>33.0</ele><time>2026-03-29T05:48:09.998Z</time></trkpt><trkpt lat="45.11917667601584" lon="10.019680645204666"><ele>33.0</ele><time>2026-03-29T05:48:10.998Z</time></trkpt><trkpt lat="45.119224071680776" lon="10.019601828206003"><ele>33.0</ele><time>2026-03-29T05:48:11.998Z</time></trkpt><trkpt lat="45.11926918957141" lon="10.019518365570757"><ele>33.0</ele><time>2026-03-29T05:48:12.998Z</time></trkpt><trkpt lat="45.11931198860812" lon="10.01943299099595"><ele>33.0</ele><time>2026-03-29T05:48:13.998Z</time></trkpt><trkpt lat="45.11934018508577" lon="10.019335333481353"><ele>33.0</ele><time>2026-03-29T05:48:14.998Z</time></trkpt><trkpt lat="45.11937931168197" lon="10.0192491243603"><ele>33.0</ele><time>2026-03-29T05:48:15.998Z</time></trkpt><trkpt lat="45.11941870738744" lon="10.019161845264332"><ele>33.0</ele><time>2026-03-29T05:48:16.998Z</time></trkpt><trkpt lat="45.11945488431119" lon="10.019073839303415"><ele>33.0</ele><time>2026-03-29T05:48:17.998Z</time></trkpt><trkpt lat="45.11949297838323" lon="10.0189852778835"><ele>32.857142857142854</ele><time>2026-03-29T05:48:18.998Z</time></trkpt><trkpt lat="45.11952904958013" lon="10.018896937299747"><ele>32.714285714285715</ele><time>2026-03-29T05:48:19.998Z</time></trkpt><trkpt lat="45.119565963774264" lon="10.018809948749075"><ele>32.57142857142857</ele><time>2026-03-29T05:48:20.998Z</time></trkpt><trkpt lat="45.11960080150963" lon="10.018720070791362"><ele>32.42857142857143</ele><time>2026-03-29T05:48:22Z</time></trkpt><trkpt lat="45.11963730673014" lon="10.018633221827633"><ele>32.285714285714285</ele><time>2026-03-29T05:48:23Z</time></trkpt><trkpt lat="45.11967348535826" lon="10.018546233079974"><ele>32.14285714285714</ele><time>2026-03-29T05:48:24Z</time></trkpt><trkpt lat="45.119711143477154" lon="10.01845936279315"><ele>32.0</ele><time>2026-03-29T05:48:25Z</time></trkpt><trkpt lat="45.119747431346184" lon="10.018371797696686"><ele>32.285714285714285</ele><time>2026-03-29T05:48:26Z</time></trkpt><trkpt lat="45.119784671401725" lon="10.018284618911688"><ele>32.57142857142857</ele><time>2026-03-29T05:48:27Z</time></trkpt><trkpt lat="45.11982027042428" lon="10.018197807296916"><ele>32.857142857142854</ele><time>2026-03-29T05:48:28Z</time></trkpt><trkpt lat="45.11985775578374" lon="10.01810946296374"><ele>33.14285714285714</ele><time>2026-03-29T05:48:29Z</time></trkpt><trkpt lat="45.119908888604996" lon="10.018033100343928"><ele>33.42857142857143</ele><time>2026-03-29T05:48:30Z</time></trkpt><trkpt lat="45.11994639354601" lon="10.017944970014415"><ele>33.71428571428571</ele><time>2026-03-29T05:48:31Z</time></trkpt><trkpt lat="45.119983650950786" lon="10.017857421354151"><ele>34.0</ele><time>2026-03-29T05:48:32Z</time></trkpt><trkpt lat="45.12002102677168" lon="10.017769594404898"><ele>33.99999999999999</ele><time>2026-03-29T05:48:33Z</time></trkpt><trkpt lat="45.1200586479848" lon="10.017681326287038"><ele>34.0</ele><time>2026-03-29T05:48:34Z</time></trkpt><trkpt lat="45.1200955848823" lon="10.017594536157736"><ele>34.0</ele><time>2026-03-29T05:48:35Z</time></trkpt><trkpt lat="45.12013394883874" lon="10.01750429977886"><ele>34.0</ele><time>2026-03-29T05:48:36Z</time></trkpt><trkpt lat="45.12017081808608" lon="10.01741757917554"><ele>34.0</ele><time>2026-03-29T05:48:37Z</time></trkpt><trkpt lat="45.12020856437894" lon="10.017328795653516"><ele>33.99999999999999</ele><time>2026-03-29T05:48:38Z</time></trkpt><trkpt lat="45.12023198414774" lon="10.017228364323769"><ele>34.0</ele><time>2026-03-29T05:48:39Z</time></trkpt><trkpt lat="45.120283331294694" lon="10.01715301579717"><ele>33.99999999999999</ele><time>2026-03-29T05:48:40Z</time></trkpt><trkpt lat="45.12032078437953" lon="10.017064962413833"><ele>34.0</ele><time>2026-03-29T05:48:41Z</time></trkpt><trkpt lat="45.120357756702106" lon="10.01697803933022"><ele>34.0</ele><time>2026-03-29T05:48:42Z</time></trkpt><trkpt lat="45.12039543928528" lon="10.01688944647395"><ele>34.0</ele><time>2026-03-29T05:48:43Z</time></trkpt><trkpt lat="45.12043470376686" lon="10.01679958534625"><ele>34.0</ele><time>2026-03-29T05:48:44Z</time></trkpt><trkpt lat="45.12047360516239" lon="10.016711134872446"><ele>33.99999999999999</ele><time>2026-03-29T05:48:45Z</time></trkpt><trkpt lat="45.120512277506236" lon="10.016623205148603"><ele>34.0</ele><time>2026-03-29T05:48:46Z</time></trkpt><trkpt lat="45.120551594454234" lon="10.01653380982492"><ele>33.857142857142854</ele><time>2026-03-29T05:48:47Z</time></trkpt><trkpt lat="45.120591100128664" lon="10.01644398533021"><ele>33.714285714285715</ele><time>2026-03-29T05:48:48Z</time></trkpt><trkpt lat="45.12063157574348" lon="10.016355240380483"><ele>33.57142857142857</ele><time>2026-03-29T05:48:49Z</time></trkpt><trkpt lat="45.12067325423703" lon="10.016271069919394"><ele>33.42857142857143</ele><time>2026-03-29T05:48:50Z</time></trkpt><trkpt lat="45.120717124259116" lon="10.016187761539038"><ele>33.285714285714285</ele><time>2026-03-29T05:48:51Z</time></trkpt><trkpt lat="45.120762571914014" lon="10.016103720328562"><ele>33.14285714285714</ele><time>2026-03-29T05:48:52Z</time></trkpt><trkpt lat="45.12080767617419" lon="10.016020314091174"><ele>33.0</ele><time>2026-03-29T05:48:53Z</time></trkpt><trkpt lat="45.12085316698335" lon="10.015936193023357"><ele>33.0</ele><time>2026-03-29T05:48:54Z</time></trkpt><trkpt lat="45.120899146033544" lon="10.01585116916953"><ele>33.0</ele><time>2026-03-29T05:48:55Z</time></trkpt><trkpt lat="45.12094432666441" lon="10.015767621712566"><ele>33.0</ele><time>2026-03-29T05:48:56Z</time></trkpt><trkpt lat="45.12098894483774" lon="10.015685114366617"><ele>33.0</ele><time>2026-03-29T05:48:57Z</time></trkpt><trkpt lat="45.12103374639392" lon="10.015602584770155"><ele>33.0</ele><time>2026-03-29T05:48:58Z</time></trkpt><trkpt lat="45.12107900027557" lon="10.015520222750363"><ele>33.0</ele><time>2026-03-29T05:48:59Z</time></trkpt><trkpt lat="45.12112437185249" lon="10.015438717097151"><ele>33.0</ele><time>2026-03-29T05:49:00Z</time></trkpt><trkpt lat="45.121169210330834" lon="10.015358631928505"><ele>33.14285714285714</ele><time>2026-03-29T05:49:01Z</time></trkpt><trkpt lat="45.12121345627796" lon="10.015279604989898"><ele>33.285714285714285</ele><time>2026-03-29T05:49:02Z</time></trkpt><trkpt lat="45.12125832532078" lon="10.015199465175495"><ele>33.42857142857143</ele><time>2026-03-29T05:49:03Z</time></trkpt><trkpt lat="45.121303078764065" lon="10.015119531892172"><ele>33.57142857142857</ele><time>2026-03-29T05:49:04Z</time></trkpt><trkpt lat="45.121347194830484" lon="10.015041820295226"><ele>33.714285714285715</ele><time>2026-03-29T05:49:05Z</time></trkpt><trkpt lat="45.12139220130444" lon="10.01496368096556"><ele>33.857142857142854</ele><time>2026-03-29T05:49:06Z</time></trkpt><trkpt lat="45.121427050752395" lon="10.014871990401701"><ele>34.0</ele><time>2026-03-29T05:49:07Z</time></trkpt><trkpt lat="45.121473906497236" lon="10.014792848965817"><ele>33.99999999999999</ele><time>2026-03-29T05:49:08Z</time></trkpt><trkpt lat="45.12152077581639" lon="10.014715906579983"><ele>34.0</ele><time>2026-03-29T05:49:09Z</time></trkpt><trkpt lat="45.12156796852162" lon="10.014638656722505"><ele>34.0</ele><time>2026-03-29T05:49:10Z</time></trkpt><trkpt lat="45.1216128422292" lon="10.014563427671813"><ele>34.0</ele><time>2026-03-29T05:49:11Z</time></trkpt><trkpt lat="45.12165992167425" lon="10.014485640440391"><ele>34.0</ele><time>2026-03-29T05:49:12Z</time></trkpt><trkpt lat="45.12171671153049" lon="10.01442312462283"><ele>33.99999999999999</ele><time>2026-03-29T05:49:13Z</time></trkpt><trkpt lat="45.121764295467514" lon="10.014345971850462"><ele>34.0</ele><time>2026-03-29T05:49:14Z</time></trkpt><trkpt lat="45.12181200345164" lon="10.014268618108552"><ele>33.71428571428571</ele><time>2026-03-29T05:49:15Z</time></trkpt><trkpt lat="45.12185989558399" lon="10.014191989688785"><ele>33.42857142857143</ele><time>2026-03-29T05:49:15.999Z</time></trkpt><trkpt lat="45.12190851677246" lon="10.014115757180589"><ele>33.14285714285714</ele><time>2026-03-29T05:49:16.999Z</time></trkpt><trkpt lat="45.12195664618391" lon="10.014040295758168"><ele>32.857142857142854</ele><time>2026-03-29T05:49:17.999Z</time></trkpt><trkpt lat="45.121993901362124" lon="10.013948607251507"><ele>32.57142857142857</ele><time>2026-03-29T05:49:18.999Z</time></trkpt><trkpt lat="45.12204363337914" lon="10.01387082130039"><ele>32.285714285714285</ele><time>2026-03-29T05:49:19.999Z</time></trkpt><trkpt lat="45.12209067751209" lon="10.0137935960256"><ele>32.0</ele><time>2026-03-29T05:49:20.999Z</time></trkpt><trkpt lat="45.12213813991594" lon="10.013715314725625"><ele>32.0</ele><time>2026-03-29T05:49:21.999Z</time></trkpt><trkpt lat="45.12218497987484" lon="10.01363754305474"><ele>31.999999999999996</ele><time>2026-03-29T05:49:22.999Z</time></trkpt><trkpt lat="45.122233330732584" lon="10.013560290054798"><ele>32.0</ele><time>2026-03-29T05:49:23.999Z</time></trkpt><trkpt lat="45.12228111964911" lon="10.013483769741569"><ele>32.0</ele><time>2026-03-29T05:49:24.999Z</time></trkpt><trkpt lat="45.122329858819285" lon="10.013404551348234"><ele>31.999999999999996</ele><time>2026-03-29T05:49:25.999Z</time></trkpt><trkpt lat="45.12238861415102" lon="10.013341986404537"><ele>32.0</ele><time>2026-03-29T05:49:26.999Z</time></trkpt><trkpt lat="45.12243638974031" lon="10.01326146341909"><ele>32.0</ele><time>2026-03-29T05:49:27.999Z</time></trkpt><trkpt lat="45.122483824330175" lon="10.013180709545317"><ele>31.857142857142854</ele><time>2026-03-29T05:49:28.999Z</time></trkpt><trkpt lat="45.12252935957087" lon="10.013097473923077"><ele>31.71428571428571</ele><time>2026-03-29T05:49:29.999Z</time></trkpt><trkpt lat="45.122571878447864" lon="10.013010657328751"><ele>31.57142857142857</ele><time>2026-03-29T05:49:30.999Z</time></trkpt><trkpt lat="45.122611675356424" lon="10.012919074571304"><ele>31.42857142857143</ele><time>2026-03-29T05:49:31.999Z</time></trkpt><trkpt lat="45.12264963328234" lon="10.01282916867106"><ele>31.28571428571429</ele><time>2026-03-29T05:49:32.999Z</time></trkpt><trkpt lat="45.12268680885423" lon="10.012739078436844"><ele>31.142857142857146</ele><time>2026-03-29T05:49:33.999Z</time></trkpt><trkpt lat="45.12272337410446" lon="10.01264888284357"><ele>31.0</ele><time>2026-03-29T05:49:34.999Z</time></trkpt><trkpt lat="45.122759202238456" lon="10.012558445561345"><ele>31.42857142857143</ele><time>2026-03-29T05:49:35.999Z</time></trkpt><trkpt lat="45.12279414408334" lon="10.012468296678604"><ele>31.85714285714286</ele><time>2026-03-29T05:49:36.999Z</time></trkpt><trkpt lat="45.12282670422436" lon="10.012373852691969"><ele>32.285714285714285</ele><time>2026-03-29T05:49:37.999Z</time></trkpt><trkpt lat="45.12285841538212" lon="10.01228037456377"><ele>32.714285714285715</ele><time>2026-03-29T05:49:38.999Z</time></trkpt><trkpt lat="45.12288930549245" lon="10.012186564663265"><ele>33.14285714285714</ele><time>2026-03-29T05:49:39.999Z</time></trkpt><trkpt lat="45.12291990036796" lon="10.012093582515924"><ele>33.57142857142857</ele><time>2026-03-29T05:49:40.999Z</time></trkpt><trkpt lat="45.122950815696356" lon="10.012001148518488"><ele>34.0</ele><time>2026-03-29T05:49:41.999Z</time></trkpt><trkpt lat="45.122981685766874" lon="10.011908849985897"><ele>33.99999999999999</ele><time>2026-03-29T05:49:42.999Z</time></trkpt><trkpt lat="45.123012317604484" lon="10.011817263946648"><ele>34.0</ele><time>2026-03-29T05:49:43.999Z</time></trkpt><trkpt lat="45.123028296689135" lon="10.011717591537566"><ele>34.0</ele><time>2026-03-29T05:49:44.999Z</time></trkpt><trkpt lat="45.12306002182338" lon="10.011626927266846"><ele>34.0</ele><time>2026-03-29T05:49:45.999Z</time></trkpt><trkpt lat="45.12308956195784" lon="10.01153486701011"><ele>34.0</ele><time>2026-03-29T05:49:46.999Z</time></trkpt><trkpt lat="45.123134715303195" lon="10.01145153932975"><ele>33.99999999999999</ele><time>2026-03-29T05:49:47.999Z</time></trkpt><trkpt lat="45.123165243810114" lon="10.011360436046386"><ele>34.0</ele><time>2026-03-29T05:49:48.999Z</time></trkpt><trkpt lat="45.123196002203905" lon="10.01126864670109"><ele>33.99999999999999</ele><time>2026-03-29T05:49:49.999Z</time></trkpt><trkpt lat="45.1232263903948" lon="10.011177962131706"><ele>34.0</ele><time>2026-03-29T05:49:50.999Z</time></trkpt><trkpt lat="45.1232570978187" lon="10.011086324879027"><ele>34.0</ele><time>2026-03-29T05:49:51.999Z</time></trkpt><trkpt lat="45.12328766189833" lon="10.010995115372099"><ele>34.0</ele><time>2026-03-29T05:49:52.999Z</time></trkpt><trkpt lat="45.12330489703769" lon="10.010893739979947"><ele>34.0</ele><time>2026-03-29T05:49:53.999Z</time></trkpt><trkpt lat="45.123334983630386" lon="10.010800965493946"><ele>33.99999999999999</ele><time>2026-03-29T05:49:54.999Z</time></trkpt><trkpt lat="45.12336634824908" lon="10.010707670742079"><ele>34.0</ele><time>2026-03-29T05:49:55.999Z</time></trkpt><trkpt lat="45.12339664042911" lon="10.010618167476519"><ele>33.99999999999999</ele><time>2026-03-29T05:49:56.999Z</time></trkpt><trkpt lat="45.123427060831766" lon="10.010525048676213"><ele>34.0</ele><time>2026-03-29T05:49:57.999Z</time></trkpt><trkpt lat="45.12345784850646" lon="10.0104327079742"><ele>34.0</ele><time>2026-03-29T05:49:58.999Z</time></trkpt><trkpt lat="45.1234895712845" lon="10.01033939250029"><ele>34.0</ele><time>2026-03-29T05:49:59.999Z</time></trkpt><trkpt lat="45.123521519799546" lon="10.010244968830733"><ele>34.0</ele><time>2026-03-29T05:50:00.999Z</time></trkpt><trkpt lat="45.12355369574025" lon="10.010153184121565"><ele>33.99999999999999</ele><time>2026-03-29T05:50:01.999Z</time></trkpt><trkpt lat="45.12358388898375" lon="10.010058265500962"><ele>34.0</ele><time>2026-03-29T05:50:02.999Z</time></trkpt><trkpt lat="45.123614402223524" lon="10.009963364720914"><ele>34.14285714285714</ele><time>2026-03-29T05:50:03.999Z</time></trkpt><trkpt lat="45.12366029602165" lon="10.009880470042903"><ele>34.285714285714285</ele><time>2026-03-29T05:50:04.999Z</time></trkpt><trkpt lat="45.12369162417806" lon="10.009787127342687"><ele>34.42857142857143</ele><time>2026-03-29T05:50:05.999Z</time></trkpt><trkpt lat="45.12372324185767" lon="10.009692922143676"><ele>34.57142857142857</ele><time>2026-03-29T05:50:06.999Z</time></trkpt><trkpt lat="45.12375495531765" lon="10.009598431401026"><ele>34.714285714285715</ele><time>2026-03-29T05:50:07.999Z</time></trkpt><trkpt lat="45.12378650009555" lon="10.009504443304545"><ele>34.857142857142854</ele><time>2026-03-29T05:50:08.999Z</time></trkpt><trkpt lat="45.123804005800224" lon="10.009400367756811"><ele>35.0</ele><time>2026-03-29T05:50:09.999Z</time></trkpt><trkpt lat="45.12384979756943" lon="10.009316030348607"><ele>35.0</ele><time>2026-03-29T05:50:10.998Z</time></trkpt><trkpt lat="45.12388071396948" lon="10.00922321787446"><ele>35.0</ele><time>2026-03-29T05:50:11.998Z</time></trkpt><trkpt lat="45.12391201479516" lon="10.009128202569135"><ele>35.0</ele><time>2026-03-29T05:50:12.998Z</time></trkpt><trkpt lat="45.12394240957766" lon="10.009035637985757"><ele>35.0</ele><time>2026-03-29T05:50:13.998Z</time></trkpt><trkpt lat="45.12396001773427" lon="10.008931056029162"><ele>35.0</ele><time>2026-03-29T05:50:14.998Z</time></trkpt><trkpt lat="45.12399038166772" lon="10.008837078693977"><ele>35.0</ele><time>2026-03-29T05:50:15.998Z</time></trkpt><trkpt lat="45.12402244945367" lon="10.008741864568778"><ele>35.0</ele><time>2026-03-29T05:50:16.998Z</time></trkpt><trkpt lat="45.124069461066526" lon="10.008656283037663"><ele>35.0</ele><time>2026-03-29T05:50:17.998Z</time></trkpt><trkpt lat="45.12410249688976" lon="10.008562754194292"><ele>35.0</ele><time>2026-03-29T05:50:18.998Z</time></trkpt><trkpt lat="45.12413497256918" lon="10.008467793869693"><ele>35.0</ele><time>2026-03-29T05:50:19.998Z</time></trkpt><trkpt lat="45.12416701127759" lon="10.008373846820806"><ele>35.0</ele><time>2026-03-29T05:50:20.998Z</time></trkpt><trkpt lat="45.12419756966634" lon="10.008282739242306"><ele>35.0</ele><time>2026-03-29T05:50:21.998Z</time></trkpt><trkpt lat="45.124228134549845" lon="10.008190973701458"><ele>35.0</ele><time>2026-03-29T05:50:22.998Z</time></trkpt><trkpt lat="45.12425761080191" lon="10.008102476545107"><ele>35.0</ele><time>2026-03-29T05:50:23.998Z</time></trkpt><trkpt lat="45.12428792934801" lon="10.008010923806081"><ele>35.285714285714285</ele><time>2026-03-29T05:50:24.998Z</time></trkpt><trkpt lat="45.12431830519255" lon="10.007919099741477"><ele>35.57142857142857</ele><time>2026-03-29T05:50:25.998Z</time></trkpt><trkpt lat="45.124349542371625" lon="10.007824671855156"><ele>35.85714285714286</ele><time>2026-03-29T05:50:26.998Z</time></trkpt><trkpt lat="45.124378573563334" lon="10.007734580690125"><ele>36.14285714285714</ele><time>2026-03-29T05:50:28Z</time></trkpt><trkpt lat="45.12439323990724" lon="10.00763903980726"><ele>36.42857142857143</ele><time>2026-03-29T05:50:29Z</time></trkpt><trkpt lat="45.12442371600083" lon="10.007557222385605"><ele>36.714285714285715</ele><time>2026-03-29T05:50:30Z</time></trkpt><trkpt lat="45.12445127523617" lon="10.007475556946856"><ele>37.0</ele><time>2026-03-29T05:50:31Z</time></trkpt><trkpt lat="45.12450410028758" lon="10.007316754085814"><ele>38.0</ele><time>2026-03-29T05:50:33Z</time></trkpt><trkpt lat="45.12455122414131" lon="10.007165232652769"><ele>39.0</ele><time>2026-03-29T05:50:35Z</time></trkpt><trkpt lat="45.12458699039705" lon="10.007020714913196"><ele>40.0</ele><time>2026-03-29T05:50:37Z</time></trkpt><trkpt lat="45.12452586272809" lon="10.006897539402834"><ele>41.0</ele><time>2026-03-29T05:50:39Z</time></trkpt><trkpt lat="45.12443434542028" lon="10.006785402277792"><ele>40.99999999999999</ele><time>2026-03-29T05:50:41Z</time></trkpt><trkpt lat="45.124383617628226" lon="10.006731993744992"><ele>41.0</ele><time>2026-03-29T05:50:42Z</time></trkpt><trkpt lat="45.12432966542236" lon="10.006675190395992"><ele>41.0</ele><time>2026-03-29T05:50:43Z</time></trkpt><trkpt lat="45.12427355111072" lon="10.006616014274725"><ele>41.0</ele><time>2026-03-29T05:50:44Z</time></trkpt><trkpt lat="45.12422240926882" lon="10.006561818009843"><ele>41.0</ele><time>2026-03-29T05:50:45Z</time></trkpt><trkpt lat="45.12416809421798" lon="10.00650425903121"><ele>40.99999999999999</ele><time>2026-03-29T05:50:46Z</time></trkpt><trkpt lat="45.12411002048376" lon="10.006442716868966"><ele>41.0</ele><time>2026-03-29T05:50:47Z</time></trkpt><trkpt lat="45.1240537440223" lon="10.00638307933354"><ele>41.285714285714285</ele><time>2026-03-29T05:50:48Z</time></trkpt><trkpt lat="45.12399669805165" lon="10.00632262634025"><ele>41.57142857142857</ele><time>2026-03-29T05:50:49Z</time></trkpt><trkpt lat="45.12394062581804" lon="10.006263205488679"><ele>41.85714285714286</ele><time>2026-03-29T05:50:50Z</time></trkpt><trkpt lat="45.12387408413166" lon="10.006219432984818"><ele>42.14285714285714</ele><time>2026-03-29T05:50:51Z</time></trkpt><trkpt lat="45.123825656842136" lon="10.006143241273847"><ele>42.42857142857143</ele><time>2026-03-29T05:50:52Z</time></trkpt><trkpt lat="45.123761343717696" lon="10.006105198984988"><ele>42.714285714285715</ele><time>2026-03-29T05:50:53Z</time></trkpt><trkpt lat="45.12371303587669" lon="10.006025450833233"><ele>43.0</ele><time>2026-03-29T05:50:54Z</time></trkpt><trkpt lat="45.123657254455516" lon="10.005966229282343"><ele>43.0</ele><time>2026-03-29T05:50:55Z</time></trkpt><trkpt lat="45.12359416283993" lon="10.005924850915155"><ele>43.0</ele><time>2026-03-29T05:50:56Z</time></trkpt><trkpt lat="45.123545276023485" lon="10.005867254577833"><ele>43.0</ele><time>2026-03-29T05:50:57Z</time></trkpt><trkpt lat="45.12349114134678" lon="10.005805133368272"><ele>43.0</ele><time>2026-03-29T05:50:58Z</time></trkpt><trkpt lat="45.12343829699918" lon="10.00574460659062"><ele>43.0</ele><time>2026-03-29T05:50:59Z</time></trkpt><trkpt lat="45.12339112576684" lon="10.005680690721334"><ele>43.0</ele><time>2026-03-29T05:51:00Z</time></trkpt><trkpt lat="45.1232916874145" lon="10.005575069993991"><ele>43.0</ele><time>2026-03-29T05:51:02Z</time></trkpt><trkpt lat="45.12324003437776" lon="10.005521418019969"><ele>43.0</ele><time>2026-03-29T05:51:03Z</time></trkpt><trkpt lat="45.12318847285208" lon="10.005467088958964"><ele>43.0</ele><time>2026-03-29T05:51:04Z</time></trkpt><trkpt lat="45.123089171344596" lon="10.005359075120845"><ele>43.0</ele><time>2026-03-29T05:51:06Z</time></trkpt><trkpt lat="45.12299943853827" lon="10.005257231792712"><ele>43.0</ele><time>2026-03-29T05:51:08Z</time></trkpt><trkpt lat="45.122966924852996" lon="10.005090168810005"><ele>42.199999999999996</ele><time>2026-03-29T05:51:10Z</time></trkpt><trkpt lat="45.123016650703555" lon="10.005020992329774"><ele>41.4</ele><time>2026-03-29T05:51:11Z</time></trkpt><trkpt lat="45.123103746072985" lon="10.004917645403106"><ele>40.599999999999994</ele><time>2026-03-29T05:51:13Z</time></trkpt><trkpt lat="45.123191286936965" lon="10.004826634213359"><ele>39.8</ele><time>2026-03-29T05:51:15Z</time></trkpt><trkpt lat="45.123272730023785" lon="10.004722642092998"><ele>39.0</ele><time>2026-03-29T05:51:17Z</time></trkpt><trkpt lat="45.12335629139767" lon="10.00462519784243"><ele>39.0</ele><time>2026-03-29T05:51:19Z</time></trkpt><trkpt lat="45.12344781463443" lon="10.004524147088473"><ele>39.0</ele><time>2026-03-29T05:51:20.999Z</time></trkpt><trkpt lat="45.12353458773952" lon="10.004414949049519"><ele>39.0</ele><time>2026-03-29T05:51:22.999Z</time></trkpt><trkpt lat="45.12362053471655" lon="10.004307801547572"><ele>39.0</ele><time>2026-03-29T05:51:24.999Z</time></trkpt><trkpt lat="45.12371156936918" lon="10.00420331086251"><ele>38.4</ele><time>2026-03-29T05:51:26.999Z</time></trkpt><trkpt lat="45.12380641965615" lon="10.004095459918124"><ele>37.8</ele><time>2026-03-29T05:51:28.999Z</time></trkpt><trkpt lat="45.12390475554016" lon="10.003990453065317"><ele>37.2</ele><time>2026-03-29T05:51:30.999Z</time></trkpt><trkpt lat="45.12400378779594" lon="10.003886477537334"><ele>36.6</ele><time>2026-03-29T05:51:32.999Z</time></trkpt><trkpt lat="45.12405559766549" lon="10.00383148975906"><ele>36.0</ele><time>2026-03-29T05:51:33.999Z</time></trkpt><trkpt lat="45.124102822927355" lon="10.003771130988786"><ele>36.0</ele><time>2026-03-29T05:51:34.999Z</time></trkpt><trkpt lat="45.12415171838518" lon="10.003713151382486"><ele>36.0</ele><time>2026-03-29T05:51:35.999Z</time></trkpt><trkpt lat="45.124247631793715" lon="10.003598098574118"><ele>36.0</ele><time>2026-03-29T05:51:37.999Z</time></trkpt><trkpt lat="45.12433895092245" lon="10.003479167686516"><ele>36.0</ele><time>2026-03-29T05:51:39.999Z</time></trkpt><trkpt lat="45.12442386131957" lon="10.003352198974556"><ele>36.0</ele><time>2026-03-29T05:51:41.999Z</time></trkpt><trkpt lat="45.12446673543973" lon="10.003285137552929"><ele>34.8</ele><time>2026-03-29T05:51:42.999Z</time></trkpt><trkpt lat="45.12450829201709" lon="10.003217384072006"><ele>33.6</ele><time>2026-03-29T05:51:43.999Z</time></trkpt><trkpt lat="45.12458713924185" lon="10.003079766922074"><ele>32.4</ele><time>2026-03-29T05:51:45.999Z</time></trkpt><trkpt lat="45.12466411143301" lon="10.002945337940776"><ele>31.2</ele><time>2026-03-29T05:51:47.999Z</time></trkpt><trkpt lat="45.124740728550144" lon="10.002817647889286"><ele>30.0</ele><time>2026-03-29T05:51:49.999Z</time></trkpt><trkpt lat="45.12481793956538" lon="10.002690494243845"><ele>30.5</ele><time>2026-03-29T05:51:51.999Z</time></trkpt><trkpt lat="45.12489813759239" lon="10.002569404356986"><ele>31.0</ele><time>2026-03-29T05:51:53.999Z</time></trkpt><trkpt lat="45.124988056061405" lon="10.002459283389653"><ele>31.5</ele><time>2026-03-29T05:51:55.999Z</time></trkpt><trkpt lat="45.12506808847396" lon="10.00233522224628"><ele>32.0</ele><time>2026-03-29T05:51:57.999Z</time></trkpt><trkpt lat="45.12516490433766" lon="10.002221982932754"><ele>32.0</ele><time>2026-03-29T05:51:59.999Z</time></trkpt><trkpt lat="45.12526031028059" lon="10.002105627502152"><ele>32.0</ele><time>2026-03-29T05:52:01.999Z</time></trkpt><trkpt lat="45.12535708929462" lon="10.001993984716142"><ele>32.0</ele><time>2026-03-29T05:52:03.999Z</time></trkpt><trkpt lat="45.125450949284044" lon="10.001884279915515"><ele>32.0</ele><time>2026-03-29T05:52:05.999Z</time></trkpt><trkpt lat="45.12554407593888" lon="10.001771957546579"><ele>31.400000000000002</ele><time>2026-03-29T05:52:07.999Z</time></trkpt><trkpt lat="45.125641545706266" lon="10.001664188875752"><ele>30.800000000000004</ele><time>2026-03-29T05:52:09.999Z</time></trkpt><trkpt lat="45.12569056060664" lon="10.001607097293345"><ele>30.2</ele><time>2026-03-29T05:52:10.999Z</time></trkpt><trkpt lat="45.12578592096766" lon="10.001489047603396"><ele>29.6</ele><time>2026-03-29T05:52:12.999Z</time></trkpt><trkpt lat="45.125884752427815" lon="10.001382034037231"><ele>29.0</ele><time>2026-03-29T05:52:14.998Z</time></trkpt><trkpt lat="45.12593393438734" lon="10.001325681090469"><ele>29.0</ele><time>2026-03-29T05:52:15.998Z</time></trkpt><trkpt lat="45.12602564286471" lon="10.001216452008846"><ele>29.0</ele><time>2026-03-29T05:52:17.998Z</time></trkpt><trkpt lat="45.12607398597599" lon="10.001158605212948"><ele>29.0</ele><time>2026-03-29T05:52:18.998Z</time></trkpt><trkpt lat="45.12616050944418" lon="10.001046370037727"><ele>29.0</ele><time>2026-03-29T05:52:20.998Z</time></trkpt><trkpt lat="45.12625000137723" lon="10.000936729877147"><ele>29.0</ele><time>2026-03-29T05:52:22.998Z</time></trkpt><trkpt lat="45.126338322860974" lon="10.000831651254144"><ele>29.0</ele><time>2026-03-29T05:52:24.998Z</time></trkpt><trkpt lat="45.12641568307541" lon="10.000719863972341"><ele>29.0</ele><time>2026-03-29T05:52:26.998Z</time></trkpt><trkpt lat="45.126502468901016" lon="10.000617159526056"><ele>29.0</ele><time>2026-03-29T05:52:28.998Z</time></trkpt><trkpt lat="45.12659137863846" lon="10.000518660188803"><ele>29.0</ele><time>2026-03-29T05:52:30.998Z</time></trkpt><trkpt lat="45.12668874184287" lon="10.00042565666684"><ele>29.0</ele><time>2026-03-29T05:52:32.998Z</time></trkpt><trkpt lat="45.12678236841891" lon="10.000327697534937"><ele>29.0</ele><time>2026-03-29T05:52:35Z</time></trkpt><trkpt lat="45.12687661797307" lon="10.000232116066412"><ele>29.0</ele><time>2026-03-29T05:52:37Z</time></trkpt><trkpt lat="45.12697104148725" lon="10.00014649453974"><ele>29.0</ele><time>2026-03-29T05:52:39Z</time></trkpt><trkpt lat="45.12706278974994" lon="10.000063231612534"><ele>29.0</ele><time>2026-03-29T05:52:41Z</time></trkpt><trkpt lat="45.127160943284416" lon="9.99998899284722"><ele>29.0</ele><time>2026-03-29T05:52:43Z</time></trkpt><trkpt lat="45.12724757681203" lon="9.999895203716244"><ele>29.0</ele><time>2026-03-29T05:52:45Z</time></trkpt><trkpt lat="45.127339448225214" lon="9.999817482614231"><ele>29.0</ele><time>2026-03-29T05:52:47Z</time></trkpt><trkpt lat="45.12744203397782" lon="9.999755322234446"><ele>29.0</ele><time>2026-03-29T05:52:49Z</time></trkpt><trkpt lat="45.12754943238337" lon="9.99972337144753"><ele>30.799999999999997</ele><time>2026-03-29T05:52:51Z</time></trkpt><trkpt lat="45.12760237829127" lon="9.999597434155328"><ele>32.599999999999994</ele><time>2026-03-29T05:52:53Z</time></trkpt><trkpt lat="45.127534962210476" lon="9.999473465115445"><ele>34.4</ele><time>2026-03-29T05:52:54Z</time></trkpt><trkpt lat="45.12756996032994" lon="9.999315686269489"><ele>36.199999999999996</ele><time>2026-03-29T05:52:56Z</time></trkpt><trkpt lat="45.12760809137036" lon="9.999235582604856"><ele>38.0</ele><time>2026-03-29T05:52:57Z</time></trkpt><trkpt lat="45.12768519747024" lon="9.999112918814394"><ele>38.0</ele><time>2026-03-29T05:52:59Z</time></trkpt><trkpt lat="45.12775237671602" lon="9.998994489605185"><ele>38.0</ele><time>2026-03-29T05:53:01Z</time></trkpt><trkpt lat="45.12782059926716" lon="9.998874765619416"><ele>38.0</ele><time>2026-03-29T05:53:03Z</time></trkpt><trkpt lat="45.12788855257879" lon="9.99876339422271"><ele>38.0</ele><time>2026-03-29T05:53:05Z</time></trkpt><trkpt lat="45.12796000704545" lon="9.998653747510376"><ele>38.0</ele><time>2026-03-29T05:53:07Z</time></trkpt><trkpt lat="45.12803824915574" lon="9.998559727034982"><ele>38.0</ele><time>2026-03-29T05:53:09Z</time></trkpt><trkpt lat="45.12807846338429" lon="9.998428022612467"><ele>38.0</ele><time>2026-03-29T05:53:11Z</time></trkpt><trkpt lat="45.12809341941288" lon="9.998296459504704"><ele>38.0</ele><time>2026-03-29T05:53:13Z</time></trkpt><trkpt lat="45.12801260996744" lon="9.998174458413175"><ele>38.0</ele><time>2026-03-29T05:53:15Z</time></trkpt><trkpt lat="45.12794639269048" lon="9.998143036240618"><ele>38.0</ele><time>2026-03-29T05:53:16Z</time></trkpt><trkpt lat="45.12787530236561" lon="9.99801048854285"><ele>37.199999999999996</ele><time>2026-03-29T05:53:18Z</time></trkpt><trkpt lat="45.127875827658094" lon="9.997848409440818"><ele>36.4</ele><time>2026-03-29T05:53:20Z</time></trkpt><trkpt lat="45.127928281163825" lon="9.997771456105747"><ele>35.599999999999994</ele><time>2026-03-29T05:53:21Z</time></trkpt><trkpt lat="45.128022911260366" lon="9.997669382593962"><ele>34.8</ele><time>2026-03-29T05:53:23Z</time></trkpt><trkpt lat="45.12810399892529" lon="9.99755989910318"><ele>34.0</ele><time>2026-03-29T05:53:25Z</time></trkpt><trkpt lat="45.12818205084474" lon="9.997457191016526"><ele>34.8</ele><time>2026-03-29T05:53:26.999Z</time></trkpt><trkpt lat="45.128261526676205" lon="9.997354231893471"><ele>35.599999999999994</ele><time>2026-03-29T05:53:28.999Z</time></trkpt><trkpt lat="45.128338113845295" lon="9.997255459715474"><ele>36.4</ele><time>2026-03-29T05:53:30.999Z</time></trkpt><trkpt lat="45.128412766764676" lon="9.997159040072676"><ele>37.199999999999996</ele><time>2026-03-29T05:53:32.999Z</time></trkpt><trkpt lat="45.12848610598326" lon="9.997060512849654"><ele>38.0</ele><time>2026-03-29T05:53:34.999Z</time></trkpt><trkpt lat="45.128560297652" lon="9.996956382273508"><ele>38.0</ele><time>2026-03-29T05:53:36.999Z</time></trkpt><trkpt lat="45.12863653681474" lon="9.996854285643655"><ele>38.0</ele><time>2026-03-29T05:53:38.999Z</time></trkpt><trkpt lat="45.128711904926384" lon="9.996745590374472"><ele>38.0</ele><time>2026-03-29T05:53:40.999Z</time></trkpt><trkpt lat="45.12879093940084" lon="9.99664047363281"><ele>38.0</ele><time>2026-03-29T05:53:42.999Z</time></trkpt><trkpt lat="45.12886629166646" lon="9.9965286400892"><ele>38.0</ele><time>2026-03-29T05:53:44.999Z</time></trkpt><trkpt lat="45.12894342026554" lon="9.996417548780013"><ele>38.0</ele><time>2026-03-29T05:53:46.999Z</time></trkpt><trkpt lat="45.129021898261875" lon="9.996313458705096"><ele>38.0</ele><time>2026-03-29T05:53:48.999Z</time></trkpt><trkpt lat="45.12909961662251" lon="9.996210666099064"><ele>38.0</ele><time>2026-03-29T05:53:50.999Z</time></trkpt><trkpt lat="45.129172098268874" lon="9.996107327261674"><ele>38.0</ele><time>2026-03-29T05:53:52.999Z</time></trkpt><trkpt lat="45.12924465870163" lon="9.9960034647178"><ele>38.0</ele><time>2026-03-29T05:53:54.999Z</time></trkpt><trkpt lat="45.129313385049926" lon="9.995914305780158"><ele>38.0</ele><time>2026-03-29T05:53:56.999Z</time></trkpt><trkpt lat="45.12946470127536" lon="9.995938886898864"><ele>38.0</ele><time>2026-03-29T05:53:59.999Z</time></trkpt><trkpt lat="45.12953779956334" lon="9.995977675866241"><ele>38.0</ele><time>2026-03-29T05:54:01.999Z</time></trkpt><trkpt lat="45.12959509935211" lon="9.996032362720666"><ele>38.0</ele><time>2026-03-29T05:54:03.999Z</time></trkpt><trkpt lat="45.12965555153556" lon="9.996078342008751"><ele>38.0</ele><time>2026-03-29T05:54:05.999Z</time></trkpt><trkpt lat="45.12970113529263" lon="9.996182010390147"><ele>38.0</ele><time>2026-03-29T05:54:07.999Z</time></trkpt><trkpt lat="45.1297722835872" lon="9.996250482222022"><ele>38.0</ele><time>2026-03-29T05:54:09.999Z</time></trkpt><trkpt lat="45.12983220836667" lon="9.996339877050165"><ele>38.0</ele><time>2026-03-29T05:54:11.999Z</time></trkpt><trkpt lat="45.129889773280716" lon="9.996438374609157"><ele>38.0</ele><time>2026-03-29T05:54:13.999Z</time></trkpt><trkpt lat="45.12993267889425" lon="9.996538812853824"><ele>38.0</ele><time>2026-03-29T05:54:15.999Z</time></trkpt><trkpt lat="45.12994942064812" lon="9.996656796417948"><ele>38.0</ele><time>2026-03-29T05:54:17.999Z</time></trkpt><trkpt lat="45.1299651464929" lon="9.996775900615207"><ele>38.4</ele><time>2026-03-29T05:54:19.999Z</time></trkpt><trkpt lat="45.12996965922904" lon="9.996865817591214"><ele>38.8</ele><time>2026-03-29T05:54:22.998Z</time></trkpt><trkpt lat="45.130016399209445" lon="9.99702854587918"><ele>39.2</ele><time>2026-03-29T05:54:23.998Z</time></trkpt><trkpt lat="45.13005591433536" lon="9.99713006542729"><ele>39.6</ele><time>2026-03-29T05:54:25.998Z</time></trkpt><trkpt lat="45.13009167165784" lon="9.997249461516336"><ele>40.0</ele><time>2026-03-29T05:54:27.998Z</time></trkpt><trkpt lat="45.13011166025826" lon="9.99737865920246"><ele>40.0</ele><time>2026-03-29T05:54:29.998Z</time></trkpt><trkpt lat="45.130135067854525" lon="9.997537590896544"><ele>40.0</ele><time>2026-03-29T05:54:31.998Z</time></trkpt><trkpt lat="45.13015158308294" lon="9.99768649121766"><ele>40.0</ele><time>2026-03-29T05:54:33.998Z</time></trkpt><trkpt lat="45.13016611617235" lon="9.997835223116486"><ele>40.0</ele><time>2026-03-29T05:54:35.998Z</time></trkpt><trkpt lat="45.130181467048665" lon="9.997986484161514"><ele>40.0</ele><time>2026-03-29T05:54:37.998Z</time></trkpt><trkpt lat="45.130193413852396" lon="9.998137827318457"><ele>40.0</ele><time>2026-03-29T05:54:40Z</time></trkpt><trkpt lat="45.13019846742825" lon="9.998300655991816"><ele>40.0</ele><time>2026-03-29T05:54:42Z</time></trkpt><trkpt lat="45.13021936172399" lon="9.998451045042092"><ele>40.0</ele><time>2026-03-29T05:54:44Z</time></trkpt><trkpt lat="45.13022841425253" lon="9.998606876785644"><ele>40.0</ele><time>2026-03-29T05:54:46Z</time></trkpt><trkpt lat="45.13024646503064" lon="9.998761419259496"><ele>40.0</ele><time>2026-03-29T05:54:48Z</time></trkpt><trkpt lat="45.130263222881105" lon="9.998916737986537"><ele>40.25</ele><time>2026-03-29T05:54:50Z</time></trkpt><trkpt lat="45.13028386177646" lon="9.999074778222022"><ele>40.5</ele><time>2026-03-29T05:54:52Z</time></trkpt><trkpt lat="45.13029863348348" lon="9.99923169228917"><ele>40.75</ele><time>2026-03-29T05:54:54Z</time></trkpt><trkpt lat="45.13031276483915" lon="9.99938847508623"><ele>41.0</ele><time>2026-03-29T05:54:56Z</time></trkpt><trkpt lat="45.130337366768075" lon="9.999547935629195"><ele>41.0</ele><time>2026-03-29T05:54:58Z</time></trkpt><trkpt lat="45.130356645773716" lon="9.999707261304549"><ele>41.0</ele><time>2026-03-29T05:55:00Z</time></trkpt><trkpt lat="45.13036965625782" lon="9.999864857747994"><ele>41.0</ele><time>2026-03-29T05:55:02Z</time></trkpt><trkpt lat="45.130383092550765" lon="10.000021081510711"><ele>41.0</ele><time>2026-03-29T05:55:04Z</time></trkpt><trkpt lat="45.13039752592698" lon="10.00017774876457"><ele>41.0</ele><time>2026-03-29T05:55:06Z</time></trkpt><trkpt lat="45.13041516116488" lon="10.000328718578569"><ele>41.0</ele><time>2026-03-29T05:55:08Z</time></trkpt><trkpt lat="45.13044652817335" lon="10.000486740383115"><ele>41.0</ele><time>2026-03-29T05:55:10Z</time></trkpt><trkpt lat="45.130430459923296" lon="10.000644839519374"><ele>41.0</ele><time>2026-03-29T05:55:12Z</time></trkpt><trkpt lat="45.130398671627106" lon="10.000795759878164"><ele>41.0</ele><time>2026-03-29T05:55:14Z</time></trkpt><trkpt lat="45.130357677036955" lon="10.00093351955676"><ele>41.0</ele><time>2026-03-29T05:55:16Z</time></trkpt><trkpt lat="45.13031701469252" lon="10.001067654592202"><ele>40.8</ele><time>2026-03-29T05:55:18Z</time></trkpt><trkpt lat="45.13025859561876" lon="10.001194710087674"><ele>40.599999999999994</ele><time>2026-03-29T05:55:20Z</time></trkpt><trkpt lat="45.13021047828047" lon="10.001312969248751"><ele>40.4</ele><time>2026-03-29T05:55:22Z</time></trkpt><trkpt lat="45.13017811332101" lon="10.001392513190378"><ele>40.2</ele><time>2026-03-29T05:55:24Z</time></trkpt><trkpt lat="45.13006888131258" lon="10.00134843796146"><ele>40.0</ele><time>2026-03-29T05:55:25Z</time></trkpt><trkpt lat="45.13009197639307" lon="10.00145320498175"><ele>40.0</ele><time>2026-03-29T05:55:31.999Z</time></trkpt><trkpt lat="45.130037523308246" lon="10.001501262077163"><ele>40.0</ele><time>2026-03-29T05:55:32.999Z</time></trkpt><trkpt lat="45.13005459280471" lon="10.001389275644447"><ele>40.0</ele><time>2026-03-29T06:02:54.998Z</time></trkpt><trkpt lat="45.13013082669124" lon="10.001315072875693"><ele>40.0</ele><time>2026-03-29T06:02:56.998Z</time></trkpt><trkpt lat="45.130183012844654" lon="10.001248516452875"><ele>40.0</ele><time>2026-03-29T06:02:58.998Z</time></trkpt><trkpt lat="45.1302279065112" lon="10.00114523022498"><ele>40.0</ele><time>2026-03-29T06:03:00.998Z</time></trkpt><trkpt lat="45.13026620681192" lon="10.00105044997898"><ele>40.0</ele><time>2026-03-29T06:03:03Z</time></trkpt><trkpt lat="45.13030325806028" lon="10.000958655354681"><ele>40.0</ele><time>2026-03-29T06:03:05Z</time></trkpt><trkpt lat="45.130336729219955" lon="10.000865277472837"><ele>40.0</ele><time>2026-03-29T06:03:07Z</time></trkpt><trkpt lat="45.13037250648637" lon="10.00075577623488"><ele>40.0</ele><time>2026-03-29T06:03:09Z</time></trkpt><trkpt lat="45.130402634230336" lon="10.00064183248235"><ele>40.0</ele><time>2026-03-29T06:03:11Z</time></trkpt><trkpt lat="45.13042600719524" lon="10.000511947907503"><ele>40.0</ele><time>2026-03-29T06:03:13Z</time></trkpt><trkpt lat="45.13043387978865" lon="10.000389834870786"><ele>40.16666666666667</ele><time>2026-03-29T06:03:15Z</time></trkpt><trkpt lat="45.13042903092565" lon="10.000274844979053"><ele>40.333333333333336</ele><time>2026-03-29T06:03:17Z</time></trkpt><trkpt lat="45.130409687326484" lon="10.000160930181773"><ele>40.5</ele><time>2026-03-29T06:03:19Z</time></trkpt><trkpt lat="45.13039888217396" lon="10.000041868844969"><ele>40.666666666666664</ele><time>2026-03-29T06:03:21Z</time></trkpt><trkpt lat="45.13038149235859" lon="9.999919194783766"><ele>40.83333333333333</ele><time>2026-03-29T06:03:23Z</time></trkpt><trkpt lat="45.130368475588696" lon="9.99978821217839"><ele>41.0</ele><time>2026-03-29T06:03:25Z</time></trkpt><trkpt lat="45.13035512109051" lon="9.99965617945191"><ele>41.0</ele><time>2026-03-29T06:03:27Z</time></trkpt><trkpt lat="45.13033927110469" lon="9.999517893024745"><ele>41.0</ele><time>2026-03-29T06:03:29Z</time></trkpt><trkpt lat="45.13032703517784" lon="9.999378968792211"><ele>41.0</ele><time>2026-03-29T06:03:31Z</time></trkpt><trkpt lat="45.130313213600196" lon="9.999238143151034"><ele>41.0</ele><time>2026-03-29T06:03:33Z</time></trkpt><trkpt lat="45.13029815914262" lon="9.999098040561513"><ele>41.0</ele><time>2026-03-29T06:03:35Z</time></trkpt><trkpt lat="45.13028252765822" lon="9.998960284893323"><ele>41.0</ele><time>2026-03-29T06:03:37Z</time></trkpt><trkpt lat="45.13026642579375" lon="9.998820958509064"><ele>41.0</ele><time>2026-03-29T06:03:39Z</time></trkpt><trkpt lat="45.13025686631081" lon="9.998682581312718"><ele>41.0</ele><time>2026-03-29T06:03:41Z</time></trkpt><trkpt lat="45.13023938737733" lon="9.998543298815868"><ele>41.0</ele><time>2026-03-29T06:03:43Z</time></trkpt><trkpt lat="45.130226153269" lon="9.998402006356907"><ele>41.0</ele><time>2026-03-29T06:03:45Z</time></trkpt><trkpt lat="45.13027404654062" lon="9.998248072924266"><ele>40.8</ele><time>2026-03-29T06:03:46.999Z</time></trkpt><trkpt lat="45.130259018544834" lon="9.99810973607514"><ele>40.599999999999994</ele><time>2026-03-29T06:03:48.999Z</time></trkpt><trkpt lat="45.13024446058565" lon="9.997975658087196"><ele>40.4</ele><time>2026-03-29T06:03:50.999Z</time></trkpt><trkpt lat="45.13022919115902" lon="9.99783452079218"><ele>40.2</ele><time>2026-03-29T06:03:52.999Z</time></trkpt><trkpt lat="45.130213708639175" lon="9.997691413883452"><ele>40.0</ele><time>2026-03-29T06:03:54.999Z</time></trkpt><trkpt lat="45.13019830482987" lon="9.997548999836077"><ele>40.0</ele><time>2026-03-29T06:03:56.999Z</time></trkpt><trkpt lat="45.130182847986816" lon="9.997405308434361"><ele>40.0</ele><time>2026-03-29T06:03:58.999Z</time></trkpt><trkpt lat="45.13016782358846" lon="9.997265637219938"><ele>40.0</ele><time>2026-03-29T06:04:00.999Z</time></trkpt><trkpt lat="45.13015252289046" lon="9.997123397431718"><ele>40.0</ele><time>2026-03-29T06:04:02.999Z</time></trkpt><trkpt lat="45.130060775752945" lon="9.99707226722045"><ele>40.0</ele><time>2026-03-29T06:04:03.999Z</time></trkpt><trkpt lat="45.13003645165332" lon="9.996933497257352"><ele>40.0</ele><time>2026-03-29T06:04:05.999Z</time></trkpt><trkpt lat="45.13002076245572" lon="9.996784905366964"><ele>40.0</ele><time>2026-03-29T06:04:07.999Z</time></trkpt><trkpt lat="45.13000153014166" lon="9.996635223501672"><ele>40.0</ele><time>2026-03-29T06:04:09.999Z</time></trkpt><trkpt lat="45.12998131529993" lon="9.996490738239281"><ele>40.0</ele><time>2026-03-29T06:04:11.999Z</time></trkpt><trkpt lat="45.12994683109876" lon="9.996349667307367"><ele>40.0</ele><time>2026-03-29T06:04:13.999Z</time></trkpt><trkpt lat="45.129891002347996" lon="9.996217924068334"><ele>39.6</ele><time>2026-03-29T06:04:15.999Z</time></trkpt><trkpt lat="45.12982795581443" lon="9.99609818132299"><ele>39.2</ele><time>2026-03-29T06:04:17.999Z</time></trkpt><trkpt lat="45.12975668257562" lon="9.995997839767389"><ele>38.8</ele><time>2026-03-29T06:04:19.999Z</time></trkpt><trkpt lat="45.129675552831365" lon="9.995924840151384"><ele>38.4</ele><time>2026-03-29T06:04:21.999Z</time></trkpt><trkpt lat="45.12959220781219" lon="9.995861605933149"><ele>38.0</ele><time>2026-03-29T06:04:23.999Z</time></trkpt><trkpt lat="45.12951253472056" lon="9.995801082800922"><ele>37.4</ele><time>2026-03-29T06:04:25.999Z</time></trkpt><trkpt lat="45.12951117104638" lon="9.99567109174109"><ele>36.8</ele><time>2026-03-29T06:04:26.999Z</time></trkpt><trkpt lat="45.12942535183772" lon="9.99559764708147"><ele>36.2</ele><time>2026-03-29T06:04:28.999Z</time></trkpt><trkpt lat="45.12933629015975" lon="9.995521267108858"><ele>35.6</ele><time>2026-03-29T06:04:30.999Z</time></trkpt><trkpt lat="45.12924441469985" lon="9.995442474055618"><ele>35.0</ele><time>2026-03-29T06:04:32.999Z</time></trkpt><trkpt lat="45.12915271035023" lon="9.995363827727623"><ele>35.0</ele><time>2026-03-29T06:04:34.999Z</time></trkpt><trkpt lat="45.129061915794914" lon="9.995285961653014"><ele>35.0</ele><time>2026-03-29T06:04:36.999Z</time></trkpt><trkpt lat="45.12897101655205" lon="9.995208005777194"><ele>35.0</ele><time>2026-03-29T06:04:38.999Z</time></trkpt><trkpt lat="45.128882558741196" lon="9.995132143697731"><ele>35.0</ele><time>2026-03-29T06:04:40.999Z</time></trkpt><trkpt lat="45.12879120719013" lon="9.995053799948202"><ele>35.0</ele><time>2026-03-29T06:04:42.998Z</time></trkpt><trkpt lat="45.12869835970944" lon="9.994973804784223"><ele>33.6</ele><time>2026-03-29T06:04:44.998Z</time></trkpt><trkpt lat="45.12860480553248" lon="9.994892518394327"><ele>32.2</ele><time>2026-03-29T06:04:46.998Z</time></trkpt><trkpt lat="45.128509769973284" lon="9.994809944840506"><ele>30.799999999999997</ele><time>2026-03-29T06:04:48.998Z</time></trkpt><trkpt lat="45.1284170201659" lon="9.994729357377564"><ele>29.4</ele><time>2026-03-29T06:04:50.998Z</time></trkpt><trkpt lat="45.128323989928894" lon="9.994648737848285"><ele>28.0</ele><time>2026-03-29T06:04:52.998Z</time></trkpt><trkpt lat="45.128228219306465" lon="9.99456631117248"><ele>28.0</ele><time>2026-03-29T06:04:54.998Z</time></trkpt><trkpt lat="45.12813291744426" lon="9.994484287948142"><ele>27.999999999999996</ele><time>2026-03-29T06:04:56.998Z</time></trkpt><trkpt lat="45.128037296594265" lon="9.994401990215664"><ele>27.999999999999996</ele><time>2026-03-29T06:04:58.998Z</time></trkpt><trkpt lat="45.12794200529998" lon="9.994320119014185"><ele>28.0</ele><time>2026-03-29T06:05:00.998Z</time></trkpt><trkpt lat="45.12785122486598" lon="9.994242192419557"><ele>28.0</ele><time>2026-03-29T06:05:02.998Z</time></trkpt><trkpt lat="45.12775730500029" lon="9.994161347924216"><ele>28.0</ele><time>2026-03-29T06:05:04.998Z</time></trkpt><trkpt lat="45.12766652259994" lon="9.994083057115759"><ele>27.999999999999996</ele><time>2026-03-29T06:05:06.998Z</time></trkpt><trkpt lat="45.12757502311651" lon="9.994004147900323"><ele>27.999999999999996</ele><time>2026-03-29T06:05:09Z</time></trkpt><trkpt lat="45.127481858406355" lon="9.993923802562092"><ele>28.0</ele><time>2026-03-29T06:05:11Z</time></trkpt><trkpt lat="45.127390639769274" lon="9.993845135538818"><ele>28.0</ele><time>2026-03-29T06:05:13Z</time></trkpt><trkpt lat="45.12729639749753" lon="9.993763860920264"><ele>29.799999999999997</ele><time>2026-03-29T06:05:15Z</time></trkpt><trkpt lat="45.1272004477852" lon="9.993681113833953"><ele>31.599999999999998</ele><time>2026-03-29T06:05:17Z</time></trkpt><trkpt lat="45.12710408895987" lon="9.993598193742676"><ele>33.400000000000006</ele><time>2026-03-29T06:05:19Z</time></trkpt><trkpt lat="45.12701127915912" lon="9.993518462037953"><ele>35.2</ele><time>2026-03-29T06:05:21Z</time></trkpt><trkpt lat="45.12691521799145" lon="9.993435937104293"><ele>37.0</ele><time>2026-03-29T06:05:23Z</time></trkpt><trkpt lat="45.126819715701494" lon="9.993353255069948"><ele>37.4</ele><time>2026-03-29T06:05:25Z</time></trkpt><trkpt lat="45.126724750344565" lon="9.993270990575699"><ele>37.800000000000004</ele><time>2026-03-29T06:05:27Z</time></trkpt><trkpt lat="45.12663157021855" lon="9.993190272514017"><ele>38.2</ele><time>2026-03-29T06:05:29Z</time></trkpt><trkpt lat="45.12653810090708" lon="9.99310930393002"><ele>38.6</ele><time>2026-03-29T06:05:31Z</time></trkpt><trkpt lat="45.12644256878408" lon="9.993027301164362"><ele>39.0</ele><time>2026-03-29T06:05:33Z</time></trkpt><trkpt lat="45.12634490926688" lon="9.992943693506076"><ele>39.0</ele><time>2026-03-29T06:05:35Z</time></trkpt><trkpt lat="45.12624764791479" lon="9.992860426709763"><ele>39.0</ele><time>2026-03-29T06:05:37Z</time></trkpt><trkpt lat="45.1261514788044" lon="9.99277809502024"><ele>39.0</ele><time>2026-03-29T06:05:39Z</time></trkpt><trkpt lat="45.12605712489121" lon="9.992697317353446"><ele>39.0</ele><time>2026-03-29T06:05:41Z</time></trkpt><trkpt lat="45.12596159470858" lon="9.992615250374453"><ele>39.0</ele><time>2026-03-29T06:05:43Z</time></trkpt><trkpt lat="45.12586579843468" lon="9.992532750254737"><ele>39.5</ele><time>2026-03-29T06:05:45Z</time></trkpt><trkpt lat="45.12576888040068" lon="9.992449284024962"><ele>40.0</ele><time>2026-03-29T06:05:47Z</time></trkpt><trkpt lat="45.12567051980597" lon="9.99236508970015"><ele>40.5</ele><time>2026-03-29T06:05:49Z</time></trkpt><trkpt lat="45.12557310571116" lon="9.99228225065108"><ele>41.0</ele><time>2026-03-29T06:05:51Z</time></trkpt><trkpt lat="45.125477558764445" lon="9.992200897631111"><ele>41.0</ele><time>2026-03-29T06:05:52.999Z</time></trkpt><trkpt lat="45.12537977745101" lon="9.992115208593656"><ele>41.0</ele><time>2026-03-29T06:05:54.999Z</time></trkpt><trkpt lat="45.12528172045807" lon="9.992029278020263"><ele>41.0</ele><time>2026-03-29T06:05:56.999Z</time></trkpt><trkpt lat="45.12518387497767" lon="9.99194353275283"><ele>41.0</ele><time>2026-03-29T06:05:58.999Z</time></trkpt><trkpt lat="45.12508417754764" lon="9.991858175546415"><ele>41.0</ele><time>2026-03-29T06:06:00.999Z</time></trkpt><trkpt lat="45.12498567377488" lon="9.991773888849073"><ele>41.0</ele><time>2026-03-29T06:06:02.999Z</time></trkpt><trkpt lat="45.12488824505911" lon="9.99169052196365"><ele>41.0</ele><time>2026-03-29T06:06:04.999Z</time></trkpt><trkpt lat="45.12479557688576" lon="9.991610127271517"><ele>41.0</ele><time>2026-03-29T06:06:06.999Z</time></trkpt><trkpt lat="45.12470140662401" lon="9.991528174943168"><ele>41.0</ele><time>2026-03-29T06:06:08.999Z</time></trkpt><trkpt lat="45.12460604379183" lon="9.991445373917102"><ele>40.5</ele><time>2026-03-29T06:06:10.999Z</time></trkpt><trkpt lat="45.124509720807914" lon="9.991362461306291"><ele>40.0</ele><time>2026-03-29T06:06:12.999Z</time></trkpt><trkpt lat="45.12441156340302" lon="9.991277969701441"><ele>39.5</ele><time>2026-03-29T06:06:14.999Z</time></trkpt><trkpt lat="45.12431325380387" lon="9.991193347081403"><ele>39.0</ele><time>2026-03-29T06:06:16.999Z</time></trkpt><trkpt lat="45.12421299321768" lon="9.991107045099017"><ele>39.0</ele><time>2026-03-29T06:06:18.999Z</time></trkpt><trkpt lat="45.1241161333804" lon="9.991023670391275"><ele>39.0</ele><time>2026-03-29T06:06:20.999Z</time></trkpt><trkpt lat="45.12401999624694" lon="9.99094091777936"><ele>39.0</ele><time>2026-03-29T06:06:22.999Z</time></trkpt><trkpt lat="45.1239199338809" lon="9.99085478641369"><ele>39.0</ele><time>2026-03-29T06:06:24.999Z</time></trkpt><trkpt lat="45.12382271032048" lon="9.990771098626563"><ele>39.25</ele><time>2026-03-29T06:06:26.999Z</time></trkpt><trkpt lat="45.123724521527734" lon="9.990686579964805"><ele>39.5</ele><time>2026-03-29T06:06:28.999Z</time></trkpt><trkpt lat="45.12362621589513" lon="9.990601960755637"><ele>39.75</ele><time>2026-03-29T06:06:30.999Z</time></trkpt><trkpt lat="45.123529849900706" lon="9.990518515945022"><ele>40.0</ele><time>2026-03-29T06:06:32.999Z</time></trkpt><trkpt lat="45.12343359520642" lon="9.990435018222868"><ele>40.0</ele><time>2026-03-29T06:06:34.999Z</time></trkpt><trkpt lat="45.12333559632554" lon="9.990350007467823"><ele>40.0</ele><time>2026-03-29T06:06:36.999Z</time></trkpt><trkpt lat="45.123236401939536" lon="9.990263961356325"><ele>40.0</ele><time>2026-03-29T06:06:38.999Z</time></trkpt><trkpt lat="45.12313684339683" lon="9.990177597685266"><ele>40.0</ele><time>2026-03-29T06:06:40.999Z</time></trkpt><trkpt lat="45.123037858631136" lon="9.990091731736914"><ele>40.0</ele><time>2026-03-29T06:06:42.999Z</time></trkpt><trkpt lat="45.122936503431845" lon="9.990003873920035"><ele>40.0</ele><time>2026-03-29T06:06:44.999Z</time></trkpt><trkpt lat="45.12283695713413" lon="9.989918259264856"><ele>40.0</ele><time>2026-03-29T06:06:46.999Z</time></trkpt><trkpt lat="45.122736566293945" lon="9.989831918259478"><ele>40.0</ele><time>2026-03-29T06:06:48.998Z</time></trkpt><trkpt lat="45.122635930520296" lon="9.989745366597326"><ele>40.0</ele><time>2026-03-29T06:06:50.998Z</time></trkpt><trkpt lat="45.12253460233315" lon="9.989658219429716"><ele>40.0</ele><time>2026-03-29T06:06:52.998Z</time></trkpt><trkpt lat="45.12243804746029" lon="9.98957395881875"><ele>40.0</ele><time>2026-03-29T06:06:54.998Z</time></trkpt><trkpt lat="45.12234191309919" lon="9.989488482530204"><ele>40.0</ele><time>2026-03-29T06:06:56.998Z</time></trkpt><trkpt lat="45.122243196370725" lon="9.989405407815278"><ele>39.8</ele><time>2026-03-29T06:06:58.998Z</time></trkpt><trkpt lat="45.12214241736111" lon="9.989328069599157"><ele>39.6</ele><time>2026-03-29T06:07:00.998Z</time></trkpt><trkpt lat="45.12204190193578" lon="9.989253619046014"><ele>39.4</ele><time>2026-03-29T06:07:02.998Z</time></trkpt><trkpt lat="45.12198257475601" lon="9.989216904380186"><ele>39.2</ele><time>2026-03-29T06:07:03.998Z</time></trkpt><trkpt lat="45.12192092633657" lon="9.989190941690318"><ele>39.0</ele><time>2026-03-29T06:07:04.998Z</time></trkpt><trkpt lat="45.12180089269831" lon="9.989161224507534"><ele>39.0</ele><time>2026-03-29T06:07:06.998Z</time></trkpt><trkpt lat="45.121677766757685" lon="9.989156066263432"><ele>39.0</ele><time>2026-03-29T06:07:08.998Z</time></trkpt><trkpt lat="45.12161360381945" lon="9.989164351759968"><ele>39.0</ele><time>2026-03-29T06:07:09.998Z</time></trkpt><trkpt lat="45.12154416413114" lon="9.989188625799658"><ele>39.0</ele><time>2026-03-29T06:07:10.998Z</time></trkpt><trkpt lat="45.12142670707001" lon="9.989246940197857"><ele>39.0</ele><time>2026-03-29T06:07:12.998Z</time></trkpt><trkpt lat="45.12131761410124" lon="9.989310675319285"><ele>38.4</ele><time>2026-03-29T06:07:15Z</time></trkpt><trkpt lat="45.12121148202534" lon="9.989373364767738"><ele>37.8</ele><time>2026-03-29T06:07:17Z</time></trkpt><trkpt lat="45.121111023206545" lon="9.989434373870763"><ele>37.2</ele><time>2026-03-29T06:07:19Z</time></trkpt><trkpt lat="45.121012516071616" lon="9.989494197692387"><ele>36.6</ele><time>2026-03-29T06:07:21Z</time></trkpt><trkpt lat="45.120918536937" lon="9.989551271661128"><ele>36.0</ele><time>2026-03-29T06:07:23Z</time></trkpt><trkpt lat="45.120833275981774" lon="9.989603050823929"><ele>36.0</ele><time>2026-03-29T06:07:25Z</time></trkpt><trkpt lat="45.12076163665283" lon="9.989645558250308"><ele>36.0</ele><time>2026-03-29T06:07:27Z</time></trkpt><trkpt lat="45.12068754820273" lon="9.989689955823618"><ele>36.0</ele><time>2026-03-29T06:07:29Z</time></trkpt><trkpt lat="45.12058570231832" lon="9.989728130151095"><ele>36.0</ele><time>2026-03-29T06:07:31Z</time></trkpt><trkpt lat="45.120472781627065" lon="9.989804102170169"><ele>36.0</ele><time>2026-03-29T06:07:33Z</time></trkpt><trkpt lat="45.120354004532054" lon="9.98987326558507"><ele>36.42857142857143</ele><time>2026-03-29T06:07:35Z</time></trkpt><trkpt lat="45.120293696314114" lon="9.989910406734651"><ele>36.85714285714286</ele><time>2026-03-29T06:07:36Z</time></trkpt><trkpt lat="45.1202320174148" lon="9.989947218456127"><ele>37.28571428571429</ele><time>2026-03-29T06:07:37Z</time></trkpt><trkpt lat="45.12017136695154" lon="9.989983351445273"><ele>37.714285714285715</ele><time>2026-03-29T06:07:38Z</time></trkpt><trkpt lat="45.12010982433897" lon="9.990018444448017"><ele>38.14285714285714</ele><time>2026-03-29T06:07:39Z</time></trkpt><trkpt lat="45.1200495626584" lon="9.99005208858842"><ele>38.57142857142858</ele><time>2026-03-29T06:07:40Z</time></trkpt><trkpt lat="45.119988954394316" lon="9.990089079874712"><ele>39.0</ele><time>2026-03-29T06:07:41Z</time></trkpt><trkpt lat="45.11992747669883" lon="9.990127517131288"><ele>38.57142857142858</ele><time>2026-03-29T06:07:42Z</time></trkpt><trkpt lat="45.119865196949554" lon="9.990168318299963"><ele>38.14285714285714</ele><time>2026-03-29T06:07:43Z</time></trkpt><trkpt lat="45.11980015676009" lon="9.990206026326668"><ele>37.714285714285715</ele><time>2026-03-29T06:07:44Z</time></trkpt><trkpt lat="45.119736193140206" lon="9.990243084752892"><ele>37.28571428571429</ele><time>2026-03-29T06:07:45Z</time></trkpt><trkpt lat="45.11967163685528" lon="9.990279123954517"><ele>36.85714285714286</ele><time>2026-03-29T06:07:46Z</time></trkpt><trkpt lat="45.11960570183848" lon="9.990316782156661"><ele>36.42857142857143</ele><time>2026-03-29T06:07:47Z</time></trkpt><trkpt lat="45.11954277007517" lon="9.990356183402023"><ele>36.0</ele><time>2026-03-29T06:07:48Z</time></trkpt><trkpt lat="45.119479298026185" lon="9.990394708717957"><ele>36.00000000000001</ele><time>2026-03-29T06:07:49Z</time></trkpt><trkpt lat="45.11941511706445" lon="9.990432575802606"><ele>36.0</ele><time>2026-03-29T06:07:50Z</time></trkpt><trkpt lat="45.11935304707691" lon="9.990469192276576"><ele>36.0</ele><time>2026-03-29T06:07:51Z</time></trkpt><trkpt lat="45.11929046855514" lon="9.990505904838127"><ele>36.0</ele><time>2026-03-29T06:07:52Z</time></trkpt><trkpt lat="45.11922809804904" lon="9.990543633252218"><ele>36.0</ele><time>2026-03-29T06:07:53Z</time></trkpt><trkpt lat="45.11916530237569" lon="9.990581502254006"><ele>36.00000000000001</ele><time>2026-03-29T06:07:54Z</time></trkpt><trkpt lat="45.11910260589903" lon="9.990617928642912"><ele>36.0</ele><time>2026-03-29T06:07:55Z</time></trkpt><trkpt lat="45.119041172352276" lon="9.990656236049478"><ele>36.00000000000001</ele><time>2026-03-29T06:07:56Z</time></trkpt><trkpt lat="45.11897872034874" lon="9.9906932818222"><ele>36.0</ele><time>2026-03-29T06:07:57Z</time></trkpt><trkpt lat="45.118918077649646" lon="9.990728557710943"><ele>36.0</ele><time>2026-03-29T06:07:58Z</time></trkpt><trkpt lat="45.11885694816156" lon="9.990764303653918"><ele>36.0</ele><time>2026-03-29T06:07:58.999Z</time></trkpt><trkpt lat="45.11879778626961" lon="9.99080057394667"><ele>36.0</ele><time>2026-03-29T06:07:59.999Z</time></trkpt><trkpt lat="45.11873743097232" lon="9.99083689146067"><ele>36.00000000000001</ele><time>2026-03-29T06:08:00.999Z</time></trkpt><trkpt lat="45.11867582485438" lon="9.990872222315897"><ele>36.0</ele><time>2026-03-29T06:08:01.999Z</time></trkpt><trkpt lat="45.11861434142757" lon="9.990909482063223"><ele>35.714285714285715</ele><time>2026-03-29T06:08:02.999Z</time></trkpt><trkpt lat="45.11855285052" lon="9.990947673017763"><ele>35.42857142857143</ele><time>2026-03-29T06:08:03.999Z</time></trkpt><trkpt lat="45.11849347938271" lon="9.990984621213082"><ele>35.14285714285714</ele><time>2026-03-29T06:08:04.999Z</time></trkpt><trkpt lat="45.11843114103576" lon="9.991022625556246"><ele>34.85714285714286</ele><time>2026-03-29T06:08:05.999Z</time></trkpt><trkpt lat="45.11837021194044" lon="9.991059636921374"><ele>34.57142857142857</ele><time>2026-03-29T06:08:06.999Z</time></trkpt><trkpt lat="45.11830966667132" lon="9.991094778452657"><ele>34.285714285714285</ele><time>2026-03-29T06:08:07.999Z</time></trkpt><trkpt lat="45.11824872353968" lon="9.991130897469857"><ele>34.0</ele><time>2026-03-29T06:08:08.999Z</time></trkpt><trkpt lat="45.1181877518353" lon="9.99116713005476"><ele>34.71428571428571</ele><time>2026-03-29T06:08:09.999Z</time></trkpt><trkpt lat="45.11812719664001" lon="9.99120450372625"><ele>35.42857142857143</ele><time>2026-03-29T06:08:10.999Z</time></trkpt><trkpt lat="45.118066026646886" lon="9.991242188052338"><ele>36.14285714285714</ele><time>2026-03-29T06:08:11.999Z</time></trkpt><trkpt lat="45.11800556746598" lon="9.991278901109219"><ele>36.857142857142854</ele><time>2026-03-29T06:08:12.999Z</time></trkpt><trkpt lat="45.1179448562946" lon="9.991316967950747"><ele>37.57142857142857</ele><time>2026-03-29T06:08:13.999Z</time></trkpt><trkpt lat="45.11788459714744" lon="9.991352188137322"><ele>38.285714285714285</ele><time>2026-03-29T06:08:14.999Z</time></trkpt><trkpt lat="45.117826257395755" lon="9.991388003811062"><ele>39.0</ele><time>2026-03-29T06:08:15.999Z</time></trkpt><trkpt lat="45.11771150438544" lon="9.991457609555757"><ele>39.0</ele><time>2026-03-29T06:08:17.999Z</time></trkpt><trkpt lat="45.117652538172514" lon="9.991491500517707"><ele>39.0</ele><time>2026-03-29T06:08:18.999Z</time></trkpt><trkpt lat="45.11759239681989" lon="9.991526504628403"><ele>39.0</ele><time>2026-03-29T06:08:19.999Z</time></trkpt><trkpt lat="45.117531127656584" lon="9.991564938682895"><ele>39.0</ele><time>2026-03-29T06:08:20.999Z</time></trkpt><trkpt lat="45.117469980837264" lon="9.991604275737815"><ele>39.0</ele><time>2026-03-29T06:08:21.999Z</time></trkpt><trkpt lat="45.11740951665841" lon="9.991640938692248"><ele>39.0</ele><time>2026-03-29T06:08:22.999Z</time></trkpt><trkpt lat="45.11734650606103" lon="9.991677301613784"><ele>39.0</ele><time>2026-03-29T06:08:23.999Z</time></trkpt><trkpt lat="45.1172855070917" lon="9.991713564925481"><ele>39.0</ele><time>2026-03-29T06:08:24.999Z</time></trkpt><trkpt lat="45.11722338840426" lon="9.991749549748237"><ele>39.0</ele><time>2026-03-29T06:08:25.999Z</time></trkpt><trkpt lat="45.11716228868401" lon="9.991788393477337"><ele>39.0</ele><time>2026-03-29T06:08:26.999Z</time></trkpt><trkpt lat="45.1171005876078" lon="9.991826873183976"><ele>39.0</ele><time>2026-03-29T06:08:27.999Z</time></trkpt><trkpt lat="45.11703823987415" lon="9.991864631708506"><ele>39.0</ele><time>2026-03-29T06:08:28.999Z</time></trkpt><trkpt lat="45.11697676047458" lon="9.99190136386916"><ele>39.0</ele><time>2026-03-29T06:08:29.999Z</time></trkpt><trkpt lat="45.11691553489626" lon="9.991940307514433"><ele>39.0</ele><time>2026-03-29T06:08:30.999Z</time></trkpt><trkpt lat="45.116854000423146" lon="9.991978269416563"><ele>39.0</ele><time>2026-03-29T06:08:31.999Z</time></trkpt><trkpt lat="45.11679059860452" lon="9.992014635831971"><ele>39.0</ele><time>2026-03-29T06:08:32.999Z</time></trkpt><trkpt lat="45.11673060884256" lon="9.992052656327749"><ele>39.0</ele><time>2026-03-29T06:08:33.999Z</time></trkpt><trkpt lat="45.11666876646249" lon="9.992089619354285"><ele>39.0</ele><time>2026-03-29T06:08:34.999Z</time></trkpt><trkpt lat="45.116606524643416" lon="9.992127482609938"><ele>39.0</ele><time>2026-03-29T06:08:35.999Z</time></trkpt><trkpt lat="45.11654394868618" lon="9.992165513525109"><ele>39.0</ele><time>2026-03-29T06:08:36.999Z</time></trkpt><trkpt lat="45.116479656028396" lon="9.99220301401797"><ele>39.0</ele><time>2026-03-29T06:08:37.999Z</time></trkpt><trkpt lat="45.11641661264792" lon="9.992241900012639"><ele>39.0</ele><time>2026-03-29T06:08:38.999Z</time></trkpt><trkpt lat="45.11635080006949" lon="9.99228045321358"><ele>39.0</ele><time>2026-03-29T06:08:39.999Z</time></trkpt><trkpt lat="45.11628683209432" lon="9.992319963346143"><ele>39.0</ele><time>2026-03-29T06:08:40.999Z</time></trkpt><trkpt lat="45.11622255557319" lon="9.992357614360444"><ele>39.0</ele><time>2026-03-29T06:08:41.999Z</time></trkpt><trkpt lat="45.11616041264388" lon="9.992397400002671"><ele>39.0</ele><time>2026-03-29T06:08:42.999Z</time></trkpt><trkpt lat="45.116096803229375" lon="9.992433718454636"><ele>39.0</ele><time>2026-03-29T06:08:43.999Z</time></trkpt><trkpt lat="45.116033305155035" lon="9.992470945468314"><ele>39.0</ele><time>2026-03-29T06:08:44.999Z</time></trkpt><trkpt lat="45.11597018897269" lon="9.99250890776393"><ele>39.0</ele><time>2026-03-29T06:08:45.999Z</time></trkpt><trkpt lat="45.115905664586364" lon="9.992548045443092"><ele>39.0</ele><time>2026-03-29T06:08:46.999Z</time></trkpt><trkpt lat="45.11584188533385" lon="9.99258483734785"><ele>39.0</ele><time>2026-03-29T06:08:47.999Z</time></trkpt><trkpt lat="45.11577614652092" lon="9.99262410794606"><ele>39.0</ele><time>2026-03-29T06:08:48.999Z</time></trkpt><trkpt lat="45.11571063558631" lon="9.99266117495973"><ele>39.0</ele><time>2026-03-29T06:08:49.999Z</time></trkpt><trkpt lat="45.11564505739949" lon="9.992698914589178"><ele>39.0</ele><time>2026-03-29T06:08:50.999Z</time></trkpt><trkpt lat="45.115578624032814" lon="9.992737412209193"><ele>39.0</ele><time>2026-03-29T06:08:51.999Z</time></trkpt><trkpt lat="45.11551215078927" lon="9.992775401269265"><ele>39.142857142857146</ele><time>2026-03-29T06:08:52.998Z</time></trkpt><trkpt lat="45.11544705887116" lon="9.99281400484162"><ele>39.285714285714285</ele><time>2026-03-29T06:08:53.998Z</time></trkpt><trkpt lat="45.115379646001806" lon="9.992852538104156"><ele>39.42857142857143</ele><time>2026-03-29T06:08:54.998Z</time></trkpt><trkpt lat="45.11531470328151" lon="9.992893174003243"><ele>39.57142857142857</ele><time>2026-03-29T06:08:55.998Z</time></trkpt><trkpt lat="45.115249008927464" lon="9.992931604398121"><ele>39.714285714285715</ele><time>2026-03-29T06:08:56.998Z</time></trkpt><trkpt lat="45.115183162024664" lon="9.99296965566517"><ele>39.857142857142854</ele><time>2026-03-29T06:08:57.998Z</time></trkpt><trkpt lat="45.11511711461697" lon="9.993006838048657"><ele>40.0</ele><time>2026-03-29T06:08:58.998Z</time></trkpt><trkpt lat="45.11505297842507" lon="9.993043206322126"><ele>40.0</ele><time>2026-03-29T06:08:59.998Z</time></trkpt><trkpt lat="45.114989208900454" lon="9.993083977348963"><ele>40.0</ele><time>2026-03-29T06:09:00.998Z</time></trkpt><trkpt lat="45.11492459748695" lon="9.99312404798348"><ele>40.0</ele><time>2026-03-29T06:09:01.998Z</time></trkpt><trkpt lat="45.114859637843665" lon="9.993163650014319"><ele>40.0</ele><time>2026-03-29T06:09:02.998Z</time></trkpt><trkpt lat="45.114794615157265" lon="9.993203318294835"><ele>40.0</ele><time>2026-03-29T06:09:03.998Z</time></trkpt><trkpt lat="45.11472916878754" lon="9.993242155080972"><ele>40.0</ele><time>2026-03-29T06:09:04.998Z</time></trkpt><trkpt lat="45.11466363787856" lon="9.993281255988462"><ele>40.0</ele><time>2026-03-29T06:09:05.998Z</time></trkpt><trkpt lat="45.11459925315472" lon="9.993321209301111"><ele>39.857142857142854</ele><time>2026-03-29T06:09:06.998Z</time></trkpt><trkpt lat="45.1145364736148" lon="9.993360088543023"><ele>39.714285714285715</ele><time>2026-03-29T06:09:07.998Z</time></trkpt><trkpt lat="45.11447129431697" lon="9.993398740916897"><ele>39.57142857142857</ele><time>2026-03-29T06:09:08.998Z</time></trkpt><trkpt lat="45.11440600103953" lon="9.993437878875481"><ele>39.42857142857143</ele><time>2026-03-29T06:09:09.998Z</time></trkpt><trkpt lat="45.114343530489705" lon="9.993476854336409"><ele>39.285714285714285</ele><time>2026-03-29T06:09:10.998Z</time></trkpt><trkpt lat="45.11428054671592" lon="9.993515292602606"><ele>39.142857142857146</ele><time>2026-03-29T06:09:11.998Z</time></trkpt><trkpt lat="45.114217261242864" lon="9.993552588850331"><ele>39.0</ele><time>2026-03-29T06:09:12.998Z</time></trkpt><trkpt lat="45.114153979657445" lon="9.993590937033247"><ele>39.0</ele><time>2026-03-29T06:09:13.998Z</time></trkpt><trkpt lat="45.11409044083937" lon="9.99362699051554"><ele>39.0</ele><time>2026-03-29T06:09:14.998Z</time></trkpt><trkpt lat="45.11402205106102" lon="9.993665539605912"><ele>39.0</ele><time>2026-03-29T06:09:15.998Z</time></trkpt><trkpt lat="45.11395636475528" lon="9.993706811809155"><ele>39.0</ele><time>2026-03-29T06:09:16.998Z</time></trkpt><trkpt lat="45.11388824404115" lon="9.99374699870449"><ele>39.0</ele><time>2026-03-29T06:09:17.998Z</time></trkpt><trkpt lat="45.11382157436361" lon="9.993784460920788"><ele>39.0</ele><time>2026-03-29T06:09:18.998Z</time></trkpt><trkpt lat="45.11375792846704" lon="9.993824487718992"><ele>39.0</ele><time>2026-03-29T06:09:19.998Z</time></trkpt><trkpt lat="45.113693066511836" lon="9.993864253755353"><ele>39.0</ele><time>2026-03-29T06:09:21Z</time></trkpt><trkpt lat="45.11362634986067" lon="9.993901447516619"><ele>39.0</ele><time>2026-03-29T06:09:22Z</time></trkpt><trkpt lat="45.11355871044983" lon="9.993939332182851"><ele>39.0</ele><time>2026-03-29T06:09:23Z</time></trkpt><trkpt lat="45.11349236737735" lon="9.993976579554976"><ele>39.0</ele><time>2026-03-29T06:09:24Z</time></trkpt><trkpt lat="45.113426546629825" lon="9.994016254378296"><ele>39.0</ele><time>2026-03-29T06:09:25Z</time></trkpt><trkpt lat="45.11335959166283" lon="9.99405646841457"><ele>39.0</ele><time>2026-03-29T06:09:26Z</time></trkpt><trkpt lat="45.11329309620945" lon="9.994096138667803"><ele>39.0</ele><time>2026-03-29T06:09:27Z</time></trkpt><trkpt lat="45.113226959575044" lon="9.99413657971469"><ele>39.142857142857146</ele><time>2026-03-29T06:09:28Z</time></trkpt><trkpt lat="45.11315890077708" lon="9.99417590804074"><ele>39.285714285714285</ele><time>2026-03-29T06:09:29Z</time></trkpt><trkpt lat="45.11309584933142" lon="9.994216009641539"><ele>39.42857142857143</ele><time>2026-03-29T06:09:30Z</time></trkpt><trkpt lat="45.11303029428813" lon="9.994254336075713"><ele>39.57142857142857</ele><time>2026-03-29T06:09:31Z</time></trkpt><trkpt lat="45.11296525654406" lon="9.994291312077577"><ele>39.714285714285715</ele><time>2026-03-29T06:09:32Z</time></trkpt><trkpt lat="45.11290073676676" lon="9.994329528926707"><ele>39.857142857142854</ele><time>2026-03-29T06:09:33Z</time></trkpt><trkpt lat="45.11283467571664" lon="9.994367575228035"><ele>40.0</ele><time>2026-03-29T06:09:34Z</time></trkpt><trkpt lat="45.11277007179776" lon="9.994408801491094"><ele>40.0</ele><time>2026-03-29T06:09:35Z</time></trkpt><trkpt lat="45.11270404839711" lon="9.994447948045"><ele>40.0</ele><time>2026-03-29T06:09:36Z</time></trkpt><trkpt lat="45.112637478327876" lon="9.994488400569518"><ele>40.0</ele><time>2026-03-29T06:09:37Z</time></trkpt><trkpt lat="45.11257101805804" lon="9.994526780162857"><ele>40.0</ele><time>2026-03-29T06:09:38Z</time></trkpt><trkpt lat="45.11250331676796" lon="9.99455778081416"><ele>40.0</ele><time>2026-03-29T06:09:39Z</time></trkpt><trkpt lat="45.112434094324875" lon="9.994578051808062"><ele>40.0</ele><time>2026-03-29T06:09:40Z</time></trkpt><trkpt lat="45.112362951258575" lon="9.994587195369844"><ele>40.0</ele><time>2026-03-29T06:09:41Z</time></trkpt><trkpt lat="45.11229226947418" lon="9.99458805175917"><ele>39.857142857142854</ele><time>2026-03-29T06:09:42Z</time></trkpt><trkpt lat="45.11222046597158" lon="9.994581251469276"><ele>39.714285714285715</ele><time>2026-03-29T06:09:43Z</time></trkpt><trkpt lat="45.112148344695036" lon="9.99456336986711"><ele>39.57142857142857</ele><time>2026-03-29T06:09:44Z</time></trkpt><trkpt lat="45.11207893078559" lon="9.994532236033185"><ele>39.42857142857143</ele><time>2026-03-29T06:09:45Z</time></trkpt><trkpt lat="45.11201204855823" lon="9.994489976002225"><ele>39.285714285714285</ele><time>2026-03-29T06:09:46Z</time></trkpt><trkpt lat="45.1119496294487" lon="9.994443813836488"><ele>39.142857142857146</ele><time>2026-03-29T06:09:47Z</time></trkpt><trkpt lat="45.111888880570085" lon="9.994389492004142"><ele>39.0</ele><time>2026-03-29T06:09:48Z</time></trkpt><trkpt lat="45.111830394372724" lon="9.99433097368704"><ele>39.0</ele><time>2026-03-29T06:09:49Z</time></trkpt><trkpt lat="45.11177422272449" lon="9.994270597123073"><ele>39.0</ele><time>2026-03-29T06:09:50Z</time></trkpt><trkpt lat="45.11171661508407" lon="9.994210983777519"><ele>39.0</ele><time>2026-03-29T06:09:51Z</time></trkpt><trkpt lat="45.11165996359704" lon="9.994152756824828"><ele>39.0</ele><time>2026-03-29T06:09:52Z</time></trkpt><trkpt lat="45.11160382907958" lon="9.994093094564823"><ele>39.0</ele><time>2026-03-29T06:09:53Z</time></trkpt><trkpt lat="45.111548647445666" lon="9.99403344885372"><ele>39.0</ele><time>2026-03-29T06:09:54Z</time></trkpt><trkpt lat="45.111491995876165" lon="9.993973229018868"><ele>39.0</ele><time>2026-03-29T06:09:55Z</time></trkpt><trkpt lat="45.11143557157454" lon="9.993911121734373"><ele>38.714285714285715</ele><time>2026-03-29T06:09:56Z</time></trkpt><trkpt lat="45.111379311453405" lon="9.99384717604613"><ele>38.42857142857142</ele><time>2026-03-29T06:09:57Z</time></trkpt><trkpt lat="45.11132245539648" lon="9.99378464539753"><ele>38.14285714285714</ele><time>2026-03-29T06:09:58Z</time></trkpt><trkpt lat="45.111264935642325" lon="9.993723360420017"><ele>37.85714285714286</ele><time>2026-03-29T06:09:59Z</time></trkpt><trkpt lat="45.11120806471774" lon="9.993660925558308"><ele>37.57142857142857</ele><time>2026-03-29T06:10:00Z</time></trkpt><trkpt lat="45.1111504236853" lon="9.993598450356833"><ele>37.285714285714285</ele><time>2026-03-29T06:10:01Z</time></trkpt><trkpt lat="45.111093526859996" lon="9.993536160455845"><ele>37.0</ele><time>2026-03-29T06:10:02Z</time></trkpt><trkpt lat="45.1110365806011" lon="9.99347573399198"><ele>37.0</ele><time>2026-03-29T06:10:02.999Z</time></trkpt><trkpt lat="45.110980323181494" lon="9.993413550730448"><ele>37.0</ele><time>2026-03-29T06:10:03.999Z</time></trkpt><trkpt lat="45.110923169284995" lon="9.993350426393999"><ele>37.0</ele><time>2026-03-29T06:10:04.999Z</time></trkpt><trkpt lat="45.11086598186138" lon="9.99328544815552"><ele>37.0</ele><time>2026-03-29T06:10:05.999Z</time></trkpt><trkpt lat="45.11080911775023" lon="9.993220931524922"><ele>37.0</ele><time>2026-03-29T06:10:06.999Z</time></trkpt><trkpt lat="45.110750905207" lon="9.99315784245725"><ele>37.0</ele><time>2026-03-29T06:10:07.999Z</time></trkpt><trkpt lat="45.11069327385639" lon="9.993092846674339"><ele>37.0</ele><time>2026-03-29T06:10:08.999Z</time></trkpt><trkpt lat="45.11063595409368" lon="9.993029409744397"><ele>37.0</ele><time>2026-03-29T06:10:09.999Z</time></trkpt><trkpt lat="45.11057698748184" lon="9.99296748966354"><ele>37.0</ele><time>2026-03-29T06:10:10.999Z</time></trkpt><trkpt lat="45.110519384761275" lon="9.992902662877757"><ele>37.0</ele><time>2026-03-29T06:10:11.999Z</time></trkpt><trkpt lat="45.1104616632171" lon="9.992839503918228"><ele>37.0</ele><time>2026-03-29T06:10:12.999Z</time></trkpt><trkpt lat="45.1104045240103" lon="9.99277661044747"><ele>37.0</ele><time>2026-03-29T06:10:13.999Z</time></trkpt><trkpt lat="45.110347171489664" lon="9.99271309728397"><ele>37.0</ele><time>2026-03-29T06:10:14.999Z</time></trkpt><trkpt lat="45.11029040961742" lon="9.99265081938828"><ele>37.0</ele><time>2026-03-29T06:10:15.999Z</time></trkpt><trkpt lat="45.110234980862465" lon="9.992587048958214"><ele>37.0</ele><time>2026-03-29T06:10:16.999Z</time></trkpt><trkpt lat="45.11017958526358" lon="9.99252507655631"><ele>37.0</ele><time>2026-03-29T06:10:17.999Z</time></trkpt><trkpt lat="45.11012306742649" lon="9.992463106157626"><ele>37.0</ele><time>2026-03-29T06:10:18.999Z</time></trkpt><trkpt lat="45.110067991161195" lon="9.992401931357461"><ele>37.0</ele><time>2026-03-29T06:10:19.999Z</time></trkpt><trkpt lat="45.11001316260394" lon="9.992342209111206"><ele>37.0</ele><time>2026-03-29T06:10:20.999Z</time></trkpt><trkpt lat="45.10995929552273" lon="9.992279571343078"><ele>37.0</ele><time>2026-03-29T06:10:21.999Z</time></trkpt><trkpt lat="45.10990663436298" lon="9.992219834680322"><ele>37.0</ele><time>2026-03-29T06:10:22.999Z</time></trkpt><trkpt lat="45.10985300366657" lon="9.992159319603337"><ele>36.85714285714286</ele><time>2026-03-29T06:10:23.999Z</time></trkpt><trkpt lat="45.10979908827339" lon="9.992100931217555"><ele>36.714285714285715</ele><time>2026-03-29T06:10:24.999Z</time></trkpt><trkpt lat="45.10974631834734" lon="9.992040440322851"><ele>36.57142857142857</ele><time>2026-03-29T06:10:25.999Z</time></trkpt><trkpt lat="45.109692361344074" lon="9.991981512917329"><ele>36.42857142857143</ele><time>2026-03-29T06:10:26.999Z</time></trkpt><trkpt lat="45.109638193522365" lon="9.991923052386545"><ele>36.285714285714285</ele><time>2026-03-29T06:10:27.999Z</time></trkpt><trkpt lat="45.109583964740835" lon="9.99186517756918"><ele>36.142857142857146</ele><time>2026-03-29T06:10:28.999Z</time></trkpt><trkpt lat="45.1095289693994" lon="9.991802514654"><ele>36.0</ele><time>2026-03-29T06:10:29.999Z</time></trkpt><trkpt lat="45.109474118955966" lon="9.991739747696055"><ele>36.00000000000001</ele><time>2026-03-29T06:10:30.999Z</time></trkpt><trkpt lat="45.10941928368245" lon="9.991676248029776"><ele>36.0</ele><time>2026-03-29T06:10:31.999Z</time></trkpt><trkpt lat="45.109362375183736" lon="9.991613156884245"><ele>36.0</ele><time>2026-03-29T06:10:32.999Z</time></trkpt><trkpt lat="45.10930371241102" lon="9.991547343994574"><ele>36.0</ele><time>2026-03-29T06:10:33.999Z</time></trkpt><trkpt lat="45.10924428156667" lon="9.991480843403028"><ele>36.0</ele><time>2026-03-29T06:10:34.999Z</time></trkpt><trkpt lat="45.10918468042964" lon="9.991411286434058"><ele>36.00000000000001</ele><time>2026-03-29T06:10:35.999Z</time></trkpt><trkpt lat="45.10912510889792" lon="9.991342951873586"><ele>36.0</ele><time>2026-03-29T06:10:36.999Z</time></trkpt><trkpt lat="45.10906367242966" lon="9.991270996806774"><ele>36.5</ele><time>2026-03-29T06:10:37.999Z</time></trkpt><trkpt lat="45.10900080262589" lon="9.99119559389277"><ele>37.0</ele><time>2026-03-29T06:10:38.999Z</time></trkpt><trkpt lat="45.10893810281279" lon="9.991125833058295"><ele>37.5</ele><time>2026-03-29T06:10:39.999Z</time></trkpt><trkpt lat="45.108875652308576" lon="9.99105150998512"><ele>38.0</ele><time>2026-03-29T06:10:40.999Z</time></trkpt><trkpt lat="45.10881380464429" lon="9.990980433204808"><ele>38.5</ele><time>2026-03-29T06:10:41.999Z</time></trkpt><trkpt lat="45.108751899413505" lon="9.99090923914613"><ele>39.0</ele><time>2026-03-29T06:10:42.999Z</time></trkpt><trkpt lat="45.10868909903656" lon="9.990837984607428"><ele>39.166666666666664</ele><time>2026-03-29T06:10:43.999Z</time></trkpt><trkpt lat="45.10862812373887" lon="9.990767878969171"><ele>39.333333333333336</ele><time>2026-03-29T06:10:44.999Z</time></trkpt><trkpt lat="45.10856797767802" lon="9.990698634917244"><ele>39.5</ele><time>2026-03-29T06:10:45.999Z</time></trkpt><trkpt lat="45.10850945001587" lon="9.990629582550415"><ele>39.66666666666667</ele><time>2026-03-29T06:10:46.999Z</time></trkpt><trkpt lat="45.108447467306824" lon="9.99055949301826"><ele>39.833333333333336</ele><time>2026-03-29T06:10:47.999Z</time></trkpt><trkpt lat="45.1083870444511" lon="9.990492364929583"><ele>40.0</ele><time>2026-03-29T06:10:48.999Z</time></trkpt><trkpt lat="45.10832662480772" lon="9.990422848433921"><ele>40.0</ele><time>2026-03-29T06:10:49.999Z</time></trkpt><trkpt lat="45.10826709263579" lon="9.990352337275052"><ele>40.0</ele><time>2026-03-29T06:10:50.999Z</time></trkpt><trkpt lat="45.108205999226676" lon="9.99028535046477"><ele>40.0</ele><time>2026-03-29T06:10:51.999Z</time></trkpt><trkpt lat="45.10814681004367" lon="9.990215453827092"><ele>40.0</ele><time>2026-03-29T06:10:52.999Z</time></trkpt><trkpt lat="45.108087937364175" lon="9.990146134008514"><ele>40.0</ele><time>2026-03-29T06:10:53.999Z</time></trkpt><trkpt lat="45.10802881741122" lon="9.990079006273156"><ele>40.0</ele><time>2026-03-29T06:10:54.999Z</time></trkpt><trkpt lat="45.10796974728058" lon="9.990011922950535"><ele>39.66666666666667</ele><time>2026-03-29T06:10:55.999Z</time></trkpt><trkpt lat="45.107909622424664" lon="9.989944381366355"><ele>39.333333333333336</ele><time>2026-03-29T06:10:56.998Z</time></trkpt><trkpt lat="45.10785118351631" lon="9.98987666154582"><ele>39.0</ele><time>2026-03-29T06:10:57.998Z</time></trkpt><trkpt lat="45.10779266510959" lon="9.989808238932516"><ele>38.666666666666664</ele><time>2026-03-29T06:10:58.998Z</time></trkpt><trkpt lat="45.107734733440495" lon="9.989740334628358"><ele>38.33333333333333</ele><time>2026-03-29T06:10:59.998Z</time></trkpt><trkpt lat="45.10767467472244" lon="9.989672329200086"><ele>38.0</ele><time>2026-03-29T06:11:00.998Z</time></trkpt><trkpt lat="45.10761631338581" lon="9.989606460200722"><ele>38.0</ele><time>2026-03-29T06:11:01.998Z</time></trkpt><trkpt lat="45.10755728351978" lon="9.989540818155442"><ele>38.0</ele><time>2026-03-29T06:11:02.998Z</time></trkpt><trkpt lat="45.107499655749685" lon="9.989475581492142"><ele>38.0</ele><time>2026-03-29T06:11:03.998Z</time></trkpt><trkpt lat="45.10743996276062" lon="9.989409973928955"><ele>38.0</ele><time>2026-03-29T06:11:04.998Z</time></trkpt><trkpt lat="45.10738221390444" lon="9.989344951680517"><ele>38.0</ele><time>2026-03-29T06:11:05.998Z</time></trkpt><trkpt lat="45.10732373398465" lon="9.989279532361824"><ele>38.0</ele><time>2026-03-29T06:11:06.998Z</time></trkpt><trkpt lat="45.10726697193064" lon="9.989217852391926"><ele>38.0</ele><time>2026-03-29T06:11:07.998Z</time></trkpt><trkpt lat="45.10721068579216" lon="9.98915462371894"><ele>38.42857142857142</ele><time>2026-03-29T06:11:08.998Z</time></trkpt><trkpt lat="45.10715353268709" lon="9.989088045893757"><ele>38.85714285714286</ele><time>2026-03-29T06:11:09.998Z</time></trkpt><trkpt lat="45.10709458161237" lon="9.989022111510765"><ele>39.285714285714285</ele><time>2026-03-29T06:11:10.998Z</time></trkpt><trkpt lat="45.10703528753023" lon="9.988959014324491"><ele>39.71428571428571</ele><time>2026-03-29T06:11:11.998Z</time></trkpt><trkpt lat="45.10697717019674" lon="9.988893040353927"><ele>40.14285714285714</ele><time>2026-03-29T06:11:12.998Z</time></trkpt><trkpt lat="45.10692060015504" lon="9.988829233929227"><ele>40.57142857142857</ele><time>2026-03-29T06:11:13.998Z</time></trkpt><trkpt lat="45.106861880554064" lon="9.988763451896334"><ele>41.0</ele><time>2026-03-29T06:11:14.998Z</time></trkpt><trkpt lat="45.10680422860705" lon="9.98869840441525"><ele>41.0</ele><time>2026-03-29T06:11:15.998Z</time></trkpt><trkpt lat="45.10674593093213" lon="9.988632592082732"><ele>41.0</ele><time>2026-03-29T06:11:16.998Z</time></trkpt><trkpt lat="45.106683961615744" lon="9.98856693543619"><ele>41.0</ele><time>2026-03-29T06:11:17.998Z</time></trkpt><trkpt lat="45.1066240535045" lon="9.988500216583278"><ele>41.0</ele><time>2026-03-29T06:11:18.998Z</time></trkpt><trkpt lat="45.10656588628347" lon="9.988433210023045"><ele>41.0</ele><time>2026-03-29T06:11:19.998Z</time></trkpt><trkpt lat="45.106507064163765" lon="9.988366941249083"><ele>41.0</ele><time>2026-03-29T06:11:20.998Z</time></trkpt><trkpt lat="45.10644816760893" lon="9.988301516833756"><ele>40.71428571428571</ele><time>2026-03-29T06:11:21.998Z</time></trkpt><trkpt lat="45.106390422098606" lon="9.988237043163835"><ele>40.42857142857143</ele><time>2026-03-29T06:11:22.998Z</time></trkpt><trkpt lat="45.1063307426882" lon="9.988167360790662"><ele>40.14285714285714</ele><time>2026-03-29T06:11:23.998Z</time></trkpt><trkpt lat="45.10627247225873" lon="9.98810413680449"><ele>39.857142857142854</ele><time>2026-03-29T06:11:24.998Z</time></trkpt><trkpt lat="45.10621189339978" lon="9.988038971655484"><ele>39.57142857142857</ele><time>2026-03-29T06:11:25.998Z</time></trkpt><trkpt lat="45.10615402372117" lon="9.987976652619295"><ele>39.285714285714285</ele><time>2026-03-29T06:11:27Z</time></trkpt><trkpt lat="45.106096242595946" lon="9.98791235097272"><ele>39.0</ele><time>2026-03-29T06:11:28Z</time></trkpt><trkpt lat="45.10603751812291" lon="9.987847969268525"><ele>39.0</ele><time>2026-03-29T06:11:29Z</time></trkpt><trkpt lat="45.10598040776454" lon="9.987782096209763"><ele>39.0</ele><time>2026-03-29T06:11:30Z</time></trkpt><trkpt lat="45.10592084832282" lon="9.9877160868414"><ele>39.0</ele><time>2026-03-29T06:11:31Z</time></trkpt><trkpt lat="45.10586317683995" lon="9.987651919709831"><ele>39.0</ele><time>2026-03-29T06:11:32Z</time></trkpt><trkpt lat="45.105805133492225" lon="9.987586101482108"><ele>39.0</ele><time>2026-03-29T06:11:33Z</time></trkpt><trkpt lat="45.10574464128869" lon="9.98752106822364"><ele>39.0</ele><time>2026-03-29T06:11:34Z</time></trkpt><trkpt lat="45.10568777121191" lon="9.987455503719755"><ele>39.0</ele><time>2026-03-29T06:11:35Z</time></trkpt><trkpt lat="45.105630507324534" lon="9.987389944557371"><ele>38.833333333333336</ele><time>2026-03-29T06:11:36Z</time></trkpt><trkpt lat="45.105573420307486" lon="9.98732626438948"><ele>38.666666666666664</ele><time>2026-03-29T06:11:37Z</time></trkpt><trkpt lat="45.10551451021857" lon="9.987261318139357"><ele>38.5</ele><time>2026-03-29T06:11:38Z</time></trkpt><trkpt lat="45.10545469632712" lon="9.987194260410131"><ele>38.33333333333333</ele><time>2026-03-29T06:11:39Z</time></trkpt><trkpt lat="45.10539505238448" lon="9.98712310457689"><ele>38.166666666666664</ele><time>2026-03-29T06:11:40Z</time></trkpt><trkpt lat="45.105336741664544" lon="9.987044478190448"><ele>38.0</ele><time>2026-03-29T06:11:41Z</time></trkpt><trkpt lat="45.105278231847784" lon="9.986967561969086"><ele>38.0</ele><time>2026-03-29T06:11:42Z</time></trkpt><trkpt lat="45.105221828058625" lon="9.986888942628465"><ele>38.0</ele><time>2026-03-29T06:11:43Z</time></trkpt><trkpt lat="45.10516693884196" lon="9.986808554170128"><ele>38.0</ele><time>2026-03-29T06:11:44Z</time></trkpt><trkpt lat="45.10511620049231" lon="9.986725774438293"><ele>38.0</ele><time>2026-03-29T06:11:45Z</time></trkpt><trkpt lat="45.10507090403534" lon="9.986635812155498"><ele>38.0</ele><time>2026-03-29T06:11:46Z</time></trkpt><trkpt lat="45.105030915114575" lon="9.986543696260368"><ele>38.0</ele><time>2026-03-29T06:11:47Z</time></trkpt><trkpt lat="45.10499101216092" lon="9.986452305579265"><ele>38.0</ele><time>2026-03-29T06:11:48Z</time></trkpt><trkpt lat="45.104948761432226" lon="9.986361124691497"><ele>38.0</ele><time>2026-03-29T06:11:49Z</time></trkpt><trkpt lat="45.104908039492656" lon="9.98626813464654"><ele>38.0</ele><time>2026-03-29T06:11:50Z</time></trkpt><trkpt lat="45.104869771304095" lon="9.986171470872655"><ele>38.0</ele><time>2026-03-29T06:11:51Z</time></trkpt><trkpt lat="45.10483299521883" lon="9.9860754826342"><ele>38.0</ele><time>2026-03-29T06:11:52Z</time></trkpt><trkpt lat="45.10479661998747" lon="9.985983202173431"><ele>38.0</ele><time>2026-03-29T06:11:53Z</time></trkpt><trkpt lat="45.10476063317223" lon="9.985891642812751"><ele>37.857142857142854</ele><time>2026-03-29T06:11:54Z</time></trkpt><trkpt lat="45.10472144801435" lon="9.985800013498311"><ele>37.714285714285715</ele><time>2026-03-29T06:11:55Z</time></trkpt><trkpt lat="45.10468193888752" lon="9.98570938941193"><ele>37.57142857142857</ele><time>2026-03-29T06:11:56Z</time></trkpt><trkpt lat="45.10464164719252" lon="9.985620999567033"><ele>37.42857142857143</ele><time>2026-03-29T06:11:57Z</time></trkpt><trkpt lat="45.104604425912335" lon="9.98553060565738"><ele>37.285714285714285</ele><time>2026-03-29T06:11:58Z</time></trkpt><trkpt lat="45.104568853166306" lon="9.985437322084929"><ele>37.142857142857146</ele><time>2026-03-29T06:11:59Z</time></trkpt><trkpt lat="45.10453300537064" lon="9.985347327031084"><ele>37.0</ele><time>2026-03-29T06:12:00Z</time></trkpt><trkpt lat="45.10449526158954" lon="9.985258362825196"><ele>37.0</ele><time>2026-03-29T06:12:01Z</time></trkpt><trkpt lat="45.10445749282342" lon="9.985169243069624"><ele>37.0</ele><time>2026-03-29T06:12:02Z</time></trkpt><trkpt lat="45.10442252442524" lon="9.985081734326016"><ele>37.0</ele><time>2026-03-29T06:12:03Z</time></trkpt><trkpt lat="45.1043862464153" lon="9.984992896395381"><ele>37.0</ele><time>2026-03-29T06:12:04Z</time></trkpt><trkpt lat="45.10434955755261" lon="9.984905817756612"><ele>37.0</ele><time>2026-03-29T06:12:05Z</time></trkpt><trkpt lat="45.10431307142929" lon="9.98481841899408"><ele>37.0</ele><time>2026-03-29T06:12:05.999Z</time></trkpt><trkpt lat="45.10427857358195" lon="9.984729815034392"><ele>37.0</ele><time>2026-03-29T06:12:06.999Z</time></trkpt><trkpt lat="45.10424277904847" lon="9.984642524069065"><ele>37.0</ele><time>2026-03-29T06:12:07.999Z</time></trkpt><trkpt lat="45.10420645879623" lon="9.984557831296376"><ele>37.0</ele><time>2026-03-29T06:12:08.999Z</time></trkpt><trkpt lat="45.10416952293441" lon="9.98447155954379"><ele>37.0</ele><time>2026-03-29T06:12:09.999Z</time></trkpt><trkpt lat="45.10413348929402" lon="9.98438515283417"><ele>37.0</ele><time>2026-03-29T06:12:10.999Z</time></trkpt><trkpt lat="45.10409653917676" lon="9.984296202276036"><ele>37.0</ele><time>2026-03-29T06:12:11.999Z</time></trkpt><trkpt lat="45.10406025820953" lon="9.98420963154448"><ele>37.0</ele><time>2026-03-29T06:12:12.999Z</time></trkpt><trkpt lat="45.104024582815065" lon="9.98412134556981"><ele>37.0</ele><time>2026-03-29T06:12:13.999Z</time></trkpt><trkpt lat="45.10398818105921" lon="9.984031918276857"><ele>37.285714285714285</ele><time>2026-03-29T06:12:14.999Z</time></trkpt><trkpt lat="45.103952208094285" lon="9.983942750606682"><ele>37.57142857142857</ele><time>2026-03-29T06:12:15.999Z</time></trkpt><trkpt lat="45.10391456320199" lon="9.983854508637055"><ele>37.85714285714286</ele><time>2026-03-29T06:12:16.999Z</time></trkpt><trkpt lat="45.103877450444045" lon="9.983764814779562"><ele>38.14285714285714</ele><time>2026-03-29T06:12:17.999Z</time></trkpt><trkpt lat="45.10384196218324" lon="9.983674365563205"><ele>38.42857142857142</ele><time>2026-03-29T06:12:18.999Z</time></trkpt><trkpt lat="45.10380689253066" lon="9.983584979511743"><ele>38.714285714285715</ele><time>2026-03-29T06:12:19.999Z</time></trkpt><trkpt lat="45.10377014893454" lon="9.983493545830775"><ele>39.0</ele><time>2026-03-29T06:12:20.999Z</time></trkpt><trkpt lat="45.10373266143405" lon="9.983406708545333"><ele>38.714285714285715</ele><time>2026-03-29T06:12:21.999Z</time></trkpt><trkpt lat="45.10369486827315" lon="9.983319119080218"><ele>38.42857142857142</ele><time>2026-03-29T06:12:22.999Z</time></trkpt><trkpt lat="45.10365945261274" lon="9.983231443905401"><ele>38.14285714285714</ele><time>2026-03-29T06:12:23.999Z</time></trkpt><trkpt lat="45.1036223871129" lon="9.983142355421892"><ele>37.85714285714286</ele><time>2026-03-29T06:12:24.999Z</time></trkpt><trkpt lat="45.10358582065847" lon="9.983053655560004"><ele>37.57142857142857</ele><time>2026-03-29T06:12:25.999Z</time></trkpt><trkpt lat="45.10354950313372" lon="9.982963829846744"><ele>37.285714285714285</ele><time>2026-03-29T06:12:26.999Z</time></trkpt><trkpt lat="45.10351266303708" lon="9.982872582254037"><ele>37.0</ele><time>2026-03-29T06:12:27.999Z</time></trkpt><trkpt lat="45.10347456954297" lon="9.982779678500842"><ele>37.0</ele><time>2026-03-29T06:12:28.999Z</time></trkpt><trkpt lat="45.10343865144821" lon="9.98268915219587"><ele>37.0</ele><time>2026-03-29T06:12:29.999Z</time></trkpt><trkpt lat="45.10340301414737" lon="9.982599283758649"><ele>37.0</ele><time>2026-03-29T06:12:30.999Z</time></trkpt><trkpt lat="45.103363394957334" lon="9.982510797005084"><ele>37.0</ele><time>2026-03-29T06:12:31.999Z</time></trkpt><trkpt lat="45.103325627863654" lon="9.982418683614375"><ele>37.0</ele><time>2026-03-29T06:12:32.999Z</time></trkpt><trkpt lat="45.10328935858776" lon="9.982327717397041"><ele>37.0</ele><time>2026-03-29T06:12:33.999Z</time></trkpt><trkpt lat="45.10325333343065" lon="9.982238786950406"><ele>37.0</ele><time>2026-03-29T06:12:34.999Z</time></trkpt><trkpt lat="45.103215990542566" lon="9.982149115497231"><ele>37.333333333333336</ele><time>2026-03-29T06:12:35.999Z</time></trkpt><trkpt lat="45.103177190801276" lon="9.982059415058496"><ele>37.66666666666667</ele><time>2026-03-29T06:12:36.999Z</time></trkpt><trkpt lat="45.10313547389189" lon="9.981971582502993"><ele>38.0</ele><time>2026-03-29T06:12:37.999Z</time></trkpt><trkpt lat="45.10309222672004" lon="9.9818829358907"><ele>38.333333333333336</ele><time>2026-03-29T06:12:38.999Z</time></trkpt><trkpt lat="45.103051179629766" lon="9.98179513146952"><ele>38.666666666666664</ele><time>2026-03-29T06:12:39.999Z</time></trkpt><trkpt lat="45.10300713855141" lon="9.98170756445314"><ele>39.0</ele><time>2026-03-29T06:12:40.999Z</time></trkpt><trkpt lat="45.10295618377208" lon="9.981620798269635"><ele>39.166666666666664</ele><time>2026-03-29T06:12:41.999Z</time></trkpt><trkpt lat="45.10290226518977" lon="9.981535077723345"><ele>39.333333333333336</ele><time>2026-03-29T06:12:42.999Z</time></trkpt><trkpt lat="45.10284738066321" lon="9.981451304235101"><ele>39.5</ele><time>2026-03-29T06:12:43.999Z</time></trkpt><trkpt lat="45.10278966337032" lon="9.981365085858585"><ele>39.66666666666667</ele><time>2026-03-29T06:12:44.999Z</time></trkpt><trkpt lat="45.10272964661312" lon="9.98128009909705"><ele>39.833333333333336</ele><time>2026-03-29T06:12:45.999Z</time></trkpt><trkpt lat="45.102667427315666" lon="9.981197568778306"><ele>40.0</ele><time>2026-03-29T06:12:46.999Z</time></trkpt><trkpt lat="45.102602893685145" lon="9.981119265862906"><ele>40.0</ele><time>2026-03-29T06:12:47.999Z</time></trkpt><trkpt lat="45.10253614575686" lon="9.981044271165375"><ele>40.0</ele><time>2026-03-29T06:12:48.999Z</time></trkpt><trkpt lat="45.10247034006187" lon="9.980968181352681"><ele>40.0</ele><time>2026-03-29T06:12:49.999Z</time></trkpt><trkpt lat="45.102402030640945" lon="9.980893265343054"><ele>40.0</ele><time>2026-03-29T06:12:50.999Z</time></trkpt><trkpt lat="45.102331846225226" lon="9.9808254733058"><ele>40.0</ele><time>2026-03-29T06:12:51.999Z</time></trkpt><trkpt lat="45.102259198996656" lon="9.98075950259488"><ele>40.0</ele><time>2026-03-29T06:12:52.999Z</time></trkpt><trkpt lat="45.10218524052065" lon="9.980703264319967"><ele>39.833333333333336</ele><time>2026-03-29T06:12:53.999Z</time></trkpt><trkpt lat="45.102109248169114" lon="9.980649041350341"><ele>39.66666666666667</ele><time>2026-03-29T06:12:54.999Z</time></trkpt><trkpt lat="45.102031024919434" lon="9.980593710428048"><ele>39.5</ele><time>2026-03-29T06:12:55.999Z</time></trkpt><trkpt lat="45.10195318281533" lon="9.980540636141125"><ele>39.333333333333336</ele><time>2026-03-29T06:12:56.999Z</time></trkpt><trkpt lat="45.10187237445651" lon="9.980495689052955"><ele>39.166666666666664</ele><time>2026-03-29T06:12:57.999Z</time></trkpt><trkpt lat="45.101789057513855" lon="9.980452560494372"><ele>39.0</ele><time>2026-03-29T06:12:58.999Z</time></trkpt><trkpt lat="45.10170511046306" lon="9.980410193927494"><ele>39.0</ele><time>2026-03-29T06:12:59.998Z</time></trkpt><trkpt lat="45.10162285254317" lon="9.980368475712744"><ele>39.0</ele><time>2026-03-29T06:13:00.998Z</time></trkpt><trkpt lat="45.101537637519165" lon="9.980325380759075"><ele>39.0</ele><time>2026-03-29T06:13:01.998Z</time></trkpt><trkpt lat="45.1014514260115" lon="9.980287105251165"><ele>39.0</ele><time>2026-03-29T06:13:02.998Z</time></trkpt><trkpt lat="45.10136552466857" lon="9.98024953304035"><ele>39.0</ele><time>2026-03-29T06:13:03.998Z</time></trkpt><trkpt lat="45.101278421499025" lon="9.980211199675344"><ele>39.0</ele><time>2026-03-29T06:13:04.998Z</time></trkpt><trkpt lat="45.101193553931765" lon="9.980172904902698"><ele>39.0</ele><time>2026-03-29T06:13:05.998Z</time></trkpt><trkpt lat="45.10110901863744" lon="9.980131547665819"><ele>39.0</ele><time>2026-03-29T06:13:06.998Z</time></trkpt><trkpt lat="45.10102574244517" lon="9.980092392838456"><ele>39.0</ele><time>2026-03-29T06:13:07.998Z</time></trkpt><trkpt lat="45.10094415006185" lon="9.980054901896237"><ele>39.0</ele><time>2026-03-29T06:13:08.998Z</time></trkpt><trkpt lat="45.10086260208239" lon="9.980020565611598"><ele>39.0</ele><time>2026-03-29T06:13:09.998Z</time></trkpt><trkpt lat="45.10078265572265" lon="9.97998823950784"><ele>39.0</ele><time>2026-03-29T06:13:10.998Z</time></trkpt><trkpt lat="45.10070309645186" lon="9.979952102586862"><ele>38.5</ele><time>2026-03-29T06:13:11.998Z</time></trkpt><trkpt lat="45.1006238542491" lon="9.979917829408574"><ele>38.0</ele><time>2026-03-29T06:13:12.998Z</time></trkpt><trkpt lat="45.100546333069644" lon="9.979884799463004"><ele>37.5</ele><time>2026-03-29T06:13:13.998Z</time></trkpt><trkpt lat="45.10046807959882" lon="9.979850292855453"><ele>37.0</ele><time>2026-03-29T06:13:14.998Z</time></trkpt><trkpt lat="45.100390088861346" lon="9.979817052049379"><ele>36.5</ele><time>2026-03-29T06:13:15.998Z</time></trkpt><trkpt lat="45.100313092810964" lon="9.979778909468788"><ele>36.0</ele><time>2026-03-29T06:13:16.998Z</time></trkpt><trkpt lat="45.10023493233748" lon="9.979743133788428"><ele>36.0</ele><time>2026-03-29T06:13:17.998Z</time></trkpt><trkpt lat="45.100158045071694" lon="9.979710850210965"><ele>36.0</ele><time>2026-03-29T06:13:18.998Z</time></trkpt><trkpt lat="45.1000806693962" lon="9.97967705453026"><ele>36.0</ele><time>2026-03-29T06:13:19.998Z</time></trkpt><trkpt lat="45.10000425948123" lon="9.97964339698331"><ele>36.0</ele><time>2026-03-29T06:13:20.998Z</time></trkpt><trkpt lat="45.09992809551503" lon="9.97961490587474"><ele>36.0</ele><time>2026-03-29T06:13:21.998Z</time></trkpt><trkpt lat="45.0998515717734" lon="9.9795830388188"><ele>36.0</ele><time>2026-03-29T06:13:22.998Z</time></trkpt><trkpt lat="45.099777905772115" lon="9.97954662542793"><ele>36.0</ele><time>2026-03-29T06:13:23.998Z</time></trkpt><trkpt lat="45.09970229693319" lon="9.979511262860097"><ele>36.0</ele><time>2026-03-29T06:13:24.998Z</time></trkpt><trkpt lat="45.099626295129625" lon="9.979477149319594"><ele>36.0</ele><time>2026-03-29T06:13:25.998Z</time></trkpt><trkpt lat="45.099550120817746" lon="9.979443307050575"><ele>36.0</ele><time>2026-03-29T06:13:26.998Z</time></trkpt><trkpt lat="45.09947404057794" lon="9.979409676624936"><ele>36.0</ele><time>2026-03-29T06:13:27.998Z</time></trkpt><trkpt lat="45.09939791417055" lon="9.979378032688633"><ele>36.0</ele><time>2026-03-29T06:13:28.998Z</time></trkpt><trkpt lat="45.09932263456" lon="9.979343730312186"><ele>36.0</ele><time>2026-03-29T06:13:29.998Z</time></trkpt><trkpt lat="45.09924829022489" lon="9.979306346893589"><ele>36.0</ele><time>2026-03-29T06:13:30.998Z</time></trkpt><trkpt lat="45.099173250721385" lon="9.97926866387133"><ele>36.0</ele><time>2026-03-29T06:13:31.998Z</time></trkpt><trkpt lat="45.09909671923533" lon="9.979232041036248"><ele>36.0</ele><time>2026-03-29T06:13:33Z</time></trkpt><trkpt lat="45.09902147235471" lon="9.979192621098834"><ele>36.0</ele><time>2026-03-29T06:13:34Z</time></trkpt><trkpt lat="45.09894767622101" lon="9.979152343971354"><ele>36.0</ele><time>2026-03-29T06:13:35Z</time></trkpt><trkpt lat="45.09887384563923" lon="9.979106872013286"><ele>36.166666666666664</ele><time>2026-03-29T06:13:36Z</time></trkpt><trkpt lat="45.09880139511052" lon="9.979061710278435"><ele>36.333333333333336</ele><time>2026-03-29T06:13:37Z</time></trkpt><trkpt lat="45.09873046150825" lon="9.979011462366156"><ele>36.5</ele><time>2026-03-29T06:13:38Z</time></trkpt><trkpt lat="45.09865919108089" lon="9.978956766782211"><ele>36.66666666666667</ele><time>2026-03-29T06:13:39Z</time></trkpt><trkpt lat="45.098586865288475" lon="9.978900496231065"><ele>36.833333333333336</ele><time>2026-03-29T06:13:40Z</time></trkpt><trkpt lat="45.098516844564394" lon="9.9788399237233"><ele>37.0</ele><time>2026-03-29T06:13:41Z</time></trkpt><trkpt lat="45.09844704067122" lon="9.978775545572478"><ele>37.0</ele><time>2026-03-29T06:13:42Z</time></trkpt><trkpt lat="45.098379049616945" lon="9.978707924670086"><ele>37.0</ele><time>2026-03-29T06:13:43Z</time></trkpt><trkpt lat="45.098312211786634" lon="9.978636074563974"><ele>37.0</ele><time>2026-03-29T06:13:44Z</time></trkpt><trkpt lat="45.098247609063264" lon="9.978561609516312"><ele>37.0</ele><time>2026-03-29T06:13:45Z</time></trkpt><trkpt lat="45.09818589286214" lon="9.978484833234637"><ele>37.0</ele><time>2026-03-29T06:13:46Z</time></trkpt><trkpt lat="45.09812489395867" lon="9.978404702027555"><ele>37.0</ele><time>2026-03-29T06:13:47Z</time></trkpt><trkpt lat="45.09806567631216" lon="9.978324322897564"><ele>37.0</ele><time>2026-03-29T06:13:48Z</time></trkpt><trkpt lat="45.09800876295975" lon="9.978241964363251"><ele>37.0</ele><time>2026-03-29T06:13:49Z</time></trkpt><trkpt lat="45.09795153610349" lon="9.978157660193643"><ele>37.0</ele><time>2026-03-29T06:13:50Z</time></trkpt><trkpt lat="45.097893167212185" lon="9.978072841669704"><ele>37.0</ele><time>2026-03-29T06:13:51Z</time></trkpt><trkpt lat="45.097837482039814" lon="9.977989678236563"><ele>37.0</ele><time>2026-03-29T06:13:52Z</time></trkpt><trkpt lat="45.09778023039939" lon="9.977902847755853"><ele>37.0</ele><time>2026-03-29T06:13:53Z</time></trkpt><trkpt lat="45.09772507034275" lon="9.97781803968954"><ele>37.0</ele><time>2026-03-29T06:13:54Z</time></trkpt><trkpt lat="45.097669738032494" lon="9.977732710086865"><ele>37.0</ele><time>2026-03-29T06:13:55Z</time></trkpt><trkpt lat="45.09761417089069" lon="9.977646593659445"><ele>37.0</ele><time>2026-03-29T06:13:56Z</time></trkpt><trkpt lat="45.097560101134825" lon="9.977563290261175"><ele>37.0</ele><time>2026-03-29T06:13:57Z</time></trkpt><trkpt lat="45.09750562506737" lon="9.977478279703476"><ele>37.0</ele><time>2026-03-29T06:13:58Z</time></trkpt><trkpt lat="45.09745050797728" lon="9.97739489127777"><ele>37.0</ele><time>2026-03-29T06:13:59Z</time></trkpt><trkpt lat="45.09739610371619" lon="9.977310776489306"><ele>37.333333333333336</ele><time>2026-03-29T06:14:00Z</time></trkpt><trkpt lat="45.097342645606126" lon="9.97722582548499"><ele>37.66666666666667</ele><time>2026-03-29T06:14:01Z</time></trkpt><trkpt lat="45.0972887460589" lon="9.977142261252498"><ele>38.0</ele><time>2026-03-29T06:14:02Z</time></trkpt><trkpt lat="45.09723412265669" lon="9.977057176074707"><ele>38.333333333333336</ele><time>2026-03-29T06:14:03Z</time></trkpt><trkpt lat="45.097179923744456" lon="9.976973781352642"><ele>38.666666666666664</ele><time>2026-03-29T06:14:04Z</time></trkpt><trkpt lat="45.097125682127064" lon="9.976891741970332"><ele>39.0</ele><time>2026-03-29T06:14:05Z</time></trkpt><trkpt lat="45.09707060626766" lon="9.976808365738387"><ele>39.0</ele><time>2026-03-29T06:14:06Z</time></trkpt><trkpt lat="45.09701421047194" lon="9.976726765008097"><ele>39.0</ele><time>2026-03-29T06:14:07Z</time></trkpt><trkpt lat="45.096959144542815" lon="9.976641142149727"><ele>39.0</ele><time>2026-03-29T06:14:08Z</time></trkpt><trkpt lat="45.09690325239537" lon="9.976556439485083"><ele>39.0</ele><time>2026-03-29T06:14:09Z</time></trkpt><trkpt lat="45.09684614184735" lon="9.976472753560618"><ele>39.0</ele><time>2026-03-29T06:14:09.999Z</time></trkpt><trkpt lat="45.09679051002402" lon="9.976388153013135"><ele>39.0</ele><time>2026-03-29T06:14:10.999Z</time></trkpt><trkpt lat="45.096735075378376" lon="9.976303855065257"><ele>38.833333333333336</ele><time>2026-03-29T06:14:11.999Z</time></trkpt><trkpt lat="45.09667885812448" lon="9.976218331317183"><ele>38.666666666666664</ele><time>2026-03-29T06:14:12.999Z</time></trkpt><trkpt lat="45.09662382127964" lon="9.97613087478778"><ele>38.5</ele><time>2026-03-29T06:14:13.999Z</time></trkpt><trkpt lat="45.096568775374486" lon="9.976043637111582"><ele>38.33333333333333</ele><time>2026-03-29T06:14:14.999Z</time></trkpt><trkpt lat="45.096512873809075" lon="9.975956660145778"><ele>38.166666666666664</ele><time>2026-03-29T06:14:15.999Z</time></trkpt><trkpt lat="45.09645571891492" lon="9.975869831215"><ele>38.0</ele><time>2026-03-29T06:14:16.999Z</time></trkpt><trkpt lat="45.096398869756094" lon="9.975782313326292"><ele>38.0</ele><time>2026-03-29T06:14:17.999Z</time></trkpt><trkpt lat="45.096344746238145" lon="9.975693476455683"><ele>38.0</ele><time>2026-03-29T06:14:18.999Z</time></trkpt><trkpt lat="45.096292106448246" lon="9.975606199958618"><ele>38.0</ele><time>2026-03-29T06:14:19.999Z</time></trkpt><trkpt lat="45.09624072293985" lon="9.975518516806595"><ele>38.0</ele><time>2026-03-29T06:14:20.999Z</time></trkpt><trkpt lat="45.09619251516272" lon="9.975431041268662"><ele>38.0</ele><time>2026-03-29T06:14:21.999Z</time></trkpt><trkpt lat="45.096145906841016" lon="9.97534270172482"><ele>38.0</ele><time>2026-03-29T06:14:22.999Z</time></trkpt><trkpt lat="45.09610240350662" lon="9.975250795896486"><ele>38.0</ele><time>2026-03-29T06:14:23.999Z</time></trkpt><trkpt lat="45.09605889475368" lon="9.975158598095266"><ele>38.0</ele><time>2026-03-29T06:14:24.999Z</time></trkpt><trkpt lat="45.09601626088879" lon="9.975066692956501"><ele>38.0</ele><time>2026-03-29T06:14:25.999Z</time></trkpt><trkpt lat="45.09597573640704" lon="9.97497368283467"><ele>38.0</ele><time>2026-03-29T06:14:26.999Z</time></trkpt><trkpt lat="45.095934719216196" lon="9.974880640461498"><ele>38.0</ele><time>2026-03-29T06:14:27.999Z</time></trkpt><trkpt lat="45.09589489203352" lon="9.974785134346531"><ele>38.0</ele><time>2026-03-29T06:14:28.999Z</time></trkpt><trkpt lat="45.09585605970163" lon="9.9746892334061"><ele>38.0</ele><time>2026-03-29T06:14:29.999Z</time></trkpt><trkpt lat="45.095816159369" lon="9.974594739241804"><ele>38.0</ele><time>2026-03-29T06:14:30.999Z</time></trkpt><trkpt lat="45.09577565012372" lon="9.974499206932078"><ele>38.0</ele><time>2026-03-29T06:14:31.999Z</time></trkpt><trkpt lat="45.09573590949945" lon="9.974404726770866"><ele>38.0</ele><time>2026-03-29T06:14:32.999Z</time></trkpt><trkpt lat="45.09569657418902" lon="9.97430655963842"><ele>38.0</ele><time>2026-03-29T06:14:33.999Z</time></trkpt><trkpt lat="45.095658114556" lon="9.974209659873807"><ele>38.0</ele><time>2026-03-29T06:14:34.999Z</time></trkpt><trkpt lat="45.09562140167383" lon="9.974112748465148"><ele>38.0</ele><time>2026-03-29T06:14:35.999Z</time></trkpt><trkpt lat="45.095583654739244" lon="9.974015724271535"><ele>38.0</ele><time>2026-03-29T06:14:36.999Z</time></trkpt><trkpt lat="45.09554434050589" lon="9.973920095276421"><ele>38.0</ele><time>2026-03-29T06:14:37.999Z</time></trkpt><trkpt lat="45.09550513056654" lon="9.973824297799606"><ele>38.0</ele><time>2026-03-29T06:14:38.999Z</time></trkpt><trkpt lat="45.095465561200356" lon="9.973727030237447"><ele>38.0</ele><time>2026-03-29T06:14:39.999Z</time></trkpt><trkpt lat="45.095426746391176" lon="9.973628395573458"><ele>38.0</ele><time>2026-03-29T06:14:40.999Z</time></trkpt><trkpt lat="45.095387366533444" lon="9.973531088695252"><ele>38.0</ele><time>2026-03-29T06:14:41.999Z</time></trkpt><trkpt lat="45.09534881611119" lon="9.973431993602533"><ele>38.0</ele><time>2026-03-29T06:14:42.999Z</time></trkpt><trkpt lat="45.0953106356799" lon="9.97333351419928"><ele>38.0</ele><time>2026-03-29T06:14:43.999Z</time></trkpt><trkpt lat="45.09527378131853" lon="9.973234460200384"><ele>38.0</ele><time>2026-03-29T06:14:44.999Z</time></trkpt><trkpt lat="45.095235075102906" lon="9.973136511404125"><ele>38.0</ele><time>2026-03-29T06:14:45.999Z</time></trkpt><trkpt lat="45.09519475173569" lon="9.973038396065174"><ele>38.0</ele><time>2026-03-29T06:14:46.999Z</time></trkpt><trkpt lat="45.095155176337" lon="9.97294080173728"><ele>37.83333333333333</ele><time>2026-03-29T06:14:47.999Z</time></trkpt><trkpt lat="45.095115327667834" lon="9.972842346186669"><ele>37.666666666666664</ele><time>2026-03-29T06:14:48.999Z</time></trkpt><trkpt lat="45.09507573765911" lon="9.972744027232737"><ele>37.5</ele><time>2026-03-29T06:14:49.999Z</time></trkpt><trkpt lat="45.095034782847556" lon="9.97264758270578"><ele>37.333333333333336</ele><time>2026-03-29T06:14:50.999Z</time></trkpt><trkpt lat="45.09499393392374" lon="9.972551637356492"><ele>37.16666666666667</ele><time>2026-03-29T06:14:51.999Z</time></trkpt><trkpt lat="45.094955172580526" lon="9.972453973233053"><ele>37.0</ele><time>2026-03-29T06:14:52.999Z</time></trkpt><trkpt lat="45.09491741984695" lon="9.972358034348725"><ele>36.66666666666667</ele><time>2026-03-29T06:14:53.999Z</time></trkpt><trkpt lat="45.09487865704064" lon="9.972260520121399"><ele>36.333333333333336</ele><time>2026-03-29T06:14:54.999Z</time></trkpt><trkpt lat="45.09484068268014" lon="9.9721622390941"><ele>36.0</ele><time>2026-03-29T06:14:55.999Z</time></trkpt><trkpt lat="45.094803463686446" lon="9.972065107436805"><ele>35.666666666666664</ele><time>2026-03-29T06:14:56.999Z</time></trkpt><trkpt lat="45.094765294812" lon="9.971969279572502"><ele>35.33333333333333</ele><time>2026-03-29T06:14:57.999Z</time></trkpt><trkpt lat="45.09472632692867" lon="9.971875422338275"><ele>35.0</ele><time>2026-03-29T06:14:58.999Z</time></trkpt><trkpt lat="45.09468824630139" lon="9.97178051849332"><ele>35.0</ele><time>2026-03-29T06:14:59.999Z</time></trkpt><trkpt lat="45.09464899119415" lon="9.971684625298932"><ele>35.0</ele><time>2026-03-29T06:15:00.999Z</time></trkpt><trkpt lat="45.094610169288316" lon="9.97158883213232"><ele>35.0</ele><time>2026-03-29T06:15:01.999Z</time></trkpt><trkpt lat="45.09457020958984" lon="9.971494033611533"><ele>35.0</ele><time>2026-03-29T06:15:02.999Z</time></trkpt><trkpt lat="45.09453318974722" lon="9.971396727117641"><ele>35.0</ele><time>2026-03-29T06:15:03.998Z</time></trkpt><trkpt lat="45.094494380294655" lon="9.971298591963663"><ele>35.0</ele><time>2026-03-29T06:15:04.998Z</time></trkpt><trkpt lat="45.0944554059121" lon="9.971198641201235"><ele>35.0</ele><time>2026-03-29T06:15:05.998Z</time></trkpt><trkpt lat="45.09441563662748" lon="9.971100681935"><ele>35.0</ele><time>2026-03-29T06:15:06.998Z</time></trkpt><trkpt lat="45.09437666295824" lon="9.971003207761717"><ele>35.0</ele><time>2026-03-29T06:15:07.998Z</time></trkpt><trkpt lat="45.09433665536479" lon="9.970905504772622"><ele>35.0</ele><time>2026-03-29T06:15:08.998Z</time></trkpt><trkpt lat="45.09429688484097" lon="9.970806230177415"><ele>35.0</ele><time>2026-03-29T06:15:09.998Z</time></trkpt><trkpt lat="45.094258364248155" lon="9.970706081801483"><ele>35.0</ele><time>2026-03-29T06:15:10.998Z</time></trkpt><trkpt lat="45.094220797452806" lon="9.970608222291418"><ele>35.0</ele><time>2026-03-29T06:15:11.998Z</time></trkpt><trkpt lat="45.094183477559866" lon="9.970509772396726"><ele>35.0</ele><time>2026-03-29T06:15:12.998Z</time></trkpt><trkpt lat="45.09414566170889" lon="9.970411017787006"><ele>35.0</ele><time>2026-03-29T06:15:13.998Z</time></trkpt><trkpt lat="45.094106653400424" lon="9.970313853209984"><ele>35.0</ele><time>2026-03-29T06:15:14.998Z</time></trkpt><trkpt lat="45.09406819469191" lon="9.970213608404638"><ele>35.0</ele><time>2026-03-29T06:15:15.998Z</time></trkpt><trkpt lat="45.09402938645308" lon="9.97011504598502"><ele>35.0</ele><time>2026-03-29T06:15:16.998Z</time></trkpt><trkpt lat="45.09399140113438" lon="9.970016866319886"><ele>35.0</ele><time>2026-03-29T06:15:17.998Z</time></trkpt><trkpt lat="45.09395374034835" lon="9.96991884549523"><ele>35.0</ele><time>2026-03-29T06:15:18.998Z</time></trkpt><trkpt lat="45.093915456667276" lon="9.969818730379483"><ele>35.0</ele><time>2026-03-29T06:15:19.998Z</time></trkpt><trkpt lat="45.0938778689773" lon="9.96971895357408"><ele>35.0</ele><time>2026-03-29T06:15:20.998Z</time></trkpt><trkpt lat="45.09383972483162" lon="9.969617992073719"><ele>35.0</ele><time>2026-03-29T06:15:21.998Z</time></trkpt><trkpt lat="45.093800898518936" lon="9.969518918620516"><ele>35.0</ele><time>2026-03-29T06:15:22.998Z</time></trkpt><trkpt lat="45.09376026375035" lon="9.969417957914889"><ele>35.0</ele><time>2026-03-29T06:15:23.998Z</time></trkpt><trkpt lat="45.093721133252515" lon="9.969317743016825"><ele>35.0</ele><time>2026-03-29T06:15:24.998Z</time></trkpt><trkpt lat="45.093682725252485" lon="9.969216506250337"><ele>35.0</ele><time>2026-03-29T06:15:25.998Z</time></trkpt><trkpt lat="45.093643355156345" lon="9.969117273541578"><ele>35.0</ele><time>2026-03-29T06:15:26.998Z</time></trkpt><trkpt lat="45.093605288333336" lon="9.969018559821944"><ele>35.0</ele><time>2026-03-29T06:15:27.998Z</time></trkpt><trkpt lat="45.09356772375728" lon="9.968918767262698"><ele>35.0</ele><time>2026-03-29T06:15:28.998Z</time></trkpt><trkpt lat="45.093529817283034" lon="9.968819394499691"><ele>35.166666666666664</ele><time>2026-03-29T06:15:29.998Z</time></trkpt><trkpt lat="45.09349176793003" lon="9.968718821560447"><ele>35.33333333333333</ele><time>2026-03-29T06:15:30.998Z</time></trkpt><trkpt lat="45.093452777370686" lon="9.96862019430107"><ele>35.5</ele><time>2026-03-29T06:15:31.998Z</time></trkpt><trkpt lat="45.09341411609762" lon="9.968522922072014"><ele>35.666666666666664</ele><time>2026-03-29T06:15:32.998Z</time></trkpt><trkpt lat="45.093375392757274" lon="9.968424830162348"><ele>35.833333333333336</ele><time>2026-03-29T06:15:33.998Z</time></trkpt><trkpt lat="45.093337658417205" lon="9.968327615496019"><ele>36.0</ele><time>2026-03-29T06:15:34.998Z</time></trkpt><trkpt lat="45.09329972597528" lon="9.968228313874842"><ele>36.0</ele><time>2026-03-29T06:15:35.998Z</time></trkpt><trkpt lat="45.09326171008975" lon="9.968131332400533"><ele>36.0</ele><time>2026-03-29T06:15:36.998Z</time></trkpt><trkpt lat="45.093222530476204" lon="9.968029794326075"><ele>36.0</ele><time>2026-03-29T06:15:37.998Z</time></trkpt><trkpt lat="45.09318179426202" lon="9.967931541461866"><ele>36.0</ele><time>2026-03-29T06:15:39Z</time></trkpt><trkpt lat="45.09314203722451" lon="9.967830583332335"><ele>36.0</ele><time>2026-03-29T06:15:40Z</time></trkpt><trkpt lat="45.09310328680606" lon="9.967726392659598"><ele>36.0</ele><time>2026-03-29T06:15:41Z</time></trkpt><trkpt lat="45.09306337906816" lon="9.96762548216822"><ele>36.166666666666664</ele><time>2026-03-29T06:15:42Z</time></trkpt><trkpt lat="45.09302511191898" lon="9.967526277162433"><ele>36.333333333333336</ele><time>2026-03-29T06:15:43Z</time></trkpt><trkpt lat="45.092985853641004" lon="9.967428804485477"><ele>36.5</ele><time>2026-03-29T06:15:44Z</time></trkpt><trkpt lat="45.092947712987815" lon="9.967328526945286"><ele>36.66666666666667</ele><time>2026-03-29T06:15:45Z</time></trkpt><trkpt lat="45.092909347613784" lon="9.967229980629385"><ele>36.833333333333336</ele><time>2026-03-29T06:15:46Z</time></trkpt><trkpt lat="45.092870793346485" lon="9.967131726406926"><ele>37.0</ele><time>2026-03-29T06:15:47Z</time></trkpt><trkpt lat="45.09283343739827" lon="9.967032964247743"><ele>37.0</ele><time>2026-03-29T06:15:48Z</time></trkpt><trkpt lat="45.092796953210915" lon="9.966936402407015"><ele>37.0</ele><time>2026-03-29T06:15:49Z</time></trkpt><trkpt lat="45.09276167449159" lon="9.966842551719093"><ele>37.0</ele><time>2026-03-29T06:15:50Z</time></trkpt><trkpt lat="45.092728085364364" lon="9.966749505262875"><ele>37.0</ele><time>2026-03-29T06:15:51Z</time></trkpt><trkpt lat="45.09269286121888" lon="9.966655708978184"><ele>37.0</ele><time>2026-03-29T06:15:52Z</time></trkpt><trkpt lat="45.092657802324524" lon="9.966562357052817"><ele>37.0</ele><time>2026-03-29T06:15:53Z</time></trkpt><trkpt lat="45.09262491050513" lon="9.96646996269311"><ele>37.0</ele><time>2026-03-29T06:15:54Z</time></trkpt><trkpt lat="45.09259931090821" lon="9.966370269434394"><ele>37.142857142857146</ele><time>2026-03-29T06:15:55Z</time></trkpt><trkpt lat="45.092572628117566" lon="9.966271595424262"><ele>37.285714285714285</ele><time>2026-03-29T06:15:56Z</time></trkpt><trkpt lat="45.09254647522323" lon="9.966174441724288"><ele>37.42857142857143</ele><time>2026-03-29T06:15:57Z</time></trkpt><trkpt lat="45.09252204253234" lon="9.966073822993582"><ele>37.57142857142857</ele><time>2026-03-29T06:15:58Z</time></trkpt><trkpt lat="45.09250157636821" lon="9.965971500066425"><ele>37.714285714285715</ele><time>2026-03-29T06:15:59Z</time></trkpt><trkpt lat="45.092482632785035" lon="9.965871022268947"><ele>37.857142857142854</ele><time>2026-03-29T06:16:00Z</time></trkpt><trkpt lat="45.09245772663714" lon="9.965776130509406"><ele>38.0</ele><time>2026-03-29T06:16:01Z</time></trkpt><trkpt lat="45.09243380476799" lon="9.965677590593938"><ele>37.857142857142854</ele><time>2026-03-29T06:16:02Z</time></trkpt><trkpt lat="45.0924091355067" lon="9.965581590788581"><ele>37.714285714285715</ele><time>2026-03-29T06:16:03Z</time></trkpt><trkpt lat="45.09238806735165" lon="9.965484558244329"><ele>37.57142857142857</ele><time>2026-03-29T06:16:04Z</time></trkpt><trkpt lat="45.09236889668605" lon="9.965389761340845"><ele>37.42857142857143</ele><time>2026-03-29T06:16:05Z</time></trkpt><trkpt lat="45.09234843257501" lon="9.965293396974728"><ele>37.285714285714285</ele><time>2026-03-29T06:16:06Z</time></trkpt><trkpt lat="45.09235194325092" lon="9.965190922831157"><ele>37.142857142857146</ele><time>2026-03-29T06:16:07Z</time></trkpt><trkpt lat="45.092341052001125" lon="9.96509347728156"><ele>37.0</ele><time>2026-03-29T06:16:08Z</time></trkpt><trkpt lat="45.092330480195166" lon="9.964998288982873"><ele>37.0</ele><time>2026-03-29T06:16:09Z</time></trkpt><trkpt lat="45.09231983341399" lon="9.964902425500407"><ele>37.0</ele><time>2026-03-29T06:16:10Z</time></trkpt><trkpt lat="45.092309548348084" lon="9.964809818896663"><ele>37.0</ele><time>2026-03-29T06:16:11Z</time></trkpt><trkpt lat="45.09229991545727" lon="9.964721140009114"><ele>37.0</ele><time>2026-03-29T06:16:12Z</time></trkpt><trkpt lat="45.09229176520463" lon="9.964631354710688"><ele>37.0</ele><time>2026-03-29T06:16:13Z</time></trkpt><trkpt lat="45.09228257282437" lon="9.96454218058713"><ele>37.0</ele><time>2026-03-29T06:16:14Z</time></trkpt><trkpt lat="45.09226298853656" lon="9.964365844130441"><ele>37.0</ele><time>2026-03-29T06:16:15.999Z</time></trkpt><trkpt lat="45.09225264985648" lon="9.964272754859648"><ele>37.0</ele><time>2026-03-29T06:16:16.999Z</time></trkpt><trkpt lat="45.09224258031797" lon="9.96418208888845"><ele>37.0</ele><time>2026-03-29T06:16:17.999Z</time></trkpt><trkpt lat="45.09207369244591" lon="9.964064794705019"><ele>37.0</ele><time>2026-03-29T06:16:19.999Z</time></trkpt><trkpt lat="45.09199992682206" lon="9.964037886686427"><ele>37.0</ele><time>2026-03-29T06:16:20.999Z</time></trkpt><trkpt lat="45.09192753648417" lon="9.96401438420173"><ele>37.0</ele><time>2026-03-29T06:16:21.999Z</time></trkpt><trkpt lat="45.091856793612145" lon="9.963985598924268"><ele>37.0</ele><time>2026-03-29T06:16:22.999Z</time></trkpt><trkpt lat="45.091786371767945" lon="9.96394843250757"><ele>37.0</ele><time>2026-03-29T06:16:23.999Z</time></trkpt><trkpt lat="45.091718272618664" lon="9.963902679435122"><ele>37.0</ele><time>2026-03-29T06:16:24.999Z</time></trkpt><trkpt lat="45.09166354614915" lon="9.96382845230862"><ele>37.0</ele><time>2026-03-29T06:16:25.999Z</time></trkpt><trkpt lat="45.09160755239809" lon="9.963758180609872"><ele>37.0</ele><time>2026-03-29T06:16:26.999Z</time></trkpt><trkpt lat="45.09154488439406" lon="9.963694357041014"><ele>37.0</ele><time>2026-03-29T06:16:27.999Z</time></trkpt><trkpt lat="45.091499320600576" lon="9.963605475209906"><ele>37.0</ele><time>2026-03-29T06:16:28.999Z</time></trkpt><trkpt lat="45.09145254444412" lon="9.963519909100398"><ele>37.0</ele><time>2026-03-29T06:16:29.999Z</time></trkpt><trkpt lat="45.091402609440784" lon="9.963440049028321"><ele>37.0</ele><time>2026-03-29T06:16:30.999Z</time></trkpt><trkpt lat="45.0913477917128" lon="9.96336642493594"><ele>37.0</ele><time>2026-03-29T06:16:31.999Z</time></trkpt><trkpt lat="45.09128675430426" lon="9.963296464202699"><ele>37.0</ele><time>2026-03-29T06:16:32.999Z</time></trkpt><trkpt lat="45.091223841823435" lon="9.963231012048109"><ele>37.0</ele><time>2026-03-29T06:16:33.999Z</time></trkpt><trkpt lat="45.09116361104545" lon="9.963165383706574"><ele>37.0</ele><time>2026-03-29T06:16:34.999Z</time></trkpt><trkpt lat="45.091101323616755" lon="9.963098833730301"><ele>37.0</ele><time>2026-03-29T06:16:35.999Z</time></trkpt><trkpt lat="45.091037229336806" lon="9.963034418997754"><ele>37.0</ele><time>2026-03-29T06:16:36.999Z</time></trkpt><trkpt lat="45.09097384181505" lon="9.962970918134245"><ele>37.0</ele><time>2026-03-29T06:16:37.999Z</time></trkpt><trkpt lat="45.09091088310047" lon="9.962906226536706"><ele>37.0</ele><time>2026-03-29T06:16:38.999Z</time></trkpt><trkpt lat="45.090847959777136" lon="9.962841271291223"><ele>37.0</ele><time>2026-03-29T06:16:39.999Z</time></trkpt><trkpt lat="45.090785755879395" lon="9.962778839498633"><ele>37.0</ele><time>2026-03-29T06:16:40.999Z</time></trkpt><trkpt lat="45.09072369022711" lon="9.962705401562697"><ele>37.0</ele><time>2026-03-29T06:16:41.999Z</time></trkpt><trkpt lat="45.090658776005164" lon="9.962641196246349"><ele>37.0</ele><time>2026-03-29T06:16:42.999Z</time></trkpt><trkpt lat="45.090597894396915" lon="9.962579255490528"><ele>37.0</ele><time>2026-03-29T06:16:43.999Z</time></trkpt><trkpt lat="45.09053097670962" lon="9.962514739876822"><ele>37.0</ele><time>2026-03-29T06:16:44.999Z</time></trkpt><trkpt lat="45.09046281631654" lon="9.962447968730675"><ele>37.0</ele><time>2026-03-29T06:16:45.999Z</time></trkpt><trkpt lat="45.090390260008306" lon="9.962383668138333"><ele>37.0</ele><time>2026-03-29T06:16:46.999Z</time></trkpt><trkpt lat="45.09032431971076" lon="9.962319689648092"><ele>37.0</ele><time>2026-03-29T06:16:47.999Z</time></trkpt><trkpt lat="45.09026135011262" lon="9.962252352189857"><ele>37.0</ele><time>2026-03-29T06:16:48.999Z</time></trkpt><trkpt lat="45.090194679661735" lon="9.962192680563208"><ele>37.0</ele><time>2026-03-29T06:16:49.999Z</time></trkpt><trkpt lat="45.090126951060256" lon="9.962128414586674"><ele>37.0</ele><time>2026-03-29T06:16:50.999Z</time></trkpt><trkpt lat="45.090057670621476" lon="9.962071868440047"><ele>37.0</ele><time>2026-03-29T06:16:51.999Z</time></trkpt><trkpt lat="45.08998843716073" lon="9.962016362537572"><ele>37.0</ele><time>2026-03-29T06:16:52.999Z</time></trkpt><trkpt lat="45.08992455785898" lon="9.961938029194869"><ele>37.0</ele><time>2026-03-29T06:16:53.999Z</time></trkpt><trkpt lat="45.08985062953342" lon="9.961883895214033"><ele>37.0</ele><time>2026-03-29T06:16:54.999Z</time></trkpt><trkpt lat="45.08977136548491" lon="9.961853638245536"><ele>37.0</ele><time>2026-03-29T06:16:55.999Z</time></trkpt><trkpt lat="45.0896951829779" lon="9.961805535126466"><ele>37.0</ele><time>2026-03-29T06:16:56.999Z</time></trkpt><trkpt lat="45.08962128492147" lon="9.96176539128102"><ele>36.833333333333336</ele><time>2026-03-29T06:16:57.999Z</time></trkpt><trkpt lat="45.08955046271339" lon="9.961729689379311"><ele>36.66666666666667</ele><time>2026-03-29T06:16:58.999Z</time></trkpt><trkpt lat="45.08948134768649" lon="9.961696899919112"><ele>36.5</ele><time>2026-03-29T06:16:59.999Z</time></trkpt><trkpt lat="45.08940404572382" lon="9.961668839199836"><ele>36.333333333333336</ele><time>2026-03-29T06:17:00.999Z</time></trkpt><trkpt lat="45.08932884061492" lon="9.961651334413752"><ele>36.166666666666664</ele><time>2026-03-29T06:17:01.999Z</time></trkpt><trkpt lat="45.0892502937093" lon="9.96163471378033"><ele>36.0</ele><time>2026-03-29T06:17:02.999Z</time></trkpt><trkpt lat="45.089168343838374" lon="9.96162916558082"><ele>36.0</ele><time>2026-03-29T06:17:03.999Z</time></trkpt><trkpt lat="45.089086564432876" lon="9.961636252393298"><ele>36.0</ele><time>2026-03-29T06:17:04.999Z</time></trkpt><trkpt lat="45.089004536210055" lon="9.961624322798782"><ele>36.0</ele><time>2026-03-29T06:17:05.999Z</time></trkpt><trkpt lat="45.08892605502291" lon="9.961615347708939"><ele>36.0</ele><time>2026-03-29T06:17:06.999Z</time></trkpt><trkpt lat="45.08884797223681" lon="9.961607623859843"><ele>36.0</ele><time>2026-03-29T06:17:07.999Z</time></trkpt><trkpt lat="45.08876725677778" lon="9.961602989723362"><ele>36.0</ele><time>2026-03-29T06:17:08.999Z</time></trkpt><trkpt lat="45.088692238497515" lon="9.9616022966007"><ele>36.0</ele><time>2026-03-29T06:17:09.998Z</time></trkpt><trkpt lat="45.08860880506121" lon="9.961593763904233"><ele>36.0</ele><time>2026-03-29T06:17:10.998Z</time></trkpt><trkpt lat="45.08852888552764" lon="9.961588490520372"><ele>36.0</ele><time>2026-03-29T06:17:11.998Z</time></trkpt><trkpt lat="45.088450886592746" lon="9.961578492459118"><ele>36.0</ele><time>2026-03-29T06:17:12.998Z</time></trkpt><trkpt lat="45.08836962325705" lon="9.96156846585164"><ele>36.0</ele><time>2026-03-29T06:17:13.998Z</time></trkpt><trkpt lat="45.088293001323095" lon="9.961559940595468"><ele>36.0</ele><time>2026-03-29T06:17:14.998Z</time></trkpt><trkpt lat="45.08821602002656" lon="9.96155102966738"><ele>36.333333333333336</ele><time>2026-03-29T06:17:15.998Z</time></trkpt><trkpt lat="45.08813940432438" lon="9.961546209301408"><ele>36.666666666666664</ele><time>2026-03-29T06:17:16.998Z</time></trkpt><trkpt lat="45.08806283988086" lon="9.961535818109665"><ele>37.0</ele><time>2026-03-29T06:17:17.998Z</time></trkpt><trkpt lat="45.08798536455344" lon="9.961522516658965"><ele>37.33333333333333</ele><time>2026-03-29T06:17:18.998Z</time></trkpt><trkpt lat="45.087910372881254" lon="9.96150896456354"><ele>37.666666666666664</ele><time>2026-03-29T06:17:19.998Z</time></trkpt><trkpt lat="45.08783641968146" lon="9.961479306974631"><ele>38.0</ele><time>2026-03-29T06:17:20.998Z</time></trkpt><trkpt lat="45.08775969778257" lon="9.961465694495153"><ele>38.0</ele><time>2026-03-29T06:17:21.998Z</time></trkpt><trkpt lat="45.08767965110941" lon="9.961472916987606"><ele>38.0</ele><time>2026-03-29T06:17:22.998Z</time></trkpt><trkpt lat="45.0876014835408" lon="9.961454582981045"><ele>38.0</ele><time>2026-03-29T06:17:23.998Z</time></trkpt><trkpt lat="45.087523922630155" lon="9.961434589347052"><ele>38.0</ele><time>2026-03-29T06:17:24.998Z</time></trkpt><trkpt lat="45.08744837654094" lon="9.961419159664285"><ele>38.0</ele><time>2026-03-29T06:17:25.998Z</time></trkpt><trkpt lat="45.08737244837132" lon="9.961401756531847"><ele>38.0</ele><time>2026-03-29T06:17:26.998Z</time></trkpt><trkpt lat="45.087298826533456" lon="9.961379747576089"><ele>37.83333333333333</ele><time>2026-03-29T06:17:27.998Z</time></trkpt><trkpt lat="45.087221303138776" lon="9.96136278963806"><ele>37.666666666666664</ele><time>2026-03-29T06:17:28.998Z</time></trkpt><trkpt lat="45.08714559291053" lon="9.961342801956556"><ele>37.5</ele><time>2026-03-29T06:17:29.998Z</time></trkpt><trkpt lat="45.08706987423538" lon="9.961330096449396"><ele>37.333333333333336</ele><time>2026-03-29T06:17:30.998Z</time></trkpt><trkpt lat="45.08699575540003" lon="9.961324900405554"><ele>37.16666666666667</ele><time>2026-03-29T06:17:31.998Z</time></trkpt><trkpt lat="45.08691849168043" lon="9.961312661004346"><ele>37.0</ele><time>2026-03-29T06:17:32.998Z</time></trkpt><trkpt lat="45.08683751056622" lon="9.961304301513001"><ele>37.0</ele><time>2026-03-29T06:17:33.998Z</time></trkpt><trkpt lat="45.08675942206503" lon="9.961295756492285"><ele>37.0</ele><time>2026-03-29T06:17:34.998Z</time></trkpt><trkpt lat="45.086680350021915" lon="9.96129479228721"><ele>37.0</ele><time>2026-03-29T06:17:35.998Z</time></trkpt><trkpt lat="45.086602896908225" lon="9.961298676087496"><ele>37.0</ele><time>2026-03-29T06:17:36.998Z</time></trkpt><trkpt lat="45.08652335328199" lon="9.961289126048412"><ele>37.0</ele><time>2026-03-29T06:17:37.998Z</time></trkpt><trkpt lat="45.08644173513237" lon="9.961288993864478"><ele>37.0</ele><time>2026-03-29T06:17:38.998Z</time></trkpt><trkpt lat="45.08636275826843" lon="9.961296083141331"><ele>37.0</ele><time>2026-03-29T06:17:39.998Z</time></trkpt><trkpt lat="45.08628842848986" lon="9.961303868264375"><ele>37.0</ele><time>2026-03-29T06:17:40.998Z</time></trkpt><trkpt lat="45.0862066375706" lon="9.961303798273116"><ele>37.0</ele><time>2026-03-29T06:17:41.998Z</time></trkpt><trkpt lat="45.08612413325376" lon="9.961301947492807"><ele>37.0</ele><time>2026-03-29T06:17:42.998Z</time></trkpt><trkpt lat="45.086048104774214" lon="9.961301809875057"><ele>37.0</ele><time>2026-03-29T06:17:43.998Z</time></trkpt><trkpt lat="45.085970250143546" lon="9.961310492927566"><ele>37.0</ele><time>2026-03-29T06:17:45Z</time></trkpt><trkpt lat="45.08589268429612" lon="9.961320584485836"><ele>37.0</ele><time>2026-03-29T06:17:46Z</time></trkpt><trkpt lat="45.085815864201" lon="9.961338003817918"><ele>37.0</ele><time>2026-03-29T06:17:47Z</time></trkpt><trkpt lat="45.085737374893576" lon="9.961356013262186"><ele>37.0</ele><time>2026-03-29T06:17:48Z</time></trkpt><trkpt lat="45.085664647702494" lon="9.961383926306953"><ele>37.0</ele><time>2026-03-29T06:17:49Z</time></trkpt><trkpt lat="45.08559128193252" lon="9.961410367387531"><ele>37.0</ele><time>2026-03-29T06:17:50Z</time></trkpt><trkpt lat="45.085516865816295" lon="9.961443855012371"><ele>37.0</ele><time>2026-03-29T06:17:51Z</time></trkpt><trkpt lat="45.085443415780205" lon="9.961471233675878"><ele>37.16666666666667</ele><time>2026-03-29T06:17:52Z</time></trkpt><trkpt lat="45.08536715459288" lon="9.961499913331885"><ele>37.333333333333336</ele><time>2026-03-29T06:17:53Z</time></trkpt><trkpt lat="45.08528679006302" lon="9.96152010997757"><ele>37.5</ele><time>2026-03-29T06:17:54Z</time></trkpt><trkpt lat="45.08521206447267" lon="9.961551434192735"><ele>37.666666666666664</ele><time>2026-03-29T06:17:55Z</time></trkpt><trkpt lat="45.085136087419485" lon="9.961581478353809"><ele>37.83333333333333</ele><time>2026-03-29T06:17:56Z</time></trkpt><trkpt lat="45.08506142556842" lon="9.961613023992477"><ele>38.0</ele><time>2026-03-29T06:17:57Z</time></trkpt><trkpt lat="45.084985428648054" lon="9.961644525398755"><ele>37.83333333333333</ele><time>2026-03-29T06:17:58Z</time></trkpt><trkpt lat="45.08490450361246" lon="9.96167010943133"><ele>37.666666666666664</ele><time>2026-03-29T06:17:59Z</time></trkpt><trkpt lat="45.084828370841805" lon="9.96169453645422"><ele>37.5</ele><time>2026-03-29T06:18:00Z</time></trkpt><trkpt lat="45.08475302639459" lon="9.961722968781125"><ele>37.333333333333336</ele><time>2026-03-29T06:18:01Z</time></trkpt><trkpt lat="45.08467862726664" lon="9.961748455287996"><ele>37.16666666666667</ele><time>2026-03-29T06:18:02Z</time></trkpt><trkpt lat="45.08459997455436" lon="9.96177347289902"><ele>37.0</ele><time>2026-03-29T06:18:03Z</time></trkpt><trkpt lat="45.084524121303545" lon="9.961797756556805"><ele>37.0</ele><time>2026-03-29T06:18:04Z</time></trkpt><trkpt lat="45.084449904681556" lon="9.961822105463998"><ele>37.0</ele><time>2026-03-29T06:18:05Z</time></trkpt><trkpt lat="45.08437960076116" lon="9.961850356467863"><ele>37.0</ele><time>2026-03-29T06:18:06Z</time></trkpt><trkpt lat="45.08430704685658" lon="9.961879719122518"><ele>37.0</ele><time>2026-03-29T06:18:07Z</time></trkpt><trkpt lat="45.08423699595797" lon="9.96191202276347"><ele>37.0</ele><time>2026-03-29T06:18:08Z</time></trkpt><trkpt lat="45.08416711570609" lon="9.961946770951016"><ele>37.0</ele><time>2026-03-29T06:18:09Z</time></trkpt><trkpt lat="45.0841000989987" lon="9.961983303439892"><ele>37.0</ele><time>2026-03-29T06:18:10Z</time></trkpt><trkpt lat="45.084032325634524" lon="9.962022779579485"><ele>37.285714285714285</ele><time>2026-03-29T06:18:11Z</time></trkpt><trkpt lat="45.083968031983915" lon="9.96206562226527"><ele>37.57142857142857</ele><time>2026-03-29T06:18:12Z</time></trkpt><trkpt lat="45.08390394160623" lon="9.96210810910034"><ele>37.85714285714286</ele><time>2026-03-29T06:18:13Z</time></trkpt><trkpt lat="45.083841184498105" lon="9.962152669511928"><ele>38.14285714285714</ele><time>2026-03-29T06:18:14Z</time></trkpt><trkpt lat="45.083778207548214" lon="9.962202668490137"><ele>38.42857142857142</ele><time>2026-03-29T06:18:15Z</time></trkpt><trkpt lat="45.08371441604629" lon="9.962247216741797"><ele>38.714285714285715</ele><time>2026-03-29T06:18:16Z</time></trkpt><trkpt lat="45.08365460084744" lon="9.962297742169794"><ele>39.0</ele><time>2026-03-29T06:18:17Z</time></trkpt><trkpt lat="45.08359272159649" lon="9.962350279142793"><ele>39.0</ele><time>2026-03-29T06:18:17.999Z</time></trkpt><trkpt lat="45.083535362304296" lon="9.962401433874652"><ele>39.0</ele><time>2026-03-29T06:18:18.999Z</time></trkpt><trkpt lat="45.08347763445355" lon="9.96245684040404"><ele>39.0</ele><time>2026-03-29T06:18:19.999Z</time></trkpt><trkpt lat="45.083419551647445" lon="9.962512069804387"><ele>39.0</ele><time>2026-03-29T06:18:20.999Z</time></trkpt><trkpt lat="45.08335877328744" lon="9.962561725595238"><ele>39.0</ele><time>2026-03-29T06:18:21.999Z</time></trkpt><trkpt lat="45.08329959367041" lon="9.962615234059356"><ele>39.0</ele><time>2026-03-29T06:18:22.999Z</time></trkpt><trkpt lat="45.083239761228" lon="9.962672571461454"><ele>39.0</ele><time>2026-03-29T06:18:23.999Z</time></trkpt><trkpt lat="45.083181590269895" lon="9.962724121924088"><ele>39.142857142857146</ele><time>2026-03-29T06:18:24.999Z</time></trkpt><trkpt lat="45.08312186716963" lon="9.962778725909144"><ele>39.285714285714285</ele><time>2026-03-29T06:18:25.999Z</time></trkpt><trkpt lat="45.08305779559069" lon="9.962829197221609"><ele>39.42857142857143</ele><time>2026-03-29T06:18:26.999Z</time></trkpt><trkpt lat="45.082996911657176" lon="9.962880004819327"><ele>39.57142857142857</ele><time>2026-03-29T06:18:27.999Z</time></trkpt><trkpt lat="45.082937122979985" lon="9.962934263282847"><ele>39.714285714285715</ele><time>2026-03-29T06:18:28.999Z</time></trkpt><trkpt lat="45.0828810743535" lon="9.962985657941342"><ele>39.857142857142854</ele><time>2026-03-29T06:18:29.999Z</time></trkpt><trkpt lat="45.08281995001606" lon="9.963040544468706"><ele>40.0</ele><time>2026-03-29T06:18:30.999Z</time></trkpt><trkpt lat="45.082759168886945" lon="9.963090412655005"><ele>40.0</ele><time>2026-03-29T06:18:31.999Z</time></trkpt><trkpt lat="45.08269961871664" lon="9.963143565934114"><ele>40.0</ele><time>2026-03-29T06:18:32.999Z</time></trkpt><trkpt lat="45.082639978098314" lon="9.96319858582828"><ele>40.0</ele><time>2026-03-29T06:18:33.999Z</time></trkpt><trkpt lat="45.08258074014054" lon="9.96325095875702"><ele>40.0</ele><time>2026-03-29T06:18:34.999Z</time></trkpt><trkpt lat="45.08251946108473" lon="9.963303037349391"><ele>40.0</ele><time>2026-03-29T06:18:35.999Z</time></trkpt><trkpt lat="45.0824614112459" lon="9.963358948417921"><ele>40.0</ele><time>2026-03-29T06:18:36.999Z</time></trkpt><trkpt lat="45.082402219760965" lon="9.963413514936276"><ele>40.0</ele><time>2026-03-29T06:18:37.999Z</time></trkpt><trkpt lat="45.0823424046902" lon="9.96346691748438"><ele>39.857142857142854</ele><time>2026-03-29T06:18:38.999Z</time></trkpt><trkpt lat="45.08228274221781" lon="9.963520514098162"><ele>39.714285714285715</ele><time>2026-03-29T06:18:39.999Z</time></trkpt><trkpt lat="45.082223061418325" lon="9.963572226594806"><ele>39.57142857142857</ele><time>2026-03-29T06:18:40.999Z</time></trkpt><trkpt lat="45.08216371650484" lon="9.963623806875434"><ele>39.42857142857143</ele><time>2026-03-29T06:18:41.999Z</time></trkpt><trkpt lat="45.082102610637854" lon="9.963673516701542"><ele>39.285714285714285</ele><time>2026-03-29T06:18:42.999Z</time></trkpt><trkpt lat="45.082044210856196" lon="9.963727177596837"><ele>39.142857142857146</ele><time>2026-03-29T06:18:43.999Z</time></trkpt><trkpt lat="45.08198064751432" lon="9.963779693392935"><ele>39.0</ele><time>2026-03-29T06:18:44.999Z</time></trkpt><trkpt lat="45.08191196909866" lon="9.963826309380002"><ele>39.0</ele><time>2026-03-29T06:18:45.999Z</time></trkpt><trkpt lat="45.08183901817536" lon="9.963867064249548"><ele>39.0</ele><time>2026-03-29T06:18:46.999Z</time></trkpt><trkpt lat="45.08176371626937" lon="9.963898973797377"><ele>39.0</ele><time>2026-03-29T06:18:47.999Z</time></trkpt><trkpt lat="45.08168377280118" lon="9.963921074740796"><ele>39.0</ele><time>2026-03-29T06:18:48.999Z</time></trkpt><trkpt lat="45.08160141535955" lon="9.963938595292104"><ele>39.0</ele><time>2026-03-29T06:18:49.999Z</time></trkpt><trkpt lat="45.08152135836653" lon="9.963953830539008"><ele>39.0</ele><time>2026-03-29T06:18:50.999Z</time></trkpt><trkpt lat="45.08144001535651" lon="9.963969252644146"><ele>39.0</ele><time>2026-03-29T06:18:51.999Z</time></trkpt><trkpt lat="45.08135618218673" lon="9.96398695929632"><ele>39.0</ele><time>2026-03-29T06:18:52.999Z</time></trkpt><trkpt lat="45.08127342423507" lon="9.964001720565431"><ele>39.0</ele><time>2026-03-29T06:18:53.999Z</time></trkpt><trkpt lat="45.08118988828829" lon="9.964016024082413"><ele>39.0</ele><time>2026-03-29T06:18:54.999Z</time></trkpt><trkpt lat="45.081106748554575" lon="9.964032685455432"><ele>39.0</ele><time>2026-03-29T06:18:55.999Z</time></trkpt><trkpt lat="45.08102321028046" lon="9.964052383716604"><ele>39.0</ele><time>2026-03-29T06:18:56.999Z</time></trkpt><trkpt lat="45.080940402588205" lon="9.964068218024053"><ele>39.0</ele><time>2026-03-29T06:18:57.999Z</time></trkpt><trkpt lat="45.08085608645358" lon="9.964083967734972"><ele>39.0</ele><time>2026-03-29T06:18:58.999Z</time></trkpt><trkpt lat="45.080773639645244" lon="9.964097674868038"><ele>39.0</ele><time>2026-03-29T06:18:59.999Z</time></trkpt><trkpt lat="45.08068968396861" lon="9.964116184368283"><ele>39.0</ele><time>2026-03-29T06:19:00.999Z</time></trkpt><trkpt lat="45.08060605238857" lon="9.964132418290328"><ele>39.0</ele><time>2026-03-29T06:19:01.999Z</time></trkpt><trkpt lat="45.08052325076426" lon="9.964148133938505"><ele>39.0</ele><time>2026-03-29T06:19:02.999Z</time></trkpt><trkpt lat="45.08044335364754" lon="9.964162263742358"><ele>38.666666666666664</ele><time>2026-03-29T06:19:03.999Z</time></trkpt><trkpt lat="45.08036058889958" lon="9.96418029327538"><ele>38.333333333333336</ele><time>2026-03-29T06:19:04.999Z</time></trkpt><trkpt lat="45.080278564796586" lon="9.964189843423478"><ele>38.0</ele><time>2026-03-29T06:19:05.999Z</time></trkpt><trkpt lat="45.08019493910242" lon="9.964196290589785"><ele>37.66666666666667</ele><time>2026-03-29T06:19:06.999Z</time></trkpt><trkpt lat="45.08011060984205" lon="9.964191237893013"><ele>37.333333333333336</ele><time>2026-03-29T06:19:07.999Z</time></trkpt><trkpt lat="45.08002905599251" lon="9.964173396170832"><ele>37.0</ele><time>2026-03-29T06:19:08.999Z</time></trkpt><trkpt lat="45.07994891967565" lon="9.964147408553597"><ele>36.833333333333336</ele><time>2026-03-29T06:19:09.999Z</time></trkpt><trkpt lat="45.07986915640051" lon="9.964109851777707"><ele>36.66666666666667</ele><time>2026-03-29T06:19:10.999Z</time></trkpt><trkpt lat="45.07979157803511" lon="9.96406551708803"><ele>36.5</ele><time>2026-03-29T06:19:11.999Z</time></trkpt><trkpt lat="45.0797189981141" lon="9.964010351923944"><ele>36.333333333333336</ele><time>2026-03-29T06:19:12.998Z</time></trkpt><trkpt lat="45.079651468303204" lon="9.96395004421272"><ele>36.166666666666664</ele><time>2026-03-29T06:19:13.998Z</time></trkpt><trkpt lat="45.07958374554344" lon="9.963887973024532"><ele>36.0</ele><time>2026-03-29T06:19:14.998Z</time></trkpt><trkpt lat="45.07951800575008" lon="9.963825078162905"><ele>36.0</ele><time>2026-03-29T06:19:15.998Z</time></trkpt><trkpt lat="45.07945251442489" lon="9.963761949306962"><ele>36.0</ele><time>2026-03-29T06:19:16.998Z</time></trkpt><trkpt lat="45.07938657711549" lon="9.963699028499889"><ele>36.0</ele><time>2026-03-29T06:19:17.998Z</time></trkpt><trkpt lat="45.07932173015462" lon="9.963635738582038"><ele>36.0</ele><time>2026-03-29T06:19:18.998Z</time></trkpt><trkpt lat="45.079255726305625" lon="9.963572105603669"><ele>36.0</ele><time>2026-03-29T06:19:19.998Z</time></trkpt><trkpt lat="45.079189729885286" lon="9.963508045652286"><ele>36.0</ele><time>2026-03-29T06:19:20.998Z</time></trkpt><trkpt lat="45.07912384257886" lon="9.963444053494472"><ele>36.0</ele><time>2026-03-29T06:19:21.998Z</time></trkpt><trkpt lat="45.07905895656147" lon="9.963379649818652"><ele>36.0</ele><time>2026-03-29T06:19:22.998Z</time></trkpt><trkpt lat="45.07899347113074" lon="9.963313538802502"><ele>36.0</ele><time>2026-03-29T06:19:23.998Z</time></trkpt><trkpt lat="45.078927871225126" lon="9.963248377573857"><ele>36.0</ele><time>2026-03-29T06:19:24.998Z</time></trkpt><trkpt lat="45.07886198696852" lon="9.96318454873773"><ele>36.0</ele><time>2026-03-29T06:19:25.998Z</time></trkpt><trkpt lat="45.07879433164718" lon="9.963122807624334"><ele>36.0</ele><time>2026-03-29T06:19:26.998Z</time></trkpt><trkpt lat="45.07872315520835" lon="9.963065147666304"><ele>36.0</ele><time>2026-03-29T06:19:27.998Z</time></trkpt><trkpt lat="45.078650437318274" lon="9.963011116783616"><ele>36.0</ele><time>2026-03-29T06:19:28.998Z</time></trkpt><trkpt lat="45.078574791196274" lon="9.962964660171105"><ele>36.0</ele><time>2026-03-29T06:19:29.998Z</time></trkpt><trkpt lat="45.07849835339926" lon="9.962924046968036"><ele>36.0</ele><time>2026-03-29T06:19:30.998Z</time></trkpt><trkpt lat="45.07842082671446" lon="9.96288590381891"><ele>36.0</ele><time>2026-03-29T06:19:31.998Z</time></trkpt><trkpt lat="45.078343088255956" lon="9.962849822060244"><ele>36.0</ele><time>2026-03-29T06:19:32.998Z</time></trkpt><trkpt lat="45.07826415933813" lon="9.962816152330488"><ele>36.333333333333336</ele><time>2026-03-29T06:19:33.998Z</time></trkpt><trkpt lat="45.07818750009214" lon="9.96278590502006"><ele>36.666666666666664</ele><time>2026-03-29T06:19:34.998Z</time></trkpt><trkpt lat="45.07810876655838" lon="9.962755790506106"><ele>37.0</ele><time>2026-03-29T06:19:35.998Z</time></trkpt><trkpt lat="45.078033139544964" lon="9.962723167736193"><ele>37.33333333333333</ele><time>2026-03-29T06:19:36.998Z</time></trkpt><trkpt lat="45.07795452105677" lon="9.962693033395707"><ele>37.666666666666664</ele><time>2026-03-29T06:19:37.998Z</time></trkpt><trkpt lat="45.077877597441045" lon="9.96265934635856"><ele>38.0</ele><time>2026-03-29T06:19:38.998Z</time></trkpt><trkpt lat="45.07779786474321" lon="9.96262246949298"><ele>38.0</ele><time>2026-03-29T06:19:39.998Z</time></trkpt><trkpt lat="45.077718485421585" lon="9.962587262613345"><ele>38.0</ele><time>2026-03-29T06:19:40.998Z</time></trkpt><trkpt lat="45.07763941371407" lon="9.962555746714168"><ele>38.0</ele><time>2026-03-29T06:19:41.998Z</time></trkpt><trkpt lat="45.077559391421325" lon="9.962523067473166"><ele>38.0</ele><time>2026-03-29T06:19:42.998Z</time></trkpt><trkpt lat="45.07748049901432" lon="9.962493043798164"><ele>38.0</ele><time>2026-03-29T06:19:43.998Z</time></trkpt><trkpt lat="45.07740254620749" lon="9.962460948648895"><ele>38.0</ele><time>2026-03-29T06:19:44.998Z</time></trkpt><trkpt lat="45.07732592658591" lon="9.962429649155654"><ele>38.0</ele><time>2026-03-29T06:19:45.998Z</time></trkpt><trkpt lat="45.07724980643798" lon="9.962394588593202"><ele>38.0</ele><time>2026-03-29T06:19:46.998Z</time></trkpt><trkpt lat="45.07717262496734" lon="9.962360431647898"><ele>38.0</ele><time>2026-03-29T06:19:47.998Z</time></trkpt><trkpt lat="45.07709695327507" lon="9.96232622173779"><ele>38.0</ele><time>2026-03-29T06:19:48.998Z</time></trkpt><trkpt lat="45.07702124768719" lon="9.962289603712032"><ele>38.0</ele><time>2026-03-29T06:19:49.998Z</time></trkpt><trkpt lat="45.0769454104005" lon="9.962256163196914"><ele>38.0</ele><time>2026-03-29T06:19:51Z</time></trkpt><trkpt lat="45.07687303821298" lon="9.962217629515031"><ele>38.0</ele><time>2026-03-29T06:19:52Z</time></trkpt><trkpt lat="45.07680116486538" lon="9.962174029329182"><ele>38.0</ele><time>2026-03-29T06:19:53Z</time></trkpt><trkpt lat="45.07673169654398" lon="9.962124985175011"><ele>38.0</ele><time>2026-03-29T06:19:54Z</time></trkpt><trkpt lat="45.076661625590816" lon="9.962075725833307"><ele>38.0</ele><time>2026-03-29T06:19:55Z</time></trkpt><trkpt lat="45.07659134083486" lon="9.962021627331303"><ele>38.0</ele><time>2026-03-29T06:19:56Z</time></trkpt><trkpt lat="45.07652194461275" lon="9.961966949327774"><ele>38.0</ele><time>2026-03-29T06:19:57Z</time></trkpt><trkpt lat="45.0764542764844" lon="9.961911930628933"><ele>38.0</ele><time>2026-03-29T06:19:58Z</time></trkpt><trkpt lat="45.07638696426647" lon="9.96185303053341"><ele>38.0</ele><time>2026-03-29T06:19:59Z</time></trkpt><trkpt lat="45.076319418492695" lon="9.961795758432638"><ele>38.0</ele><time>2026-03-29T06:20:00Z</time></trkpt><trkpt lat="45.07625510794982" lon="9.961738066189636"><ele>38.0</ele><time>2026-03-29T06:20:01Z</time></trkpt><trkpt lat="45.07619246588704" lon="9.96167451089157"><ele>38.0</ele><time>2026-03-29T06:20:02Z</time></trkpt><trkpt lat="45.07613118072375" lon="9.961602201200435"><ele>38.0</ele><time>2026-03-29T06:20:03Z</time></trkpt><trkpt lat="45.076073440184885" lon="9.961528948814287"><ele>38.0</ele><time>2026-03-29T06:20:04Z</time></trkpt><trkpt lat="45.07601986525746" lon="9.961448684702127"><ele>38.0</ele><time>2026-03-29T06:20:05Z</time></trkpt><trkpt lat="45.07596504530794" lon="9.961367458485164"><ele>38.0</ele><time>2026-03-29T06:20:06Z</time></trkpt><trkpt lat="45.075911894663975" lon="9.961287984326171"><ele>38.0</ele><time>2026-03-29T06:20:07Z</time></trkpt><trkpt lat="45.075859243142595" lon="9.96120571195542"><ele>38.0</ele><time>2026-03-29T06:20:08Z</time></trkpt><trkpt lat="45.07580722535462" lon="9.961119290018903"><ele>38.0</ele><time>2026-03-29T06:20:09Z</time></trkpt><trkpt lat="45.0757564198554" lon="9.961032428751391"><ele>38.166666666666664</ele><time>2026-03-29T06:20:10Z</time></trkpt><trkpt lat="45.0757057692986" lon="9.96094678543416"><ele>38.33333333333333</ele><time>2026-03-29T06:20:11Z</time></trkpt><trkpt lat="45.07565794849459" lon="9.960858839288809"><ele>38.5</ele><time>2026-03-29T06:20:12Z</time></trkpt><trkpt lat="45.07560844842176" lon="9.960768220807305"><ele>38.666666666666664</ele><time>2026-03-29T06:20:13Z</time></trkpt><trkpt lat="45.07556009282795" lon="9.960678640187979"><ele>38.833333333333336</ele><time>2026-03-29T06:20:14Z</time></trkpt><trkpt lat="45.07551149588243" lon="9.960590992275634"><ele>39.0</ele><time>2026-03-29T06:20:15Z</time></trkpt><trkpt lat="45.075463517492096" lon="9.960502635079953"><ele>39.0</ele><time>2026-03-29T06:20:16Z</time></trkpt><trkpt lat="45.07541622692356" lon="9.960412164806558"><ele>39.0</ele><time>2026-03-29T06:20:17Z</time></trkpt><trkpt lat="45.07537116740892" lon="9.960320241821115"><ele>39.0</ele><time>2026-03-29T06:20:18Z</time></trkpt><trkpt lat="45.07532855529677" lon="9.960225423000432"><ele>39.0</ele><time>2026-03-29T06:20:19Z</time></trkpt><trkpt lat="45.07528522479463" lon="9.960131952699953"><ele>39.0</ele><time>2026-03-29T06:20:20Z</time></trkpt><trkpt lat="45.07524204193329" lon="9.960038035241823"><ele>39.0</ele><time>2026-03-29T06:20:21Z</time></trkpt><trkpt lat="45.07519914851618" lon="9.95994275879845"><ele>39.0</ele><time>2026-03-29T06:20:22Z</time></trkpt><trkpt lat="45.075161799551445" lon="9.959846410329353"><ele>39.0</ele><time>2026-03-29T06:20:22.999Z</time></trkpt><trkpt lat="45.07512524366179" lon="9.95974711356515"><ele>39.0</ele><time>2026-03-29T06:20:23.999Z</time></trkpt><trkpt lat="45.07508723086172" lon="9.95964978929367"><ele>39.0</ele><time>2026-03-29T06:20:24.999Z</time></trkpt><trkpt lat="45.07505113939802" lon="9.959550088299117"><ele>39.0</ele><time>2026-03-29T06:20:25.999Z</time></trkpt><trkpt lat="45.07503301715084" lon="9.959439419658041"><ele>39.0</ele><time>2026-03-29T06:20:26.999Z</time></trkpt><trkpt lat="45.074999772877355" lon="9.959335616263862"><ele>39.0</ele><time>2026-03-29T06:20:27.999Z</time></trkpt><trkpt lat="45.0749640558336" lon="9.95923393772924"><ele>39.0</ele><time>2026-03-29T06:20:28.999Z</time></trkpt><trkpt lat="45.07492718551711" lon="9.959132535305026"><ele>39.0</ele><time>2026-03-29T06:20:29.999Z</time></trkpt><trkpt lat="45.07488937079408" lon="9.959033440349756"><ele>39.0</ele><time>2026-03-29T06:20:30.999Z</time></trkpt><trkpt lat="45.07484916429342" lon="9.958930702151369"><ele>39.0</ele><time>2026-03-29T06:20:31.999Z</time></trkpt><trkpt lat="45.074795492498254" lon="9.95884307031344"><ele>39.0</ele><time>2026-03-29T06:20:32.999Z</time></trkpt><trkpt lat="45.07475925231051" lon="9.95874636184915"><ele>38.833333333333336</ele><time>2026-03-29T06:20:33.999Z</time></trkpt><trkpt lat="45.074722329352966" lon="9.958651443500692"><ele>38.666666666666664</ele><time>2026-03-29T06:20:34.999Z</time></trkpt><trkpt lat="45.074683932193814" lon="9.958557026989553"><ele>38.5</ele><time>2026-03-29T06:20:35.999Z</time></trkpt><trkpt lat="45.07464370121613" lon="9.958462974439342"><ele>38.33333333333333</ele><time>2026-03-29T06:20:36.999Z</time></trkpt><trkpt lat="45.074600561342805" lon="9.958368882252088"><ele>38.166666666666664</ele><time>2026-03-29T06:20:37.999Z</time></trkpt><trkpt lat="45.07455752040313" lon="9.958274921512908"><ele>38.0</ele><time>2026-03-29T06:20:38.999Z</time></trkpt><trkpt lat="45.07451200678121" lon="9.958183608996066"><ele>38.0</ele><time>2026-03-29T06:20:39.999Z</time></trkpt><trkpt lat="45.07446592101942" lon="9.958090447812266"><ele>38.0</ele><time>2026-03-29T06:20:40.999Z</time></trkpt><trkpt lat="45.07441889085274" lon="9.957999879289071"><ele>38.0</ele><time>2026-03-29T06:20:41.999Z</time></trkpt><trkpt lat="45.07437019859095" lon="9.957908922480717"><ele>38.0</ele><time>2026-03-29T06:20:42.999Z</time></trkpt><trkpt lat="45.074317747272836" lon="9.957821573324596"><ele>38.0</ele><time>2026-03-29T06:20:43.999Z</time></trkpt><trkpt lat="45.07427562755914" lon="9.957722329787215"><ele>38.0</ele><time>2026-03-29T06:20:44.999Z</time></trkpt><trkpt lat="45.074206822696645" lon="9.957655522301298"><ele>38.0</ele><time>2026-03-29T06:20:45.999Z</time></trkpt><trkpt lat="45.07415009380548" lon="9.957575019558993"><ele>38.0</ele><time>2026-03-29T06:20:46.999Z</time></trkpt><trkpt lat="45.074090590568346" lon="9.957499391701443"><ele>38.0</ele><time>2026-03-29T06:20:47.999Z</time></trkpt><trkpt lat="45.07402845365921" lon="9.957424481849975"><ele>38.0</ele><time>2026-03-29T06:20:48.999Z</time></trkpt><trkpt lat="45.073966789913776" lon="9.957350348049166"><ele>38.0</ele><time>2026-03-29T06:20:49.999Z</time></trkpt><trkpt lat="45.07390375676576" lon="9.957276456999333"><ele>38.0</ele><time>2026-03-29T06:20:50.999Z</time></trkpt><trkpt lat="45.073841625998234" lon="9.95720428155743"><ele>37.666666666666664</ele><time>2026-03-29T06:20:51.999Z</time></trkpt><trkpt lat="45.07377885373233" lon="9.957134136483816"><ele>37.33333333333333</ele><time>2026-03-29T06:20:52.999Z</time></trkpt><trkpt lat="45.07371552872552" lon="9.95706259569377"><ele>37.0</ele><time>2026-03-29T06:20:53.999Z</time></trkpt><trkpt lat="45.073653678554614" lon="9.956992237881424"><ele>36.666666666666664</ele><time>2026-03-29T06:20:54.999Z</time></trkpt><trkpt lat="45.073591549905316" lon="9.956920498288294"><ele>36.333333333333336</ele><time>2026-03-29T06:20:55.999Z</time></trkpt><trkpt lat="45.07352937031276" lon="9.956850029037112"><ele>36.0</ele><time>2026-03-29T06:20:56.999Z</time></trkpt><trkpt lat="45.073467119016996" lon="9.956778058049352"><ele>36.0</ele><time>2026-03-29T06:20:57.999Z</time></trkpt><trkpt lat="45.073404470618456" lon="9.956709462401125"><ele>36.0</ele><time>2026-03-29T06:20:58.999Z</time></trkpt><trkpt lat="45.073342385807656" lon="9.9566397301162"><ele>36.0</ele><time>2026-03-29T06:20:59.999Z</time></trkpt><trkpt lat="45.073282512192556" lon="9.95656842327941"><ele>36.0</ele><time>2026-03-29T06:21:00.999Z</time></trkpt><trkpt lat="45.073221518544585" lon="9.956497999905428"><ele>36.0</ele><time>2026-03-29T06:21:01.999Z</time></trkpt><trkpt lat="45.073160196784535" lon="9.956428960166049"><ele>36.0</ele><time>2026-03-29T06:21:02.999Z</time></trkpt><trkpt lat="45.07309883440221" lon="9.956357829580663"><ele>35.833333333333336</ele><time>2026-03-29T06:21:03.999Z</time></trkpt><trkpt lat="45.07303802828434" lon="9.956288161918817"><ele>35.666666666666664</ele><time>2026-03-29T06:21:04.999Z</time></trkpt><trkpt lat="45.072977656807616" lon="9.956218286267184"><ele>35.5</ele><time>2026-03-29T06:21:05.999Z</time></trkpt><trkpt lat="45.072917315969" lon="9.956145731458582"><ele>35.33333333333333</ele><time>2026-03-29T06:21:06.999Z</time></trkpt><trkpt lat="45.07285845278767" lon="9.956072761694417"><ele>35.166666666666664</ele><time>2026-03-29T06:21:07.999Z</time></trkpt><trkpt lat="45.072800857799336" lon="9.955997892788522"><ele>35.0</ele><time>2026-03-29T06:21:08.999Z</time></trkpt><trkpt lat="45.07274204850114" lon="9.955926380884886"><ele>35.0</ele><time>2026-03-29T06:21:09.999Z</time></trkpt><trkpt lat="45.07268308925191" lon="9.955854837892721"><ele>35.0</ele><time>2026-03-29T06:21:10.999Z</time></trkpt><trkpt lat="45.07262341174823" lon="9.955783411037965"><ele>35.0</ele><time>2026-03-29T06:21:11.999Z</time></trkpt><trkpt lat="45.07256428108981" lon="9.955713894821782"><ele>35.0</ele><time>2026-03-29T06:21:12.999Z</time></trkpt><trkpt lat="45.07250428689688" lon="9.955646453366445"><ele>35.0</ele><time>2026-03-29T06:21:13.999Z</time></trkpt><trkpt lat="45.072444734470835" lon="9.95557541461731"><ele>35.0</ele><time>2026-03-29T06:21:14.999Z</time></trkpt><trkpt lat="45.072385786450205" lon="9.955505196928767"><ele>35.0</ele><time>2026-03-29T06:21:15.999Z</time></trkpt><trkpt lat="45.07232568782506" lon="9.955436340114474"><ele>35.0</ele><time>2026-03-29T06:21:16.999Z</time></trkpt><trkpt lat="45.07226550950311" lon="9.955368807088842"><ele>35.0</ele><time>2026-03-29T06:21:17.998Z</time></trkpt><trkpt lat="45.07220702147457" lon="9.955299348747609"><ele>35.0</ele><time>2026-03-29T06:21:18.998Z</time></trkpt><trkpt lat="45.072149370183546" lon="9.955228273880897"><ele>35.0</ele><time>2026-03-29T06:21:19.998Z</time></trkpt><trkpt lat="45.072091679631704" lon="9.955158514568641"><ele>35.0</ele><time>2026-03-29T06:21:20.998Z</time></trkpt><trkpt lat="45.072032818885944" lon="9.95509155404107"><ele>34.83333333333333</ele><time>2026-03-29T06:21:21.998Z</time></trkpt><trkpt lat="45.07197208689122" lon="9.955023531745441"><ele>34.666666666666664</ele><time>2026-03-29T06:21:22.998Z</time></trkpt><trkpt lat="45.0719127161125" lon="9.954954441519613"><ele>34.5</ele><time>2026-03-29T06:21:23.998Z</time></trkpt><trkpt lat="45.071853285867206" lon="9.954884443222493"><ele>34.333333333333336</ele><time>2026-03-29T06:21:24.998Z</time></trkpt><trkpt lat="45.07179213316354" lon="9.954813659757793"><ele>34.16666666666667</ele><time>2026-03-29T06:21:25.998Z</time></trkpt><trkpt lat="45.07173361120239" lon="9.954743668305532"><ele>34.0</ele><time>2026-03-29T06:21:26.998Z</time></trkpt><trkpt lat="45.07167475582645" lon="9.954672568015258"><ele>34.0</ele><time>2026-03-29T06:21:27.998Z</time></trkpt><trkpt lat="45.071613651424435" lon="9.954602044140227"><ele>34.0</ele><time>2026-03-29T06:21:28.998Z</time></trkpt><trkpt lat="45.07155369191235" lon="9.954531278625126"><ele>34.0</ele><time>2026-03-29T06:21:29.998Z</time></trkpt><trkpt lat="45.07149189823044" lon="9.954458903616102"><ele>34.0</ele><time>2026-03-29T06:21:30.998Z</time></trkpt><trkpt lat="45.07142977125051" lon="9.95438500714729"><ele>34.0</ele><time>2026-03-29T06:21:31.998Z</time></trkpt><trkpt lat="45.07136823594431" lon="9.954314631008682"><ele>34.0</ele><time>2026-03-29T06:21:32.998Z</time></trkpt><trkpt lat="45.07130538062812" lon="9.95424254617477"><ele>34.66666666666667</ele><time>2026-03-29T06:21:33.998Z</time></trkpt><trkpt lat="45.0712447908659" lon="9.954169767366766"><ele>35.333333333333336</ele><time>2026-03-29T06:21:34.998Z</time></trkpt><trkpt lat="45.07118362317204" lon="9.954096879120206"><ele>36.0</ele><time>2026-03-29T06:21:35.998Z</time></trkpt><trkpt lat="45.07112289982431" lon="9.954024284737313"><ele>36.666666666666664</ele><time>2026-03-29T06:21:36.998Z</time></trkpt><trkpt lat="45.07106137738572" lon="9.953953808557246"><ele>37.33333333333333</ele><time>2026-03-29T06:21:37.998Z</time></trkpt><trkpt lat="45.07099992988076" lon="9.953883863321074"><ele>38.0</ele><time>2026-03-29T06:21:38.998Z</time></trkpt><trkpt lat="45.0709402851462" lon="9.953816893794121"><ele>38.0</ele><time>2026-03-29T06:21:39.998Z</time></trkpt><trkpt lat="45.07088023059058" lon="9.953750867859759"><ele>38.0</ele><time>2026-03-29T06:21:40.998Z</time></trkpt><trkpt lat="45.07081868519277" lon="9.953683641569844"><ele>38.0</ele><time>2026-03-29T06:21:41.998Z</time></trkpt><trkpt lat="45.070758224418704" lon="9.953615455250793"><ele>38.0</ele><time>2026-03-29T06:21:42.998Z</time></trkpt><trkpt lat="45.07069807564453" lon="9.953542538334068"><ele>38.0</ele><time>2026-03-29T06:21:43.998Z</time></trkpt><trkpt lat="45.07063857481997" lon="9.953474310830677"><ele>38.0</ele><time>2026-03-29T06:21:44.998Z</time></trkpt><trkpt lat="45.070580181842416" lon="9.95340588993437"><ele>37.857142857142854</ele><time>2026-03-29T06:21:45.998Z</time></trkpt><trkpt lat="45.07052267491945" lon="9.953340253484303"><ele>37.714285714285715</ele><time>2026-03-29T06:21:46.998Z</time></trkpt><trkpt lat="45.07046595137038" lon="9.953270896410066"><ele>37.57142857142857</ele><time>2026-03-29T06:21:47.998Z</time></trkpt><trkpt lat="45.07041196862032" lon="9.953201434933266"><ele>37.42857142857143</ele><time>2026-03-29T06:21:48.998Z</time></trkpt><trkpt lat="45.07035788583001" lon="9.953131610558692"><ele>37.285714285714285</ele><time>2026-03-29T06:21:49.998Z</time></trkpt><trkpt lat="45.07030310271123" lon="9.953059796486718"><ele>37.142857142857146</ele><time>2026-03-29T06:21:50.998Z</time></trkpt><trkpt lat="45.07024722192388" lon="9.95298679457523"><ele>37.0</ele><time>2026-03-29T06:21:51.998Z</time></trkpt><trkpt lat="45.07019006568052" lon="9.952917730053471"><ele>37.0</ele><time>2026-03-29T06:21:52.998Z</time></trkpt><trkpt lat="45.07013209129163" lon="9.952850498037899"><ele>37.0</ele><time>2026-03-29T06:21:53.998Z</time></trkpt><trkpt lat="45.07007235027938" lon="9.952783117476022"><ele>37.0</ele><time>2026-03-29T06:21:54.998Z</time></trkpt><trkpt lat="45.07001285987655" lon="9.952715500434165"><ele>37.0</ele><time>2026-03-29T06:21:55.998Z</time></trkpt><trkpt lat="45.0699525942154" lon="9.95264677816132"><ele>37.0</ele><time>2026-03-29T06:21:57Z</time></trkpt><trkpt lat="45.06989409176499" lon="9.952575299603614"><ele>37.0</ele><time>2026-03-29T06:21:58Z</time></trkpt><trkpt lat="45.06983497252337" lon="9.952504704154377"><ele>37.0</ele><time>2026-03-29T06:21:59Z</time></trkpt><trkpt lat="45.06977589095493" lon="9.952434852866014"><ele>37.0</ele><time>2026-03-29T06:22:00Z</time></trkpt><trkpt lat="45.069715990636084" lon="9.95236644401202"><ele>37.0</ele><time>2026-03-29T06:22:01Z</time></trkpt><trkpt lat="45.06965663825844" lon="9.952295420197554"><ele>37.0</ele><time>2026-03-29T06:22:02Z</time></trkpt><trkpt lat="45.069598105820766" lon="9.952225068900736"><ele>37.0</ele><time>2026-03-29T06:22:03Z</time></trkpt><trkpt lat="45.06953845131243" lon="9.952156506771837"><ele>37.0</ele><time>2026-03-29T06:22:04Z</time></trkpt><trkpt lat="45.06947883153231" lon="9.952089127157599"><ele>37.0</ele><time>2026-03-29T06:22:05Z</time></trkpt><trkpt lat="45.06941865150077" lon="9.952019518655357"><ele>37.0</ele><time>2026-03-29T06:22:06Z</time></trkpt><trkpt lat="45.069357764411116" lon="9.951951356213574"><ele>37.0</ele><time>2026-03-29T06:22:07Z</time></trkpt><trkpt lat="45.0692956195982" lon="9.951885359867884"><ele>37.0</ele><time>2026-03-29T06:22:08Z</time></trkpt><trkpt lat="45.06923369230639" lon="9.951816511002452"><ele>37.0</ele><time>2026-03-29T06:22:09Z</time></trkpt><trkpt lat="45.069185442236424" lon="9.951729055033232"><ele>37.0</ele><time>2026-03-29T06:22:10Z</time></trkpt><trkpt lat="45.06911602214785" lon="9.951675832481556"><ele>36.5</ele><time>2026-03-29T06:22:11Z</time></trkpt><trkpt lat="45.069058058879655" lon="9.95160838081283"><ele>36.0</ele><time>2026-03-29T06:22:12Z</time></trkpt><trkpt lat="45.0690103496768" lon="9.951521864149843"><ele>35.5</ele><time>2026-03-29T06:22:13Z</time></trkpt><trkpt lat="45.06895275699996" lon="9.951453713458093"><ele>35.0</ele><time>2026-03-29T06:22:14Z</time></trkpt><trkpt lat="45.06889448574429" lon="9.951384759792191"><ele>34.5</ele><time>2026-03-29T06:22:15Z</time></trkpt><trkpt lat="45.06883534511147" lon="9.951314777381901"><ele>34.0</ele><time>2026-03-29T06:22:16Z</time></trkpt><trkpt lat="45.06876752382423" lon="9.9512606967879"><ele>34.0</ele><time>2026-03-29T06:22:17Z</time></trkpt><trkpt lat="45.068709815081604" lon="9.95118946609466"><ele>34.0</ele><time>2026-03-29T06:22:18Z</time></trkpt><trkpt lat="45.06865240091506" lon="9.951115462297778"><ele>34.0</ele><time>2026-03-29T06:22:19Z</time></trkpt><trkpt lat="45.0685939332174" lon="9.951043192837037"><ele>34.0</ele><time>2026-03-29T06:22:20Z</time></trkpt><trkpt lat="45.06853555258861" lon="9.950973685947318"><ele>34.0</ele><time>2026-03-29T06:22:21Z</time></trkpt><trkpt lat="45.06847742070565" lon="9.95090560021591"><ele>34.0</ele><time>2026-03-29T06:22:22Z</time></trkpt><trkpt lat="45.06841781625833" lon="9.950835951477286"><ele>34.0</ele><time>2026-03-29T06:22:23Z</time></trkpt><trkpt lat="45.068357921769234" lon="9.950765800875624"><ele>34.0</ele><time>2026-03-29T06:22:24Z</time></trkpt><trkpt lat="45.06829732382341" lon="9.950697877953369"><ele>34.0</ele><time>2026-03-29T06:22:25Z</time></trkpt><trkpt lat="45.068236746804956" lon="9.950629361745822"><ele>34.0</ele><time>2026-03-29T06:22:26Z</time></trkpt><trkpt lat="45.06817407164962" lon="9.950566984456223"><ele>34.0</ele><time>2026-03-29T06:22:27Z</time></trkpt><trkpt lat="45.06810791718876" lon="9.95050580020888"><ele>34.0</ele><time>2026-03-29T06:22:27.999Z</time></trkpt><trkpt lat="45.06804249319933" lon="9.950444888203211"><ele>34.333333333333336</ele><time>2026-03-29T06:22:28.999Z</time></trkpt><trkpt lat="45.067977032084286" lon="9.95038471607399"><ele>34.66666666666667</ele><time>2026-03-29T06:22:29.999Z</time></trkpt><trkpt lat="45.06790974529243" lon="9.950328336676508"><ele>35.0</ele><time>2026-03-29T06:22:30.999Z</time></trkpt><trkpt lat="45.06784052929318" lon="9.950275831034249"><ele>35.333333333333336</ele><time>2026-03-29T06:22:31.999Z</time></trkpt><trkpt lat="45.067769086563686" lon="9.95022363766201"><ele>35.666666666666664</ele><time>2026-03-29T06:22:32.999Z</time></trkpt><trkpt lat="45.06769518869249" lon="9.95017113503334"><ele>36.0</ele><time>2026-03-29T06:22:33.999Z</time></trkpt><trkpt lat="45.06762254806425" lon="9.950120074985003"><ele>36.0</ele><time>2026-03-29T06:22:34.999Z</time></trkpt><trkpt lat="45.0675489534709" lon="9.950076432836557"><ele>36.0</ele><time>2026-03-29T06:22:35.999Z</time></trkpt><trkpt lat="45.067474223242066" lon="9.950030473749297"><ele>36.0</ele><time>2026-03-29T06:22:36.999Z</time></trkpt><trkpt lat="45.06739983427098" lon="9.949983188443769"><ele>36.0</ele><time>2026-03-29T06:22:37.999Z</time></trkpt><trkpt lat="45.06732567310585" lon="9.949937046535002"><ele>36.0</ele><time>2026-03-29T06:22:38.999Z</time></trkpt><trkpt lat="45.06725049976254" lon="9.94989153251335"><ele>36.0</ele><time>2026-03-29T06:22:39.999Z</time></trkpt><trkpt lat="45.067175871697884" lon="9.949846152323989"><ele>36.5</ele><time>2026-03-29T06:22:40.999Z</time></trkpt><trkpt lat="45.06710051246086" lon="9.949799970099093"><ele>37.0</ele><time>2026-03-29T06:22:41.999Z</time></trkpt><trkpt lat="45.06702577657044" lon="9.94975291393843"><ele>37.5</ele><time>2026-03-29T06:22:42.999Z</time></trkpt><trkpt lat="45.06695090930856" lon="9.94970458363331"><ele>38.0</ele><time>2026-03-29T06:22:43.999Z</time></trkpt><trkpt lat="45.06687707822931" lon="9.949659296992078"><ele>38.5</ele><time>2026-03-29T06:22:44.999Z</time></trkpt><trkpt lat="45.06680396325851" lon="9.949614022681917"><ele>39.0</ele><time>2026-03-29T06:22:45.999Z</time></trkpt><trkpt lat="45.06673090784973" lon="9.949570014666966"><ele>39.0</ele><time>2026-03-29T06:22:46.999Z</time></trkpt><trkpt lat="45.066657776811844" lon="9.94952534137544"><ele>39.0</ele><time>2026-03-29T06:22:47.999Z</time></trkpt><trkpt lat="45.066585717527374" lon="9.949481069888806"><ele>39.0</ele><time>2026-03-29T06:22:48.999Z</time></trkpt><trkpt lat="45.06651379106659" lon="9.949437104015102"><ele>39.0</ele><time>2026-03-29T06:22:49.999Z</time></trkpt><trkpt lat="45.066441534495574" lon="9.949394074764644"><ele>39.0</ele><time>2026-03-29T06:22:50.999Z</time></trkpt><trkpt lat="45.0663690997003" lon="9.949352898003337"><ele>39.0</ele><time>2026-03-29T06:22:51.999Z</time></trkpt><trkpt lat="45.066296538563584" lon="9.949312648405352"><ele>39.0</ele><time>2026-03-29T06:22:52.999Z</time></trkpt><trkpt lat="45.06622518392026" lon="9.949272023251616"><ele>39.0</ele><time>2026-03-29T06:22:53.999Z</time></trkpt><trkpt lat="45.066155361443414" lon="9.949231193903868"><ele>39.0</ele><time>2026-03-29T06:22:54.999Z</time></trkpt><trkpt lat="45.066086483823455" lon="9.949194482626032"><ele>39.0</ele><time>2026-03-29T06:22:55.999Z</time></trkpt><trkpt lat="45.066018358803234" lon="9.949155154076445"><ele>39.0</ele><time>2026-03-29T06:22:56.999Z</time></trkpt><trkpt lat="45.06595103191764" lon="9.949119928628889"><ele>39.0</ele><time>2026-03-29T06:22:57.999Z</time></trkpt><trkpt lat="45.06588363449574" lon="9.949082412332698"><ele>39.0</ele><time>2026-03-29T06:22:58.999Z</time></trkpt><trkpt lat="45.0658164981927" lon="9.94904443565374"><ele>39.142857142857146</ele><time>2026-03-29T06:22:59.999Z</time></trkpt><trkpt lat="45.06575157742807" lon="9.949007850815143"><ele>39.285714285714285</ele><time>2026-03-29T06:23:00.999Z</time></trkpt><trkpt lat="45.065688180097304" lon="9.948972615733254"><ele>39.42857142857143</ele><time>2026-03-29T06:23:01.999Z</time></trkpt><trkpt lat="45.065622492956" lon="9.948937801227975"><ele>39.57142857142857</ele><time>2026-03-29T06:23:02.999Z</time></trkpt><trkpt lat="45.06555677703954" lon="9.948903329800725"><ele>39.714285714285715</ele><time>2026-03-29T06:23:03.999Z</time></trkpt><trkpt lat="45.065489200990385" lon="9.948870057443179"><ele>39.857142857142854</ele><time>2026-03-29T06:23:04.999Z</time></trkpt><trkpt lat="45.06542081017497" lon="9.948835910920838"><ele>40.0</ele><time>2026-03-29T06:23:05.999Z</time></trkpt><trkpt lat="45.0653510394068" lon="9.948799874152607"><ele>40.0</ele><time>2026-03-29T06:23:06.999Z</time></trkpt><trkpt lat="45.065281469741755" lon="9.948765567054025"><ele>40.0</ele><time>2026-03-29T06:23:07.999Z</time></trkpt><trkpt lat="45.065211350762766" lon="9.948731912840438"><ele>40.0</ele><time>2026-03-29T06:23:08.999Z</time></trkpt><trkpt lat="45.06514051347832" lon="9.948698918266068"><ele>40.0</ele><time>2026-03-29T06:23:09.999Z</time></trkpt><trkpt lat="45.06506988314192" lon="9.948665910311714"><ele>40.0</ele><time>2026-03-29T06:23:10.999Z</time></trkpt><trkpt lat="45.06499854304268" lon="9.948628742464242"><ele>40.0</ele><time>2026-03-29T06:23:11.999Z</time></trkpt><trkpt lat="45.064928002249964" lon="9.948596131952373"><ele>40.0</ele><time>2026-03-29T06:23:12.999Z</time></trkpt><trkpt lat="45.06485794035636" lon="9.948564728956033"><ele>40.0</ele><time>2026-03-29T06:23:13.999Z</time></trkpt><trkpt lat="45.06478843576441" lon="9.948530785043534"><ele>40.0</ele><time>2026-03-29T06:23:14.999Z</time></trkpt><trkpt lat="45.064720516765924" lon="9.948497955259624"><ele>40.0</ele><time>2026-03-29T06:23:15.999Z</time></trkpt><trkpt lat="45.0646523182571" lon="9.94846964465903"><ele>40.0</ele><time>2026-03-29T06:23:16.999Z</time></trkpt><trkpt lat="45.06458298740558" lon="9.948438285169662"><ele>40.0</ele><time>2026-03-29T06:23:17.999Z</time></trkpt><trkpt lat="45.06451464400837" lon="9.948408984236124"><ele>40.0</ele><time>2026-03-29T06:23:18.999Z</time></trkpt><trkpt lat="45.06444601116558" lon="9.948377547004402"><ele>40.0</ele><time>2026-03-29T06:23:19.999Z</time></trkpt><trkpt lat="45.064377740454965" lon="9.948347531777063"><ele>40.0</ele><time>2026-03-29T06:23:20.999Z</time></trkpt><trkpt lat="45.06431082279826" lon="9.948312770926528"><ele>40.0</ele><time>2026-03-29T06:23:21.999Z</time></trkpt><trkpt lat="45.064244044808156" lon="9.948280784377879"><ele>40.0</ele><time>2026-03-29T06:23:22.999Z</time></trkpt><trkpt lat="45.06417848963106" lon="9.948250481986467"><ele>40.0</ele><time>2026-03-29T06:23:23.998Z</time></trkpt><trkpt lat="45.0641123104903" lon="9.948221913751283"><ele>40.0</ele><time>2026-03-29T06:23:24.998Z</time></trkpt><trkpt lat="45.06404577660468" lon="9.948190725930939"><ele>40.0</ele><time>2026-03-29T06:23:25.998Z</time></trkpt><trkpt lat="45.063978633234214" lon="9.948157951784626"><ele>40.0</ele><time>2026-03-29T06:23:26.998Z</time></trkpt><trkpt lat="45.06391277342147" lon="9.948126674965541"><ele>40.14285714285714</ele><time>2026-03-29T06:23:27.998Z</time></trkpt><trkpt lat="45.063845547830944" lon="9.948093594531338"><ele>40.285714285714285</ele><time>2026-03-29T06:23:28.998Z</time></trkpt><trkpt lat="45.063777016793196" lon="9.948063660933128"><ele>40.42857142857143</ele><time>2026-03-29T06:23:29.998Z</time></trkpt><trkpt lat="45.06370822961733" lon="9.948033038678696"><ele>40.57142857142857</ele><time>2026-03-29T06:23:30.998Z</time></trkpt><trkpt lat="45.06364026096673" lon="9.948001117304356"><ele>40.714285714285715</ele><time>2026-03-29T06:23:31.998Z</time></trkpt><trkpt lat="45.06357174524697" lon="9.947970123438147"><ele>40.857142857142854</ele><time>2026-03-29T06:23:32.998Z</time></trkpt><trkpt lat="45.06350293079785" lon="9.947939848069934"><ele>41.0</ele><time>2026-03-29T06:23:33.998Z</time></trkpt><trkpt lat="45.063434260973594" lon="9.94791033794728"><ele>40.99999999999999</ele><time>2026-03-29T06:23:34.998Z</time></trkpt><trkpt lat="45.063365061044244" lon="9.9478791191676"><ele>41.0</ele><time>2026-03-29T06:23:35.998Z</time></trkpt><trkpt lat="45.06329536977012" lon="9.947850108902868"><ele>41.0</ele><time>2026-03-29T06:23:36.998Z</time></trkpt><trkpt lat="45.063225143131426" lon="9.947818125399762"><ele>41.0</ele><time>2026-03-29T06:23:37.998Z</time></trkpt><trkpt lat="45.06315534887696" lon="9.947792164967783"><ele>41.0</ele><time>2026-03-29T06:23:38.998Z</time></trkpt><trkpt lat="45.06308299819705" lon="9.947769629225256"><ele>40.99999999999999</ele><time>2026-03-29T06:23:39.998Z</time></trkpt><trkpt lat="45.06300843334529" lon="9.947744247393468"><ele>41.0</ele><time>2026-03-29T06:23:40.998Z</time></trkpt><trkpt lat="45.062934638482254" lon="9.94771779246606"><ele>41.0</ele><time>2026-03-29T06:23:41.998Z</time></trkpt><trkpt lat="45.06286209471106" lon="9.947692612833997"><ele>41.0</ele><time>2026-03-29T06:23:42.998Z</time></trkpt><trkpt lat="45.062786978641896" lon="9.94766873322811"><ele>41.0</ele><time>2026-03-29T06:23:43.998Z</time></trkpt><trkpt lat="45.06271406127862" lon="9.94764563611947"><ele>41.0</ele><time>2026-03-29T06:23:44.998Z</time></trkpt><trkpt lat="45.06264023577226" lon="9.94762059302536"><ele>41.0</ele><time>2026-03-29T06:23:45.998Z</time></trkpt><trkpt lat="45.0625669548805" lon="9.9475949843145"><ele>41.0</ele><time>2026-03-29T06:23:46.998Z</time></trkpt><trkpt lat="45.06249364915433" lon="9.947567718122087"><ele>40.33333333333333</ele><time>2026-03-29T06:23:47.998Z</time></trkpt><trkpt lat="45.06242037590534" lon="9.947543509280644"><ele>39.666666666666664</ele><time>2026-03-29T06:23:48.998Z</time></trkpt><trkpt lat="45.062347457572784" lon="9.947518245202504"><ele>39.0</ele><time>2026-03-29T06:23:49.998Z</time></trkpt><trkpt lat="45.062274337789255" lon="9.947492875165961"><ele>38.333333333333336</ele><time>2026-03-29T06:23:50.998Z</time></trkpt><trkpt lat="45.06219932904042" lon="9.947465528860459"><ele>37.66666666666667</ele><time>2026-03-29T06:23:51.998Z</time></trkpt><trkpt lat="45.062126114911564" lon="9.947434065455965"><ele>37.0</ele><time>2026-03-29T06:23:52.998Z</time></trkpt><trkpt lat="45.06205142959987" lon="9.947403821833506"><ele>37.0</ele><time>2026-03-29T06:23:53.998Z</time></trkpt><trkpt lat="45.06197790650779" lon="9.947372617407106"><ele>37.0</ele><time>2026-03-29T06:23:54.998Z</time></trkpt><trkpt lat="45.06190430117513" lon="9.94734054037013"><ele>37.0</ele><time>2026-03-29T06:23:55.998Z</time></trkpt><trkpt lat="45.06183042453096" lon="9.947306756613779"><ele>37.0</ele><time>2026-03-29T06:23:56.998Z</time></trkpt><trkpt lat="45.06175617299394" lon="9.94727205873101"><ele>37.0</ele><time>2026-03-29T06:23:57.998Z</time></trkpt><trkpt lat="45.06168050420168" lon="9.947234152494605"><ele>37.0</ele><time>2026-03-29T06:23:58.998Z</time></trkpt><trkpt lat="45.06160327116233" lon="9.9471973235463"><ele>36.833333333333336</ele><time>2026-03-29T06:23:59.998Z</time></trkpt><trkpt lat="45.061526509046956" lon="9.947160196496794"><ele>36.66666666666667</ele><time>2026-03-29T06:24:00.998Z</time></trkpt><trkpt lat="45.06144917714155" lon="9.94712255341507"><ele>36.5</ele><time>2026-03-29T06:24:01.998Z</time></trkpt><trkpt lat="45.06137178256647" lon="9.947087019050185"><ele>36.333333333333336</ele><time>2026-03-29T06:24:03Z</time></trkpt><trkpt lat="45.06129448240858" lon="9.947049903910917"><ele>36.166666666666664</ele><time>2026-03-29T06:24:04Z</time></trkpt><trkpt lat="45.06121820763564" lon="9.947013504161205"><ele>36.0</ele><time>2026-03-29T06:24:05Z</time></trkpt><trkpt lat="45.061140973029616" lon="9.94697641030516"><ele>36.0</ele><time>2026-03-29T06:24:06Z</time></trkpt><trkpt lat="45.061064436553224" lon="9.946939160385371"><ele>36.0</ele><time>2026-03-29T06:24:07Z</time></trkpt><trkpt lat="45.06098671020557" lon="9.94690208236987"><ele>36.0</ele><time>2026-03-29T06:24:08Z</time></trkpt><trkpt lat="45.060909757321085" lon="9.94686379660781"><ele>36.0</ele><time>2026-03-29T06:24:09Z</time></trkpt><trkpt lat="45.06083225689231" lon="9.946825381779167"><ele>36.0</ele><time>2026-03-29T06:24:10Z</time></trkpt><trkpt lat="45.060755017962606" lon="9.946788673658173"><ele>36.0</ele><time>2026-03-29T06:24:11Z</time></trkpt><trkpt lat="45.06067902445574" lon="9.94675189936836"><ele>36.0</ele><time>2026-03-29T06:24:12Z</time></trkpt><trkpt lat="45.06060192482559" lon="9.946716284001507"><ele>36.0</ele><time>2026-03-29T06:24:13Z</time></trkpt><trkpt lat="45.06052553378656" lon="9.946680716965947"><ele>36.0</ele><time>2026-03-29T06:24:14Z</time></trkpt><trkpt lat="45.06044676189235" lon="9.946644350188413"><ele>36.0</ele><time>2026-03-29T06:24:15Z</time></trkpt><trkpt lat="45.060367987879914" lon="9.946609179329402"><ele>36.0</ele><time>2026-03-29T06:24:16Z</time></trkpt><trkpt lat="45.06028903195019" lon="9.946572674038855"><ele>36.0</ele><time>2026-03-29T06:24:17Z</time></trkpt><trkpt lat="45.0602119182952" lon="9.946537086169391"><ele>36.0</ele><time>2026-03-29T06:24:18Z</time></trkpt><trkpt lat="45.060134384543424" lon="9.946504551052628"><ele>36.0</ele><time>2026-03-29T06:24:19Z</time></trkpt><trkpt lat="45.06005623117042" lon="9.946474192396805"><ele>36.0</ele><time>2026-03-29T06:24:20Z</time></trkpt><trkpt lat="45.05997612832714" lon="9.946445067320278"><ele>36.0</ele><time>2026-03-29T06:24:21Z</time></trkpt><trkpt lat="45.059897129059415" lon="9.946416260615884"><ele>36.0</ele><time>2026-03-29T06:24:22Z</time></trkpt><trkpt lat="45.059817787266944" lon="9.946386832881958"><ele>36.0</ele><time>2026-03-29T06:24:23Z</time></trkpt><trkpt lat="45.059738829027786" lon="9.946358588219885"><ele>36.166666666666664</ele><time>2026-03-29T06:24:24Z</time></trkpt><trkpt lat="45.059658055417614" lon="9.946332641688793"><ele>36.333333333333336</ele><time>2026-03-29T06:24:25Z</time></trkpt><trkpt lat="45.059578233155264" lon="9.946310915033745"><ele>36.5</ele><time>2026-03-29T06:24:26Z</time></trkpt><trkpt lat="45.05949891827015" lon="9.946290457002252"><ele>36.66666666666667</ele><time>2026-03-29T06:24:27Z</time></trkpt><trkpt lat="45.05941960969607" lon="9.946270152495815"><ele>36.833333333333336</ele><time>2026-03-29T06:24:28Z</time></trkpt><trkpt lat="45.05934068208865" lon="9.946248992000877"><ele>37.0</ele><time>2026-03-29T06:24:29Z</time></trkpt><trkpt lat="45.05926315430029" lon="9.946230923103386"><ele>37.0</ele><time>2026-03-29T06:24:30Z</time></trkpt><trkpt lat="45.059184268693144" lon="9.946215340206312"><ele>37.0</ele><time>2026-03-29T06:24:31Z</time></trkpt><trkpt lat="45.059105682385834" lon="9.94619941790806"><ele>37.0</ele><time>2026-03-29T06:24:31.999Z</time></trkpt><trkpt lat="45.05902659063198" lon="9.946186716730995"><ele>37.0</ele><time>2026-03-29T06:24:32.999Z</time></trkpt><trkpt lat="45.05894666158836" lon="9.946174181241947"><ele>37.0</ele><time>2026-03-29T06:24:33.999Z</time></trkpt><trkpt lat="45.058867026302906" lon="9.946163586367504"><ele>37.0</ele><time>2026-03-29T06:24:34.999Z</time></trkpt><trkpt lat="45.058787654792035" lon="9.946154216640577"><ele>37.0</ele><time>2026-03-29T06:24:35.999Z</time></trkpt><trkpt lat="45.0587084372624" lon="9.946144801873864"><ele>37.0</ele><time>2026-03-29T06:24:36.999Z</time></trkpt><trkpt lat="45.058630752488206" lon="9.946136245532879"><ele>37.0</ele><time>2026-03-29T06:24:37.999Z</time></trkpt><trkpt lat="45.05855359544973" lon="9.946129666873217"><ele>37.0</ele><time>2026-03-29T06:24:38.999Z</time></trkpt><trkpt lat="45.05847592286074" lon="9.946123431141915"><ele>37.0</ele><time>2026-03-29T06:24:39.999Z</time></trkpt><trkpt lat="45.05839735369482" lon="9.94611795756481"><ele>37.0</ele><time>2026-03-29T06:24:40.999Z</time></trkpt><trkpt lat="45.058318088822666" lon="9.946118702098714"><ele>36.833333333333336</ele><time>2026-03-29T06:24:41.999Z</time></trkpt><trkpt lat="45.05823963107315" lon="9.94612046894629"><ele>36.66666666666667</ele><time>2026-03-29T06:24:42.999Z</time></trkpt><trkpt lat="45.058159859216794" lon="9.946123868898285"><ele>36.5</ele><time>2026-03-29T06:24:43.999Z</time></trkpt><trkpt lat="45.05808155478063" lon="9.946127848954117"><ele>36.333333333333336</ele><time>2026-03-29T06:24:44.999Z</time></trkpt><trkpt lat="45.05800344861147" lon="9.946129934261686"><ele>36.166666666666664</ele><time>2026-03-29T06:24:45.999Z</time></trkpt><trkpt lat="45.05792538651282" lon="9.946129934911514"><ele>36.0</ele><time>2026-03-29T06:24:46.999Z</time></trkpt><trkpt lat="45.05784585311054" lon="9.946133368294847"><ele>36.0</ele><time>2026-03-29T06:24:47.999Z</time></trkpt><trkpt lat="45.057769002482274" lon="9.946138711129606"><ele>36.0</ele><time>2026-03-29T06:24:48.999Z</time></trkpt><trkpt lat="45.05769095268246" lon="9.946141993843336"><ele>36.0</ele><time>2026-03-29T06:24:49.999Z</time></trkpt><trkpt lat="45.057612085964095" lon="9.946145194393429"><ele>36.0</ele><time>2026-03-29T06:24:50.999Z</time></trkpt><trkpt lat="45.05753446424316" lon="9.946148739279527"><ele>36.0</ele><time>2026-03-29T06:24:51.999Z</time></trkpt><trkpt lat="45.057454366626395" lon="9.94615315925143"><ele>36.0</ele><time>2026-03-29T06:24:52.999Z</time></trkpt><trkpt lat="45.05737629064849" lon="9.946157884478007"><ele>36.0</ele><time>2026-03-29T06:24:53.999Z</time></trkpt><trkpt lat="45.05729894656256" lon="9.946162863608073"><ele>36.0</ele><time>2026-03-29T06:24:54.999Z</time></trkpt><trkpt lat="45.05722163556586" lon="9.946166849240816"><ele>36.0</ele><time>2026-03-29T06:24:55.999Z</time></trkpt><trkpt lat="45.057145691235334" lon="9.946168956783504"><ele>36.0</ele><time>2026-03-29T06:24:56.999Z</time></trkpt><trkpt lat="45.057069368952675" lon="9.946170190770408"><ele>36.0</ele><time>2026-03-29T06:24:57.999Z</time></trkpt><trkpt lat="45.0569946443677" lon="9.94617130379016"><ele>36.0</ele><time>2026-03-29T06:24:58.999Z</time></trkpt><trkpt lat="45.05691998193023" lon="9.94617152990713"><ele>36.00000000000001</ele><time>2026-03-29T06:24:59.999Z</time></trkpt><trkpt lat="45.05684545758117" lon="9.946170082619357"><ele>36.0</ele><time>2026-03-29T06:25:00.999Z</time></trkpt><trkpt lat="45.056772196881795" lon="9.946164765237343"><ele>36.0</ele><time>2026-03-29T06:25:01.999Z</time></trkpt><trkpt lat="45.05670096957183" lon="9.946159240042649"><ele>36.0</ele><time>2026-03-29T06:25:02.999Z</time></trkpt><trkpt lat="45.05663039282532" lon="9.946152936937668"><ele>36.0</ele><time>2026-03-29T06:25:03.999Z</time></trkpt><trkpt lat="45.056560398818874" lon="9.946143643295578"><ele>36.00000000000001</ele><time>2026-03-29T06:25:04.999Z</time></trkpt><trkpt lat="45.05648979909723" lon="9.946134704728472"><ele>36.0</ele><time>2026-03-29T06:25:05.999Z</time></trkpt><trkpt lat="45.05642095475685" lon="9.946125451646541"><ele>36.28571428571429</ele><time>2026-03-29T06:25:06.999Z</time></trkpt><trkpt lat="45.056351565355726" lon="9.946109914096551"><ele>36.57142857142857</ele><time>2026-03-29T06:25:07.999Z</time></trkpt><trkpt lat="45.05628446002372" lon="9.946094919813552"><ele>36.85714285714286</ele><time>2026-03-29T06:25:08.999Z</time></trkpt><trkpt lat="45.05621576415275" lon="9.946078414465566"><ele>37.142857142857146</ele><time>2026-03-29T06:25:09.999Z</time></trkpt><trkpt lat="45.05614651955224" lon="9.946057223791833"><ele>37.42857142857143</ele><time>2026-03-29T06:25:10.999Z</time></trkpt><trkpt lat="45.056076332588916" lon="9.946036400278496"><ele>37.714285714285715</ele><time>2026-03-29T06:25:11.999Z</time></trkpt><trkpt lat="45.05601024598385" lon="9.94601395014024"><ele>38.0</ele><time>2026-03-29T06:25:12.999Z</time></trkpt><trkpt lat="45.05593903551379" lon="9.945991178815255"><ele>38.0</ele><time>2026-03-29T06:25:13.999Z</time></trkpt><trkpt lat="45.05586915851011" lon="9.945961002896967"><ele>38.0</ele><time>2026-03-29T06:25:14.999Z</time></trkpt><trkpt lat="45.05579750756074" lon="9.945931626068399"><ele>38.0</ele><time>2026-03-29T06:25:15.999Z</time></trkpt><trkpt lat="45.05572912103218" lon="9.945906078613238"><ele>38.0</ele><time>2026-03-29T06:25:16.999Z</time></trkpt><trkpt lat="45.05565800021215" lon="9.945875996213838"><ele>38.0</ele><time>2026-03-29T06:25:17.999Z</time></trkpt><trkpt lat="45.055590440640735" lon="9.945846042386137"><ele>38.0</ele><time>2026-03-29T06:25:18.999Z</time></trkpt><trkpt lat="45.05552056799532" lon="9.945812374360553"><ele>38.0</ele><time>2026-03-29T06:25:19.999Z</time></trkpt><trkpt lat="45.05545086754522" lon="9.945774434063862"><ele>38.0</ele><time>2026-03-29T06:25:20.999Z</time></trkpt><trkpt lat="45.05537803187842" lon="9.945734856376863"><ele>38.0</ele><time>2026-03-29T06:25:21.999Z</time></trkpt><trkpt lat="45.05530514291468" lon="9.94569750977531"><ele>38.0</ele><time>2026-03-29T06:25:22.999Z</time></trkpt><trkpt lat="45.05523121901181" lon="9.945657090413398"><ele>38.0</ele><time>2026-03-29T06:25:23.999Z</time></trkpt><trkpt lat="45.05515827481622" lon="9.94561652809406"><ele>38.0</ele><time>2026-03-29T06:25:24.999Z</time></trkpt><trkpt lat="45.055085864736235" lon="9.945576207984194"><ele>38.0</ele><time>2026-03-29T06:25:25.999Z</time></trkpt><trkpt lat="45.05501445479186" lon="9.945535557849016"><ele>37.83333333333333</ele><time>2026-03-29T06:25:26.998Z</time></trkpt><trkpt lat="45.05494208924349" lon="9.945498058611976"><ele>37.666666666666664</ele><time>2026-03-29T06:25:27.998Z</time></trkpt><trkpt lat="45.054868240121905" lon="9.94545807198839"><ele>37.5</ele><time>2026-03-29T06:25:28.998Z</time></trkpt><trkpt lat="45.05479533118758" lon="9.94541718394461"><ele>37.333333333333336</ele><time>2026-03-29T06:25:29.998Z</time></trkpt><trkpt lat="45.054723480211244" lon="9.945376864942446"><ele>37.16666666666667</ele><time>2026-03-29T06:25:30.998Z</time></trkpt><trkpt lat="45.05465041932279" lon="9.945337438239955"><ele>37.0</ele><time>2026-03-29T06:25:31.998Z</time></trkpt><trkpt lat="45.054576765192046" lon="9.945298712376456"><ele>37.0</ele><time>2026-03-29T06:25:32.998Z</time></trkpt><trkpt lat="45.05450267274791" lon="9.94525896010211"><ele>37.0</ele><time>2026-03-29T06:25:33.998Z</time></trkpt><trkpt lat="45.054428433309866" lon="9.945218462802854"><ele>37.0</ele><time>2026-03-29T06:25:34.998Z</time></trkpt><trkpt lat="45.054356970900386" lon="9.94517992784047"><ele>37.0</ele><time>2026-03-29T06:25:35.998Z</time></trkpt><trkpt lat="45.05428503530676" lon="9.945138132798627"><ele>37.0</ele><time>2026-03-29T06:25:36.998Z</time></trkpt><trkpt lat="45.05421034159818" lon="9.94509772218318"><ele>37.0</ele><time>2026-03-29T06:25:37.998Z</time></trkpt><trkpt lat="45.05413643739507" lon="9.945058067640947"><ele>37.16666666666667</ele><time>2026-03-29T06:25:38.998Z</time></trkpt><trkpt lat="45.0540637523976" lon="9.945016864472533"><ele>37.333333333333336</ele><time>2026-03-29T06:25:39.998Z</time></trkpt><trkpt lat="45.05399121972911" lon="9.944976772545129"><ele>37.5</ele><time>2026-03-29T06:25:40.998Z</time></trkpt><trkpt lat="45.05391795663687" lon="9.944937469876788"><ele>37.666666666666664</ele><time>2026-03-29T06:25:41.998Z</time></trkpt><trkpt lat="45.053845190169945" lon="9.944897628234369"><ele>37.83333333333333</ele><time>2026-03-29T06:25:42.998Z</time></trkpt><trkpt lat="45.05377228588018" lon="9.944857815176114"><ele>38.0</ele><time>2026-03-29T06:25:43.998Z</time></trkpt><trkpt lat="45.053698901770105" lon="9.944818839199769"><ele>38.0</ele><time>2026-03-29T06:25:44.998Z</time></trkpt><trkpt lat="45.05362630801588" lon="9.944779853377938"><ele>38.0</ele><time>2026-03-29T06:25:45.998Z</time></trkpt><trkpt lat="45.05355360696098" lon="9.944740660364301"><ele>38.0</ele><time>2026-03-29T06:25:46.998Z</time></trkpt><trkpt lat="45.05348167875888" lon="9.944699929688431"><ele>38.0</ele><time>2026-03-29T06:25:47.998Z</time></trkpt><trkpt lat="45.053409806241994" lon="9.944657824811879"><ele>38.0</ele><time>2026-03-29T06:25:48.998Z</time></trkpt><trkpt lat="45.05333847235504" lon="9.944619260091029"><ele>38.0</ele><time>2026-03-29T06:25:49.998Z</time></trkpt><trkpt lat="45.05326466651981" lon="9.944579616529015"><ele>38.0</ele><time>2026-03-29T06:25:50.998Z</time></trkpt><trkpt lat="45.05319165294069" lon="9.944541184352705"><ele>38.0</ele><time>2026-03-29T06:25:51.998Z</time></trkpt><trkpt lat="45.0531189471981" lon="9.944504325196382"><ele>38.0</ele><time>2026-03-29T06:25:52.998Z</time></trkpt><trkpt lat="45.05304700184345" lon="9.944463829982547"><ele>38.0</ele><time>2026-03-29T06:25:53.998Z</time></trkpt><trkpt lat="45.05297425713183" lon="9.9444234636659"><ele>38.0</ele><time>2026-03-29T06:25:54.998Z</time></trkpt><trkpt lat="45.05290211608971" lon="9.944382757672678"><ele>38.0</ele><time>2026-03-29T06:25:55.998Z</time></trkpt><trkpt lat="45.0528298697495" lon="9.94434189024373"><ele>38.0</ele><time>2026-03-29T06:25:56.998Z</time></trkpt><trkpt lat="45.05275746231329" lon="9.944301992731758"><ele>38.0</ele><time>2026-03-29T06:25:57.998Z</time></trkpt><trkpt lat="45.05268568700689" lon="9.944263764495352"><ele>38.0</ele><time>2026-03-29T06:25:58.998Z</time></trkpt><trkpt lat="45.05261423158887" lon="9.944225185546436"><ele>38.0</ele><time>2026-03-29T06:25:59.998Z</time></trkpt><trkpt lat="45.052543017181655" lon="9.944186838243217"><ele>38.0</ele><time>2026-03-29T06:26:00.998Z</time></trkpt><trkpt lat="45.05247091412314" lon="9.944146472919636"><ele>38.0</ele><time>2026-03-29T06:26:01.998Z</time></trkpt><trkpt lat="45.05239993579098" lon="9.94410733410878"><ele>38.0</ele><time>2026-03-29T06:26:02.998Z</time></trkpt><trkpt lat="45.05232838561839" lon="9.94406957361101"><ele>38.0</ele><time>2026-03-29T06:26:03.998Z</time></trkpt><trkpt lat="45.052257730152206" lon="9.9440323651085"><ele>38.0</ele><time>2026-03-29T06:26:04.998Z</time></trkpt><trkpt lat="45.05218604488274" lon="9.943994946082606"><ele>38.0</ele><time>2026-03-29T06:26:05.998Z</time></trkpt><trkpt lat="45.05211536094071" lon="9.943956532785714"><ele>38.0</ele><time>2026-03-29T06:26:06.998Z</time></trkpt><trkpt lat="45.05204478803806" lon="9.943918150846798"><ele>38.0</ele><time>2026-03-29T06:26:07.998Z</time></trkpt><trkpt lat="45.05197386980138" lon="9.943878988551416"><ele>38.0</ele><time>2026-03-29T06:26:09Z</time></trkpt><trkpt lat="45.05190235614738" lon="9.943839442215527"><ele>38.0</ele><time>2026-03-29T06:26:10Z</time></trkpt><trkpt lat="45.05183202700491" lon="9.943800409992429"><ele>38.0</ele><time>2026-03-29T06:26:11Z</time></trkpt><trkpt lat="45.0517620305911" lon="9.943761689726712"><ele>38.0</ele><time>2026-03-29T06:26:12Z</time></trkpt><trkpt lat="45.05169276771711" lon="9.943722224998087"><ele>38.0</ele><time>2026-03-29T06:26:13Z</time></trkpt><trkpt lat="45.05162240265613" lon="9.943686190737811"><ele>38.0</ele><time>2026-03-29T06:26:14Z</time></trkpt><trkpt lat="45.05155262851378" lon="9.943650391211028"><ele>37.83333333333333</ele><time>2026-03-29T06:26:15Z</time></trkpt><trkpt lat="45.051480394072804" lon="9.943616347675524"><ele>37.666666666666664</ele><time>2026-03-29T06:26:16Z</time></trkpt><trkpt lat="45.051408927645596" lon="9.943581157565884"><ele>37.5</ele><time>2026-03-29T06:26:17Z</time></trkpt><trkpt lat="45.051338020991494" lon="9.943550289217564"><ele>37.333333333333336</ele><time>2026-03-29T06:26:18Z</time></trkpt><trkpt lat="45.051264628803466" lon="9.943521382720347"><ele>37.16666666666667</ele><time>2026-03-29T06:26:19Z</time></trkpt><trkpt lat="45.05119012369391" lon="9.943496742199056"><ele>37.0</ele><time>2026-03-29T06:26:20Z</time></trkpt><trkpt lat="45.05111483779798" lon="9.943470853310238"><ele>37.0</ele><time>2026-03-29T06:26:21Z</time></trkpt><trkpt lat="45.05103947487206" lon="9.943448429543624"><ele>37.0</ele><time>2026-03-29T06:26:22Z</time></trkpt><trkpt lat="45.05096358555828" lon="9.943426613927635"><ele>37.0</ele><time>2026-03-29T06:26:23Z</time></trkpt><trkpt lat="45.05088741208139" lon="9.943407154839209"><ele>37.0</ele><time>2026-03-29T06:26:24Z</time></trkpt><trkpt lat="45.050810493097856" lon="9.943385963707545"><ele>37.0</ele><time>2026-03-29T06:26:25Z</time></trkpt><trkpt lat="45.05073434036665" lon="9.943373724353732"><ele>37.0</ele><time>2026-03-29T06:26:26Z</time></trkpt><trkpt lat="45.050657750266154" lon="9.94336119710391"><ele>37.16666666666667</ele><time>2026-03-29T06:26:27Z</time></trkpt><trkpt lat="45.050579395581146" lon="9.943349782167191"><ele>37.333333333333336</ele><time>2026-03-29T06:26:28Z</time></trkpt><trkpt lat="45.05050305181849" lon="9.943338029637287"><ele>37.5</ele><time>2026-03-29T06:26:29Z</time></trkpt><trkpt lat="45.05042612987207" lon="9.943328436693347"><ele>37.666666666666664</ele><time>2026-03-29T06:26:30Z</time></trkpt><trkpt lat="45.05034853643388" lon="9.943324537064846"><ele>37.83333333333333</ele><time>2026-03-29T06:26:31Z</time></trkpt><trkpt lat="45.050271952884636" lon="9.943322185871157"><ele>38.0</ele><time>2026-03-29T06:26:32Z</time></trkpt><trkpt lat="45.050195427556574" lon="9.943318607276499"><ele>38.0</ele><time>2026-03-29T06:26:33Z</time></trkpt><trkpt lat="45.050118961591664" lon="9.943313688421052"><ele>38.0</ele><time>2026-03-29T06:26:34Z</time></trkpt><trkpt lat="45.050041220215775" lon="9.943310592131834"><ele>38.0</ele><time>2026-03-29T06:26:35Z</time></trkpt><trkpt lat="45.04996317680835" lon="9.943305087562644"><ele>38.0</ele><time>2026-03-29T06:26:36Z</time></trkpt><trkpt lat="45.04988516219713" lon="9.9433017476009"><ele>38.0</ele><time>2026-03-29T06:26:36.999Z</time></trkpt><trkpt lat="45.0498085518599" lon="9.943299427822495"><ele>38.0</ele><time>2026-03-29T06:26:37.999Z</time></trkpt><trkpt lat="45.04973220902082" lon="9.943296052377658"><ele>37.83333333333333</ele><time>2026-03-29T06:26:38.999Z</time></trkpt><trkpt lat="45.049656074101115" lon="9.943292002431885"><ele>37.666666666666664</ele><time>2026-03-29T06:26:39.999Z</time></trkpt><trkpt lat="45.04958035095136" lon="9.943288718669848"><ele>37.5</ele><time>2026-03-29T06:26:40.999Z</time></trkpt><trkpt lat="45.049504489510944" lon="9.94328627022662"><ele>37.333333333333336</ele><time>2026-03-29T06:26:41.999Z</time></trkpt><trkpt lat="45.049428672843284" lon="9.943281889313672"><ele>37.16666666666667</ele><time>2026-03-29T06:26:42.999Z</time></trkpt><trkpt lat="45.04935293881153" lon="9.943279644589321"><ele>37.0</ele><time>2026-03-29T06:26:43.999Z</time></trkpt><trkpt lat="45.04927600082444" lon="9.94327732614642"><ele>37.0</ele><time>2026-03-29T06:26:44.999Z</time></trkpt><trkpt lat="45.0491998993407" lon="9.943274820286634"><ele>37.0</ele><time>2026-03-29T06:26:45.999Z</time></trkpt><trkpt lat="45.04912407697973" lon="9.943272528037692"><ele>37.0</ele><time>2026-03-29T06:26:46.999Z</time></trkpt><trkpt lat="45.04904847939238" lon="9.94326757655583"><ele>37.0</ele><time>2026-03-29T06:26:47.999Z</time></trkpt><trkpt lat="45.048972443098975" lon="9.94326364324604"><ele>37.0</ele><time>2026-03-29T06:26:48.999Z</time></trkpt><trkpt lat="45.04889685291026" lon="9.943260970622074"><ele>37.0</ele><time>2026-03-29T06:26:49.999Z</time></trkpt><trkpt lat="45.048819700498015" lon="9.9432581467025"><ele>37.0</ele><time>2026-03-29T06:26:50.999Z</time></trkpt><trkpt lat="45.04874407096348" lon="9.9432546922683"><ele>37.0</ele><time>2026-03-29T06:26:51.999Z</time></trkpt><trkpt lat="45.0486662806246" lon="9.943250433356347"><ele>37.0</ele><time>2026-03-29T06:26:52.999Z</time></trkpt><trkpt lat="45.048589218219895" lon="9.94324759497713"><ele>37.0</ele><time>2026-03-29T06:26:53.999Z</time></trkpt><trkpt lat="45.048512798582976" lon="9.943243761514655"><ele>37.0</ele><time>2026-03-29T06:26:54.999Z</time></trkpt><trkpt lat="45.04843582420597" lon="9.9432417009202"><ele>37.0</ele><time>2026-03-29T06:26:55.999Z</time></trkpt><trkpt lat="45.048358792427216" lon="9.943239385552868"><ele>37.16666666666667</ele><time>2026-03-29T06:26:56.999Z</time></trkpt><trkpt lat="45.04828322156059" lon="9.943237126446222"><ele>37.333333333333336</ele><time>2026-03-29T06:26:57.999Z</time></trkpt><trkpt lat="45.04820792959873" lon="9.94323291896118"><ele>37.5</ele><time>2026-03-29T06:26:58.999Z</time></trkpt><trkpt lat="45.04813194290213" lon="9.94323115493567"><ele>37.666666666666664</ele><time>2026-03-29T06:26:59.999Z</time></trkpt><trkpt lat="45.04805570946645" lon="9.943227746845805"><ele>37.83333333333333</ele><time>2026-03-29T06:27:00.999Z</time></trkpt><trkpt lat="45.04797888980692" lon="9.943223336259786"><ele>38.0</ele><time>2026-03-29T06:27:01.999Z</time></trkpt><trkpt lat="45.04790274749672" lon="9.94322030136172"><ele>38.0</ele><time>2026-03-29T06:27:02.999Z</time></trkpt><trkpt lat="45.04782660968616" lon="9.94321830754276"><ele>38.0</ele><time>2026-03-29T06:27:03.999Z</time></trkpt><trkpt lat="45.047749677863244" lon="9.943215539387841"><ele>38.0</ele><time>2026-03-29T06:27:04.999Z</time></trkpt><trkpt lat="45.047672296953486" lon="9.943211770799795"><ele>38.0</ele><time>2026-03-29T06:27:05.999Z</time></trkpt><trkpt lat="45.047596671994484" lon="9.943209623219891"><ele>38.0</ele><time>2026-03-29T06:27:06.999Z</time></trkpt><trkpt lat="45.04752080332866" lon="9.943206778443093"><ele>38.0</ele><time>2026-03-29T06:27:07.999Z</time></trkpt><trkpt lat="45.047444370570695" lon="9.943204742588943"><ele>38.0</ele><time>2026-03-29T06:27:08.999Z</time></trkpt><trkpt lat="45.04736824805133" lon="9.943202317117086"><ele>38.0</ele><time>2026-03-29T06:27:09.999Z</time></trkpt><trkpt lat="45.0472930991196" lon="9.943200385720653"><ele>38.0</ele><time>2026-03-29T06:27:10.999Z</time></trkpt><trkpt lat="45.047217040181344" lon="9.943196731574991"><ele>38.0</ele><time>2026-03-29T06:27:11.999Z</time></trkpt><trkpt lat="45.047141894812086" lon="9.94319325063851"><ele>38.0</ele><time>2026-03-29T06:27:12.999Z</time></trkpt><trkpt lat="45.04706569981808" lon="9.943190952156757"><ele>38.0</ele><time>2026-03-29T06:27:13.999Z</time></trkpt><trkpt lat="45.0469892614129" lon="9.943189937824895"><ele>38.0</ele><time>2026-03-29T06:27:14.999Z</time></trkpt><trkpt lat="45.04691258368903" lon="9.943185911489145"><ele>38.0</ele><time>2026-03-29T06:27:15.999Z</time></trkpt><trkpt lat="45.04683509099565" lon="9.943183122569462"><ele>38.0</ele><time>2026-03-29T06:27:16.999Z</time></trkpt><trkpt lat="45.04675682056478" lon="9.943178996545385"><ele>38.0</ele><time>2026-03-29T06:27:17.999Z</time></trkpt><trkpt lat="45.04667947733392" lon="9.943176297381061"><ele>38.0</ele><time>2026-03-29T06:27:18.999Z</time></trkpt><trkpt lat="45.04660142564684" lon="9.943172772162058"><ele>38.0</ele><time>2026-03-29T06:27:19.999Z</time></trkpt><trkpt lat="45.046522980298064" lon="9.943169615712598"><ele>38.0</ele><time>2026-03-29T06:27:20.999Z</time></trkpt><trkpt lat="45.04644506819443" lon="9.943166694195954"><ele>38.0</ele><time>2026-03-29T06:27:21.999Z</time></trkpt><trkpt lat="45.046368231110606" lon="9.943162584566037"><ele>38.0</ele><time>2026-03-29T06:27:22.999Z</time></trkpt><trkpt lat="45.04629080868531" lon="9.94316004051374"><ele>38.0</ele><time>2026-03-29T06:27:23.999Z</time></trkpt><trkpt lat="45.04621425460104" lon="9.943158302440791"><ele>38.0</ele><time>2026-03-29T06:27:24.999Z</time></trkpt><trkpt lat="45.04613760044283" lon="9.943155629950988"><ele>38.0</ele><time>2026-03-29T06:27:25.999Z</time></trkpt><trkpt lat="45.04606046068731" lon="9.94315268767153"><ele>38.0</ele><time>2026-03-29T06:27:26.999Z</time></trkpt><trkpt lat="45.04598360873748" lon="9.943151210224032"><ele>38.0</ele><time>2026-03-29T06:27:27.999Z</time></trkpt><trkpt lat="45.04590565697726" lon="9.94314702617987"><ele>38.0</ele><time>2026-03-29T06:27:28.999Z</time></trkpt><trkpt lat="45.045827779928324" lon="9.94314470822692"><ele>38.0</ele><time>2026-03-29T06:27:29.999Z</time></trkpt><trkpt lat="45.045750075331775" lon="9.943141074752937"><ele>38.0</ele><time>2026-03-29T06:27:30.999Z</time></trkpt><trkpt lat="45.04567289091983" lon="9.9431390531784"><ele>38.0</ele><time>2026-03-29T06:27:31.999Z</time></trkpt><trkpt lat="45.045595915290285" lon="9.943135866296124"><ele>38.0</ele><time>2026-03-29T06:27:32.998Z</time></trkpt><trkpt lat="45.04551810677224" lon="9.943131265649427"><ele>38.0</ele><time>2026-03-29T06:27:33.998Z</time></trkpt><trkpt lat="45.04544101176281" lon="9.943126705313224"><ele>38.0</ele><time>2026-03-29T06:27:34.998Z</time></trkpt><trkpt lat="45.04536416770307" lon="9.943122785977495"><ele>38.0</ele><time>2026-03-29T06:27:35.998Z</time></trkpt><trkpt lat="45.04528565517195" lon="9.943119532378404"><ele>38.0</ele><time>2026-03-29T06:27:36.998Z</time></trkpt><trkpt lat="45.04520972859013" lon="9.943114760267113"><ele>38.0</ele><time>2026-03-29T06:27:37.998Z</time></trkpt><trkpt lat="45.045131515465414" lon="9.943111931550682"><ele>38.0</ele><time>2026-03-29T06:27:38.998Z</time></trkpt><trkpt lat="45.045054437946696" lon="9.94310912219348"><ele>38.0</ele><time>2026-03-29T06:27:39.998Z</time></trkpt><trkpt lat="45.04497781778135" lon="9.943107354813018"><ele>38.0</ele><time>2026-03-29T06:27:40.998Z</time></trkpt><trkpt lat="45.04490290115024" lon="9.943104186135116"><ele>38.0</ele><time>2026-03-29T06:27:41.998Z</time></trkpt><trkpt lat="45.044826953477795" lon="9.943102407269363"><ele>38.0</ele><time>2026-03-29T06:27:42.998Z</time></trkpt><trkpt lat="45.044750729544056" lon="9.943098232783374"><ele>38.0</ele><time>2026-03-29T06:27:43.998Z</time></trkpt><trkpt lat="45.04467458952845" lon="9.943096052830159"><ele>38.33333333333333</ele><time>2026-03-29T06:27:44.998Z</time></trkpt><trkpt lat="45.04459793902488" lon="9.94309170027878"><ele>38.666666666666664</ele><time>2026-03-29T06:27:45.998Z</time></trkpt><trkpt lat="45.04452125247564" lon="9.943087132166317"><ele>39.0</ele><time>2026-03-29T06:27:46.998Z</time></trkpt><trkpt lat="45.044443976154014" lon="9.943081996798528"><ele>39.333333333333336</ele><time>2026-03-29T06:27:47.998Z</time></trkpt><trkpt lat="45.044367889180286" lon="9.943077654703373"><ele>39.66666666666667</ele><time>2026-03-29T06:27:48.998Z</time></trkpt><trkpt lat="45.04429145841663" lon="9.943078031968508"><ele>40.0</ele><time>2026-03-29T06:27:49.998Z</time></trkpt><trkpt lat="45.04421603337128" lon="9.943075209027556"><ele>40.0</ele><time>2026-03-29T06:27:50.998Z</time></trkpt><trkpt lat="45.044139828843285" lon="9.943072393091535"><ele>40.0</ele><time>2026-03-29T06:27:51.998Z</time></trkpt><trkpt lat="45.04406309011952" lon="9.94307052158173"><ele>40.0</ele><time>2026-03-29T06:27:52.998Z</time></trkpt><trkpt lat="45.04398674913057" lon="9.943068058571411"><ele>40.0</ele><time>2026-03-29T06:27:53.998Z</time></trkpt><trkpt lat="45.04391002868851" lon="9.943064476168548"><ele>40.0</ele><time>2026-03-29T06:27:54.998Z</time></trkpt><trkpt lat="45.04383387277779" lon="9.94306070678192"><ele>40.0</ele><time>2026-03-29T06:27:55.998Z</time></trkpt><trkpt lat="45.04375774463102" lon="9.943055979889303"><ele>39.833333333333336</ele><time>2026-03-29T06:27:56.998Z</time></trkpt><trkpt lat="45.04368250910751" lon="9.943054001461535"><ele>39.66666666666667</ele><time>2026-03-29T06:27:57.998Z</time></trkpt><trkpt lat="45.04360681092214" lon="9.943050956317427"><ele>39.5</ele><time>2026-03-29T06:27:58.998Z</time></trkpt><trkpt lat="45.04353072348977" lon="9.943048948657697"><ele>39.333333333333336</ele><time>2026-03-29T06:27:59.998Z</time></trkpt><trkpt lat="45.043454448012554" lon="9.94304301126024"><ele>39.166666666666664</ele><time>2026-03-29T06:28:00.998Z</time></trkpt><trkpt lat="45.04337833137785" lon="9.943041692778946"><ele>39.0</ele><time>2026-03-29T06:28:01.998Z</time></trkpt><trkpt lat="45.04330317031935" lon="9.943038259221462"><ele>39.0</ele><time>2026-03-29T06:28:02.998Z</time></trkpt><trkpt lat="45.04322804826849" lon="9.943034585962158"><ele>39.0</ele><time>2026-03-29T06:28:03.998Z</time></trkpt><trkpt lat="45.04315221463533" lon="9.943030792659183"><ele>39.0</ele><time>2026-03-29T06:28:04.998Z</time></trkpt><trkpt lat="45.04307572991353" lon="9.943029599098574"><ele>39.0</ele><time>2026-03-29T06:28:05.998Z</time></trkpt><trkpt lat="45.04299971592472" lon="9.94302452932486"><ele>39.0</ele><time>2026-03-29T06:28:06.998Z</time></trkpt><trkpt lat="45.04292311151396" lon="9.9430208448617"><ele>39.0</ele><time>2026-03-29T06:28:07.998Z</time></trkpt><trkpt lat="45.04284618541549" lon="9.943017233038443"><ele>39.0</ele><time>2026-03-29T06:28:08.998Z</time></trkpt><trkpt lat="45.04277042113192" lon="9.943012597027641"><ele>39.0</ele><time>2026-03-29T06:28:09.998Z</time></trkpt><trkpt lat="45.04269361405226" lon="9.9430083026964"><ele>39.0</ele><time>2026-03-29T06:28:10.998Z</time></trkpt><trkpt lat="45.04261652775997" lon="9.94300505961753"><ele>39.0</ele><time>2026-03-29T06:28:11.998Z</time></trkpt><trkpt lat="45.04253898901578" lon="9.943005481819727"><ele>39.0</ele><time>2026-03-29T06:28:12.998Z</time></trkpt><trkpt lat="45.0424624304794" lon="9.943001621060606"><ele>39.0</ele><time>2026-03-29T06:28:13.998Z</time></trkpt><trkpt lat="45.042385855194624" lon="9.942995923291855"><ele>39.0</ele><time>2026-03-29T06:28:15Z</time></trkpt><trkpt lat="45.04230979351533" lon="9.942992161957637"><ele>39.0</ele><time>2026-03-29T06:28:16Z</time></trkpt><trkpt lat="45.042233119391476" lon="9.942988315839298"><ele>39.0</ele><time>2026-03-29T06:28:17Z</time></trkpt><trkpt lat="45.04215579304742" lon="9.942985871602215"><ele>39.0</ele><time>2026-03-29T06:28:18Z</time></trkpt><trkpt lat="45.04207839944337" lon="9.942985050918647"><ele>39.0</ele><time>2026-03-29T06:28:19Z</time></trkpt><trkpt lat="45.04199935691825" lon="9.942979382844031"><ele>39.0</ele><time>2026-03-29T06:28:20Z</time></trkpt><trkpt lat="45.04192130243537" lon="9.942975325908863"><ele>39.0</ele><time>2026-03-29T06:28:21Z</time></trkpt><trkpt lat="45.04184414836078" lon="9.942971198120938"><ele>39.0</ele><time>2026-03-29T06:28:22Z</time></trkpt><trkpt lat="45.041766150018574" lon="9.94296753149919"><ele>39.0</ele><time>2026-03-29T06:28:23Z</time></trkpt><trkpt lat="45.04168841389256" lon="9.942966141237505"><ele>39.0</ele><time>2026-03-29T06:28:24Z</time></trkpt><trkpt lat="45.04161091891946" lon="9.94296405358233"><ele>39.0</ele><time>2026-03-29T06:28:25Z</time></trkpt><trkpt lat="45.04153423697684" lon="9.942961721975465"><ele>39.0</ele><time>2026-03-29T06:28:26Z</time></trkpt><trkpt lat="45.04145719060391" lon="9.942960783025471"><ele>38.833333333333336</ele><time>2026-03-29T06:28:27Z</time></trkpt><trkpt lat="45.04138161445956" lon="9.942959938597927"><ele>38.666666666666664</ele><time>2026-03-29T06:28:28Z</time></trkpt><trkpt lat="45.04130513176261" lon="9.942957348671253"><ele>38.5</ele><time>2026-03-29T06:28:29Z</time></trkpt><trkpt lat="45.04122859116865" lon="9.94295661386505"><ele>38.33333333333333</ele><time>2026-03-29T06:28:30Z</time></trkpt><trkpt lat="45.04115150406115" lon="9.942952976227602"><ele>38.166666666666664</ele><time>2026-03-29T06:28:31Z</time></trkpt><trkpt lat="45.041074417362786" lon="9.942949333752438"><ele>38.0</ele><time>2026-03-29T06:28:32Z</time></trkpt><trkpt lat="45.04099841871063" lon="9.942948780742606"><ele>38.0</ele><time>2026-03-29T06:28:33Z</time></trkpt><trkpt lat="45.040922078451906" lon="9.942948926708642"><ele>38.0</ele><time>2026-03-29T06:28:34Z</time></trkpt><trkpt lat="45.040845671279044" lon="9.942942808038861"><ele>38.0</ele><time>2026-03-29T06:28:35Z</time></trkpt><trkpt lat="45.04077007061789" lon="9.942935248746943"><ele>38.0</ele><time>2026-03-29T06:28:36Z</time></trkpt><trkpt lat="45.04069577196541" lon="9.94292616498058"><ele>38.0</ele><time>2026-03-29T06:28:37Z</time></trkpt><trkpt lat="45.04062271917813" lon="9.942922721692739"><ele>38.0</ele><time>2026-03-29T06:28:38Z</time></trkpt><trkpt lat="45.04054762349095" lon="9.942921881948429"><ele>38.14285714285714</ele><time>2026-03-29T06:28:39Z</time></trkpt><trkpt lat="45.040473847166716" lon="9.94292075873787"><ele>38.28571428571429</ele><time>2026-03-29T06:28:40Z</time></trkpt><trkpt lat="45.040400559702626" lon="9.942915062891197"><ele>38.42857142857143</ele><time>2026-03-29T06:28:41Z</time></trkpt><trkpt lat="45.04032543987656" lon="9.942912207083268"><ele>38.57142857142857</ele><time>2026-03-29T06:28:41.999Z</time></trkpt><trkpt lat="45.04025002319814" lon="9.942908265003712"><ele>38.71428571428571</ele><time>2026-03-29T06:28:42.999Z</time></trkpt><trkpt lat="45.04017514514306" lon="9.942906196771943"><ele>38.85714285714286</ele><time>2026-03-29T06:28:43.999Z</time></trkpt><trkpt lat="45.040100594197355" lon="9.942904991088783"><ele>39.0</ele><time>2026-03-29T06:28:44.999Z</time></trkpt><trkpt lat="45.04002532565541" lon="9.942902418749734"><ele>39.166666666666664</ele><time>2026-03-29T06:28:45.999Z</time></trkpt><trkpt lat="45.039949850299735" lon="9.942898547805914"><ele>39.333333333333336</ele><time>2026-03-29T06:28:46.999Z</time></trkpt><trkpt lat="45.03987491683947" lon="9.942894409632729"><ele>39.5</ele><time>2026-03-29T06:28:47.999Z</time></trkpt><trkpt lat="45.03980028046521" lon="9.942891516682645"><ele>39.66666666666667</ele><time>2026-03-29T06:28:48.999Z</time></trkpt><trkpt lat="45.039724939160365" lon="9.942887447860882"><ele>39.833333333333336</ele><time>2026-03-29T06:28:49.999Z</time></trkpt><trkpt lat="45.039649826179236" lon="9.942884342073283"><ele>40.0</ele><time>2026-03-29T06:28:50.999Z</time></trkpt><trkpt lat="45.03957485430905" lon="9.942883298404505"><ele>40.0</ele><time>2026-03-29T06:28:51.999Z</time></trkpt><trkpt lat="45.039501034197045" lon="9.942878901858027"><ele>40.0</ele><time>2026-03-29T06:28:52.999Z</time></trkpt><trkpt lat="45.039426123724034" lon="9.942877298958432"><ele>40.0</ele><time>2026-03-29T06:28:53.999Z</time></trkpt><trkpt lat="45.039351575690894" lon="9.942875231610888"><ele>40.0</ele><time>2026-03-29T06:28:54.999Z</time></trkpt><trkpt lat="45.0392776846418" lon="9.942870362459546"><ele>40.0</ele><time>2026-03-29T06:28:55.999Z</time></trkpt><trkpt lat="45.039201858491914" lon="9.942870512392268"><ele>40.0</ele><time>2026-03-29T06:28:56.999Z</time></trkpt><trkpt lat="45.03912617175986" lon="9.9428659696269"><ele>40.0</ele><time>2026-03-29T06:28:57.999Z</time></trkpt><trkpt lat="45.039051523374205" lon="9.942861435647384"><ele>40.14285714285714</ele><time>2026-03-29T06:28:58.999Z</time></trkpt><trkpt lat="45.03897766990222" lon="9.942855485461006"><ele>40.285714285714285</ele><time>2026-03-29T06:28:59.999Z</time></trkpt><trkpt lat="45.03890382540245" lon="9.942852293085835"><ele>40.42857142857143</ele><time>2026-03-29T06:29:00.999Z</time></trkpt><trkpt lat="45.03883006824995" lon="9.942849854735536"><ele>40.57142857142857</ele><time>2026-03-29T06:29:01.999Z</time></trkpt><trkpt lat="45.03875715881913" lon="9.942846292449241"><ele>40.714285714285715</ele><time>2026-03-29T06:29:02.999Z</time></trkpt><trkpt lat="45.038683291734365" lon="9.942843021166064"><ele>40.857142857142854</ele><time>2026-03-29T06:29:03.999Z</time></trkpt><trkpt lat="45.03860919558097" lon="9.942840132519152"><ele>41.0</ele><time>2026-03-29T06:29:04.999Z</time></trkpt><trkpt lat="45.03853462990497" lon="9.942837544635692"><ele>40.99999999999999</ele><time>2026-03-29T06:29:05.999Z</time></trkpt><trkpt lat="45.03846064539051" lon="9.942833286356922"><ele>41.0</ele><time>2026-03-29T06:29:06.999Z</time></trkpt><trkpt lat="45.038385640792114" lon="9.942831695007278"><ele>41.0</ele><time>2026-03-29T06:29:07.999Z</time></trkpt><trkpt lat="45.03831240228058" lon="9.942830375492058"><ele>41.0</ele><time>2026-03-29T06:29:08.999Z</time></trkpt><trkpt lat="45.038237616702986" lon="9.942827263486747"><ele>41.0</ele><time>2026-03-29T06:29:09.999Z</time></trkpt><trkpt lat="45.038162207931386" lon="9.942824454369687"><ele>40.99999999999999</ele><time>2026-03-29T06:29:10.999Z</time></trkpt><trkpt lat="45.038089518076994" lon="9.942820314961077"><ele>41.0</ele><time>2026-03-29T06:29:11.999Z</time></trkpt><trkpt lat="45.03801584991636" lon="9.94281746487392"><ele>40.99999999999999</ele><time>2026-03-29T06:29:12.999Z</time></trkpt><trkpt lat="45.037940943478496" lon="9.942816656225057"><ele>41.0</ele><time>2026-03-29T06:29:13.999Z</time></trkpt><trkpt lat="45.037864847005125" lon="9.942815003599557"><ele>41.0</ele><time>2026-03-29T06:29:14.999Z</time></trkpt><trkpt lat="45.0377905380225" lon="9.942810261458547"><ele>41.0</ele><time>2026-03-29T06:29:15.999Z</time></trkpt><trkpt lat="45.03771767063633" lon="9.94280701688948"><ele>41.0</ele><time>2026-03-29T06:29:16.999Z</time></trkpt><trkpt lat="45.03764311523161" lon="9.94280597211232"><ele>40.99999999999999</ele><time>2026-03-29T06:29:17.999Z</time></trkpt><trkpt lat="45.03756951153262" lon="9.942804819373766"><ele>41.0</ele><time>2026-03-29T06:29:18.999Z</time></trkpt><trkpt lat="45.03749431098138" lon="9.94280241499885"><ele>40.857142857142854</ele><time>2026-03-29T06:29:19.999Z</time></trkpt><trkpt lat="45.03742279547007" lon="9.94279905340716"><ele>40.714285714285715</ele><time>2026-03-29T06:29:20.999Z</time></trkpt><trkpt lat="45.03734752429888" lon="9.942794961248403"><ele>40.57142857142857</ele><time>2026-03-29T06:29:21.999Z</time></trkpt><trkpt lat="45.03727441166515" lon="9.94279190437022"><ele>40.42857142857143</ele><time>2026-03-29T06:29:22.999Z</time></trkpt><trkpt lat="45.037201649630894" lon="9.942787134989848"><ele>40.285714285714285</ele><time>2026-03-29T06:29:23.999Z</time></trkpt><trkpt lat="45.037127677474274" lon="9.942784428087627"><ele>40.14285714285714</ele><time>2026-03-29T06:29:24.999Z</time></trkpt><trkpt lat="45.03705239539679" lon="9.942780938444614"><ele>40.0</ele><time>2026-03-29T06:29:25.999Z</time></trkpt><trkpt lat="45.03697770249138" lon="9.94277963740695"><ele>40.0</ele><time>2026-03-29T06:29:26.999Z</time></trkpt><trkpt lat="45.036902678582344" lon="9.942777474112438"><ele>40.0</ele><time>2026-03-29T06:29:27.999Z</time></trkpt><trkpt lat="45.0368267180379" lon="9.942775132977737"><ele>40.0</ele><time>2026-03-29T06:29:28.999Z</time></trkpt><trkpt lat="45.03675386427431" lon="9.942771548580154"><ele>40.0</ele><time>2026-03-29T06:29:29.999Z</time></trkpt><trkpt lat="45.03667838759794" lon="9.942768072736664"><ele>40.0</ele><time>2026-03-29T06:29:30.999Z</time></trkpt><trkpt lat="45.03660404326234" lon="9.942763582504217"><ele>40.0</ele><time>2026-03-29T06:29:31.999Z</time></trkpt><trkpt lat="45.03652899430355" lon="9.94276070714651"><ele>40.0</ele><time>2026-03-29T06:29:32.999Z</time></trkpt><trkpt lat="45.03645327490974" lon="9.942756952735476"><ele>40.285714285714285</ele><time>2026-03-29T06:29:33.999Z</time></trkpt><trkpt lat="45.03637938976599" lon="9.942752667500267"><ele>40.57142857142857</ele><time>2026-03-29T06:29:34.999Z</time></trkpt><trkpt lat="45.03630499494781" lon="9.942747310052399"><ele>40.85714285714286</ele><time>2026-03-29T06:29:35.999Z</time></trkpt><trkpt lat="45.036229239392384" lon="9.942745482374876"><ele>41.14285714285714</ele><time>2026-03-29T06:29:36.998Z</time></trkpt><trkpt lat="45.036154363812464" lon="9.94274352709786"><ele>41.42857142857143</ele><time>2026-03-29T06:29:37.998Z</time></trkpt><trkpt lat="45.036080210758925" lon="9.94274032792007"><ele>41.714285714285715</ele><time>2026-03-29T06:29:38.998Z</time></trkpt><trkpt lat="45.03600804364916" lon="9.942737070365123"><ele>42.0</ele><time>2026-03-29T06:29:39.998Z</time></trkpt><trkpt lat="45.035936446334084" lon="9.942735873757261"><ele>42.0</ele><time>2026-03-29T06:29:40.998Z</time></trkpt><trkpt lat="45.035862433041494" lon="9.94273339804815"><ele>42.0</ele><time>2026-03-29T06:29:41.998Z</time></trkpt><trkpt lat="45.03578771792869" lon="9.942730946277846"><ele>42.0</ele><time>2026-03-29T06:29:42.998Z</time></trkpt><trkpt lat="45.03571439456458" lon="9.942725986766934"><ele>42.0</ele><time>2026-03-29T06:29:43.998Z</time></trkpt><trkpt lat="45.03563979091834" lon="9.942723032186914"><ele>42.0</ele><time>2026-03-29T06:29:44.998Z</time></trkpt><trkpt lat="45.035564868285846" lon="9.94272206236795"><ele>42.0</ele><time>2026-03-29T06:29:45.998Z</time></trkpt><trkpt lat="45.035489750362686" lon="9.94271898315566"><ele>42.0</ele><time>2026-03-29T06:29:46.998Z</time></trkpt><trkpt lat="45.035414900090515" lon="9.942716976972571"><ele>41.714285714285715</ele><time>2026-03-29T06:29:47.998Z</time></trkpt><trkpt lat="45.0353414820884" lon="9.94271314534753"><ele>41.42857142857143</ele><time>2026-03-29T06:29:48.998Z</time></trkpt><trkpt lat="45.03526909490141" lon="9.942709491607324"><ele>41.14285714285714</ele><time>2026-03-29T06:29:49.998Z</time></trkpt><trkpt lat="45.035193441538766" lon="9.942704617009346"><ele>40.85714285714286</ele><time>2026-03-29T06:29:50.998Z</time></trkpt><trkpt lat="45.03511954006713" lon="9.942699796947132"><ele>40.57142857142857</ele><time>2026-03-29T06:29:51.998Z</time></trkpt><trkpt lat="45.035045073595214" lon="9.942695738574134"><ele>40.285714285714285</ele><time>2026-03-29T06:29:52.998Z</time></trkpt><trkpt lat="45.03496944977972" lon="9.942694039158994"><ele>40.0</ele><time>2026-03-29T06:29:53.998Z</time></trkpt><trkpt lat="45.03489468881512" lon="9.942689938584529"><ele>40.0</ele><time>2026-03-29T06:29:54.998Z</time></trkpt><trkpt lat="45.0348191760948" lon="9.942686894934488"><ele>40.0</ele><time>2026-03-29T06:29:55.998Z</time></trkpt><trkpt lat="45.03474549576417" lon="9.94268359776516"><ele>40.0</ele><time>2026-03-29T06:29:56.998Z</time></trkpt><trkpt lat="45.03467226819805" lon="9.942680742737947"><ele>40.0</ele><time>2026-03-29T06:29:57.998Z</time></trkpt><trkpt lat="45.03460252942049" lon="9.942675112920588"><ele>40.0</ele><time>2026-03-29T06:29:58.998Z</time></trkpt><trkpt lat="45.03453043112864" lon="9.942673208929603"><ele>40.0</ele><time>2026-03-29T06:29:59.998Z</time></trkpt><trkpt lat="45.03445917092028" lon="9.942668007308985"><ele>40.0</ele><time>2026-03-29T06:30:00.998Z</time></trkpt><trkpt lat="45.03438769146313" lon="9.94266550760586"><ele>40.0</ele><time>2026-03-29T06:30:01.998Z</time></trkpt><trkpt lat="45.034315788546515" lon="9.942663526400747"><ele>40.0</ele><time>2026-03-29T06:30:02.998Z</time></trkpt><trkpt lat="45.03424391042889" lon="9.942660667056964"><ele>40.0</ele><time>2026-03-29T06:30:03.998Z</time></trkpt><trkpt lat="45.034171866814226" lon="9.942659431869206"><ele>40.0</ele><time>2026-03-29T06:30:04.998Z</time></trkpt><trkpt lat="45.03409994311327" lon="9.942654735291974"><ele>40.0</ele><time>2026-03-29T06:30:05.998Z</time></trkpt><trkpt lat="45.03403074543095" lon="9.942652297663411"><ele>40.0</ele><time>2026-03-29T06:30:06.998Z</time></trkpt><trkpt lat="45.033958713228756" lon="9.942648156677855"><ele>40.0</ele><time>2026-03-29T06:30:07.998Z</time></trkpt><trkpt lat="45.03388833994182" lon="9.942646116666554"><ele>40.0</ele><time>2026-03-29T06:30:08.998Z</time></trkpt><trkpt lat="45.03381984547012" lon="9.942643306257075"><ele>40.0</ele><time>2026-03-29T06:30:09.998Z</time></trkpt><trkpt lat="45.0337496824508" lon="9.942641139356716"><ele>40.0</ele><time>2026-03-29T06:30:10.998Z</time></trkpt><trkpt lat="45.03367924944227" lon="9.942639644188612"><ele>40.0</ele><time>2026-03-29T06:30:11.998Z</time></trkpt><trkpt lat="45.033607895780605" lon="9.942635572262725"><ele>40.0</ele><time>2026-03-29T06:30:12.998Z</time></trkpt><trkpt lat="45.03353766134833" lon="9.942629333296951"><ele>40.0</ele><time>2026-03-29T06:30:13.998Z</time></trkpt><trkpt lat="45.0334693426523" lon="9.942618298939385"><ele>40.0</ele><time>2026-03-29T06:30:14.998Z</time></trkpt><trkpt lat="45.03340353122646" lon="9.942597667287046"><ele>40.0</ele><time>2026-03-29T06:30:15.998Z</time></trkpt><trkpt lat="45.03334189870639" lon="9.942564421577057"><ele>40.0</ele><time>2026-03-29T06:30:16.998Z</time></trkpt><trkpt lat="45.033274689524134" lon="9.9425526162415"><ele>40.0</ele><time>2026-03-29T06:30:17.998Z</time></trkpt><trkpt lat="45.03321174342122" lon="9.942532734090307"><ele>40.0</ele><time>2026-03-29T06:30:18.998Z</time></trkpt><trkpt lat="45.033100751720994" lon="9.942586828396891"><ele>40.0</ele><time>2026-03-29T06:30:21Z</time></trkpt><trkpt lat="45.033076880301614" lon="9.942681583243656"><ele>40.0</ele><time>2026-03-29T06:30:22Z</time></trkpt><trkpt lat="45.033113953508725" lon="9.942783819995693"><ele>40.14285714285714</ele><time>2026-03-29T06:30:23Z</time></trkpt><trkpt lat="45.033109386940794" lon="9.942877837906824"><ele>40.285714285714285</ele><time>2026-03-29T06:30:24Z</time></trkpt><trkpt lat="45.03311754001386" lon="9.942966480907536"><ele>40.42857142857143</ele><time>2026-03-29T06:30:25Z</time></trkpt><trkpt lat="45.0331120572191" lon="9.943060981903148"><ele>40.57142857142857</ele><time>2026-03-29T06:30:26Z</time></trkpt><trkpt lat="45.033121362965204" lon="9.943158118685968"><ele>40.714285714285715</ele><time>2026-03-29T06:30:27Z</time></trkpt><trkpt lat="45.03311654943752" lon="9.943254517508672"><ele>40.857142857142854</ele><time>2026-03-29T06:30:28Z</time></trkpt><trkpt lat="45.03311167403302" lon="9.943352155466885"><ele>41.0</ele><time>2026-03-29T06:30:29Z</time></trkpt><trkpt lat="45.033051827477635" lon="9.943447657648562"><ele>41.33333333333333</ele><time>2026-03-29T06:30:30Z</time></trkpt><trkpt lat="45.0330359939181" lon="9.94355189079283"><ele>41.666666666666664</ele><time>2026-03-29T06:30:31Z</time></trkpt><trkpt lat="45.033019976075224" lon="9.943656261144382"><ele>42.0</ele><time>2026-03-29T06:30:32Z</time></trkpt><trkpt lat="45.03300308555272" lon="9.943761596726969"><ele>42.333333333333336</ele><time>2026-03-29T06:30:33Z</time></trkpt><trkpt lat="45.03298524092545" lon="9.943867125936015"><ele>42.66666666666667</ele><time>2026-03-29T06:30:34Z</time></trkpt><trkpt lat="45.03296729590373" lon="9.943972137908487"><ele>43.0</ele><time>2026-03-29T06:30:35Z</time></trkpt><trkpt lat="45.032949471614074" lon="9.944073985959923"><ele>43.0</ele><time>2026-03-29T06:30:36Z</time></trkpt><trkpt lat="45.032930807210974" lon="9.944176541453942"><ele>43.0</ele><time>2026-03-29T06:30:37Z</time></trkpt><trkpt lat="45.03291121610834" lon="9.944278678695104"><ele>43.0</ele><time>2026-03-29T06:30:38Z</time></trkpt><trkpt lat="45.032893608242716" lon="9.944384039340273"><ele>43.0</ele><time>2026-03-29T06:30:39Z</time></trkpt><trkpt lat="45.032875890973536" lon="9.94448664240736"><ele>43.0</ele><time>2026-03-29T06:30:40Z</time></trkpt><trkpt lat="45.032853602546794" lon="9.944586660826545"><ele>43.0</ele><time>2026-03-29T06:30:41Z</time></trkpt><trkpt lat="45.03282515271477" lon="9.944684629952459"><ele>42.833333333333336</ele><time>2026-03-29T06:30:42Z</time></trkpt><trkpt lat="45.03279430508512" lon="9.944779407399013"><ele>42.66666666666667</ele><time>2026-03-29T06:30:43Z</time></trkpt><trkpt lat="45.032753687858296" lon="9.944869375198385"><ele>42.5</ele><time>2026-03-29T06:30:44Z</time></trkpt><trkpt lat="45.03269953028436" lon="9.944944715979172"><ele>42.333333333333336</ele><time>2026-03-29T06:30:45Z</time></trkpt><trkpt lat="45.03263431549278" lon="9.945004029396268"><ele>42.166666666666664</ele><time>2026-03-29T06:30:45.999Z</time></trkpt><trkpt lat="45.032563979546474" lon="9.945045084916988"><ele>42.0</ele><time>2026-03-29T06:30:46.999Z</time></trkpt><trkpt lat="45.03248875858067" lon="9.945064062978483"><ele>42.166666666666664</ele><time>2026-03-29T06:30:47.999Z</time></trkpt><trkpt lat="45.03241186357119" lon="9.945065214211153"><ele>42.333333333333336</ele><time>2026-03-29T06:30:48.999Z</time></trkpt><trkpt lat="45.03233602961818" lon="9.945052277043473"><ele>42.5</ele><time>2026-03-29T06:30:49.999Z</time></trkpt><trkpt lat="45.032260922066875" lon="9.945029632094835"><ele>42.66666666666667</ele><time>2026-03-29T06:30:50.999Z</time></trkpt><trkpt lat="45.03218812137767" lon="9.94500144425483"><ele>42.833333333333336</ele><time>2026-03-29T06:30:51.999Z</time></trkpt><trkpt lat="45.03211522568851" lon="9.944971116453445"><ele>43.0</ele><time>2026-03-29T06:30:52.999Z</time></trkpt><trkpt lat="45.032042632600955" lon="9.944942331711896"><ele>43.0</ele><time>2026-03-29T06:30:53.999Z</time></trkpt><trkpt lat="45.03197245333821" lon="9.944915563673723"><ele>43.0</ele><time>2026-03-29T06:30:54.999Z</time></trkpt><trkpt lat="45.03189878411776" lon="9.944889121424538"><ele>43.0</ele><time>2026-03-29T06:30:55.999Z</time></trkpt><trkpt lat="45.03182634622066" lon="9.944860596334975"><ele>43.0</ele><time>2026-03-29T06:30:56.999Z</time></trkpt><trkpt lat="45.031753393428865" lon="9.944833168095744"><ele>43.0</ele><time>2026-03-29T06:30:57.999Z</time></trkpt><trkpt lat="45.03168060581003" lon="9.944807379952316"><ele>43.0</ele><time>2026-03-29T06:30:58.999Z</time></trkpt><trkpt lat="45.03160751361614" lon="9.94478089583774"><ele>43.0</ele><time>2026-03-29T06:30:59.999Z</time></trkpt><trkpt lat="45.03153569160869" lon="9.944752966329505"><ele>43.0</ele><time>2026-03-29T06:31:00.999Z</time></trkpt><trkpt lat="45.03146212667874" lon="9.944717900345568"><ele>43.0</ele><time>2026-03-29T06:31:01.999Z</time></trkpt><trkpt lat="45.031390229568736" lon="9.944686102090522"><ele>43.0</ele><time>2026-03-29T06:31:02.999Z</time></trkpt><trkpt lat="45.03131747657293" lon="9.94465646482187"><ele>43.0</ele><time>2026-03-29T06:31:03.999Z</time></trkpt><trkpt lat="45.03124521242517" lon="9.944627339678718"><ele>43.0</ele><time>2026-03-29T06:31:04.999Z</time></trkpt><trkpt lat="45.03117430946869" lon="9.944600249748934"><ele>43.00000000000001</ele><time>2026-03-29T06:31:05.999Z</time></trkpt><trkpt lat="45.031101702783786" lon="9.94457154013775"><ele>43.0</ele><time>2026-03-29T06:31:06.999Z</time></trkpt><trkpt lat="45.03102618318377" lon="9.944542285983443"><ele>43.0</ele><time>2026-03-29T06:31:07.999Z</time></trkpt><trkpt lat="45.0309561277811" lon="9.94451546076643"><ele>43.0</ele><time>2026-03-29T06:31:08.999Z</time></trkpt><trkpt lat="45.030884568137026" lon="9.944487290640518"><ele>43.0</ele><time>2026-03-29T06:31:09.999Z</time></trkpt><trkpt lat="45.03081393611616" lon="9.944459620809814"><ele>43.00000000000001</ele><time>2026-03-29T06:31:10.999Z</time></trkpt><trkpt lat="45.0307422048187" lon="9.944429929199586"><ele>43.0</ele><time>2026-03-29T06:31:11.999Z</time></trkpt><trkpt lat="45.030669523248676" lon="9.944400865527292"><ele>43.16666666666667</ele><time>2026-03-29T06:31:12.999Z</time></trkpt><trkpt lat="45.030598752403876" lon="9.944370432089821"><ele>43.333333333333336</ele><time>2026-03-29T06:31:13.999Z</time></trkpt><trkpt lat="45.03052676777518" lon="9.944341821668413"><ele>43.5</ele><time>2026-03-29T06:31:14.999Z</time></trkpt><trkpt lat="45.03045390452641" lon="9.944312018991068"><ele>43.666666666666664</ele><time>2026-03-29T06:31:15.999Z</time></trkpt><trkpt lat="45.03038098143585" lon="9.94428338354"><ele>43.83333333333333</ele><time>2026-03-29T06:31:16.999Z</time></trkpt><trkpt lat="45.03030861783791" lon="9.944255337979511"><ele>44.0</ele><time>2026-03-29T06:31:17.999Z</time></trkpt><trkpt lat="45.03023594312357" lon="9.944226373112558"><ele>43.666666666666664</ele><time>2026-03-29T06:31:18.999Z</time></trkpt><trkpt lat="45.030162982478636" lon="9.94419825531011"><ele>43.33333333333333</ele><time>2026-03-29T06:31:19.999Z</time></trkpt><trkpt lat="45.03008914781249" lon="9.944170270458127"><ele>43.0</ele><time>2026-03-29T06:31:20.999Z</time></trkpt><trkpt lat="45.03001770547438" lon="9.944141388791964"><ele>42.666666666666664</ele><time>2026-03-29T06:31:21.999Z</time></trkpt><trkpt lat="45.02994304764396" lon="9.944110905397563"><ele>42.333333333333336</ele><time>2026-03-29T06:31:22.999Z</time></trkpt><trkpt lat="45.02986897047488" lon="9.94408245123677"><ele>42.0</ele><time>2026-03-29T06:31:23.999Z</time></trkpt><trkpt lat="45.02979462090192" lon="9.944052886438346"><ele>42.0</ele><time>2026-03-29T06:31:24.999Z</time></trkpt><trkpt lat="45.029721436954354" lon="9.944021458663823"><ele>42.0</ele><time>2026-03-29T06:31:25.999Z</time></trkpt><trkpt lat="45.02964709673717" lon="9.943994188896836"><ele>42.0</ele><time>2026-03-29T06:31:26.999Z</time></trkpt><trkpt lat="45.02957500310012" lon="9.943966133403832"><ele>42.0</ele><time>2026-03-29T06:31:27.999Z</time></trkpt><trkpt lat="45.02950198657326" lon="9.943936710495933"><ele>42.0</ele><time>2026-03-29T06:31:28.999Z</time></trkpt><trkpt lat="45.029429575633664" lon="9.943909481590117"><ele>42.0</ele><time>2026-03-29T06:31:29.999Z</time></trkpt><trkpt lat="45.029355841848506" lon="9.943880299294358"><ele>42.0</ele><time>2026-03-29T06:31:30.999Z</time></trkpt><trkpt lat="45.0292821882903" lon="9.943849905716272"><ele>42.0</ele><time>2026-03-29T06:31:31.999Z</time></trkpt><trkpt lat="45.029211823950824" lon="9.94382221861611"><ele>42.0</ele><time>2026-03-29T06:31:32.999Z</time></trkpt><trkpt lat="45.02913750675685" lon="9.943791855954398"><ele>42.0</ele><time>2026-03-29T06:31:33.999Z</time></trkpt><trkpt lat="45.02906292706485" lon="9.943761025563267"><ele>42.0</ele><time>2026-03-29T06:31:34.999Z</time></trkpt><trkpt lat="45.02899011716866" lon="9.943729941289742"><ele>42.0</ele><time>2026-03-29T06:31:35.999Z</time></trkpt><trkpt lat="45.028916672804876" lon="9.943700752855111"><ele>42.333333333333336</ele><time>2026-03-29T06:31:36.999Z</time></trkpt><trkpt lat="45.02884352484737" lon="9.943673300622839"><ele>42.666666666666664</ele><time>2026-03-29T06:31:37.999Z</time></trkpt><trkpt lat="45.02876914234849" lon="9.943643967689251"><ele>43.0</ele><time>2026-03-29T06:31:38.999Z</time></trkpt><trkpt lat="45.02869514148492" lon="9.943615398220714"><ele>43.33333333333333</ele><time>2026-03-29T06:31:39.999Z</time></trkpt><trkpt lat="45.0286212495323" lon="9.943587962917407"><ele>43.666666666666664</ele><time>2026-03-29T06:31:40.999Z</time></trkpt><trkpt lat="45.028546789191935" lon="9.943556921899297"><ele>44.0</ele><time>2026-03-29T06:31:41.998Z</time></trkpt><trkpt lat="45.028473327728385" lon="9.943525407508409"><ele>44.0</ele><time>2026-03-29T06:31:42.998Z</time></trkpt><trkpt lat="45.028400988438584" lon="9.943496338097788"><ele>44.0</ele><time>2026-03-29T06:31:43.998Z</time></trkpt><trkpt lat="45.028329256486856" lon="9.943467859477586"><ele>44.0</ele><time>2026-03-29T06:31:44.998Z</time></trkpt><trkpt lat="45.028258143535794" lon="9.943440972229526"><ele>44.0</ele><time>2026-03-29T06:31:45.998Z</time></trkpt><trkpt lat="45.028184202428946" lon="9.943412750676925"><ele>44.0</ele><time>2026-03-29T06:31:46.998Z</time></trkpt><trkpt lat="45.0281093256836" lon="9.943381805698571"><ele>44.0</ele><time>2026-03-29T06:31:47.998Z</time></trkpt><trkpt lat="45.02803531285156" lon="9.943351595196333"><ele>43.57142857142857</ele><time>2026-03-29T06:31:48.998Z</time></trkpt><trkpt lat="45.02796360337709" lon="9.943324422677962"><ele>43.14285714285714</ele><time>2026-03-29T06:31:49.998Z</time></trkpt><trkpt lat="45.02789218576683" lon="9.943298234914371"><ele>42.71428571428571</ele><time>2026-03-29T06:31:50.998Z</time></trkpt><trkpt lat="45.02781925223251" lon="9.943269985828803"><ele>42.285714285714285</ele><time>2026-03-29T06:31:51.998Z</time></trkpt><trkpt lat="45.027747053646515" lon="9.943243243298019"><ele>41.857142857142854</ele><time>2026-03-29T06:31:52.998Z</time></trkpt><trkpt lat="45.02767468616645" lon="9.943215689855192"><ele>41.42857142857142</ele><time>2026-03-29T06:31:53.998Z</time></trkpt><trkpt lat="45.02760245134512" lon="9.943186723873316"><ele>41.0</ele><time>2026-03-29T06:31:54.998Z</time></trkpt><trkpt lat="45.02752988606619" lon="9.943158676073605"><ele>41.0</ele><time>2026-03-29T06:31:55.998Z</time></trkpt><trkpt lat="45.02745653292832" lon="9.943128875123342"><ele>41.0</ele><time>2026-03-29T06:31:56.998Z</time></trkpt><trkpt lat="45.02738308164303" lon="9.94310075307377"><ele>41.0</ele><time>2026-03-29T06:31:57.998Z</time></trkpt><trkpt lat="45.027309942996055" lon="9.943070193103612"><ele>41.0</ele><time>2026-03-29T06:31:58.998Z</time></trkpt><trkpt lat="45.027235422782034" lon="9.943040857881444"><ele>41.0</ele><time>2026-03-29T06:31:59.998Z</time></trkpt><trkpt lat="45.0271610118775" lon="9.94300918674249"><ele>41.0</ele><time>2026-03-29T06:32:00.998Z</time></trkpt><trkpt lat="45.027089809449215" lon="9.942982094401238"><ele>41.0</ele><time>2026-03-29T06:32:01.998Z</time></trkpt><trkpt lat="45.02701376274811" lon="9.942955315124589"><ele>41.0</ele><time>2026-03-29T06:32:02.998Z</time></trkpt><trkpt lat="45.0269393759024" lon="9.94292725429862"><ele>41.0</ele><time>2026-03-29T06:32:03.998Z</time></trkpt><trkpt lat="45.0268662336597" lon="9.942896871514334"><ele>41.0</ele><time>2026-03-29T06:32:04.998Z</time></trkpt><trkpt lat="45.02679308728522" lon="9.942865289561661"><ele>41.0</ele><time>2026-03-29T06:32:05.998Z</time></trkpt><trkpt lat="45.02672075629339" lon="9.942837144853751"><ele>41.0</ele><time>2026-03-29T06:32:06.998Z</time></trkpt><trkpt lat="45.02664557817416" lon="9.942806382391906"><ele>41.166666666666664</ele><time>2026-03-29T06:32:07.998Z</time></trkpt><trkpt lat="45.026570294881246" lon="9.942776101160728"><ele>41.33333333333333</ele><time>2026-03-29T06:32:08.998Z</time></trkpt><trkpt lat="45.02649566728664" lon="9.942744375348571"><ele>41.5</ele><time>2026-03-29T06:32:09.998Z</time></trkpt><trkpt lat="45.026421718305706" lon="9.942715779618677"><ele>41.666666666666664</ele><time>2026-03-29T06:32:10.998Z</time></trkpt><trkpt lat="45.026347416737266" lon="9.942684858719824"><ele>41.833333333333336</ele><time>2026-03-29T06:32:11.998Z</time></trkpt><trkpt lat="45.026274205998114" lon="9.942655243177269"><ele>42.0</ele><time>2026-03-29T06:32:12.998Z</time></trkpt><trkpt lat="45.026201647957585" lon="9.942626470306262"><ele>42.0</ele><time>2026-03-29T06:32:13.998Z</time></trkpt><trkpt lat="45.02612970672087" lon="9.942598743856841"><ele>42.0</ele><time>2026-03-29T06:32:14.998Z</time></trkpt><trkpt lat="45.02605612904999" lon="9.942569219507499"><ele>42.0</ele><time>2026-03-29T06:32:15.998Z</time></trkpt><trkpt lat="45.02598136445398" lon="9.942539025442121"><ele>42.0</ele><time>2026-03-29T06:32:16.998Z</time></trkpt><trkpt lat="45.02590771395168" lon="9.942509707859521"><ele>42.0</ele><time>2026-03-29T06:32:17.998Z</time></trkpt><trkpt lat="45.02583519464171" lon="9.942480866962924"><ele>42.0</ele><time>2026-03-29T06:32:18.998Z</time></trkpt><trkpt lat="45.02576157363719" lon="9.942451848802481"><ele>42.333333333333336</ele><time>2026-03-29T06:32:19.998Z</time></trkpt><trkpt lat="45.025688413739275" lon="9.942420252076987"><ele>42.666666666666664</ele><time>2026-03-29T06:32:20.998Z</time></trkpt><trkpt lat="45.02561348459914" lon="9.942389769715302"><ele>43.0</ele><time>2026-03-29T06:32:21.998Z</time></trkpt><trkpt lat="45.02554134328802" lon="9.942360338043066"><ele>43.33333333333333</ele><time>2026-03-29T06:32:22.998Z</time></trkpt><trkpt lat="45.02546918190484" lon="9.94233163228536"><ele>43.666666666666664</ele><time>2026-03-29T06:32:23.998Z</time></trkpt><trkpt lat="45.025397261938444" lon="9.942301591325622"><ele>44.0</ele><time>2026-03-29T06:32:24.998Z</time></trkpt><trkpt lat="45.02532635682398" lon="9.942272590711202"><ele>44.0</ele><time>2026-03-29T06:32:25.998Z</time></trkpt><trkpt lat="45.02525459046591" lon="9.942243189942657"><ele>44.0</ele><time>2026-03-29T06:32:27Z</time></trkpt><trkpt lat="45.025180264544964" lon="9.94221209396271"><ele>44.0</ele><time>2026-03-29T06:32:28Z</time></trkpt><trkpt lat="45.0251082268047" lon="9.942182778505797"><ele>44.0</ele><time>2026-03-29T06:32:29Z</time></trkpt><trkpt lat="45.02503418665537" lon="9.94215315958966"><ele>44.0</ele><time>2026-03-29T06:32:30Z</time></trkpt><trkpt lat="45.024958590961376" lon="9.942123587072635"><ele>44.0</ele><time>2026-03-29T06:32:31Z</time></trkpt><trkpt lat="45.02488472946058" lon="9.942095376834699"><ele>43.666666666666664</ele><time>2026-03-29T06:32:32Z</time></trkpt><trkpt lat="45.02481254778219" lon="9.942067719632341"><ele>43.33333333333333</ele><time>2026-03-29T06:32:33Z</time></trkpt><trkpt lat="45.024738420450404" lon="9.942044792886557"><ele>43.0</ele><time>2026-03-29T06:32:34Z</time></trkpt><trkpt lat="45.02466367703322" lon="9.942027242229626"><ele>42.666666666666664</ele><time>2026-03-29T06:32:35Z</time></trkpt><trkpt lat="45.024587687603" lon="9.94202337213778"><ele>42.333333333333336</ele><time>2026-03-29T06:32:36Z</time></trkpt><trkpt lat="45.02451035946612" lon="9.942031668724562"><ele>42.0</ele><time>2026-03-29T06:32:37Z</time></trkpt><trkpt lat="45.024431402538276" lon="9.942054837836821"><ele>42.0</ele><time>2026-03-29T06:32:38Z</time></trkpt><trkpt lat="45.02435467166456" lon="9.942088851762806"><ele>42.0</ele><time>2026-03-29T06:32:39Z</time></trkpt><trkpt lat="45.02428039616956" lon="9.942134262897472"><ele>42.0</ele><time>2026-03-29T06:32:40Z</time></trkpt><trkpt lat="45.02421355052087" lon="9.942192460687465"><ele>42.0</ele><time>2026-03-29T06:32:41Z</time></trkpt><trkpt lat="45.02414707865697" lon="9.942259719615823"><ele>42.0</ele><time>2026-03-29T06:32:42Z</time></trkpt><trkpt lat="45.0240872733124" lon="9.942333364230569"><ele>42.0</ele><time>2026-03-29T06:32:43Z</time></trkpt><trkpt lat="45.024029990951895" lon="9.942410049027067"><ele>42.5</ele><time>2026-03-29T06:32:44Z</time></trkpt><trkpt lat="45.023975418018345" lon="9.942491621945186"><ele>43.0</ele><time>2026-03-29T06:32:45Z</time></trkpt><trkpt lat="45.023923266999574" lon="9.942571046351972"><ele>43.5</ele><time>2026-03-29T06:32:46Z</time></trkpt><trkpt lat="45.023867909301586" lon="9.942647866119236"><ele>44.0</ele><time>2026-03-29T06:32:47Z</time></trkpt><trkpt lat="45.02381189130955" lon="9.942728915601558"><ele>44.5</ele><time>2026-03-29T06:32:48Z</time></trkpt><trkpt lat="45.0237560321492" lon="9.942809877535014"><ele>45.0</ele><time>2026-03-29T06:32:49Z</time></trkpt><trkpt lat="45.02370244362756" lon="9.942889479332559"><ele>45.0</ele><time>2026-03-29T06:32:50Z</time></trkpt><trkpt lat="45.02364675074681" lon="9.942967988393775"><ele>45.0</ele><time>2026-03-29T06:32:50.999Z</time></trkpt><trkpt lat="45.023593063533646" lon="9.9430465621598"><ele>45.0</ele><time>2026-03-29T06:32:51.999Z</time></trkpt><trkpt lat="45.02353787752264" lon="9.943126476460765"><ele>45.0</ele><time>2026-03-29T06:32:52.999Z</time></trkpt><trkpt lat="45.02348346958705" lon="9.94320504355032"><ele>45.0</ele><time>2026-03-29T06:32:53.999Z</time></trkpt><trkpt lat="45.02342800146159" lon="9.94328463333694"><ele>45.0</ele><time>2026-03-29T06:32:54.999Z</time></trkpt><trkpt lat="45.02337363935119" lon="9.943363512556216"><ele>44.666666666666664</ele><time>2026-03-29T06:32:55.999Z</time></trkpt><trkpt lat="45.023318241705546" lon="9.943445035399595"><ele>44.333333333333336</ele><time>2026-03-29T06:32:56.999Z</time></trkpt><trkpt lat="45.02326501801442" lon="9.943526607310455"><ele>44.0</ele><time>2026-03-29T06:32:57.999Z</time></trkpt><trkpt lat="45.02320996818328" lon="9.943605958280422"><ele>43.66666666666667</ele><time>2026-03-29T06:32:58.999Z</time></trkpt><trkpt lat="45.02315469298258" lon="9.943685373909268"><ele>43.333333333333336</ele><time>2026-03-29T06:32:59.999Z</time></trkpt><trkpt lat="45.02310013828563" lon="9.943766910839896"><ele>43.0</ele><time>2026-03-29T06:33:00.999Z</time></trkpt><trkpt lat="45.02304572710818" lon="9.943846544456237"><ele>43.0</ele><time>2026-03-29T06:33:01.999Z</time></trkpt><trkpt lat="45.0229906074656" lon="9.943926711612958"><ele>43.0</ele><time>2026-03-29T06:33:02.999Z</time></trkpt><trkpt lat="45.02293719277197" lon="9.944005048993795"><ele>43.0</ele><time>2026-03-29T06:33:03.999Z</time></trkpt><trkpt lat="45.022883072418296" lon="9.944086407867715"><ele>43.0</ele><time>2026-03-29T06:33:04.999Z</time></trkpt><trkpt lat="45.022829749834614" lon="9.944164399212015"><ele>43.0</ele><time>2026-03-29T06:33:05.999Z</time></trkpt><trkpt lat="45.022775702042985" lon="9.944244717491426"><ele>43.0</ele><time>2026-03-29T06:33:06.999Z</time></trkpt><trkpt lat="45.0227219863518" lon="9.944325116365999"><ele>43.16666666666667</ele><time>2026-03-29T06:33:07.999Z</time></trkpt><trkpt lat="45.022672435294446" lon="9.944407945260632"><ele>43.333333333333336</ele><time>2026-03-29T06:33:08.999Z</time></trkpt><trkpt lat="45.022627519305445" lon="9.944497461245536"><ele>43.5</ele><time>2026-03-29T06:33:09.999Z</time></trkpt><trkpt lat="45.02258716842947" lon="9.944592283452396"><ele>43.666666666666664</ele><time>2026-03-29T06:33:10.999Z</time></trkpt><trkpt lat="45.02255078116125" lon="9.944691371530249"><ele>43.83333333333333</ele><time>2026-03-29T06:33:11.999Z</time></trkpt><trkpt lat="45.022519034707706" lon="9.944795494720744"><ele>44.0</ele><time>2026-03-29T06:33:12.999Z</time></trkpt><trkpt lat="45.02248846505619" lon="9.944900912130004"><ele>44.0</ele><time>2026-03-29T06:33:13.999Z</time></trkpt><trkpt lat="45.022456043370525" lon="9.945003305220885"><ele>44.0</ele><time>2026-03-29T06:33:14.999Z</time></trkpt><trkpt lat="45.022424528505674" lon="9.945108096496304"><ele>44.0</ele><time>2026-03-29T06:33:15.999Z</time></trkpt><trkpt lat="45.022393934598675" lon="9.945211940778625"><ele>44.0</ele><time>2026-03-29T06:33:16.999Z</time></trkpt><trkpt lat="45.02236401325426" lon="9.945315131559548"><ele>44.0</ele><time>2026-03-29T06:33:17.999Z</time></trkpt><trkpt lat="45.02233205118918" lon="9.945417277999882"><ele>44.0</ele><time>2026-03-29T06:33:18.999Z</time></trkpt><trkpt lat="45.02230252755537" lon="9.945520911122163"><ele>44.0</ele><time>2026-03-29T06:33:19.999Z</time></trkpt><trkpt lat="45.02227277648968" lon="9.945623277356338"><ele>44.0</ele><time>2026-03-29T06:33:20.999Z</time></trkpt><trkpt lat="45.02224221360357" lon="9.945722146185938"><ele>44.0</ele><time>2026-03-29T06:33:21.999Z</time></trkpt><trkpt lat="45.02221189212383" lon="9.945823987583722"><ele>44.0</ele><time>2026-03-29T06:33:22.999Z</time></trkpt><trkpt lat="45.022180300041136" lon="9.945924030672115"><ele>44.0</ele><time>2026-03-29T06:33:23.999Z</time></trkpt><trkpt lat="45.022151800001616" lon="9.94602423085655"><ele>44.0</ele><time>2026-03-29T06:33:24.999Z</time></trkpt><trkpt lat="45.02211976260571" lon="9.946125328349202"><ele>44.166666666666664</ele><time>2026-03-29T06:33:25.999Z</time></trkpt><trkpt lat="45.022089510136226" lon="9.946225937116163"><ele>44.33333333333333</ele><time>2026-03-29T06:33:26.999Z</time></trkpt><trkpt lat="45.022058648757735" lon="9.946325327510433"><ele>44.5</ele><time>2026-03-29T06:33:27.999Z</time></trkpt><trkpt lat="45.022028683578206" lon="9.946425079368957"><ele>44.666666666666664</ele><time>2026-03-29T06:33:28.999Z</time></trkpt><trkpt lat="45.021997504797724" lon="9.94652489080762"><ele>44.833333333333336</ele><time>2026-03-29T06:33:29.999Z</time></trkpt><trkpt lat="45.0219677264909" lon="9.94662426221301"><ele>45.0</ele><time>2026-03-29T06:33:30.999Z</time></trkpt><trkpt lat="45.02193882814021" lon="9.946722587446116"><ele>45.166666666666664</ele><time>2026-03-29T06:33:31.999Z</time></trkpt><trkpt lat="45.0219094045253" lon="9.946821462303781"><ele>45.333333333333336</ele><time>2026-03-29T06:33:32.999Z</time></trkpt><trkpt lat="45.02188008994729" lon="9.94691909629465"><ele>45.5</ele><time>2026-03-29T06:33:33.999Z</time></trkpt><trkpt lat="45.02185257247166" lon="9.947016847939924"><ele>45.66666666666667</ele><time>2026-03-29T06:33:34.999Z</time></trkpt><trkpt lat="45.021825346936545" lon="9.947116499936708"><ele>45.833333333333336</ele><time>2026-03-29T06:33:35.999Z</time></trkpt><trkpt lat="45.02179792071751" lon="9.94721535491239"><ele>46.0</ele><time>2026-03-29T06:33:36.999Z</time></trkpt><trkpt lat="45.021772573754575" lon="9.947315948199188"><ele>46.0</ele><time>2026-03-29T06:33:37.999Z</time></trkpt><trkpt lat="45.02174667834464" lon="9.94741694998552"><ele>46.0</ele><time>2026-03-29T06:33:38.999Z</time></trkpt><trkpt lat="45.02172169588702" lon="9.947518179208844"><ele>46.0</ele><time>2026-03-29T06:33:39.999Z</time></trkpt><trkpt lat="45.0216952215832" lon="9.947619380541058"><ele>46.0</ele><time>2026-03-29T06:33:40.999Z</time></trkpt><trkpt lat="45.02166901839524" lon="9.947721087126304"><ele>46.0</ele><time>2026-03-29T06:33:41.999Z</time></trkpt><trkpt lat="45.02164159061939" lon="9.947823017612565"><ele>46.0</ele><time>2026-03-29T06:33:42.999Z</time></trkpt><trkpt lat="45.02161705805745" lon="9.947926206326642"><ele>46.285714285714285</ele><time>2026-03-29T06:33:43.999Z</time></trkpt><trkpt lat="45.02159189793474" lon="9.948026911033608"><ele>46.57142857142857</ele><time>2026-03-29T06:33:44.999Z</time></trkpt><trkpt lat="45.02156313425164" lon="9.948126748957142"><ele>46.857142857142854</ele><time>2026-03-29T06:33:45.999Z</time></trkpt><trkpt lat="45.021531263030425" lon="9.948223936883476"><ele>47.14285714285714</ele><time>2026-03-29T06:33:46.998Z</time></trkpt><trkpt lat="45.02149917481565" lon="9.94831954063397"><ele>47.42857142857143</ele><time>2026-03-29T06:33:47.998Z</time></trkpt><trkpt lat="45.021466362823666" lon="9.948410299070872"><ele>47.71428571428571</ele><time>2026-03-29T06:33:48.998Z</time></trkpt><trkpt lat="45.02142989657681" lon="9.94849480563867"><ele>48.0</ele><time>2026-03-29T06:33:49.998Z</time></trkpt><trkpt lat="45.02132011345537" lon="9.94856966325149"><ele>48.71428571428571</ele><time>2026-03-29T06:33:51.998Z</time></trkpt><trkpt lat="45.02125767159197" lon="9.948546409280759"><ele>49.42857142857143</ele><time>2026-03-29T06:33:52.998Z</time></trkpt><trkpt lat="45.02119476292941" lon="9.948504747875804"><ele>50.14285714285714</ele><time>2026-03-29T06:33:53.998Z</time></trkpt><trkpt lat="45.02113202756085" lon="9.948474088708226"><ele>50.857142857142854</ele><time>2026-03-29T06:33:54.998Z</time></trkpt><trkpt lat="45.02106358795971" lon="9.94844796258993"><ele>51.57142857142857</ele><time>2026-03-29T06:33:55.998Z</time></trkpt><trkpt lat="45.02099447800882" lon="9.948425772270003"><ele>52.285714285714285</ele><time>2026-03-29T06:33:56.998Z</time></trkpt><trkpt lat="45.020923396699025" lon="9.948414392911083"><ele>53.0</ele><time>2026-03-29T06:33:57.998Z</time></trkpt><trkpt lat="45.02085331779411" lon="9.948402365530324"><ele>52.333333333333336</ele><time>2026-03-29T06:33:58.998Z</time></trkpt><trkpt lat="45.02071665832373" lon="9.948380902158172"><ele>51.66666666666667</ele><time>2026-03-29T06:34:00.998Z</time></trkpt><trkpt lat="45.02063998411182" lon="9.948365479620904"><ele>51.0</ele><time>2026-03-29T06:34:01.998Z</time></trkpt><trkpt lat="45.020563819135894" lon="9.94835500075657"><ele>50.33333333333333</ele><time>2026-03-29T06:34:02.998Z</time></trkpt><trkpt lat="45.02049157759879" lon="9.948345014763342"><ele>49.666666666666664</ele><time>2026-03-29T06:34:03.998Z</time></trkpt><trkpt lat="45.020415905089536" lon="9.9483313919135"><ele>49.0</ele><time>2026-03-29T06:34:04.998Z</time></trkpt><trkpt lat="45.02033943280997" lon="9.948318401797229"><ele>48.83333333333333</ele><time>2026-03-29T06:34:05.998Z</time></trkpt><trkpt lat="45.02026113759543" lon="9.948311339385167"><ele>48.666666666666664</ele><time>2026-03-29T06:34:06.998Z</time></trkpt><trkpt lat="45.02018327945749" lon="9.94830718509897"><ele>48.5</ele><time>2026-03-29T06:34:07.998Z</time></trkpt><trkpt lat="45.02010484195862" lon="9.948301077166475"><ele>48.33333333333333</ele><time>2026-03-29T06:34:08.998Z</time></trkpt><trkpt lat="45.02002699357066" lon="9.948294671113029"><ele>48.166666666666664</ele><time>2026-03-29T06:34:09.998Z</time></trkpt><trkpt lat="45.019949039689344" lon="9.94828798604869"><ele>48.0</ele><time>2026-03-29T06:34:10.998Z</time></trkpt><trkpt lat="45.01986980035808" lon="9.948283858413577"><ele>47.666666666666664</ele><time>2026-03-29T06:34:11.998Z</time></trkpt><trkpt lat="45.01979319418585" lon="9.94827904002532"><ele>47.333333333333336</ele><time>2026-03-29T06:34:12.998Z</time></trkpt><trkpt lat="45.019714215970964" lon="9.94827720898162"><ele>47.0</ele><time>2026-03-29T06:34:13.998Z</time></trkpt><trkpt lat="45.0196364580183" lon="9.948269555833301"><ele>46.66666666666667</ele><time>2026-03-29T06:34:14.998Z</time></trkpt><trkpt lat="45.01956057657096" lon="9.9482586436068"><ele>46.333333333333336</ele><time>2026-03-29T06:34:15.998Z</time></trkpt><trkpt lat="45.01948346483385" lon="9.948246972395067"><ele>46.0</ele><time>2026-03-29T06:34:16.998Z</time></trkpt><trkpt lat="45.019409245787315" lon="9.948239113851871"><ele>46.0</ele><time>2026-03-29T06:34:17.998Z</time></trkpt><trkpt lat="45.019332063274355" lon="9.94823216566583"><ele>46.0</ele><time>2026-03-29T06:34:18.998Z</time></trkpt><trkpt lat="45.01925765305717" lon="9.9482226893416"><ele>46.0</ele><time>2026-03-29T06:34:19.998Z</time></trkpt><trkpt lat="45.01918324215417" lon="9.948210844024665"><ele>46.0</ele><time>2026-03-29T06:34:20.998Z</time></trkpt><trkpt lat="45.01910714932949" lon="9.948202786638346"><ele>46.0</ele><time>2026-03-29T06:34:21.998Z</time></trkpt><trkpt lat="45.019032515007034" lon="9.948193670924205"><ele>46.0</ele><time>2026-03-29T06:34:22.998Z</time></trkpt><trkpt lat="45.01895678669294" lon="9.948179106946634"><ele>46.0</ele><time>2026-03-29T06:34:23.998Z</time></trkpt><trkpt lat="45.018882484764845" lon="9.948169706320357"><ele>46.0</ele><time>2026-03-29T06:34:24.998Z</time></trkpt><trkpt lat="45.01880817756277" lon="9.948147577426562"><ele>46.0</ele><time>2026-03-29T06:34:25.998Z</time></trkpt><trkpt lat="45.01873153602417" lon="9.948114506016939"><ele>46.0</ele><time>2026-03-29T06:34:26.998Z</time></trkpt><trkpt lat="45.01865999898463" lon="9.948075979559185"><ele>46.0</ele><time>2026-03-29T06:34:27.998Z</time></trkpt><trkpt lat="45.018588139102484" lon="9.948032508256546"><ele>46.0</ele><time>2026-03-29T06:34:28.998Z</time></trkpt><trkpt lat="45.01851867217751" lon="9.947987030055998"><ele>46.0</ele><time>2026-03-29T06:34:29.998Z</time></trkpt><trkpt lat="45.01844821219951" lon="9.947938050302152"><ele>46.0</ele><time>2026-03-29T06:34:30.998Z</time></trkpt><trkpt lat="45.01837825421813" lon="9.94789004480398"><ele>46.0</ele><time>2026-03-29T06:34:31.998Z</time></trkpt><trkpt lat="45.01830610899847" lon="9.947846980139994"><ele>46.0</ele><time>2026-03-29T06:34:33Z</time></trkpt><trkpt lat="45.01823345434705" lon="9.947806085307768"><ele>46.0</ele><time>2026-03-29T06:34:34Z</time></trkpt><trkpt lat="45.01815883003837" lon="9.947770562372853"><ele>46.0</ele><time>2026-03-29T06:34:35Z</time></trkpt><trkpt lat="45.018086264532215" lon="9.94773547820983"><ele>46.0</ele><time>2026-03-29T06:34:36Z</time></trkpt><trkpt lat="45.01801156248184" lon="9.947700561581348"><ele>46.0</ele><time>2026-03-29T06:34:37Z</time></trkpt><trkpt lat="45.01793649059034" lon="9.947666193845704"><ele>46.0</ele><time>2026-03-29T06:34:38Z</time></trkpt><trkpt lat="45.01786484453375" lon="9.947631686064858"><ele>46.0</ele><time>2026-03-29T06:34:39Z</time></trkpt><trkpt lat="45.017790072954334" lon="9.947601696828048"><ele>46.0</ele><time>2026-03-29T06:34:40Z</time></trkpt><trkpt lat="45.01771617417368" lon="9.947571783840775"><ele>46.0</ele><time>2026-03-29T06:34:41Z</time></trkpt><trkpt lat="45.017640586217794" lon="9.947540995445747"><ele>45.833333333333336</ele><time>2026-03-29T06:34:42Z</time></trkpt><trkpt lat="45.01756545286452" lon="9.947511603905324"><ele>45.66666666666667</ele><time>2026-03-29T06:34:43Z</time></trkpt><trkpt lat="45.01748988954925" lon="9.947483012537758"><ele>45.5</ele><time>2026-03-29T06:34:44Z</time></trkpt><trkpt lat="45.01741489031967" lon="9.947453724247476"><ele>45.333333333333336</ele><time>2026-03-29T06:34:45Z</time></trkpt><trkpt lat="45.01733844414642" lon="9.947425772422037"><ele>45.166666666666664</ele><time>2026-03-29T06:34:46Z</time></trkpt><trkpt lat="45.01726329732518" lon="9.947397709509573"><ele>45.0</ele><time>2026-03-29T06:34:47Z</time></trkpt><trkpt lat="45.01718897003978" lon="9.947369255433202"><ele>45.0</ele><time>2026-03-29T06:34:48Z</time></trkpt><trkpt lat="45.01711439065829" lon="9.947342868591665"><ele>45.0</ele><time>2026-03-29T06:34:49Z</time></trkpt><trkpt lat="45.017040057096736" lon="9.94731516625165"><ele>45.0</ele><time>2026-03-29T06:34:50Z</time></trkpt><trkpt lat="45.01696682070037" lon="9.947288573175243"><ele>45.0</ele><time>2026-03-29T06:34:51Z</time></trkpt><trkpt lat="45.01689240552092" lon="9.947260321355639"><ele>45.0</ele><time>2026-03-29T06:34:52Z</time></trkpt><trkpt lat="45.01682033176365" lon="9.947228591892912"><ele>45.0</ele><time>2026-03-29T06:34:53Z</time></trkpt><trkpt lat="45.01674692691895" lon="9.947197323932667"><ele>45.0</ele><time>2026-03-29T06:34:54Z</time></trkpt><trkpt lat="45.0166738351392" lon="9.94716283770486"><ele>45.0</ele><time>2026-03-29T06:34:55Z</time></trkpt><trkpt lat="45.01660050954628" lon="9.94712700412062"><ele>45.0</ele><time>2026-03-29T06:34:56Z</time></trkpt><trkpt lat="45.016528219971924" lon="9.947088142332452"><ele>45.0</ele><time>2026-03-29T06:34:56.999Z</time></trkpt><trkpt lat="45.01645663681705" lon="9.947048078399929"><ele>45.0</ele><time>2026-03-29T06:34:57.999Z</time></trkpt><trkpt lat="45.01638431065231" lon="9.947006060578847"><ele>45.0</ele><time>2026-03-29T06:34:58.999Z</time></trkpt><trkpt lat="45.016312674033365" lon="9.946961971225837"><ele>45.0</ele><time>2026-03-29T06:34:59.999Z</time></trkpt><trkpt lat="45.016242134682116" lon="9.946913350980589"><ele>45.0</ele><time>2026-03-29T06:35:00.999Z</time></trkpt><trkpt lat="45.01617389091233" lon="9.946863223600163"><ele>45.0</ele><time>2026-03-29T06:35:01.999Z</time></trkpt><trkpt lat="45.01610621976036" lon="9.94680986010795"><ele>45.0</ele><time>2026-03-29T06:35:02.999Z</time></trkpt><trkpt lat="45.01603745694671" lon="9.946754377464194"><ele>45.0</ele><time>2026-03-29T06:35:03.999Z</time></trkpt><trkpt lat="45.01596906179437" lon="9.946700243615838"><ele>45.0</ele><time>2026-03-29T06:35:04.999Z</time></trkpt><trkpt lat="45.015902861688694" lon="9.946645610432094"><ele>45.0</ele><time>2026-03-29T06:35:05.999Z</time></trkpt><trkpt lat="45.01583566437954" lon="9.946591645213086"><ele>45.0</ele><time>2026-03-29T06:35:06.999Z</time></trkpt><trkpt lat="45.015769328351745" lon="9.946534843932207"><ele>45.0</ele><time>2026-03-29T06:35:07.999Z</time></trkpt><trkpt lat="45.01570371838573" lon="9.9464787733531"><ele>45.0</ele><time>2026-03-29T06:35:08.999Z</time></trkpt><trkpt lat="45.01563790829904" lon="9.946425575034905"><ele>45.0</ele><time>2026-03-29T06:35:09.999Z</time></trkpt><trkpt lat="45.01557182212176" lon="9.946372132650982"><ele>45.0</ele><time>2026-03-29T06:35:10.999Z</time></trkpt><trkpt lat="45.01550632149839" lon="9.946318942202442"><ele>45.166666666666664</ele><time>2026-03-29T06:35:11.999Z</time></trkpt><trkpt lat="45.015440827904044" lon="9.946265842965985"><ele>45.333333333333336</ele><time>2026-03-29T06:35:12.999Z</time></trkpt><trkpt lat="45.01537408309987" lon="9.946212120456709"><ele>45.5</ele><time>2026-03-29T06:35:13.999Z</time></trkpt><trkpt lat="45.015307890167456" lon="9.946159198414275"><ele>45.66666666666667</ele><time>2026-03-29T06:35:14.999Z</time></trkpt><trkpt lat="45.01524199243758" lon="9.946104440373487"><ele>45.833333333333336</ele><time>2026-03-29T06:35:15.999Z</time></trkpt><trkpt lat="45.01517658793358" lon="9.946050190902744"><ele>46.0</ele><time>2026-03-29T06:35:16.999Z</time></trkpt><trkpt lat="45.01511265394826" lon="9.945998996892468"><ele>46.0</ele><time>2026-03-29T06:35:17.999Z</time></trkpt><trkpt lat="45.01504545637002" lon="9.945948153969008"><ele>46.0</ele><time>2026-03-29T06:35:18.999Z</time></trkpt><trkpt lat="45.01497927493616" lon="9.945897361017433"><ele>46.0</ele><time>2026-03-29T06:35:19.999Z</time></trkpt><trkpt lat="45.014913851647044" lon="9.945847664685104"><ele>46.0</ele><time>2026-03-29T06:35:20.999Z</time></trkpt><trkpt lat="45.014847125790475" lon="9.945793922623794"><ele>46.0</ele><time>2026-03-29T06:35:21.999Z</time></trkpt><trkpt lat="45.014785409260384" lon="9.945738087022706"><ele>46.0</ele><time>2026-03-29T06:35:22.999Z</time></trkpt><trkpt lat="45.014718479078454" lon="9.945685001591626"><ele>45.66666666666667</ele><time>2026-03-29T06:35:23.999Z</time></trkpt><trkpt lat="45.01465491358729" lon="9.94563074102585"><ele>45.333333333333336</ele><time>2026-03-29T06:35:24.999Z</time></trkpt><trkpt lat="45.014590294955234" lon="9.945575754617204"><ele>45.0</ele><time>2026-03-29T06:35:25.999Z</time></trkpt><trkpt lat="45.01452303555659" lon="9.945522646416872"><ele>44.666666666666664</ele><time>2026-03-29T06:35:26.999Z</time></trkpt><trkpt lat="45.014457636707895" lon="9.945468625622802"><ele>44.33333333333333</ele><time>2026-03-29T06:35:27.999Z</time></trkpt><trkpt lat="45.01439265234268" lon="9.945414486899827"><ele>44.0</ele><time>2026-03-29T06:35:28.999Z</time></trkpt><trkpt lat="45.01432682772378" lon="9.945360557077672"><ele>44.0</ele><time>2026-03-29T06:35:29.999Z</time></trkpt><trkpt lat="45.01426182806315" lon="9.945307266369298"><ele>44.0</ele><time>2026-03-29T06:35:30.999Z</time></trkpt><trkpt lat="45.01419638522132" lon="9.945251970165772"><ele>44.0</ele><time>2026-03-29T06:35:31.999Z</time></trkpt><trkpt lat="45.014129810310145" lon="9.945198055899601"><ele>44.0</ele><time>2026-03-29T06:35:32.999Z</time></trkpt><trkpt lat="45.01406289441907" lon="9.945145048092073"><ele>44.0</ele><time>2026-03-29T06:35:33.999Z</time></trkpt><trkpt lat="45.013998817512686" lon="9.945089816775793"><ele>44.0</ele><time>2026-03-29T06:35:34.999Z</time></trkpt><trkpt lat="45.01393422508667" lon="9.945031621847589"><ele>44.0</ele><time>2026-03-29T06:35:35.999Z</time></trkpt><trkpt lat="45.01386953355521" lon="9.944975963200125"><ele>44.0</ele><time>2026-03-29T06:35:36.999Z</time></trkpt><trkpt lat="45.01380132688465" lon="9.944924229062638"><ele>44.0</ele><time>2026-03-29T06:35:37.999Z</time></trkpt><trkpt lat="45.01373307241177" lon="9.944880491631778"><ele>44.0</ele><time>2026-03-29T06:35:38.999Z</time></trkpt><trkpt lat="45.01366805274865" lon="9.94483377502143"><ele>44.0</ele><time>2026-03-29T06:35:39.999Z</time></trkpt><trkpt lat="45.01360447134915" lon="9.944785516474026"><ele>44.0</ele><time>2026-03-29T06:35:40.999Z</time></trkpt><trkpt lat="45.01353847572324" lon="9.944738520565192"><ele>44.0</ele><time>2026-03-29T06:35:41.999Z</time></trkpt><trkpt lat="45.01347276704818" lon="9.944691176152352"><ele>44.0</ele><time>2026-03-29T06:35:42.999Z</time></trkpt><trkpt lat="45.01340474878671" lon="9.944645199609907"><ele>44.0</ele><time>2026-03-29T06:35:43.999Z</time></trkpt><trkpt lat="45.01333572528969" lon="9.944602641856857"><ele>44.0</ele><time>2026-03-29T06:35:44.999Z</time></trkpt><trkpt lat="45.01326812789732" lon="9.94456292590462"><ele>44.0</ele><time>2026-03-29T06:35:45.999Z</time></trkpt><trkpt lat="45.01319708802995" lon="9.944521431766747"><ele>44.0</ele><time>2026-03-29T06:35:46.999Z</time></trkpt><trkpt lat="45.01312653005257" lon="9.944483119032753"><ele>44.0</ele><time>2026-03-29T06:35:47.999Z</time></trkpt><trkpt lat="45.01305587990243" lon="9.944448515800572"><ele>44.0</ele><time>2026-03-29T06:35:48.999Z</time></trkpt><trkpt lat="45.01298353665709" lon="9.944420670171409"><ele>44.0</ele><time>2026-03-29T06:35:49.999Z</time></trkpt><trkpt lat="45.01290889868424" lon="9.944395325936245"><ele>44.0</ele><time>2026-03-29T06:35:50.999Z</time></trkpt><trkpt lat="45.01283437565681" lon="9.944370437328017"><ele>44.0</ele><time>2026-03-29T06:35:51.998Z</time></trkpt><trkpt lat="45.01276125882863" lon="9.944344222865984"><ele>44.0</ele><time>2026-03-29T06:35:52.998Z</time></trkpt><trkpt lat="45.01268655406366" lon="9.944326404903604"><ele>44.0</ele><time>2026-03-29T06:35:53.998Z</time></trkpt><trkpt lat="45.01261131712434" lon="9.944308879660008"><ele>44.0</ele><time>2026-03-29T06:35:54.998Z</time></trkpt><trkpt lat="45.012536591114475" lon="9.944288616680643"><ele>44.0</ele><time>2026-03-29T06:35:55.998Z</time></trkpt><trkpt lat="45.012461803394395" lon="9.944270846202427"><ele>44.0</ele><time>2026-03-29T06:35:56.998Z</time></trkpt><trkpt lat="45.01238722252441" lon="9.94425454884197"><ele>44.0</ele><time>2026-03-29T06:35:57.998Z</time></trkpt><trkpt lat="45.01231339898822" lon="9.944235140971932"><ele>44.0</ele><time>2026-03-29T06:35:58.998Z</time></trkpt><trkpt lat="45.01223881778554" lon="9.944217481092496"><ele>44.0</ele><time>2026-03-29T06:35:59.998Z</time></trkpt><trkpt lat="45.01216288668831" lon="9.94419933565387"><ele>44.285714285714285</ele><time>2026-03-29T06:36:00.998Z</time></trkpt><trkpt lat="45.01209010091787" lon="9.944179533758472"><ele>44.57142857142857</ele><time>2026-03-29T06:36:01.998Z</time></trkpt><trkpt lat="45.01201744560451" lon="9.944159431769782"><ele>44.85714285714286</ele><time>2026-03-29T06:36:02.998Z</time></trkpt><trkpt lat="45.01194204773893" lon="9.94414015572018"><ele>45.14285714285714</ele><time>2026-03-29T06:36:03.998Z</time></trkpt><trkpt lat="45.01186848606644" lon="9.944119316446681"><ele>45.42857142857142</ele><time>2026-03-29T06:36:04.998Z</time></trkpt><trkpt lat="45.01179407751095" lon="9.944098374752885"><ele>45.714285714285715</ele><time>2026-03-29T06:36:05.998Z</time></trkpt><trkpt lat="45.01172286312635" lon="9.944073514708467"><ele>46.0</ele><time>2026-03-29T06:36:06.998Z</time></trkpt><trkpt lat="45.01165115402377" lon="9.944053117373594"><ele>46.0</ele><time>2026-03-29T06:36:07.998Z</time></trkpt><trkpt lat="45.011577239786014" lon="9.944030404304023"><ele>46.0</ele><time>2026-03-29T06:36:08.998Z</time></trkpt><trkpt lat="45.01150590716932" lon="9.944009036271572"><ele>46.0</ele><time>2026-03-29T06:36:09.998Z</time></trkpt><trkpt lat="45.011431122241255" lon="9.943985280144465"><ele>46.0</ele><time>2026-03-29T06:36:10.998Z</time></trkpt><trkpt lat="45.01135899423725" lon="9.943961394902509"><ele>46.0</ele><time>2026-03-29T06:36:11.998Z</time></trkpt><trkpt lat="45.01128602731778" lon="9.94393770127569"><ele>46.0</ele><time>2026-03-29T06:36:12.998Z</time></trkpt><trkpt lat="45.011212066031234" lon="9.943915489021435"><ele>46.0</ele><time>2026-03-29T06:36:13.998Z</time></trkpt><trkpt lat="45.01113921364304" lon="9.943890919970308"><ele>46.0</ele><time>2026-03-29T06:36:14.998Z</time></trkpt><trkpt lat="45.01106464074468" lon="9.943867526942794"><ele>46.0</ele><time>2026-03-29T06:36:15.998Z</time></trkpt><trkpt lat="45.010991463562206" lon="9.943842876743275"><ele>46.0</ele><time>2026-03-29T06:36:16.998Z</time></trkpt><trkpt lat="45.010918090947946" lon="9.943819755180415"><ele>46.0</ele><time>2026-03-29T06:36:17.998Z</time></trkpt><trkpt lat="45.01084638245983" lon="9.943796423608198"><ele>46.0</ele><time>2026-03-29T06:36:18.998Z</time></trkpt><trkpt lat="45.01077131347261" lon="9.943774226378075"><ele>46.0</ele><time>2026-03-29T06:36:19.998Z</time></trkpt><trkpt lat="45.01069887384088" lon="9.94374965651573"><ele>46.0</ele><time>2026-03-29T06:36:20.998Z</time></trkpt><trkpt lat="45.01062405408224" lon="9.943727356480313"><ele>46.0</ele><time>2026-03-29T06:36:21.998Z</time></trkpt><trkpt lat="45.01055118060973" lon="9.943703616430545"><ele>46.0</ele><time>2026-03-29T06:36:22.998Z</time></trkpt><trkpt lat="45.010477513823766" lon="9.943680274023235"><ele>46.0</ele><time>2026-03-29T06:36:23.998Z</time></trkpt><trkpt lat="45.01040642352052" lon="9.94365530268563"><ele>46.0</ele><time>2026-03-29T06:36:24.998Z</time></trkpt><trkpt lat="45.01033334548882" lon="9.943631049695568"><ele>46.0</ele><time>2026-03-29T06:36:25.998Z</time></trkpt><trkpt lat="45.01025945399287" lon="9.943606099049061"><ele>46.0</ele><time>2026-03-29T06:36:26.998Z</time></trkpt><trkpt lat="45.01018732647852" lon="9.94358206203722"><ele>46.0</ele><time>2026-03-29T06:36:27.998Z</time></trkpt><trkpt lat="45.010114367677446" lon="9.94355421152001"><ele>46.0</ele><time>2026-03-29T06:36:28.998Z</time></trkpt><trkpt lat="45.01004230595991" lon="9.943526583743063"><ele>46.0</ele><time>2026-03-29T06:36:29.998Z</time></trkpt><trkpt lat="45.009968641847934" lon="9.943502145534609"><ele>46.0</ele><time>2026-03-29T06:36:30.998Z</time></trkpt><trkpt lat="45.00989552644079" lon="9.943476321213911"><ele>45.85714285714286</ele><time>2026-03-29T06:36:31.998Z</time></trkpt><trkpt lat="45.00982222184625" lon="9.943449555393748"><ele>45.71428571428571</ele><time>2026-03-29T06:36:32.998Z</time></trkpt><trkpt lat="45.00974931959404" lon="9.943421805761515"><ele>45.57142857142857</ele><time>2026-03-29T06:36:33.998Z</time></trkpt><trkpt lat="45.009676590574244" lon="9.943392677637442"><ele>45.42857142857143</ele><time>2026-03-29T06:36:34.998Z</time></trkpt><trkpt lat="45.00960508603859" lon="9.94336757132101"><ele>45.28571428571429</ele><time>2026-03-29T06:36:35.998Z</time></trkpt><trkpt lat="45.009534071500674" lon="9.943339949990035"><ele>45.14285714285714</ele><time>2026-03-29T06:36:36.998Z</time></trkpt><trkpt lat="45.00946315284923" lon="9.943312395817005"><ele>45.0</ele><time>2026-03-29T06:36:37.998Z</time></trkpt><trkpt lat="45.00939138659287" lon="9.943286996566465"><ele>45.0</ele><time>2026-03-29T06:36:39Z</time></trkpt><trkpt lat="45.00931901994732" lon="9.943260265228686"><ele>45.0</ele><time>2026-03-29T06:36:40Z</time></trkpt><trkpt lat="45.0092470210417" lon="9.943235245725244"><ele>45.0</ele><time>2026-03-29T06:36:41Z</time></trkpt><trkpt lat="45.00917609447741" lon="9.943207914575662"><ele>45.0</ele><time>2026-03-29T06:36:42Z</time></trkpt><trkpt lat="45.00910403568511" lon="9.943177922183256"><ele>45.0</ele><time>2026-03-29T06:36:43Z</time></trkpt><trkpt lat="45.009031708503414" lon="9.94315177013466"><ele>45.0</ele><time>2026-03-29T06:36:44Z</time></trkpt><trkpt lat="45.008960636752974" lon="9.943123372985525"><ele>45.0</ele><time>2026-03-29T06:36:45Z</time></trkpt><trkpt lat="45.00888863746837" lon="9.94309651371135"><ele>44.857142857142854</ele><time>2026-03-29T06:36:46Z</time></trkpt><trkpt lat="45.00881800828702" lon="9.943071352571492"><ele>44.714285714285715</ele><time>2026-03-29T06:36:47Z</time></trkpt><trkpt lat="45.00874749460342" lon="9.9430435325889"><ele>44.57142857142857</ele><time>2026-03-29T06:36:48Z</time></trkpt><trkpt lat="45.00867449805883" lon="9.943017174115512"><ele>44.42857142857143</ele><time>2026-03-29T06:36:49Z</time></trkpt><trkpt lat="45.00860317977767" lon="9.942990043687397"><ele>44.285714285714285</ele><time>2026-03-29T06:36:50Z</time></trkpt><trkpt lat="45.008532863881705" lon="9.9429656799443"><ele>44.142857142857146</ele><time>2026-03-29T06:36:51Z</time></trkpt><trkpt lat="45.008460726461266" lon="9.942936160118027"><ele>44.0</ele><time>2026-03-29T06:36:52Z</time></trkpt><trkpt lat="45.008388772439766" lon="9.942909371133155"><ele>44.42857142857143</ele><time>2026-03-29T06:36:53Z</time></trkpt><trkpt lat="45.00831684542231" lon="9.94288274287583"><ele>44.857142857142854</ele><time>2026-03-29T06:36:54Z</time></trkpt><trkpt lat="45.0082462045877" lon="9.94285520227302"><ele>45.285714285714285</ele><time>2026-03-29T06:36:55Z</time></trkpt><trkpt lat="45.008172413503594" lon="9.942825960902356"><ele>45.714285714285715</ele><time>2026-03-29T06:36:56Z</time></trkpt><trkpt lat="45.00810068368631" lon="9.942800267547272"><ele>46.14285714285714</ele><time>2026-03-29T06:36:57Z</time></trkpt><trkpt lat="45.00802818327671" lon="9.942774316038205"><ele>46.57142857142857</ele><time>2026-03-29T06:36:58Z</time></trkpt><trkpt lat="45.007956617322584" lon="9.942746522563152"><ele>47.0</ele><time>2026-03-29T06:36:59Z</time></trkpt><trkpt lat="45.00788350850642" lon="9.942721310984739"><ele>47.0</ele><time>2026-03-29T06:37:00Z</time></trkpt><trkpt lat="45.00781078934914" lon="9.942694195952468"><ele>47.0</ele><time>2026-03-29T06:37:01Z</time></trkpt><trkpt lat="45.00773748009694" lon="9.942665804007074"><ele>47.0</ele><time>2026-03-29T06:37:01.999Z</time></trkpt><trkpt lat="45.00766477578073" lon="9.942639105552399"><ele>47.0</ele><time>2026-03-29T06:37:02.999Z</time></trkpt><trkpt lat="45.00759171002929" lon="9.942612050410265"><ele>47.0</ele><time>2026-03-29T06:37:03.999Z</time></trkpt><trkpt lat="45.00752018997066" lon="9.942587788888508"><ele>47.0</ele><time>2026-03-29T06:37:04.999Z</time></trkpt><trkpt lat="45.00744539649313" lon="9.942561238420563"><ele>47.166666666666664</ele><time>2026-03-29T06:37:05.999Z</time></trkpt><trkpt lat="45.007372156524916" lon="9.942531805953783"><ele>47.33333333333333</ele><time>2026-03-29T06:37:06.999Z</time></trkpt><trkpt lat="45.00729979806903" lon="9.942504085305913"><ele>47.5</ele><time>2026-03-29T06:37:07.999Z</time></trkpt><trkpt lat="45.00722632525928" lon="9.942479039568935"><ele>47.666666666666664</ele><time>2026-03-29T06:37:08.999Z</time></trkpt><trkpt lat="45.00715385470121" lon="9.942451697875173"><ele>47.833333333333336</ele><time>2026-03-29T06:37:09.999Z</time></trkpt><trkpt lat="45.00708161488127" lon="9.942423109623453"><ele>48.0</ele><time>2026-03-29T06:37:10.999Z</time></trkpt><trkpt lat="45.00700663055253" lon="9.94239439849998"><ele>48.0</ele><time>2026-03-29T06:37:11.999Z</time></trkpt><trkpt lat="45.00693648187996" lon="9.9423665342438"><ele>48.0</ele><time>2026-03-29T06:37:12.999Z</time></trkpt><trkpt lat="45.006860944318575" lon="9.942339330390165"><ele>48.0</ele><time>2026-03-29T06:37:13.999Z</time></trkpt><trkpt lat="45.00678856525922" lon="9.942312200761629"><ele>48.0</ele><time>2026-03-29T06:37:14.999Z</time></trkpt><trkpt lat="45.00671523430485" lon="9.94228381260369"><ele>48.0</ele><time>2026-03-29T06:37:15.999Z</time></trkpt><trkpt lat="45.00664258295894" lon="9.942258201305103"><ele>48.0</ele><time>2026-03-29T06:37:16.999Z</time></trkpt><trkpt lat="45.00657030831835" lon="9.942229989289915"><ele>48.166666666666664</ele><time>2026-03-29T06:37:17.999Z</time></trkpt><trkpt lat="45.006497087639616" lon="9.942202892498887"><ele>48.33333333333333</ele><time>2026-03-29T06:37:18.999Z</time></trkpt><trkpt lat="45.00642493623362" lon="9.94217435027833"><ele>48.5</ele><time>2026-03-29T06:37:19.999Z</time></trkpt><trkpt lat="45.00635106866928" lon="9.9421437501165"><ele>48.666666666666664</ele><time>2026-03-29T06:37:20.999Z</time></trkpt><trkpt lat="45.00627977754266" lon="9.942104182829743"><ele>48.83333333333333</ele><time>2026-03-29T06:37:21.999Z</time></trkpt><trkpt lat="45.0062103121302" lon="9.942058652100144"><ele>49.0</ele><time>2026-03-29T06:37:22.999Z</time></trkpt><trkpt lat="45.00614406937678" lon="9.942003037485387"><ele>48.99999999999999</ele><time>2026-03-29T06:37:23.999Z</time></trkpt><trkpt lat="45.00607758004185" lon="9.94194274854355"><ele>49.0</ele><time>2026-03-29T06:37:24.999Z</time></trkpt><trkpt lat="45.0060153763985" lon="9.941879234804867"><ele>49.0</ele><time>2026-03-29T06:37:25.999Z</time></trkpt><trkpt lat="45.005955341233424" lon="9.941812098394772"><ele>49.0</ele><time>2026-03-29T06:37:26.999Z</time></trkpt><trkpt lat="45.00589739080948" lon="9.941742460075865"><ele>48.99999999999999</ele><time>2026-03-29T06:37:27.999Z</time></trkpt><trkpt lat="45.00583816382811" lon="9.941673170451377"><ele>49.0</ele><time>2026-03-29T06:37:28.999Z</time></trkpt><trkpt lat="45.005780495430024" lon="9.94160490789492"><ele>48.99999999999999</ele><time>2026-03-29T06:37:29.999Z</time></trkpt><trkpt lat="45.00572143058141" lon="9.941535977740413"><ele>49.0</ele><time>2026-03-29T06:37:30.999Z</time></trkpt><trkpt lat="45.005664018877916" lon="9.941464439517185"><ele>49.0</ele><time>2026-03-29T06:37:31.999Z</time></trkpt><trkpt lat="45.00560881769485" lon="9.941391584350988"><ele>49.0</ele><time>2026-03-29T06:37:32.999Z</time></trkpt><trkpt lat="45.00555127138918" lon="9.941322682642996"><ele>48.99999999999999</ele><time>2026-03-29T06:37:33.999Z</time></trkpt><trkpt lat="45.00549289228896" lon="9.94125359558447"><ele>49.0</ele><time>2026-03-29T06:37:34.999Z</time></trkpt><trkpt lat="45.005434059363324" lon="9.941183165444524"><ele>48.99999999999999</ele><time>2026-03-29T06:37:35.999Z</time></trkpt><trkpt lat="45.00537421105677" lon="9.941116792477695"><ele>49.0</ele><time>2026-03-29T06:37:36.999Z</time></trkpt><trkpt lat="45.00531739785149" lon="9.941049137451463"><ele>49.0</ele><time>2026-03-29T06:37:37.999Z</time></trkpt><trkpt lat="45.0052601698339" lon="9.940979018276725"><ele>49.0</ele><time>2026-03-29T06:37:38.999Z</time></trkpt><trkpt lat="45.00520284800902" lon="9.940911021054523"><ele>48.99999999999999</ele><time>2026-03-29T06:37:39.999Z</time></trkpt><trkpt lat="45.00514383310975" lon="9.940841762289962"><ele>49.0</ele><time>2026-03-29T06:37:40.999Z</time></trkpt><trkpt lat="45.00508706779906" lon="9.940772201303766"><ele>48.83333333333333</ele><time>2026-03-29T06:37:41.999Z</time></trkpt><trkpt lat="45.005031162507045" lon="9.940701446831898"><ele>48.666666666666664</ele><time>2026-03-29T06:37:42.999Z</time></trkpt><trkpt lat="45.004974208101984" lon="9.94063436387386"><ele>48.5</ele><time>2026-03-29T06:37:43.999Z</time></trkpt><trkpt lat="45.00491580098359" lon="9.940564545454272"><ele>48.33333333333333</ele><time>2026-03-29T06:37:44.999Z</time></trkpt><trkpt lat="45.00485832760815" lon="9.940493982088304"><ele>48.166666666666664</ele><time>2026-03-29T06:37:45.999Z</time></trkpt><trkpt lat="45.00480110601522" lon="9.940422240226054"><ele>48.0</ele><time>2026-03-29T06:37:46.999Z</time></trkpt><trkpt lat="45.00474397108296" lon="9.94035380323651"><ele>48.0</ele><time>2026-03-29T06:37:47.999Z</time></trkpt><trkpt lat="45.004691622236805" lon="9.940278673271322"><ele>48.0</ele><time>2026-03-29T06:37:48.999Z</time></trkpt><trkpt lat="45.00463278658722" lon="9.940208442971096"><ele>48.0</ele><time>2026-03-29T06:37:49.999Z</time></trkpt><trkpt lat="45.004573721093216" lon="9.940137466408485"><ele>48.0</ele><time>2026-03-29T06:37:50.999Z</time></trkpt><trkpt lat="45.00451651994217" lon="9.940069989231183"><ele>48.0</ele><time>2026-03-29T06:37:51.999Z</time></trkpt><trkpt lat="45.0044585108129" lon="9.939999786818438"><ele>48.0</ele><time>2026-03-29T06:37:52.999Z</time></trkpt><trkpt lat="45.004400853145526" lon="9.939933907405477"><ele>47.99999999999999</ele><time>2026-03-29T06:37:53.999Z</time></trkpt><trkpt lat="45.00434318344648" lon="9.939865004923526"><ele>48.0</ele><time>2026-03-29T06:37:54.999Z</time></trkpt><trkpt lat="45.00428736614087" lon="9.93979708944804"><ele>48.0</ele><time>2026-03-29T06:37:55.998Z</time></trkpt><trkpt lat="45.00422942276307" lon="9.939729918154619"><ele>48.0</ele><time>2026-03-29T06:37:56.998Z</time></trkpt><trkpt lat="45.00417105310555" lon="9.939662672576704"><ele>48.0</ele><time>2026-03-29T06:37:57.998Z</time></trkpt><trkpt lat="45.00411465159731" lon="9.939592607089038"><ele>47.99999999999999</ele><time>2026-03-29T06:37:58.998Z</time></trkpt><trkpt lat="45.00405951721485" lon="9.939523421033732"><ele>48.0</ele><time>2026-03-29T06:37:59.998Z</time></trkpt><trkpt lat="45.00400353544516" lon="9.939457421713733"><ele>47.857142857142854</ele><time>2026-03-29T06:38:00.998Z</time></trkpt><trkpt lat="45.003947391922104" lon="9.939392780922041"><ele>47.714285714285715</ele><time>2026-03-29T06:38:01.998Z</time></trkpt><trkpt lat="45.003889958343386" lon="9.939325756847996"><ele>47.57142857142857</ele><time>2026-03-29T06:38:02.998Z</time></trkpt><trkpt lat="45.00383177110822" lon="9.93926328982696"><ele>47.42857142857143</ele><time>2026-03-29T06:38:03.998Z</time></trkpt><trkpt lat="45.00377205323985" lon="9.939200848680548"><ele>47.285714285714285</ele><time>2026-03-29T06:38:04.998Z</time></trkpt><trkpt lat="45.0037125735598" lon="9.939137775551535"><ele>47.14285714285714</ele><time>2026-03-29T06:38:05.998Z</time></trkpt><trkpt lat="45.00365095452169" lon="9.939075558618132"><ele>47.0</ele><time>2026-03-29T06:38:06.998Z</time></trkpt><trkpt lat="45.00359028519111" lon="9.939012319951944"><ele>47.0</ele><time>2026-03-29T06:38:07.998Z</time></trkpt><trkpt lat="45.00352756313034" lon="9.938950229572905"><ele>47.0</ele><time>2026-03-29T06:38:08.998Z</time></trkpt><trkpt lat="45.0034646635707" lon="9.938886639252962"><ele>47.0</ele><time>2026-03-29T06:38:09.998Z</time></trkpt><trkpt lat="45.00340212208155" lon="9.93882487086199"><ele>47.0</ele><time>2026-03-29T06:38:10.998Z</time></trkpt><trkpt lat="45.003337722462426" lon="9.938767537769385"><ele>47.0</ele><time>2026-03-29T06:38:11.998Z</time></trkpt><trkpt lat="45.003273592536914" lon="9.938710389900665"><ele>47.0</ele><time>2026-03-29T06:38:12.998Z</time></trkpt><trkpt lat="45.00321044964534" lon="9.938651150669617"><ele>47.5</ele><time>2026-03-29T06:38:13.998Z</time></trkpt><trkpt lat="45.00314590995571" lon="9.93859006844117"><ele>48.0</ele><time>2026-03-29T06:38:14.998Z</time></trkpt><trkpt lat="45.00308163477778" lon="9.9385338615846"><ele>48.5</ele><time>2026-03-29T06:38:15.998Z</time></trkpt><trkpt lat="45.00301509560137" lon="9.938483242975172"><ele>49.0</ele><time>2026-03-29T06:38:16.998Z</time></trkpt><trkpt lat="45.00295100566643" lon="9.93842901545459"><ele>49.50000000000001</ele><time>2026-03-29T06:38:17.998Z</time></trkpt><trkpt lat="45.00288549116023" lon="9.93837311150465"><ele>50.0</ele><time>2026-03-29T06:38:18.998Z</time></trkpt><trkpt lat="45.002823493304966" lon="9.93831876981678"><ele>49.85714285714286</ele><time>2026-03-29T06:38:19.998Z</time></trkpt><trkpt lat="45.00276053717619" lon="9.938261988106202"><ele>49.714285714285715</ele><time>2026-03-29T06:38:20.998Z</time></trkpt><trkpt lat="45.0026983922293" lon="9.93820651211278"><ele>49.57142857142857</ele><time>2026-03-29T06:38:21.998Z</time></trkpt><trkpt lat="45.002636062426106" lon="9.938150419845702"><ele>49.42857142857143</ele><time>2026-03-29T06:38:22.998Z</time></trkpt><trkpt lat="45.002574531129646" lon="9.938094576622573"><ele>49.285714285714285</ele><time>2026-03-29T06:38:23.998Z</time></trkpt><trkpt lat="45.002512972458824" lon="9.938037357093586"><ele>49.142857142857146</ele><time>2026-03-29T06:38:24.998Z</time></trkpt><trkpt lat="45.002452356299834" lon="9.937981017939332"><ele>49.0</ele><time>2026-03-29T06:38:25.998Z</time></trkpt><trkpt lat="45.002389563303936" lon="9.937923182556787"><ele>49.0</ele><time>2026-03-29T06:38:26.998Z</time></trkpt><trkpt lat="45.00232784367931" lon="9.937864389262634"><ele>49.0</ele><time>2026-03-29T06:38:27.998Z</time></trkpt><trkpt lat="45.00226658050138" lon="9.937807555929837"><ele>49.0</ele><time>2026-03-29T06:38:28.998Z</time></trkpt><trkpt lat="45.00220514848096" lon="9.93774918952839"><ele>49.0</ele><time>2026-03-29T06:38:29.998Z</time></trkpt><trkpt lat="45.00214311792713" lon="9.937687811426029"><ele>49.0</ele><time>2026-03-29T06:38:30.998Z</time></trkpt><trkpt lat="45.00207986062115" lon="9.937629956753877"><ele>49.0</ele><time>2026-03-29T06:38:31.998Z</time></trkpt><trkpt lat="45.00201878387194" lon="9.93757356542066"><ele>49.0</ele><time>2026-03-29T06:38:32.998Z</time></trkpt><trkpt lat="45.00195759691737" lon="9.937513043334487"><ele>48.99999999999999</ele><time>2026-03-29T06:38:33.998Z</time></trkpt><trkpt lat="45.001894781601166" lon="9.937453440199894"><ele>49.0</ele><time>2026-03-29T06:38:34.998Z</time></trkpt><trkpt lat="45.00183217905255" lon="9.937394106374871"><ele>49.0</ele><time>2026-03-29T06:38:35.998Z</time></trkpt><trkpt lat="45.0017676862149" lon="9.937335249091063"><ele>49.0</ele><time>2026-03-29T06:38:36.998Z</time></trkpt><trkpt lat="45.00170465988145" lon="9.937276641258775"><ele>48.99999999999999</ele><time>2026-03-29T06:38:37.998Z</time></trkpt><trkpt lat="45.00164135451164" lon="9.93721854125293"><ele>49.0</ele><time>2026-03-29T06:38:38.998Z</time></trkpt><trkpt lat="45.001579131186986" lon="9.93715279000692"><ele>48.99999999999999</ele><time>2026-03-29T06:38:39.998Z</time></trkpt><trkpt lat="45.001517103591304" lon="9.937088852316892"><ele>49.0</ele><time>2026-03-29T06:38:40.998Z</time></trkpt><trkpt lat="45.001453679658404" lon="9.937028854324032"><ele>49.0</ele><time>2026-03-29T06:38:41.998Z</time></trkpt><trkpt lat="45.00138903452527" lon="9.936970415372846"><ele>49.0</ele><time>2026-03-29T06:38:42.998Z</time></trkpt><trkpt lat="45.00132620947594" lon="9.936913100039181"><ele>48.99999999999999</ele><time>2026-03-29T06:38:44Z</time></trkpt><trkpt lat="45.00126499977572" lon="9.936853027362133"><ele>49.0</ele><time>2026-03-29T06:38:45Z</time></trkpt><trkpt lat="45.001204536681996" lon="9.936795181564058"><ele>49.0</ele><time>2026-03-29T06:38:46Z</time></trkpt><trkpt lat="45.00114380739541" lon="9.936735183200216"><ele>49.0</ele><time>2026-03-29T06:38:47Z</time></trkpt><trkpt lat="45.00108224666615" lon="9.936676319587816"><ele>49.0</ele><time>2026-03-29T06:38:48Z</time></trkpt><trkpt lat="45.0010195443485" lon="9.93661835656906"><ele>49.0</ele><time>2026-03-29T06:38:49Z</time></trkpt><trkpt lat="45.00096013119899" lon="9.936560952704614"><ele>49.0</ele><time>2026-03-29T06:38:50Z</time></trkpt><trkpt lat="45.000897903141066" lon="9.936503408331985"><ele>49.0</ele><time>2026-03-29T06:38:51Z</time></trkpt><trkpt lat="45.000836688728434" lon="9.93644511157879"><ele>49.0</ele><time>2026-03-29T06:38:52Z</time></trkpt><trkpt lat="45.00077717937756" lon="9.936389491926823"><ele>48.714285714285715</ele><time>2026-03-29T06:38:53Z</time></trkpt><trkpt lat="45.00071580056755" lon="9.93633245553208"><ele>48.42857142857143</ele><time>2026-03-29T06:38:54Z</time></trkpt><trkpt lat="45.00065427342527" lon="9.93627604840347"><ele>48.14285714285714</ele><time>2026-03-29T06:38:55Z</time></trkpt><trkpt lat="45.0005952378834" lon="9.93622738723266"><ele>47.85714285714286</ele><time>2026-03-29T06:38:56Z</time></trkpt><trkpt lat="45.00053680771954" lon="9.936180203237742"><ele>47.57142857142857</ele><time>2026-03-29T06:38:57Z</time></trkpt><trkpt lat="45.00047767996758" lon="9.936137300225143"><ele>47.285714285714285</ele><time>2026-03-29T06:38:58Z</time></trkpt><trkpt lat="45.0004157541338" lon="9.936093606927075"><ele>47.0</ele><time>2026-03-29T06:38:59Z</time></trkpt><trkpt lat="45.000354578164185" lon="9.936051035187743"><ele>47.0</ele><time>2026-03-29T06:39:00Z</time></trkpt><trkpt lat="45.00029234752491" lon="9.93600780530479"><ele>47.0</ele><time>2026-03-29T06:39:01Z</time></trkpt><trkpt lat="45.000231298399456" lon="9.935964209245169"><ele>47.0</ele><time>2026-03-29T06:39:02Z</time></trkpt><trkpt lat="45.00016916022292" lon="9.935920139110854"><ele>47.0</ele><time>2026-03-29T06:39:03Z</time></trkpt><trkpt lat="45.00010323123552" lon="9.935874542233897"><ele>47.0</ele><time>2026-03-29T06:39:04Z</time></trkpt><trkpt lat="45.00003975011226" lon="9.935830486009342"><ele>47.0</ele><time>2026-03-29T06:39:05Z</time></trkpt><trkpt lat="44.999976238811136" lon="9.93578635675313"><ele>47.0</ele><time>2026-03-29T06:39:05.999Z</time></trkpt><trkpt lat="44.99990998984946" lon="9.935741204681326"><ele>47.0</ele><time>2026-03-29T06:39:06.999Z</time></trkpt><trkpt lat="44.99984558999252" lon="9.935695187949266"><ele>47.0</ele><time>2026-03-29T06:39:07.999Z</time></trkpt><trkpt lat="44.99978014154591" lon="9.935649783400038"><ele>47.0</ele><time>2026-03-29T06:39:08.999Z</time></trkpt><trkpt lat="44.99971411103293" lon="9.935603456514523"><ele>47.0</ele><time>2026-03-29T06:39:09.999Z</time></trkpt><trkpt lat="44.999649148857564" lon="9.935556365827516"><ele>47.0</ele><time>2026-03-29T06:39:10.999Z</time></trkpt><trkpt lat="44.999582805230354" lon="9.935512762385667"><ele>47.0</ele><time>2026-03-29T06:39:11.999Z</time></trkpt><trkpt lat="44.99951530896266" lon="9.935468550486059"><ele>47.0</ele><time>2026-03-29T06:39:12.999Z</time></trkpt><trkpt lat="44.99944785859602" lon="9.935422089749178"><ele>47.0</ele><time>2026-03-29T06:39:13.999Z</time></trkpt><trkpt lat="44.999380328186824" lon="9.935378084791493"><ele>47.0</ele><time>2026-03-29T06:39:14.999Z</time></trkpt><trkpt lat="44.999310539157" lon="9.93533786193314"><ele>47.0</ele><time>2026-03-29T06:39:15.999Z</time></trkpt><trkpt lat="44.99924164371094" lon="9.935298911237252"><ele>47.0</ele><time>2026-03-29T06:39:16.999Z</time></trkpt><trkpt lat="44.99917241680594" lon="9.935262480386147"><ele>47.0</ele><time>2026-03-29T06:39:17.999Z</time></trkpt><trkpt lat="44.999103674830245" lon="9.935227414065517"><ele>47.0</ele><time>2026-03-29T06:39:18.999Z</time></trkpt><trkpt lat="44.999033268701176" lon="9.93519369438768"><ele>47.0</ele><time>2026-03-29T06:39:19.999Z</time></trkpt><trkpt lat="44.998963851161115" lon="9.935162014802462"><ele>47.42857142857143</ele><time>2026-03-29T06:39:20.999Z</time></trkpt><trkpt lat="44.99889619731874" lon="9.935126880008992"><ele>47.857142857142854</ele><time>2026-03-29T06:39:21.999Z</time></trkpt><trkpt lat="44.99882908853023" lon="9.935082418015183"><ele>48.28571428571429</ele><time>2026-03-29T06:39:22.999Z</time></trkpt><trkpt lat="44.99876617782829" lon="9.935024821287946"><ele>48.714285714285715</ele><time>2026-03-29T06:39:23.999Z</time></trkpt><trkpt lat="44.99871711644984" lon="9.934949460909193"><ele>49.142857142857146</ele><time>2026-03-29T06:39:24.999Z</time></trkpt><trkpt lat="44.99868267095" lon="9.934854725704666"><ele>49.57142857142858</ele><time>2026-03-29T06:39:25.999Z</time></trkpt><trkpt lat="44.998665535113496" lon="9.934748584489261"><ele>50.0</ele><time>2026-03-29T06:39:26.999Z</time></trkpt><trkpt lat="44.998659535849725" lon="9.934640693326257"><ele>50.00000000000001</ele><time>2026-03-29T06:39:27.999Z</time></trkpt><trkpt lat="44.99866460810751" lon="9.934531588010046"><ele>50.0</ele><time>2026-03-29T06:39:28.999Z</time></trkpt><trkpt lat="44.99867987586612" lon="9.93442491727458"><ele>50.0</ele><time>2026-03-29T06:39:29.999Z</time></trkpt><trkpt lat="44.99869516585468" lon="9.934318362056919"><ele>50.0</ele><time>2026-03-29T06:39:30.999Z</time></trkpt><trkpt lat="44.99871566958398" lon="9.934214003983268"><ele>50.00000000000001</ele><time>2026-03-29T06:39:31.999Z</time></trkpt><trkpt lat="44.998733290687724" lon="9.934107133474315"><ele>50.0</ele><time>2026-03-29T06:39:32.999Z</time></trkpt><trkpt lat="44.998752662870835" lon="9.933997657435224"><ele>49.833333333333336</ele><time>2026-03-29T06:39:33.999Z</time></trkpt><trkpt lat="44.99877127868816" lon="9.933890344555865"><ele>49.66666666666667</ele><time>2026-03-29T06:39:34.999Z</time></trkpt><trkpt lat="44.9987908827385" lon="9.933784139804054"><ele>49.5</ele><time>2026-03-29T06:39:35.999Z</time></trkpt><trkpt lat="44.99881328451124" lon="9.933677901401358"><ele>49.33333333333333</ele><time>2026-03-29T06:39:36.999Z</time></trkpt><trkpt lat="44.99883350543623" lon="9.933572578770773"><ele>49.166666666666664</ele><time>2026-03-29T06:39:37.999Z</time></trkpt><trkpt lat="44.99885312197553" lon="9.93346926702188"><ele>49.0</ele><time>2026-03-29T06:39:38.999Z</time></trkpt><trkpt lat="44.998874080014225" lon="9.93336560591551"><ele>49.0</ele><time>2026-03-29T06:39:39.999Z</time></trkpt><trkpt lat="44.99889066818423" lon="9.933260797915914"><ele>49.0</ele><time>2026-03-29T06:39:40.999Z</time></trkpt><trkpt lat="44.99890984900806" lon="9.933156486169167"><ele>49.0</ele><time>2026-03-29T06:39:41.999Z</time></trkpt><trkpt lat="44.9989284334425" lon="9.933054657651695"><ele>49.0</ele><time>2026-03-29T06:39:42.999Z</time></trkpt><trkpt lat="44.998945246358545" lon="9.932949864992498"><ele>49.0</ele><time>2026-03-29T06:39:43.999Z</time></trkpt><trkpt lat="44.99896039780913" lon="9.932847944258562"><ele>49.0</ele><time>2026-03-29T06:39:44.999Z</time></trkpt><trkpt lat="44.998971055928095" lon="9.932745584800061"><ele>49.0</ele><time>2026-03-29T06:39:45.999Z</time></trkpt><trkpt lat="44.99897099475532" lon="9.932642693718853"><ele>48.99999999999999</ele><time>2026-03-29T06:39:46.999Z</time></trkpt><trkpt lat="44.99894926727704" lon="9.932545555897788"><ele>49.0</ele><time>2026-03-29T06:39:47.999Z</time></trkpt><trkpt lat="44.998901919113656" lon="9.9324648334364"><ele>49.0</ele><time>2026-03-29T06:39:48.999Z</time></trkpt><trkpt lat="44.99883388884711" lon="9.932412806262548"><ele>49.0</ele><time>2026-03-29T06:39:49.999Z</time></trkpt><trkpt lat="44.99879411959785" lon="9.932335037389374"><ele>48.99999999999999</ele><time>2026-03-29T06:39:50.999Z</time></trkpt><trkpt lat="44.99869263644277" lon="9.932358780077324"><ele>49.0</ele><time>2026-03-29T06:39:51.999Z</time></trkpt><trkpt lat="44.998629158709804" lon="9.93234059184349"><ele>49.0</ele><time>2026-03-29T06:39:52.999Z</time></trkpt><trkpt lat="44.998518865226515" lon="9.932300930331813"><ele>49.0</ele><time>2026-03-29T06:39:54.999Z</time></trkpt><trkpt lat="44.998411367758656" lon="9.932272254764168"><ele>49.0</ele><time>2026-03-29T06:39:56.999Z</time></trkpt><trkpt lat="44.99831215153984" lon="9.932268561094016"><ele>49.0</ele><time>2026-03-29T06:39:58.999Z</time></trkpt><trkpt lat="44.99823209454671" lon="9.932348279348753"><ele>49.0</ele><time>2026-03-29T06:40:00.998Z</time></trkpt><trkpt lat="44.99820489370466" lon="9.932493424374371"><ele>49.6</ele><time>2026-03-29T06:40:02.998Z</time></trkpt><trkpt lat="44.99818613813251" lon="9.93262430047902"><ele>50.2</ele><time>2026-03-29T06:40:04.998Z</time></trkpt><trkpt lat="44.99816014787914" lon="9.932768696947383"><ele>50.800000000000004</ele><time>2026-03-29T06:40:06.998Z</time></trkpt><trkpt lat="44.99813206875755" lon="9.932902747790674"><ele>51.400000000000006</ele><time>2026-03-29T06:40:08.998Z</time></trkpt><trkpt lat="44.99811173261995" lon="9.933042423780998"><ele>52.0</ele><time>2026-03-29T06:40:10.998Z</time></trkpt><trkpt lat="44.99809199566678" lon="9.933186279898749"><ele>52.0</ele><time>2026-03-29T06:40:12.998Z</time></trkpt><trkpt lat="44.998063829819095" lon="9.933342204664676"><ele>52.0</ele><time>2026-03-29T06:40:14.998Z</time></trkpt><trkpt lat="44.99801809623654" lon="9.933501432375222"><ele>52.0</ele><time>2026-03-29T06:40:16.998Z</time></trkpt><trkpt lat="44.997992055850055" lon="9.933639852619084"><ele>52.0</ele><time>2026-03-29T06:40:18.998Z</time></trkpt><trkpt lat="44.99800312114046" lon="9.933753060573363"><ele>52.0</ele><time>2026-03-29T06:40:20.998Z</time></trkpt><trkpt lat="44.99798361613569" lon="9.933896943827278"><ele>51.8</ele><time>2026-03-29T06:40:22.998Z</time></trkpt><trkpt lat="44.997959299333004" lon="9.934046089766689"><ele>51.6</ele><time>2026-03-29T06:40:24.998Z</time></trkpt><trkpt lat="44.99793068236446" lon="9.934189994421532"><ele>51.4</ele><time>2026-03-29T06:40:26.998Z</time></trkpt><trkpt lat="44.99786077837296" lon="9.934332859856177"><ele>51.199999999999996</ele><time>2026-03-29T06:40:28.998Z</time></trkpt><trkpt lat="44.997833225450336" lon="9.934477074975087"><ele>51.0</ele><time>2026-03-29T06:40:30.998Z</time></trkpt><trkpt lat="44.99780150561743" lon="9.934644662047354"><ele>51.0</ele><time>2026-03-29T06:40:32.998Z</time></trkpt><trkpt lat="44.997783990852426" lon="9.934737201067588"><ele>51.0</ele><time>2026-03-29T06:40:33.998Z</time></trkpt><trkpt lat="44.99775977683162" lon="9.934865137730068"><ele>51.0</ele><time>2026-03-29T06:40:35.998Z</time></trkpt><trkpt lat="44.997735040334824" lon="9.934994690128073"><ele>51.0</ele><time>2026-03-29T06:40:37.998Z</time></trkpt><trkpt lat="44.99772526230556" lon="9.935123344278047"><ele>51.0</ele><time>2026-03-29T06:40:39.998Z</time></trkpt><trkpt lat="44.99761759003234" lon="9.93512686708138"><ele>51.0</ele><time>2026-03-29T06:40:41.998Z</time></trkpt><trkpt lat="44.997512499007236" lon="9.935079975518109"><ele>51.0</ele><time>2026-03-29T06:40:43.998Z</time></trkpt><trkpt lat="44.997435104695015" lon="9.935043564741223"><ele>51.0</ele><time>2026-03-29T06:40:45.998Z</time></trkpt><trkpt lat="44.99731802119837" lon="9.935011155784984"><ele>51.0</ele><time>2026-03-29T06:40:47.998Z</time></trkpt><trkpt lat="44.99719981916224" lon="9.934962872964357"><ele>51.0</ele><time>2026-03-29T06:40:50Z</time></trkpt><trkpt lat="44.997085369138716" lon="9.934924707718219"><ele>51.5</ele><time>2026-03-29T06:40:52Z</time></trkpt><trkpt lat="44.99697452314473" lon="9.934887448341225"><ele>52.0</ele><time>2026-03-29T06:40:54Z</time></trkpt><trkpt lat="44.99686158911207" lon="9.934842915278924"><ele>52.5</ele><time>2026-03-29T06:40:56Z</time></trkpt><trkpt lat="44.996751465441946" lon="9.934808643451214"><ele>53.0</ele><time>2026-03-29T06:40:58Z</time></trkpt><trkpt lat="44.996636975685654" lon="9.934762694546075"><ele>53.25</ele><time>2026-03-29T06:41:00Z</time></trkpt><trkpt lat="44.99652247180707" lon="9.934720790342967"><ele>53.5</ele><time>2026-03-29T06:41:02Z</time></trkpt><trkpt lat="44.996407886802544" lon="9.934681613187593"><ele>53.75</ele><time>2026-03-29T06:41:04Z</time></trkpt><trkpt lat="44.996293304710136" lon="9.934636216134042"><ele>54.0</ele><time>2026-03-29T06:41:06Z</time></trkpt><trkpt lat="44.99618320149794" lon="9.934597189905055"><ele>54.0</ele><time>2026-03-29T06:41:08Z</time></trkpt><trkpt lat="44.996076175562266" lon="9.934551219024565"><ele>54.00000000000001</ele><time>2026-03-29T06:41:10Z</time></trkpt><trkpt lat="44.99596785189496" lon="9.934511607084778"><ele>54.00000000000001</ele><time>2026-03-29T06:41:11.999Z</time></trkpt><trkpt lat="44.99585259868955" lon="9.93447926636911"><ele>54.0</ele><time>2026-03-29T06:41:13.999Z</time></trkpt><trkpt lat="44.995749808955054" lon="9.934440258964683"><ele>54.0</ele><time>2026-03-29T06:41:15.999Z</time></trkpt><trkpt lat="44.995651090920056" lon="9.934401125154569"><ele>54.0</ele><time>2026-03-29T06:41:17.999Z</time></trkpt><trkpt lat="44.99555406939879" lon="9.934368430936827"><ele>54.00000000000001</ele><time>2026-03-29T06:41:19.999Z</time></trkpt><trkpt lat="44.995474089750104" lon="9.934340858523715"><ele>54.00000000000001</ele><time>2026-03-29T06:41:21.999Z</time></trkpt><trkpt lat="44.9954981128309" lon="9.934141697210828"><ele>54.0</ele><time>2026-03-29T06:41:23.999Z</time></trkpt><trkpt lat="44.99552556111683" lon="9.933996617791092"><ele>54.0</ele><time>2026-03-29T06:41:25.999Z</time></trkpt><trkpt lat="44.99554805270792" lon="9.933847016838362"><ele>54.0</ele><time>2026-03-29T06:41:27.999Z</time></trkpt><trkpt lat="44.99558188617153" lon="9.933691124976722"><ele>54.00000000000001</ele><time>2026-03-29T06:41:29.999Z</time></trkpt><trkpt lat="44.99559981255016" lon="9.933533042803864"><ele>54.00000000000001</ele><time>2026-03-29T06:41:31.999Z</time></trkpt><trkpt lat="44.99562136781165" lon="9.933377910723685"><ele>54.0</ele><time>2026-03-29T06:41:33.999Z</time></trkpt><trkpt lat="44.99565763230115" lon="9.933260670550174"><ele>54.0</ele><time>2026-03-29T06:41:35.999Z</time></trkpt><trkpt lat="44.99546840745786" lon="9.933163941702306"><ele>54.25</ele><time>2026-03-29T06:41:37.999Z</time></trkpt><trkpt lat="44.995352065219976" lon="9.933130396583957"><ele>54.5</ele><time>2026-03-29T06:41:39.999Z</time></trkpt><trkpt lat="44.99523959404766" lon="9.933079090784958"><ele>54.75</ele><time>2026-03-29T06:41:41.999Z</time></trkpt><trkpt lat="44.99512580719219" lon="9.933022737186585"><ele>55.0</ele><time>2026-03-29T06:41:43.999Z</time></trkpt><trkpt lat="44.99501043592841" lon="9.932978843396539"><ele>55.0</ele><time>2026-03-29T06:41:45.999Z</time></trkpt><trkpt lat="44.99489585017175" lon="9.932933930304047"><ele>55.0</ele><time>2026-03-29T06:41:47.999Z</time></trkpt><trkpt lat="44.99478304507021" lon="9.932877814300571"><ele>55.0</ele><time>2026-03-29T06:41:49.999Z</time></trkpt><trkpt lat="44.99469202772675" lon="9.932769724453436"><ele>55.0</ele><time>2026-03-29T06:41:51.999Z</time></trkpt><trkpt lat="44.99466702786659" lon="9.932685044232382"><ele>55.0</ele><time>2026-03-29T06:41:52.999Z</time></trkpt><trkpt lat="44.994678361319686" lon="9.932503118929079"><ele>55.166666666666664</ele><time>2026-03-29T06:41:54.999Z</time></trkpt><trkpt lat="44.99471617767358" lon="9.932331708592853"><ele>55.33333333333333</ele><time>2026-03-29T06:41:56.999Z</time></trkpt><trkpt lat="44.994734011687214" lon="9.93224576729561"><ele>55.5</ele><time>2026-03-29T06:41:57.999Z</time></trkpt><trkpt lat="44.994751847820744" lon="9.932155232050633"><ele>55.66666666666667</ele><time>2026-03-29T06:41:58.999Z</time></trkpt><trkpt lat="44.99477191794977" lon="9.932065072310124"><ele>55.833333333333336</ele><time>2026-03-29T06:41:59.999Z</time></trkpt><trkpt lat="44.994787544925956" lon="9.931972234713989"><ele>56.0</ele><time>2026-03-29T06:42:00.999Z</time></trkpt><trkpt lat="44.994803019217805" lon="9.931877629144786"><ele>56.0</ele><time>2026-03-29T06:42:01.999Z</time></trkpt><trkpt lat="44.994818490424706" lon="9.931784609300456"><ele>56.0</ele><time>2026-03-29T06:42:02.999Z</time></trkpt><trkpt lat="44.99483439318793" lon="9.931695624966679"><ele>56.0</ele><time>2026-03-29T06:42:03.999Z</time></trkpt><trkpt lat="44.994852127914676" lon="9.931604680637726"><ele>56.0</ele><time>2026-03-29T06:42:04.998Z</time></trkpt><trkpt lat="44.99486866821631" lon="9.931512640620525"><ele>56.0</ele><time>2026-03-29T06:42:05.998Z</time></trkpt><trkpt lat="44.99488633367227" lon="9.931419946820872"><ele>56.0</ele><time>2026-03-29T06:42:06.998Z</time></trkpt><trkpt lat="44.99490325776023" lon="9.93132791746287"><ele>56.0</ele><time>2026-03-29T06:42:07.998Z</time></trkpt><trkpt lat="44.99491953726378" lon="9.93123821746047"><ele>56.00000000000001</ele><time>2026-03-29T06:42:08.998Z</time></trkpt><trkpt lat="44.99493683397251" lon="9.931148596910516"><ele>56.0</ele><time>2026-03-29T06:42:09.998Z</time></trkpt><trkpt lat="44.99495245943583" lon="9.931061035820266"><ele>56.0</ele><time>2026-03-29T06:42:10.998Z</time></trkpt><trkpt lat="44.994956594681014" lon="9.930899742966515"><ele>56.0</ele><time>2026-03-29T06:42:12.998Z</time></trkpt><trkpt lat="44.9948627707842" lon="9.930782491147935"><ele>56.00000000000001</ele><time>2026-03-29T06:42:14.998Z</time></trkpt><trkpt lat="44.99479821140672" lon="9.930764019387288"><ele>56.0</ele><time>2026-03-29T06:42:15.998Z</time></trkpt><trkpt lat="44.99467660870427" lon="9.930736344138914"><ele>55.75</ele><time>2026-03-29T06:42:17.998Z</time></trkpt><trkpt lat="44.99456548755232" lon="9.930693362513775"><ele>55.5</ele><time>2026-03-29T06:42:19.998Z</time></trkpt><trkpt lat="44.994450489287296" lon="9.930649103465312"><ele>55.25</ele><time>2026-03-29T06:42:21.998Z</time></trkpt><trkpt lat="44.994338719328674" lon="9.930597804609453"><ele>55.0</ele><time>2026-03-29T06:42:23.998Z</time></trkpt><trkpt lat="44.994224747214176" lon="9.930552934880517"><ele>55.25</ele><time>2026-03-29T06:42:25.998Z</time></trkpt><trkpt lat="44.994113494238285" lon="9.93050908635487"><ele>55.5</ele><time>2026-03-29T06:42:27.998Z</time></trkpt><trkpt lat="44.994001945140475" lon="9.930456031484365"><ele>55.75</ele><time>2026-03-29T06:42:29.998Z</time></trkpt><trkpt lat="44.99389398266497" lon="9.93038944806591"><ele>56.0</ele><time>2026-03-29T06:42:31.998Z</time></trkpt><trkpt lat="44.993802021938556" lon="9.93028545100452"><ele>56.00000000000001</ele><time>2026-03-29T06:42:33.998Z</time></trkpt><trkpt lat="44.993731112420996" lon="9.93017979246393"><ele>56.0</ele><time>2026-03-29T06:42:35.998Z</time></trkpt><trkpt lat="44.993629773873685" lon="9.930263578158545"><ele>56.0</ele><time>2026-03-29T06:42:36.998Z</time></trkpt><trkpt lat="44.99356470402317" lon="9.930288367543497"><ele>56.0</ele><time>2026-03-29T06:42:37.998Z</time></trkpt><trkpt lat="44.99348968541452" lon="9.930236332018744"><ele>56.00000000000001</ele><time>2026-03-29T06:42:38.998Z</time></trkpt><trkpt lat="44.9934228562252" lon="9.93021726295958"><ele>56.0</ele><time>2026-03-29T06:42:39.998Z</time></trkpt><trkpt lat="44.99335857994176" lon="9.93019809848293"><ele>55.66666666666667</ele><time>2026-03-29T06:42:40.998Z</time></trkpt><trkpt lat="44.99329538327273" lon="9.930176434265263"><ele>55.333333333333336</ele><time>2026-03-29T06:42:41.998Z</time></trkpt><trkpt lat="44.99323360210342" lon="9.930150153454658"><ele>55.0</ele><time>2026-03-29T06:42:42.998Z</time></trkpt><trkpt lat="44.99317230254744" lon="9.930125899448813"><ele>54.66666666666667</ele><time>2026-03-29T06:42:43.998Z</time></trkpt><trkpt lat="44.99305492829278" lon="9.930080242040166"><ele>54.333333333333336</ele><time>2026-03-29T06:42:45.998Z</time></trkpt><trkpt lat="44.99294298151394" lon="9.930036389082295"><ele>54.0</ele><time>2026-03-29T06:42:47.998Z</time></trkpt><trkpt lat="44.99283487059577" lon="9.929992760153214"><ele>54.0</ele><time>2026-03-29T06:42:49.998Z</time></trkpt><trkpt lat="44.99272067358881" lon="9.929948352622665"><ele>54.00000000000001</ele><time>2026-03-29T06:42:51.998Z</time></trkpt><trkpt lat="44.9926069999827" lon="9.929903541229754"><ele>54.00000000000001</ele><time>2026-03-29T06:42:53.998Z</time></trkpt><trkpt lat="44.992487172549545" lon="9.92985689474821"><ele>54.0</ele><time>2026-03-29T06:42:56Z</time></trkpt><trkpt lat="44.99242656161534" lon="9.929832286794865"><ele>54.0</ele><time>2026-03-29T06:42:57Z</time></trkpt><trkpt lat="44.99230538689349" lon="9.929779852139452"><ele>54.0</ele><time>2026-03-29T06:42:59Z</time></trkpt><trkpt lat="44.99223875913043" lon="9.929757356538438"><ele>54.0</ele><time>2026-03-29T06:43:00Z</time></trkpt><trkpt lat="44.992172994768225" lon="9.929731342870186"><ele>54.0</ele><time>2026-03-29T06:43:01Z</time></trkpt><trkpt lat="44.99210742634681" lon="9.92970433095978"><ele>54.0</ele><time>2026-03-29T06:43:02Z</time></trkpt><trkpt lat="44.99203947590966" lon="9.929677721661777"><ele>54.0</ele><time>2026-03-29T06:43:03Z</time></trkpt><trkpt lat="44.99197254549128" lon="9.929649451523227"><ele>54.0</ele><time>2026-03-29T06:43:04Z</time></trkpt><trkpt lat="44.99190438650969" lon="9.929621830350559"><ele>54.0</ele><time>2026-03-29T06:43:05Z</time></trkpt><trkpt lat="44.99183249795266" lon="9.929594997579503"><ele>54.0</ele><time>2026-03-29T06:43:06Z</time></trkpt><trkpt lat="44.99176199231785" lon="9.929565798819269"><ele>54.0</ele><time>2026-03-29T06:43:07Z</time></trkpt><trkpt lat="44.99169083980282" lon="9.929539090209175"><ele>54.0</ele><time>2026-03-29T06:43:08Z</time></trkpt><trkpt lat="44.99162161399632" lon="9.929511045281096"><ele>54.0</ele><time>2026-03-29T06:43:09Z</time></trkpt><trkpt lat="44.99155004707296" lon="9.929484337739591"><ele>54.0</ele><time>2026-03-29T06:43:10Z</time></trkpt><trkpt lat="44.99147984715676" lon="9.929453124159975"><ele>54.0</ele><time>2026-03-29T06:43:11Z</time></trkpt><trkpt lat="44.99140957973801" lon="9.929424915972469"><ele>54.0</ele><time>2026-03-29T06:43:12Z</time></trkpt><trkpt lat="44.991338978292035" lon="9.929397039146142"><ele>54.0</ele><time>2026-03-29T06:43:13Z</time></trkpt><trkpt lat="44.99126831630631" lon="9.929369414335955"><ele>54.0</ele><time>2026-03-29T06:43:14Z</time></trkpt><trkpt lat="44.991197595313864" lon="9.929341269408587"><ele>54.0</ele><time>2026-03-29T06:43:14.999Z</time></trkpt><trkpt lat="44.99112606378306" lon="9.92931253708298"><ele>54.0</ele><time>2026-03-29T06:43:15.999Z</time></trkpt><trkpt lat="44.99105554870573" lon="9.929282630463094"><ele>54.0</ele><time>2026-03-29T06:43:16.999Z</time></trkpt><trkpt lat="44.99098427332033" lon="9.929254215710287"><ele>54.0</ele><time>2026-03-29T06:43:17.999Z</time></trkpt><trkpt lat="44.99091274387668" lon="9.929228083259058"><ele>54.0</ele><time>2026-03-29T06:43:18.999Z</time></trkpt><trkpt lat="44.99084076828643" lon="9.929198461123196"><ele>54.0</ele><time>2026-03-29T06:43:19.999Z</time></trkpt><trkpt lat="44.990768571581505" lon="9.92916893625065"><ele>54.0</ele><time>2026-03-29T06:43:20.999Z</time></trkpt><trkpt lat="44.99069366434747" lon="9.929138995578578"><ele>54.0</ele><time>2026-03-29T06:43:21.999Z</time></trkpt><trkpt lat="44.99062192628226" lon="9.929110702623975"><ele>54.0</ele><time>2026-03-29T06:43:22.999Z</time></trkpt><trkpt lat="44.99054734298544" lon="9.929079179379936"><ele>54.0</ele><time>2026-03-29T06:43:23.999Z</time></trkpt><trkpt lat="44.99047465046485" lon="9.929050255305457"><ele>54.0</ele><time>2026-03-29T06:43:24.999Z</time></trkpt><trkpt lat="44.99040112030957" lon="9.929021126806562"><ele>54.0</ele><time>2026-03-29T06:43:25.999Z</time></trkpt><trkpt lat="44.99032827628357" lon="9.928988801949977"><ele>54.0</ele><time>2026-03-29T06:43:26.999Z</time></trkpt><trkpt lat="44.99025330647745" lon="9.928957539681234"><ele>54.0</ele><time>2026-03-29T06:43:27.999Z</time></trkpt><trkpt lat="44.99017756859444" lon="9.928931439355754"><ele>54.0</ele><time>2026-03-29T06:43:28.999Z</time></trkpt><trkpt lat="44.990103796466734" lon="9.928902972256607"><ele>54.0</ele><time>2026-03-29T06:43:29.999Z</time></trkpt><trkpt lat="44.990031734477945" lon="9.928873506318608"><ele>54.0</ele><time>2026-03-29T06:43:30.999Z</time></trkpt><trkpt lat="44.98995784797962" lon="9.92884454928626"><ele>54.0</ele><time>2026-03-29T06:43:31.999Z</time></trkpt><trkpt lat="44.98988212132427" lon="9.928815077353878"><ele>54.0</ele><time>2026-03-29T06:43:32.999Z</time></trkpt><trkpt lat="44.989809451077534" lon="9.928788119316206"><ele>54.0</ele><time>2026-03-29T06:43:33.999Z</time></trkpt><trkpt lat="44.98973714333638" lon="9.928757531950504"><ele>54.0</ele><time>2026-03-29T06:43:34.999Z</time></trkpt><trkpt lat="44.98966284061519" lon="9.928730680066332"><ele>54.0</ele><time>2026-03-29T06:43:35.999Z</time></trkpt><trkpt lat="44.989588752445606" lon="9.928700065095956"><ele>54.0</ele><time>2026-03-29T06:43:36.999Z</time></trkpt><trkpt lat="44.98951449875812" lon="9.928667651764021"><ele>54.0</ele><time>2026-03-29T06:43:37.999Z</time></trkpt><trkpt lat="44.9894404815037" lon="9.928636512102214"><ele>54.0</ele><time>2026-03-29T06:43:38.999Z</time></trkpt><trkpt lat="44.989366122985366" lon="9.928608443222638"><ele>54.0</ele><time>2026-03-29T06:43:39.999Z</time></trkpt><trkpt lat="44.98929133356807" lon="9.928579700696968"><ele>54.0</ele><time>2026-03-29T06:43:40.999Z</time></trkpt><trkpt lat="44.98921846413228" lon="9.928550648824608"><ele>54.0</ele><time>2026-03-29T06:43:41.999Z</time></trkpt><trkpt lat="44.989144520798234" lon="9.92852096921091"><ele>54.0</ele><time>2026-03-29T06:43:42.999Z</time></trkpt><trkpt lat="44.98906981381128" lon="9.928491923614015"><ele>53.833333333333336</ele><time>2026-03-29T06:43:43.999Z</time></trkpt><trkpt lat="44.98899567053672" lon="9.928462483869016"><ele>53.66666666666667</ele><time>2026-03-29T06:43:44.999Z</time></trkpt><trkpt lat="44.98892202057108" lon="9.928436008186816"><ele>53.5</ele><time>2026-03-29T06:43:45.999Z</time></trkpt><trkpt lat="44.988849320792625" lon="9.928405097077249"><ele>53.333333333333336</ele><time>2026-03-29T06:43:46.999Z</time></trkpt><trkpt lat="44.98877623461468" lon="9.928374944151782"><ele>53.16666666666667</ele><time>2026-03-29T06:43:47.999Z</time></trkpt><trkpt lat="44.98870202203915" lon="9.928347679278962"><ele>53.0</ele><time>2026-03-29T06:43:48.999Z</time></trkpt><trkpt lat="44.98862745774823" lon="9.928318296879588"><ele>53.00000000000001</ele><time>2026-03-29T06:43:49.999Z</time></trkpt><trkpt lat="44.98855374737526" lon="9.928291434456913"><ele>53.0</ele><time>2026-03-29T06:43:50.999Z</time></trkpt><trkpt lat="44.988480391342954" lon="9.928259900055103"><ele>53.0</ele><time>2026-03-29T06:43:51.999Z</time></trkpt><trkpt lat="44.988406888083155" lon="9.928230224692948"><ele>53.0</ele><time>2026-03-29T06:43:52.999Z</time></trkpt><trkpt lat="44.98833247950362" lon="9.928203718625575"><ele>53.00000000000001</ele><time>2026-03-29T06:43:53.999Z</time></trkpt><trkpt lat="44.988257394802694" lon="9.928174490458899"><ele>53.0</ele><time>2026-03-29T06:43:54.999Z</time></trkpt><trkpt lat="44.988185145056754" lon="9.92814393036943"><ele>53.16666666666667</ele><time>2026-03-29T06:43:55.999Z</time></trkpt><trkpt lat="44.98811025156765" lon="9.928114492771927"><ele>53.333333333333336</ele><time>2026-03-29T06:43:56.999Z</time></trkpt><trkpt lat="44.988037204551084" lon="9.928081992460484"><ele>53.5</ele><time>2026-03-29T06:43:57.999Z</time></trkpt><trkpt lat="44.98796303894008" lon="9.928052546432577"><ele>53.66666666666667</ele><time>2026-03-29T06:43:58.999Z</time></trkpt><trkpt lat="44.98788994536646" lon="9.928022597093666"><ele>53.833333333333336</ele><time>2026-03-29T06:43:59.999Z</time></trkpt><trkpt lat="44.98781618458961" lon="9.92799637879525"><ele>54.0</ele><time>2026-03-29T06:44:00.999Z</time></trkpt><trkpt lat="44.987741892081985" lon="9.92796513073569"><ele>54.0</ele><time>2026-03-29T06:44:01.999Z</time></trkpt><trkpt lat="44.98766733629633" lon="9.927935947733195"><ele>54.0</ele><time>2026-03-29T06:44:02.999Z</time></trkpt><trkpt lat="44.98759332110368" lon="9.927903226518785"><ele>54.0</ele><time>2026-03-29T06:44:03.999Z</time></trkpt><trkpt lat="44.987519315220325" lon="9.927873405248882"><ele>54.0</ele><time>2026-03-29T06:44:04.999Z</time></trkpt><trkpt lat="44.98744652304639" lon="9.927841487296472"><ele>54.0</ele><time>2026-03-29T06:44:05.999Z</time></trkpt><trkpt lat="44.98737178421029" lon="9.927812703138372"><ele>54.0</ele><time>2026-03-29T06:44:06.999Z</time></trkpt><trkpt lat="44.9872994826186" lon="9.927783816224911"><ele>53.833333333333336</ele><time>2026-03-29T06:44:07.998Z</time></trkpt><trkpt lat="44.98722611748095" lon="9.927753655071244"><ele>53.66666666666667</ele><time>2026-03-29T06:44:08.998Z</time></trkpt><trkpt lat="44.98715250889573" lon="9.927724172543225"><ele>53.5</ele><time>2026-03-29T06:44:09.998Z</time></trkpt><trkpt lat="44.987078992077734" lon="9.9276967992536"><ele>53.333333333333336</ele><time>2026-03-29T06:44:10.998Z</time></trkpt><trkpt lat="44.987005480332414" lon="9.927666998095583"><ele>53.16666666666667</ele><time>2026-03-29T06:44:11.998Z</time></trkpt><trkpt lat="44.98693245541937" lon="9.927631185460424"><ele>53.0</ele><time>2026-03-29T06:44:12.998Z</time></trkpt><trkpt lat="44.98685680680248" lon="9.927602402251607"><ele>53.00000000000001</ele><time>2026-03-29T06:44:13.998Z</time></trkpt><trkpt lat="44.986781309390786" lon="9.9275738781711"><ele>53.0</ele><time>2026-03-29T06:44:14.998Z</time></trkpt><trkpt lat="44.98670656782534" lon="9.927546423588256"><ele>53.0</ele><time>2026-03-29T06:44:15.998Z</time></trkpt><trkpt lat="44.98663136017917" lon="9.927514566501753"><ele>53.0</ele><time>2026-03-29T06:44:16.998Z</time></trkpt><trkpt lat="44.98655711342043" lon="9.927484569769986"><ele>53.00000000000001</ele><time>2026-03-29T06:44:17.998Z</time></trkpt><trkpt lat="44.98648160475229" lon="9.927454121959872"><ele>53.0</ele><time>2026-03-29T06:44:18.998Z</time></trkpt><trkpt lat="44.98640560855127" lon="9.927424888320719"><ele>52.833333333333336</ele><time>2026-03-29T06:44:19.998Z</time></trkpt><trkpt lat="44.98633365788233" lon="9.92739495440653"><ele>52.66666666666667</ele><time>2026-03-29T06:44:20.998Z</time></trkpt><trkpt lat="44.986260288953694" lon="9.9273617763096"><ele>52.5</ele><time>2026-03-29T06:44:21.998Z</time></trkpt><trkpt lat="44.98618657773122" lon="9.927332125448512"><ele>52.33333333333333</ele><time>2026-03-29T06:44:22.998Z</time></trkpt><trkpt lat="44.9861109461175" lon="9.927304820923231"><ele>52.166666666666664</ele><time>2026-03-29T06:44:23.998Z</time></trkpt><trkpt lat="44.986036630444524" lon="9.927275734152373"><ele>52.0</ele><time>2026-03-29T06:44:24.998Z</time></trkpt><trkpt lat="44.98596051802057" lon="9.927246283717155"><ele>51.99999999999999</ele><time>2026-03-29T06:44:25.998Z</time></trkpt><trkpt lat="44.98588632442741" lon="9.92721879123042"><ele>52.0</ele><time>2026-03-29T06:44:26.998Z</time></trkpt><trkpt lat="44.9858112101922" lon="9.92718752703703"><ele>52.0</ele><time>2026-03-29T06:44:27.998Z</time></trkpt><trkpt lat="44.98573516713667" lon="9.927155669009526"><ele>52.0</ele><time>2026-03-29T06:44:28.998Z</time></trkpt><trkpt lat="44.98566197648508" lon="9.927127990278143"><ele>51.99999999999999</ele><time>2026-03-29T06:44:29.998Z</time></trkpt><trkpt lat="44.985586654284994" lon="9.92709887713869"><ele>52.0</ele><time>2026-03-29T06:44:30.998Z</time></trkpt><trkpt lat="44.985511981123125" lon="9.927068453722502"><ele>52.666666666666664</ele><time>2026-03-29T06:44:31.998Z</time></trkpt><trkpt lat="44.98543703787449" lon="9.92703669932248"><ele>53.33333333333333</ele><time>2026-03-29T06:44:32.998Z</time></trkpt><trkpt lat="44.98536357162249" lon="9.927007914021601"><ele>54.0</ele><time>2026-03-29T06:44:33.998Z</time></trkpt><trkpt lat="44.98528908826607" lon="9.926977173827616"><ele>54.66666666666667</ele><time>2026-03-29T06:44:34.998Z</time></trkpt><trkpt lat="44.9852179084457" lon="9.926941477129159"><ele>55.333333333333336</ele><time>2026-03-29T06:44:35.998Z</time></trkpt><trkpt lat="44.98514568298242" lon="9.926901974963037"><ele>56.0</ele><time>2026-03-29T06:44:36.998Z</time></trkpt><trkpt lat="44.98507407676601" lon="9.926862771335106"><ele>56.00000000000001</ele><time>2026-03-29T06:44:37.998Z</time></trkpt><trkpt lat="44.98500158148629" lon="9.926820352438751"><ele>56.0</ele><time>2026-03-29T06:44:38.998Z</time></trkpt><trkpt lat="44.98493107625692" lon="9.926776428966399"><ele>56.0</ele><time>2026-03-29T06:44:39.998Z</time></trkpt><trkpt lat="44.984859410795615" lon="9.926726630760346"><ele>56.0</ele><time>2026-03-29T06:44:40.998Z</time></trkpt><trkpt lat="44.98479040264708" lon="9.926676857791279"><ele>56.00000000000001</ele><time>2026-03-29T06:44:41.998Z</time></trkpt><trkpt lat="44.98472108655199" lon="9.926629386261975"><ele>56.0</ele><time>2026-03-29T06:44:42.998Z</time></trkpt><trkpt lat="44.98465195817923" lon="9.9265792930154"><ele>55.66666666666667</ele><time>2026-03-29T06:44:43.998Z</time></trkpt><trkpt lat="44.9845821870683" lon="9.926532243694894"><ele>55.333333333333336</ele><time>2026-03-29T06:44:44.998Z</time></trkpt><trkpt lat="44.98451388843961" lon="9.926486386395943"><ele>55.0</ele><time>2026-03-29T06:44:45.998Z</time></trkpt><trkpt lat="44.9844442209556" lon="9.926438962509527"><ele>54.66666666666667</ele><time>2026-03-29T06:44:46.998Z</time></trkpt><trkpt lat="44.98437642807603" lon="9.926392987077309"><ele>54.333333333333336</ele><time>2026-03-29T06:44:47.998Z</time></trkpt><trkpt lat="44.9843062343648" lon="9.92634675900417"><ele>54.0</ele><time>2026-03-29T06:44:48.998Z</time></trkpt><trkpt lat="44.984236442645326" lon="9.92629721929873"><ele>53.666666666666664</ele><time>2026-03-29T06:44:49.998Z</time></trkpt><trkpt lat="44.98416884581749" lon="9.92624778369911"><ele>53.33333333333333</ele><time>2026-03-29T06:44:50.998Z</time></trkpt><trkpt lat="44.984100382780284" lon="9.92619834298537"><ele>53.0</ele><time>2026-03-29T06:44:51.998Z</time></trkpt><trkpt lat="44.98402977427046" lon="9.926149483165624"><ele>52.666666666666664</ele><time>2026-03-29T06:44:52.998Z</time></trkpt><trkpt lat="44.983959603886774" lon="9.92610381019324"><ele>52.33333333333333</ele><time>2026-03-29T06:44:53.998Z</time></trkpt><trkpt lat="44.98388939526644" lon="9.926061662406184"><ele>52.0</ele><time>2026-03-29T06:44:54.998Z</time></trkpt><trkpt lat="44.983815417962624" lon="9.926020510484978"><ele>51.99999999999999</ele><time>2026-03-29T06:44:55.998Z</time></trkpt><trkpt lat="44.983744828015226" lon="9.925978848535994"><ele>52.0</ele><time>2026-03-29T06:44:56.998Z</time></trkpt><trkpt lat="44.98367493472556" lon="9.925931570622758"><ele>52.0</ele><time>2026-03-29T06:44:57.998Z</time></trkpt><trkpt lat="44.9836050150923" lon="9.925881607014357"><ele>52.0</ele><time>2026-03-29T06:44:58.998Z</time></trkpt><trkpt lat="44.983536651033226" lon="9.925829773923537"><ele>51.99999999999999</ele><time>2026-03-29T06:44:59.998Z</time></trkpt><trkpt lat="44.98346930561137" lon="9.92577790169651"><ele>52.0</ele><time>2026-03-29T06:45:00.998Z</time></trkpt><trkpt lat="44.983399176304324" lon="9.925729801997392"><ele>52.33333333333333</ele><time>2026-03-29T06:45:02Z</time></trkpt><trkpt lat="44.98333013260674" lon="9.925683042093707"><ele>52.666666666666664</ele><time>2026-03-29T06:45:03Z</time></trkpt><trkpt lat="44.983261384084805" lon="9.925632234533463"><ele>53.0</ele><time>2026-03-29T06:45:04Z</time></trkpt><trkpt lat="44.98319295904086" lon="9.925582721345876"><ele>53.33333333333333</ele><time>2026-03-29T06:45:05Z</time></trkpt><trkpt lat="44.9831267384881" lon="9.925532479294834"><ele>53.666666666666664</ele><time>2026-03-29T06:45:06Z</time></trkpt><trkpt lat="44.98305843049081" lon="9.92548340943147"><ele>54.0</ele><time>2026-03-29T06:45:07Z</time></trkpt><trkpt lat="44.982991343576714" lon="9.92543579576162"><ele>54.0</ele><time>2026-03-29T06:45:08Z</time></trkpt><trkpt lat="44.98292399401964" lon="9.925387664286717"><ele>54.0</ele><time>2026-03-29T06:45:09Z</time></trkpt><trkpt lat="44.982856701862474" lon="9.925341156099233"><ele>54.0</ele><time>2026-03-29T06:45:10Z</time></trkpt><trkpt lat="44.98279258056177" lon="9.925291989173118"><ele>54.0</ele><time>2026-03-29T06:45:11Z</time></trkpt><trkpt lat="44.982726919380106" lon="9.925240602683976"><ele>54.0</ele><time>2026-03-29T06:45:12Z</time></trkpt><trkpt lat="44.98266353849903" lon="9.925189444365403"><ele>54.0</ele><time>2026-03-29T06:45:13Z</time></trkpt><trkpt lat="44.98259932396233" lon="9.925139880713097"><ele>54.0</ele><time>2026-03-29T06:45:14Z</time></trkpt><trkpt lat="44.982534810604065" lon="9.925092165790222"><ele>53.57142857142857</ele><time>2026-03-29T06:45:15Z</time></trkpt><trkpt lat="44.98247077807819" lon="9.925045263183746"><ele>53.14285714285714</ele><time>2026-03-29T06:45:16Z</time></trkpt><trkpt lat="44.98240516672833" lon="9.924998048432093"><ele>52.714285714285715</ele><time>2026-03-29T06:45:17Z</time></trkpt><trkpt lat="44.98234004278862" lon="9.924951990068536"><ele>52.285714285714285</ele><time>2026-03-29T06:45:18Z</time></trkpt><trkpt lat="44.98227420616679" lon="9.924905317049745"><ele>51.85714285714286</ele><time>2026-03-29T06:45:18.999Z</time></trkpt><trkpt lat="44.98220745523612" lon="9.924858354429263"><ele>51.42857142857143</ele><time>2026-03-29T06:45:19.999Z</time></trkpt><trkpt lat="44.98214157113413" lon="9.924811332200711"><ele>51.0</ele><time>2026-03-29T06:45:20.999Z</time></trkpt><trkpt lat="44.98207481833409" lon="9.92476470200185"><ele>51.0</ele><time>2026-03-29T06:45:21.999Z</time></trkpt><trkpt lat="44.982007893766294" lon="9.924719775254786"><ele>51.0</ele><time>2026-03-29T06:45:22.999Z</time></trkpt><trkpt lat="44.981939310899335" lon="9.924674314761974"><ele>51.0</ele><time>2026-03-29T06:45:23.999Z</time></trkpt><trkpt lat="44.98187192176354" lon="9.924627078254781"><ele>51.0</ele><time>2026-03-29T06:45:24.999Z</time></trkpt><trkpt lat="44.98180380323025" lon="9.924582062373233"><ele>51.0</ele><time>2026-03-29T06:45:25.999Z</time></trkpt><trkpt lat="44.98173445823341" lon="9.924531358805451"><ele>51.0</ele><time>2026-03-29T06:45:26.999Z</time></trkpt><trkpt lat="44.98166542549861" lon="9.924481423517292"><ele>51.166666666666664</ele><time>2026-03-29T06:45:27.999Z</time></trkpt><trkpt lat="44.981596699853604" lon="9.924431241734045"><ele>51.33333333333333</ele><time>2026-03-29T06:45:28.999Z</time></trkpt><trkpt lat="44.98152726710321" lon="9.9243809382569"><ele>51.5</ele><time>2026-03-29T06:45:29.999Z</time></trkpt><trkpt lat="44.98145855710856" lon="9.924329761481385"><ele>51.666666666666664</ele><time>2026-03-29T06:45:30.999Z</time></trkpt><trkpt lat="44.981386942599784" lon="9.924285204757314"><ele>51.83333333333333</ele><time>2026-03-29T06:45:31.999Z</time></trkpt><trkpt lat="44.981315029701214" lon="9.924243191920917"><ele>52.0</ele><time>2026-03-29T06:45:32.999Z</time></trkpt><trkpt lat="44.98124412910237" lon="9.92420205210041"><ele>51.99999999999999</ele><time>2026-03-29T06:45:33.999Z</time></trkpt><trkpt lat="44.98117113147466" lon="9.924160072286103"><ele>52.0</ele><time>2026-03-29T06:45:34.999Z</time></trkpt><trkpt lat="44.98109942792189" lon="9.924117165277723"><ele>52.0</ele><time>2026-03-29T06:45:35.999Z</time></trkpt><trkpt lat="44.98102715339723" lon="9.924073169695738"><ele>52.0</ele><time>2026-03-29T06:45:36.999Z</time></trkpt><trkpt lat="44.98095635835414" lon="9.924026240954683"><ele>51.99999999999999</ele><time>2026-03-29T06:45:37.999Z</time></trkpt><trkpt lat="44.980886454821984" lon="9.923979006045574"><ele>52.0</ele><time>2026-03-29T06:45:38.999Z</time></trkpt><trkpt lat="44.980815415808046" lon="9.923929789845245"><ele>52.166666666666664</ele><time>2026-03-29T06:45:39.999Z</time></trkpt><trkpt lat="44.98074359057116" lon="9.923879619339267"><ele>52.33333333333333</ele><time>2026-03-29T06:45:40.999Z</time></trkpt><trkpt lat="44.98067241725773" lon="9.923829598847416"><ele>52.5</ele><time>2026-03-29T06:45:41.999Z</time></trkpt><trkpt lat="44.980600346435146" lon="9.92377822669543"><ele>52.66666666666667</ele><time>2026-03-29T06:45:42.999Z</time></trkpt><trkpt lat="44.98052934360117" lon="9.923729245810938"><ele>52.833333333333336</ele><time>2026-03-29T06:45:43.999Z</time></trkpt><trkpt lat="44.980458154763554" lon="9.92367949877582"><ele>53.0</ele><time>2026-03-29T06:45:44.999Z</time></trkpt><trkpt lat="44.98038782472963" lon="9.923630213575484"><ele>53.00000000000001</ele><time>2026-03-29T06:45:45.999Z</time></trkpt><trkpt lat="44.98031724332941" lon="9.923579451363508"><ele>53.0</ele><time>2026-03-29T06:45:46.999Z</time></trkpt><trkpt lat="44.98024769984059" lon="9.923529104495342"><ele>53.0</ele><time>2026-03-29T06:45:47.999Z</time></trkpt><trkpt lat="44.98017759188782" lon="9.923477133796064"><ele>53.0</ele><time>2026-03-29T06:45:48.999Z</time></trkpt><trkpt lat="44.980106813853205" lon="9.92342802217676"><ele>53.00000000000001</ele><time>2026-03-29T06:45:49.999Z</time></trkpt><trkpt lat="44.98003699514356" lon="9.923375542641761"><ele>53.0</ele><time>2026-03-29T06:45:50.999Z</time></trkpt><trkpt lat="44.979967488451315" lon="9.923325720793363"><ele>52.833333333333336</ele><time>2026-03-29T06:45:51.999Z</time></trkpt><trkpt lat="44.97989622581884" lon="9.92327894966914"><ele>52.66666666666667</ele><time>2026-03-29T06:45:52.999Z</time></trkpt><trkpt lat="44.97982632434167" lon="9.92322666632099"><ele>52.5</ele><time>2026-03-29T06:45:53.999Z</time></trkpt><trkpt lat="44.97975496605046" lon="9.923175361884768"><ele>52.33333333333333</ele><time>2026-03-29T06:45:54.999Z</time></trkpt><trkpt lat="44.979684827171894" lon="9.92312350024661"><ele>52.166666666666664</ele><time>2026-03-29T06:45:55.999Z</time></trkpt><trkpt lat="44.97961572442001" lon="9.923074348581459"><ele>52.0</ele><time>2026-03-29T06:45:56.999Z</time></trkpt><trkpt lat="44.97954573704757" lon="9.923025924968801"><ele>51.99999999999999</ele><time>2026-03-29T06:45:57.999Z</time></trkpt><trkpt lat="44.97947562775182" lon="9.922975739205455"><ele>52.0</ele><time>2026-03-29T06:45:58.999Z</time></trkpt><trkpt lat="44.979405004065804" lon="9.922925605376879"><ele>52.0</ele><time>2026-03-29T06:45:59.999Z</time></trkpt><trkpt lat="44.979335486955144" lon="9.92287569083353"><ele>52.0</ele><time>2026-03-29T06:46:00.999Z</time></trkpt><trkpt lat="44.97926480824289" lon="9.922823442198458"><ele>51.99999999999999</ele><time>2026-03-29T06:46:01.999Z</time></trkpt><trkpt lat="44.979195015807555" lon="9.922774544521767"><ele>52.0</ele><time>2026-03-29T06:46:02.999Z</time></trkpt><trkpt lat="44.97912428847747" lon="9.922725670637544"><ele>51.83333333333333</ele><time>2026-03-29T06:46:03.999Z</time></trkpt><trkpt lat="44.97905298543358" lon="9.922675514025125"><ele>51.666666666666664</ele><time>2026-03-29T06:46:04.999Z</time></trkpt><trkpt lat="44.97898306967229" lon="9.922626220428361"><ele>51.5</ele><time>2026-03-29T06:46:05.999Z</time></trkpt><trkpt lat="44.97891288181351" lon="9.922576404535402"><ele>51.33333333333333</ele><time>2026-03-29T06:46:06.999Z</time></trkpt><trkpt lat="44.97884439034217" lon="9.922525209389205"><ele>51.166666666666664</ele><time>2026-03-29T06:46:07.999Z</time></trkpt><trkpt lat="44.978774150726366" lon="9.922473318652859"><ele>51.0</ele><time>2026-03-29T06:46:08.999Z</time></trkpt><trkpt lat="44.97870489470141" lon="9.92242449644261"><ele>51.0</ele><time>2026-03-29T06:46:09.999Z</time></trkpt><trkpt lat="44.97863548362744" lon="9.922374546804882"><ele>51.0</ele><time>2026-03-29T06:46:10.999Z</time></trkpt><trkpt lat="44.9785662285388" lon="9.922324824598732"><ele>51.0</ele><time>2026-03-29T06:46:11.998Z</time></trkpt><trkpt lat="44.978495728864026" lon="9.92227506786398"><ele>51.0</ele><time>2026-03-29T06:46:12.998Z</time></trkpt><trkpt lat="44.97842639982752" lon="9.922227045587604"><ele>51.0</ele><time>2026-03-29T06:46:13.998Z</time></trkpt><trkpt lat="44.97835758007522" lon="9.922177381225241"><ele>51.0</ele><time>2026-03-29T06:46:14.998Z</time></trkpt><trkpt lat="44.978288267950305" lon="9.922127992254742"><ele>51.166666666666664</ele><time>2026-03-29T06:46:15.998Z</time></trkpt><trkpt lat="44.9782185059878" lon="9.922078640023903"><ele>51.33333333333333</ele><time>2026-03-29T06:46:16.998Z</time></trkpt><trkpt lat="44.978148789848966" lon="9.922028193320408"><ele>51.5</ele><time>2026-03-29T06:46:17.998Z</time></trkpt><trkpt lat="44.978079963839434" lon="9.921978306175172"><ele>51.666666666666664</ele><time>2026-03-29T06:46:18.998Z</time></trkpt><trkpt lat="44.97801061406198" lon="9.921929574475223"><ele>51.83333333333333</ele><time>2026-03-29T06:46:19.998Z</time></trkpt><trkpt lat="44.97794117807103" lon="9.921880222870133"><ele>52.0</ele><time>2026-03-29T06:46:20.998Z</time></trkpt><trkpt lat="44.977871313469564" lon="9.921829200060149"><ele>51.99999999999999</ele><time>2026-03-29T06:46:21.998Z</time></trkpt><trkpt lat="44.97780226091563" lon="9.921779235245541"><ele>52.0</ele><time>2026-03-29T06:46:22.998Z</time></trkpt><trkpt lat="44.97773244558667" lon="9.921729845456218"><ele>52.0</ele><time>2026-03-29T06:46:23.998Z</time></trkpt><trkpt lat="44.97766229202538" lon="9.921679673907352"><ele>52.0</ele><time>2026-03-29T06:46:24.998Z</time></trkpt><trkpt lat="44.977593034201824" lon="9.921628351666211"><ele>51.99999999999999</ele><time>2026-03-29T06:46:25.998Z</time></trkpt><trkpt lat="44.97752382395127" lon="9.921580002366639"><ele>52.0</ele><time>2026-03-29T06:46:26.998Z</time></trkpt><trkpt lat="44.977454822135435" lon="9.921530749392701"><ele>52.166666666666664</ele><time>2026-03-29T06:46:27.999Z</time></trkpt><trkpt lat="44.97738459353201" lon="9.921481336889938"><ele>52.33333333333333</ele><time>2026-03-29T06:46:28.999Z</time></trkpt><trkpt lat="44.977315748294046" lon="9.921430177340802"><ele>52.5</ele><time>2026-03-29T06:46:29.999Z</time></trkpt><trkpt lat="44.97724649544706" lon="9.921381259068337"><ele>52.66666666666667</ele><time>2026-03-29T06:46:30.999Z</time></trkpt><trkpt lat="44.97717796060421" lon="9.921333365581466"><ele>52.833333333333336</ele><time>2026-03-29T06:46:31.999Z</time></trkpt><trkpt lat="44.97710934713522" lon="9.921283468238187"><ele>53.0</ele><time>2026-03-29T06:46:32.999Z</time></trkpt><trkpt lat="44.97704029351844" lon="9.921233103362065"><ele>53.00000000000001</ele><time>2026-03-29T06:46:33.999Z</time></trkpt><trkpt lat="44.976971456144476" lon="9.921182571356335"><ele>53.0</ele><time>2026-03-29T06:46:34.999Z</time></trkpt><trkpt lat="44.97690381099667" lon="9.921133514235514"><ele>53.0</ele><time>2026-03-29T06:46:35.999Z</time></trkpt><trkpt lat="44.97683401400153" lon="9.921086436513109"><ele>53.0</ele><time>2026-03-29T06:46:36.999Z</time></trkpt><trkpt lat="44.97676454810632" lon="9.921038906883338"><ele>53.00000000000001</ele><time>2026-03-29T06:46:37.999Z</time></trkpt><trkpt lat="44.97669566065496" lon="9.920988279491151"><ele>53.0</ele><time>2026-03-29T06:46:38.999Z</time></trkpt><trkpt lat="44.97662643523528" lon="9.920936799260081"><ele>52.833333333333336</ele><time>2026-03-29T06:46:39.999Z</time></trkpt><trkpt lat="44.976556182600405" lon="9.920888551325234"><ele>52.66666666666667</ele><time>2026-03-29T06:46:40.999Z</time></trkpt><trkpt lat="44.97648767611111" lon="9.920840486954111"><ele>52.5</ele><time>2026-03-29T06:46:41.999Z</time></trkpt><trkpt lat="44.976417824062956" lon="9.920789136269695"><ele>52.33333333333333</ele><time>2026-03-29T06:46:42.999Z</time></trkpt><trkpt lat="44.97634788438157" lon="9.920740892117594"><ele>52.166666666666664</ele><time>2026-03-29T06:46:43.999Z</time></trkpt><trkpt lat="44.976278165701274" lon="9.92069219391468"><ele>52.0</ele><time>2026-03-29T06:46:44.999Z</time></trkpt><trkpt lat="44.9762097014635" lon="9.920640702306423"><ele>51.99999999999999</ele><time>2026-03-29T06:46:45.999Z</time></trkpt><trkpt lat="44.9761401914829" lon="9.920589978786664"><ele>52.0</ele><time>2026-03-29T06:46:46.999Z</time></trkpt><trkpt lat="44.97607087153366" lon="9.920540897247639"><ele>52.0</ele><time>2026-03-29T06:46:47.999Z</time></trkpt><trkpt lat="44.9760004401151" lon="9.920491810605254"><ele>52.0</ele><time>2026-03-29T06:46:48.999Z</time></trkpt><trkpt lat="44.9759316103233" lon="9.920440662019898"><ele>51.99999999999999</ele><time>2026-03-29T06:46:49.999Z</time></trkpt><trkpt lat="44.9758626214111" lon="9.920391030544538"><ele>52.0</ele><time>2026-03-29T06:46:50.999Z</time></trkpt><trkpt lat="44.975791979654325" lon="9.920341400890047"><ele>52.166666666666664</ele><time>2026-03-29T06:46:51.999Z</time></trkpt><trkpt lat="44.9757216794297" lon="9.920291014129008"><ele>52.33333333333333</ele><time>2026-03-29T06:46:52.999Z</time></trkpt><trkpt lat="44.97565261222697" lon="9.92024078220758"><ele>52.5</ele><time>2026-03-29T06:46:53.999Z</time></trkpt><trkpt lat="44.97558261731016" lon="9.920190128521178"><ele>52.66666666666667</ele><time>2026-03-29T06:46:54.999Z</time></trkpt><trkpt lat="44.975511295839425" lon="9.92014350285276"><ele>52.833333333333336</ele><time>2026-03-29T06:46:55.999Z</time></trkpt><trkpt lat="44.97544106683159" lon="9.920091519291166"><ele>53.0</ele><time>2026-03-29T06:46:56.999Z</time></trkpt><trkpt lat="44.975370076627215" lon="9.92003967421061"><ele>53.00000000000001</ele><time>2026-03-29T06:46:57.999Z</time></trkpt><trkpt lat="44.97529972400692" lon="9.919989810441885"><ele>53.0</ele><time>2026-03-29T06:46:58.999Z</time></trkpt><trkpt lat="44.97522818030111" lon="9.919938799352694"><ele>53.0</ele><time>2026-03-29T06:46:59.999Z</time></trkpt><trkpt lat="44.97515899878284" lon="9.919888533360494"><ele>53.0</ele><time>2026-03-29T06:47:00.999Z</time></trkpt><trkpt lat="44.97508873818301" lon="9.919837942065724"><ele>53.00000000000001</ele><time>2026-03-29T06:47:01.999Z</time></trkpt><trkpt lat="44.97501753071514" lon="9.919787595600289"><ele>53.0</ele><time>2026-03-29T06:47:02.999Z</time></trkpt><trkpt lat="44.97494850234704" lon="9.919736971914102"><ele>53.00000000000001</ele><time>2026-03-29T06:47:03.999Z</time></trkpt><trkpt lat="44.97487877988348" lon="9.91968709232375"><ele>53.0</ele><time>2026-03-29T06:47:04.999Z</time></trkpt><trkpt lat="44.97480885381752" lon="9.919636449043768"><ele>53.0</ele><time>2026-03-29T06:47:05.998Z</time></trkpt><trkpt lat="44.97473963356756" lon="9.919586977760032"><ele>53.0</ele><time>2026-03-29T06:47:06.998Z</time></trkpt><trkpt lat="44.974668908174785" lon="9.919537543125324"><ele>53.00000000000001</ele><time>2026-03-29T06:47:08.001Z</time></trkpt><trkpt lat="44.97460024168377" lon="9.91948786703416"><ele>53.0</ele><time>2026-03-29T06:47:09.001Z</time></trkpt><trkpt lat="44.97453168392696" lon="9.919437678983607"><ele>53.00000000000001</ele><time>2026-03-29T06:47:10.001Z</time></trkpt><trkpt lat="44.97446258162192" lon="9.919389397152033"><ele>53.0</ele><time>2026-03-29T06:47:11.001Z</time></trkpt><trkpt lat="44.97439274435638" lon="9.91934022546044"><ele>53.0</ele><time>2026-03-29T06:47:12.001Z</time></trkpt><trkpt lat="44.97432242769565" lon="9.919290944576591"><ele>53.0</ele><time>2026-03-29T06:47:13.001Z</time></trkpt><trkpt lat="44.97425347418913" lon="9.919242880660478"><ele>53.00000000000001</ele><time>2026-03-29T06:47:14.001Z</time></trkpt><trkpt lat="44.9741850678509" lon="9.919192737649825"><ele>53.0</ele><time>2026-03-29T06:47:15.001Z</time></trkpt><trkpt lat="44.97411623851526" lon="9.919143652024037"><ele>52.66666666666667</ele><time>2026-03-29T06:47:16.001Z</time></trkpt><trkpt lat="44.97404693845803" lon="9.919095323353506"><ele>52.333333333333336</ele><time>2026-03-29T06:47:17.001Z</time></trkpt><trkpt lat="44.97397737127924" lon="9.919046886508024"><ele>52.0</ele><time>2026-03-29T06:47:18.001Z</time></trkpt><trkpt lat="44.97390891072427" lon="9.918998713069525"><ele>51.66666666666667</ele><time>2026-03-29T06:47:19.001Z</time></trkpt><trkpt lat="44.973838542546524" lon="9.91894911864873"><ele>51.333333333333336</ele><time>2026-03-29T06:47:20.001Z</time></trkpt><trkpt lat="44.973769117358266" lon="9.918901261741468"><ele>51.0</ele><time>2026-03-29T06:47:21.001Z</time></trkpt><trkpt lat="44.973697834282284" lon="9.918849427109727"><ele>51.0</ele><time>2026-03-29T06:47:22.001Z</time></trkpt><trkpt lat="44.97362769411953" lon="9.91880000118135"><ele>51.0</ele><time>2026-03-29T06:47:23Z</time></trkpt><trkpt lat="44.97355772017825" lon="9.918749399134384"><ele>51.0</ele><time>2026-03-29T06:47:24Z</time></trkpt><trkpt lat="44.97348739971952" lon="9.918696901373178"><ele>51.0</ele><time>2026-03-29T06:47:25Z</time></trkpt><trkpt lat="44.9734170109319" lon="9.918647112380924"><ele>51.0</ele><time>2026-03-29T06:47:26Z</time></trkpt><trkpt lat="44.9733477149556" lon="9.918600586240169"><ele>51.0</ele><time>2026-03-29T06:47:27Z</time></trkpt><trkpt lat="44.9732783343958" lon="9.918554137970585"><ele>51.0</ele><time>2026-03-29T06:47:28Z</time></trkpt><trkpt lat="44.973210051924276" lon="9.918503463801905"><ele>51.0</ele><time>2026-03-29T06:47:29Z</time></trkpt><trkpt lat="44.9731407656679" lon="9.918452929254853"><ele>51.0</ele><time>2026-03-29T06:47:30Z</time></trkpt><trkpt lat="44.97307208654109" lon="9.918402679108798"><ele>51.0</ele><time>2026-03-29T06:47:31Z</time></trkpt><trkpt lat="44.973001761280116" lon="9.918354552797814"><ele>51.0</ele><time>2026-03-29T06:47:32Z</time></trkpt><trkpt lat="44.972932334631984" lon="9.918305015017516"><ele>51.0</ele><time>2026-03-29T06:47:33Z</time></trkpt><trkpt lat="44.97286253097957" lon="9.918255659355289"><ele>51.0</ele><time>2026-03-29T06:47:34Z</time></trkpt><trkpt lat="44.97279209516122" lon="9.918206841886342"><ele>51.0</ele><time>2026-03-29T06:47:35Z</time></trkpt><trkpt lat="44.97272212117432" lon="9.918158434118935"><ele>51.0</ele><time>2026-03-29T06:47:36Z</time></trkpt><trkpt lat="44.97265171386692" lon="9.918106952239688"><ele>51.0</ele><time>2026-03-29T06:47:37Z</time></trkpt><trkpt lat="44.9725825558273" lon="9.91805665088712"><ele>51.0</ele><time>2026-03-29T06:47:38Z</time></trkpt><trkpt lat="44.972514342783796" lon="9.918011274078287"><ele>51.0</ele><time>2026-03-29T06:47:39Z</time></trkpt><trkpt lat="44.97244512792969" lon="9.917962775812901"><ele>50.166666666666664</ele><time>2026-03-29T06:47:40Z</time></trkpt><trkpt lat="44.97237727821998" lon="9.91791258214943"><ele>49.333333333333336</ele><time>2026-03-29T06:47:41Z</time></trkpt><trkpt lat="44.972308743282085" lon="9.917862780782977"><ele>48.5</ele><time>2026-03-29T06:47:42Z</time></trkpt><trkpt lat="44.97224051390737" lon="9.917816053611567"><ele>47.66666666666667</ele><time>2026-03-29T06:47:43Z</time></trkpt><trkpt lat="44.97217380785061" lon="9.917766084502762"><ele>46.833333333333336</ele><time>2026-03-29T06:47:44Z</time></trkpt><trkpt lat="44.97210629572194" lon="9.917719905636593"><ele>46.0</ele><time>2026-03-29T06:47:45Z</time></trkpt><trkpt lat="44.9720389513855" lon="9.917670548128877"><ele>46.0</ele><time>2026-03-29T06:47:46Z</time></trkpt><trkpt lat="44.97196991941306" lon="9.917623604820474"><ele>46.0</ele><time>2026-03-29T06:47:47Z</time></trkpt><trkpt lat="44.97190148125332" lon="9.917573965934023"><ele>46.0</ele><time>2026-03-29T06:47:48Z</time></trkpt><trkpt lat="44.971833149180725" lon="9.917524665274966"><ele>46.0</ele><time>2026-03-29T06:47:49Z</time></trkpt><trkpt lat="44.971764489700405" lon="9.917476497918205"><ele>46.0</ele><time>2026-03-29T06:47:50Z</time></trkpt><trkpt lat="44.97169478273798" lon="9.917425154437073"><ele>46.0</ele><time>2026-03-29T06:47:51Z</time></trkpt><trkpt lat="44.97162473505574" lon="9.917376485818297"><ele>47.833333333333336</ele><time>2026-03-29T06:47:52Z</time></trkpt><trkpt lat="44.97155529495624" lon="9.917327134368648"><ele>49.66666666666667</ele><time>2026-03-29T06:47:53Z</time></trkpt><trkpt lat="44.97148585148078" lon="9.917276679568465"><ele>51.5</ele><time>2026-03-29T06:47:54Z</time></trkpt><trkpt lat="44.97141622739858" lon="9.917226100869625"><ele>53.333333333333336</ele><time>2026-03-29T06:47:55Z</time></trkpt><trkpt lat="44.97134694353798" lon="9.917178130501823"><ele>55.166666666666664</ele><time>2026-03-29T06:47:56Z</time></trkpt><trkpt lat="44.97127861356959" lon="9.91712917960573"><ele>57.0</ele><time>2026-03-29T06:47:57Z</time></trkpt><trkpt lat="44.971211154679324" lon="9.917079155797682"><ele>57.0</ele><time>2026-03-29T06:47:58Z</time></trkpt><trkpt lat="44.971141197853264" lon="9.917028832298083"><ele>57.0</ele><time>2026-03-29T06:47:59Z</time></trkpt><trkpt lat="44.971071529790294" lon="9.916982588559074"><ele>57.0</ele><time>2026-03-29T06:48:00Z</time></trkpt><trkpt lat="44.971003176012196" lon="9.916935030679893"><ele>57.0</ele><time>2026-03-29T06:48:01Z</time></trkpt><trkpt lat="44.9709343979165" lon="9.916884984393121"><ele>57.0</ele><time>2026-03-29T06:48:02Z</time></trkpt><trkpt lat="44.970866711412" lon="9.916835004290709"><ele>57.0</ele><time>2026-03-29T06:48:03Z</time></trkpt><trkpt lat="44.97079919179011" lon="9.91678645773715"><ele>56.833333333333336</ele><time>2026-03-29T06:48:04Z</time></trkpt><trkpt lat="44.97073020249478" lon="9.91673634563993"><ele>56.66666666666667</ele><time>2026-03-29T06:48:05Z</time></trkpt><trkpt lat="44.97066063877646" lon="9.916688537272877"><ele>56.5</ele><time>2026-03-29T06:48:06Z</time></trkpt><trkpt lat="44.97059068770008" lon="9.916640862382033"><ele>56.333333333333336</ele><time>2026-03-29T06:48:07Z</time></trkpt><trkpt lat="44.97052316323599" lon="9.91659012342192"><ele>56.16666666666667</ele><time>2026-03-29T06:48:08Z</time></trkpt><trkpt lat="44.97045399459535" lon="9.91653995598345"><ele>56.0</ele><time>2026-03-29T06:48:09Z</time></trkpt><trkpt lat="44.97038382807486" lon="9.916490612761129"><ele>56.00000000000001</ele><time>2026-03-29T06:48:10Z</time></trkpt><trkpt lat="44.970313119722206" lon="9.916441584299209"><ele>56.0</ele><time>2026-03-29T06:48:11Z</time></trkpt><trkpt lat="44.97024347575151" lon="9.916391664123056"><ele>56.0</ele><time>2026-03-29T06:48:12Z</time></trkpt><trkpt lat="44.97017363175477" lon="9.916340741858862"><ele>56.0</ele><time>2026-03-29T06:48:13Z</time></trkpt><trkpt lat="44.970103573646334" lon="9.916291378210559"><ele>56.00000000000001</ele><time>2026-03-29T06:48:14Z</time></trkpt><trkpt lat="44.970033376316245" lon="9.916243632333249"><ele>56.0</ele><time>2026-03-29T06:48:15Z</time></trkpt><trkpt lat="44.96996373248136" lon="9.916191575335592"><ele>56.16666666666667</ele><time>2026-03-29T06:48:15.999Z</time></trkpt><trkpt lat="44.96989368043206" lon="9.916140706689664"><ele>56.333333333333336</ele><time>2026-03-29T06:48:16.999Z</time></trkpt><trkpt lat="44.9698236725205" lon="9.916088130526662"><ele>56.5</ele><time>2026-03-29T06:48:17.999Z</time></trkpt><trkpt lat="44.969754454070014" lon="9.916038326339644"><ele>56.66666666666667</ele><time>2026-03-29T06:48:18.999Z</time></trkpt><trkpt lat="44.96968367430944" lon="9.915989417795142"><ele>56.833333333333336</ele><time>2026-03-29T06:48:19.999Z</time></trkpt><trkpt lat="44.969614502638365" lon="9.915940232607952"><ele>57.0</ele><time>2026-03-29T06:48:20.999Z</time></trkpt><trkpt lat="44.96954601086413" lon="9.915890630748464"><ele>57.0</ele><time>2026-03-29T06:48:21.999Z</time></trkpt><trkpt lat="44.96947544132874" lon="9.91584405959578"><ele>57.0</ele><time>2026-03-29T06:48:22.999Z</time></trkpt><trkpt lat="44.96940548577661" lon="9.915796265943067"><ele>57.0</ele><time>2026-03-29T06:48:23.999Z</time></trkpt><trkpt lat="44.969335682298244" lon="9.915742940063513"><ele>57.0</ele><time>2026-03-29T06:48:24.999Z</time></trkpt><trkpt lat="44.96926533988047" lon="9.915690861654662"><ele>57.0</ele><time>2026-03-29T06:48:25.999Z</time></trkpt><trkpt lat="44.9691957048774" lon="9.915642164343783"><ele>57.0</ele><time>2026-03-29T06:48:26.999Z</time></trkpt><trkpt lat="44.96912599074537" lon="9.915591550701754"><ele>56.333333333333336</ele><time>2026-03-29T06:48:27.999Z</time></trkpt><trkpt lat="44.969054954149485" lon="9.915542490142492"><ele>55.66666666666667</ele><time>2026-03-29T06:48:28.999Z</time></trkpt><trkpt lat="44.96898515794602" lon="9.91549255996328"><ele>55.0</ele><time>2026-03-29T06:48:29.999Z</time></trkpt><trkpt lat="44.96891655022222" lon="9.915442671160397"><ele>54.333333333333336</ele><time>2026-03-29T06:48:30.999Z</time></trkpt><trkpt lat="44.968846534261665" lon="9.915395573494761"><ele>53.66666666666667</ele><time>2026-03-29T06:48:31.999Z</time></trkpt><trkpt lat="44.968776904633565" lon="9.91534870989076"><ele>53.0</ele><time>2026-03-29T06:48:32.999Z</time></trkpt><trkpt lat="44.96870926414369" lon="9.915299672806738"><ele>53.00000000000001</ele><time>2026-03-29T06:48:33.999Z</time></trkpt><trkpt lat="44.968641571578154" lon="9.915250143232171"><ele>53.0</ele><time>2026-03-29T06:48:34.999Z</time></trkpt><trkpt lat="44.968571541531375" lon="9.91520379625417"><ele>53.0</ele><time>2026-03-29T06:48:35.999Z</time></trkpt><trkpt lat="44.96850172844428" lon="9.915154662331553"><ele>53.0</ele><time>2026-03-29T06:48:36.999Z</time></trkpt><trkpt lat="44.96843284398167" lon="9.91510431530266"><ele>53.00000000000001</ele><time>2026-03-29T06:48:37.999Z</time></trkpt><trkpt lat="44.96836399554565" lon="9.915053083085455"><ele>53.0</ele><time>2026-03-29T06:48:38.999Z</time></trkpt><trkpt lat="44.968294127126896" lon="9.91500469362273"><ele>53.66666666666667</ele><time>2026-03-29T06:48:39.999Z</time></trkpt><trkpt lat="44.968224959397645" lon="9.914954874630249"><ele>54.333333333333336</ele><time>2026-03-29T06:48:40.999Z</time></trkpt><trkpt lat="44.96815636578472" lon="9.914905603460799"><ele>55.0</ele><time>2026-03-29T06:48:41.999Z</time></trkpt><trkpt lat="44.968086887790626" lon="9.91485733296787"><ele>55.66666666666667</ele><time>2026-03-29T06:48:42.999Z</time></trkpt><trkpt lat="44.96801727780538" lon="9.914808085048426"><ele>56.333333333333336</ele><time>2026-03-29T06:48:43.999Z</time></trkpt><trkpt lat="44.96794918389087" lon="9.91475775610759"><ele>57.0</ele><time>2026-03-29T06:48:44.999Z</time></trkpt><trkpt lat="44.96787958167868" lon="9.914708664833677"><ele>57.0</ele><time>2026-03-29T06:48:45.999Z</time></trkpt><trkpt lat="44.967809507593344" lon="9.914659473975899"><ele>57.0</ele><time>2026-03-29T06:48:46.999Z</time></trkpt><trkpt lat="44.96774068193118" lon="9.914609711157029"><ele>57.0</ele><time>2026-03-29T06:48:47.999Z</time></trkpt><trkpt lat="44.96767195485914" lon="9.914562918520597"><ele>57.0</ele><time>2026-03-29T06:48:48.999Z</time></trkpt><trkpt lat="44.96760179871239" lon="9.914515355678546"><ele>57.0</ele><time>2026-03-29T06:48:49.999Z</time></trkpt><trkpt lat="44.967532635246826" lon="9.914467904529499"><ele>57.0</ele><time>2026-03-29T06:48:50.999Z</time></trkpt><trkpt lat="44.96746394107593" lon="9.914417092010865"><ele>57.0</ele><time>2026-03-29T06:48:51.999Z</time></trkpt><trkpt lat="44.967394591637984" lon="9.914366812397317"><ele>57.0</ele><time>2026-03-29T06:48:52.999Z</time></trkpt><trkpt lat="44.96732540865115" lon="9.914317848718"><ele>57.0</ele><time>2026-03-29T06:48:53.999Z</time></trkpt><trkpt lat="44.96725660559528" lon="9.914268340789363"><ele>57.0</ele><time>2026-03-29T06:48:54.999Z</time></trkpt><trkpt lat="44.96718739561002" lon="9.914219602385282"><ele>57.0</ele><time>2026-03-29T06:48:55.999Z</time></trkpt><trkpt lat="44.967117882034934" lon="9.91417144004925"><ele>57.0</ele><time>2026-03-29T06:48:56.999Z</time></trkpt><trkpt lat="44.96704996576385" lon="9.914122633882224"><ele>57.0</ele><time>2026-03-29T06:48:57.999Z</time></trkpt><trkpt lat="44.966981403405725" lon="9.91407032211617"><ele>57.0</ele><time>2026-03-29T06:48:58.999Z</time></trkpt><trkpt lat="44.96691202465175" lon="9.914021505179099"><ele>57.0</ele><time>2026-03-29T06:48:59.999Z</time></trkpt><trkpt lat="44.966843007549954" lon="9.913972946131285"><ele>57.0</ele><time>2026-03-29T06:49:00.999Z</time></trkpt><trkpt lat="44.96677388977516" lon="9.913923019745463"><ele>57.0</ele><time>2026-03-29T06:49:01.999Z</time></trkpt><trkpt lat="44.966704777375426" lon="9.913872334064381"><ele>57.0</ele><time>2026-03-29T06:49:02.999Z</time></trkpt><trkpt lat="44.966635297406555" lon="9.913823717283536"><ele>57.166666666666664</ele><time>2026-03-29T06:49:03.999Z</time></trkpt><trkpt lat="44.96656605058399" lon="9.913775611979249"><ele>57.33333333333333</ele><time>2026-03-29T06:49:04.999Z</time></trkpt><trkpt lat="44.96649727821771" lon="9.913727557394534"><ele>57.5</ele><time>2026-03-29T06:49:05.999Z</time></trkpt><trkpt lat="44.966427352949296" lon="9.91367878627464"><ele>57.666666666666664</ele><time>2026-03-29T06:49:06.999Z</time></trkpt><trkpt lat="44.966356944051284" lon="9.913628911365404"><ele>57.83333333333333</ele><time>2026-03-29T06:49:07.999Z</time></trkpt><trkpt lat="44.96628815467059" lon="9.913577935913768"><ele>58.0</ele><time>2026-03-29T06:49:08.999Z</time></trkpt><trkpt lat="44.96621918745859" lon="9.91352684315585"><ele>57.99999999999999</ele><time>2026-03-29T06:49:09.998Z</time></trkpt><trkpt lat="44.96615082859383" lon="9.913478564639068"><ele>58.0</ele><time>2026-03-29T06:49:10.998Z</time></trkpt><trkpt lat="44.966082010474366" lon="9.913428759997455"><ele>58.0</ele><time>2026-03-29T06:49:11.998Z</time></trkpt><trkpt lat="44.96601370198221" lon="9.91338073735213"><ele>58.0</ele><time>2026-03-29T06:49:12.998Z</time></trkpt><trkpt lat="44.965944525585336" lon="9.913331248623772"><ele>57.99999999999999</ele><time>2026-03-29T06:49:14Z</time></trkpt><trkpt lat="44.96587615973402" lon="9.913283620422883"><ele>58.0</ele><time>2026-03-29T06:49:15.001Z</time></trkpt><trkpt lat="44.96580811930044" lon="9.913234495714487"><ele>57.83333333333333</ele><time>2026-03-29T06:49:16Z</time></trkpt><trkpt lat="44.965739380987635" lon="9.913186647155019"><ele>57.666666666666664</ele><time>2026-03-29T06:49:17Z</time></trkpt><trkpt lat="44.96567100144344" lon="9.913137419926318"><ele>57.5</ele><time>2026-03-29T06:49:18.001Z</time></trkpt><trkpt lat="44.96560314408471" lon="9.913087142146866"><ele>57.33333333333333</ele><time>2026-03-29T06:49:19Z</time></trkpt><trkpt lat="44.96553528571355" lon="9.91303787303326"><ele>57.166666666666664</ele><time>2026-03-29T06:49:20Z</time></trkpt><trkpt lat="44.96546668077832" lon="9.912990262306485"><ele>57.0</ele><time>2026-03-29T06:49:21Z</time></trkpt><trkpt lat="44.96540020158432" lon="9.912943247814235"><ele>57.0</ele><time>2026-03-29T06:49:22Z</time></trkpt><trkpt lat="44.96533154050943" lon="9.912895337537655"><ele>57.0</ele><time>2026-03-29T06:49:23Z</time></trkpt><trkpt lat="44.965263936961435" lon="9.91284652945029"><ele>57.0</ele><time>2026-03-29T06:49:24Z</time></trkpt><trkpt lat="44.965195460383015" lon="9.912797776237742"><ele>57.0</ele><time>2026-03-29T06:49:25Z</time></trkpt><trkpt lat="44.96512662371099" lon="9.912748917012623"><ele>57.0</ele><time>2026-03-29T06:49:26Z</time></trkpt><trkpt lat="44.96505826114827" lon="9.912699073016007"><ele>57.0</ele><time>2026-03-29T06:49:27Z</time></trkpt><trkpt lat="44.964988660717815" lon="9.912650614677746"><ele>57.0</ele><time>2026-03-29T06:49:28Z</time></trkpt><trkpt lat="44.964919487709466" lon="9.91259946831259"><ele>57.0</ele><time>2026-03-29T06:49:29Z</time></trkpt><trkpt lat="44.96485099299747" lon="9.912550223485315"><ele>57.0</ele><time>2026-03-29T06:49:30Z</time></trkpt><trkpt lat="44.964781233221494" lon="9.912501833431723"><ele>57.0</ele><time>2026-03-29T06:49:31Z</time></trkpt><trkpt lat="44.96471107664604" lon="9.91245316575262"><ele>57.0</ele><time>2026-03-29T06:49:32Z</time></trkpt><trkpt lat="44.96464109079116" lon="9.912402127651173"><ele>57.0</ele><time>2026-03-29T06:49:33Z</time></trkpt><trkpt lat="44.96457107582211" lon="9.912350465652874"><ele>57.5</ele><time>2026-03-29T06:49:34Z</time></trkpt><trkpt lat="44.96450092573107" lon="9.91230081273614"><ele>58.0</ele><time>2026-03-29T06:49:35Z</time></trkpt><trkpt lat="44.96443195143692" lon="9.912251437490907"><ele>58.5</ele><time>2026-03-29T06:49:36Z</time></trkpt><trkpt lat="44.96436223840493" lon="9.912203997281098"><ele>59.0</ele><time>2026-03-29T06:49:37Z</time></trkpt><trkpt lat="44.96429214706588" lon="9.912154806024708"><ele>59.5</ele><time>2026-03-29T06:49:38Z</time></trkpt><trkpt lat="44.96422280609792" lon="9.912107213656954"><ele>60.0</ele><time>2026-03-29T06:49:39Z</time></trkpt><trkpt lat="44.9641531262989" lon="9.91205754756701"><ele>60.0</ele><time>2026-03-29T06:49:40Z</time></trkpt><trkpt lat="44.96408380169042" lon="9.91200951664056"><ele>60.0</ele><time>2026-03-29T06:49:41Z</time></trkpt><trkpt lat="44.964015558802096" lon="9.911959492804469"><ele>60.0</ele><time>2026-03-29T06:49:42Z</time></trkpt><trkpt lat="44.96394652728421" lon="9.911908321105743"><ele>60.0</ele><time>2026-03-29T06:49:43Z</time></trkpt><trkpt lat="44.96387705315613" lon="9.911858506066388"><ele>60.0</ele><time>2026-03-29T06:49:44Z</time></trkpt><trkpt lat="44.963807625463154" lon="9.911810125648906"><ele>60.0</ele><time>2026-03-29T06:49:45Z</time></trkpt><trkpt lat="44.963739198177954" lon="9.911762223631298"><ele>60.0</ele><time>2026-03-29T06:49:46Z</time></trkpt><trkpt lat="44.96367042686156" lon="9.911711241674967"><ele>60.0</ele><time>2026-03-29T06:49:47Z</time></trkpt><trkpt lat="44.96360018577958" lon="9.911661057282735"><ele>60.0</ele><time>2026-03-29T06:49:48Z</time></trkpt><trkpt lat="44.96352985510766" lon="9.911611639574472"><ele>60.0</ele><time>2026-03-29T06:49:49Z</time></trkpt><trkpt lat="44.963461531981274" lon="9.911558430611613"><ele>60.0</ele><time>2026-03-29T06:49:50Z</time></trkpt><trkpt lat="44.96339104199824" lon="9.911506439648601"><ele>60.0</ele><time>2026-03-29T06:49:51Z</time></trkpt><trkpt lat="44.963319386720656" lon="9.91146489375011"><ele>59.666666666666664</ele><time>2026-03-29T06:49:52Z</time></trkpt><trkpt lat="44.963248033165634" lon="9.911416766354517"><ele>59.33333333333333</ele><time>2026-03-29T06:49:53Z</time></trkpt><trkpt lat="44.96317866256204" lon="9.911364095359916"><ele>59.0</ele><time>2026-03-29T06:49:54Z</time></trkpt><trkpt lat="44.96311013425671" lon="9.911312013539781"><ele>58.666666666666664</ele><time>2026-03-29T06:49:55Z</time></trkpt><trkpt lat="44.963041124696616" lon="9.911258484478655"><ele>58.33333333333333</ele><time>2026-03-29T06:49:56Z</time></trkpt><trkpt lat="44.96297130087027" lon="9.9112106883823"><ele>58.0</ele><time>2026-03-29T06:49:57Z</time></trkpt><trkpt lat="44.96290395913436" lon="9.91116241207197"><ele>58.00000000000001</ele><time>2026-03-29T06:49:58Z</time></trkpt><trkpt lat="44.96283578124758" lon="9.911116064008068"><ele>58.0</ele><time>2026-03-29T06:49:59Z</time></trkpt><trkpt lat="44.96277220997983" lon="9.911074530017018"><ele>58.00000000000001</ele><time>2026-03-29T06:50:00Z</time></trkpt><trkpt lat="44.96271316322309" lon="9.911021010063095"><ele>58.00000000000001</ele><time>2026-03-29T06:50:01Z</time></trkpt><trkpt lat="44.96264462693151" lon="9.910973682946866"><ele>58.0</ele><time>2026-03-29T06:50:02Z</time></trkpt><trkpt lat="44.96258064531159" lon="9.910931646191724"><ele>58.00000000000001</ele><time>2026-03-29T06:50:03Z</time></trkpt><trkpt lat="44.96251763635977" lon="9.910886718575558"><ele>58.00000000000001</ele><time>2026-03-29T06:50:04Z</time></trkpt><trkpt lat="44.962456544446916" lon="9.910843298555308"><ele>58.28571428571429</ele><time>2026-03-29T06:50:05Z</time></trkpt><trkpt lat="44.96239454483011" lon="9.910802864417935"><ele>58.57142857142857</ele><time>2026-03-29T06:50:06Z</time></trkpt><trkpt lat="44.96233138960723" lon="9.910764330259063"><ele>58.85714285714286</ele><time>2026-03-29T06:50:07Z</time></trkpt><trkpt lat="44.96227140113432" lon="9.910724535136117"><ele>59.142857142857146</ele><time>2026-03-29T06:50:08Z</time></trkpt><trkpt lat="44.96221152476508" lon="9.910683213077094"><ele>59.42857142857143</ele><time>2026-03-29T06:50:09Z</time></trkpt><trkpt lat="44.96215324677771" lon="9.910642103248273"><ele>59.714285714285715</ele><time>2026-03-29T06:50:10Z</time></trkpt><trkpt lat="44.96209307118409" lon="9.910602267695882"><ele>60.0</ele><time>2026-03-29T06:50:11Z</time></trkpt><trkpt lat="44.96203414833992" lon="9.91056199968848"><ele>60.0</ele><time>2026-03-29T06:50:12Z</time></trkpt><trkpt lat="44.96197261050291" lon="9.910521453266508"><ele>60.0</ele><time>2026-03-29T06:50:13Z</time></trkpt><trkpt lat="44.9619141715979" lon="9.910480657011663"><ele>60.0</ele><time>2026-03-29T06:50:14Z</time></trkpt><trkpt lat="44.961857328664195" lon="9.910433837963366"><ele>60.0</ele><time>2026-03-29T06:50:15Z</time></trkpt><trkpt lat="44.96180065489037" lon="9.910388499517277"><ele>60.0</ele><time>2026-03-29T06:50:16Z</time></trkpt><trkpt lat="44.96174535189978" lon="9.910341358395332"><ele>60.0</ele><time>2026-03-29T06:50:17Z</time></trkpt><trkpt lat="44.961689406573676" lon="9.910296923349165"><ele>60.0</ele><time>2026-03-29T06:50:18Z</time></trkpt><trkpt lat="44.96163441587027" lon="9.910252308835272"><ele>60.0</ele><time>2026-03-29T06:50:19Z</time></trkpt><trkpt lat="44.96157970719388" lon="9.91020612179265"><ele>60.0</ele><time>2026-03-29T06:50:19.999Z</time></trkpt><trkpt lat="44.961525689988036" lon="9.910160016953226"><ele>60.0</ele><time>2026-03-29T06:50:20.999Z</time></trkpt><trkpt lat="44.96146907692017" lon="9.91011202663854"><ele>60.0</ele><time>2026-03-29T06:50:21.999Z</time></trkpt><trkpt lat="44.96141560021316" lon="9.910065037169975"><ele>60.0</ele><time>2026-03-29T06:50:22.999Z</time></trkpt><trkpt lat="44.961359789170906" lon="9.910019414573105"><ele>60.0</ele><time>2026-03-29T06:50:23.999Z</time></trkpt><trkpt lat="44.961303081626234" lon="9.909972759295716"><ele>60.0</ele><time>2026-03-29T06:50:24.999Z</time></trkpt><trkpt lat="44.96119703586233" lon="9.909871759163838"><ele>60.166666666666664</ele><time>2026-03-29T06:50:26.999Z</time></trkpt><trkpt lat="44.961142117244094" lon="9.909826810375641"><ele>60.33333333333333</ele><time>2026-03-29T06:50:27.999Z</time></trkpt><trkpt lat="44.96108572098364" lon="9.909783387685549"><ele>60.5</ele><time>2026-03-29T06:50:28.999Z</time></trkpt><trkpt lat="44.96098069089684" lon="9.909695858468295"><ele>60.666666666666664</ele><time>2026-03-29T06:50:30.999Z</time></trkpt><trkpt lat="44.96087356145572" lon="9.909603282620264"><ele>60.83333333333333</ele><time>2026-03-29T06:50:32.999Z</time></trkpt><trkpt lat="44.96081695230122" lon="9.90955493704455"><ele>61.0</ele><time>2026-03-29T06:50:33.999Z</time></trkpt><trkpt lat="44.96076012275982" lon="9.909506538150145"><ele>60.99999999999999</ele><time>2026-03-29T06:50:34.999Z</time></trkpt><trkpt lat="44.96070277833429" lon="9.909456816830925"><ele>61.0</ele><time>2026-03-29T06:50:35.999Z</time></trkpt><trkpt lat="44.96064414862748" lon="9.909406535660612"><ele>60.99999999999999</ele><time>2026-03-29T06:50:36.999Z</time></trkpt><trkpt lat="44.96058399623412" lon="9.909352144417829"><ele>60.99999999999999</ele><time>2026-03-29T06:50:37.999Z</time></trkpt><trkpt lat="44.96052385561983" lon="9.90929681013772"><ele>61.0</ele><time>2026-03-29T06:50:38.999Z</time></trkpt><trkpt lat="44.96045847482105" lon="9.909245461991153"><ele>60.99999999999999</ele><time>2026-03-29T06:50:39.999Z</time></trkpt><trkpt lat="44.96039347521331" lon="9.90919222074522"><ele>60.99999999999999</ele><time>2026-03-29T06:50:40.999Z</time></trkpt><trkpt lat="44.96032837711907" lon="9.9091442198272"><ele>61.666666666666664</ele><time>2026-03-29T06:50:41.999Z</time></trkpt><trkpt lat="44.9602613421808" lon="9.909093908326971"><ele>62.33333333333333</ele><time>2026-03-29T06:50:42.999Z</time></trkpt><trkpt lat="44.96019145527701" lon="9.909049389186752"><ele>63.0</ele><time>2026-03-29T06:50:43.999Z</time></trkpt><trkpt lat="44.9601212980461" lon="9.909001767742382"><ele>63.66666666666667</ele><time>2026-03-29T06:50:44.999Z</time></trkpt><trkpt lat="44.96004706277393" lon="9.908957229010108"><ele>64.33333333333334</ele><time>2026-03-29T06:50:45.999Z</time></trkpt><trkpt lat="44.95997339491582" lon="9.908911800046342"><ele>65.0</ele><time>2026-03-29T06:50:46.999Z</time></trkpt><trkpt lat="44.959898443197346" lon="9.908868399312379"><ele>65.0</ele><time>2026-03-29T06:50:47.999Z</time></trkpt><trkpt lat="44.95982246213331" lon="9.908827031275711"><ele>65.0</ele><time>2026-03-29T06:50:48.999Z</time></trkpt><trkpt lat="44.959744629583746" lon="9.908789605894103"><ele>65.0</ele><time>2026-03-29T06:50:49.999Z</time></trkpt><trkpt lat="44.95966468812278" lon="9.908753500182174"><ele>65.0</ele><time>2026-03-29T06:50:50.999Z</time></trkpt><trkpt lat="44.959587963709204" lon="9.908719918791226"><ele>65.0</ele><time>2026-03-29T06:50:51.999Z</time></trkpt><trkpt lat="44.959511745703" lon="9.908681640142824"><ele>65.0</ele><time>2026-03-29T06:50:52.999Z</time></trkpt><trkpt lat="44.959434019722075" lon="9.908648164021038"><ele>65.0</ele><time>2026-03-29T06:50:53.999Z</time></trkpt><trkpt lat="44.95935758514911" lon="9.908617924306549"><ele>65.0</ele><time>2026-03-29T06:50:54.999Z</time></trkpt><trkpt lat="44.95928301414285" lon="9.908585528523705"><ele>65.0</ele><time>2026-03-29T06:50:55.999Z</time></trkpt><trkpt lat="44.95920625197608" lon="9.90855312718529"><ele>65.0</ele><time>2026-03-29T06:50:56.999Z</time></trkpt><trkpt lat="44.95913018804066" lon="9.90852081315986"><ele>65.0</ele><time>2026-03-29T06:50:57.999Z</time></trkpt><trkpt lat="44.95905681717408" lon="9.90848638010281"><ele>65.0</ele><time>2026-03-29T06:50:58.999Z</time></trkpt><trkpt lat="44.95898475183113" lon="9.908456100112307"><ele>64.85714285714286</ele><time>2026-03-29T06:50:59.999Z</time></trkpt><trkpt lat="44.95891584058791" lon="9.908428861688488"><ele>64.71428571428572</ele><time>2026-03-29T06:51:00.999Z</time></trkpt><trkpt lat="44.958851018429" lon="9.908400792898231"><ele>64.57142857142857</ele><time>2026-03-29T06:51:01.999Z</time></trkpt><trkpt lat="44.9587859705685" lon="9.908371247798645"><ele>64.42857142857143</ele><time>2026-03-29T06:51:02.999Z</time></trkpt><trkpt lat="44.958721628605" lon="9.908342770157233"><ele>64.28571428571428</ele><time>2026-03-29T06:51:03.999Z</time></trkpt><trkpt lat="44.958660160817956" lon="9.908311078275776"><ele>64.14285714285714</ele><time>2026-03-29T06:51:04.999Z</time></trkpt><trkpt lat="44.958597811734016" lon="9.90828243451173"><ele>64.0</ele><time>2026-03-29T06:51:05.999Z</time></trkpt><trkpt lat="44.958535160132264" lon="9.908255466799835"><ele>63.99999999999999</ele><time>2026-03-29T06:51:06.999Z</time></trkpt><trkpt lat="44.958473767287515" lon="9.908229154438411"><ele>64.0</ele><time>2026-03-29T06:51:07.999Z</time></trkpt><trkpt lat="44.95835231930226" lon="9.9081772588"><ele>64.0</ele><time>2026-03-29T06:51:09.999Z</time></trkpt><trkpt lat="44.958288931898736" lon="9.90814945990038"><ele>64.0</ele><time>2026-03-29T06:51:10.999Z</time></trkpt><trkpt lat="44.95822771199749" lon="9.908122159666506"><ele>63.99999999999999</ele><time>2026-03-29T06:51:11.999Z</time></trkpt><trkpt lat="44.958164415714116" lon="9.908097294628751"><ele>64.0</ele><time>2026-03-29T06:51:12.998Z</time></trkpt><trkpt lat="44.95810180293866" lon="9.908070107238288"><ele>64.0</ele><time>2026-03-29T06:51:13.998Z</time></trkpt><trkpt lat="44.95803858182216" lon="9.908045438674613"><ele>63.99999999999999</ele><time>2026-03-29T06:51:14.998Z</time></trkpt><trkpt lat="44.95797439049352" lon="9.908017090233875"><ele>64.0</ele><time>2026-03-29T06:51:15.998Z</time></trkpt><trkpt lat="44.95791152105263" lon="9.907989548254294"><ele>64.0</ele><time>2026-03-29T06:51:16.998Z</time></trkpt><trkpt lat="44.95784865637761" lon="9.907961375282467"><ele>63.99999999999999</ele><time>2026-03-29T06:51:17.998Z</time></trkpt><trkpt lat="44.957785124955734" lon="9.907934992120168"><ele>64.0</ele><time>2026-03-29T06:51:18.998Z</time></trkpt><trkpt lat="44.9577206977885" lon="9.90790566365437"><ele>64.0</ele><time>2026-03-29T06:51:20Z</time></trkpt><trkpt lat="44.95765716208825" lon="9.907878130310763"><ele>64.0</ele><time>2026-03-29T06:51:21Z</time></trkpt><trkpt lat="44.957592460057604" lon="9.907851364752531"><ele>63.99999999999999</ele><time>2026-03-29T06:51:22Z</time></trkpt><trkpt lat="44.95753004058432" lon="9.907823050206298"><ele>64.0</ele><time>2026-03-29T06:51:23Z</time></trkpt><trkpt lat="44.957465816653915" lon="9.907794229386987"><ele>64.0</ele><time>2026-03-29T06:51:24Z</time></trkpt><trkpt lat="44.95739928384003" lon="9.907765869779015"><ele>63.99999999999999</ele><time>2026-03-29T06:51:25Z</time></trkpt><trkpt lat="44.95733037953798" lon="9.907739306094413"><ele>64.0</ele><time>2026-03-29T06:51:26Z</time></trkpt><trkpt lat="44.957259387397826" lon="9.90771127975103"><ele>64.0</ele><time>2026-03-29T06:51:27Z</time></trkpt><trkpt lat="44.95718742906846" lon="9.907678921215465"><ele>63.99999999999999</ele><time>2026-03-29T06:51:28Z</time></trkpt><trkpt lat="44.957115048959146" lon="9.90764751991613"><ele>64.0</ele><time>2026-03-29T06:51:29Z</time></trkpt><trkpt lat="44.957043265540406" lon="9.907614382883091"><ele>64.0</ele><time>2026-03-29T06:51:30Z</time></trkpt><trkpt lat="44.95696910910755" lon="9.907579726609157"><ele>64.0</ele><time>2026-03-29T06:51:31Z</time></trkpt><trkpt lat="44.95689550214837" lon="9.907546586527472"><ele>63.99999999999999</ele><time>2026-03-29T06:51:32Z</time></trkpt><trkpt lat="44.95681839260819" lon="9.907513039161286"><ele>64.0</ele><time>2026-03-29T06:51:33Z</time></trkpt><trkpt lat="44.95673979687355" lon="9.907479060617145"><ele>63.99999999999999</ele><time>2026-03-29T06:51:34Z</time></trkpt><trkpt lat="44.95665935396019" lon="9.90744522104627"><ele>64.0</ele><time>2026-03-29T06:51:35Z</time></trkpt><trkpt lat="44.956578187385304" lon="9.907409301985998"><ele>64.0</ele><time>2026-03-29T06:51:36Z</time></trkpt><trkpt lat="44.956495730709385" lon="9.90737189328078"><ele>64.0</ele><time>2026-03-29T06:51:37Z</time></trkpt><trkpt lat="44.95641293325596" lon="9.90733639947954"><ele>63.99999999999999</ele><time>2026-03-29T06:51:38Z</time></trkpt><trkpt lat="44.95632959376968" lon="9.907301316403093"><ele>64.0</ele><time>2026-03-29T06:51:39Z</time></trkpt><trkpt lat="44.9562455657426" lon="9.907264096573721"><ele>63.99999999999999</ele><time>2026-03-29T06:51:40Z</time></trkpt><trkpt lat="44.956162685069565" lon="9.907226865419977"><ele>64.0</ele><time>2026-03-29T06:51:41Z</time></trkpt><trkpt lat="44.95607735173262" lon="9.907192505009236"><ele>64.0</ele><time>2026-03-29T06:51:42Z</time></trkpt><trkpt lat="44.95599323759966" lon="9.90715817182875"><ele>64.0</ele><time>2026-03-29T06:51:43Z</time></trkpt><trkpt lat="44.95591027201728" lon="9.90712122207087"><ele>63.99999999999999</ele><time>2026-03-29T06:51:44Z</time></trkpt><trkpt lat="44.9558294053097" lon="9.90708210480428"><ele>64.0</ele><time>2026-03-29T06:51:45Z</time></trkpt><trkpt lat="44.955753656353146" lon="9.907041820022018"><ele>63.99999999999999</ele><time>2026-03-29T06:51:46Z</time></trkpt><trkpt lat="44.95567714044231" lon="9.907002654324524"><ele>64.0</ele><time>2026-03-29T06:51:47Z</time></trkpt><trkpt lat="44.95560205496367" lon="9.906965829242985"><ele>64.0</ele><time>2026-03-29T06:51:48Z</time></trkpt><trkpt lat="44.95552791307697" lon="9.906924809205638"><ele>64.0</ele><time>2026-03-29T06:51:49Z</time></trkpt><trkpt lat="44.95545535290043" lon="9.906887675043595"><ele>63.99999999999999</ele><time>2026-03-29T06:51:50Z</time></trkpt><trkpt lat="44.955380199956736" lon="9.906848998269265"><ele>64.0</ele><time>2026-03-29T06:51:51Z</time></trkpt><trkpt lat="44.95530467960292" lon="9.90681089442353"><ele>63.99999999999999</ele><time>2026-03-29T06:51:52Z</time></trkpt><trkpt lat="44.95523222443379" lon="9.906769202991725"><ele>64.0</ele><time>2026-03-29T06:51:53Z</time></trkpt><trkpt lat="44.955159816933715" lon="9.906727057919495"><ele>64.0</ele><time>2026-03-29T06:51:54Z</time></trkpt><trkpt lat="44.95508804596633" lon="9.906684536810475"><ele>64.0</ele><time>2026-03-29T06:51:55Z</time></trkpt><trkpt lat="44.95501699559542" lon="9.906646662630267"><ele>63.99999999999999</ele><time>2026-03-29T06:51:56Z</time></trkpt><trkpt lat="44.95494509474213" lon="9.906608101334598"><ele>64.0</ele><time>2026-03-29T06:51:57Z</time></trkpt><trkpt lat="44.95487425801294" lon="9.906568976018264"><ele>63.83333333333333</ele><time>2026-03-29T06:51:58Z</time></trkpt><trkpt lat="44.95480339425634" lon="9.906529761306986"><ele>63.666666666666664</ele><time>2026-03-29T06:51:59Z</time></trkpt><trkpt lat="44.954734057550425" lon="9.90648812388702"><ele>63.5</ele><time>2026-03-29T06:52:00Z</time></trkpt><trkpt lat="44.9546647692147" lon="9.90644770080239"><ele>63.33333333333333</ele><time>2026-03-29T06:52:01Z</time></trkpt><trkpt lat="44.95459497199624" lon="9.906406256408468"><ele>63.166666666666664</ele><time>2026-03-29T06:52:02Z</time></trkpt><trkpt lat="44.95452556242289" lon="9.906367912275707"><ele>63.0</ele><time>2026-03-29T06:52:03Z</time></trkpt><trkpt lat="44.954456718763716" lon="9.90632909089743"><ele>63.0</ele><time>2026-03-29T06:52:04Z</time></trkpt><trkpt lat="44.954387512981654" lon="9.90628860273773"><ele>63.0</ele><time>2026-03-29T06:52:05Z</time></trkpt><trkpt lat="44.9543176244056" lon="9.9062482127227"><ele>63.0</ele><time>2026-03-29T06:52:06Z</time></trkpt><trkpt lat="44.95424798741738" lon="9.906210820817096"><ele>63.0</ele><time>2026-03-29T06:52:07Z</time></trkpt><trkpt lat="44.95417729585588" lon="9.906170124548218"><ele>63.0</ele><time>2026-03-29T06:52:08Z</time></trkpt><trkpt lat="44.95410697921431" lon="9.906129998173494"><ele>63.0</ele><time>2026-03-29T06:52:09Z</time></trkpt><trkpt lat="44.95403736289903" lon="9.906089348688727"><ele>63.5</ele><time>2026-03-29T06:52:10Z</time></trkpt><trkpt lat="44.95396608256913" lon="9.906050862220413"><ele>64.0</ele><time>2026-03-29T06:52:11Z</time></trkpt><trkpt lat="44.9538955679133" lon="9.906010893794067"><ele>64.5</ele><time>2026-03-29T06:52:12Z</time></trkpt><trkpt lat="44.953825861213275" lon="9.905971520972209"><ele>65.0</ele><time>2026-03-29T06:52:13Z</time></trkpt><trkpt lat="44.95375605957694" lon="9.905931156062099"><ele>65.5</ele><time>2026-03-29T06:52:14Z</time></trkpt><trkpt lat="44.953685592082344" lon="9.905891685165926"><ele>66.0</ele><time>2026-03-29T06:52:15Z</time></trkpt><trkpt lat="44.953614130855094" lon="9.905853450339452"><ele>66.0</ele><time>2026-03-29T06:52:16Z</time></trkpt><trkpt lat="44.95354316237895" lon="9.905814699900555"><ele>66.0</ele><time>2026-03-29T06:52:17Z</time></trkpt><trkpt lat="44.953472187788364" lon="9.905773560894508"><ele>66.0</ele><time>2026-03-29T06:52:18Z</time></trkpt><trkpt lat="44.953401755088066" lon="9.905732938666121"><ele>66.0</ele><time>2026-03-29T06:52:19Z</time></trkpt><trkpt lat="44.953330456923084" lon="9.90569269264887"><ele>66.0</ele><time>2026-03-29T06:52:20Z</time></trkpt><trkpt lat="44.953258450402906" lon="9.905654160023811"><ele>66.0</ele><time>2026-03-29T06:52:21Z</time></trkpt><trkpt lat="44.95318852551103" lon="9.905613432377852"><ele>66.0</ele><time>2026-03-29T06:52:22Z</time></trkpt><trkpt lat="44.95311675348708" lon="9.905570682139127"><ele>66.0</ele><time>2026-03-29T06:52:23Z</time></trkpt><trkpt lat="44.95304475386546" lon="9.905529548688163"><ele>66.0</ele><time>2026-03-29T06:52:23.999Z</time></trkpt><trkpt lat="44.95297248215451" lon="9.905488377845598"><ele>66.0</ele><time>2026-03-29T06:52:24.999Z</time></trkpt><trkpt lat="44.95290008193113" lon="9.905447389413816"><ele>66.0</ele><time>2026-03-29T06:52:25.999Z</time></trkpt><trkpt lat="44.952829059660694" lon="9.905406443899185"><ele>66.0</ele><time>2026-03-29T06:52:26.999Z</time></trkpt><trkpt lat="44.9527607104317" lon="9.905368161554716"><ele>66.0</ele><time>2026-03-29T06:52:27.999Z</time></trkpt><trkpt lat="44.95269011824345" lon="9.90532709903337"><ele>66.0</ele><time>2026-03-29T06:52:28.999Z</time></trkpt><trkpt lat="44.95262090617104" lon="9.905287961330599"><ele>66.0</ele><time>2026-03-29T06:52:29.999Z</time></trkpt><trkpt lat="44.95255157611836" lon="9.90524565510605"><ele>66.0</ele><time>2026-03-29T06:52:30.999Z</time></trkpt><trkpt lat="44.952479825127305" lon="9.905203019513122"><ele>66.0</ele><time>2026-03-29T06:52:31.999Z</time></trkpt><trkpt lat="44.952411226217556" lon="9.905158708502816"><ele>66.0</ele><time>2026-03-29T06:52:32.999Z</time></trkpt><trkpt lat="44.95234186749216" lon="9.905115985250331"><ele>65.66666666666667</ele><time>2026-03-29T06:52:33.999Z</time></trkpt><trkpt lat="44.95227466152098" lon="9.90507048380829"><ele>65.33333333333333</ele><time>2026-03-29T06:52:34.999Z</time></trkpt><trkpt lat="44.95220834934083" lon="9.905021428070915"><ele>65.0</ele><time>2026-03-29T06:52:35.999Z</time></trkpt><trkpt lat="44.95214401695855" lon="9.904964765439331"><ele>64.66666666666666</ele><time>2026-03-29T06:52:36.999Z</time></trkpt><trkpt lat="44.952082769144184" lon="9.904901223776813"><ele>64.33333333333333</ele><time>2026-03-29T06:52:37.999Z</time></trkpt><trkpt lat="44.95202368604888" lon="9.904833280478545"><ele>64.0</ele><time>2026-03-29T06:52:38.999Z</time></trkpt><trkpt lat="44.95197040276113" lon="9.904757295303124"><ele>63.99999999999999</ele><time>2026-03-29T06:52:39.999Z</time></trkpt><trkpt lat="44.951914253871" lon="9.904686734925244"><ele>64.0</ele><time>2026-03-29T06:52:40.999Z</time></trkpt><trkpt lat="44.95184254734113" lon="9.904642245735038"><ele>64.0</ele><time>2026-03-29T06:52:41.999Z</time></trkpt><trkpt lat="44.951766644398866" lon="9.904621139214559"><ele>64.0</ele><time>2026-03-29T06:52:42.999Z</time></trkpt><trkpt lat="44.951689239212236" lon="9.904614505720827"><ele>63.99999999999999</ele><time>2026-03-29T06:52:43.999Z</time></trkpt><trkpt lat="44.95161099452336" lon="9.904612240320295"><ele>64.0</ele><time>2026-03-29T06:52:44.999Z</time></trkpt><trkpt lat="44.95153348746098" lon="9.904605246402731"><ele>64.5</ele><time>2026-03-29T06:52:45.999Z</time></trkpt><trkpt lat="44.95145652231514" lon="9.904586620313932"><ele>65.0</ele><time>2026-03-29T06:52:46.999Z</time></trkpt><trkpt lat="44.95138124607159" lon="9.904559607986748"><ele>65.5</ele><time>2026-03-29T06:52:47.999Z</time></trkpt><trkpt lat="44.95130608860479" lon="9.904565141273476"><ele>66.0</ele><time>2026-03-29T06:52:48.999Z</time></trkpt><trkpt lat="44.95123599883697" lon="9.904500178068906"><ele>66.5</ele><time>2026-03-29T06:52:49.999Z</time></trkpt><trkpt lat="44.95116507493309" lon="9.904466623177658"><ele>67.0</ele><time>2026-03-29T06:52:50.999Z</time></trkpt><trkpt lat="44.951095301507635" lon="9.904429631340527"><ele>67.0</ele><time>2026-03-29T06:52:51.999Z</time></trkpt><trkpt lat="44.95102570942231" lon="9.904387320030398"><ele>67.0</ele><time>2026-03-29T06:52:52.999Z</time></trkpt><trkpt lat="44.95095556229249" lon="9.904344465851523"><ele>67.0</ele><time>2026-03-29T06:52:53.999Z</time></trkpt><trkpt lat="44.95088507931747" lon="9.904303689968678"><ele>67.0</ele><time>2026-03-29T06:52:54.999Z</time></trkpt><trkpt lat="44.95081413449371" lon="9.904261235386024"><ele>67.0</ele><time>2026-03-29T06:52:55.999Z</time></trkpt><trkpt lat="44.950742316120454" lon="9.90421928524073"><ele>67.0</ele><time>2026-03-29T06:52:56.999Z</time></trkpt><trkpt lat="44.95067373032698" lon="9.904174965930835"><ele>66.33333333333333</ele><time>2026-03-29T06:52:57.999Z</time></trkpt><trkpt lat="44.950604386778906" lon="9.904133965902265"><ele>65.66666666666666</ele><time>2026-03-29T06:52:58.999Z</time></trkpt><trkpt lat="44.9505337818286" lon="9.904091780240712"><ele>65.0</ele><time>2026-03-29T06:52:59.999Z</time></trkpt><trkpt lat="44.95046262972428" lon="9.904050043956444"><ele>64.33333333333333</ele><time>2026-03-29T06:53:00.999Z</time></trkpt><trkpt lat="44.95039271077561" lon="9.904007913108089"><ele>63.666666666666664</ele><time>2026-03-29T06:53:01.999Z</time></trkpt><trkpt lat="44.95032261330952" lon="9.903965189047277"><ele>63.0</ele><time>2026-03-29T06:53:02.999Z</time></trkpt><trkpt lat="44.95025315458093" lon="9.903922947083988"><ele>63.0</ele><time>2026-03-29T06:53:03.999Z</time></trkpt><trkpt lat="44.950184639381185" lon="9.903877448302001"><ele>63.0</ele><time>2026-03-29T06:53:04.999Z</time></trkpt><trkpt lat="44.95011522539264" lon="9.903834297053946"><ele>63.0</ele><time>2026-03-29T06:53:05.999Z</time></trkpt><trkpt lat="44.95004502628836" lon="9.903790695758557"><ele>63.0</ele><time>2026-03-29T06:53:06.999Z</time></trkpt><trkpt lat="44.949975179252895" lon="9.903748540484827"><ele>63.0</ele><time>2026-03-29T06:53:07.999Z</time></trkpt><trkpt lat="44.94990534445342" lon="9.903705809775802"><ele>63.0</ele><time>2026-03-29T06:53:08.999Z</time></trkpt><trkpt lat="44.94983724608606" lon="9.903660917040995"><ele>63.166666666666664</ele><time>2026-03-29T06:53:09.999Z</time></trkpt><trkpt lat="44.949766685856716" lon="9.903618159930678"><ele>63.33333333333333</ele><time>2026-03-29T06:53:10.999Z</time></trkpt><trkpt lat="44.94969665766295" lon="9.903574971541842"><ele>63.5</ele><time>2026-03-29T06:53:11.999Z</time></trkpt><trkpt lat="44.94962678519202" lon="9.903531944882392"><ele>63.666666666666664</ele><time>2026-03-29T06:53:12.999Z</time></trkpt><trkpt lat="44.94955741335485" lon="9.903489671877624"><ele>63.83333333333333</ele><time>2026-03-29T06:53:13.999Z</time></trkpt><trkpt lat="44.94948997072777" lon="9.90344252535631"><ele>64.0</ele><time>2026-03-29T06:53:14.999Z</time></trkpt><trkpt lat="44.94942093601468" lon="9.903399728134552"><ele>64.16666666666666</ele><time>2026-03-29T06:53:15.999Z</time></trkpt><trkpt lat="44.949351701456955" lon="9.903356609438235"><ele>64.33333333333333</ele><time>2026-03-29T06:53:16.998Z</time></trkpt><trkpt lat="44.94928206258744" lon="9.903316272777989"><ele>64.5</ele><time>2026-03-29T06:53:17.998Z</time></trkpt><trkpt lat="44.94921356744915" lon="9.903272412541675"><ele>64.66666666666667</ele><time>2026-03-29T06:53:18.998Z</time></trkpt><trkpt lat="44.94914508604919" lon="9.903229391404365"><ele>64.83333333333334</ele><time>2026-03-29T06:53:19.998Z</time></trkpt><trkpt lat="44.94907708318602" lon="9.903184406815893"><ele>65.0</ele><time>2026-03-29T06:53:20.998Z</time></trkpt><trkpt lat="44.94900776263978" lon="9.903141202173785"><ele>65.5</ele><time>2026-03-29T06:53:21.998Z</time></trkpt><trkpt lat="44.94894006660661" lon="9.903097121765295"><ele>66.0</ele><time>2026-03-29T06:53:22.998Z</time></trkpt><trkpt lat="44.94886977995256" lon="9.903051989554069"><ele>66.5</ele><time>2026-03-29T06:53:23.998Z</time></trkpt><trkpt lat="44.94880229539176" lon="9.903010153422963"><ele>67.0</ele><time>2026-03-29T06:53:24.998Z</time></trkpt><trkpt lat="44.94873330406728" lon="9.902966683718622"><ele>67.5</ele><time>2026-03-29T06:53:26Z</time></trkpt><trkpt lat="44.948663465517846" lon="9.902922674683765"><ele>68.0</ele><time>2026-03-29T06:53:27Z</time></trkpt><trkpt lat="44.94859496868204" lon="9.902877812661075"><ele>68.0</ele><time>2026-03-29T06:53:28Z</time></trkpt><trkpt lat="44.94852561928556" lon="9.902832305520663"><ele>68.0</ele><time>2026-03-29T06:53:29Z</time></trkpt><trkpt lat="44.94845738278661" lon="9.902787971126536"><ele>68.0</ele><time>2026-03-29T06:53:30Z</time></trkpt><trkpt lat="44.94838768843778" lon="9.902744520612451"><ele>68.0</ele><time>2026-03-29T06:53:31Z</time></trkpt><trkpt lat="44.94831843005516" lon="9.902700265431958"><ele>68.0</ele><time>2026-03-29T06:53:32Z</time></trkpt><trkpt lat="44.948248392421746" lon="9.902652162657692"><ele>68.0</ele><time>2026-03-29T06:53:33Z</time></trkpt><trkpt lat="44.948177873664626" lon="9.9026076566024"><ele>67.66666666666667</ele><time>2026-03-29T06:53:34Z</time></trkpt><trkpt lat="44.9481084742487" lon="9.90256382606682"><ele>67.33333333333334</ele><time>2026-03-29T06:53:35Z</time></trkpt><trkpt lat="44.9480382308219" lon="9.902520206805466"><ele>67.0</ele><time>2026-03-29T06:53:36Z</time></trkpt><trkpt lat="44.94796889649021" lon="9.9024749457587"><ele>66.66666666666667</ele><time>2026-03-29T06:53:37Z</time></trkpt><trkpt lat="44.94789881732907" lon="9.902430543618083"><ele>66.33333333333333</ele><time>2026-03-29T06:53:38Z</time></trkpt><trkpt lat="44.947826550034414" lon="9.902386909411984"><ele>66.0</ele><time>2026-03-29T06:53:39Z</time></trkpt><trkpt lat="44.947755891358426" lon="9.902343854890931"><ele>66.0</ele><time>2026-03-29T06:53:40Z</time></trkpt><trkpt lat="44.94768414875247" lon="9.902299089429338"><ele>66.0</ele><time>2026-03-29T06:53:41Z</time></trkpt><trkpt lat="44.94761343274615" lon="9.902253951220843"><ele>66.0</ele><time>2026-03-29T06:53:42Z</time></trkpt><trkpt lat="44.94754258012525" lon="9.902208887115128"><ele>66.0</ele><time>2026-03-29T06:53:43Z</time></trkpt><trkpt lat="44.94747193831585" lon="9.902164387007767"><ele>66.0</ele><time>2026-03-29T06:53:44Z</time></trkpt><trkpt lat="44.94739976459553" lon="9.902124820746334"><ele>66.0</ele><time>2026-03-29T06:53:45Z</time></trkpt><trkpt lat="44.947327680212645" lon="9.902080854268133"><ele>66.33333333333333</ele><time>2026-03-29T06:53:46Z</time></trkpt><trkpt lat="44.94725580239699" lon="9.902035258959096"><ele>66.66666666666667</ele><time>2026-03-29T06:53:47Z</time></trkpt><trkpt lat="44.94718583037511" lon="9.901990293281344"><ele>67.0</ele><time>2026-03-29T06:53:48Z</time></trkpt><trkpt lat="44.947112563719344" lon="9.901947733657668"><ele>67.33333333333334</ele><time>2026-03-29T06:53:49Z</time></trkpt><trkpt lat="44.9470385666765" lon="9.901908773864475"><ele>67.66666666666667</ele><time>2026-03-29T06:53:50Z</time></trkpt><trkpt lat="44.94696662240605" lon="9.90186578604542"><ele>68.0</ele><time>2026-03-29T06:53:51Z</time></trkpt><trkpt lat="44.94689448462795" lon="9.901812258022634"><ele>68.0</ele><time>2026-03-29T06:53:52Z</time></trkpt><trkpt lat="44.94682208886768" lon="9.901762793526759"><ele>68.0</ele><time>2026-03-29T06:53:53Z</time></trkpt><trkpt lat="44.94674838128527" lon="9.901716963971603"><ele>68.0</ele><time>2026-03-29T06:53:54Z</time></trkpt><trkpt lat="44.94667593842886" lon="9.901677289894248"><ele>68.0</ele><time>2026-03-29T06:53:55Z</time></trkpt><trkpt lat="44.94660238672823" lon="9.901635923217915"><ele>68.0</ele><time>2026-03-29T06:53:56Z</time></trkpt><trkpt lat="44.94653047332058" lon="9.901591850981433"><ele>68.0</ele><time>2026-03-29T06:53:57Z</time></trkpt><trkpt lat="44.94645891965552" lon="9.90154883987876"><ele>68.0</ele><time>2026-03-29T06:53:58Z</time></trkpt><trkpt lat="44.94638685871131" lon="9.901508826873716"><ele>68.0</ele><time>2026-03-29T06:53:59Z</time></trkpt><trkpt lat="44.94631635917251" lon="9.901467047454034"><ele>68.0</ele><time>2026-03-29T06:54:00Z</time></trkpt><trkpt lat="44.94624638545951" lon="9.901420645070608"><ele>68.0</ele><time>2026-03-29T06:54:01Z</time></trkpt><trkpt lat="44.946175191912815" lon="9.90137299500909"><ele>68.0</ele><time>2026-03-29T06:54:02Z</time></trkpt><trkpt lat="44.94610383372585" lon="9.901330771393932"><ele>68.0</ele><time>2026-03-29T06:54:03Z</time></trkpt><trkpt lat="44.946032850169736" lon="9.90128899899179"><ele>68.0</ele><time>2026-03-29T06:54:04Z</time></trkpt><trkpt lat="44.94596107214953" lon="9.901247672040887"><ele>68.0</ele><time>2026-03-29T06:54:05Z</time></trkpt><trkpt lat="44.945891323115625" lon="9.901204615848409"><ele>68.0</ele><time>2026-03-29T06:54:06Z</time></trkpt><trkpt lat="44.945819135381804" lon="9.901159828808638"><ele>68.0</ele><time>2026-03-29T06:54:07Z</time></trkpt><trkpt lat="44.94574959464217" lon="9.901119485762479"><ele>68.0</ele><time>2026-03-29T06:54:08Z</time></trkpt><trkpt lat="44.9456789511387" lon="9.90108235729896"><ele>68.0</ele><time>2026-03-29T06:54:09Z</time></trkpt><trkpt lat="44.945606670957396" lon="9.901046333123173"><ele>68.16666666666667</ele><time>2026-03-29T06:54:10Z</time></trkpt><trkpt lat="44.94553550609161" lon="9.901005590792042"><ele>68.33333333333334</ele><time>2026-03-29T06:54:11Z</time></trkpt><trkpt lat="44.94546250982876" lon="9.900962194794651"><ele>68.5</ele><time>2026-03-29T06:54:12Z</time></trkpt><trkpt lat="44.94539213761532" lon="9.90091866731647"><ele>68.66666666666667</ele><time>2026-03-29T06:54:13Z</time></trkpt><trkpt lat="44.94532020738745" lon="9.900884319881378"><ele>68.83333333333333</ele><time>2026-03-29T06:54:14Z</time></trkpt><trkpt lat="44.945247609355455" lon="9.900850341423897"><ele>69.0</ele><time>2026-03-29T06:54:15Z</time></trkpt><trkpt lat="44.945177349639415" lon="9.900809598515384"><ele>69.16666666666667</ele><time>2026-03-29T06:54:16Z</time></trkpt><trkpt lat="44.945104764531" lon="9.900768857670208"><ele>69.33333333333333</ele><time>2026-03-29T06:54:17Z</time></trkpt><trkpt lat="44.94503355228239" lon="9.900733596784221"><ele>69.5</ele><time>2026-03-29T06:54:18Z</time></trkpt><trkpt lat="44.944958834427744" lon="9.9006992244107"><ele>69.66666666666666</ele><time>2026-03-29T06:54:19Z</time></trkpt><trkpt lat="44.94488793828033" lon="9.900664444079464"><ele>69.83333333333333</ele><time>2026-03-29T06:54:20Z</time></trkpt><trkpt lat="44.944816492470075" lon="9.900629036228617"><ele>70.0</ele><time>2026-03-29T06:54:21Z</time></trkpt><trkpt lat="44.944745950317916" lon="9.90059525483858"><ele>70.0</ele><time>2026-03-29T06:54:22Z</time></trkpt><trkpt lat="44.94467703483778" lon="9.900562473058583"><ele>70.0</ele><time>2026-03-29T06:54:23Z</time></trkpt><trkpt lat="44.944607367659124" lon="9.900529624314567"><ele>70.0</ele><time>2026-03-29T06:54:24Z</time></trkpt><trkpt lat="44.94453869950878" lon="9.90049531289811"><ele>70.0</ele><time>2026-03-29T06:54:25Z</time></trkpt><trkpt lat="44.94447016335201" lon="9.900465778799623"><ele>70.0</ele><time>2026-03-29T06:54:26Z</time></trkpt><trkpt lat="44.944400490295564" lon="9.900436655398943"><ele>70.0</ele><time>2026-03-29T06:54:26.999Z</time></trkpt><trkpt lat="44.94433268325907" lon="9.900407717590086"><ele>70.0</ele><time>2026-03-29T06:54:27.999Z</time></trkpt><trkpt lat="44.94426610714839" lon="9.900377199850706"><ele>69.85714285714286</ele><time>2026-03-29T06:54:28.999Z</time></trkpt><trkpt lat="44.944200730667866" lon="9.900347548735759"><ele>69.71428571428572</ele><time>2026-03-29T06:54:29.999Z</time></trkpt><trkpt lat="44.94413430637741" lon="9.900315927011752"><ele>69.57142857142857</ele><time>2026-03-29T06:54:30.999Z</time></trkpt><trkpt lat="44.94406788310122" lon="9.900287124971221"><ele>69.42857142857143</ele><time>2026-03-29T06:54:31.999Z</time></trkpt><trkpt lat="44.94400180116738" lon="9.900258281898079"><ele>69.28571428571429</ele><time>2026-03-29T06:54:32.999Z</time></trkpt><trkpt lat="44.943937795114785" lon="9.900226447907839"><ele>69.14285714285714</ele><time>2026-03-29T06:54:33.999Z</time></trkpt><trkpt lat="44.94387189775608" lon="9.900200076909579"><ele>69.0</ele><time>2026-03-29T06:54:34.999Z</time></trkpt><trkpt lat="44.94380665460097" lon="9.90016929096187"><ele>69.0</ele><time>2026-03-29T06:54:35.999Z</time></trkpt><trkpt lat="44.94374127904743" lon="9.900139428307899"><ele>69.0</ele><time>2026-03-29T06:54:36.999Z</time></trkpt><trkpt lat="44.94367641870316" lon="9.900109338190921"><ele>69.0</ele><time>2026-03-29T06:54:37.999Z</time></trkpt><trkpt lat="44.94361271147834" lon="9.900078805042584"><ele>69.0</ele><time>2026-03-29T06:54:38.999Z</time></trkpt><trkpt lat="44.943549168748675" lon="9.900050112727197"><ele>69.0</ele><time>2026-03-29T06:54:39.999Z</time></trkpt><trkpt lat="44.94348632965007" lon="9.900020097928572"><ele>69.0</ele><time>2026-03-29T06:54:40.999Z</time></trkpt><trkpt lat="44.943421563083334" lon="9.899991497074591"><ele>69.0</ele><time>2026-03-29T06:54:41.999Z</time></trkpt><trkpt lat="44.94335779198647" lon="9.89996243821499"><ele>68.71428571428572</ele><time>2026-03-29T06:54:42.999Z</time></trkpt><trkpt lat="44.943294616034954" lon="9.899932415062494"><ele>68.42857142857143</ele><time>2026-03-29T06:54:43.999Z</time></trkpt><trkpt lat="44.94323108583012" lon="9.89990409433252"><ele>68.14285714285714</ele><time>2026-03-29T06:54:44.999Z</time></trkpt><trkpt lat="44.943168476782255" lon="9.899872629314348"><ele>67.85714285714286</ele><time>2026-03-29T06:54:45.999Z</time></trkpt><trkpt lat="44.943105584442485" lon="9.899842201525734"><ele>67.57142857142857</ele><time>2026-03-29T06:54:46.999Z</time></trkpt><trkpt lat="44.94304332074406" lon="9.89980703733325"><ele>67.28571428571429</ele><time>2026-03-29T06:54:47.999Z</time></trkpt><trkpt lat="44.942981965562176" lon="9.899772390631965"><ele>67.0</ele><time>2026-03-29T06:54:48.999Z</time></trkpt><trkpt lat="44.94292077397912" lon="9.899739908278553"><ele>67.0</ele><time>2026-03-29T06:54:49.999Z</time></trkpt><trkpt lat="44.94285982328887" lon="9.899701420841449"><ele>67.0</ele><time>2026-03-29T06:54:50.999Z</time></trkpt><trkpt lat="44.94279857898177" lon="9.899661801749463"><ele>67.0</ele><time>2026-03-29T06:54:51.999Z</time></trkpt><trkpt lat="44.94273708449293" lon="9.899616641867912"><ele>67.0</ele><time>2026-03-29T06:54:52.999Z</time></trkpt><trkpt lat="44.94267228618866" lon="9.89957504743812"><ele>67.0</ele><time>2026-03-29T06:54:53.999Z</time></trkpt><trkpt lat="44.94260986067567" lon="9.899531804736325"><ele>67.0</ele><time>2026-03-29T06:54:54.999Z</time></trkpt><trkpt lat="44.94254654699794" lon="9.899490956897742"><ele>67.0</ele><time>2026-03-29T06:54:55.999Z</time></trkpt><trkpt lat="44.942485931204665" lon="9.89944622824574"><ele>67.28571428571429</ele><time>2026-03-29T06:54:56.999Z</time></trkpt><trkpt lat="44.94242671321132" lon="9.899401475488297"><ele>67.57142857142857</ele><time>2026-03-29T06:54:57.999Z</time></trkpt><trkpt lat="44.9423693568984" lon="9.899354116349855"><ele>67.85714285714286</ele><time>2026-03-29T06:54:58.999Z</time></trkpt><trkpt lat="44.942311749456344" lon="9.899305050545461"><ele>68.14285714285714</ele><time>2026-03-29T06:54:59.999Z</time></trkpt><trkpt lat="44.94225215592717" lon="9.899255404320172"><ele>68.42857142857143</ele><time>2026-03-29T06:55:00.999Z</time></trkpt><trkpt lat="44.94219498808752" lon="9.899204362847186"><ele>68.71428571428572</ele><time>2026-03-29T06:55:01.999Z</time></trkpt><trkpt lat="44.94213711279109" lon="9.8991547087139"><ele>69.0</ele><time>2026-03-29T06:55:02.999Z</time></trkpt><trkpt lat="44.94208170080668" lon="9.89910150029713"><ele>69.28571428571429</ele><time>2026-03-29T06:55:03.999Z</time></trkpt><trkpt lat="44.94202883376228" lon="9.899046573342616"><ele>69.57142857142858</ele><time>2026-03-29T06:55:04.999Z</time></trkpt><trkpt lat="44.94197627795493" lon="9.898989231237609"><ele>69.85714285714286</ele><time>2026-03-29T06:55:05.999Z</time></trkpt><trkpt lat="44.9419222226558" lon="9.898933459571907"><ele>70.14285714285714</ele><time>2026-03-29T06:55:06.999Z</time></trkpt><trkpt lat="44.941869631621614" lon="9.898879014187212"><ele>70.42857142857142</ele><time>2026-03-29T06:55:07.999Z</time></trkpt><trkpt lat="44.941820371866115" lon="9.89882050432414"><ele>70.71428571428571</ele><time>2026-03-29T06:55:08.999Z</time></trkpt><trkpt lat="44.94177083090569" lon="9.898761398350384"><ele>71.0</ele><time>2026-03-29T06:55:09.999Z</time></trkpt><trkpt lat="44.9417212248554" lon="9.898700827798692"><ele>71.0</ele><time>2026-03-29T06:55:10.999Z</time></trkpt><trkpt lat="44.94166973149181" lon="9.898642091423884"><ele>71.0</ele><time>2026-03-29T06:55:11.999Z</time></trkpt><trkpt lat="44.94161992835964" lon="9.898581450589758"><ele>71.0</ele><time>2026-03-29T06:55:12.999Z</time></trkpt><trkpt lat="44.94157058077669" lon="9.898517495781508"><ele>71.0</ele><time>2026-03-29T06:55:13.999Z</time></trkpt><trkpt lat="44.941520805184915" lon="9.898453711942377"><ele>71.0</ele><time>2026-03-29T06:55:14.999Z</time></trkpt><trkpt lat="44.94147192233231" lon="9.898393975198204"><ele>71.0</ele><time>2026-03-29T06:55:15.999Z</time></trkpt><trkpt lat="44.94142266066712" lon="9.898336556634014"><ele>71.0</ele><time>2026-03-29T06:55:16.999Z</time></trkpt><trkpt lat="44.941373577716206" lon="9.898274554037252"><ele>71.42857142857143</ele><time>2026-03-29T06:55:17.999Z</time></trkpt><trkpt lat="44.94132411961421" lon="9.898214433265666"><ele>71.85714285714285</ele><time>2026-03-29T06:55:18.999Z</time></trkpt><trkpt lat="44.94127245253664" lon="9.898153669209494"><ele>72.28571428571428</ele><time>2026-03-29T06:55:19.998Z</time></trkpt><trkpt lat="44.94122289935837" lon="9.89809101749786"><ele>72.71428571428571</ele><time>2026-03-29T06:55:20.998Z</time></trkpt><trkpt lat="44.94117303891252" lon="9.8980283704918"><ele>73.14285714285714</ele><time>2026-03-29T06:55:21.998Z</time></trkpt><trkpt lat="44.94112321605293" lon="9.897967629503578"><ele>73.57142857142857</ele><time>2026-03-29T06:55:22.998Z</time></trkpt><trkpt lat="44.94107626809054" lon="9.897906963820985"><ele>74.0</ele><time>2026-03-29T06:55:23.998Z</time></trkpt><trkpt lat="44.94102614742002" lon="9.897844841403552"><ele>74.0</ele><time>2026-03-29T06:55:24.998Z</time></trkpt><trkpt lat="44.94097579738931" lon="9.897783077234143"><ele>74.0</ele><time>2026-03-29T06:55:25.998Z</time></trkpt><trkpt lat="44.94092694233646" lon="9.897723133934285"><ele>74.0</ele><time>2026-03-29T06:55:26.998Z</time></trkpt><trkpt lat="44.940877312544245" lon="9.897662907836486"><ele>74.0</ele><time>2026-03-29T06:55:27.998Z</time></trkpt><trkpt lat="44.940829462415635" lon="9.897601265513304"><ele>74.0</ele><time>2026-03-29T06:55:28.998Z</time></trkpt><trkpt lat="44.94078000878651" lon="9.89753925286768"><ele>74.0</ele><time>2026-03-29T06:55:29.998Z</time></trkpt><trkpt lat="44.94073032687874" lon="9.897476088173185"><ele>74.0</ele><time>2026-03-29T06:55:30.998Z</time></trkpt><trkpt lat="44.94067789150018" lon="9.897412703440095"><ele>73.71428571428572</ele><time>2026-03-29T06:55:32Z</time></trkpt><trkpt lat="44.94062712903708" lon="9.897348515851487"><ele>73.42857142857143</ele><time>2026-03-29T06:55:33Z</time></trkpt><trkpt lat="44.940574217778284" lon="9.897281958731266"><ele>73.14285714285714</ele><time>2026-03-29T06:55:34Z</time></trkpt><trkpt lat="44.94052163152738" lon="9.897214011746843"><ele>72.85714285714286</ele><time>2026-03-29T06:55:35Z</time></trkpt><trkpt lat="44.940469381437744" lon="9.897145207221707"><ele>72.57142857142857</ele><time>2026-03-29T06:55:36Z</time></trkpt><trkpt lat="44.940416883212606" lon="9.89707908945414"><ele>72.28571428571429</ele><time>2026-03-29T06:55:37Z</time></trkpt><trkpt lat="44.94036215398437" lon="9.897013844396797"><ele>72.0</ele><time>2026-03-29T06:55:38Z</time></trkpt><trkpt lat="44.94030749259043" lon="9.896949465363635"><ele>72.00000000000001</ele><time>2026-03-29T06:55:39Z</time></trkpt><trkpt lat="44.94025437408606" lon="9.89688186640935"><ele>72.0</ele><time>2026-03-29T06:55:40Z</time></trkpt><trkpt lat="44.94020102609962" lon="9.8968141878538"><ele>72.0</ele><time>2026-03-29T06:55:41Z</time></trkpt><trkpt lat="44.94015023346664" lon="9.896747960499575"><ele>72.0</ele><time>2026-03-29T06:55:42Z</time></trkpt><trkpt lat="44.94009717307936" lon="9.896682515122528"><ele>72.0</ele><time>2026-03-29T06:55:43Z</time></trkpt><trkpt lat="44.94004368055524" lon="9.896615023078581"><ele>72.00000000000001</ele><time>2026-03-29T06:55:44Z</time></trkpt><trkpt lat="44.93998994449133" lon="9.896543347861117"><ele>72.0</ele><time>2026-03-29T06:55:45Z</time></trkpt><trkpt lat="44.9399358036145" lon="9.896476649581638"><ele>72.14285714285715</ele><time>2026-03-29T06:55:46Z</time></trkpt><trkpt lat="44.93988159983756" lon="9.896409390412686"><ele>72.28571428571429</ele><time>2026-03-29T06:55:47Z</time></trkpt><trkpt lat="44.93982763386765" lon="9.896340534073495"><ele>72.42857142857143</ele><time>2026-03-29T06:55:48Z</time></trkpt><trkpt lat="44.93977140973631" lon="9.896272039724382"><ele>72.57142857142858</ele><time>2026-03-29T06:55:49Z</time></trkpt><trkpt lat="44.939715876567014" lon="9.896202440139342"><ele>72.71428571428572</ele><time>2026-03-29T06:55:50Z</time></trkpt><trkpt lat="44.93965971561212" lon="9.896132104554049"><ele>72.85714285714286</ele><time>2026-03-29T06:55:51Z</time></trkpt><trkpt lat="44.939603569011254" lon="9.896065304388083"><ele>73.0</ele><time>2026-03-29T06:55:52Z</time></trkpt><trkpt lat="44.93954643697036" lon="9.895996686689"><ele>73.0</ele><time>2026-03-29T06:55:53Z</time></trkpt><trkpt lat="44.939491035202124" lon="9.895926807708273"><ele>73.0</ele><time>2026-03-29T06:55:54Z</time></trkpt><trkpt lat="44.939433530889055" lon="9.895854789317177"><ele>73.0</ele><time>2026-03-29T06:55:55Z</time></trkpt><trkpt lat="44.93937475597393" lon="9.895782820088872"><ele>73.0</ele><time>2026-03-29T06:55:56Z</time></trkpt><trkpt lat="44.93931718405127" lon="9.8957121393073"><ele>73.0</ele><time>2026-03-29T06:55:57Z</time></trkpt><trkpt lat="44.93926009135698" lon="9.895640657869857"><ele>73.0</ele><time>2026-03-29T06:55:58Z</time></trkpt><trkpt lat="44.93920271738303" lon="9.895571185646753"><ele>73.0</ele><time>2026-03-29T06:55:59Z</time></trkpt><trkpt lat="44.93914247018668" lon="9.89550149961956"><ele>73.0</ele><time>2026-03-29T06:56:00Z</time></trkpt><trkpt lat="44.93908475537234" lon="9.895432595402054"><ele>73.0</ele><time>2026-03-29T06:56:01Z</time></trkpt><trkpt lat="44.93902586596938" lon="9.895364600255126"><ele>73.0</ele><time>2026-03-29T06:56:02Z</time></trkpt><trkpt lat="44.9389676836376" lon="9.895297085888041"><ele>73.0</ele><time>2026-03-29T06:56:03Z</time></trkpt><trkpt lat="44.938909158422796" lon="9.895230518384801"><ele>73.0</ele><time>2026-03-29T06:56:04Z</time></trkpt><trkpt lat="44.938853305456625" lon="9.895162615644438"><ele>73.0</ele><time>2026-03-29T06:56:05Z</time></trkpt><trkpt lat="44.93879522717615" lon="9.895094494605837"><ele>73.0</ele><time>2026-03-29T06:56:06Z</time></trkpt><trkpt lat="44.938737095254986" lon="9.89502674697645"><ele>73.0</ele><time>2026-03-29T06:56:07Z</time></trkpt><trkpt lat="44.93867825572324" lon="9.894961754278008"><ele>73.0</ele><time>2026-03-29T06:56:08Z</time></trkpt><trkpt lat="44.938619340241296" lon="9.894896057965509"><ele>73.0</ele><time>2026-03-29T06:56:09Z</time></trkpt><trkpt lat="44.93855992228081" lon="9.894830234639993"><ele>73.0</ele><time>2026-03-29T06:56:10Z</time></trkpt><trkpt lat="44.9385012461818" lon="9.894763188767802"><ele>72.83333333333333</ele><time>2026-03-29T06:56:11Z</time></trkpt><trkpt lat="44.93844165766708" lon="9.894699072374909"><ele>72.66666666666666</ele><time>2026-03-29T06:56:12Z</time></trkpt><trkpt lat="44.93838368115973" lon="9.894632451971024"><ele>72.5</ele><time>2026-03-29T06:56:13Z</time></trkpt><trkpt lat="44.93832494705467" lon="9.89456397436296"><ele>72.33333333333333</ele><time>2026-03-29T06:56:14Z</time></trkpt><trkpt lat="44.93826432297387" lon="9.894494253897557"><ele>72.16666666666667</ele><time>2026-03-29T06:56:15Z</time></trkpt><trkpt lat="44.93820315842885" lon="9.89442880591844"><ele>72.0</ele><time>2026-03-29T06:56:16Z</time></trkpt><trkpt lat="44.93814272977278" lon="9.894358620453756"><ele>72.33333333333333</ele><time>2026-03-29T06:56:17Z</time></trkpt><trkpt lat="44.938082439587276" lon="9.894282236567904"><ele>72.66666666666667</ele><time>2026-03-29T06:56:18Z</time></trkpt><trkpt lat="44.93801891781243" lon="9.894211588917162"><ele>73.0</ele><time>2026-03-29T06:56:19Z</time></trkpt><trkpt lat="44.937954508618674" lon="9.894142737106787"><ele>73.33333333333334</ele><time>2026-03-29T06:56:20Z</time></trkpt><trkpt lat="44.93788921443674" lon="9.89407767755375"><ele>73.66666666666667</ele><time>2026-03-29T06:56:21Z</time></trkpt><trkpt lat="44.937821908561325" lon="9.894010480910246"><ele>74.0</ele><time>2026-03-29T06:56:22Z</time></trkpt><trkpt lat="44.93775654421138" lon="9.893949491776723"><ele>74.16666666666667</ele><time>2026-03-29T06:56:23Z</time></trkpt><trkpt lat="44.93768853023844" lon="9.893889809696224"><ele>74.33333333333334</ele><time>2026-03-29T06:56:24Z</time></trkpt><trkpt lat="44.937618165157346" lon="9.893830889410667"><ele>74.5</ele><time>2026-03-29T06:56:25Z</time></trkpt><trkpt lat="44.937546763280835" lon="9.893776176804929"><ele>74.66666666666667</ele><time>2026-03-29T06:56:26Z</time></trkpt><trkpt lat="44.93747361461678" lon="9.893721859739737"><ele>74.83333333333333</ele><time>2026-03-29T06:56:27Z</time></trkpt><trkpt lat="44.937400734898276" lon="9.893672421999502"><ele>75.0</ele><time>2026-03-29T06:56:28Z</time></trkpt><trkpt lat="44.93732495941781" lon="9.893626462731179"><ele>75.0</ele><time>2026-03-29T06:56:29Z</time></trkpt><trkpt lat="44.937249138848514" lon="9.893580228501525"><ele>75.0</ele><time>2026-03-29T06:56:30Z</time></trkpt><trkpt lat="44.93717352367146" lon="9.893534533217263"><ele>75.0</ele><time>2026-03-29T06:56:31Z</time></trkpt><trkpt lat="44.93709735050262" lon="9.89349021299315"><ele>75.0</ele><time>2026-03-29T06:56:31.999Z</time></trkpt><trkpt lat="44.937020555591445" lon="9.893448051484242"><ele>75.0</ele><time>2026-03-29T06:56:32.999Z</time></trkpt><trkpt lat="44.93694380161874" lon="9.89340607324627"><ele>75.0</ele><time>2026-03-29T06:56:33.999Z</time></trkpt><trkpt lat="44.93686666926914" lon="9.893361197632425"><ele>75.0</ele><time>2026-03-29T06:56:34.999Z</time></trkpt><trkpt lat="44.93679165616054" lon="9.89331583553111"><ele>75.0</ele><time>2026-03-29T06:56:35.999Z</time></trkpt><trkpt lat="44.93671675982303" lon="9.893266968737356"><ele>75.0</ele><time>2026-03-29T06:56:36.999Z</time></trkpt><trkpt lat="44.93664128338088" lon="9.89321909170168"><ele>75.0</ele><time>2026-03-29T06:56:37.999Z</time></trkpt><trkpt lat="44.93656677612551" lon="9.89317303135806"><ele>75.0</ele><time>2026-03-29T06:56:38.999Z</time></trkpt><trkpt lat="44.936493930839696" lon="9.893125851258942"><ele>75.0</ele><time>2026-03-29T06:56:39.999Z</time></trkpt><trkpt lat="44.93642114599204" lon="9.893079862555002"><ele>75.0</ele><time>2026-03-29T06:56:40.999Z</time></trkpt><trkpt lat="44.93634790095642" lon="9.893033997161945"><ele>75.0</ele><time>2026-03-29T06:56:41.999Z</time></trkpt><trkpt lat="44.93627402224798" lon="9.892987282481268"><ele>75.0</ele><time>2026-03-29T06:56:42.999Z</time></trkpt><trkpt lat="44.93619811094237" lon="9.89293847996056"><ele>75.0</ele><time>2026-03-29T06:56:43.999Z</time></trkpt><trkpt lat="44.93612501965434" lon="9.892889356267265"><ele>75.0</ele><time>2026-03-29T06:56:44.999Z</time></trkpt><trkpt lat="44.93605041953694" lon="9.892839580853636"><ele>75.0</ele><time>2026-03-29T06:56:45.999Z</time></trkpt><trkpt lat="44.935977987523465" lon="9.892788668231344"><ele>75.0</ele><time>2026-03-29T06:56:46.999Z</time></trkpt><trkpt lat="44.93590396252654" lon="9.892741049973836"><ele>75.0</ele><time>2026-03-29T06:56:47.999Z</time></trkpt><trkpt lat="44.93583101298276" lon="9.892693505135403"><ele>75.0</ele><time>2026-03-29T06:56:48.999Z</time></trkpt><trkpt lat="44.93575952015805" lon="9.892645951609937"><ele>75.0</ele><time>2026-03-29T06:56:49.999Z</time></trkpt><trkpt lat="44.9356873941517" lon="9.892600995065672"><ele>75.0</ele><time>2026-03-29T06:56:50.999Z</time></trkpt><trkpt lat="44.93561482587381" lon="9.892558968386982"><ele>75.0</ele><time>2026-03-29T06:56:51.999Z</time></trkpt><trkpt lat="44.93554506529252" lon="9.892514838763384"><ele>75.0</ele><time>2026-03-29T06:56:52.999Z</time></trkpt><trkpt lat="44.93547475254374" lon="9.892468857903994"><ele>75.0</ele><time>2026-03-29T06:56:53.999Z</time></trkpt><trkpt lat="44.93540674257239" lon="9.892423910933253"><ele>75.0</ele><time>2026-03-29T06:56:54.999Z</time></trkpt><trkpt lat="44.93533787809581" lon="9.89237880665563"><ele>75.0</ele><time>2026-03-29T06:56:55.999Z</time></trkpt><trkpt lat="44.93526901371483" lon="9.892333413465114"><ele>75.0</ele><time>2026-03-29T06:56:56.999Z</time></trkpt><trkpt lat="44.93520091364099" lon="9.892289094658768"><ele>75.0</ele><time>2026-03-29T06:56:57.999Z</time></trkpt><trkpt lat="44.93513275265054" lon="9.892243078997405"><ele>75.0</ele><time>2026-03-29T06:56:58.999Z</time></trkpt><trkpt lat="44.9350648858325" lon="9.892197907356426"><ele>75.0</ele><time>2026-03-29T06:56:59.999Z</time></trkpt><trkpt lat="44.934997297596844" lon="9.892150912133573"><ele>75.0</ele><time>2026-03-29T06:57:00.999Z</time></trkpt><trkpt lat="44.93492819060339" lon="9.892107362596988"><ele>75.0</ele><time>2026-03-29T06:57:01.999Z</time></trkpt><trkpt lat="44.9348597846635" lon="9.892060645291975"><ele>75.0</ele><time>2026-03-29T06:57:02.999Z</time></trkpt><trkpt lat="44.934791124200515" lon="9.892013724141119"><ele>75.0</ele><time>2026-03-29T06:57:03.999Z</time></trkpt><trkpt lat="44.9347241720173" lon="9.891966955230158"><ele>75.14285714285714</ele><time>2026-03-29T06:57:04.999Z</time></trkpt><trkpt lat="44.93465434429265" lon="9.891921823757027"><ele>75.28571428571428</ele><time>2026-03-29T06:57:05.999Z</time></trkpt><trkpt lat="44.93458563563743" lon="9.891877098353234"><ele>75.42857142857142</ele><time>2026-03-29T06:57:06.999Z</time></trkpt><trkpt lat="44.93451896201173" lon="9.891832583978236"><ele>75.57142857142857</ele><time>2026-03-29T06:57:07.999Z</time></trkpt><trkpt lat="44.93445176451306" lon="9.891787176819516"><ele>75.71428571428572</ele><time>2026-03-29T06:57:08.999Z</time></trkpt><trkpt lat="44.93438430190298" lon="9.891741116105818"><ele>75.85714285714285</ele><time>2026-03-29T06:57:09.999Z</time></trkpt><trkpt lat="44.934320348679705" lon="9.89169620058887"><ele>76.0</ele><time>2026-03-29T06:57:10.999Z</time></trkpt><trkpt lat="44.93425394994734" lon="9.891653277381147"><ele>76.66666666666666</ele><time>2026-03-29T06:57:11.999Z</time></trkpt><trkpt lat="44.93418741698052" lon="9.891606238023286"><ele>77.33333333333333</ele><time>2026-03-29T06:57:12.999Z</time></trkpt><trkpt lat="44.934119511674446" lon="9.891558910241077"><ele>78.0</ele><time>2026-03-29T06:57:13.999Z</time></trkpt><trkpt lat="44.93404948097239" lon="9.89151366487902"><ele>78.66666666666667</ele><time>2026-03-29T06:57:14.999Z</time></trkpt><trkpt lat="44.933980336331324" lon="9.891470091234957"><ele>79.33333333333334</ele><time>2026-03-29T06:57:15.999Z</time></trkpt><trkpt lat="44.93391212928803" lon="9.891423678671309"><ele>80.0</ele><time>2026-03-29T06:57:16.999Z</time></trkpt><trkpt lat="44.93384333117256" lon="9.891377732693297"><ele>80.0</ele><time>2026-03-29T06:57:17.999Z</time></trkpt><trkpt lat="44.93377659353692" lon="9.891331710197315"><ele>80.0</ele><time>2026-03-29T06:57:18.999Z</time></trkpt><trkpt lat="44.93370732970756" lon="9.891286032981672"><ele>80.0</ele><time>2026-03-29T06:57:19.999Z</time></trkpt><trkpt lat="44.93363789300741" lon="9.89124369701379"><ele>80.0</ele><time>2026-03-29T06:57:20.999Z</time></trkpt><trkpt lat="44.93356914848545" lon="9.891196543153477"><ele>80.0</ele><time>2026-03-29T06:57:21.999Z</time></trkpt><trkpt lat="44.93350088274904" lon="9.891146999085592"><ele>80.0</ele><time>2026-03-29T06:57:22.999Z</time></trkpt><trkpt lat="44.93343163078911" lon="9.891101418217097"><ele>79.5</ele><time>2026-03-29T06:57:23.999Z</time></trkpt><trkpt lat="44.9333620287237" lon="9.8910573678189"><ele>79.0</ele><time>2026-03-29T06:57:24.998Z</time></trkpt><trkpt lat="44.93329276320117" lon="9.891011431099678"><ele>78.5</ele><time>2026-03-29T06:57:25.998Z</time></trkpt><trkpt lat="44.93322328698578" lon="9.890964671384294"><ele>78.0</ele><time>2026-03-29T06:57:26.998Z</time></trkpt><trkpt lat="44.93315430726866" lon="9.890916645863225"><ele>77.5</ele><time>2026-03-29T06:57:27.998Z</time></trkpt><trkpt lat="44.93308493560053" lon="9.89087013532127"><ele>77.0</ele><time>2026-03-29T06:57:28.998Z</time></trkpt><trkpt lat="44.93301608917515" lon="9.890822055428629"><ele>78.16666666666667</ele><time>2026-03-29T06:57:29.998Z</time></trkpt><trkpt lat="44.93294713998842" lon="9.890774518068614"><ele>79.33333333333334</ele><time>2026-03-29T06:57:30.998Z</time></trkpt><trkpt lat="44.932879735854605" lon="9.890727648828776"><ele>80.5</ele><time>2026-03-29T06:57:31.998Z</time></trkpt><trkpt lat="44.93281031486129" lon="9.8906812999179"><ele>81.66666666666667</ele><time>2026-03-29T06:57:32.998Z</time></trkpt><trkpt lat="44.932742438825294" lon="9.890635696644484"><ele>82.83333333333333</ele><time>2026-03-29T06:57:33.998Z</time></trkpt><trkpt lat="44.932672634269544" lon="9.890591092907291"><ele>84.0</ele><time>2026-03-29T06:57:34.998Z</time></trkpt><trkpt lat="44.932603075512645" lon="9.890546383454653"><ele>83.33333333333333</ele><time>2026-03-29T06:57:35.998Z</time></trkpt><trkpt lat="44.93253454288715" lon="9.890500575061715"><ele>82.66666666666667</ele><time>2026-03-29T06:57:36.998Z</time></trkpt><trkpt lat="44.932466140152336" lon="9.89045228779884"><ele>82.0</ele><time>2026-03-29T06:57:38Z</time></trkpt><trkpt lat="44.932396781513134" lon="9.890402957898125"><ele>81.33333333333334</ele><time>2026-03-29T06:57:39Z</time></trkpt><trkpt lat="44.93232754013435" lon="9.890353673339517"><ele>80.66666666666667</ele><time>2026-03-29T06:57:40Z</time></trkpt><trkpt lat="44.93225785793667" lon="9.890305206317503"><ele>80.0</ele><time>2026-03-29T06:57:41Z</time></trkpt><trkpt lat="44.93218743355768" lon="9.890258478732717"><ele>80.0</ele><time>2026-03-29T06:57:42Z</time></trkpt><trkpt lat="44.93211844823197" lon="9.890211392438628"><ele>80.0</ele><time>2026-03-29T06:57:43Z</time></trkpt><trkpt lat="44.932048675894535" lon="9.89016432138641"><ele>80.0</ele><time>2026-03-29T06:57:44Z</time></trkpt><trkpt lat="44.93197883476088" lon="9.890119269785904"><ele>80.0</ele><time>2026-03-29T06:57:45Z</time></trkpt><trkpt lat="44.93191050940014" lon="9.890072313920953"><ele>80.0</ele><time>2026-03-29T06:57:46Z</time></trkpt><trkpt lat="44.93184006203106" lon="9.890023573521407"><ele>80.0</ele><time>2026-03-29T06:57:47Z</time></trkpt><trkpt lat="44.93177082013018" lon="9.889976245038296"><ele>80.16666666666667</ele><time>2026-03-29T06:57:48Z</time></trkpt><trkpt lat="44.931701103947965" lon="9.88992752178805"><ele>80.33333333333334</ele><time>2026-03-29T06:57:49Z</time></trkpt><trkpt lat="44.93163289977229" lon="9.88988175831786"><ele>80.5</ele><time>2026-03-29T06:57:50Z</time></trkpt><trkpt lat="44.93156216856511" lon="9.889834318204313"><ele>80.66666666666667</ele><time>2026-03-29T06:57:51Z</time></trkpt><trkpt lat="44.931493481799585" lon="9.88978668069761"><ele>80.83333333333333</ele><time>2026-03-29T06:57:52Z</time></trkpt><trkpt lat="44.93142494954902" lon="9.88973667492863"><ele>81.0</ele><time>2026-03-29T06:57:53Z</time></trkpt><trkpt lat="44.931353620197264" lon="9.889690623328697"><ele>81.0</ele><time>2026-03-29T06:57:54Z</time></trkpt><trkpt lat="44.93128366837905" lon="9.889644556150941"><ele>81.0</ele><time>2026-03-29T06:57:55Z</time></trkpt><trkpt lat="44.9312139377104" lon="9.88959534947798"><ele>81.0</ele><time>2026-03-29T06:57:56Z</time></trkpt><trkpt lat="44.931145068853766" lon="9.889547690559635"><ele>81.0</ele><time>2026-03-29T06:57:57Z</time></trkpt><trkpt lat="44.93107470341724" lon="9.889502642083908"><ele>81.0</ele><time>2026-03-29T06:57:58Z</time></trkpt><trkpt lat="44.93100533960571" lon="9.889459529584277"><ele>81.0</ele><time>2026-03-29T06:57:59Z</time></trkpt><trkpt lat="44.930936894697425" lon="9.88941200077872"><ele>81.0</ele><time>2026-03-29T06:58:00Z</time></trkpt><trkpt lat="44.93086725812623" lon="9.889366526194701"><ele>81.0</ele><time>2026-03-29T06:58:01Z</time></trkpt><trkpt lat="44.93080034895379" lon="9.889321691171869"><ele>81.0</ele><time>2026-03-29T06:58:02Z</time></trkpt><trkpt lat="44.9307311478061" lon="9.889275480325924"><ele>81.0</ele><time>2026-03-29T06:58:03Z</time></trkpt><trkpt lat="44.93066245876884" lon="9.889228470203413"><ele>81.0</ele><time>2026-03-29T06:58:04Z</time></trkpt><trkpt lat="44.93059563473531" lon="9.88918466767376"><ele>81.0</ele><time>2026-03-29T06:58:05Z</time></trkpt><trkpt lat="44.93052798571324" lon="9.889137894916365"><ele>81.0</ele><time>2026-03-29T06:58:06Z</time></trkpt><trkpt lat="44.93046100620915" lon="9.889093711343898"><ele>81.0</ele><time>2026-03-29T06:58:07Z</time></trkpt><trkpt lat="44.93039325554935" lon="9.88904897954701"><ele>81.0</ele><time>2026-03-29T06:58:08Z</time></trkpt><trkpt lat="44.930324088885875" lon="9.889006221782667"><ele>81.0</ele><time>2026-03-29T06:58:09Z</time></trkpt><trkpt lat="44.930257631030734" lon="9.88895875498824"><ele>81.0</ele><time>2026-03-29T06:58:10Z</time></trkpt><trkpt lat="44.93018913649665" lon="9.88891195660646"><ele>81.0</ele><time>2026-03-29T06:58:11Z</time></trkpt><trkpt lat="44.9301222776748" lon="9.888867031958647"><ele>81.0</ele><time>2026-03-29T06:58:12Z</time></trkpt><trkpt lat="44.93005559321648" lon="9.888821189258078"><ele>81.0</ele><time>2026-03-29T06:58:13Z</time></trkpt><trkpt lat="44.929988601485874" lon="9.888775260382939"><ele>81.0</ele><time>2026-03-29T06:58:14Z</time></trkpt><trkpt lat="44.92992099778614" lon="9.888732439605658"><ele>81.0</ele><time>2026-03-29T06:58:15Z</time></trkpt><trkpt lat="44.92985355000636" lon="9.888685322348888"><ele>81.0</ele><time>2026-03-29T06:58:16Z</time></trkpt><trkpt lat="44.92978736836397" lon="9.888642320420622"><ele>81.0</ele><time>2026-03-29T06:58:17Z</time></trkpt><trkpt lat="44.92972135593677" lon="9.888596653091925"><ele>81.0</ele><time>2026-03-29T06:58:18Z</time></trkpt><trkpt lat="44.92965706811267" lon="9.888552828631731"><ele>81.0</ele><time>2026-03-29T06:58:19Z</time></trkpt><trkpt lat="44.929592805032726" lon="9.88851085095386"><ele>81.0</ele><time>2026-03-29T06:58:20Z</time></trkpt><trkpt lat="44.929529477179166" lon="9.88847004324266"><ele>81.0</ele><time>2026-03-29T06:58:21Z</time></trkpt><trkpt lat="44.92946512914679" lon="9.888426898649573"><ele>81.0</ele><time>2026-03-29T06:58:22Z</time></trkpt><trkpt lat="44.929404984307574" lon="9.888381174385675"><ele>81.0</ele><time>2026-03-29T06:58:23Z</time></trkpt><trkpt lat="44.92934285260956" lon="9.888334445561394"><ele>81.0</ele><time>2026-03-29T06:58:24Z</time></trkpt><trkpt lat="44.929279609364876" lon="9.88829172888823"><ele>81.0</ele><time>2026-03-29T06:58:25Z</time></trkpt><trkpt lat="44.92921937405373" lon="9.888246581732353"><ele>81.0</ele><time>2026-03-29T06:58:26Z</time></trkpt><trkpt lat="44.9291602487829" lon="9.888189790724509"><ele>81.28571428571429</ele><time>2026-03-29T06:58:27Z</time></trkpt><trkpt lat="44.92910606831937" lon="9.888127076104242"><ele>81.57142857142857</ele><time>2026-03-29T06:58:28Z</time></trkpt><trkpt lat="44.92905369680872" lon="9.888063749797455"><ele>81.85714285714286</ele><time>2026-03-29T06:58:29Z</time></trkpt><trkpt lat="44.928996799267736" lon="9.88800149271112"><ele>82.14285714285714</ele><time>2026-03-29T06:58:30Z</time></trkpt><trkpt lat="44.9289403935507" lon="9.887939985038763"><ele>82.42857142857143</ele><time>2026-03-29T06:58:31Z</time></trkpt><trkpt lat="44.92888179318432" lon="9.887878921432778"><ele>82.71428571428571</ele><time>2026-03-29T06:58:32Z</time></trkpt><trkpt lat="44.92882031333346" lon="9.887813596450833"><ele>83.0</ele><time>2026-03-29T06:58:33Z</time></trkpt><trkpt lat="44.92875675019594" lon="9.887744270491057"><ele>83.0</ele><time>2026-03-29T06:58:34Z</time></trkpt><trkpt lat="44.928691154668094" lon="9.887674803079662"><ele>83.0</ele><time>2026-03-29T06:58:35Z</time></trkpt><trkpt lat="44.92862269244322" lon="9.887603327180958"><ele>83.0</ele><time>2026-03-29T06:58:35.999Z</time></trkpt><trkpt lat="44.92855387144588" lon="9.887530263559919"><ele>83.0</ele><time>2026-03-29T06:58:36.999Z</time></trkpt><trkpt lat="44.928483759538196" lon="9.887457435470985"><ele>83.0</ele><time>2026-03-29T06:58:37.999Z</time></trkpt><trkpt lat="44.9284103809253" lon="9.887381064998063"><ele>83.0</ele><time>2026-03-29T06:58:38.999Z</time></trkpt><trkpt lat="44.928336204009064" lon="9.88730694600253"><ele>82.80000000000001</ele><time>2026-03-29T06:58:39.999Z</time></trkpt><trkpt lat="44.928255174175355" lon="9.887233613542943"><ele>82.6</ele><time>2026-03-29T06:58:40.999Z</time></trkpt><trkpt lat="44.92816969649264" lon="9.887168175159436"><ele>82.4</ele><time>2026-03-29T06:58:41.999Z</time></trkpt><trkpt lat="44.92808491936116" lon="9.88711042065432"><ele>82.19999999999999</ele><time>2026-03-29T06:58:42.999Z</time></trkpt><trkpt lat="44.928002169301124" lon="9.887056452996175"><ele>82.0</ele><time>2026-03-29T06:58:43.999Z</time></trkpt><trkpt lat="44.92792194742894" lon="9.887001583327304"><ele>82.0</ele><time>2026-03-29T06:58:44.999Z</time></trkpt><trkpt lat="44.92784846060375" lon="9.886953916783606"><ele>82.0</ele><time>2026-03-29T06:58:45.999Z</time></trkpt><trkpt lat="44.92777629293855" lon="9.886906478093803"><ele>82.0</ele><time>2026-03-29T06:58:46.999Z</time></trkpt><trkpt lat="44.92770410470167" lon="9.886893817069357"><ele>82.0</ele><time>2026-03-29T06:58:47.999Z</time></trkpt><trkpt lat="44.927646851108996" lon="9.886821665412983"><ele>82.0</ele><time>2026-03-29T06:58:48.999Z</time></trkpt><trkpt lat="44.92758886987606" lon="9.886902982709309"><ele>82.0</ele><time>2026-03-29T06:58:49.999Z</time></trkpt><trkpt lat="44.92753277908076" lon="9.886753745127091"><ele>82.0</ele><time>2026-03-29T06:58:50.999Z</time></trkpt><trkpt lat="44.92743201367502" lon="9.886706330562104"><ele>82.0</ele><time>2026-03-29T06:58:52.999Z</time></trkpt><trkpt lat="44.92734322321238" lon="9.886665860474974"><ele>82.0</ele><time>2026-03-29T06:58:54.999Z</time></trkpt><trkpt lat="44.92725994991479" lon="9.886642213262867"><ele>82.0</ele><time>2026-03-29T06:58:56.999Z</time></trkpt><trkpt lat="44.92718632422573" lon="9.886651750426738"><ele>82.0</ele><time>2026-03-29T07:00:18Z</time></trkpt><trkpt lat="44.92711408762641" lon="9.886646346882248"><ele>82.0</ele><time>2026-03-29T07:00:21Z</time></trkpt><trkpt lat="44.92701808585081" lon="9.88662600811972"><ele>82.0</ele><time>2026-03-29T07:00:24Z</time></trkpt><trkpt lat="44.926943855170116" lon="9.886615004497282"><ele>82.0</ele><time>2026-03-29T07:00:26Z</time></trkpt><trkpt lat="44.92686770345589" lon="9.886605064356184"><ele>82.0</ele><time>2026-03-29T07:00:28Z</time></trkpt><trkpt lat="44.92678166014034" lon="9.886599014115866"><ele>82.0</ele><time>2026-03-29T07:00:30Z</time></trkpt><trkpt lat="44.92668967272084" lon="9.886595096830968"><ele>82.0</ele><time>2026-03-29T07:00:32Z</time></trkpt><trkpt lat="44.92658232285201" lon="9.886578913101053"><ele>82.0</ele><time>2026-03-29T07:00:34Z</time></trkpt><trkpt lat="44.92645611396332" lon="9.886577976513559"><ele>82.42857142857142</ele><time>2026-03-29T07:00:36Z</time></trkpt><trkpt lat="44.92638865453763" lon="9.886577058639032"><ele>82.85714285714286</ele><time>2026-03-29T07:00:37Z</time></trkpt><trkpt lat="44.92631353955636" lon="9.886573430055172"><ele>83.28571428571428</ele><time>2026-03-29T07:00:38Z</time></trkpt><trkpt lat="44.926237253838245" lon="9.886568259340349"><ele>83.71428571428571</ele><time>2026-03-29T07:00:39Z</time></trkpt><trkpt lat="44.92616065634341" lon="9.886564234526212"><ele>84.14285714285714</ele><time>2026-03-29T07:00:39.999Z</time></trkpt><trkpt lat="44.926083656366" lon="9.886562545901077"><ele>84.57142857142857</ele><time>2026-03-29T07:00:40.999Z</time></trkpt><trkpt lat="44.92600933249136" lon="9.886557412512987"><ele>85.0</ele><time>2026-03-29T07:00:41.999Z</time></trkpt><trkpt lat="44.9259360825619" lon="9.886552534157717"><ele>85.16666666666666</ele><time>2026-03-29T07:00:42.999Z</time></trkpt><trkpt lat="44.925861309833486" lon="9.886548642000092"><ele>85.33333333333333</ele><time>2026-03-29T07:00:43.999Z</time></trkpt><trkpt lat="44.9257860775145" lon="9.886546541001502"><ele>85.5</ele><time>2026-03-29T07:00:44.999Z</time></trkpt><trkpt lat="44.925709322144975" lon="9.886547267880779"><ele>85.66666666666667</ele><time>2026-03-29T07:00:45.999Z</time></trkpt><trkpt lat="44.92563084959222" lon="9.886541063503273"><ele>85.83333333333334</ele><time>2026-03-29T07:00:46.999Z</time></trkpt><trkpt lat="44.925552325440755" lon="9.886538035275333"><ele>86.0</ele><time>2026-03-29T07:00:47.999Z</time></trkpt><trkpt lat="44.92547435164532" lon="9.886532332530374"><ele>86.0</ele><time>2026-03-29T07:00:48.999Z</time></trkpt><trkpt lat="44.92539640701641" lon="9.886528047955784"><ele>86.0</ele><time>2026-03-29T07:00:49.999Z</time></trkpt><trkpt lat="44.925316433259994" lon="9.88652478892434"><ele>86.0</ele><time>2026-03-29T07:00:50.999Z</time></trkpt><trkpt lat="44.925235592198156" lon="9.886523164305228"><ele>86.0</ele><time>2026-03-29T07:00:51.999Z</time></trkpt><trkpt lat="44.92515527589398" lon="9.8865216275135"><ele>86.0</ele><time>2026-03-29T07:00:52.999Z</time></trkpt><trkpt lat="44.925074544203" lon="9.886516038176792"><ele>86.0</ele><time>2026-03-29T07:00:53.999Z</time></trkpt><trkpt lat="44.9249946347079" lon="9.886511511991806"><ele>86.0</ele><time>2026-03-29T07:00:54.999Z</time></trkpt><trkpt lat="44.92491561169799" lon="9.88650536468649"><ele>86.0</ele><time>2026-03-29T07:00:55.999Z</time></trkpt><trkpt lat="44.92483392844734" lon="9.886500318950583"><ele>86.0</ele><time>2026-03-29T07:00:56.999Z</time></trkpt><trkpt lat="44.924751781232246" lon="9.886496493191416"><ele>86.0</ele><time>2026-03-29T07:00:57.999Z</time></trkpt><trkpt lat="44.92467008840486" lon="9.88649257712892"><ele>86.0</ele><time>2026-03-29T07:00:58.999Z</time></trkpt><trkpt lat="44.92458877612033" lon="9.886483921442396"><ele>86.0</ele><time>2026-03-29T07:00:59.999Z</time></trkpt><trkpt lat="44.924507556532475" lon="9.886473742720725"><ele>86.0</ele><time>2026-03-29T07:01:00.999Z</time></trkpt><trkpt lat="44.92442623680659" lon="9.886463933209953"><ele>86.0</ele><time>2026-03-29T07:01:01.999Z</time></trkpt><trkpt lat="44.9243451864393" lon="9.886456601982724"><ele>86.0</ele><time>2026-03-29T07:01:02.999Z</time></trkpt><trkpt lat="44.924266228684814" lon="9.886442678856993"><ele>86.0</ele><time>2026-03-29T07:01:03.999Z</time></trkpt><trkpt lat="44.92418625876568" lon="9.886428336363133"><ele>86.0</ele><time>2026-03-29T07:01:04.999Z</time></trkpt><trkpt lat="44.924103691361815" lon="9.886412455871426"><ele>86.0</ele><time>2026-03-29T07:01:05.999Z</time></trkpt><trkpt lat="44.92402301981232" lon="9.886393737284811"><ele>86.16666666666667</ele><time>2026-03-29T07:01:06.999Z</time></trkpt><trkpt lat="44.92394196124014" lon="9.886374916755143"><ele>86.33333333333334</ele><time>2026-03-29T07:01:07.999Z</time></trkpt><trkpt lat="44.9238606635789" lon="9.886354706432254"><ele>86.5</ele><time>2026-03-29T07:01:08.999Z</time></trkpt><trkpt lat="44.923781499359976" lon="9.88633308078301"><ele>86.66666666666667</ele><time>2026-03-29T07:01:09.999Z</time></trkpt><trkpt lat="44.923699122351856" lon="9.886310165542335"><ele>86.83333333333333</ele><time>2026-03-29T07:01:10.999Z</time></trkpt><trkpt lat="44.92362028808616" lon="9.886287797932175"><ele>87.0</ele><time>2026-03-29T07:01:11.999Z</time></trkpt><trkpt lat="44.92354096301364" lon="9.886265246435563"><ele>87.0</ele><time>2026-03-29T07:01:12.999Z</time></trkpt><trkpt lat="44.923460599141244" lon="9.886241553883872"><ele>87.0</ele><time>2026-03-29T07:01:13.999Z</time></trkpt><trkpt lat="44.92337959086334" lon="9.886217647620244"><ele>87.0</ele><time>2026-03-29T07:01:14.999Z</time></trkpt><trkpt lat="44.92330131601564" lon="9.886195579208273"><ele>87.0</ele><time>2026-03-29T07:01:15.999Z</time></trkpt><trkpt lat="44.92322261764394" lon="9.886168194497289"><ele>87.0</ele><time>2026-03-29T07:01:16.999Z</time></trkpt><trkpt lat="44.92314396245772" lon="9.886139540980832"><ele>87.0</ele><time>2026-03-29T07:01:17.999Z</time></trkpt><trkpt lat="44.92306579128277" lon="9.886111160367362"><ele>87.0</ele><time>2026-03-29T07:01:18.999Z</time></trkpt><trkpt lat="44.922986825040816" lon="9.886084066687701"><ele>87.0</ele><time>2026-03-29T07:01:19.999Z</time></trkpt><trkpt lat="44.92290745684826" lon="9.886055397033957"><ele>87.0</ele><time>2026-03-29T07:01:20.999Z</time></trkpt><trkpt lat="44.9228276145224" lon="9.886026970204096"><ele>87.0</ele><time>2026-03-29T07:01:21.999Z</time></trkpt><trkpt lat="44.92274979782136" lon="9.885996284518612"><ele>87.0</ele><time>2026-03-29T07:01:22.999Z</time></trkpt><trkpt lat="44.922670747604954" lon="9.885967104035903"><ele>87.0</ele><time>2026-03-29T07:01:23.999Z</time></trkpt><trkpt lat="44.922590539052706" lon="9.885936568999618"><ele>87.33333333333333</ele><time>2026-03-29T07:01:24.999Z</time></trkpt><trkpt lat="44.922509761388824" lon="9.885906844170895"><ele>87.66666666666667</ele><time>2026-03-29T07:01:25.999Z</time></trkpt><trkpt lat="44.92242932093944" lon="9.885877952290123"><ele>88.0</ele><time>2026-03-29T07:01:26.999Z</time></trkpt><trkpt lat="44.92234961817167" lon="9.88584835933054"><ele>88.33333333333334</ele><time>2026-03-29T07:01:27.999Z</time></trkpt><trkpt lat="44.92227043010893" lon="9.885818320497616"><ele>88.66666666666667</ele><time>2026-03-29T07:01:28.999Z</time></trkpt><trkpt lat="44.92219078769012" lon="9.885785055620158"><ele>89.0</ele><time>2026-03-29T07:01:29.999Z</time></trkpt><trkpt lat="44.92211564672721" lon="9.885741817229245"><ele>89.0</ele><time>2026-03-29T07:01:30.999Z</time></trkpt><trkpt lat="44.92204494058074" lon="9.885677711072633"><ele>89.0</ele><time>2026-03-29T07:01:31.999Z</time></trkpt><trkpt lat="44.92198345460444" lon="9.885599707628733"><ele>89.0</ele><time>2026-03-29T07:01:32.998Z</time></trkpt><trkpt lat="44.92192081855543" lon="9.885521755772555"><ele>89.0</ele><time>2026-03-29T07:01:33.998Z</time></trkpt><trkpt lat="44.92184672579675" lon="9.88547537168061"><ele>89.0</ele><time>2026-03-29T07:01:34.998Z</time></trkpt><trkpt lat="44.92176540859783" lon="9.885442183323711"><ele>89.0</ele><time>2026-03-29T07:01:35.998Z</time></trkpt><trkpt lat="44.921687522623934" lon="9.885399655948083"><ele>89.0</ele><time>2026-03-29T07:01:36.998Z</time></trkpt><trkpt lat="44.92161947969808" lon="9.885328585821227"><ele>89.0</ele><time>2026-03-29T07:01:37.998Z</time></trkpt><trkpt lat="44.9215561102609" lon="9.885246986663914"><ele>89.0</ele><time>2026-03-29T07:01:38.998Z</time></trkpt><trkpt lat="44.92149298787423" lon="9.885166337617841"><ele>89.0</ele><time>2026-03-29T07:01:39.998Z</time></trkpt><trkpt lat="44.92143117207967" lon="9.885086566688157"><ele>89.0</ele><time>2026-03-29T07:01:40.998Z</time></trkpt><trkpt lat="44.92137297803067" lon="9.885001452750796"><ele>89.0</ele><time>2026-03-29T07:01:41.998Z</time></trkpt><trkpt lat="44.921314632965654" lon="9.884916838725953"><ele>89.16666666666667</ele><time>2026-03-29T07:01:42.998Z</time></trkpt><trkpt lat="44.92125599233332" lon="9.884831419510148"><ele>89.33333333333334</ele><time>2026-03-29T07:01:43.998Z</time></trkpt><trkpt lat="44.92119812091997" lon="9.884746895244874"><ele>89.5</ele><time>2026-03-29T07:01:44.998Z</time></trkpt><trkpt lat="44.92113796045189" lon="9.884661443759114"><ele>89.66666666666667</ele><time>2026-03-29T07:01:45.998Z</time></trkpt><trkpt lat="44.921079500518495" lon="9.884577052486339"><ele>89.83333333333333</ele><time>2026-03-29T07:01:46.998Z</time></trkpt><trkpt lat="44.92102105229442" lon="9.884496702943368"><ele>90.0</ele><time>2026-03-29T07:01:47.998Z</time></trkpt><trkpt lat="44.92096135245651" lon="9.884410033618039"><ele>90.0</ele><time>2026-03-29T07:01:49Z</time></trkpt><trkpt lat="44.92090118229531" lon="9.884327022757311"><ele>90.0</ele><time>2026-03-29T07:01:50Z</time></trkpt><trkpt lat="44.92084259613188" lon="9.884239527310484"><ele>90.0</ele><time>2026-03-29T07:01:51Z</time></trkpt><trkpt lat="44.92078410018661" lon="9.884155010663736"><ele>90.0</ele><time>2026-03-29T07:01:52Z</time></trkpt><trkpt lat="44.920724720144165" lon="9.884067071831865"><ele>90.0</ele><time>2026-03-29T07:01:53Z</time></trkpt><trkpt lat="44.92066578801382" lon="9.883984633209101"><ele>90.0</ele><time>2026-03-29T07:01:54Z</time></trkpt><trkpt lat="44.92060398547748" lon="9.883899868578744"><ele>89.83333333333333</ele><time>2026-03-29T07:01:55Z</time></trkpt><trkpt lat="44.92054420367841" lon="9.883814949441309"><ele>89.66666666666667</ele><time>2026-03-29T07:01:56Z</time></trkpt><trkpt lat="44.920485284613996" lon="9.88373221656627"><ele>89.5</ele><time>2026-03-29T07:01:57Z</time></trkpt><trkpt lat="44.92042557032683" lon="9.883649660367519"><ele>89.33333333333334</ele><time>2026-03-29T07:01:58Z</time></trkpt><trkpt lat="44.92036612506099" lon="9.883565374855966"><ele>89.16666666666667</ele><time>2026-03-29T07:01:59Z</time></trkpt><trkpt lat="44.92030680847065" lon="9.883481043724025"><ele>89.0</ele><time>2026-03-29T07:02:00Z</time></trkpt><trkpt lat="44.920246966061306" lon="9.88339677051687"><ele>89.0</ele><time>2026-03-29T07:02:01Z</time></trkpt><trkpt lat="44.92018674382044" lon="9.883316775504149"><ele>89.0</ele><time>2026-03-29T07:02:02Z</time></trkpt><trkpt lat="44.92012019162858" lon="9.883240526370924"><ele>89.0</ele><time>2026-03-29T07:02:03Z</time></trkpt><trkpt lat="44.92006679879962" lon="9.88314536881183"><ele>89.0</ele><time>2026-03-29T07:02:04Z</time></trkpt><trkpt lat="44.92000877886882" lon="9.883063868528605"><ele>89.0</ele><time>2026-03-29T07:02:05Z</time></trkpt><trkpt lat="44.919949483666166" lon="9.882980576980106"><ele>89.0</ele><time>2026-03-29T07:02:06Z</time></trkpt><trkpt lat="44.91989122454041" lon="9.882898750941504"><ele>89.0</ele><time>2026-03-29T07:02:07Z</time></trkpt><trkpt lat="44.919831464793916" lon="9.882814917606673"><ele>89.0</ele><time>2026-03-29T07:02:08Z</time></trkpt><trkpt lat="44.91977232312798" lon="9.882731951256265"><ele>89.0</ele><time>2026-03-29T07:02:09Z</time></trkpt><trkpt lat="44.91971335308661" lon="9.882647738815532"><ele>89.0</ele><time>2026-03-29T07:02:10Z</time></trkpt><trkpt lat="44.919654842891106" lon="9.88256171278886"><ele>89.0</ele><time>2026-03-29T07:02:11Z</time></trkpt><trkpt lat="44.91959558323559" lon="9.882472937606362"><ele>89.0</ele><time>2026-03-29T07:02:12Z</time></trkpt><trkpt lat="44.91954306159409" lon="9.882383359948435"><ele>88.83333333333334</ele><time>2026-03-29T07:02:13Z</time></trkpt><trkpt lat="44.91949329286725" lon="9.882294095876546"><ele>88.66666666666667</ele><time>2026-03-29T07:02:14Z</time></trkpt><trkpt lat="44.919444913990986" lon="9.882200523892418"><ele>88.5</ele><time>2026-03-29T07:02:15Z</time></trkpt><trkpt lat="44.91939583159966" lon="9.882103456565495"><ele>88.33333333333333</ele><time>2026-03-29T07:02:16Z</time></trkpt><trkpt lat="44.919357539585164" lon="9.882014627785772"><ele>88.16666666666666</ele><time>2026-03-29T07:02:17Z</time></trkpt><trkpt lat="44.9193218305715" lon="9.881925771627822"><ele>88.0</ele><time>2026-03-29T07:02:18Z</time></trkpt><trkpt lat="44.91929131032484" lon="9.881836132618076"><ele>88.25</ele><time>2026-03-29T07:02:19Z</time></trkpt><trkpt lat="44.91926385364392" lon="9.881751075659675"><ele>88.5</ele><time>2026-03-29T07:02:20Z</time></trkpt><trkpt lat="44.9192326086929" lon="9.881654241304444"><ele>88.75</ele><time>2026-03-29T07:02:21Z</time></trkpt><trkpt lat="44.919194493487325" lon="9.881494192331948"><ele>89.0</ele><time>2026-03-29T07:02:23Z</time></trkpt><trkpt lat="44.91871385912272" lon="9.881518304522027"><ele>89.16666666666667</ele><time>2026-03-29T07:02:25Z</time></trkpt><trkpt lat="44.91865162420817" lon="9.881446130630055"><ele>89.33333333333334</ele><time>2026-03-29T07:02:26Z</time></trkpt><trkpt lat="44.918588904602224" lon="9.881374124600354"><ele>89.5</ele><time>2026-03-29T07:02:27Z</time></trkpt><trkpt lat="44.91852824876536" lon="9.881303453457072"><ele>89.66666666666667</ele><time>2026-03-29T07:02:28Z</time></trkpt><trkpt lat="44.9184699517279" lon="9.881231831724987"><ele>89.83333333333333</ele><time>2026-03-29T07:02:29Z</time></trkpt><trkpt lat="44.91840877015373" lon="9.88116254419868"><ele>90.0</ele><time>2026-03-29T07:02:30Z</time></trkpt><trkpt lat="44.91834846599727" lon="9.881092692277003"><ele>90.5</ele><time>2026-03-29T07:02:31Z</time></trkpt><trkpt lat="44.91828846338116" lon="9.881022807021639"><ele>91.0</ele><time>2026-03-29T07:02:32Z</time></trkpt><trkpt lat="44.918227507215015" lon="9.880952444476424"><ele>91.5</ele><time>2026-03-29T07:02:33Z</time></trkpt><trkpt lat="44.91816778701031" lon="9.880885820664217"><ele>92.0</ele><time>2026-03-29T07:02:34Z</time></trkpt><trkpt lat="44.9181074817919" lon="9.880815797043137"><ele>92.5</ele><time>2026-03-29T07:02:35Z</time></trkpt><trkpt lat="44.91804776310862" lon="9.880749788992965"><ele>93.0</ele><time>2026-03-29T07:02:36Z</time></trkpt><trkpt lat="44.91798844377467" lon="9.880680126238405"><ele>93.0</ele><time>2026-03-29T07:02:37Z</time></trkpt><trkpt lat="44.91792767851457" lon="9.88061458356454"><ele>93.0</ele><time>2026-03-29T07:02:38Z</time></trkpt><trkpt lat="44.91786452110256" lon="9.880551472515588"><ele>93.0</ele><time>2026-03-29T07:02:39Z</time></trkpt><trkpt lat="44.91780643238209" lon="9.880482299230758"><ele>93.0</ele><time>2026-03-29T07:02:40Z</time></trkpt><trkpt lat="44.917747533794724" lon="9.880409668375266"><ele>93.0</ele><time>2026-03-29T07:02:41Z</time></trkpt><trkpt lat="44.91768689690554" lon="9.880345186347983"><ele>93.0</ele><time>2026-03-29T07:02:42Z</time></trkpt><trkpt lat="44.917625356370955" lon="9.880278134282515"><ele>92.83333333333333</ele><time>2026-03-29T07:02:43Z</time></trkpt><trkpt lat="44.91756556045794" lon="9.880210370432625"><ele>92.66666666666667</ele><time>2026-03-29T07:02:44Z</time></trkpt><trkpt lat="44.91750621911411" lon="9.880142349536616"><ele>92.5</ele><time>2026-03-29T07:02:44.999Z</time></trkpt><trkpt lat="44.91744622027657" lon="9.880072419789943"><ele>92.33333333333334</ele><time>2026-03-29T07:02:45.999Z</time></trkpt><trkpt lat="44.91738697946086" lon="9.88000358424272"><ele>92.16666666666667</ele><time>2026-03-29T07:02:46.999Z</time></trkpt><trkpt lat="44.91732756996986" lon="9.879933412138165"><ele>92.0</ele><time>2026-03-29T07:02:47.999Z</time></trkpt><trkpt lat="44.91726849156798" lon="9.879864569837661"><ele>92.0</ele><time>2026-03-29T07:02:48.999Z</time></trkpt><trkpt lat="44.91720811044945" lon="9.87979423442742"><ele>92.0</ele><time>2026-03-29T07:02:49.999Z</time></trkpt><trkpt lat="44.9171473290345" lon="9.879726873213269"><ele>92.0</ele><time>2026-03-29T07:02:50.999Z</time></trkpt><trkpt lat="44.91708727021894" lon="9.879659499574787"><ele>92.0</ele><time>2026-03-29T07:02:51.999Z</time></trkpt><trkpt lat="44.91702646076578" lon="9.879592605662173"><ele>92.0</ele><time>2026-03-29T07:02:52.999Z</time></trkpt><trkpt lat="44.91696644831578" lon="9.87952614291641"><ele>92.0</ele><time>2026-03-29T07:02:53.999Z</time></trkpt><trkpt lat="44.91691378874245" lon="9.879442986236931"><ele>92.0</ele><time>2026-03-29T07:02:54.999Z</time></trkpt><trkpt lat="44.91684392144628" lon="9.879385818295749"><ele>92.0</ele><time>2026-03-29T07:02:55.999Z</time></trkpt><trkpt lat="44.916768966699905" lon="9.879341430665255"><ele>92.0</ele><time>2026-03-29T07:02:56.999Z</time></trkpt><trkpt lat="44.916693241183815" lon="9.879306066994388"><ele>92.0</ele><time>2026-03-29T07:02:57.999Z</time></trkpt><trkpt lat="44.916613054092785" lon="9.879285644267416"><ele>92.0</ele><time>2026-03-29T07:02:58.999Z</time></trkpt><trkpt lat="44.91653232461262" lon="9.879276215711164"><ele>92.0</ele><time>2026-03-29T07:02:59.999Z</time></trkpt><trkpt lat="44.91645411166305" lon="9.879273814589109"><ele>92.0</ele><time>2026-03-29T07:03:00.999Z</time></trkpt><trkpt lat="44.91637596906282" lon="9.879272307663907"><ele>92.0</ele><time>2026-03-29T07:03:01.999Z</time></trkpt><trkpt lat="44.91629811848171" lon="9.879271557413695"><ele>92.0</ele><time>2026-03-29T07:03:02.999Z</time></trkpt><trkpt lat="44.91622076676271" lon="9.879270811968569"><ele>92.0</ele><time>2026-03-29T07:03:03.999Z</time></trkpt><trkpt lat="44.916141264334044" lon="9.87927004579974"><ele>92.0</ele><time>2026-03-29T07:03:04.999Z</time></trkpt><trkpt lat="44.91606000617282" lon="9.879269262708396"><ele>92.0</ele><time>2026-03-29T07:03:05.999Z</time></trkpt><trkpt lat="44.915978683925275" lon="9.879268478999983"><ele>91.83333333333334</ele><time>2026-03-29T07:03:06.999Z</time></trkpt><trkpt lat="44.91589965021134" lon="9.87926771734756"><ele>91.66666666666667</ele><time>2026-03-29T07:03:07.999Z</time></trkpt><trkpt lat="44.91581928689403" lon="9.879288780536227"><ele>91.5</ele><time>2026-03-29T07:03:08.999Z</time></trkpt><trkpt lat="44.91573894773598" lon="9.87926616864544"><ele>91.33333333333333</ele><time>2026-03-29T07:03:09.999Z</time></trkpt><trkpt lat="44.91565826595574" lon="9.879265391108003"><ele>91.16666666666666</ele><time>2026-03-29T07:03:10.999Z</time></trkpt><trkpt lat="44.915580416718086" lon="9.879264640871487"><ele>91.0</ele><time>2026-03-29T07:03:11.999Z</time></trkpt><trkpt lat="44.91550226556514" lon="9.879263887723134"><ele>91.0</ele><time>2026-03-29T07:03:12.999Z</time></trkpt><trkpt lat="44.91542555910631" lon="9.879262701733808"><ele>91.0</ele><time>2026-03-29T07:03:13.999Z</time></trkpt><trkpt lat="44.91534143168764" lon="9.879260773522148"><ele>91.0</ele><time>2026-03-29T07:03:14.999Z</time></trkpt><trkpt lat="44.91526037663699" lon="9.879258915723739"><ele>91.0</ele><time>2026-03-29T07:03:15.999Z</time></trkpt><trkpt lat="44.91518188206056" lon="9.879257116665952"><ele>91.0</ele><time>2026-03-29T07:03:16.999Z</time></trkpt><trkpt lat="44.915104575808996" lon="9.879256170053642"><ele>91.0</ele><time>2026-03-29T07:03:17.999Z</time></trkpt><trkpt lat="44.91502645674167" lon="9.87925492109396"><ele>91.33333333333333</ele><time>2026-03-29T07:03:18.999Z</time></trkpt><trkpt lat="44.91494677290577" lon="9.879253647114027"><ele>91.66666666666666</ele><time>2026-03-29T07:03:19.999Z</time></trkpt><trkpt lat="44.91486713837425" lon="9.879252513295622"><ele>92.0</ele><time>2026-03-29T07:03:20.999Z</time></trkpt><trkpt lat="44.914787246297806" lon="9.879251682849596"><ele>92.33333333333333</ele><time>2026-03-29T07:03:21.999Z</time></trkpt><trkpt lat="44.914707496532266" lon="9.879250853881086"><ele>92.66666666666667</ele><time>2026-03-29T07:03:22.999Z</time></trkpt><trkpt lat="44.91462872872553" lon="9.879250035121167"><ele>93.0</ele><time>2026-03-29T07:03:23.999Z</time></trkpt><trkpt lat="44.91454909223177" lon="9.879249207330808"><ele>93.0</ele><time>2026-03-29T07:03:24.999Z</time></trkpt><trkpt lat="44.91446821744585" lon="9.879248366669833"><ele>93.0</ele><time>2026-03-29T07:03:25.999Z</time></trkpt><trkpt lat="44.91438734987918" lon="9.87924752608288"><ele>93.0</ele><time>2026-03-29T07:03:26.999Z</time></trkpt><trkpt lat="44.91430676465694" lon="9.879246540070643"><ele>93.0</ele><time>2026-03-29T07:03:27.999Z</time></trkpt><trkpt lat="44.91422646131902" lon="9.87924552421029"><ele>93.0</ele><time>2026-03-29T07:03:28.999Z</time></trkpt><trkpt lat="44.914144934329755" lon="9.87924449287015"><ele>93.0</ele><time>2026-03-29T07:03:29.999Z</time></trkpt><trkpt lat="44.91406417320939" lon="9.879243471218848"><ele>92.83333333333333</ele><time>2026-03-29T07:03:30.999Z</time></trkpt><trkpt lat="44.91398306722476" lon="9.879265134578164"><ele>92.66666666666667</ele><time>2026-03-29T07:03:31.999Z</time></trkpt><trkpt lat="44.91390304540472" lon="9.879263995487166"><ele>92.5</ele><time>2026-03-29T07:03:32.999Z</time></trkpt><trkpt lat="44.913821179061166" lon="9.87924039727206"><ele>92.33333333333334</ele><time>2026-03-29T07:03:33.999Z</time></trkpt><trkpt lat="44.91373959022672" lon="9.879239365151115"><ele>92.16666666666667</ele><time>2026-03-29T07:03:34.999Z</time></trkpt><trkpt lat="44.913659820758035" lon="9.879238356044382"><ele>92.0</ele><time>2026-03-29T07:03:35.999Z</time></trkpt><trkpt lat="44.91358163700912" lon="9.879237366998673"><ele>92.0</ele><time>2026-03-29T07:03:36.999Z</time></trkpt><trkpt lat="44.91349960364346" lon="9.879236329252223"><ele>92.0</ele><time>2026-03-29T07:03:37.998Z</time></trkpt><trkpt lat="44.91341891427693" lon="9.879235308508958"><ele>92.0</ele><time>2026-03-29T07:03:38.998Z</time></trkpt><trkpt lat="44.91334015281598" lon="9.879234929051137"><ele>92.0</ele><time>2026-03-29T07:03:39.998Z</time></trkpt><trkpt lat="44.91325899350907" lon="9.879234562452762"><ele>92.0</ele><time>2026-03-29T07:03:40.998Z</time></trkpt><trkpt lat="44.913181496173" lon="9.879234212395831"><ele>92.0</ele><time>2026-03-29T07:03:41.998Z</time></trkpt><trkpt lat="44.91310468084578" lon="9.879233619016636"><ele>92.16666666666667</ele><time>2026-03-29T07:03:42.998Z</time></trkpt><trkpt lat="44.913026296017186" lon="9.879232444271892"><ele>92.33333333333334</ele><time>2026-03-29T07:03:43.998Z</time></trkpt><trkpt lat="44.91294583993859" lon="9.879231238485296"><ele>92.5</ele><time>2026-03-29T07:03:44.998Z</time></trkpt><trkpt lat="44.91286554018996" lon="9.879230035042456"><ele>92.66666666666667</ele><time>2026-03-29T07:03:45.998Z</time></trkpt><trkpt lat="44.91278571560267" lon="9.879229219235437"><ele>92.83333333333333</ele><time>2026-03-29T07:03:46.998Z</time></trkpt><trkpt lat="44.912708080292596" lon="9.879228446317386"><ele>93.0</ele><time>2026-03-29T07:03:47.998Z</time></trkpt><trkpt lat="44.91262902571404" lon="9.879227659270288"><ele>93.33333333333333</ele><time>2026-03-29T07:03:48.998Z</time></trkpt><trkpt lat="44.91254960087609" lon="9.879226868536385"><ele>93.66666666666667</ele><time>2026-03-29T07:03:49.998Z</time></trkpt><trkpt lat="44.91247178381108" lon="9.879226093809663"><ele>94.0</ele><time>2026-03-29T07:03:50.998Z</time></trkpt><trkpt lat="44.912393642611896" lon="9.879225315855763"><ele>94.33333333333334</ele><time>2026-03-29T07:03:51.998Z</time></trkpt><trkpt lat="44.91231648622797" lon="9.879224504687208"><ele>94.66666666666667</ele><time>2026-03-29T07:03:52.998Z</time></trkpt><trkpt lat="44.912234129610695" lon="9.879222285496937"><ele>95.0</ele><time>2026-03-29T07:03:54Z</time></trkpt><trkpt lat="44.912156647484956" lon="9.879220197656677"><ele>95.0</ele><time>2026-03-29T07:03:55Z</time></trkpt><trkpt lat="44.91207940431972" lon="9.879219171328348"><ele>95.0</ele><time>2026-03-29T07:03:56Z</time></trkpt><trkpt lat="44.91200281491321" lon="9.879219171328709"><ele>95.0</ele><time>2026-03-29T07:03:57Z</time></trkpt><trkpt lat="44.91192371100878" lon="9.879240513945048"><ele>95.0</ele><time>2026-03-29T07:03:58Z</time></trkpt><trkpt lat="44.911844336475134" lon="9.879239846645719"><ele>95.0</ele><time>2026-03-29T07:03:59Z</time></trkpt><trkpt lat="44.91176627742996" lon="9.879238294702375"><ele>95.0</ele><time>2026-03-29T07:04:00Z</time></trkpt><trkpt lat="44.911687342018574" lon="9.879238872696828"><ele>94.83333333333334</ele><time>2026-03-29T07:04:01Z</time></trkpt><trkpt lat="44.91160986722473" lon="9.879239979289839"><ele>94.66666666666667</ele><time>2026-03-29T07:04:02Z</time></trkpt><trkpt lat="44.911531383537636" lon="9.879215178115695"><ele>94.5</ele><time>2026-03-29T07:04:03Z</time></trkpt><trkpt lat="44.91145299438395" lon="9.879235861097536"><ele>94.33333333333333</ele><time>2026-03-29T07:04:04Z</time></trkpt><trkpt lat="44.911373779677724" lon="9.87923333002668"><ele>94.16666666666666</ele><time>2026-03-29T07:04:05Z</time></trkpt><trkpt lat="44.91129263302009" lon="9.879231283046197"><ele>94.0</ele><time>2026-03-29T07:04:06Z</time></trkpt><trkpt lat="44.91121213601709" lon="9.879232642660927"><ele>94.0</ele><time>2026-03-29T07:04:07Z</time></trkpt><trkpt lat="44.91113115875435" lon="9.879231765728052"><ele>94.0</ele><time>2026-03-29T07:04:08Z</time></trkpt><trkpt lat="44.911052508111204" lon="9.879229712083612"><ele>94.0</ele><time>2026-03-29T07:04:09Z</time></trkpt><trkpt lat="44.91097302973471" lon="9.879230184254192"><ele>94.0</ele><time>2026-03-29T07:04:10Z</time></trkpt><trkpt lat="44.91089371676092" lon="9.879205760390056"><ele>94.0</ele><time>2026-03-29T07:04:11Z</time></trkpt><trkpt lat="44.910815110581034" lon="9.87920470497241"><ele>94.0</ele><time>2026-03-29T07:04:12Z</time></trkpt><trkpt lat="44.91073601090131" lon="9.879226078679842"><ele>94.5</ele><time>2026-03-29T07:04:13Z</time></trkpt><trkpt lat="44.91065478867491" lon="9.879223143031883"><ele>95.0</ele><time>2026-03-29T07:04:14Z</time></trkpt><trkpt lat="44.91057563485842" lon="9.8792228612886"><ele>95.5</ele><time>2026-03-29T07:04:15Z</time></trkpt><trkpt lat="44.91049650086018" lon="9.879199122608899"><ele>96.0</ele><time>2026-03-29T07:04:16Z</time></trkpt><trkpt lat="44.9104176590991" lon="9.879197542471346"><ele>96.50000000000001</ele><time>2026-03-29T07:04:17Z</time></trkpt><trkpt lat="44.91033753910482" lon="9.879195584001192"><ele>97.0</ele><time>2026-03-29T07:04:18Z</time></trkpt><trkpt lat="44.91025631254246" lon="9.879192653370135"><ele>97.00000000000001</ele><time>2026-03-29T07:04:19Z</time></trkpt><trkpt lat="44.91017769232176" lon="9.879189816776076"><ele>97.0</ele><time>2026-03-29T07:04:20Z</time></trkpt><trkpt lat="44.910099940377705" lon="9.879187011509654"><ele>97.0</ele><time>2026-03-29T07:04:21Z</time></trkpt><trkpt lat="44.91002200488688" lon="9.879184199622115"><ele>97.0</ele><time>2026-03-29T07:04:22Z</time></trkpt><trkpt lat="44.90994487700092" lon="9.87918141694182"><ele>97.00000000000001</ele><time>2026-03-29T07:04:23Z</time></trkpt><trkpt lat="44.909866610337914" lon="9.879178418589454"><ele>97.0</ele><time>2026-03-29T07:04:24Z</time></trkpt><trkpt lat="44.90978996597949" lon="9.879174749769819"><ele>97.00000000000001</ele><time>2026-03-29T07:04:25Z</time></trkpt><trkpt lat="44.90971083124982" lon="9.879168627384647"><ele>97.0</ele><time>2026-03-29T07:04:26Z</time></trkpt><trkpt lat="44.909635127103726" lon="9.879162770404156"><ele>97.0</ele><time>2026-03-29T07:04:27Z</time></trkpt><trkpt lat="44.90955699960998" lon="9.879157571286965"><ele>97.0</ele><time>2026-03-29T07:04:28Z</time></trkpt><trkpt lat="44.90947729147313" lon="9.87917504890837"><ele>97.00000000000001</ele><time>2026-03-29T07:04:29Z</time></trkpt><trkpt lat="44.909397837963986" lon="9.879169035121791"><ele>97.0</ele><time>2026-03-29T07:04:30Z</time></trkpt><trkpt lat="44.9093170683276" lon="9.879143525504604"><ele>97.00000000000001</ele><time>2026-03-29T07:04:31Z</time></trkpt><trkpt lat="44.909238597192925" lon="9.879138931741794"><ele>97.0</ele><time>2026-03-29T07:04:32Z</time></trkpt><trkpt lat="44.90915882474668" lon="9.879156161046735"><ele>97.0</ele><time>2026-03-29T07:04:33Z</time></trkpt><trkpt lat="44.90907848094455" lon="9.879150560607682"><ele>97.0</ele><time>2026-03-29T07:04:34Z</time></trkpt><trkpt lat="44.909001023821446" lon="9.87914359482514"><ele>97.00000000000001</ele><time>2026-03-29T07:04:35Z</time></trkpt><trkpt lat="44.90892255247571" lon="9.87911491281299"><ele>97.0</ele><time>2026-03-29T07:04:36Z</time></trkpt><trkpt lat="44.9088457866482" lon="9.879108269656514"><ele>97.00000000000001</ele><time>2026-03-29T07:04:37Z</time></trkpt><trkpt lat="44.908765285342696" lon="9.879103692275363"><ele>97.0</ele><time>2026-03-29T07:04:38Z</time></trkpt><trkpt lat="44.90868838696468" lon="9.879120706126614"><ele>97.0</ele><time>2026-03-29T07:04:39Z</time></trkpt><trkpt lat="44.90860946156038" lon="9.87911555087771"><ele>97.0</ele><time>2026-03-29T07:04:40Z</time></trkpt><trkpt lat="44.90853121969303" lon="9.879109763941026"><ele>97.00000000000001</ele><time>2026-03-29T07:04:41Z</time></trkpt><trkpt lat="44.908453089241824" lon="9.87910353413202"><ele>97.0</ele><time>2026-03-29T07:04:42Z</time></trkpt><trkpt lat="44.90837563061528" lon="9.879073636887526"><ele>97.00000000000001</ele><time>2026-03-29T07:04:43Z</time></trkpt><trkpt lat="44.90829559466476" lon="9.879067310249456"><ele>97.0</ele><time>2026-03-29T07:04:44Z</time></trkpt><trkpt lat="44.90821787416733" lon="9.87906222028337"><ele>97.0</ele><time>2026-03-29T07:04:45Z</time></trkpt><trkpt lat="44.90813916157214" lon="9.879079427577082"><ele>97.0</ele><time>2026-03-29T07:04:46Z</time></trkpt><trkpt lat="44.908061308596714" lon="9.879073606206767"><ele>97.00000000000001</ele><time>2026-03-29T07:04:46.999Z</time></trkpt><trkpt lat="44.907983871722294" lon="9.879066993270346"><ele>97.0</ele><time>2026-03-29T07:04:47.999Z</time></trkpt><trkpt lat="44.90790577898809" lon="9.879062268722285"><ele>97.00000000000001</ele><time>2026-03-29T07:04:48.999Z</time></trkpt><trkpt lat="44.907827434053424" lon="9.879057724294148"><ele>97.0</ele><time>2026-03-29T07:04:49.999Z</time></trkpt><trkpt lat="44.907749118707905" lon="9.879050247352462"><ele>97.0</ele><time>2026-03-29T07:04:50.999Z</time></trkpt><trkpt lat="44.90767071996433" lon="9.87904241294929"><ele>97.0</ele><time>2026-03-29T07:04:51.999Z</time></trkpt><trkpt lat="44.90759353566857" lon="9.879035083080758"><ele>97.00000000000001</ele><time>2026-03-29T07:04:52.999Z</time></trkpt><trkpt lat="44.90751623871735" lon="9.87902983457168"><ele>97.0</ele><time>2026-03-29T07:04:53.999Z</time></trkpt><trkpt lat="44.90743927512393" lon="9.879025281048492"><ele>97.66666666666667</ele><time>2026-03-29T07:04:54.999Z</time></trkpt><trkpt lat="44.90736136246245" lon="9.879021821392149"><ele>98.33333333333334</ele><time>2026-03-29T07:04:55.999Z</time></trkpt><trkpt lat="44.90728304459958" lon="9.879016801865022"><ele>99.0</ele><time>2026-03-29T07:04:56.999Z</time></trkpt><trkpt lat="44.90720553687952" lon="9.879009966029603"><ele>99.66666666666666</ele><time>2026-03-29T07:04:57.999Z</time></trkpt><trkpt lat="44.90712607081567" lon="9.879001856484258"><ele>100.33333333333333</ele><time>2026-03-29T07:04:58.999Z</time></trkpt><trkpt lat="44.90704776696906" lon="9.878993578207405"><ele>101.0</ele><time>2026-03-29T07:04:59.999Z</time></trkpt><trkpt lat="44.9069708314335" lon="9.87897895634025"><ele>100.99999999999999</ele><time>2026-03-29T07:05:00.999Z</time></trkpt><trkpt lat="44.9069038530181" lon="9.878926569494002"><ele>101.0</ele><time>2026-03-29T07:05:01.999Z</time></trkpt><trkpt lat="44.90683986587465" lon="9.878877424550465"><ele>101.0</ele><time>2026-03-29T07:05:02.999Z</time></trkpt><trkpt lat="44.90678273116903" lon="9.878810116643766"><ele>101.0</ele><time>2026-03-29T07:05:03.999Z</time></trkpt><trkpt lat="44.90671766007243" lon="9.87875155779935"><ele>100.99999999999999</ele><time>2026-03-29T07:05:04.999Z</time></trkpt><trkpt lat="44.906668697603195" lon="9.87866608422468"><ele>101.0</ele><time>2026-03-29T07:05:05.999Z</time></trkpt><trkpt lat="44.90661641397479" lon="9.878585700066344"><ele>100.99999999999999</ele><time>2026-03-29T07:05:06.999Z</time></trkpt><trkpt lat="44.90656276896091" lon="9.878508447528326"><ele>101.0</ele><time>2026-03-29T07:05:07.999Z</time></trkpt><trkpt lat="44.90651319139406" lon="9.878425074373565"><ele>101.0</ele><time>2026-03-29T07:05:08.999Z</time></trkpt><trkpt lat="44.90646213028615" lon="9.87834234546598"><ele>101.0</ele><time>2026-03-29T07:05:09.999Z</time></trkpt><trkpt lat="44.90640896517929" lon="9.87826303430682"><ele>100.99999999999999</ele><time>2026-03-29T07:05:10.999Z</time></trkpt><trkpt lat="44.90635590353461" lon="9.878184881140527"><ele>101.0</ele><time>2026-03-29T07:05:11.999Z</time></trkpt><trkpt lat="44.906304110514775" lon="9.878103762306761"><ele>100.99999999999999</ele><time>2026-03-29T07:05:12.999Z</time></trkpt><trkpt lat="44.906249754822205" lon="9.878023388688868"><ele>101.0</ele><time>2026-03-29T07:05:13.999Z</time></trkpt><trkpt lat="44.90619463653972" lon="9.877943274789608"><ele>101.0</ele><time>2026-03-29T07:05:14.999Z</time></trkpt><trkpt lat="44.90614230148154" lon="9.87786300129094"><ele>101.0</ele><time>2026-03-29T07:05:15.999Z</time></trkpt><trkpt lat="44.90609066853886" lon="9.877781092374008"><ele>100.99999999999999</ele><time>2026-03-29T07:05:16.999Z</time></trkpt><trkpt lat="44.90603728717934" lon="9.877700512529907"><ele>101.0</ele><time>2026-03-29T07:05:17.999Z</time></trkpt><trkpt lat="44.90598338417219" lon="9.87762140888101"><ele>101.16666666666666</ele><time>2026-03-29T07:05:18.999Z</time></trkpt><trkpt lat="44.905930598982565" lon="9.87753747227462"><ele>101.33333333333333</ele><time>2026-03-29T07:05:19.999Z</time></trkpt><trkpt lat="44.90587506878895" lon="9.8774563252631"><ele>101.5</ele><time>2026-03-29T07:05:20.999Z</time></trkpt><trkpt lat="44.90582062973853" lon="9.877373677591361"><ele>101.66666666666666</ele><time>2026-03-29T07:05:21.999Z</time></trkpt><trkpt lat="44.90576743126562" lon="9.87729481556149"><ele>101.83333333333333</ele><time>2026-03-29T07:05:22.999Z</time></trkpt><trkpt lat="44.905717218099895" lon="9.87721715637283"><ele>102.0</ele><time>2026-03-29T07:05:23.999Z</time></trkpt><trkpt lat="44.90567016902479" lon="9.877144312653057"><ele>102.14285714285714</ele><time>2026-03-29T07:05:24.999Z</time></trkpt><trkpt lat="44.90563853465599" lon="9.87705717295453"><ele>102.28571428571429</ele><time>2026-03-29T07:05:25.999Z</time></trkpt><trkpt lat="44.905587292600096" lon="9.876997205946793"><ele>102.42857142857142</ele><time>2026-03-29T07:05:26.999Z</time></trkpt><trkpt lat="44.90555768580225" lon="9.876910851709882"><ele>102.57142857142857</ele><time>2026-03-29T07:05:27.999Z</time></trkpt><trkpt lat="44.90553057261288" lon="9.876820507381675"><ele>102.71428571428571</ele><time>2026-03-29T07:05:28.999Z</time></trkpt><trkpt lat="44.90550807780635" lon="9.876727847878966"><ele>102.85714285714285</ele><time>2026-03-29T07:05:29.999Z</time></trkpt><trkpt lat="44.90549082112903" lon="9.876633978401578"><ele>103.0</ele><time>2026-03-29T07:05:30.999Z</time></trkpt><trkpt lat="44.90547581867773" lon="9.876542044481578"><ele>102.85714285714285</ele><time>2026-03-29T07:05:31.999Z</time></trkpt><trkpt lat="44.90546423599287" lon="9.87644981261636"><ele>102.71428571428571</ele><time>2026-03-29T07:05:32.999Z</time></trkpt><trkpt lat="44.90545101106602" lon="9.876359369396175"><ele>102.57142857142857</ele><time>2026-03-29T07:05:33.999Z</time></trkpt><trkpt lat="44.905450357133674" lon="9.876266226100917"><ele>102.42857142857142</ele><time>2026-03-29T07:05:34.999Z</time></trkpt><trkpt lat="44.90543670958612" lon="9.87617766044935"><ele>102.28571428571429</ele><time>2026-03-29T07:05:35.999Z</time></trkpt><trkpt lat="44.905422856418966" lon="9.876089946919935"><ele>102.14285714285714</ele><time>2026-03-29T07:05:36.999Z</time></trkpt><trkpt lat="44.90540880364256" lon="9.87600182465112"><ele>102.0</ele><time>2026-03-29T07:05:37.999Z</time></trkpt><trkpt lat="44.905379351420024" lon="9.875920420754644"><ele>102.0</ele><time>2026-03-29T07:05:38.999Z</time></trkpt><trkpt lat="44.90535405140281" lon="9.875746115051253"><ele>102.0</ele><time>2026-03-29T07:05:40.998Z</time></trkpt><trkpt lat="44.905323794843255" lon="9.875575600729434"><ele>102.0</ele><time>2026-03-29T07:05:42.998Z</time></trkpt><trkpt lat="44.90531112675152" lon="9.875487510655663"><ele>102.0</ele><time>2026-03-29T07:05:43.998Z</time></trkpt><trkpt lat="44.905284474239544" lon="9.875311065686853"><ele>102.0</ele><time>2026-03-29T07:05:45.998Z</time></trkpt><trkpt lat="44.905271330547095" lon="9.875216856664055"><ele>102.0</ele><time>2026-03-29T07:05:46.998Z</time></trkpt><trkpt lat="44.905254386778296" lon="9.875122411643954"><ele>102.0</ele><time>2026-03-29T07:05:47.998Z</time></trkpt><trkpt lat="44.905234830518744" lon="9.87502870332227"><ele>102.0</ele><time>2026-03-29T07:05:48.998Z</time></trkpt><trkpt lat="44.9052176643479" lon="9.874937728944559"><ele>102.0</ele><time>2026-03-29T07:05:49.998Z</time></trkpt><trkpt lat="44.905203977274006" lon="9.874846544693341"><ele>102.0</ele><time>2026-03-29T07:05:50.998Z</time></trkpt><trkpt lat="44.905188775822914" lon="9.874750830025343"><ele>102.0</ele><time>2026-03-29T07:05:51.998Z</time></trkpt><trkpt lat="44.9051677489585" lon="9.874656762046047"><ele>102.0</ele><time>2026-03-29T07:05:52.998Z</time></trkpt><trkpt lat="44.90516753545243" lon="9.874555163057737"><ele>101.85714285714286</ele><time>2026-03-29T07:05:53.998Z</time></trkpt><trkpt lat="44.90515091346403" lon="9.87445708914528"><ele>101.71428571428572</ele><time>2026-03-29T07:05:54.998Z</time></trkpt><trkpt lat="44.90513489376089" lon="9.874361498073771"><ele>101.57142857142857</ele><time>2026-03-29T07:05:55.998Z</time></trkpt><trkpt lat="44.905118820365274" lon="9.874265097487282"><ele>101.42857142857143</ele><time>2026-03-29T07:05:56.998Z</time></trkpt><trkpt lat="44.90510310582059" lon="9.874170848714616"><ele>101.28571428571428</ele><time>2026-03-29T07:05:57.998Z</time></trkpt><trkpt lat="44.905087266317324" lon="9.87407585080137"><ele>101.14285714285714</ele><time>2026-03-29T07:05:58.998Z</time></trkpt><trkpt lat="44.90507136273231" lon="9.873980468249304"><ele>101.0</ele><time>2026-03-29T07:06:00Z</time></trkpt><trkpt lat="44.90505544219366" lon="9.873884983756621"><ele>100.85714285714286</ele><time>2026-03-29T07:06:01Z</time></trkpt><trkpt lat="44.90503998024181" lon="9.873792250366"><ele>100.71428571428571</ele><time>2026-03-29T07:06:02Z</time></trkpt><trkpt lat="44.90502429334291" lon="9.873698167469154"><ele>100.57142857142858</ele><time>2026-03-29T07:06:03Z</time></trkpt><trkpt lat="44.90500919363775" lon="9.87360760663038"><ele>100.42857142857143</ele><time>2026-03-29T07:06:04Z</time></trkpt><trkpt lat="44.90499358048316" lon="9.873513966155839"><ele>100.28571428571429</ele><time>2026-03-29T07:06:05Z</time></trkpt><trkpt lat="44.90497857768864" lon="9.873423986127147"><ele>100.14285714285715</ele><time>2026-03-29T07:06:06Z</time></trkpt><trkpt lat="44.90496297687897" lon="9.873330419659366"><ele>100.0</ele><time>2026-03-29T07:06:07Z</time></trkpt><trkpt lat="44.90494782556292" lon="9.873239549024989"><ele>99.85714285714286</ele><time>2026-03-29T07:06:08Z</time></trkpt><trkpt lat="44.90493260752762" lon="9.873147969597373"><ele>99.71428571428572</ele><time>2026-03-29T07:06:09Z</time></trkpt><trkpt lat="44.90491726501232" lon="9.87305547861787"><ele>99.57142857142858</ele><time>2026-03-29T07:06:10Z</time></trkpt><trkpt lat="44.90490169155205" lon="9.872961595442481"><ele>99.42857142857143</ele><time>2026-03-29T07:06:11Z</time></trkpt><trkpt lat="44.90488606903084" lon="9.872867416479572"><ele>99.28571428571428</ele><time>2026-03-29T07:06:12Z</time></trkpt><trkpt lat="44.904870377734014" lon="9.87277282333049"><ele>99.14285714285715</ele><time>2026-03-29T07:06:13Z</time></trkpt><trkpt lat="44.90485497582871" lon="9.87267997428781"><ele>99.0</ele><time>2026-03-29T07:06:14Z</time></trkpt><trkpt lat="44.90483935983008" lon="9.872585834702702"><ele>99.0</ele><time>2026-03-29T07:06:15Z</time></trkpt><trkpt lat="44.90482400704944" lon="9.872493282117105"><ele>99.0</ele><time>2026-03-29T07:06:16Z</time></trkpt><trkpt lat="44.90479378694449" lon="9.87240424040471"><ele>99.0</ele><time>2026-03-29T07:06:17Z</time></trkpt><trkpt lat="44.90477847958605" lon="9.872308260340683"><ele>99.0</ele><time>2026-03-29T07:06:18Z</time></trkpt><trkpt lat="44.904762341763956" lon="9.872211123922218"><ele>99.0</ele><time>2026-03-29T07:06:19Z</time></trkpt><trkpt lat="44.90476017037198" lon="9.872108448627234"><ele>99.0</ele><time>2026-03-29T07:06:20Z</time></trkpt><trkpt lat="44.904728954260115" lon="9.872017325404087"><ele>99.0</ele><time>2026-03-29T07:06:21Z</time></trkpt><trkpt lat="44.904712121788364" lon="9.871921543403905"><ele>99.0</ele><time>2026-03-29T07:06:22Z</time></trkpt><trkpt lat="44.904697347587806" lon="9.871823471233576"><ele>99.0</ele><time>2026-03-29T07:06:23Z</time></trkpt><trkpt lat="44.904682151116084" lon="9.871727158475021"><ele>99.0</ele><time>2026-03-29T07:06:24Z</time></trkpt><trkpt lat="44.90466669540677" lon="9.871630483691368"><ele>99.0</ele><time>2026-03-29T07:06:25Z</time></trkpt><trkpt lat="44.90465158067981" lon="9.871533960830723"><ele>99.0</ele><time>2026-03-29T07:06:26Z</time></trkpt><trkpt lat="44.90463318290061" lon="9.87144161876702"><ele>99.0</ele><time>2026-03-29T07:06:27Z</time></trkpt><trkpt lat="44.90461839498929" lon="9.871345295674288"><ele>99.0</ele><time>2026-03-29T07:06:28Z</time></trkpt><trkpt lat="44.904603603299066" lon="9.871251338323063"><ele>98.71428571428572</ele><time>2026-03-29T07:06:29Z</time></trkpt><trkpt lat="44.90458882832278" lon="9.871154607207131"><ele>98.42857142857142</ele><time>2026-03-29T07:06:30Z</time></trkpt><trkpt lat="44.90456999028208" lon="9.871062378814113"><ele>98.14285714285714</ele><time>2026-03-29T07:06:31Z</time></trkpt><trkpt lat="44.9045686709222" lon="9.870961927004124"><ele>97.85714285714286</ele><time>2026-03-29T07:06:32Z</time></trkpt><trkpt lat="44.90453692055371" lon="9.870871956033778"><ele>97.57142857142858</ele><time>2026-03-29T07:06:33Z</time></trkpt><trkpt lat="44.90452379608844" lon="9.870777171153474"><ele>97.28571428571428</ele><time>2026-03-29T07:06:34Z</time></trkpt><trkpt lat="44.90450961881552" lon="9.870681978556757"><ele>97.0</ele><time>2026-03-29T07:06:35Z</time></trkpt><trkpt lat="44.904494350044935" lon="9.870585230531677"><ele>96.85714285714285</ele><time>2026-03-29T07:06:36Z</time></trkpt><trkpt lat="44.90447777121462" lon="9.870489890353745"><ele>96.71428571428572</ele><time>2026-03-29T07:06:37Z</time></trkpt><trkpt lat="44.90446054355285" lon="9.870395704385409"><ele>96.57142857142857</ele><time>2026-03-29T07:06:38Z</time></trkpt><trkpt lat="44.90444783383113" lon="9.870300936542053"><ele>96.42857142857142</ele><time>2026-03-29T07:06:39Z</time></trkpt><trkpt lat="44.904433950231336" lon="9.870204864130901"><ele>96.28571428571428</ele><time>2026-03-29T07:06:40Z</time></trkpt><trkpt lat="44.90441936781461" lon="9.87011154330477"><ele>96.14285714285714</ele><time>2026-03-29T07:06:41Z</time></trkpt><trkpt lat="44.90440336480901" lon="9.870016705015699"><ele>96.0</ele><time>2026-03-29T07:06:42Z</time></trkpt><trkpt lat="44.90438919656031" lon="9.869922405702948"><ele>95.99999999999999</ele><time>2026-03-29T07:06:43Z</time></trkpt><trkpt lat="44.9043726651107" lon="9.869829773163964"><ele>96.0</ele><time>2026-03-29T07:06:44Z</time></trkpt><trkpt lat="44.90435610240402" lon="9.869738210327846"><ele>96.0</ele><time>2026-03-29T07:06:45Z</time></trkpt><trkpt lat="44.90434157458316" lon="9.869646557676692"><ele>96.0</ele><time>2026-03-29T07:06:46Z</time></trkpt><trkpt lat="44.904326363949686" lon="9.869555748893667"><ele>96.0</ele><time>2026-03-29T07:06:47Z</time></trkpt><trkpt lat="44.90430918331239" lon="9.86946397427659"><ele>95.99999999999999</ele><time>2026-03-29T07:06:48Z</time></trkpt><trkpt lat="44.90430642659671" lon="9.869365540207717"><ele>96.0</ele><time>2026-03-29T07:06:49Z</time></trkpt><trkpt lat="44.90428113528725" lon="9.869277186562494"><ele>96.14285714285714</ele><time>2026-03-29T07:06:50Z</time></trkpt><trkpt lat="44.9042366798379" lon="9.86920159083679"><ele>96.28571428571428</ele><time>2026-03-29T07:06:50.999Z</time></trkpt><trkpt lat="44.90422245918183" lon="9.869110482444551"><ele>96.42857142857142</ele><time>2026-03-29T07:06:51.999Z</time></trkpt><trkpt lat="44.90415232572625" lon="9.869059627578126"><ele>96.57142857142857</ele><time>2026-03-29T07:06:52.999Z</time></trkpt><trkpt lat="44.90410512426498" lon="9.868993060499324"><ele>96.71428571428572</ele><time>2026-03-29T07:06:53.999Z</time></trkpt><trkpt lat="44.904059993335714" lon="9.868925185721869"><ele>96.85714285714285</ele><time>2026-03-29T07:06:54.999Z</time></trkpt><trkpt lat="44.90401148776329" lon="9.868860735618027"><ele>97.0</ele><time>2026-03-29T07:06:55.999Z</time></trkpt><trkpt lat="44.90396192645056" lon="9.868795188295632"><ele>97.0</ele><time>2026-03-29T07:06:56.999Z</time></trkpt><trkpt lat="44.903914118662" lon="9.868725917666232"><ele>97.0</ele><time>2026-03-29T07:06:57.999Z</time></trkpt><trkpt lat="44.90386572290444" lon="9.868658853137951"><ele>97.0</ele><time>2026-03-29T07:06:58.999Z</time></trkpt><trkpt lat="44.9038192967207" lon="9.868595000765893"><ele>97.0</ele><time>2026-03-29T07:06:59.999Z</time></trkpt><trkpt lat="44.903770760192195" lon="9.868533078203912"><ele>97.0</ele><time>2026-03-29T07:07:00.999Z</time></trkpt><trkpt lat="44.903722433417194" lon="9.86846636438963"><ele>97.0</ele><time>2026-03-29T07:07:01.999Z</time></trkpt><trkpt lat="44.90367858581259" lon="9.868401769347422"><ele>97.0</ele><time>2026-03-29T07:07:02.999Z</time></trkpt><trkpt lat="44.90363121050693" lon="9.868339800557013"><ele>97.0</ele><time>2026-03-29T07:07:03.999Z</time></trkpt><trkpt lat="44.90358427484489" lon="9.868277179231063"><ele>97.0</ele><time>2026-03-29T07:07:04.999Z</time></trkpt><trkpt lat="44.90353784824457" lon="9.868212643506688"><ele>97.0</ele><time>2026-03-29T07:07:05.999Z</time></trkpt><trkpt lat="44.903491118073106" lon="9.868147703090969"><ele>97.0</ele><time>2026-03-29T07:07:06.999Z</time></trkpt><trkpt lat="44.903446371501836" lon="9.868076972896363"><ele>97.0</ele><time>2026-03-29T07:07:07.999Z</time></trkpt><trkpt lat="44.903400638002225" lon="9.86800773172493"><ele>97.0</ele><time>2026-03-29T07:07:08.999Z</time></trkpt><trkpt lat="44.90335308939626" lon="9.867941142869343"><ele>97.0</ele><time>2026-03-29T07:07:09.999Z</time></trkpt><trkpt lat="44.9033027838685" lon="9.86787228832875"><ele>97.0</ele><time>2026-03-29T07:07:10.999Z</time></trkpt><trkpt lat="44.903252713082814" lon="9.867805170348076"><ele>97.0</ele><time>2026-03-29T07:07:11.999Z</time></trkpt><trkpt lat="44.90320263188258" lon="9.867737856843826"><ele>97.0</ele><time>2026-03-29T07:07:12.999Z</time></trkpt><trkpt lat="44.90315311073431" lon="9.867665927036063"><ele>97.0</ele><time>2026-03-29T07:07:13.999Z</time></trkpt><trkpt lat="44.90310185769765" lon="9.867596697123947"><ele>97.0</ele><time>2026-03-29T07:07:14.999Z</time></trkpt><trkpt lat="44.903050246060914" lon="9.867528248024378"><ele>97.0</ele><time>2026-03-29T07:07:15.999Z</time></trkpt><trkpt lat="44.90299904035678" lon="9.867455906409068"><ele>97.0</ele><time>2026-03-29T07:07:16.999Z</time></trkpt><trkpt lat="44.90294704380502" lon="9.867385074344257"><ele>96.85714285714285</ele><time>2026-03-29T07:07:17.999Z</time></trkpt><trkpt lat="44.90289354152814" lon="9.86731625979355"><ele>96.71428571428572</ele><time>2026-03-29T07:07:18.999Z</time></trkpt><trkpt lat="44.9028409415503" lon="9.867252888764746"><ele>96.57142857142857</ele><time>2026-03-29T07:07:19.999Z</time></trkpt><trkpt lat="44.9027923055709" lon="9.867184004571328"><ele>96.42857142857142</ele><time>2026-03-29T07:07:20.999Z</time></trkpt><trkpt lat="44.90274413555811" lon="9.867113219919895"><ele>96.28571428571428</ele><time>2026-03-29T07:07:21.999Z</time></trkpt><trkpt lat="44.90269632552869" lon="9.867048571264686"><ele>96.14285714285714</ele><time>2026-03-29T07:07:22.999Z</time></trkpt><trkpt lat="44.90264664165239" lon="9.866986269151184"><ele>96.0</ele><time>2026-03-29T07:07:23.999Z</time></trkpt><trkpt lat="44.90259717441479" lon="9.866925880207273"><ele>95.71428571428571</ele><time>2026-03-29T07:07:24.999Z</time></trkpt><trkpt lat="44.90254844472288" lon="9.866860736082131"><ele>95.42857142857143</ele><time>2026-03-29T07:07:25.999Z</time></trkpt><trkpt lat="44.902501555602704" lon="9.86679676909279"><ele>95.14285714285714</ele><time>2026-03-29T07:07:26.999Z</time></trkpt><trkpt lat="44.90245503234209" lon="9.866731394029355"><ele>94.85714285714286</ele><time>2026-03-29T07:07:27.999Z</time></trkpt><trkpt lat="44.90240458076343" lon="9.86666801484307"><ele>94.57142857142857</ele><time>2026-03-29T07:07:28.999Z</time></trkpt><trkpt lat="44.9023566193182" lon="9.86660452398863"><ele>94.28571428571428</ele><time>2026-03-29T07:07:29.999Z</time></trkpt><trkpt lat="44.90231015055866" lon="9.86653642178078"><ele>94.0</ele><time>2026-03-29T07:07:30.999Z</time></trkpt><trkpt lat="44.90226766143864" lon="9.866468481015731"><ele>94.0</ele><time>2026-03-29T07:07:31.999Z</time></trkpt><trkpt lat="44.902221259615295" lon="9.86640089874688"><ele>94.0</ele><time>2026-03-29T07:07:32.999Z</time></trkpt><trkpt lat="44.902178164855805" lon="9.86633533483668"><ele>94.0</ele><time>2026-03-29T07:07:33.999Z</time></trkpt><trkpt lat="44.90213743371782" lon="9.866262952413816"><ele>94.0</ele><time>2026-03-29T07:07:34.999Z</time></trkpt><trkpt lat="44.90210466425156" lon="9.86618187841762"><ele>94.0</ele><time>2026-03-29T07:07:35.999Z</time></trkpt><trkpt lat="44.90207480255033" lon="9.86610252165001"><ele>94.0</ele><time>2026-03-29T07:07:36.999Z</time></trkpt><trkpt lat="44.90204832383603" lon="9.866018099674932"><ele>94.0</ele><time>2026-03-29T07:07:37.999Z</time></trkpt><trkpt lat="44.90201098485591" lon="9.865842790995144"><ele>94.0</ele><time>2026-03-29T07:07:39.999Z</time></trkpt><trkpt lat="44.90197059519403" lon="9.865676242731247"><ele>94.0</ele><time>2026-03-29T07:07:41.999Z</time></trkpt><trkpt lat="44.9019255815055" lon="9.8655241311038"><ele>94.0</ele><time>2026-03-29T07:07:43.998Z</time></trkpt><trkpt lat="44.90187885375947" lon="9.865373856589871"><ele>94.0</ele><time>2026-03-29T07:07:45.998Z</time></trkpt><trkpt lat="44.901825362204214" lon="9.865221179470634"><ele>94.0</ele><time>2026-03-29T07:07:47.998Z</time></trkpt><trkpt lat="44.901788067391074" lon="9.865145582130566"><ele>94.0</ele><time>2026-03-29T07:07:48.998Z</time></trkpt><trkpt lat="44.901703921750716" lon="9.86500590473811"><ele>94.0</ele><time>2026-03-29T07:07:50.998Z</time></trkpt><trkpt lat="44.90165176962341" lon="9.864949417801414"><ele>94.0</ele><time>2026-03-29T07:07:51.998Z</time></trkpt><trkpt lat="44.90159908764439" lon="9.864897780402233"><ele>94.0</ele><time>2026-03-29T07:07:52.998Z</time></trkpt><trkpt lat="44.90154137903788" lon="9.864851988173358"><ele>94.0</ele><time>2026-03-29T07:07:53.998Z</time></trkpt><trkpt lat="44.90148106276928" lon="9.864810200791558"><ele>94.57142857142857</ele><time>2026-03-29T07:07:54.998Z</time></trkpt><trkpt lat="44.901421892326326" lon="9.86477026277104"><ele>95.14285714285714</ele><time>2026-03-29T07:07:55.998Z</time></trkpt><trkpt lat="44.901362114253736" lon="9.86472839389769"><ele>95.71428571428572</ele><time>2026-03-29T07:07:56.998Z</time></trkpt><trkpt lat="44.90130388464769" lon="9.864685133074737"><ele>96.28571428571428</ele><time>2026-03-29T07:07:57.998Z</time></trkpt><trkpt lat="44.901246897854804" lon="9.864641260594015"><ele>96.85714285714286</ele><time>2026-03-29T07:07:58.998Z</time></trkpt><trkpt lat="44.90118717501242" lon="9.86459584318812"><ele>97.42857142857143</ele><time>2026-03-29T07:07:59.998Z</time></trkpt><trkpt lat="44.901130356755466" lon="9.86455047923592"><ele>98.0</ele><time>2026-03-29T07:08:00.998Z</time></trkpt><trkpt lat="44.90107608383716" lon="9.864502192831754"><ele>98.0</ele><time>2026-03-29T07:08:01.998Z</time></trkpt><trkpt lat="44.90097499523981" lon="9.864406155359436"><ele>98.0</ele><time>2026-03-29T07:08:03.998Z</time></trkpt><trkpt lat="44.90087593580843" lon="9.86430908423461"><ele>98.0</ele><time>2026-03-29T07:08:06Z</time></trkpt><trkpt lat="44.90077612983354" lon="9.864216012592106"><ele>98.0</ele><time>2026-03-29T07:08:08Z</time></trkpt><trkpt lat="44.90072040058896" lon="9.864160830434232"><ele>98.0</ele><time>2026-03-29T07:08:09Z</time></trkpt><trkpt lat="44.90066351991135" lon="9.864114342472607"><ele>97.49999999999999</ele><time>2026-03-29T07:08:10Z</time></trkpt><trkpt lat="44.90060869707654" lon="9.864066560002785"><ele>97.0</ele><time>2026-03-29T07:08:11Z</time></trkpt><trkpt lat="44.90050784520994" lon="9.863968446439582"><ele>96.5</ele><time>2026-03-29T07:08:13Z</time></trkpt><trkpt lat="44.90040682614597" lon="9.863875493059991"><ele>96.0</ele><time>2026-03-29T07:08:15Z</time></trkpt><trkpt lat="44.90035211543741" lon="9.863819253434382"><ele>95.5</ele><time>2026-03-29T07:08:16Z</time></trkpt><trkpt lat="44.900296553413305" lon="9.863763953404304"><ele>95.0</ele><time>2026-03-29T07:08:17Z</time></trkpt><trkpt lat="44.90023856071775" lon="9.863706199299608"><ele>95.0</ele><time>2026-03-29T07:08:18Z</time></trkpt><trkpt lat="44.900177389394884" lon="9.863651568280149"><ele>95.0</ele><time>2026-03-29T07:08:19Z</time></trkpt><trkpt lat="44.90011571684787" lon="9.863597461935306"><ele>95.0</ele><time>2026-03-29T07:08:20Z</time></trkpt><trkpt lat="44.9000576450511" lon="9.86353831580687"><ele>95.0</ele><time>2026-03-29T07:08:21Z</time></trkpt><trkpt lat="44.900002276465806" lon="9.86347598521933"><ele>95.0</ele><time>2026-03-29T07:08:22Z</time></trkpt><trkpt lat="44.89995329575275" lon="9.863405747710209"><ele>95.0</ele><time>2026-03-29T07:08:23Z</time></trkpt><trkpt lat="44.899909974262386" lon="9.863328334294374"><ele>95.0</ele><time>2026-03-29T07:08:24Z</time></trkpt><trkpt lat="44.89986739037316" lon="9.8632512534384"><ele>95.0</ele><time>2026-03-29T07:08:25Z</time></trkpt><trkpt lat="44.899816966017084" lon="9.863183883858614"><ele>95.0</ele><time>2026-03-29T07:08:26Z</time></trkpt><trkpt lat="44.89975961647799" lon="9.863127302325227"><ele>95.0</ele><time>2026-03-29T07:08:27Z</time></trkpt><trkpt lat="44.899698423570044" lon="9.863081932924347"><ele>95.0</ele><time>2026-03-29T07:08:28Z</time></trkpt><trkpt lat="44.89963795528344" lon="9.86303956006401"><ele>95.0</ele><time>2026-03-29T07:08:29Z</time></trkpt><trkpt lat="44.89957709447875" lon="9.862998106116013"><ele>95.0</ele><time>2026-03-29T07:08:30Z</time></trkpt><trkpt lat="44.899516525786424" lon="9.862956622635311"><ele>95.0</ele><time>2026-03-29T07:08:31Z</time></trkpt><trkpt lat="44.899455510351764" lon="9.862915900543156"><ele>95.0</ele><time>2026-03-29T07:08:32Z</time></trkpt><trkpt lat="44.89939588102884" lon="9.86287662404791"><ele>95.0</ele><time>2026-03-29T07:08:33Z</time></trkpt><trkpt lat="44.89933390387077" lon="9.86283601172995"><ele>95.0</ele><time>2026-03-29T07:08:34Z</time></trkpt><trkpt lat="44.89927397669241" lon="9.862793524167063"><ele>95.0</ele><time>2026-03-29T07:08:35Z</time></trkpt><trkpt lat="44.89921316029578" lon="9.862756617193055"><ele>95.0</ele><time>2026-03-29T07:08:36Z</time></trkpt><trkpt lat="44.89915257461438" lon="9.862720187944621"><ele>95.0</ele><time>2026-03-29T07:08:37Z</time></trkpt><trkpt lat="44.89909287074469" lon="9.862685997927922"><ele>95.0</ele><time>2026-03-29T07:08:38Z</time></trkpt><trkpt lat="44.8990348538564" lon="9.862647408078347"><ele>95.42857142857143</ele><time>2026-03-29T07:08:39Z</time></trkpt><trkpt lat="44.89897738965543" lon="9.862605223076438"><ele>95.85714285714286</ele><time>2026-03-29T07:08:40Z</time></trkpt><trkpt lat="44.898920074153224" lon="9.862564823520701"><ele>96.28571428571428</ele><time>2026-03-29T07:08:41Z</time></trkpt><trkpt lat="44.898860491077905" lon="9.862525350438066"><ele>96.71428571428572</ele><time>2026-03-29T07:08:42Z</time></trkpt><trkpt lat="44.898802714500185" lon="9.862485080396773"><ele>97.14285714285714</ele><time>2026-03-29T07:08:43Z</time></trkpt><trkpt lat="44.8987446659396" lon="9.862446707671502"><ele>97.57142857142857</ele><time>2026-03-29T07:08:44Z</time></trkpt><trkpt lat="44.8986852642089" lon="9.862405863700308"><ele>98.0</ele><time>2026-03-29T07:08:45Z</time></trkpt><trkpt lat="44.898629578598424" lon="9.862364189911185"><ele>98.0</ele><time>2026-03-29T07:08:46Z</time></trkpt><trkpt lat="44.89857054193183" lon="9.862324834687515"><ele>98.0</ele><time>2026-03-29T07:08:47Z</time></trkpt><trkpt lat="44.89851195625166" lon="9.86228970774582"><ele>98.0</ele><time>2026-03-29T07:08:48Z</time></trkpt><trkpt lat="44.898453117019315" lon="9.862257301978236"><ele>98.0</ele><time>2026-03-29T07:08:49Z</time></trkpt><trkpt lat="44.89839179323466" lon="9.862229322114768"><ele>98.0</ele><time>2026-03-29T07:08:50Z</time></trkpt><trkpt lat="44.898329333792056" lon="9.862206043088026"><ele>98.0</ele><time>2026-03-29T07:08:51Z</time></trkpt><trkpt lat="44.89826643337534" lon="9.862185840803171"><ele>98.0</ele><time>2026-03-29T07:08:52Z</time></trkpt><trkpt lat="44.8981418965275" lon="9.862162124683362"><ele>98.16666666666666</ele><time>2026-03-29T07:08:54Z</time></trkpt><trkpt lat="44.89802019721051" lon="9.86215234213713"><ele>98.33333333333333</ele><time>2026-03-29T07:08:55.999Z</time></trkpt><trkpt lat="44.89789695610166" lon="9.862132790281603"><ele>98.5</ele><time>2026-03-29T07:08:57.999Z</time></trkpt><trkpt lat="44.897835479218024" lon="9.862112310941361"><ele>98.66666666666666</ele><time>2026-03-29T07:08:58.999Z</time></trkpt><trkpt lat="44.89777640283624" lon="9.862076616630652"><ele>98.83333333333333</ele><time>2026-03-29T07:08:59.999Z</time></trkpt><trkpt lat="44.89772585336577" lon="9.862019833753573"><ele>99.0</ele><time>2026-03-29T07:09:00.999Z</time></trkpt><trkpt lat="44.89768833701403" lon="9.861941485925081"><ele>99.0</ele><time>2026-03-29T07:09:01.999Z</time></trkpt><trkpt lat="44.897672151330184" lon="9.861847473121987"><ele>99.0</ele><time>2026-03-29T07:09:02.999Z</time></trkpt><trkpt lat="44.897671654481854" lon="9.861753063987738"><ele>99.0</ele><time>2026-03-29T07:09:03.999Z</time></trkpt><trkpt lat="44.89767673953569" lon="9.861663404056067"><ele>99.0</ele><time>2026-03-29T07:09:04.999Z</time></trkpt><trkpt lat="44.897683373154244" lon="9.861483715538292"><ele>99.0</ele><time>2026-03-29T07:09:06.999Z</time></trkpt><trkpt lat="44.89768488799201" lon="9.861393272912835"><ele>99.0</ele><time>2026-03-29T07:09:07.999Z</time></trkpt><trkpt lat="44.89767452911799" lon="9.861301785239856"><ele>99.16666666666667</ele><time>2026-03-29T07:09:08.999Z</time></trkpt><trkpt lat="44.897645001771274" lon="9.861214852495518"><ele>99.33333333333334</ele><time>2026-03-29T07:09:09.999Z</time></trkpt><trkpt lat="44.897606388884356" lon="9.861137069145775"><ele>99.5</ele><time>2026-03-29T07:09:10.999Z</time></trkpt><trkpt lat="44.89757998541473" lon="9.861052450714453"><ele>99.66666666666667</ele><time>2026-03-29T07:09:11.999Z</time></trkpt><trkpt lat="44.897433838732226" lon="9.860996416345602"><ele>99.83333333333334</ele><time>2026-03-29T07:09:13.999Z</time></trkpt><trkpt lat="44.89737229682647" lon="9.860968937467188"><ele>100.0</ele><time>2026-03-29T07:09:14.999Z</time></trkpt><trkpt lat="44.89725216123415" lon="9.860920367368706"><ele>100.0</ele><time>2026-03-29T07:09:16.999Z</time></trkpt><trkpt lat="44.897133857726786" lon="9.86086836164857"><ele>100.0</ele><time>2026-03-29T07:09:18.999Z</time></trkpt><trkpt lat="44.8970201501632" lon="9.860817089120806"><ele>100.0</ele><time>2026-03-29T07:09:20.999Z</time></trkpt><trkpt lat="44.89691248082544" lon="9.860762024332727"><ele>100.0</ele><time>2026-03-29T07:09:22.999Z</time></trkpt><trkpt lat="44.89679651359751" lon="9.860709962620794"><ele>100.4</ele><time>2026-03-29T07:09:24.999Z</time></trkpt><trkpt lat="44.896676133529866" lon="9.860656648596855"><ele>100.8</ele><time>2026-03-29T07:09:26.999Z</time></trkpt><trkpt lat="44.89655392846096" lon="9.860607837969749"><ele>101.19999999999999</ele><time>2026-03-29T07:09:28.999Z</time></trkpt><trkpt lat="44.89648993245358" lon="9.860578246380102"><ele>101.6</ele><time>2026-03-29T07:09:29.999Z</time></trkpt><trkpt lat="44.896423784109956" lon="9.860545866564326"><ele>102.0</ele><time>2026-03-29T07:09:30.999Z</time></trkpt><trkpt lat="44.89636271100557" lon="9.860520197632937"><ele>102.0</ele><time>2026-03-29T07:09:31.999Z</time></trkpt><trkpt lat="44.89630024168403" lon="9.860490591954456"><ele>102.0</ele><time>2026-03-29T07:09:32.999Z</time></trkpt><trkpt lat="44.896235430568375" lon="9.860461147964907"><ele>102.0</ele><time>2026-03-29T07:09:33.999Z</time></trkpt><trkpt lat="44.896170960006884" lon="9.860433777710057"><ele>102.0</ele><time>2026-03-29T07:09:34.999Z</time></trkpt><trkpt lat="44.896106567286004" lon="9.860408294154471"><ele>102.0</ele><time>2026-03-29T07:09:35.999Z</time></trkpt><trkpt lat="44.89604277775634" lon="9.860383484836866"><ele>102.0</ele><time>2026-03-29T07:09:36.999Z</time></trkpt><trkpt lat="44.895980106443865" lon="9.860356741138501"><ele>102.0</ele><time>2026-03-29T07:09:37.999Z</time></trkpt><trkpt lat="44.895917527336266" lon="9.860328959601881"><ele>102.0</ele><time>2026-03-29T07:09:38.999Z</time></trkpt><trkpt lat="44.89585389981041" lon="9.860300108171426"><ele>102.0</ele><time>2026-03-29T07:09:39.999Z</time></trkpt><trkpt lat="44.89579027111963" lon="9.86027255038536"><ele>102.0</ele><time>2026-03-29T07:09:40.999Z</time></trkpt><trkpt lat="44.89572752663888" lon="9.860245843652846"><ele>102.0</ele><time>2026-03-29T07:09:41.999Z</time></trkpt><trkpt lat="44.89566412984405" lon="9.86021453499068"><ele>102.0</ele><time>2026-03-29T07:09:42.999Z</time></trkpt><trkpt lat="44.89560383372356" lon="9.860186271770901"><ele>102.0</ele><time>2026-03-29T07:09:43.999Z</time></trkpt><trkpt lat="44.895542281155905" lon="9.860160004559809"><ele>102.0</ele><time>2026-03-29T07:09:44.999Z</time></trkpt><trkpt lat="44.89542332834023" lon="9.860107917349062"><ele>102.0</ele><time>2026-03-29T07:09:46.999Z</time></trkpt><trkpt lat="44.89530388734914" lon="9.860054278748455"><ele>102.0</ele><time>2026-03-29T07:09:48.998Z</time></trkpt><trkpt lat="44.8951830250087" lon="9.860004237538682"><ele>102.0</ele><time>2026-03-29T07:09:50.998Z</time></trkpt><trkpt lat="44.89506781429711" lon="9.859956246881765"><ele>102.0</ele><time>2026-03-29T07:09:52.998Z</time></trkpt><trkpt lat="44.89495405921525" lon="9.85990639441579"><ele>102.0</ele><time>2026-03-29T07:09:54.998Z</time></trkpt><trkpt lat="44.89484104754622" lon="9.8598456616221"><ele>102.0</ele><time>2026-03-29T07:09:56.998Z</time></trkpt><trkpt lat="44.89474138711405" lon="9.859742130193938"><ele>102.0</ele><time>2026-03-29T07:09:58.998Z</time></trkpt><trkpt lat="44.8947024110651" lon="9.859671398604052"><ele>102.0</ele><time>2026-03-29T07:09:59.998Z</time></trkpt><trkpt lat="44.894668737043894" lon="9.85950116168301"><ele>102.0</ele><time>2026-03-29T07:10:01.998Z</time></trkpt><trkpt lat="44.89466458481156" lon="9.859329660865871"><ele>102.5</ele><time>2026-03-29T07:10:03.998Z</time></trkpt><trkpt lat="44.89466246595466" lon="9.859162938689598"><ele>103.0</ele><time>2026-03-29T07:10:05.998Z</time></trkpt><trkpt lat="44.8946548809657" lon="9.858997024537903"><ele>103.5</ele><time>2026-03-29T07:10:07.998Z</time></trkpt><trkpt lat="44.894649901555326" lon="9.858837661833949"><ele>104.0</ele><time>2026-03-29T07:10:09.998Z</time></trkpt><trkpt lat="44.894639458049504" lon="9.858679640301466"><ele>104.0</ele><time>2026-03-29T07:10:12Z</time></trkpt><trkpt lat="44.894636286522825" lon="9.858523486566956"><ele>104.0</ele><time>2026-03-29T07:10:14Z</time></trkpt><trkpt lat="44.89462795134123" lon="9.85837185603583"><ele>104.0</ele><time>2026-03-29T07:10:16Z</time></trkpt><trkpt lat="44.894621761837115" lon="9.858220772161125"><ele>104.0</ele><time>2026-03-29T07:10:18Z</time></trkpt><trkpt lat="44.89461772370249" lon="9.858069731686118"><ele>104.0</ele><time>2026-03-29T07:10:20Z</time></trkpt><trkpt lat="44.89461374957181" lon="9.857924713127748"><ele>104.80000000000001</ele><time>2026-03-29T07:10:22Z</time></trkpt><trkpt lat="44.89461065479207" lon="9.857826495471011"><ele>105.60000000000001</ele><time>2026-03-29T07:10:24Z</time></trkpt><trkpt lat="44.89460878091321" lon="9.857691755535582"><ele>106.4</ele><time>2026-03-29T07:10:26Z</time></trkpt><trkpt lat="44.894606639117" lon="9.857553421151238"><ele>107.2</ele><time>2026-03-29T07:10:28Z</time></trkpt><trkpt lat="44.89460434702601" lon="9.857411837305296"><ele>108.0</ele><time>2026-03-29T07:10:30Z</time></trkpt><trkpt lat="44.894601091433444" lon="9.85727716999033"><ele>108.16666666666667</ele><time>2026-03-29T07:10:32Z</time></trkpt><trkpt lat="44.89459540791542" lon="9.857141803334184"><ele>108.33333333333334</ele><time>2026-03-29T07:10:34Z</time></trkpt><trkpt lat="44.89459431169215" lon="9.857012998860974"><ele>108.5</ele><time>2026-03-29T07:10:36Z</time></trkpt><trkpt lat="44.89456952464906" lon="9.856884497981149"><ele>108.66666666666667</ele><time>2026-03-29T07:10:38Z</time></trkpt><trkpt lat="44.89452734818992" lon="9.856760636812163"><ele>108.83333333333334</ele><time>2026-03-29T07:10:40Z</time></trkpt><trkpt lat="44.89446921133262" lon="9.856725485249223"><ele>109.0</ele><time>2026-03-29T07:10:41Z</time></trkpt><trkpt lat="44.89437689133178" lon="9.856692325329533"><ele>109.6</ele><time>2026-03-29T07:10:43Z</time></trkpt><trkpt lat="44.89430527524457" lon="9.85665769504268"><ele>110.2</ele><time>2026-03-29T07:10:45Z</time></trkpt><trkpt lat="44.894166077566354" lon="9.856575451698786"><ele>110.79999999999998</ele><time>2026-03-29T07:10:46Z</time></trkpt><trkpt lat="44.89405880235205" lon="9.856527900448933"><ele>111.39999999999999</ele><time>2026-03-29T07:10:48Z</time></trkpt><trkpt lat="44.89397022337172" lon="9.856442699572478"><ele>112.0</ele><time>2026-03-29T07:10:50Z</time></trkpt><trkpt lat="44.89392903177223" lon="9.856287763868446"><ele>112.0</ele><time>2026-03-29T07:10:52Z</time></trkpt><trkpt lat="44.89395302107717" lon="9.85612035796814"><ele>112.0</ele><time>2026-03-29T07:10:54Z</time></trkpt><trkpt lat="44.89398267998069" lon="9.85594803176206"><ele>112.0</ele><time>2026-03-29T07:10:56Z</time></trkpt><trkpt lat="44.89400371696486" lon="9.855776738620735"><ele>112.0</ele><time>2026-03-29T07:10:58Z</time></trkpt><trkpt lat="44.89402581991792" lon="9.85560513080066"><ele>112.0</ele><time>2026-03-29T07:11:00Z</time></trkpt><trkpt lat="44.894044657908125" lon="9.855434984157498"><ele>112.0</ele><time>2026-03-29T07:11:01.999Z</time></trkpt><trkpt lat="44.89406639218211" lon="9.855270589611429"><ele>112.0</ele><time>2026-03-29T07:11:03.999Z</time></trkpt><trkpt lat="44.89407052887534" lon="9.85512197505613"><ele>112.0</ele><time>2026-03-29T07:11:05.999Z</time></trkpt><trkpt lat="44.89410594762179" lon="9.85496390071396"><ele>112.00000000000001</ele><time>2026-03-29T07:11:07.999Z</time></trkpt><trkpt lat="44.8941167666777" lon="9.854873818339108"><ele>112.0</ele><time>2026-03-29T07:11:08.999Z</time></trkpt><trkpt lat="44.894128000784754" lon="9.8547802801931"><ele>112.0</ele><time>2026-03-29T07:11:09.999Z</time></trkpt><trkpt lat="44.894139862165474" lon="9.85467772692604"><ele>112.0</ele><time>2026-03-29T07:11:10.999Z</time></trkpt><trkpt lat="44.89416012158824" lon="9.854498119874792"><ele>112.00000000000001</ele><time>2026-03-29T07:11:12.999Z</time></trkpt><trkpt lat="44.89417086392475" lon="9.854402885205944"><ele>112.0</ele><time>2026-03-29T07:11:13.999Z</time></trkpt><trkpt lat="44.89418145779434" lon="9.854308966787057"><ele>111.85714285714286</ele><time>2026-03-29T07:11:14.999Z</time></trkpt><trkpt lat="44.8941918688466" lon="9.854216669030365"><ele>111.71428571428572</ele><time>2026-03-29T07:11:15.999Z</time></trkpt><trkpt lat="44.89420232903922" lon="9.854123935706788"><ele>111.57142857142857</ele><time>2026-03-29T07:11:16.999Z</time></trkpt><trkpt lat="44.89421293218131" lon="9.85402993489658"><ele>111.42857142857143</ele><time>2026-03-29T07:11:17.999Z</time></trkpt><trkpt lat="44.89422382155933" lon="9.853938922515082"><ele>111.28571428571429</ele><time>2026-03-29T07:11:18.999Z</time></trkpt><trkpt lat="44.89423486659007" lon="9.853847570678026"><ele>111.14285714285714</ele><time>2026-03-29T07:11:19.999Z</time></trkpt><trkpt lat="44.894245881465295" lon="9.853756468141926"><ele>111.0</ele><time>2026-03-29T07:11:20.999Z</time></trkpt><trkpt lat="44.89425689445419" lon="9.853665381293945"><ele>110.66666666666667</ele><time>2026-03-29T07:11:21.999Z</time></trkpt><trkpt lat="44.894267718168955" lon="9.853575859907448"><ele>110.33333333333334</ele><time>2026-03-29T07:11:22.999Z</time></trkpt><trkpt lat="44.89427881925204" lon="9.853484044443055"><ele>110.0</ele><time>2026-03-29T07:11:23.999Z</time></trkpt><trkpt lat="44.894289532584075" lon="9.853395435982158"><ele>109.66666666666667</ele><time>2026-03-29T07:11:24.999Z</time></trkpt><trkpt lat="44.894300232077754" lon="9.853307069464487"><ele>109.33333333333334</ele><time>2026-03-29T07:11:25.999Z</time></trkpt><trkpt lat="44.894321168101875" lon="9.853134793661946"><ele>109.0</ele><time>2026-03-29T07:11:27.999Z</time></trkpt><trkpt lat="44.89434162555875" lon="9.85296645592999"><ele>109.2</ele><time>2026-03-29T07:11:29.999Z</time></trkpt><trkpt lat="44.89436136184435" lon="9.852799524650331"><ele>109.4</ele><time>2026-03-29T07:11:31.999Z</time></trkpt><trkpt lat="44.894380962445794" lon="9.852628420008818"><ele>109.6</ele><time>2026-03-29T07:11:33.999Z</time></trkpt><trkpt lat="44.8943911425485" lon="9.852539552365945"><ele>109.8</ele><time>2026-03-29T07:11:34.999Z</time></trkpt><trkpt lat="44.8944106141348" lon="9.852369573837112"><ele>110.0</ele><time>2026-03-29T07:11:36.999Z</time></trkpt><trkpt lat="44.894406630985955" lon="9.852278842435895"><ele>110.0</ele><time>2026-03-29T07:11:37.999Z</time></trkpt><trkpt lat="44.894428029638185" lon="9.852115471418323"><ele>110.0</ele><time>2026-03-29T07:11:39.999Z</time></trkpt><trkpt lat="44.89444887822845" lon="9.851950673438647"><ele>110.0</ele><time>2026-03-29T07:11:41.999Z</time></trkpt><trkpt lat="44.89446981413238" lon="9.8517851604637"><ele>110.0</ele><time>2026-03-29T07:11:43.999Z</time></trkpt><trkpt lat="44.89449282553191" lon="9.851615950824714"><ele>110.4</ele><time>2026-03-29T07:11:45.999Z</time></trkpt><trkpt lat="44.894508759549254" lon="9.851451298290709"><ele>110.8</ele><time>2026-03-29T07:11:47.999Z</time></trkpt><trkpt lat="44.894537924518744" lon="9.851287695588338"><ele>111.19999999999999</ele><time>2026-03-29T07:11:49.999Z</time></trkpt><trkpt lat="44.894539574137916" lon="9.851107684557249"><ele>111.6</ele><time>2026-03-29T07:11:51.999Z</time></trkpt><trkpt lat="44.89452600035453" lon="9.851015792431864"><ele>112.0</ele><time>2026-03-29T07:11:52.998Z</time></trkpt><trkpt lat="44.89449421410496" lon="9.850926529571991"><ele>112.16666666666667</ele><time>2026-03-29T07:11:53.998Z</time></trkpt><trkpt lat="44.89443706038083" lon="9.850851316190873"><ele>112.33333333333334</ele><time>2026-03-29T07:11:54.998Z</time></trkpt><trkpt lat="44.8943586840828" lon="9.850807769813024"><ele>112.5</ele><time>2026-03-29T07:11:55.998Z</time></trkpt><trkpt lat="44.89428600492717" lon="9.850790176800855"><ele>112.66666666666666</ele><time>2026-03-29T07:11:56.998Z</time></trkpt><trkpt lat="44.894215805418405" lon="9.850785136496278"><ele>112.83333333333333</ele><time>2026-03-29T07:11:57.998Z</time></trkpt><trkpt lat="44.89415093493911" lon="9.850776353765824"><ele>113.0</ele><time>2026-03-29T07:11:58.998Z</time></trkpt><trkpt lat="44.89402840875959" lon="9.850761603710762"><ele>113.0</ele><time>2026-03-29T07:12:00.998Z</time></trkpt><trkpt lat="44.89391104344967" lon="9.8507483212799"><ele>113.0</ele><time>2026-03-29T07:12:02.998Z</time></trkpt><trkpt lat="44.8937992394578" lon="9.850735668268761"><ele>113.0</ele><time>2026-03-29T07:12:04.998Z</time></trkpt><trkpt lat="44.89368499627657" lon="9.85072372735788"><ele>113.0</ele><time>2026-03-29T07:12:06.998Z</time></trkpt><trkpt lat="44.89357074358646" lon="9.850710282812715"><ele>112.99999999999999</ele><time>2026-03-29T07:12:08.998Z</time></trkpt><trkpt lat="44.89347410908642" lon="9.850654353556324"><ele>113.0</ele><time>2026-03-29T07:12:10.998Z</time></trkpt><trkpt lat="44.89343541093625" lon="9.850582990183765"><ele>113.0</ele><time>2026-03-29T07:12:11.998Z</time></trkpt><trkpt lat="44.893437167569644" lon="9.850475941964245"><ele>113.0</ele><time>2026-03-29T07:12:12.998Z</time></trkpt><trkpt lat="44.89345278976082" lon="9.85036859877324"><ele>112.99999999999999</ele><time>2026-03-29T07:12:13.998Z</time></trkpt><trkpt lat="44.89346364554445" lon="9.850267133089439"><ele>113.0</ele><time>2026-03-29T07:12:14.998Z</time></trkpt><trkpt lat="44.89347352979543" lon="9.85016298828918"><ele>112.66666666666666</ele><time>2026-03-29T07:12:15.998Z</time></trkpt><trkpt lat="44.89348189057416" lon="9.85005933908093"><ele>112.33333333333333</ele><time>2026-03-29T07:12:17Z</time></trkpt><trkpt lat="44.89348758096833" lon="9.849952190162512"><ele>112.0</ele><time>2026-03-29T07:12:18Z</time></trkpt><trkpt lat="44.8934948106747" lon="9.849846120415451"><ele>111.66666666666666</ele><time>2026-03-29T07:12:19Z</time></trkpt><trkpt lat="44.893505287985654" lon="9.849740035886326"><ele>111.33333333333333</ele><time>2026-03-29T07:12:20Z</time></trkpt><trkpt lat="44.89351260900505" lon="9.84963554047053"><ele>111.0</ele><time>2026-03-29T07:12:21Z</time></trkpt><trkpt lat="44.893521344452864" lon="9.849527680405098"><ele>111.0</ele><time>2026-03-29T07:12:22Z</time></trkpt><trkpt lat="44.89353000699326" lon="9.849421762124452"><ele>111.0</ele><time>2026-03-29T07:12:23Z</time></trkpt><trkpt lat="44.893538854310286" lon="9.849316001811232"><ele>111.0</ele><time>2026-03-29T07:12:24Z</time></trkpt><trkpt lat="44.89354809393693" lon="9.849208859303257"><ele>111.0</ele><time>2026-03-29T07:12:25Z</time></trkpt><trkpt lat="44.8935570461968" lon="9.849103420805385"><ele>111.0</ele><time>2026-03-29T07:12:26Z</time></trkpt><trkpt lat="44.89358147491884" lon="9.848999045018653"><ele>111.0</ele><time>2026-03-29T07:12:27Z</time></trkpt><trkpt lat="44.893574261595454" lon="9.848894108233166"><ele>110.57142857142857</ele><time>2026-03-29T07:12:28Z</time></trkpt><trkpt lat="44.89358386371496" lon="9.848793183229127"><ele>110.14285714285715</ele><time>2026-03-29T07:12:29Z</time></trkpt><trkpt lat="44.893593382365076" lon="9.848691118189695"><ele>109.71428571428572</ele><time>2026-03-29T07:12:30Z</time></trkpt><trkpt lat="44.8936028575127" lon="9.848591654659419"><ele>109.28571428571428</ele><time>2026-03-29T07:12:31Z</time></trkpt><trkpt lat="44.893612768336276" lon="9.848492862654636"><ele>108.85714285714286</ele><time>2026-03-29T07:12:32Z</time></trkpt><trkpt lat="44.89362190208633" lon="9.84839310413516"><ele>108.42857142857143</ele><time>2026-03-29T07:12:33Z</time></trkpt><trkpt lat="44.89363071149559" lon="9.848294049713708"><ele>108.0</ele><time>2026-03-29T07:12:34Z</time></trkpt><trkpt lat="44.89363956591216" lon="9.84819832756273"><ele>107.85714285714286</ele><time>2026-03-29T07:12:35Z</time></trkpt><trkpt lat="44.893646413642216" lon="9.84810295243481"><ele>107.71428571428571</ele><time>2026-03-29T07:12:36Z</time></trkpt><trkpt lat="44.893653639307594" lon="9.848008498902502"><ele>107.57142857142858</ele><time>2026-03-29T07:12:37Z</time></trkpt><trkpt lat="44.893654528249634" lon="9.847914606970718"><ele>107.42857142857143</ele><time>2026-03-29T07:12:38Z</time></trkpt><trkpt lat="44.893664193739276" lon="9.847821185381333"><ele>107.28571428571429</ele><time>2026-03-29T07:12:39Z</time></trkpt><trkpt lat="44.893620308924476" lon="9.847735615719706"><ele>107.14285714285715</ele><time>2026-03-29T07:12:40Z</time></trkpt><trkpt lat="44.8936025725816" lon="9.84764287194016"><ele>107.0</ele><time>2026-03-29T07:12:41Z</time></trkpt><trkpt lat="44.89357050720171" lon="9.847565625376609"><ele>107.39999999999999</ele><time>2026-03-29T07:12:42Z</time></trkpt><trkpt lat="44.893519894161635" lon="9.847407898348752"><ele>107.79999999999998</ele><time>2026-03-29T07:12:44Z</time></trkpt><trkpt lat="44.89349413350901" lon="9.847241253612546"><ele>108.2</ele><time>2026-03-29T07:12:46Z</time></trkpt><trkpt lat="44.89348781901437" lon="9.847068869034555"><ele>108.6</ele><time>2026-03-29T07:12:48Z</time></trkpt><trkpt lat="44.893501714097305" lon="9.84698178218443"><ele>109.0</ele><time>2026-03-29T07:12:49Z</time></trkpt><trkpt lat="44.893526799523535" lon="9.846807401709729"><ele>109.66666666666667</ele><time>2026-03-29T07:12:51Z</time></trkpt><trkpt lat="44.89353988710263" lon="9.846718439549234"><ele>110.33333333333334</ele><time>2026-03-29T07:12:52Z</time></trkpt><trkpt lat="44.89355556244333" lon="9.846631448681785"><ele>111.0</ele><time>2026-03-29T07:12:53Z</time></trkpt><trkpt lat="44.893571072084676" lon="9.846543408498789"><ele>111.66666666666666</ele><time>2026-03-29T07:12:54Z</time></trkpt><trkpt lat="44.893607342410306" lon="9.8463712507229"><ele>112.33333333333333</ele><time>2026-03-29T07:12:56Z</time></trkpt><trkpt lat="44.89364428996361" lon="9.846295664153093"><ele>113.0</ele><time>2026-03-29T07:12:57Z</time></trkpt><trkpt lat="44.89365226641671" lon="9.846201918355549"><ele>113.0</ele><time>2026-03-29T07:12:58Z</time></trkpt><trkpt lat="44.89369145690927" lon="9.846126116805676"><ele>113.0</ele><time>2026-03-29T07:12:59Z</time></trkpt><trkpt lat="44.89371610971211" lon="9.84604045810797"><ele>113.0</ele><time>2026-03-29T07:13:00Z</time></trkpt><trkpt lat="44.89374024574138" lon="9.845956595379915"><ele>113.0</ele><time>2026-03-29T07:13:01Z</time></trkpt><trkpt lat="44.8937645748445" lon="9.845872061508956"><ele>113.0</ele><time>2026-03-29T07:13:02Z</time></trkpt><trkpt lat="44.893773717071674" lon="9.845779264914551"><ele>113.0</ele><time>2026-03-29T07:13:02.999Z</time></trkpt><trkpt lat="44.89379806413604" lon="9.845695560413148"><ele>113.0</ele><time>2026-03-29T07:13:03.999Z</time></trkpt><trkpt lat="44.89383700997022" lon="9.845620379119865"><ele>113.0</ele><time>2026-03-29T07:13:04.999Z</time></trkpt><trkpt lat="44.893845604171624" lon="9.845529559144353"><ele>113.0</ele><time>2026-03-29T07:13:05.999Z</time></trkpt><trkpt lat="44.89387130143034" lon="9.84544448036695"><ele>113.0</ele><time>2026-03-29T07:13:06.999Z</time></trkpt><trkpt lat="44.89389509577576" lon="9.845358645497045"><ele>113.0</ele><time>2026-03-29T07:13:07.999Z</time></trkpt><trkpt lat="44.89390774159644" lon="9.845266593166594"><ele>113.0</ele><time>2026-03-29T07:13:08.999Z</time></trkpt><trkpt lat="44.893899612949134" lon="9.845170149625588"><ele>113.0</ele><time>2026-03-29T07:13:09.999Z</time></trkpt><trkpt lat="44.89388102579944" lon="9.84507004453466"><ele>113.0</ele><time>2026-03-29T07:13:10.999Z</time></trkpt><trkpt lat="44.89380975953783" lon="9.845001559266564"><ele>113.0</ele><time>2026-03-29T07:13:11.999Z</time></trkpt><trkpt lat="44.89372652275932" lon="9.84499895289501"><ele>113.0</ele><time>2026-03-29T07:13:12.999Z</time></trkpt><trkpt lat="44.893653579380064" lon="9.845004789778285"><ele>113.0</ele><time>2026-03-29T07:13:13.999Z</time></trkpt><trkpt lat="44.893586579919265" lon="9.844987237689779"><ele>113.0</ele><time>2026-03-29T07:13:14.999Z</time></trkpt><trkpt lat="44.89351968102785" lon="9.84498252771387"><ele>113.0</ele><time>2026-03-29T07:13:15.999Z</time></trkpt><trkpt lat="44.89345265498305" lon="9.84497835787764"><ele>113.0</ele><time>2026-03-29T07:13:16.999Z</time></trkpt><trkpt lat="44.89338481804247" lon="9.844974769783516"><ele>113.0</ele><time>2026-03-29T07:13:17.999Z</time></trkpt><trkpt lat="44.893317155266224" lon="9.844972870482525"><ele>113.14285714285714</ele><time>2026-03-29T07:13:18.999Z</time></trkpt><trkpt lat="44.89324998465885" lon="9.844993150366639"><ele>113.28571428571428</ele><time>2026-03-29T07:13:19.999Z</time></trkpt><trkpt lat="44.89318290537169" lon="9.844992998218112"><ele>113.42857142857142</ele><time>2026-03-29T07:13:20.999Z</time></trkpt><trkpt lat="44.89311454625616" lon="9.84499315667223"><ele>113.57142857142857</ele><time>2026-03-29T07:13:21.999Z</time></trkpt><trkpt lat="44.89304894775849" lon="9.84497391936646"><ele>113.7142857142857</ele><time>2026-03-29T07:13:22.999Z</time></trkpt><trkpt lat="44.892981174994986" lon="9.844976103386621"><ele>113.85714285714285</ele><time>2026-03-29T07:13:23.999Z</time></trkpt><trkpt lat="44.89291649665192" lon="9.844979756760551"><ele>114.0</ele><time>2026-03-29T07:13:24.999Z</time></trkpt><trkpt lat="44.89284954682597" lon="9.844983538469338"><ele>114.0</ele><time>2026-03-29T07:13:25.999Z</time></trkpt><trkpt lat="44.89278381245585" lon="9.844989050772767"><ele>113.99999999999999</ele><time>2026-03-29T07:13:26.999Z</time></trkpt><trkpt lat="44.892717172166414" lon="9.844995774574151"><ele>114.0</ele><time>2026-03-29T07:13:27.999Z</time></trkpt><trkpt lat="44.89265153052648" lon="9.845006080987746"><ele>114.0</ele><time>2026-03-29T07:13:28.999Z</time></trkpt><trkpt lat="44.89258542932799" lon="9.84501830192407"><ele>113.99999999999999</ele><time>2026-03-29T07:13:29.999Z</time></trkpt><trkpt lat="44.8925201177632" lon="9.845030378805006"><ele>114.0</ele><time>2026-03-29T07:13:30.999Z</time></trkpt><trkpt lat="44.89245362483636" lon="9.845043953267693"><ele>114.0</ele><time>2026-03-29T07:13:31.999Z</time></trkpt><trkpt lat="44.89238841851633" lon="9.845057901309927"><ele>114.14285714285714</ele><time>2026-03-29T07:13:32.999Z</time></trkpt><trkpt lat="44.89232374378738" lon="9.845071735652132"><ele>114.28571428571428</ele><time>2026-03-29T07:13:33.999Z</time></trkpt><trkpt lat="44.8922572705938" lon="9.845086938623195"><ele>114.42857142857142</ele><time>2026-03-29T07:13:34.999Z</time></trkpt><trkpt lat="44.89219176086611" lon="9.845102901446454"><ele>114.57142857142856</ele><time>2026-03-29T07:13:35.999Z</time></trkpt><trkpt lat="44.892124766079604" lon="9.845121463878785"><ele>114.71428571428571</ele><time>2026-03-29T07:13:36.999Z</time></trkpt><trkpt lat="44.89205802562072" lon="9.845142869051836"><ele>114.85714285714283</ele><time>2026-03-29T07:13:37.999Z</time></trkpt><trkpt lat="44.891993394536605" lon="9.845164822137805"><ele>114.99999999999999</ele><time>2026-03-29T07:13:38.999Z</time></trkpt><trkpt lat="44.89192738256469" lon="9.84518817971846"><ele>114.99999999999999</ele><time>2026-03-29T07:13:39.999Z</time></trkpt><trkpt lat="44.89186205548088" lon="9.845211995483325"><ele>115.0</ele><time>2026-03-29T07:13:40.999Z</time></trkpt><trkpt lat="44.89179451673792" lon="9.845236798853941"><ele>114.99999999999999</ele><time>2026-03-29T07:13:41.999Z</time></trkpt><trkpt lat="44.89172736102748" lon="9.84526181143046"><ele>114.99999999999999</ele><time>2026-03-29T07:13:42.999Z</time></trkpt><trkpt lat="44.89166045475223" lon="9.845286731158836"><ele>115.0</ele><time>2026-03-29T07:13:43.999Z</time></trkpt><trkpt lat="44.89159348770151" lon="9.84531167350053"><ele>114.99999999999999</ele><time>2026-03-29T07:13:44.999Z</time></trkpt><trkpt lat="44.89152693571597" lon="9.845336912682573"><ele>114.99999999999999</ele><time>2026-03-29T07:13:45.999Z</time></trkpt><trkpt lat="44.891461547022494" lon="9.845362114548317"><ele>114.99999999999999</ele><time>2026-03-29T07:13:46.999Z</time></trkpt><trkpt lat="44.89139389435306" lon="9.845388189057456"><ele>115.0</ele><time>2026-03-29T07:13:47.999Z</time></trkpt><trkpt lat="44.891327525608524" lon="9.845413768668509"><ele>114.99999999999999</ele><time>2026-03-29T07:13:48.999Z</time></trkpt><trkpt lat="44.89126462286374" lon="9.845461852992798"><ele>114.99999999999999</ele><time>2026-03-29T07:13:49.999Z</time></trkpt><trkpt lat="44.89119726582971" lon="9.845483471481208"><ele>115.0</ele><time>2026-03-29T07:13:50.999Z</time></trkpt><trkpt lat="44.89113040613427" lon="9.845507657309927"><ele>114.99999999999999</ele><time>2026-03-29T07:13:51.999Z</time></trkpt><trkpt lat="44.891064229454706" lon="9.845533423519393"><ele>114.99999999999999</ele><time>2026-03-29T07:13:52.999Z</time></trkpt><trkpt lat="44.89099843188845" lon="9.845562200571012"><ele>114.99999999999999</ele><time>2026-03-29T07:13:53.999Z</time></trkpt><trkpt lat="44.89092727250119" lon="9.845566720111972"><ele>115.0</ele><time>2026-03-29T07:13:54.999Z</time></trkpt><trkpt lat="44.89086061446574" lon="9.845591285302422"><ele>114.99999999999999</ele><time>2026-03-29T07:13:55.998Z</time></trkpt><trkpt lat="44.89079359485376" lon="9.845615983700343"><ele>114.99999999999999</ele><time>2026-03-29T07:13:56.998Z</time></trkpt><trkpt lat="44.89073036243111" lon="9.84566151238955"><ele>115.0</ele><time>2026-03-29T07:13:57.998Z</time></trkpt><trkpt lat="44.890663017436175" lon="9.845685648897254"><ele>114.99999999999999</ele><time>2026-03-29T07:13:58.998Z</time></trkpt><trkpt lat="44.89059548932611" lon="9.845711777075435"><ele>114.99999999999999</ele><time>2026-03-29T07:13:59.998Z</time></trkpt><trkpt lat="44.89052692522645" lon="9.845737633556155"><ele>114.99999999999999</ele><time>2026-03-29T07:14:00.998Z</time></trkpt><trkpt lat="44.8904554873701" lon="9.845740584162744"><ele>115.0</ele><time>2026-03-29T07:14:01.998Z</time></trkpt><trkpt lat="44.89038832832483" lon="9.845765333959609"><ele>114.99999999999999</ele><time>2026-03-29T07:14:02.998Z</time></trkpt><trkpt lat="44.89032271238864" lon="9.845789515097056"><ele>114.99999999999999</ele><time>2026-03-29T07:14:03.998Z</time></trkpt><trkpt lat="44.89025625531459" lon="9.845814006189453"><ele>115.0</ele><time>2026-03-29T07:14:04.998Z</time></trkpt><trkpt lat="44.89018853741551" lon="9.845838961953625"><ele>114.99999999999999</ele><time>2026-03-29T07:14:05.998Z</time></trkpt><trkpt lat="44.89012255013098" lon="9.845863021964975"><ele>114.99999999999999</ele><time>2026-03-29T07:14:06.998Z</time></trkpt><trkpt lat="44.89005517018435" lon="9.845887113254491"><ele>115.14285714285712</ele><time>2026-03-29T07:14:07.998Z</time></trkpt><trkpt lat="44.8899871601034" lon="9.84591142983417"><ele>115.28571428571428</ele><time>2026-03-29T07:14:08.998Z</time></trkpt><trkpt lat="44.88991988478406" lon="9.845935483715813"><ele>115.42857142857143</ele><time>2026-03-29T07:14:09.998Z</time></trkpt><trkpt lat="44.889852192456985" lon="9.845959895377048"><ele>115.57142857142857</ele><time>2026-03-29T07:14:10.998Z</time></trkpt><trkpt lat="44.889788206410955" lon="9.846005083839886"><ele>115.71428571428572</ele><time>2026-03-29T07:14:11.998Z</time></trkpt><trkpt lat="44.889721846953506" lon="9.84603112586558"><ele>115.85714285714288</ele><time>2026-03-29T07:14:12.998Z</time></trkpt><trkpt lat="44.889650510439616" lon="9.846036799221675"><ele>116.00000000000001</ele><time>2026-03-29T07:14:13.998Z</time></trkpt><trkpt lat="44.88958316752971" lon="9.846062477911682"><ele>116.2857142857143</ele><time>2026-03-29T07:14:14.998Z</time></trkpt><trkpt lat="44.889515248877366" lon="9.846089165829632"><ele>116.57142857142858</ele><time>2026-03-29T07:14:15.998Z</time></trkpt><trkpt lat="44.88944945399769" lon="9.846117810137658"><ele>116.85714285714286</ele><time>2026-03-29T07:14:16.998Z</time></trkpt><trkpt lat="44.88938070496065" lon="9.846147740565074"><ele>117.14285714285715</ele><time>2026-03-29T07:14:17.998Z</time></trkpt><trkpt lat="44.88931414264578" lon="9.846176719098485"><ele>117.42857142857144</ele><time>2026-03-29T07:14:18.998Z</time></trkpt><trkpt lat="44.889247147836734" lon="9.846205883548796"><ele>117.71428571428571</ele><time>2026-03-29T07:14:19.998Z</time></trkpt><trkpt lat="44.88917998237856" lon="9.846223104458629"><ele>118.0</ele><time>2026-03-29T07:14:20.998Z</time></trkpt><trkpt lat="44.88911015390915" lon="9.846240546448968"><ele>118.14285714285714</ele><time>2026-03-29T07:14:21.998Z</time></trkpt><trkpt lat="44.88904464555483" lon="9.846275326751702"><ele>118.28571428571429</ele><time>2026-03-29T07:14:23Z</time></trkpt><trkpt lat="44.88897652002462" lon="9.846282775746177"><ele>118.42857142857143</ele><time>2026-03-29T07:14:24Z</time></trkpt><trkpt lat="44.88890788560567" lon="9.846266115067767"><ele>118.57142857142857</ele><time>2026-03-29T07:14:25Z</time></trkpt><trkpt lat="44.888840937733704" lon="9.846268282406175"><ele>118.71428571428572</ele><time>2026-03-29T07:14:26Z</time></trkpt><trkpt lat="44.88877584082484" lon="9.846266657645872"><ele>118.85714285714286</ele><time>2026-03-29T07:14:27Z</time></trkpt><trkpt lat="44.888709258862825" lon="9.84628198264766"><ele>119.0</ele><time>2026-03-29T07:14:28Z</time></trkpt><trkpt lat="44.888643220301496" lon="9.846275439030443"><ele>119.0</ele><time>2026-03-29T07:14:29Z</time></trkpt><trkpt lat="44.88857893551415" lon="9.846271628078872"><ele>119.0</ele><time>2026-03-29T07:14:30Z</time></trkpt><trkpt lat="44.888513571652716" lon="9.84626672314885"><ele>119.0</ele><time>2026-03-29T07:14:31Z</time></trkpt><trkpt lat="44.88844855574566" lon="9.846260581930427"><ele>119.0</ele><time>2026-03-29T07:14:32Z</time></trkpt><trkpt lat="44.88838286873006" lon="9.846257979669359"><ele>119.0</ele><time>2026-03-29T07:14:33Z</time></trkpt><trkpt lat="44.88831828716298" lon="9.846257704453306"><ele>119.0</ele><time>2026-03-29T07:14:34Z</time></trkpt><trkpt lat="44.888254376738814" lon="9.846256474614696"><ele>119.0</ele><time>2026-03-29T07:14:35Z</time></trkpt><trkpt lat="44.888186216852695" lon="9.846249492959801"><ele>119.14285714285714</ele><time>2026-03-29T07:14:36Z</time></trkpt><trkpt lat="44.88811722215586" lon="9.846239363014229"><ele>119.28571428571428</ele><time>2026-03-29T07:14:37Z</time></trkpt><trkpt lat="44.888049490453305" lon="9.846218040182977"><ele>119.42857142857143</ele><time>2026-03-29T07:14:38Z</time></trkpt><trkpt lat="44.88798265859967" lon="9.846192677210183"><ele>119.57142857142857</ele><time>2026-03-29T07:14:39Z</time></trkpt><trkpt lat="44.88792187603665" lon="9.846142700605025"><ele>119.71428571428571</ele><time>2026-03-29T07:14:40Z</time></trkpt><trkpt lat="44.88785630302783" lon="9.846111830437268"><ele>119.85714285714286</ele><time>2026-03-29T07:14:41Z</time></trkpt><trkpt lat="44.88778667315498" lon="9.84610106605914"><ele>120.0</ele><time>2026-03-29T07:14:42Z</time></trkpt><trkpt lat="44.88772421883549" lon="9.846066635778723"><ele>120.0</ele><time>2026-03-29T07:14:43Z</time></trkpt><trkpt lat="44.88766068119921" lon="9.84603477498666"><ele>120.0</ele><time>2026-03-29T07:14:44Z</time></trkpt><trkpt lat="44.887594218322086" lon="9.84600965682009"><ele>120.0</ele><time>2026-03-29T07:14:45Z</time></trkpt><trkpt lat="44.887526129142415" lon="9.845992376994701"><ele>120.0</ele><time>2026-03-29T07:14:46Z</time></trkpt><trkpt lat="44.887459102606456" lon="9.845977834954404"><ele>120.0</ele><time>2026-03-29T07:14:47Z</time></trkpt><trkpt lat="44.88739206576587" lon="9.84596618773263"><ele>120.0</ele><time>2026-03-29T07:14:48Z</time></trkpt><trkpt lat="44.88732890886221" lon="9.84595538137059"><ele>120.0</ele><time>2026-03-29T07:14:49Z</time></trkpt><trkpt lat="44.88725985921389" lon="9.845948623395838"><ele>119.85714285714286</ele><time>2026-03-29T07:14:50Z</time></trkpt><trkpt lat="44.88719533164648" lon="9.845917433408989"><ele>119.71428571428571</ele><time>2026-03-29T07:14:51Z</time></trkpt><trkpt lat="44.887127683018626" lon="9.84590975543253"><ele>119.57142857142857</ele><time>2026-03-29T07:14:52Z</time></trkpt><trkpt lat="44.88705965116058" lon="9.845904434229999"><ele>119.42857142857143</ele><time>2026-03-29T07:14:53Z</time></trkpt><trkpt lat="44.88699292625156" lon="9.845900144070221"><ele>119.28571428571428</ele><time>2026-03-29T07:14:54Z</time></trkpt><trkpt lat="44.88692705404013" lon="9.845921223048128"><ele>119.14285714285714</ele><time>2026-03-29T07:14:55Z</time></trkpt><trkpt lat="44.886861754120204" lon="9.845923199894216"><ele>119.0</ele><time>2026-03-29T07:14:56Z</time></trkpt><trkpt lat="44.88679574843295" lon="9.845915642245618"><ele>119.42857142857143</ele><time>2026-03-29T07:14:57Z</time></trkpt><trkpt lat="44.88673727245257" lon="9.84597066163438"><ele>119.85714285714286</ele><time>2026-03-29T07:14:58Z</time></trkpt><trkpt lat="44.886674043411915" lon="9.84600343667056"><ele>120.28571428571428</ele><time>2026-03-29T07:14:59Z</time></trkpt><trkpt lat="44.886623495920446" lon="9.846066597166079"><ele>120.71428571428571</ele><time>2026-03-29T07:15:00Z</time></trkpt><trkpt lat="44.88657937739413" lon="9.846141777074882"><ele>121.14285714285714</ele><time>2026-03-29T07:15:01Z</time></trkpt><trkpt lat="44.88654062705462" lon="9.846215207607823"><ele>121.57142857142856</ele><time>2026-03-29T07:15:02Z</time></trkpt><trkpt lat="44.88650454594899" lon="9.846295220824421"><ele>121.99999999999999</ele><time>2026-03-29T07:15:03Z</time></trkpt><trkpt lat="44.88646972131347" lon="9.846381056054085"><ele>121.99999999999999</ele><time>2026-03-29T07:15:04Z</time></trkpt><trkpt lat="44.886439193326574" lon="9.846465403989598"><ele>122.0</ele><time>2026-03-29T07:15:05Z</time></trkpt><trkpt lat="44.886411180315434" lon="9.84655480960494"><ele>121.99999999999999</ele><time>2026-03-29T07:15:06Z</time></trkpt><trkpt lat="44.88638764726636" lon="9.846644519870598"><ele>121.99999999999999</ele><time>2026-03-29T07:15:06.999Z</time></trkpt><trkpt lat="44.88636570813581" lon="9.846734067497279"><ele>122.0</ele><time>2026-03-29T07:15:07.999Z</time></trkpt><trkpt lat="44.886343935070066" lon="9.846825648628453"><ele>121.99999999999999</ele><time>2026-03-29T07:15:08.999Z</time></trkpt><trkpt lat="44.886324031184365" lon="9.846914861939057"><ele>121.99999999999999</ele><time>2026-03-29T07:15:09.999Z</time></trkpt><trkpt lat="44.88630497271374" lon="9.847005292353211"><ele>121.99999999999999</ele><time>2026-03-29T07:15:10.999Z</time></trkpt><trkpt lat="44.88628710174766" lon="9.847095464913863"><ele>122.0</ele><time>2026-03-29T07:15:11.999Z</time></trkpt><trkpt lat="44.88626982911919" lon="9.847185237975143"><ele>121.99999999999999</ele><time>2026-03-29T07:15:12.999Z</time></trkpt><trkpt lat="44.88625331268995" lon="9.84727108074845"><ele>121.99999999999999</ele><time>2026-03-29T07:15:13.999Z</time></trkpt><trkpt lat="44.886236861871794" lon="9.847357630091397"><ele>122.0</ele><time>2026-03-29T07:15:14.999Z</time></trkpt><trkpt lat="44.886220367870834" lon="9.84744555580629"><ele>121.99999999999999</ele><time>2026-03-29T07:15:15.999Z</time></trkpt><trkpt lat="44.8862039058064" lon="9.847534154189118"><ele>121.99999999999999</ele><time>2026-03-29T07:15:16.999Z</time></trkpt><trkpt lat="44.88618876478958" lon="9.847622140236295"><ele>121.85714285714283</ele><time>2026-03-29T07:15:17.999Z</time></trkpt><trkpt lat="44.88617481433315" lon="9.847714663321918"><ele>121.71428571428571</ele><time>2026-03-29T07:15:18.999Z</time></trkpt><trkpt lat="44.886163468657266" lon="9.847806007274961"><ele>121.57142857142856</ele><time>2026-03-29T07:15:19.999Z</time></trkpt><trkpt lat="44.886154067443414" lon="9.847899480185673"><ele>121.42857142857142</ele><time>2026-03-29T07:15:20.999Z</time></trkpt><trkpt lat="44.88614778531276" lon="9.84799348436509"><ele>121.28571428571428</ele><time>2026-03-29T07:15:21.999Z</time></trkpt><trkpt lat="44.886143569691136" lon="9.84808799163757"><ele>121.14285714285714</ele><time>2026-03-29T07:15:22.999Z</time></trkpt><trkpt lat="44.88613889724107" lon="9.848183223566547"><ele>121.0</ele><time>2026-03-29T07:15:23.999Z</time></trkpt><trkpt lat="44.88613437434141" lon="9.848275407459976"><ele>121.0</ele><time>2026-03-29T07:15:24.999Z</time></trkpt><trkpt lat="44.88612964191367" lon="9.84836956662942"><ele>120.99999999999999</ele><time>2026-03-29T07:15:25.999Z</time></trkpt><trkpt lat="44.886122989926804" lon="9.848461098726558"><ele>121.0</ele><time>2026-03-29T07:15:26.999Z</time></trkpt><trkpt lat="44.88611588657084" lon="9.848555872465331"><ele>121.0</ele><time>2026-03-29T07:15:27.999Z</time></trkpt><trkpt lat="44.88610835338088" lon="9.848651328081107"><ele>120.99999999999999</ele><time>2026-03-29T07:15:28.999Z</time></trkpt><trkpt lat="44.88609946267217" lon="9.848746475826218"><ele>121.0</ele><time>2026-03-29T07:15:29.999Z</time></trkpt><trkpt lat="44.8860874170901" lon="9.848838906396946"><ele>121.0</ele><time>2026-03-29T07:15:30.999Z</time></trkpt><trkpt lat="44.88607122442886" lon="9.848925641906394"><ele>121.16666666666667</ele><time>2026-03-29T07:15:31.999Z</time></trkpt><trkpt lat="44.88605265871839" lon="9.84901240362221"><ele>121.33333333333334</ele><time>2026-03-29T07:15:32.999Z</time></trkpt><trkpt lat="44.886031432539" lon="9.849097418190166"><ele>121.5</ele><time>2026-03-29T07:15:33.999Z</time></trkpt><trkpt lat="44.885982508347446" lon="9.849262208955206"><ele>121.66666666666666</ele><time>2026-03-29T07:15:35.999Z</time></trkpt><trkpt lat="44.885920498434174" lon="9.849419392268505"><ele>121.83333333333333</ele><time>2026-03-29T07:15:37.999Z</time></trkpt><trkpt lat="44.8858863925854" lon="9.849495205445821"><ele>122.0</ele><time>2026-03-29T07:15:38.999Z</time></trkpt><trkpt lat="44.885851881607195" lon="9.849570909036316"><ele>122.49999999999999</ele><time>2026-03-29T07:15:39.999Z</time></trkpt><trkpt lat="44.885815464859334" lon="9.8496452485071"><ele>123.0</ele><time>2026-03-29T07:15:40.999Z</time></trkpt><trkpt lat="44.885740876251226" lon="9.849790333850207"><ele>123.5</ele><time>2026-03-29T07:15:42.999Z</time></trkpt><trkpt lat="44.88570278877085" lon="9.849863509321516"><ele>124.0</ele><time>2026-03-29T07:15:43.999Z</time></trkpt><trkpt lat="44.88566513347181" lon="9.84993585453967"><ele>124.49999999999999</ele><time>2026-03-29T07:15:44.999Z</time></trkpt><trkpt lat="44.88559160098259" lon="9.85007920938147"><ele>125.0</ele><time>2026-03-29T07:15:46.999Z</time></trkpt><trkpt lat="44.88552036361858" lon="9.85021847147659"><ele>125.0</ele><time>2026-03-29T07:15:48.999Z</time></trkpt><trkpt lat="44.885445483476225" lon="9.850356462313961"><ele>125.0</ele><time>2026-03-29T07:15:50.999Z</time></trkpt><trkpt lat="44.88536697457968" lon="9.850488658555843"><ele>125.0</ele><time>2026-03-29T07:15:52.999Z</time></trkpt><trkpt lat="44.885279329620985" lon="9.85060977142554"><ele>125.0</ele><time>2026-03-29T07:15:54.999Z</time></trkpt><trkpt lat="44.885184617211905" lon="9.850721552422991"><ele>125.75</ele><time>2026-03-29T07:15:56.999Z</time></trkpt><trkpt lat="44.88508174635094" lon="9.850814862965679"><ele>126.5</ele><time>2026-03-29T07:15:58.999Z</time></trkpt><trkpt lat="44.884977080174096" lon="9.850884890660788"><ele>127.25</ele><time>2026-03-29T07:16:00.998Z</time></trkpt><trkpt lat="44.88486683991938" lon="9.850932673320292"><ele>128.0</ele><time>2026-03-29T07:16:02.998Z</time></trkpt><trkpt lat="44.88475068026835" lon="9.850917985091995"><ele>128.0</ele><time>2026-03-29T07:16:04.998Z</time></trkpt><trkpt lat="44.884645596201544" lon="9.850854906230749"><ele>128.0</ele><time>2026-03-29T07:16:06.998Z</time></trkpt><trkpt lat="44.88454286819546" lon="9.85078527060031"><ele>128.0</ele><time>2026-03-29T07:16:08.998Z</time></trkpt><trkpt lat="44.88444039283839" lon="9.850706576859713"><ele>128.0</ele><time>2026-03-29T07:16:10.998Z</time></trkpt><trkpt lat="44.88434412532007" lon="9.850624671158656"><ele>128.6</ele><time>2026-03-29T07:16:12.998Z</time></trkpt><trkpt lat="44.8842464673779" lon="9.850540554657167"><ele>129.20000000000002</ele><time>2026-03-29T07:16:14.998Z</time></trkpt><trkpt lat="44.88414638656675" lon="9.850451342656694"><ele>129.8</ele><time>2026-03-29T07:16:16.998Z</time></trkpt><trkpt lat="44.884054912829335" lon="9.850367275431662"><ele>130.4</ele><time>2026-03-29T07:16:18.998Z</time></trkpt><trkpt lat="44.88397652797519" lon="9.85029795202222"><ele>131.0</ele><time>2026-03-29T07:16:20.998Z</time></trkpt><trkpt lat="44.883913531251544" lon="9.850239950989595"><ele>131.0</ele><time>2026-03-29T07:16:22.998Z</time></trkpt><trkpt lat="44.88383783640028" lon="9.850178193046618"><ele>131.0</ele><time>2026-03-29T07:16:25.998Z</time></trkpt><trkpt lat="44.883769651322304" lon="9.850082361597352"><ele>131.0</ele><time>2026-03-29T07:16:29Z</time></trkpt><trkpt lat="44.883706217379846" lon="9.849998362349801"><ele>131.0</ele><time>2026-03-29T07:16:31Z</time></trkpt><trkpt lat="44.883624946758914" lon="9.849921502430266"><ele>131.0</ele><time>2026-03-29T07:16:33Z</time></trkpt><trkpt lat="44.88352988442678" lon="9.849863442209113"><ele>130.8</ele><time>2026-03-29T07:16:35Z</time></trkpt><trkpt lat="44.88344225198792" lon="9.849791800926921"><ele>130.6</ele><time>2026-03-29T07:16:37Z</time></trkpt><trkpt lat="44.88335413764359" lon="9.849717027598594"><ele>130.4</ele><time>2026-03-29T07:16:39Z</time></trkpt><trkpt lat="44.88326271910437" lon="9.849638948603427"><ele>130.2</ele><time>2026-03-29T07:16:41Z</time></trkpt><trkpt lat="44.88316896534139" lon="9.84956340988525"><ele>130.0</ele><time>2026-03-29T07:16:43Z</time></trkpt><trkpt lat="44.88307465633042" lon="9.849492920677523"><ele>130.0</ele><time>2026-03-29T07:16:45Z</time></trkpt><trkpt lat="44.882978912867436" lon="9.849405499969613"><ele>130.0</ele><time>2026-03-29T07:16:47Z</time></trkpt><trkpt lat="44.882884817071535" lon="9.849323082581204"><ele>130.0</ele><time>2026-03-29T07:16:49Z</time></trkpt><trkpt lat="44.882789216098004" lon="9.849246671590517"><ele>130.0</ele><time>2026-03-29T07:16:51Z</time></trkpt><trkpt lat="44.8826953299192" lon="9.849168124542443"><ele>130.0</ele><time>2026-03-29T07:16:53Z</time></trkpt><trkpt lat="44.88260557007446" lon="9.849090593228327"><ele>130.2</ele><time>2026-03-29T07:16:55Z</time></trkpt><trkpt lat="44.88251150203374" lon="9.849014065834456"><ele>130.4</ele><time>2026-03-29T07:16:57Z</time></trkpt><trkpt lat="44.88241841860708" lon="9.848939931219258"><ele>130.6</ele><time>2026-03-29T07:16:59Z</time></trkpt><trkpt lat="44.88232535173745" lon="9.848869084078517"><ele>130.8</ele><time>2026-03-29T07:17:01Z</time></trkpt><trkpt lat="44.88223080948808" lon="9.848793676656637"><ele>131.0</ele><time>2026-03-29T07:17:03Z</time></trkpt><trkpt lat="44.88213183629007" lon="9.848727837673472"><ele>131.0</ele><time>2026-03-29T07:17:05Z</time></trkpt><trkpt lat="44.88203402425111" lon="9.848661644544565"><ele>131.0</ele><time>2026-03-29T07:17:07Z</time></trkpt><trkpt lat="44.88193331282847" lon="9.848600339532094"><ele>131.0</ele><time>2026-03-29T07:17:09Z</time></trkpt><trkpt lat="44.881832874467364" lon="9.848539192163058"><ele>131.0</ele><time>2026-03-29T07:17:10.999Z</time></trkpt><trkpt lat="44.88173555500195" lon="9.848481123117237"><ele>131.0</ele><time>2026-03-29T07:17:12.999Z</time></trkpt><trkpt lat="44.88164185803167" lon="9.848425625009053"><ele>131.4</ele><time>2026-03-29T07:17:14.999Z</time></trkpt><trkpt lat="44.88154810479411" lon="9.8483789919994"><ele>131.8</ele><time>2026-03-29T07:17:16.999Z</time></trkpt><trkpt lat="44.881467009403224" lon="9.84833464220293"><ele>132.20000000000002</ele><time>2026-03-29T07:17:18.999Z</time></trkpt><trkpt lat="44.8813925587382" lon="9.848311181726142"><ele>132.6</ele><time>2026-03-29T07:17:20.999Z</time></trkpt><trkpt lat="44.88130977153921" lon="9.84849007248687"><ele>133.0</ele><time>2026-03-29T07:17:23.999Z</time></trkpt><trkpt lat="44.88126910068109" lon="9.848587312878841"><ele>133.5</ele><time>2026-03-29T07:17:25.999Z</time></trkpt><trkpt lat="44.88123952719581" lon="9.848697292807962"><ele>134.0</ele><time>2026-03-29T07:17:27.999Z</time></trkpt><trkpt lat="44.88121209758487" lon="9.848801506053066"><ele>134.5</ele><time>2026-03-29T07:17:29.999Z</time></trkpt><trkpt lat="44.88118438293334" lon="9.848911177190066"><ele>135.0</ele><time>2026-03-29T07:17:31.999Z</time></trkpt><trkpt lat="44.88115844987968" lon="9.849016832651577"><ele>135.5</ele><time>2026-03-29T07:17:33.999Z</time></trkpt><trkpt lat="44.88114911338462" lon="9.849132840289268"><ele>136.0</ele><time>2026-03-29T07:17:35.999Z</time></trkpt><trkpt lat="44.88112625276925" lon="9.849256307787789"><ele>136.66666666666669</ele><time>2026-03-29T07:17:37.999Z</time></trkpt><trkpt lat="44.881106463995394" lon="9.849353196295104"><ele>137.33333333333334</ele><time>2026-03-29T07:17:39.999Z</time></trkpt><trkpt lat="44.88109532605686" lon="9.849446141180357"><ele>138.0</ele><time>2026-03-29T07:17:41.999Z</time></trkpt><trkpt lat="44.881075704421605" lon="9.849542533534988"><ele>138.66666666666666</ele><time>2026-03-29T07:17:43.999Z</time></trkpt><trkpt lat="44.88104885000156" lon="9.849641397787087"><ele>139.33333333333331</ele><time>2026-03-29T07:17:45.999Z</time></trkpt><trkpt lat="44.88100294600559" lon="9.849741063124481"><ele>140.0</ele><time>2026-03-29T07:17:47.999Z</time></trkpt><trkpt lat="44.880945593901615" lon="9.84984866339492"><ele>140.16666666666666</ele><time>2026-03-29T07:17:50.999Z</time></trkpt><trkpt lat="44.88089713849133" lon="9.849909182670222"><ele>140.33333333333331</ele><time>2026-03-29T07:17:53.999Z</time></trkpt><trkpt lat="44.88084152360112" lon="9.849979182012891"><ele>140.5</ele><time>2026-03-29T07:17:56.999Z</time></trkpt><trkpt lat="44.88078106971326" lon="9.850049158794118"><ele>140.66666666666666</ele><time>2026-03-29T07:17:59.999Z</time></trkpt><trkpt lat="44.88072086797635" lon="9.850115794200148"><ele>140.83333333333334</ele><time>2026-03-29T07:18:02.999Z</time></trkpt><trkpt lat="44.88064646890154" lon="9.85019091021211"><ele>141.0</ele><time>2026-03-29T07:18:05.998Z</time></trkpt><trkpt lat="44.880593810849476" lon="9.850247827555986"><ele>141.0</ele><time>2026-03-29T07:18:08.998Z</time></trkpt><trkpt lat="44.8805352009201" lon="9.850311324744393"><ele>141.0</ele><time>2026-03-29T07:18:11.998Z</time></trkpt><trkpt lat="44.880484169860935" lon="9.850368365478731"><ele>141.0</ele><time>2026-03-29T07:18:13.998Z</time></trkpt><trkpt lat="44.88042988779946" lon="9.850428656019899"><ele>141.0</ele><time>2026-03-29T07:18:16.998Z</time></trkpt><trkpt lat="44.88036899328346" lon="9.850488572264672"><ele>141.0</ele><time>2026-03-29T07:18:19.998Z</time></trkpt><trkpt lat="44.88031098282244" lon="9.850547139041636"><ele>141.0</ele><time>2026-03-29T07:18:22.998Z</time></trkpt><trkpt lat="44.88025115115384" lon="9.85060350078125"><ele>141.0</ele><time>2026-03-29T07:18:25.998Z</time></trkpt><trkpt lat="44.88019055369682" lon="9.8506628580178"><ele>141.0</ele><time>2026-03-29T07:18:28.998Z</time></trkpt><trkpt lat="44.880126026541475" lon="9.850723038620952"><ele>141.0</ele><time>2026-03-29T07:18:31.998Z</time></trkpt><trkpt lat="44.88006370811888" lon="9.850780791127823"><ele>141.0</ele><time>2026-03-29T07:18:35Z</time></trkpt><trkpt lat="44.87999981874821" lon="9.850845734702238"><ele>141.0</ele><time>2026-03-29T07:18:38Z</time></trkpt><trkpt lat="44.87993527658824" lon="9.850891379108685"><ele>141.0</ele><time>2026-03-29T07:18:41Z</time></trkpt><trkpt lat="44.879873917845615" lon="9.850924473783813"><ele>141.0</ele><time>2026-03-29T07:18:43Z</time></trkpt><trkpt lat="44.8797987017042" lon="9.850959657875372"><ele>141.0</ele><time>2026-03-29T07:18:46Z</time></trkpt><trkpt lat="44.87972787248271" lon="9.851006045645898"><ele>142.85714285714286</ele><time>2026-03-29T07:18:49Z</time></trkpt><trkpt lat="44.87966335570573" lon="9.851053228376495"><ele>144.71428571428572</ele><time>2026-03-29T07:18:52Z</time></trkpt><trkpt lat="44.87960099593868" lon="9.851095701298814"><ele>146.57142857142856</ele><time>2026-03-29T07:18:54Z</time></trkpt><trkpt lat="44.87953712064768" lon="9.851150406497037"><ele>148.42857142857144</ele><time>2026-03-29T07:18:57Z</time></trkpt><trkpt lat="44.87948196920559" lon="9.851205699750126"><ele>150.28571428571428</ele><time>2026-03-29T07:18:59Z</time></trkpt><trkpt lat="44.87942233362469" lon="9.851269736558555"><ele>152.14285714285714</ele><time>2026-03-29T07:19:02Z</time></trkpt><trkpt lat="44.87936207529833" lon="9.851343668905479"><ele>154.0</ele><time>2026-03-29T07:19:05Z</time></trkpt><trkpt lat="44.87930866223125" lon="9.851401477388942"><ele>155.33333333333334</ele><time>2026-03-29T07:19:07Z</time></trkpt><trkpt lat="44.87924517148575" lon="9.851474800813675"><ele>156.66666666666669</ele><time>2026-03-29T07:19:10Z</time></trkpt><trkpt lat="44.879177390176125" lon="9.851531411557014"><ele>158.0</ele><time>2026-03-29T07:19:13Z</time></trkpt><trkpt lat="44.87910392612295" lon="9.851575881700418"><ele>159.33333333333334</ele><time>2026-03-29T07:19:15.999Z</time></trkpt><trkpt lat="44.87903548177965" lon="9.851598146218663"><ele>160.66666666666666</ele><time>2026-03-29T07:19:17.999Z</time></trkpt><trkpt lat="44.87894976406559" lon="9.85158870991397"><ele>162.0</ele><time>2026-03-29T07:19:20.999Z</time></trkpt><trkpt lat="44.878848398329" lon="9.851555542374054"><ele>162.0</ele><time>2026-03-29T07:19:23.999Z</time></trkpt><trkpt lat="44.87878580699715" lon="9.851534631346569"><ele>162.0</ele><time>2026-03-29T07:19:25.999Z</time></trkpt><trkpt lat="44.87869333046918" lon="9.851507855421149"><ele>162.0</ele><time>2026-03-29T07:19:27.999Z</time></trkpt><trkpt lat="44.87862822918356" lon="9.851478637678714"><ele>162.0</ele><time>2026-03-29T07:19:29.999Z</time></trkpt><trkpt lat="44.87855645683035" lon="9.851457292626362"><ele>162.0</ele><time>2026-03-29T07:19:31.999Z</time></trkpt><trkpt lat="44.87849191309225" lon="9.851437084656995"><ele>162.0</ele><time>2026-03-29T07:19:33.999Z</time></trkpt><trkpt lat="44.87841297764642" lon="9.851421228724039"><ele>162.0</ele><time>2026-03-29T07:19:36.999Z</time></trkpt><trkpt lat="44.87826025165634" lon="9.85139039383072"><ele>162.71428571428572</ele><time>2026-03-29T07:19:37.999Z</time></trkpt><trkpt lat="44.87819345924817" lon="9.851371859510595"><ele>163.42857142857142</ele><time>2026-03-29T07:19:39.999Z</time></trkpt><trkpt lat="44.878125110523385" lon="9.851359950276377"><ele>164.14285714285714</ele><time>2026-03-29T07:19:41.999Z</time></trkpt><trkpt lat="44.87805970394345" lon="9.851345458042124"><ele>164.85714285714286</ele><time>2026-03-29T07:19:43.999Z</time></trkpt><trkpt lat="44.87798988190811" lon="9.851328519834148"><ele>165.57142857142858</ele><time>2026-03-29T07:19:45.999Z</time></trkpt><trkpt lat="44.8779192790331" lon="9.851318996142377"><ele>166.28571428571428</ele><time>2026-03-29T07:19:47.999Z</time></trkpt><trkpt lat="44.87784426050696" lon="9.851308185702145"><ele>167.0</ele><time>2026-03-29T07:19:49.999Z</time></trkpt><trkpt lat="44.87776252804856" lon="9.85130871248011"><ele>167.0</ele><time>2026-03-29T07:19:51.999Z</time></trkpt><trkpt lat="44.87768262500768" lon="9.851308377930748"><ele>167.0</ele><time>2026-03-29T07:19:53.999Z</time></trkpt><trkpt lat="44.87761368342702" lon="9.851331671648756"><ele>167.0</ele><time>2026-03-29T07:19:55.999Z</time></trkpt><trkpt lat="44.877554414330305" lon="9.851375349501987"><ele>167.0</ele><time>2026-03-29T07:19:57.999Z</time></trkpt><trkpt lat="44.877467764158546" lon="9.851406072361257"><ele>167.0</ele><time>2026-03-29T07:19:58.999Z</time></trkpt><trkpt lat="44.877389956350555" lon="9.851472289891865"><ele>167.0</ele><time>2026-03-29T07:20:00.999Z</time></trkpt><trkpt lat="44.877314295953376" lon="9.851542935767446"><ele>167.39999999999998</ele><time>2026-03-29T07:20:02.999Z</time></trkpt><trkpt lat="44.877238061145434" lon="9.851614174645983"><ele>167.79999999999998</ele><time>2026-03-29T07:20:04.999Z</time></trkpt><trkpt lat="44.87716200644066" lon="9.851685145702758"><ele>168.2</ele><time>2026-03-29T07:20:06.999Z</time></trkpt><trkpt lat="44.877088567692596" lon="9.851756093148532"><ele>168.6</ele><time>2026-03-29T07:20:08.998Z</time></trkpt><trkpt lat="44.87700793803384" lon="9.85182468316617"><ele>169.0</ele><time>2026-03-29T07:20:10.998Z</time></trkpt><trkpt lat="44.87692896451713" lon="9.851899001626618"><ele>169.39999999999998</ele><time>2026-03-29T07:20:12.998Z</time></trkpt><trkpt lat="44.87684759312859" lon="9.8519712846953"><ele>169.8</ele><time>2026-03-29T07:20:14.998Z</time></trkpt><trkpt lat="44.87676225865172" lon="9.852035832378052"><ele>170.2</ele><time>2026-03-29T07:20:16.998Z</time></trkpt><trkpt lat="44.8766800925454" lon="9.852097012415163"><ele>170.60000000000002</ele><time>2026-03-29T07:20:18.998Z</time></trkpt><trkpt lat="44.87658244207477" lon="9.852159416451999"><ele>171.0</ele><time>2026-03-29T07:20:20.998Z</time></trkpt><trkpt lat="44.87650329100051" lon="9.852222224464773"><ele>171.0</ele><time>2026-03-29T07:20:22.998Z</time></trkpt><trkpt lat="44.87641012447927" lon="9.852272360890016"><ele>171.0</ele><time>2026-03-29T07:20:24.998Z</time></trkpt><trkpt lat="44.87632009984386" lon="9.852311767451958"><ele>171.0</ele><time>2026-03-29T07:20:26.998Z</time></trkpt><trkpt lat="44.876231956444805" lon="9.852342731240899"><ele>171.0</ele><time>2026-03-29T07:20:28.998Z</time></trkpt><trkpt lat="44.87614750245415" lon="9.852370920364073"><ele>171.0</ele><time>2026-03-29T07:20:30.998Z</time></trkpt><trkpt lat="44.87606291195681" lon="9.852401140261732"><ele>171.0</ele><time>2026-03-29T07:20:32.998Z</time></trkpt><trkpt lat="44.87598447291563" lon="9.85243025170065"><ele>171.0</ele><time>2026-03-29T07:20:34.998Z</time></trkpt><trkpt lat="44.875901782280415" lon="9.852453247893978"><ele>171.0</ele><time>2026-03-29T07:20:36.998Z</time></trkpt><trkpt lat="44.875807866896665" lon="9.85248432173329"><ele>171.0</ele><time>2026-03-29T07:20:38.998Z</time></trkpt><trkpt lat="44.87571801155626" lon="9.852503978849805"><ele>171.0</ele><time>2026-03-29T07:20:41Z</time></trkpt><trkpt lat="44.875642504626704" lon="9.852530525558045"><ele>171.0</ele><time>2026-03-29T07:20:43Z</time></trkpt><trkpt lat="44.8755701754738" lon="9.85256983818483"><ele>171.16666666666666</ele><time>2026-03-29T07:20:45Z</time></trkpt><trkpt lat="44.87549399147995" lon="9.852599160502269"><ele>171.33333333333334</ele><time>2026-03-29T07:20:47Z</time></trkpt><trkpt lat="44.875429383738" lon="9.852621202468477"><ele>171.5</ele><time>2026-03-29T07:20:49Z</time></trkpt><trkpt lat="44.875361971387555" lon="9.85264452284164"><ele>171.66666666666669</ele><time>2026-03-29T07:20:51Z</time></trkpt><trkpt lat="44.87529586839817" lon="9.852664006319815"><ele>171.83333333333334</ele><time>2026-03-29T07:20:54Z</time></trkpt><trkpt lat="44.875212222750214" lon="9.852701525294474"><ele>172.0</ele><time>2026-03-29T07:20:57Z</time></trkpt><trkpt lat="44.87505361920137" lon="9.852751092755883"><ele>173.33333333333334</ele><time>2026-03-29T07:20:59Z</time></trkpt><trkpt lat="44.87497911370651" lon="9.852787544327624"><ele>174.66666666666669</ele><time>2026-03-29T07:21:01Z</time></trkpt><trkpt lat="44.874906216826034" lon="9.852822406630287"><ele>176.0</ele><time>2026-03-29T07:21:03Z</time></trkpt><trkpt lat="44.874837025264604" lon="9.852861302877375"><ele>177.33333333333334</ele><time>2026-03-29T07:21:05Z</time></trkpt><trkpt lat="44.8747685659953" lon="9.852907735455776"><ele>178.66666666666666</ele><time>2026-03-29T07:21:07Z</time></trkpt><trkpt lat="44.874699734262784" lon="9.85294842212279"><ele>180.0</ele><time>2026-03-29T07:21:09Z</time></trkpt><trkpt lat="44.874628434881615" lon="9.85299195866835"><ele>180.0</ele><time>2026-03-29T07:21:11Z</time></trkpt><trkpt lat="44.874556606841104" lon="9.853036080556278"><ele>180.0</ele><time>2026-03-29T07:21:13Z</time></trkpt><trkpt lat="44.874484343849225" lon="9.8530864519016"><ele>180.0</ele><time>2026-03-29T07:21:15Z</time></trkpt><trkpt lat="44.874410828586925" lon="9.853134277744955"><ele>180.0</ele><time>2026-03-29T07:21:17Z</time></trkpt><trkpt lat="44.87436424029345" lon="9.853198105681805"><ele>180.0</ele><time>2026-03-29T07:21:20Z</time></trkpt><trkpt lat="44.87426711537963" lon="9.853261738599324"><ele>180.0</ele><time>2026-03-29T07:21:20.999Z</time></trkpt><trkpt lat="44.87419890540666" lon="9.853340925655424"><ele>179.83333333333334</ele><time>2026-03-29T07:21:22.999Z</time></trkpt><trkpt lat="44.874130547624475" lon="9.853413237087226"><ele>179.66666666666666</ele><time>2026-03-29T07:21:24.999Z</time></trkpt><trkpt lat="44.87406844438593" lon="9.853495932557589"><ele>179.5</ele><time>2026-03-29T07:21:26.999Z</time></trkpt><trkpt lat="44.87400320171421" lon="9.853575154381403"><ele>179.33333333333331</ele><time>2026-03-29T07:21:28.999Z</time></trkpt><trkpt lat="44.873937622192244" lon="9.85365218829595"><ele>179.16666666666666</ele><time>2026-03-29T07:21:30.999Z</time></trkpt><trkpt lat="44.87387402372529" lon="9.853729130524755"><ele>179.0</ele><time>2026-03-29T07:21:32.999Z</time></trkpt><trkpt lat="44.87381206078635" lon="9.853811326752563"><ele>179.79999999999998</ele><time>2026-03-29T07:21:34.999Z</time></trkpt><trkpt lat="44.87374756302448" lon="9.853889493194632"><ele>180.6</ele><time>2026-03-29T07:21:36.999Z</time></trkpt><trkpt lat="44.87368264987772" lon="9.853970791032058"><ele>181.4</ele><time>2026-03-29T07:21:38.999Z</time></trkpt><trkpt lat="44.87360440125731" lon="9.854084066997292"><ele>182.2</ele><time>2026-03-29T07:21:41.999Z</time></trkpt><trkpt lat="44.87354145604133" lon="9.854171886039076"><ele>183.0</ele><time>2026-03-29T07:21:43.999Z</time></trkpt><trkpt lat="44.8734702604756" lon="9.854251088248269"><ele>183.4</ele><time>2026-03-29T07:21:45.999Z</time></trkpt><trkpt lat="44.873395958655024" lon="9.854327935244644"><ele>183.8</ele><time>2026-03-29T07:21:47.999Z</time></trkpt><trkpt lat="44.87330878357079" lon="9.85440027434412"><ele>184.2</ele><time>2026-03-29T07:21:49.999Z</time></trkpt><trkpt lat="44.87320960646724" lon="9.854455128224172"><ele>184.6</ele><time>2026-03-29T07:21:51.999Z</time></trkpt><trkpt lat="44.873110196333606" lon="9.854509900515595"><ele>185.0</ele><time>2026-03-29T07:21:53.999Z</time></trkpt><trkpt lat="44.87302145860646" lon="9.85456213193287"><ele>185.0</ele><time>2026-03-29T07:21:55.999Z</time></trkpt><trkpt lat="44.87293691374357" lon="9.854612925354285"><ele>185.0</ele><time>2026-03-29T07:21:57.999Z</time></trkpt><trkpt lat="44.872856546342405" lon="9.854639687908191"><ele>185.0</ele><time>2026-03-29T07:21:59.999Z</time></trkpt><trkpt lat="44.87277534251492" lon="9.854682528009919"><ele>185.0</ele><time>2026-03-29T07:22:01.999Z</time></trkpt><trkpt lat="44.87269107304434" lon="9.85472617894009"><ele>185.0</ele><time>2026-03-29T07:22:03.999Z</time></trkpt><trkpt lat="44.87261141303763" lon="9.854768173093566"><ele>185.0</ele><time>2026-03-29T07:22:05.999Z</time></trkpt><trkpt lat="44.87253176135572" lon="9.854810162911333"><ele>185.6</ele><time>2026-03-29T07:22:07.999Z</time></trkpt><trkpt lat="44.87245250310177" lon="9.854870959727009"><ele>186.2</ele><time>2026-03-29T07:22:09.999Z</time></trkpt><trkpt lat="44.872360173285834" lon="9.854910532410365"><ele>186.8</ele><time>2026-03-29T07:22:11.999Z</time></trkpt><trkpt lat="44.8722715064265" lon="9.854956441493838"><ele>187.4</ele><time>2026-03-29T07:22:13.998Z</time></trkpt><trkpt lat="44.87218078343233" lon="9.855003432139204"><ele>188.0</ele><time>2026-03-29T07:22:15.998Z</time></trkpt><trkpt lat="44.87209123454119" lon="9.855046919420147"><ele>188.0</ele><time>2026-03-29T07:22:17.998Z</time></trkpt><trkpt lat="44.8719969476848" lon="9.855090577896297"><ele>188.0</ele><time>2026-03-29T07:22:19.998Z</time></trkpt><trkpt lat="44.87190370135611" lon="9.855118705584257"><ele>188.0</ele><time>2026-03-29T07:22:21.998Z</time></trkpt><trkpt lat="44.871801739057624" lon="9.855144129130236"><ele>188.0</ele><time>2026-03-29T07:22:23.998Z</time></trkpt><trkpt lat="44.871701691130845" lon="9.85516813044875"><ele>188.0</ele><time>2026-03-29T07:22:25.998Z</time></trkpt><trkpt lat="44.87160004565358" lon="9.85518504996757"><ele>189.0</ele><time>2026-03-29T07:22:27.998Z</time></trkpt><trkpt lat="44.87149843332992" lon="9.855197102937607"><ele>190.0</ele><time>2026-03-29T07:22:29.998Z</time></trkpt><trkpt lat="44.87139866885271" lon="9.855207057315495"><ele>191.0</ele><time>2026-03-29T07:22:31.998Z</time></trkpt><trkpt lat="44.87130443745397" lon="9.855218831732444"><ele>192.0</ele><time>2026-03-29T07:22:33.998Z</time></trkpt><trkpt lat="44.87121734913849" lon="9.855203510883396"><ele>193.0</ele><time>2026-03-29T07:22:35.998Z</time></trkpt><trkpt lat="44.871131348946236" lon="9.855229257030144"><ele>192.99999999999997</ele><time>2026-03-29T07:22:37.998Z</time></trkpt><trkpt lat="44.87104575299691" lon="9.85525878028702"><ele>193.0</ele><time>2026-03-29T07:22:39.998Z</time></trkpt><trkpt lat="44.87096068592893" lon="9.855292542955215"><ele>193.0</ele><time>2026-03-29T07:22:41.998Z</time></trkpt><trkpt lat="44.87087625815115" lon="9.855327626611146"><ele>193.0</ele><time>2026-03-29T07:22:43.998Z</time></trkpt><trkpt lat="44.870788005852404" lon="9.85536245442731"><ele>192.99999999999997</ele><time>2026-03-29T07:22:45.998Z</time></trkpt><trkpt lat="44.87070092659174" lon="9.855390334657875"><ele>193.0</ele><time>2026-03-29T07:22:48Z</time></trkpt><trkpt lat="44.87061338646968" lon="9.855417975264789"><ele>193.16666666666666</ele><time>2026-03-29T07:22:50Z</time></trkpt><trkpt lat="44.87052805887434" lon="9.85544462648422"><ele>193.33333333333331</ele><time>2026-03-29T07:22:52Z</time></trkpt><trkpt lat="44.87044424871766" lon="9.85547080374574"><ele>193.5</ele><time>2026-03-29T07:22:54Z</time></trkpt><trkpt lat="44.870363808671875" lon="9.85552928786385"><ele>193.66666666666669</ele><time>2026-03-29T07:22:56Z</time></trkpt><trkpt lat="44.870276777386245" lon="9.855556447462918"><ele>193.83333333333334</ele><time>2026-03-29T07:22:58Z</time></trkpt><trkpt lat="44.870191782749785" lon="9.855587363930683"><ele>194.0</ele><time>2026-03-29T07:23:00Z</time></trkpt><trkpt lat="44.870108137644685" lon="9.85561754413763"><ele>194.50000000000003</ele><time>2026-03-29T07:23:02Z</time></trkpt><trkpt lat="44.87002448673326" lon="9.855648436854093"><ele>195.0</ele><time>2026-03-29T07:23:04Z</time></trkpt><trkpt lat="44.86994539747333" lon="9.855681216128493"><ele>195.5</ele><time>2026-03-29T07:23:06Z</time></trkpt><trkpt lat="44.86986610161064" lon="9.855725732901883"><ele>196.0</ele><time>2026-03-29T07:23:08Z</time></trkpt><trkpt lat="44.8697879294424" lon="9.855771433317383"><ele>196.50000000000003</ele><time>2026-03-29T07:23:10Z</time></trkpt><trkpt lat="44.86970851585479" lon="9.855813430042724"><ele>197.0</ele><time>2026-03-29T07:23:12Z</time></trkpt><trkpt lat="44.86962712364219" lon="9.855855521759391"><ele>197.00000000000003</ele><time>2026-03-29T07:23:14Z</time></trkpt><trkpt lat="44.86954634624896" lon="9.855896322377308"><ele>197.0</ele><time>2026-03-29T07:23:16Z</time></trkpt><trkpt lat="44.869467803036926" lon="9.855940343829111"><ele>197.0</ele><time>2026-03-29T07:23:18Z</time></trkpt><trkpt lat="44.86939005104625" lon="9.855985523333318"><ele>197.0</ele><time>2026-03-29T07:23:20Z</time></trkpt><trkpt lat="44.86931658823242" lon="9.856034206521567"><ele>197.00000000000003</ele><time>2026-03-29T07:23:22Z</time></trkpt><trkpt lat="44.869241272008786" lon="9.856090617676406"><ele>197.0</ele><time>2026-03-29T07:23:23.999Z</time></trkpt><trkpt lat="44.86916524182954" lon="9.856153577295238"><ele>198.00000000000003</ele><time>2026-03-29T07:23:25.999Z</time></trkpt><trkpt lat="44.86909146455232" lon="9.856217369877767"><ele>199.0</ele><time>2026-03-29T07:23:27.999Z</time></trkpt><trkpt lat="44.86901864596951" lon="9.85628602712248"><ele>200.0</ele><time>2026-03-29T07:23:29.999Z</time></trkpt><trkpt lat="44.86894824832131" lon="9.856364635341937"><ele>201.0</ele><time>2026-03-29T07:23:31.999Z</time></trkpt><trkpt lat="44.868874106711765" lon="9.856436018381693"><ele>202.00000000000003</ele><time>2026-03-29T07:23:33.999Z</time></trkpt><trkpt lat="44.86880094316485" lon="9.856507395606926"><ele>203.0</ele><time>2026-03-29T07:23:35.999Z</time></trkpt><trkpt lat="44.86872175063389" lon="9.85656629626685"><ele>203.00000000000003</ele><time>2026-03-29T07:23:37.999Z</time></trkpt><trkpt lat="44.868644308845774" lon="9.856626772068083"><ele>203.0</ele><time>2026-03-29T07:23:39.999Z</time></trkpt><trkpt lat="44.8685652345517" lon="9.856689345090105"><ele>203.0</ele><time>2026-03-29T07:23:41.999Z</time></trkpt><trkpt lat="44.86848908981206" lon="9.856749896375767"><ele>203.0</ele><time>2026-03-29T07:23:43.999Z</time></trkpt><trkpt lat="44.868408940303496" lon="9.856807598130152"><ele>203.00000000000003</ele><time>2026-03-29T07:23:45.999Z</time></trkpt><trkpt lat="44.868331348732404" lon="9.85686534893203"><ele>203.0</ele><time>2026-03-29T07:23:47.999Z</time></trkpt><trkpt lat="44.86825018295336" lon="9.856920876875906"><ele>203.0</ele><time>2026-03-29T07:23:49.999Z</time></trkpt><trkpt lat="44.868167817498566" lon="9.856985514290738"><ele>203.0</ele><time>2026-03-29T07:23:51.999Z</time></trkpt><trkpt lat="44.8680854395367" lon="9.857042184474885"><ele>203.0</ele><time>2026-03-29T07:23:53.999Z</time></trkpt><trkpt lat="44.86800343372624" lon="9.857094391882637"><ele>203.0</ele><time>2026-03-29T07:23:55.999Z</time></trkpt><trkpt lat="44.86792364209525" lon="9.857143494279756"><ele>203.0</ele><time>2026-03-29T07:23:57.999Z</time></trkpt><trkpt lat="44.86783768596708" lon="9.857183803687674"><ele>203.00000000000003</ele><time>2026-03-29T07:23:59.999Z</time></trkpt><trkpt lat="44.86774844720833" lon="9.857209094387484"><ele>203.0</ele><time>2026-03-29T07:24:01.999Z</time></trkpt><trkpt lat="44.86766330476132" lon="9.857235284856369"><ele>203.0</ele><time>2026-03-29T07:24:03.999Z</time></trkpt><trkpt lat="44.86757724660792" lon="9.857254608366864"><ele>203.0</ele><time>2026-03-29T07:24:05.999Z</time></trkpt><trkpt lat="44.86749036967805" lon="9.857273690451047"><ele>203.00000000000003</ele><time>2026-03-29T07:24:07.999Z</time></trkpt><trkpt lat="44.86740468538923" lon="9.857292471371023"><ele>203.0</ele><time>2026-03-29T07:24:09.999Z</time></trkpt><trkpt lat="44.86731848693464" lon="9.857312809202556"><ele>203.33333333333334</ele><time>2026-03-29T07:24:11.999Z</time></trkpt><trkpt lat="44.86723322416978" lon="9.857330487065926"><ele>203.66666666666669</ele><time>2026-03-29T07:24:13.999Z</time></trkpt><trkpt lat="44.867148331553956" lon="9.857350648628316"><ele>204.0</ele><time>2026-03-29T07:24:15.998Z</time></trkpt><trkpt lat="44.86706177288491" lon="9.857371960428424"><ele>204.33333333333331</ele><time>2026-03-29T07:24:17.998Z</time></trkpt><trkpt lat="44.86697528731618" lon="9.857388865307227"><ele>204.66666666666666</ele><time>2026-03-29T07:24:19.998Z</time></trkpt><trkpt lat="44.86688704773137" lon="9.85741238452076"><ele>205.0</ele><time>2026-03-29T07:24:21.998Z</time></trkpt><trkpt lat="44.866799841362486" lon="9.857431980310066"><ele>205.99999999999997</ele><time>2026-03-29T07:24:23.998Z</time></trkpt><trkpt lat="44.86671262430716" lon="9.857452882087589"><ele>207.0</ele><time>2026-03-29T07:24:25.998Z</time></trkpt><trkpt lat="44.86662614258871" lon="9.857473544860358"><ele>208.0</ele><time>2026-03-29T07:24:27.998Z</time></trkpt><trkpt lat="44.86653877699107" lon="9.85749428297364"><ele>209.0</ele><time>2026-03-29T07:24:29.998Z</time></trkpt><trkpt lat="44.866453984532924" lon="9.85751188822227"><ele>209.99999999999997</ele><time>2026-03-29T07:24:31.998Z</time></trkpt><trkpt lat="44.86637440702596" lon="9.857527515513711"><ele>211.0</ele><time>2026-03-29T07:24:33.998Z</time></trkpt><trkpt lat="44.86629521826092" lon="9.857546125179654"><ele>210.99999999999997</ele><time>2026-03-29T07:24:35.998Z</time></trkpt><trkpt lat="44.866213449304176" lon="9.857566804174473"><ele>211.0</ele><time>2026-03-29T07:24:37.998Z</time></trkpt><trkpt lat="44.86613340701378" lon="9.857584899234917"><ele>211.0</ele><time>2026-03-29T07:24:39.998Z</time></trkpt><trkpt lat="44.86604946671391" lon="9.857604036093237"><ele>211.0</ele><time>2026-03-29T07:24:41.998Z</time></trkpt><trkpt lat="44.865965739276604" lon="9.857617895841138"><ele>210.99999999999997</ele><time>2026-03-29T07:24:43.998Z</time></trkpt><trkpt lat="44.86588094097535" lon="9.857635018913797"><ele>211.0</ele><time>2026-03-29T07:24:45.998Z</time></trkpt><trkpt lat="44.86580005549334" lon="9.857651552270037"><ele>211.33333333333331</ele><time>2026-03-29T07:24:47.998Z</time></trkpt><trkpt lat="44.86573340702702" lon="9.857663506642002"><ele>211.66666666666666</ele><time>2026-03-29T07:24:49.998Z</time></trkpt><trkpt lat="44.865654964192856" lon="9.857681929562052"><ele>212.0</ele><time>2026-03-29T07:24:51.998Z</time></trkpt><trkpt lat="44.865566664108854" lon="9.857700489468757"><ele>212.33333333333331</ele><time>2026-03-29T07:24:54Z</time></trkpt><trkpt lat="44.86548389746579" lon="9.857723723185696"><ele>212.66666666666666</ele><time>2026-03-29T07:24:56Z</time></trkpt><trkpt lat="44.86540673126158" lon="9.857740231598717"><ele>213.0</ele><time>2026-03-29T07:24:58Z</time></trkpt><trkpt lat="44.865309757770746" lon="9.857761018090194"><ele>213.0</ele><time>2026-03-29T07:25:01Z</time></trkpt><trkpt lat="44.865230866580944" lon="9.857780503845397"><ele>213.0</ele><time>2026-03-29T07:25:03Z</time></trkpt><trkpt lat="44.86515444697235" lon="9.85779907902246"><ele>213.0</ele><time>2026-03-29T07:25:05Z</time></trkpt><trkpt lat="44.865078063662445" lon="9.857817471018128"><ele>213.0</ele><time>2026-03-29T07:25:07Z</time></trkpt><trkpt lat="44.865001778234145" lon="9.857835635057548"><ele>213.0</ele><time>2026-03-29T07:25:09Z</time></trkpt><trkpt lat="44.86492041468189" lon="9.857854105998749"><ele>213.0</ele><time>2026-03-29T07:25:11Z</time></trkpt><trkpt lat="44.8648439795355" lon="9.857872508562853"><ele>214.16666666666666</ele><time>2026-03-29T07:25:13Z</time></trkpt><trkpt lat="44.864767318617226" lon="9.85789268575246"><ele>215.33333333333331</ele><time>2026-03-29T07:25:15Z</time></trkpt><trkpt lat="44.86469242077658" lon="9.857909738831546"><ele>216.5</ele><time>2026-03-29T07:25:17Z</time></trkpt><trkpt lat="44.86462051069591" lon="9.857927571618795"><ele>217.66666666666666</ele><time>2026-03-29T07:25:19Z</time></trkpt><trkpt lat="44.86454398281071" lon="9.857948537699631"><ele>218.83333333333331</ele><time>2026-03-29T07:25:21Z</time></trkpt><trkpt lat="44.8644663503639" lon="9.857967403602004"><ele>220.0</ele><time>2026-03-29T07:25:23Z</time></trkpt><trkpt lat="44.86434589731208" lon="9.857997497462334"><ele>219.99999999999997</ele><time>2026-03-29T07:25:26Z</time></trkpt><trkpt lat="44.86428113669921" lon="9.85801402093631"><ele>220.0</ele><time>2026-03-29T07:25:27.999Z</time></trkpt><trkpt lat="44.864217375047936" lon="9.858033549988903"><ele>220.0</ele><time>2026-03-29T07:25:30.999Z</time></trkpt><trkpt lat="44.864107914550466" lon="9.858046195128994"><ele>220.0</ele><time>2026-03-29T07:25:31.999Z</time></trkpt><trkpt lat="44.8640390163051" lon="9.858057783727793"><ele>219.99999999999997</ele><time>2026-03-29T07:25:33.999Z</time></trkpt><trkpt lat="44.863971426945895" lon="9.858051265416236"><ele>220.0</ele><time>2026-03-29T07:25:35.999Z</time></trkpt><trkpt lat="44.86389231052213" lon="9.858035576304282"><ele>220.49999999999997</ele><time>2026-03-29T07:25:37.999Z</time></trkpt><trkpt lat="44.863813621293104" lon="9.858014593664995"><ele>221.0</ele><time>2026-03-29T07:25:39.999Z</time></trkpt><trkpt lat="44.86373578971802" lon="9.857987962976484"><ele>221.5</ele><time>2026-03-29T07:25:41.999Z</time></trkpt><trkpt lat="44.863649007994574" lon="9.857962652128569"><ele>222.0</ele><time>2026-03-29T07:25:43.999Z</time></trkpt><trkpt lat="44.8635669445812" lon="9.857938170609271"><ele>222.49999999999997</ele><time>2026-03-29T07:25:45.999Z</time></trkpt><trkpt lat="44.86348707919268" lon="9.857911810386305"><ele>223.0</ele><time>2026-03-29T07:25:47.999Z</time></trkpt><trkpt lat="44.863400330952096" lon="9.857879365123138"><ele>224.16666666666666</ele><time>2026-03-29T07:25:50.999Z</time></trkpt><trkpt lat="44.86329648350735" lon="9.857843267333813"><ele>225.33333333333331</ele><time>2026-03-29T07:25:52.999Z</time></trkpt><trkpt lat="44.86322009740893" lon="9.857819505618503"><ele>226.5</ele><time>2026-03-29T07:25:54.999Z</time></trkpt><trkpt lat="44.86314913318943" lon="9.857798321601047"><ele>227.66666666666669</ele><time>2026-03-29T07:25:56.999Z</time></trkpt><trkpt lat="44.86307501534968" lon="9.857770147039485"><ele>228.83333333333334</ele><time>2026-03-29T07:25:58.999Z</time></trkpt><trkpt lat="44.86300425685313" lon="9.857741850967937"><ele>230.0</ele><time>2026-03-29T07:26:00.999Z</time></trkpt><trkpt lat="44.86293845544536" lon="9.85772535281322"><ele>230.00000000000003</ele><time>2026-03-29T07:26:02.999Z</time></trkpt><trkpt lat="44.862871293429045" lon="9.857702250185977"><ele>230.0</ele><time>2026-03-29T07:26:04.999Z</time></trkpt><trkpt lat="44.8628064993529" lon="9.857677167737418"><ele>230.0</ele><time>2026-03-29T07:26:06.999Z</time></trkpt><trkpt lat="44.86273750928034" lon="9.857657538154763"><ele>230.0</ele><time>2026-03-29T07:26:08.999Z</time></trkpt><trkpt lat="44.86267058537572" lon="9.857639239816287"><ele>230.00000000000003</ele><time>2026-03-29T07:26:10.999Z</time></trkpt><trkpt lat="44.86257574988687" lon="9.857606277551204"><ele>230.0</ele><time>2026-03-29T07:26:12.999Z</time></trkpt><trkpt lat="44.86249602680759" lon="9.857568312101474"><ele>230.50000000000003</ele><time>2026-03-29T07:26:15.999Z</time></trkpt><trkpt lat="44.86240975644381" lon="9.857530374434232"><ele>231.0</ele><time>2026-03-29T07:26:18.999Z</time></trkpt><trkpt lat="44.862319769430094" lon="9.85748749647366"><ele>231.5</ele><time>2026-03-29T07:26:21.998Z</time></trkpt><trkpt lat="44.86225721648636" lon="9.857465448592043"><ele>232.0</ele><time>2026-03-29T07:26:23.998Z</time></trkpt><trkpt lat="44.862189248419014" lon="9.857443130318742"><ele>232.50000000000003</ele><time>2026-03-29T07:26:25.998Z</time></trkpt><trkpt lat="44.86208459404257" lon="9.857405674532503"><ele>233.0</ele><time>2026-03-29T07:26:28.998Z</time></trkpt><trkpt lat="44.86201885451188" lon="9.857379472531866"><ele>233.0</ele><time>2026-03-29T07:26:30.998Z</time></trkpt><trkpt lat="44.86183138592145" lon="9.857348902715366"><ele>233.0</ele><time>2026-03-29T07:26:32.998Z</time></trkpt><trkpt lat="44.861742728416466" lon="9.85731132130659"><ele>233.0</ele><time>2026-03-29T07:26:34.998Z</time></trkpt><trkpt lat="44.861659446306554" lon="9.857281577280615"><ele>233.0</ele><time>2026-03-29T07:26:36.998Z</time></trkpt><trkpt lat="44.86158348194937" lon="9.857254082108351"><ele>233.0</ele><time>2026-03-29T07:26:38.998Z</time></trkpt><trkpt lat="44.8615069445464" lon="9.857229442158895"><ele>233.83333333333334</ele><time>2026-03-29T07:26:40.998Z</time></trkpt><trkpt lat="44.86143289805016" lon="9.85720315284554"><ele>234.66666666666669</ele><time>2026-03-29T07:26:42.998Z</time></trkpt><trkpt lat="44.861356340558835" lon="9.857176288363043"><ele>235.5</ele><time>2026-03-29T07:26:44.998Z</time></trkpt><trkpt lat="44.86128234758195" lon="9.857153369522761"><ele>236.33333333333331</ele><time>2026-03-29T07:26:46.998Z</time></trkpt><trkpt lat="44.86120270898188" lon="9.857126747759471"><ele>237.16666666666666</ele><time>2026-03-29T07:26:48.998Z</time></trkpt><trkpt lat="44.86112149672479" lon="9.85709610016672"><ele>238.0</ele><time>2026-03-29T07:26:50.998Z</time></trkpt><trkpt lat="44.86102301559883" lon="9.857076746844081"><ele>238.0</ele><time>2026-03-29T07:26:52.998Z</time></trkpt><trkpt lat="44.860949951614074" lon="9.857049349313284"><ele>238.0</ele><time>2026-03-29T07:26:54.998Z</time></trkpt><trkpt lat="44.86088522153721" lon="9.857030488688101"><ele>238.0</ele><time>2026-03-29T07:26:56.998Z</time></trkpt><trkpt lat="44.860822745045574" lon="9.857010217064722"><ele>238.0</ele><time>2026-03-29T07:26:58Z</time></trkpt><trkpt lat="44.86075902328136" lon="9.856971479201873"><ele>238.0</ele><time>2026-03-29T07:27:00Z</time></trkpt><trkpt lat="44.860680311070375" lon="9.8569451784648"><ele>238.0</ele><time>2026-03-29T07:27:02Z</time></trkpt><trkpt lat="44.86060291942329" lon="9.856915677630536"><ele>238.0</ele><time>2026-03-29T07:27:04Z</time></trkpt><trkpt lat="44.86052465938506" lon="9.856888651108319"><ele>238.16666666666666</ele><time>2026-03-29T07:27:06Z</time></trkpt><trkpt lat="44.86044928204318" lon="9.856866123816225"><ele>238.33333333333331</ele><time>2026-03-29T07:27:08Z</time></trkpt><trkpt lat="44.86036978563537" lon="9.856838365987787"><ele>238.5</ele><time>2026-03-29T07:27:10Z</time></trkpt><trkpt lat="44.86029414749784" lon="9.856814294056935"><ele>238.66666666666669</ele><time>2026-03-29T07:27:12Z</time></trkpt><trkpt lat="44.86021678703813" lon="9.856788046448454"><ele>238.83333333333334</ele><time>2026-03-29T07:27:14Z</time></trkpt><trkpt lat="44.86014068259383" lon="9.856761237875755"><ele>239.0</ele><time>2026-03-29T07:27:16Z</time></trkpt><trkpt lat="44.86006642968383" lon="9.85673460833242"><ele>239.66666666666669</ele><time>2026-03-29T07:27:18Z</time></trkpt><trkpt lat="44.86000259779765" lon="9.85671831699223"><ele>240.33333333333334</ele><time>2026-03-29T07:27:20Z</time></trkpt><trkpt lat="44.859912350856824" lon="9.856684483451447"><ele>241.0</ele><time>2026-03-29T07:27:23Z</time></trkpt><trkpt lat="44.85984240236102" lon="9.856664796344521"><ele>241.66666666666669</ele><time>2026-03-29T07:27:25Z</time></trkpt><trkpt lat="44.859765753965526" lon="9.856631755916219"><ele>242.33333333333334</ele><time>2026-03-29T07:27:27Z</time></trkpt><trkpt lat="44.8596945740972" lon="9.856614648896729"><ele>243.0</ele><time>2026-03-29T07:27:28Z</time></trkpt><trkpt lat="44.859613606385864" lon="9.85659007340304"><ele>243.0</ele><time>2026-03-29T07:27:30Z</time></trkpt><trkpt lat="44.85953377121335" lon="9.85656138391584"><ele>243.0</ele><time>2026-03-29T07:27:32Z</time></trkpt><trkpt lat="44.859454017679234" lon="9.85653843299589"><ele>243.0</ele><time>2026-03-29T07:27:33.999Z</time></trkpt><trkpt lat="44.8593757033367" lon="9.856509515579171"><ele>243.0</ele><time>2026-03-29T07:27:35.999Z</time></trkpt><trkpt lat="44.85929946659791" lon="9.856482907054145"><ele>243.0</ele><time>2026-03-29T07:27:37.999Z</time></trkpt><trkpt lat="44.859227085530506" lon="9.856461552190705"><ele>243.0</ele><time>2026-03-29T07:27:39.999Z</time></trkpt><trkpt lat="44.85914954378125" lon="9.856435200252127"><ele>244.33333333333334</ele><time>2026-03-29T07:27:41.999Z</time></trkpt><trkpt lat="44.859073062172726" lon="9.856411067645343"><ele>245.66666666666669</ele><time>2026-03-29T07:27:43.999Z</time></trkpt><trkpt lat="44.85899765123294" lon="9.856388463815385"><ele>247.0</ele><time>2026-03-29T07:27:45.999Z</time></trkpt><trkpt lat="44.858916337012325" lon="9.856363549018283"><ele>248.33333333333334</ele><time>2026-03-29T07:27:47.999Z</time></trkpt><trkpt lat="44.85883498993886" lon="9.856331478680119"><ele>249.66666666666669</ele><time>2026-03-29T07:27:50.999Z</time></trkpt><trkpt lat="44.85875531247625" lon="9.856299441049257"><ele>251.0</ele><time>2026-03-29T07:27:53.999Z</time></trkpt><trkpt lat="44.85862013123994" lon="9.856257048224684"><ele>251.00000000000003</ele><time>2026-03-29T07:27:55.999Z</time></trkpt><trkpt lat="44.85854644137185" lon="9.856227910107092"><ele>251.0</ele><time>2026-03-29T07:27:57.999Z</time></trkpt><trkpt lat="44.85847114615097" lon="9.856200419876044"><ele>251.0</ele><time>2026-03-29T07:27:59.999Z</time></trkpt><trkpt lat="44.858390652951435" lon="9.85617154406759"><ele>251.0</ele><time>2026-03-29T07:28:01.999Z</time></trkpt><trkpt lat="44.858310652239844" lon="9.85614289132701"><ele>251.00000000000003</ele><time>2026-03-29T07:28:03.999Z</time></trkpt><trkpt lat="44.858228770982855" lon="9.856117448454143"><ele>251.0</ele><time>2026-03-29T07:28:05.999Z</time></trkpt><trkpt lat="44.85814865712488" lon="9.85608760160403"><ele>251.66666666666669</ele><time>2026-03-29T07:28:07.999Z</time></trkpt><trkpt lat="44.85807158989209" lon="9.856053309364846"><ele>252.33333333333334</ele><time>2026-03-29T07:28:09.999Z</time></trkpt><trkpt lat="44.8579966708021" lon="9.856018313362663"><ele>253.0</ele><time>2026-03-29T07:28:11.999Z</time></trkpt><trkpt lat="44.85792036754987" lon="9.855976891393112"><ele>253.66666666666669</ele><time>2026-03-29T07:28:13.999Z</time></trkpt><trkpt lat="44.85784485449043" lon="9.855940629322484"><ele>254.33333333333334</ele><time>2026-03-29T07:28:15.999Z</time></trkpt><trkpt lat="44.85776314499252" lon="9.855888566619504"><ele>255.0</ele><time>2026-03-29T07:28:17.999Z</time></trkpt><trkpt lat="44.85768722313469" lon="9.855848475814513"><ele>255.5</ele><time>2026-03-29T07:28:19.999Z</time></trkpt><trkpt lat="44.85761157090437" lon="9.855802349762923"><ele>256.0</ele><time>2026-03-29T07:28:21.999Z</time></trkpt><trkpt lat="44.85753798213555" lon="9.855758209993198"><ele>256.5</ele><time>2026-03-29T07:28:23.999Z</time></trkpt><trkpt lat="44.85745858586517" lon="9.855715908430694"><ele>257.0</ele><time>2026-03-29T07:28:25.998Z</time></trkpt><trkpt lat="44.8573800287029" lon="9.85567246081931"><ele>257.5</ele><time>2026-03-29T07:28:27.998Z</time></trkpt><trkpt lat="44.857295665161374" lon="9.855618715149289"><ele>258.0</ele><time>2026-03-29T07:28:29.998Z</time></trkpt><trkpt lat="44.85720886054415" lon="9.855585920192885"><ele>258.0</ele><time>2026-03-29T07:28:31.998Z</time></trkpt><trkpt lat="44.85712162888855" lon="9.855558156559393"><ele>258.0</ele><time>2026-03-29T07:28:33.998Z</time></trkpt><trkpt lat="44.85702799822458" lon="9.855532371020136"><ele>258.0</ele><time>2026-03-29T07:28:35.998Z</time></trkpt><trkpt lat="44.85693347458124" lon="9.855508571414237"><ele>258.0</ele><time>2026-03-29T07:28:37.998Z</time></trkpt><trkpt lat="44.856836838178054" lon="9.855492376083328"><ele>258.0</ele><time>2026-03-29T07:28:39.998Z</time></trkpt><trkpt lat="44.8567338668294" lon="9.85549784854253"><ele>258.6</ele><time>2026-03-29T07:28:41.998Z</time></trkpt><trkpt lat="44.8566278581059" lon="9.855520284480022"><ele>259.20000000000005</ele><time>2026-03-29T07:28:43.998Z</time></trkpt><trkpt lat="44.85652109273698" lon="9.855526452375544"><ele>259.8</ele><time>2026-03-29T07:28:45.998Z</time></trkpt><trkpt lat="44.85642708027544" lon="9.855558303773096"><ele>260.40000000000003</ele><time>2026-03-29T07:28:47.998Z</time></trkpt><trkpt lat="44.85632814320344" lon="9.855595217618262"><ele>261.0</ele><time>2026-03-29T07:28:49.998Z</time></trkpt><trkpt lat="44.85624064997538" lon="9.85562959341108"><ele>261.0</ele><time>2026-03-29T07:28:51.998Z</time></trkpt><trkpt lat="44.856154990992295" lon="9.8556909530285"><ele>261.0</ele><time>2026-03-29T07:28:53.998Z</time></trkpt><trkpt lat="44.856066427599345" lon="9.855711337464149"><ele>261.0</ele><time>2026-03-29T07:28:55.998Z</time></trkpt><trkpt lat="44.85598418389355" lon="9.855777363792262"><ele>261.0</ele><time>2026-03-29T07:28:57.998Z</time></trkpt><trkpt lat="44.855905022765555" lon="9.855817748582652"><ele>261.0</ele><time>2026-03-29T07:28:59.998Z</time></trkpt><trkpt lat="44.85582932822093" lon="9.855862346162903"><ele>261.0</ele><time>2026-03-29T07:29:01.998Z</time></trkpt><trkpt lat="44.85575456255564" lon="9.855902971487508"><ele>261.5</ele><time>2026-03-29T07:29:04Z</time></trkpt><trkpt lat="44.85568359309887" lon="9.855945967817565"><ele>262.0</ele><time>2026-03-29T07:29:06Z</time></trkpt><trkpt lat="44.8556097515174" lon="9.855980280873126"><ele>262.5</ele><time>2026-03-29T07:29:08Z</time></trkpt><trkpt lat="44.85553366780275" lon="9.85601700967423"><ele>263.0</ele><time>2026-03-29T07:29:10Z</time></trkpt><trkpt lat="44.855465305209975" lon="9.856056861486323"><ele>263.5</ele><time>2026-03-29T07:29:12Z</time></trkpt><trkpt lat="44.85538296633101" lon="9.856114649838288"><ele>264.0</ele><time>2026-03-29T07:29:15Z</time></trkpt><trkpt lat="44.85532166592525" lon="9.856162378258858"><ele>264.0</ele><time>2026-03-29T07:29:17Z</time></trkpt><trkpt lat="44.85525848543207" lon="9.856203302286179"><ele>264.0</ele><time>2026-03-29T07:29:19Z</time></trkpt><trkpt lat="44.85519901121527" lon="9.856237895094974"><ele>264.0</ele><time>2026-03-29T07:29:21Z</time></trkpt><trkpt lat="44.85513589514474" lon="9.856269622535356"><ele>264.0</ele><time>2026-03-29T07:29:23Z</time></trkpt><trkpt lat="44.85506763135973" lon="9.856294694752142"><ele>264.0</ele><time>2026-03-29T07:29:25Z</time></trkpt><trkpt lat="44.8550016405599" lon="9.856319152649958"><ele>264.0</ele><time>2026-03-29T07:29:27Z</time></trkpt><trkpt lat="44.85493664532086" lon="9.856342319511437"><ele>264.0</ele><time>2026-03-29T07:29:29Z</time></trkpt><trkpt lat="44.85486730146605" lon="9.856360548470422"><ele>264.8333333333333</ele><time>2026-03-29T07:29:31Z</time></trkpt><trkpt lat="44.854792296112464" lon="9.856375423051055"><ele>265.6666666666667</ele><time>2026-03-29T07:29:33Z</time></trkpt><trkpt lat="44.85471986536951" lon="9.856388581730574"><ele>266.5</ele><time>2026-03-29T07:29:35Z</time></trkpt><trkpt lat="44.854625052026186" lon="9.856401791696692"><ele>267.33333333333337</ele><time>2026-03-29T07:29:37.999Z</time></trkpt><trkpt lat="44.85451259441284" lon="9.856417547124163"><ele>268.1666666666667</ele><time>2026-03-29T07:29:39.999Z</time></trkpt><trkpt lat="44.854448408510166" lon="9.85641776522417"><ele>269.0</ele><time>2026-03-29T07:29:41.999Z</time></trkpt><trkpt lat="44.854361784527555" lon="9.856428147281784"><ele>269.8</ele><time>2026-03-29T07:29:44.999Z</time></trkpt><trkpt lat="44.85427985610389" lon="9.856420667088758"><ele>270.59999999999997</ele><time>2026-03-29T07:29:47.999Z</time></trkpt><trkpt lat="44.85421401755815" lon="9.856409165195043"><ele>271.4</ele><time>2026-03-29T07:29:50.999Z</time></trkpt><trkpt lat="44.854061916964014" lon="9.856420986236243"><ele>272.2</ele><time>2026-03-29T07:29:51.999Z</time></trkpt><trkpt lat="44.85398401938423" lon="9.856414141777737"><ele>273.0</ele><time>2026-03-29T07:29:53.999Z</time></trkpt><trkpt lat="44.85390715309878" lon="9.856402741756973"><ele>273.0</ele><time>2026-03-29T07:29:55.999Z</time></trkpt><trkpt lat="44.85383105833134" lon="9.856396371230101"><ele>273.0</ele><time>2026-03-29T07:29:57.999Z</time></trkpt><trkpt lat="44.853749832447775" lon="9.856389208487906"><ele>273.0</ele><time>2026-03-29T07:29:59.999Z</time></trkpt><trkpt lat="44.853672026806684" lon="9.85637857908942"><ele>273.0</ele><time>2026-03-29T07:30:01.999Z</time></trkpt><trkpt lat="44.85359392466337" lon="9.85636696679691"><ele>273.0</ele><time>2026-03-29T07:30:03.999Z</time></trkpt><trkpt lat="44.8535148760672" lon="9.856347149770718"><ele>273.0</ele><time>2026-03-29T07:30:05.999Z</time></trkpt><trkpt lat="44.853435644074416" lon="9.85632423678614"><ele>273.4</ele><time>2026-03-29T07:30:07.999Z</time></trkpt><trkpt lat="44.853355920115696" lon="9.856290119831106"><ele>273.8</ele><time>2026-03-29T07:30:09.999Z</time></trkpt><trkpt lat="44.85323399060751" lon="9.856257575264332"><ele>274.2</ele><time>2026-03-29T07:30:12.999Z</time></trkpt><trkpt lat="44.853109010220386" lon="9.856203690234436"><ele>274.6</ele><time>2026-03-29T07:30:15.999Z</time></trkpt><trkpt lat="44.85302861323042" lon="9.856178376559901"><ele>275.0</ele><time>2026-03-29T07:30:17.999Z</time></trkpt><trkpt lat="44.852948839698335" lon="9.856146914100272"><ele>275.0</ele><time>2026-03-29T07:30:19.999Z</time></trkpt><trkpt lat="44.85286787145112" lon="9.856125887994152"><ele>275.0</ele><time>2026-03-29T07:30:21.999Z</time></trkpt><trkpt lat="44.85278635432512" lon="9.85610812081788"><ele>275.0</ele><time>2026-03-29T07:30:23.999Z</time></trkpt><trkpt lat="44.85270345147613" lon="9.856086138817915"><ele>275.0</ele><time>2026-03-29T07:30:25.999Z</time></trkpt><trkpt lat="44.85262195336262" lon="9.85607338435562"><ele>275.0</ele><time>2026-03-29T07:30:27.999Z</time></trkpt><trkpt lat="44.8525451397388" lon="9.856055791636072"><ele>275.0</ele><time>2026-03-29T07:30:29.998Z</time></trkpt><trkpt lat="44.852465841485" lon="9.856040178675752"><ele>274.6666666666667</ele><time>2026-03-29T07:30:31.998Z</time></trkpt><trkpt lat="44.85237641970088" lon="9.856027026816982"><ele>274.33333333333337</ele><time>2026-03-29T07:30:33.998Z</time></trkpt><trkpt lat="44.85229608985104" lon="9.856014437668417"><ele>274.0</ele><time>2026-03-29T07:30:36.998Z</time></trkpt><trkpt lat="44.8522016605946" lon="9.856005614339539"><ele>273.6666666666667</ele><time>2026-03-29T07:30:39.998Z</time></trkpt><trkpt lat="44.85213235432005" lon="9.855991706875534"><ele>273.3333333333333</ele><time>2026-03-29T07:30:41.998Z</time></trkpt><trkpt lat="44.85206597272339" lon="9.85597292679926"><ele>273.0</ele><time>2026-03-29T07:30:43.998Z</time></trkpt><trkpt lat="44.85198914952264" lon="9.855963135721282"><ele>275.0</ele><time>2026-03-29T07:30:45.998Z</time></trkpt><trkpt lat="44.85190021199101" lon="9.855946780909708"><ele>277.0</ele><time>2026-03-29T07:30:47.998Z</time></trkpt><trkpt lat="44.851720140760484" lon="9.855937270301574"><ele>279.0</ele><time>2026-03-29T07:30:49.998Z</time></trkpt><trkpt lat="44.85163645798615" lon="9.855925556960374"><ele>281.0</ele><time>2026-03-29T07:30:51.998Z</time></trkpt><trkpt lat="44.85153835919771" lon="9.855902598768031"><ele>281.33333333333337</ele><time>2026-03-29T07:30:54.998Z</time></trkpt><trkpt lat="44.851457966751305" lon="9.85587950970244"><ele>281.6666666666667</ele><time>2026-03-29T07:30:56.998Z</time></trkpt><trkpt lat="44.85138492426449" lon="9.85586223212185"><ele>282.0</ele><time>2026-03-29T07:30:58.998Z</time></trkpt><trkpt lat="44.85131534358613" lon="9.855843568256608"><ele>282.3333333333333</ele><time>2026-03-29T07:31:00.998Z</time></trkpt><trkpt lat="44.8512362266843" lon="9.85582226732816"><ele>282.66666666666663</ele><time>2026-03-29T07:31:02.998Z</time></trkpt><trkpt lat="44.85115028617686" lon="9.855796362845608"><ele>283.0</ele><time>2026-03-29T07:31:04.998Z</time></trkpt><trkpt lat="44.85106380734556" lon="9.855771674286247"><ele>283.0</ele><time>2026-03-29T07:31:06.998Z</time></trkpt><trkpt lat="44.85098025179545" lon="9.855738140951857"><ele>283.0</ele><time>2026-03-29T07:31:08.998Z</time></trkpt><trkpt lat="44.85090835648371" lon="9.855719916233749"><ele>283.0</ele><time>2026-03-29T07:31:11Z</time></trkpt><trkpt lat="44.85083988104436" lon="9.855703992206566"><ele>283.0</ele><time>2026-03-29T07:31:14Z</time></trkpt><trkpt lat="44.850760009715785" lon="9.855695236898177"><ele>283.0</ele><time>2026-03-29T07:31:27Z</time></trkpt><trkpt lat="44.850701306088716" lon="9.85573314850443"><ele>283.0</ele><time>2026-03-29T07:31:29Z</time></trkpt><trkpt lat="44.850647045272225" lon="9.855794149921357"><ele>283.0</ele><time>2026-03-29T07:31:31Z</time></trkpt><trkpt lat="44.8505869274159" lon="9.85584766048277"><ele>282.8333333333333</ele><time>2026-03-29T07:31:33Z</time></trkpt><trkpt lat="44.85053155157209" lon="9.855901238367464"><ele>282.66666666666663</ele><time>2026-03-29T07:31:35Z</time></trkpt><trkpt lat="44.850462701702725" lon="9.855974339039593"><ele>282.5</ele><time>2026-03-29T07:31:38Z</time></trkpt><trkpt lat="44.85040417584355" lon="9.856046862976449"><ele>282.3333333333333</ele><time>2026-03-29T07:31:40.999Z</time></trkpt><trkpt lat="44.85035689168692" lon="9.856128497414598"><ele>282.1666666666667</ele><time>2026-03-29T07:33:04.998Z</time></trkpt><trkpt lat="44.85030621396035" lon="9.856212474586197"><ele>282.0</ele><time>2026-03-29T07:33:06.998Z</time></trkpt><trkpt lat="44.850250269349054" lon="9.856321459820073"><ele>280.5</ele><time>2026-03-29T07:33:08.998Z</time></trkpt><trkpt lat="44.850186792255265" lon="9.856438395156363"><ele>279.0</ele><time>2026-03-29T07:33:10.998Z</time></trkpt><trkpt lat="44.85012266431781" lon="9.856576502635512"><ele>277.5</ele><time>2026-03-29T07:33:12.998Z</time></trkpt><trkpt lat="44.85006127164074" lon="9.856627716636705"><ele>276.0</ele><time>2026-03-29T07:33:13.998Z</time></trkpt><trkpt lat="44.85002906105698" lon="9.85670963849596"><ele>274.5</ele><time>2026-03-29T07:33:14.998Z</time></trkpt><trkpt lat="44.849996430686666" lon="9.856794477502717"><ele>273.0</ele><time>2026-03-29T07:33:16Z</time></trkpt><trkpt lat="44.849963977011384" lon="9.856882525117681"><ele>273.0</ele><time>2026-03-29T07:33:17Z</time></trkpt><trkpt lat="44.84993033525939" lon="9.856973643273044"><ele>273.0</ele><time>2026-03-29T07:33:18Z</time></trkpt><trkpt lat="44.84989590067755" lon="9.857066927099986"><ele>273.0</ele><time>2026-03-29T07:33:19Z</time></trkpt><trkpt lat="44.8498604797567" lon="9.857162900017352"><ele>273.0</ele><time>2026-03-29T07:33:20Z</time></trkpt><trkpt lat="44.849823763488594" lon="9.857262382586697"><ele>273.0</ele><time>2026-03-29T07:33:21Z</time></trkpt><trkpt lat="44.849787157605725" lon="9.857363449590327"><ele>273.0</ele><time>2026-03-29T07:33:22Z</time></trkpt><trkpt lat="44.84974929829545" lon="9.85746970261836"><ele>273.0</ele><time>2026-03-29T07:33:23Z</time></trkpt><trkpt lat="44.849710241409" lon="9.857579316651668"><ele>273.0</ele><time>2026-03-29T07:33:24Z</time></trkpt><trkpt lat="44.84967154706419" lon="9.857687913323629"><ele>273.0</ele><time>2026-03-29T07:33:25Z</time></trkpt><trkpt lat="44.849631666952895" lon="9.857799837840245"><ele>273.0</ele><time>2026-03-29T07:33:26Z</time></trkpt><trkpt lat="44.84958968942973" lon="9.857914508104956"><ele>273.0</ele><time>2026-03-29T07:33:27Z</time></trkpt><trkpt lat="44.84954833621795" lon="9.858028566334278"><ele>273.0</ele><time>2026-03-29T07:33:28Z</time></trkpt><trkpt lat="44.84950927176891" lon="9.858148002330985"><ele>271.8</ele><time>2026-03-29T07:33:29Z</time></trkpt><trkpt lat="44.849474332463366" lon="9.858269451826237"><ele>270.6</ele><time>2026-03-29T07:33:30Z</time></trkpt><trkpt lat="44.84944175998069" lon="9.8583950114004"><ele>269.4</ele><time>2026-03-29T07:33:31Z</time></trkpt><trkpt lat="44.8494133607212" lon="9.858520065265276"><ele>268.2</ele><time>2026-03-29T07:33:32Z</time></trkpt><trkpt lat="44.849387096736734" lon="9.85864534006729"><ele>267.0</ele><time>2026-03-29T07:33:33Z</time></trkpt><trkpt lat="44.849399372253444" lon="9.858788603366596"><ele>266.0</ele><time>2026-03-29T07:33:34Z</time></trkpt><trkpt lat="44.849391352533615" lon="9.858922348320789"><ele>265.0</ele><time>2026-03-29T07:33:35Z</time></trkpt><trkpt lat="44.849380704991376" lon="9.859059627341157"><ele>264.0</ele><time>2026-03-29T07:33:36Z</time></trkpt><trkpt lat="44.84936676111574" lon="9.8591942188307"><ele>263.0</ele><time>2026-03-29T07:33:37Z</time></trkpt><trkpt lat="44.8493402425297" lon="9.859323853955177"><ele>262.0</ele><time>2026-03-29T07:33:38Z</time></trkpt><trkpt lat="44.84930768557179" lon="9.859445276818917"><ele>262.2</ele><time>2026-03-29T07:33:39Z</time></trkpt><trkpt lat="44.84926161686359" lon="9.859557342603333"><ele>262.4</ele><time>2026-03-29T07:33:40Z</time></trkpt><trkpt lat="44.849202123717184" lon="9.859659234073282"><ele>262.6</ele><time>2026-03-29T07:33:41Z</time></trkpt><trkpt lat="44.84913133246349" lon="9.85975750079049"><ele>262.8</ele><time>2026-03-29T07:33:42Z</time></trkpt><trkpt lat="44.8490477586325" lon="9.859852447448578"><ele>263.0</ele><time>2026-03-29T07:33:43Z</time></trkpt><trkpt lat="44.84895857026954" lon="9.85994296824743"><ele>263.0</ele><time>2026-03-29T07:33:44Z</time></trkpt><trkpt lat="44.84886921472143" lon="9.860027614691107"><ele>263.0</ele><time>2026-03-29T07:33:45Z</time></trkpt><trkpt lat="44.848776136332944" lon="9.86011508387107"><ele>263.0</ele><time>2026-03-29T07:33:45.999Z</time></trkpt><trkpt lat="44.848694114551016" lon="9.860209251074226"><ele>263.0</ele><time>2026-03-29T07:33:46.999Z</time></trkpt><trkpt lat="44.848608862500626" lon="9.860299506766376"><ele>263.0</ele><time>2026-03-29T07:33:47.999Z</time></trkpt><trkpt lat="44.84854643898581" lon="9.860424518820171"><ele>262.0</ele><time>2026-03-29T07:33:48.999Z</time></trkpt><trkpt lat="44.84850650956403" lon="9.860571445656925"><ele>261.0</ele><time>2026-03-29T07:33:49.999Z</time></trkpt><trkpt lat="44.84848704542877" lon="9.860730678352231"><ele>260.0</ele><time>2026-03-29T07:33:50.999Z</time></trkpt><trkpt lat="44.84848669410776" lon="9.860902249871513"><ele>259.0</ele><time>2026-03-29T07:33:51.999Z</time></trkpt><trkpt lat="44.84850175821593" lon="9.861059471040733"><ele>255.6</ele><time>2026-03-29T07:33:52.999Z</time></trkpt><trkpt lat="44.84851982470927" lon="9.861206809741677"><ele>252.2</ele><time>2026-03-29T07:33:53.999Z</time></trkpt><trkpt lat="44.84854483137652" lon="9.861355279125469"><ele>248.79999999999998</ele><time>2026-03-29T07:33:54.999Z</time></trkpt><trkpt lat="44.84858304940861" lon="9.861512739755678"><ele>245.39999999999998</ele><time>2026-03-29T07:33:55.999Z</time></trkpt><trkpt lat="44.84861961379034" lon="9.861663145356035"><ele>242.0</ele><time>2026-03-29T07:33:56.999Z</time></trkpt><trkpt lat="44.84866014893555" lon="9.861818581052194"><ele>239.0</ele><time>2026-03-29T07:33:57.999Z</time></trkpt><trkpt lat="44.84871256988177" lon="9.861977214442305"><ele>236.0</ele><time>2026-03-29T07:33:58.999Z</time></trkpt><trkpt lat="44.84876531557452" lon="9.86212894340751"><ele>233.0</ele><time>2026-03-29T07:33:59.999Z</time></trkpt><trkpt lat="44.84881516281222" lon="9.862283081770586"><ele>230.0</ele><time>2026-03-29T07:34:00.999Z</time></trkpt><trkpt lat="44.84886065422556" lon="9.862445887151871"><ele>230.0</ele><time>2026-03-29T07:34:01.999Z</time></trkpt><trkpt lat="44.848898805545495" lon="9.862604905004687"><ele>230.0</ele><time>2026-03-29T07:34:02.999Z</time></trkpt><trkpt lat="44.848934601591644" lon="9.862750265529076"><ele>230.0</ele><time>2026-03-29T07:34:03.999Z</time></trkpt><trkpt lat="44.84896994304276" lon="9.862891089607016"><ele>230.0</ele><time>2026-03-29T07:34:04.999Z</time></trkpt><trkpt lat="44.84900201787188" lon="9.863018897343235"><ele>230.0</ele><time>2026-03-29T07:34:05.999Z</time></trkpt><trkpt lat="44.849028272180426" lon="9.863123512037632"><ele>228.6</ele><time>2026-03-29T07:34:06.999Z</time></trkpt><trkpt lat="44.84906325395182" lon="9.863211556986968"><ele>227.2</ele><time>2026-03-29T07:34:07.999Z</time></trkpt><trkpt lat="44.84908389256506" lon="9.863303280597417"><ele>225.8</ele><time>2026-03-29T07:34:08.999Z</time></trkpt><trkpt lat="44.849104033718696" lon="9.86343549246392"><ele>224.4</ele><time>2026-03-29T07:34:10.999Z</time></trkpt><trkpt lat="44.84925626613713" lon="9.863393881896"><ele>223.0</ele><time>2026-03-29T07:34:12.999Z</time></trkpt><trkpt lat="44.84934174075626" lon="9.863291786825195"><ele>223.0</ele><time>2026-03-29T07:34:14.999Z</time></trkpt><trkpt lat="44.84942310889005" lon="9.863194452470083"><ele>223.0</ele><time>2026-03-29T07:34:16.999Z</time></trkpt><trkpt lat="44.849509431997454" lon="9.863107242870763"><ele>223.0</ele><time>2026-03-29T07:34:18.999Z</time></trkpt><trkpt lat="44.849608398240875" lon="9.863027159259602"><ele>223.0</ele><time>2026-03-29T07:34:20.999Z</time></trkpt><trkpt lat="44.84968880478363" lon="9.862898350721903"><ele>223.0</ele><time>2026-03-29T07:34:22.999Z</time></trkpt><trkpt lat="44.849735484757" lon="9.862836877825922"><ele>222.99999999999997</ele><time>2026-03-29T07:34:23.999Z</time></trkpt><trkpt lat="44.84978062484827" lon="9.862762348313058"><ele>223.0</ele><time>2026-03-29T07:34:24.999Z</time></trkpt><trkpt lat="44.84981563907961" lon="9.862669010265392"><ele>223.0</ele><time>2026-03-29T07:34:25.999Z</time></trkpt><trkpt lat="44.84984670742749" lon="9.862565733372897"><ele>223.0</ele><time>2026-03-29T07:34:26.999Z</time></trkpt><trkpt lat="44.84987998264966" lon="9.862463946119952"><ele>222.99999999999997</ele><time>2026-03-29T07:34:27.999Z</time></trkpt><trkpt lat="44.84991833831707" lon="9.862364898222713"><ele>223.0</ele><time>2026-03-29T07:34:28.999Z</time></trkpt><trkpt lat="44.84995556211758" lon="9.862266897418513"><ele>222.42857142857142</ele><time>2026-03-29T07:34:29.999Z</time></trkpt><trkpt lat="44.8499902421746" lon="9.862168227759417"><ele>221.85714285714283</ele><time>2026-03-29T07:34:30.999Z</time></trkpt><trkpt lat="44.850031393877444" lon="9.862072940990505"><ele>221.28571428571428</ele><time>2026-03-29T07:34:31.999Z</time></trkpt><trkpt lat="44.8500752545369" lon="9.861987677497414"><ele>220.71428571428572</ele><time>2026-03-29T07:34:32.999Z</time></trkpt><trkpt lat="44.8501225599745" lon="9.861913363949645"><ele>220.14285714285714</ele><time>2026-03-29T07:34:33.999Z</time></trkpt><trkpt lat="44.850178903265586" lon="9.861858929161423"><ele>219.57142857142858</ele><time>2026-03-29T07:34:34.999Z</time></trkpt><trkpt lat="44.850241786939" lon="9.861836910788606"><ele>219.0</ele><time>2026-03-29T07:34:35.999Z</time></trkpt><trkpt lat="44.85030740296411" lon="9.861853064783245"><ele>219.0</ele><time>2026-03-29T07:34:36.999Z</time></trkpt><trkpt lat="44.85036474474824" lon="9.861899863633072"><ele>218.99999999999997</ele><time>2026-03-29T07:34:37.999Z</time></trkpt><trkpt lat="44.85038681418577" lon="9.861990085439045"><ele>218.99999999999997</ele><time>2026-03-29T07:34:38.998Z</time></trkpt><trkpt lat="44.85041516732939" lon="9.862175628844525"><ele>219.0</ele><time>2026-03-29T07:34:40.998Z</time></trkpt><trkpt lat="44.850426273960814" lon="9.86227476355245"><ele>219.0</ele><time>2026-03-29T07:34:41.998Z</time></trkpt><trkpt lat="44.8504516453731" lon="9.862446116553746"><ele>219.0</ele><time>2026-03-29T07:34:43.998Z</time></trkpt><trkpt lat="44.85047822453481" lon="9.862529635591507"><ele>219.0</ele><time>2026-03-29T07:34:44.998Z</time></trkpt><trkpt lat="44.85051555933932" lon="9.862612824049894"><ele>219.0</ele><time>2026-03-29T07:34:45.998Z</time></trkpt><trkpt lat="44.85054392331823" lon="9.862710839648331"><ele>219.0</ele><time>2026-03-29T07:34:46.998Z</time></trkpt><trkpt lat="44.850589504544935" lon="9.862795145151924"><ele>219.0</ele><time>2026-03-29T07:34:47.998Z</time></trkpt><trkpt lat="44.850634848241064" lon="9.862879011313813"><ele>219.0</ele><time>2026-03-29T07:34:48.998Z</time></trkpt><trkpt lat="44.85068331902456" lon="9.862964745081703"><ele>219.0</ele><time>2026-03-29T07:34:49.998Z</time></trkpt><trkpt lat="44.850743699615464" lon="9.863037654451634"><ele>218.33333333333334</ele><time>2026-03-29T07:34:50.998Z</time></trkpt><trkpt lat="44.85077611314767" lon="9.863141644612929"><ele>217.66666666666669</ele><time>2026-03-29T07:34:51.998Z</time></trkpt><trkpt lat="44.85083698209027" lon="9.863230396583601"><ele>217.0</ele><time>2026-03-29T07:34:52.998Z</time></trkpt><trkpt lat="44.8508816720259" lon="9.863328105508115"><ele>216.33333333333334</ele><time>2026-03-29T07:34:53.998Z</time></trkpt><trkpt lat="44.85092351104698" lon="9.863420190755887"><ele>215.66666666666669</ele><time>2026-03-29T07:34:54.998Z</time></trkpt><trkpt lat="44.85094337696374" lon="9.863521693382442"><ele>215.0</ele><time>2026-03-29T07:34:55.998Z</time></trkpt><trkpt lat="44.850971470412816" lon="9.863612537575717"><ele>215.0</ele><time>2026-03-29T07:34:56.998Z</time></trkpt><trkpt lat="44.85101309577437" lon="9.863698623640396"><ele>215.0</ele><time>2026-03-29T07:34:57.998Z</time></trkpt><trkpt lat="44.85101977051129" lon="9.86380477345434"><ele>215.0</ele><time>2026-03-29T07:34:58.998Z</time></trkpt><trkpt lat="44.85103695200189" lon="9.863906376221083"><ele>215.0</ele><time>2026-03-29T07:34:59.998Z</time></trkpt><trkpt lat="44.85105198022926" lon="9.864010493606346"><ele>215.0</ele><time>2026-03-29T07:35:00.998Z</time></trkpt><trkpt lat="44.85106029203541" lon="9.864105515335226"><ele>215.0</ele><time>2026-03-29T07:35:01.998Z</time></trkpt><trkpt lat="44.85106946184557" lon="9.864199220171022"><ele>215.0</ele><time>2026-03-29T07:35:02.998Z</time></trkpt><trkpt lat="44.85107854083301" lon="9.86429199684902"><ele>212.85714285714286</ele><time>2026-03-29T07:35:03.998Z</time></trkpt><trkpt lat="44.85108745058136" lon="9.864383044145322"><ele>210.71428571428572</ele><time>2026-03-29T07:35:04.998Z</time></trkpt><trkpt lat="44.85109777621076" lon="9.864474088735673"><ele>208.57142857142858</ele><time>2026-03-29T07:35:05.998Z</time></trkpt><trkpt lat="44.85111119406886" lon="9.864573774367651"><ele>206.42857142857144</ele><time>2026-03-29T07:35:06.998Z</time></trkpt><trkpt lat="44.85113730120568" lon="9.864684863169773"><ele>204.28571428571428</ele><time>2026-03-29T07:35:07.998Z</time></trkpt><trkpt lat="44.85117322629989" lon="9.864779938911823"><ele>202.14285714285717</ele><time>2026-03-29T07:35:08.998Z</time></trkpt><trkpt lat="44.85121504159767" lon="9.864872378802106"><ele>200.0</ele><time>2026-03-29T07:35:09.998Z</time></trkpt><trkpt lat="44.85126812501679" lon="9.864968220952601"><ele>200.0</ele><time>2026-03-29T07:35:10.998Z</time></trkpt><trkpt lat="44.8513236251894" lon="9.865073605062763"><ele>200.0</ele><time>2026-03-29T07:35:11.998Z</time></trkpt><trkpt lat="44.851382405316556" lon="9.86518521715421"><ele>200.0</ele><time>2026-03-29T07:35:12.998Z</time></trkpt><trkpt lat="44.85143967793504" lon="9.865293966867196"><ele>200.0</ele><time>2026-03-29T07:35:13.998Z</time></trkpt><trkpt lat="44.85151136506712" lon="9.865383996222258"><ele>200.0</ele><time>2026-03-29T07:35:14.998Z</time></trkpt><trkpt lat="44.85156866023187" lon="9.865480506577438"><ele>199.50000000000003</ele><time>2026-03-29T07:35:15.998Z</time></trkpt><trkpt lat="44.85163293299806" lon="9.865566325966002"><ele>199.0</ele><time>2026-03-29T07:35:16.998Z</time></trkpt><trkpt lat="44.85169299806423" lon="9.865663722384593"><ele>198.5</ele><time>2026-03-29T07:35:17.998Z</time></trkpt><trkpt lat="44.85176932808643" lon="9.865727986066098"><ele>198.0</ele><time>2026-03-29T07:35:18.998Z</time></trkpt><trkpt lat="44.8518525594977" lon="9.865763637786172"><ele>197.50000000000003</ele><time>2026-03-29T07:35:19.998Z</time></trkpt><trkpt lat="44.85193120272541" lon="9.865810055903728"><ele>197.0</ele><time>2026-03-29T07:35:20.998Z</time></trkpt><trkpt lat="44.85200964251658" lon="9.865867822369347"><ele>195.50000000000003</ele><time>2026-03-29T07:35:22Z</time></trkpt><trkpt lat="44.852098660361975" lon="9.86589356032412"><ele>194.0</ele><time>2026-03-29T07:35:23Z</time></trkpt><trkpt lat="44.85218335054953" lon="9.865935997889913"><ele>192.5</ele><time>2026-03-29T07:35:24Z</time></trkpt><trkpt lat="44.85225857681311" lon="9.86599743330935"><ele>191.0</ele><time>2026-03-29T07:35:25Z</time></trkpt><trkpt lat="44.85232446390225" lon="9.866060947569672"><ele>189.5</ele><time>2026-03-29T07:35:26Z</time></trkpt><trkpt lat="44.852382652863376" lon="9.866126608275302"><ele>188.0</ele><time>2026-03-29T07:35:27Z</time></trkpt><trkpt lat="44.85242393560521" lon="9.866211586608037"><ele>188.0</ele><time>2026-03-29T07:35:28Z</time></trkpt><trkpt lat="44.852488565567135" lon="9.86627047509131"><ele>188.0</ele><time>2026-03-29T07:35:29Z</time></trkpt><trkpt lat="44.8525417358043" lon="9.866341942331164"><ele>188.0</ele><time>2026-03-29T07:35:30Z</time></trkpt><trkpt lat="44.85259406399809" lon="9.86641646607638"><ele>188.0</ele><time>2026-03-29T07:35:31Z</time></trkpt><trkpt lat="44.85264470140145" lon="9.866493662840927"><ele>188.0</ele><time>2026-03-29T07:35:32Z</time></trkpt><trkpt lat="44.85267040891197" lon="9.866593586067843"><ele>188.0</ele><time>2026-03-29T07:35:33Z</time></trkpt><trkpt lat="44.852740008461" lon="9.866635662641727"><ele>187.33333333333331</ele><time>2026-03-29T07:35:34Z</time></trkpt><trkpt lat="44.85278665595096" lon="9.866707982203028"><ele>186.66666666666666</ele><time>2026-03-29T07:35:35Z</time></trkpt><trkpt lat="44.852834384562684" lon="9.866782230414886"><ele>186.0</ele><time>2026-03-29T07:35:36Z</time></trkpt><trkpt lat="44.85288128286963" lon="9.866856005217878"><ele>185.33333333333334</ele><time>2026-03-29T07:35:37Z</time></trkpt><trkpt lat="44.85292741009857" lon="9.866930390603398"><ele>184.66666666666669</ele><time>2026-03-29T07:35:38Z</time></trkpt><trkpt lat="44.8529683576071" lon="9.866998105351938"><ele>184.0</ele><time>2026-03-29T07:35:39Z</time></trkpt><trkpt lat="44.853028407750834" lon="9.86715764241166"><ele>182.25</ele><time>2026-03-29T07:35:41Z</time></trkpt><trkpt lat="44.85311001690444" lon="9.86728622427456"><ele>180.5</ele><time>2026-03-29T07:35:43Z</time></trkpt><trkpt lat="44.85318865575654" lon="9.867409414174922"><ele>178.75</ele><time>2026-03-29T07:35:45Z</time></trkpt><trkpt lat="44.8532607505907" lon="9.867521993165926"><ele>177.0</ele><time>2026-03-29T07:35:47Z</time></trkpt><trkpt lat="44.853340287537996" lon="9.867650380144926"><ele>177.0</ele><time>2026-03-29T07:35:49Z</time></trkpt><trkpt lat="44.85341842050265" lon="9.867771615522"><ele>177.0</ele><time>2026-03-29T07:35:50.999Z</time></trkpt><trkpt lat="44.853495741575514" lon="9.86789033853682"><ele>177.0</ele><time>2026-03-29T07:35:52.999Z</time></trkpt><trkpt lat="44.85357800056431" lon="9.868016643510282"><ele>177.0</ele><time>2026-03-29T07:35:54.999Z</time></trkpt><trkpt lat="44.85362148540218" lon="9.868083412517306"><ele>177.0</ele><time>2026-03-29T07:35:55.999Z</time></trkpt><trkpt lat="44.85370159647459" lon="9.868206996579291"><ele>176.25</ele><time>2026-03-29T07:35:57.999Z</time></trkpt><trkpt lat="44.85377566180451" lon="9.868321987951818"><ele>175.5</ele><time>2026-03-29T07:35:59.999Z</time></trkpt><trkpt lat="44.853848240202076" lon="9.868436130002467"><ele>174.75</ele><time>2026-03-29T07:36:01.999Z</time></trkpt><trkpt lat="44.85392418223299" lon="9.868562325188583"><ele>174.0</ele><time>2026-03-29T07:36:03.999Z</time></trkpt><trkpt lat="44.8540026595981" lon="9.868690181260114"><ele>173.5</ele><time>2026-03-29T07:36:05.999Z</time></trkpt><trkpt lat="44.85410334881436" lon="9.868790227092697"><ele>173.0</ele><time>2026-03-29T07:36:07.999Z</time></trkpt><trkpt lat="44.85420795339661" lon="9.868882754435568"><ele>172.5</ele><time>2026-03-29T07:36:09.999Z</time></trkpt><trkpt lat="44.85431600596006" lon="9.86896951592923"><ele>172.0</ele><time>2026-03-29T07:36:11.999Z</time></trkpt><trkpt lat="44.85441877644091" lon="9.869048766787996"><ele>172.0</ele><time>2026-03-29T07:36:13.999Z</time></trkpt><trkpt lat="44.85448710815139" lon="9.869122134945576"><ele>172.0</ele><time>2026-03-29T07:36:15.999Z</time></trkpt><trkpt lat="44.85454177745542" lon="9.869212629343092"><ele>172.0</ele><time>2026-03-29T07:36:18.999Z</time></trkpt><trkpt lat="44.854440872914346" lon="9.869444823192914"><ele>172.0</ele><time>2026-03-29T07:36:24.999Z</time></trkpt><trkpt lat="44.8543876747239" lon="9.869524170629498"><ele>172.0</ele><time>2026-03-29T07:36:26.999Z</time></trkpt><trkpt lat="44.85432484592785" lon="9.869602473085173"><ele>170.39999999999998</ele><time>2026-03-29T07:36:28.999Z</time></trkpt><trkpt lat="44.854247750801655" lon="9.869683507417875"><ele>168.79999999999998</ele><time>2026-03-29T07:36:30.999Z</time></trkpt><trkpt lat="44.854159098734996" lon="9.8697444945772"><ele>167.2</ele><time>2026-03-29T07:36:32.999Z</time></trkpt><trkpt lat="44.85406685300528" lon="9.869775098656868"><ele>165.6</ele><time>2026-03-29T07:36:34.999Z</time></trkpt><trkpt lat="44.85398329744956" lon="9.869796935917638"><ele>164.0</ele><time>2026-03-29T07:36:36.999Z</time></trkpt><trkpt lat="44.853895512404534" lon="9.86983533008328"><ele>164.0</ele><time>2026-03-29T07:36:38.999Z</time></trkpt><trkpt lat="44.85380921646243" lon="9.869894195269273"><ele>164.0</ele><time>2026-03-29T07:36:40.999Z</time></trkpt><trkpt lat="44.853723352913505" lon="9.869960111404556"><ele>164.0</ele><time>2026-03-29T07:36:42.998Z</time></trkpt><trkpt lat="44.8536553202569" lon="9.87005790800897"><ele>164.0</ele><time>2026-03-29T07:36:44.998Z</time></trkpt><trkpt lat="44.85359593922897" lon="9.870167094732365"><ele>164.0</ele><time>2026-03-29T07:36:46.998Z</time></trkpt><trkpt lat="44.85354696798708" lon="9.87027257909621"><ele>163.66666666666666</ele><time>2026-03-29T07:36:48.998Z</time></trkpt><trkpt lat="44.85349700784887" lon="9.870358958364458"><ele>163.33333333333331</ele><time>2026-03-29T07:36:50.998Z</time></trkpt><trkpt lat="44.85346166815715" lon="9.870452196482175"><ele>163.0</ele><time>2026-03-29T07:36:52.998Z</time></trkpt><trkpt lat="44.85341911048138" lon="9.870552911181653"><ele>162.66666666666666</ele><time>2026-03-29T07:36:55.998Z</time></trkpt><trkpt lat="44.853394002562226" lon="9.870684576432872"><ele>162.33333333333334</ele><time>2026-03-29T07:36:58.998Z</time></trkpt><trkpt lat="44.85337727196156" lon="9.870776828582017"><ele>162.0</ele><time>2026-03-29T07:37:00.998Z</time></trkpt><trkpt lat="44.8533622967512" lon="9.870870291279186"><ele>161.57142857142858</ele><time>2026-03-29T07:37:02.998Z</time></trkpt><trkpt lat="44.853349214632544" lon="9.870974722164357"><ele>161.14285714285714</ele><time>2026-03-29T07:37:04.998Z</time></trkpt><trkpt lat="44.85332888934523" lon="9.87108676619824"><ele>160.71428571428572</ele><time>2026-03-29T07:37:06.998Z</time></trkpt><trkpt lat="44.85330819433436" lon="9.871191760703057"><ele>160.28571428571428</ele><time>2026-03-29T07:37:08.998Z</time></trkpt><trkpt lat="44.853266472791255" lon="9.87126894703499"><ele>159.85714285714286</ele><time>2026-03-29T07:37:10.998Z</time></trkpt><trkpt lat="44.85320031011648" lon="9.871311144826757"><ele>159.42857142857142</ele><time>2026-03-29T07:37:12.998Z</time></trkpt><trkpt lat="44.85313392853669" lon="9.871328581084576"><ele>159.0</ele><time>2026-03-29T07:37:14.998Z</time></trkpt><trkpt lat="44.85307035233773" lon="9.87130444463081"><ele>159.0</ele><time>2026-03-29T07:37:16.998Z</time></trkpt><trkpt lat="44.853011773784836" lon="9.871271897759618"><ele>159.0</ele><time>2026-03-29T07:37:18.998Z</time></trkpt><trkpt lat="44.85293196904823" lon="9.871242506131807"><ele>159.0</ele><time>2026-03-29T07:37:21.998Z</time></trkpt><trkpt lat="44.852860476991616" lon="9.871223399953074"><ele>159.0</ele><time>2026-03-29T07:37:24.998Z</time></trkpt><trkpt lat="44.852811960047696" lon="9.871156734211201"><ele>159.0</ele><time>2026-03-29T07:37:39Z</time></trkpt><trkpt lat="44.8527527823889" lon="9.871188439120118"><ele>159.0</ele><time>2026-03-29T07:37:41Z</time></trkpt><trkpt lat="44.852815905614484" lon="9.8708804995195"><ele>159.42857142857142</ele><time>2026-03-29T07:37:48Z</time></trkpt><trkpt lat="44.85284177106977" lon="9.870783584595893"><ele>159.85714285714286</ele><time>2026-03-29T07:37:50Z</time></trkpt><trkpt lat="44.852859283548106" lon="9.870675286027915"><ele>160.28571428571428</ele><time>2026-03-29T07:37:52Z</time></trkpt><trkpt lat="44.852880533784486" lon="9.870583478079691"><ele>160.71428571428572</ele><time>2026-03-29T07:37:54Z</time></trkpt><trkpt lat="44.85289080203159" lon="9.87047047550503"><ele>161.14285714285714</ele><time>2026-03-29T07:37:56.999Z</time></trkpt><trkpt lat="44.852879113278256" lon="9.870370425532023"><ele>161.57142857142858</ele><time>2026-03-29T07:37:59.999Z</time></trkpt><trkpt lat="44.8528628538504" lon="9.870280186352117"><ele>162.0</ele><time>2026-03-29T07:38:02.999Z</time></trkpt><trkpt lat="44.85285305265271" lon="9.870181744074133"><ele>162.0</ele><time>2026-03-29T07:38:05.999Z</time></trkpt><trkpt lat="44.85282457742713" lon="9.870082491228153"><ele>162.0</ele><time>2026-03-29T07:38:08.999Z</time></trkpt><trkpt lat="44.852809640329035" lon="9.869973578023943"><ele>162.0</ele><time>2026-03-29T07:38:12.999Z</time></trkpt><trkpt lat="44.852753587887385" lon="9.869924057527035"><ele>162.0</ele><time>2026-03-29T07:48:15.999Z</time></trkpt><trkpt lat="44.85271344508643" lon="9.86999356226981"><ele>162.0</ele><time>2026-03-29T07:48:38.999Z</time></trkpt><trkpt lat="44.85271096039303" lon="9.870088346144586"><ele>162.0</ele><time>2026-03-29T07:48:45.999Z</time></trkpt><trkpt lat="44.85273519364196" lon="9.870196609986031"><ele>162.0</ele><time>2026-03-29T07:48:48.999Z</time></trkpt><trkpt lat="44.852763269849994" lon="9.870308133224947"><ele>162.0</ele><time>2026-03-29T07:48:51.999Z</time></trkpt><trkpt lat="44.85278232837822" lon="9.870415852006266"><ele>162.0</ele><time>2026-03-29T07:48:54.999Z</time></trkpt><trkpt lat="44.85279436136552" lon="9.870514261047083"><ele>162.0</ele><time>2026-03-29T07:48:56.999Z</time></trkpt><trkpt lat="44.85278816606156" lon="9.870634000658907"><ele>162.0</ele><time>2026-03-29T07:48:58.999Z</time></trkpt><trkpt lat="44.852766953235" lon="9.870765614675378"><ele>162.0</ele><time>2026-03-29T07:49:00.999Z</time></trkpt><trkpt lat="44.85273101645041" lon="9.870894550601301"><ele>162.0</ele><time>2026-03-29T07:49:02.999Z</time></trkpt><trkpt lat="44.85269759555826" lon="9.871019930178536"><ele>161.5</ele><time>2026-03-29T07:49:04.999Z</time></trkpt><trkpt lat="44.852663132455" lon="9.871120032046026"><ele>161.0</ele><time>2026-03-29T07:49:06.999Z</time></trkpt><trkpt lat="44.85268413497144" lon="9.871235587825018"><ele>160.5</ele><time>2026-03-29T07:49:08.999Z</time></trkpt><trkpt lat="44.85277609740727" lon="9.871264090433803"><ele>160.0</ele><time>2026-03-29T07:49:10.998Z</time></trkpt><trkpt lat="44.852851873827525" lon="9.871297734471446"><ele>159.5</ele><time>2026-03-29T07:49:12.998Z</time></trkpt><trkpt lat="44.852927782972245" lon="9.871334059500164"><ele>159.0</ele><time>2026-03-29T07:49:14.998Z</time></trkpt><trkpt lat="44.85301399461522" lon="9.871371558078321"><ele>159.0</ele><time>2026-03-29T07:49:16.998Z</time></trkpt><trkpt lat="44.85310307581983" lon="9.871408817443589"><ele>159.0</ele><time>2026-03-29T07:49:18.998Z</time></trkpt><trkpt lat="44.853177581692215" lon="9.871434578423493"><ele>159.0</ele><time>2026-03-29T07:49:20.998Z</time></trkpt><trkpt lat="44.85319637232124" lon="9.871520178841894"><ele>159.0</ele><time>2026-03-29T07:49:22.998Z</time></trkpt><trkpt lat="44.85316538250383" lon="9.871625266837302"><ele>159.0</ele><time>2026-03-29T07:49:24.998Z</time></trkpt><trkpt lat="44.85314785278891" lon="9.871726517121456"><ele>159.0</ele><time>2026-03-29T07:49:26.998Z</time></trkpt><trkpt lat="44.85312230986585" lon="9.871839113523512"><ele>158.66666666666666</ele><time>2026-03-29T07:49:28.998Z</time></trkpt><trkpt lat="44.85310986715901" lon="9.871949184447214"><ele>158.33333333333334</ele><time>2026-03-29T07:49:30.998Z</time></trkpt><trkpt lat="44.85308075080946" lon="9.872060884157824"><ele>158.0</ele><time>2026-03-29T07:49:32.998Z</time></trkpt><trkpt lat="44.85306197777979" lon="9.8721663240322"><ele>157.66666666666669</ele><time>2026-03-29T07:49:34.998Z</time></trkpt><trkpt lat="44.85303897337396" lon="9.872287605663601"><ele>157.33333333333334</ele><time>2026-03-29T07:49:36.998Z</time></trkpt><trkpt lat="44.85300737690999" lon="9.87241440808187"><ele>157.0</ele><time>2026-03-29T07:49:38.998Z</time></trkpt><trkpt lat="44.852978272014965" lon="9.872549365386291"><ele>156.79999999999998</ele><time>2026-03-29T07:49:40.998Z</time></trkpt><trkpt lat="44.85295814893966" lon="9.872677452667446"><ele>156.6</ele><time>2026-03-29T07:49:42.998Z</time></trkpt><trkpt lat="44.852931906388505" lon="9.87280298002674"><ele>156.39999999999998</ele><time>2026-03-29T07:49:44.998Z</time></trkpt><trkpt lat="44.85290767493331" lon="9.872934965654675"><ele>156.2</ele><time>2026-03-29T07:49:46.998Z</time></trkpt><trkpt lat="44.85288345976931" lon="9.873067185586333"><ele>156.0</ele><time>2026-03-29T07:49:48.998Z</time></trkpt><trkpt lat="44.85285849781642" lon="9.87319746288612"><ele>156.0</ele><time>2026-03-29T07:49:50.998Z</time></trkpt><trkpt lat="44.85280398403726" lon="9.87328405833051"><ele>156.0</ele><time>2026-03-29T07:49:52.998Z</time></trkpt><trkpt lat="44.8527169027119" lon="9.873293088370866"><ele>156.0</ele><time>2026-03-29T07:49:54.998Z</time></trkpt><trkpt lat="44.852641464297726" lon="9.873273772351281"><ele>156.0</ele><time>2026-03-29T07:49:56.998Z</time></trkpt><trkpt lat="44.85256774495273" lon="9.87329264586232"><ele>156.0</ele><time>2026-03-29T07:49:58.998Z</time></trkpt><trkpt lat="44.85251416998957" lon="9.873355467959419"><ele>156.0</ele><time>2026-03-29T07:50:00.998Z</time></trkpt><trkpt lat="44.8524696319229" lon="9.873425055249703"><ele>157.2857142857143</ele><time>2026-03-29T07:50:02.997Z</time></trkpt><trkpt lat="44.85241830295769" lon="9.873489684215283"><ele>158.57142857142856</ele><time>2026-03-29T07:50:05Z</time></trkpt><trkpt lat="44.852372896672506" lon="9.873567370248201"><ele>159.85714285714286</ele><time>2026-03-29T07:50:07Z</time></trkpt><trkpt lat="44.85232206843875" lon="9.873645861083293"><ele>161.14285714285717</ele><time>2026-03-29T07:50:09Z</time></trkpt><trkpt lat="44.8522743496051" lon="9.87371365480634"><ele>162.42857142857144</ele><time>2026-03-29T07:50:11Z</time></trkpt><trkpt lat="44.852215895022105" lon="9.873796041210314"><ele>163.71428571428572</ele><time>2026-03-29T07:50:13Z</time></trkpt><trkpt lat="44.85216390138683" lon="9.873862273164251"><ele>165.0</ele><time>2026-03-29T07:50:16Z</time></trkpt><trkpt lat="44.85211252351471" lon="9.873941086902239"><ele>165.0</ele><time>2026-03-29T07:50:17Z</time></trkpt><trkpt lat="44.85206392284925" lon="9.874018476329315"><ele>165.0</ele><time>2026-03-29T07:50:20Z</time></trkpt><trkpt lat="44.85201014076602" lon="9.874094758773234"><ele>165.0</ele><time>2026-03-29T07:50:21Z</time></trkpt><trkpt lat="44.85194091666706" lon="9.874164138864696"><ele>165.0</ele><time>2026-03-29T07:50:23.999Z</time></trkpt><trkpt lat="44.851861345806334" lon="9.87432302286713"><ele>165.0</ele><time>2026-03-29T07:50:24.999Z</time></trkpt><trkpt lat="44.85179827062417" lon="9.87440369392795"><ele>165.16666666666666</ele><time>2026-03-29T07:50:26.999Z</time></trkpt><trkpt lat="44.85174252471875" lon="9.874489702807184"><ele>165.33333333333334</ele><time>2026-03-29T07:50:28.999Z</time></trkpt><trkpt lat="44.8516904505861" lon="9.874566911874552"><ele>165.5</ele><time>2026-03-29T07:50:30.999Z</time></trkpt><trkpt lat="44.85163525485597" lon="9.874653500147826"><ele>165.66666666666669</ele><time>2026-03-29T07:50:32.999Z</time></trkpt><trkpt lat="44.851575589602724" lon="9.874734844223164"><ele>165.83333333333334</ele><time>2026-03-29T07:50:34.999Z</time></trkpt><trkpt lat="44.85150425913796" lon="9.874816675294516"><ele>166.0</ele><time>2026-03-29T07:50:36.999Z</time></trkpt><trkpt lat="44.85144636124637" lon="9.87491429370851"><ele>166.0</ele><time>2026-03-29T07:50:38.999Z</time></trkpt><trkpt lat="44.85138029606696" lon="9.875001133445954"><ele>166.0</ele><time>2026-03-29T07:50:40.999Z</time></trkpt><trkpt lat="44.85133226550472" lon="9.875087478486202"><ele>166.0</ele><time>2026-03-29T07:50:42.999Z</time></trkpt><trkpt lat="44.85127792099988" lon="9.875148527231566"><ele>166.0</ele><time>2026-03-29T07:50:44.999Z</time></trkpt><trkpt lat="44.85120365748782" lon="9.87526493874833"><ele>166.0</ele><time>2026-03-29T07:50:47.999Z</time></trkpt><trkpt lat="44.8511522302384" lon="9.87533220857481"><ele>166.0</ele><time>2026-03-29T07:50:48.999Z</time></trkpt><trkpt lat="44.85109593886753" lon="9.875417183884064"><ele>166.33333333333334</ele><time>2026-03-29T07:50:50.999Z</time></trkpt><trkpt lat="44.85103950858946" lon="9.87550145087103"><ele>166.66666666666669</ele><time>2026-03-29T07:50:52.999Z</time></trkpt><trkpt lat="44.85097990569763" lon="9.875584813028144"><ele>167.0</ele><time>2026-03-29T07:50:54.999Z</time></trkpt><trkpt lat="44.85092209261086" lon="9.875665950665944"><ele>167.33333333333334</ele><time>2026-03-29T07:50:56.999Z</time></trkpt><trkpt lat="44.85085875400685" lon="9.87573685107058"><ele>167.66666666666666</ele><time>2026-03-29T07:50:58.999Z</time></trkpt><trkpt lat="44.85080713233656" lon="9.875792000556622"><ele>168.0</ele><time>2026-03-29T07:51:00.999Z</time></trkpt><trkpt lat="44.85074676659236" lon="9.87582472195308"><ele>168.2</ele><time>2026-03-29T07:51:03.999Z</time></trkpt><trkpt lat="44.85076965502449" lon="9.875936039266595"><ele>168.4</ele><time>2026-03-29T07:51:06.999Z</time></trkpt><trkpt lat="44.85080493375265" lon="9.876023735072819"><ele>168.6</ele><time>2026-03-29T07:51:08.999Z</time></trkpt><trkpt lat="44.85087452925211" lon="9.876105267019454"><ele>168.79999999999998</ele><time>2026-03-29T07:51:10.999Z</time></trkpt><trkpt lat="44.850951564777915" lon="9.876188245057445"><ele>169.0</ele><time>2026-03-29T07:51:12.999Z</time></trkpt><trkpt lat="44.85104795216184" lon="9.87628290620668"><ele>169.0</ele><time>2026-03-29T07:51:14.998Z</time></trkpt><trkpt lat="44.85114423744472" lon="9.876385575440377"><ele>169.0</ele><time>2026-03-29T07:51:16.998Z</time></trkpt><trkpt lat="44.85119447164773" lon="9.876444732632978"><ele>169.0</ele><time>2026-03-29T07:51:17.998Z</time></trkpt><trkpt lat="44.851248864895815" lon="9.87650624647426"><ele>169.0</ele><time>2026-03-29T07:51:18.998Z</time></trkpt><trkpt lat="44.85130475409794" lon="9.876568968071899"><ele>169.0</ele><time>2026-03-29T07:51:19.998Z</time></trkpt><trkpt lat="44.85136496659674" lon="9.876631605561899"><ele>169.0</ele><time>2026-03-29T07:51:20.998Z</time></trkpt><trkpt lat="44.85142761297683" lon="9.876693104022166"><ele>169.0</ele><time>2026-03-29T07:51:21.998Z</time></trkpt><trkpt lat="44.85148566921886" lon="9.876753493351606"><ele>169.0</ele><time>2026-03-29T07:51:22.998Z</time></trkpt><trkpt lat="44.85154367310411" lon="9.876816055413922"><ele>169.0</ele><time>2026-03-29T07:51:23.998Z</time></trkpt><trkpt lat="44.85159844708805" lon="9.876884331067048"><ele>169.0</ele><time>2026-03-29T07:51:24.998Z</time></trkpt><trkpt lat="44.85166093215228" lon="9.876945224198943"><ele>169.0</ele><time>2026-03-29T07:51:25.998Z</time></trkpt><trkpt lat="44.85172502020966" lon="9.877010957528917"><ele>169.0</ele><time>2026-03-29T07:51:26.998Z</time></trkpt><trkpt lat="44.851788389601204" lon="9.877074285754485"><ele>168.16666666666669</ele><time>2026-03-29T07:51:27.998Z</time></trkpt><trkpt lat="44.851853212968535" lon="9.877137545276309"><ele>167.33333333333334</ele><time>2026-03-29T07:51:28.998Z</time></trkpt><trkpt lat="44.851918301306306" lon="9.877200228507048"><ele>166.5</ele><time>2026-03-29T07:51:29.998Z</time></trkpt><trkpt lat="44.85198381362715" lon="9.877264640121437"><ele>165.66666666666666</ele><time>2026-03-29T07:51:30.998Z</time></trkpt><trkpt lat="44.85205091584809" lon="9.877329160289566"><ele>164.83333333333331</ele><time>2026-03-29T07:51:31.998Z</time></trkpt><trkpt lat="44.85211968075443" lon="9.877390858098305"><ele>164.0</ele><time>2026-03-29T07:51:32.998Z</time></trkpt><trkpt lat="44.852189694703526" lon="9.877451505040751"><ele>164.0</ele><time>2026-03-29T07:51:33.998Z</time></trkpt><trkpt lat="44.85226960982723" lon="9.877483501303763"><ele>164.0</ele><time>2026-03-29T07:51:34.998Z</time></trkpt><trkpt lat="44.85235250301148" lon="9.877526435026763"><ele>164.0</ele><time>2026-03-29T07:51:35.998Z</time></trkpt><trkpt lat="44.85242715550637" lon="9.877583487169812"><ele>164.0</ele><time>2026-03-29T07:51:36.998Z</time></trkpt><trkpt lat="44.85250679714433" lon="9.877625206962733"><ele>164.0</ele><time>2026-03-29T07:51:37.998Z</time></trkpt><trkpt lat="44.852574946234185" lon="9.87770283157634"><ele>164.0</ele><time>2026-03-29T07:51:38.998Z</time></trkpt><trkpt lat="44.85262930588648" lon="9.87779859380521"><ele>164.5</ele><time>2026-03-29T07:51:39.998Z</time></trkpt><trkpt lat="44.85269093122773" lon="9.877876991437798"><ele>165.0</ele><time>2026-03-29T07:51:40.998Z</time></trkpt><trkpt lat="44.85272511259829" lon="9.878004017840528"><ele>165.5</ele><time>2026-03-29T07:51:41.998Z</time></trkpt><trkpt lat="44.85278708358735" lon="9.87808675930023"><ele>166.0</ele><time>2026-03-29T07:51:42.998Z</time></trkpt><trkpt lat="44.85285240280686" lon="9.87816605053127"><ele>166.5</ele><time>2026-03-29T07:51:43.998Z</time></trkpt><trkpt lat="44.85292017630876" lon="9.87824279912248"><ele>167.0</ele><time>2026-03-29T07:51:44.998Z</time></trkpt><trkpt lat="44.85299019455542" lon="9.878311575763515"><ele>167.0</ele><time>2026-03-29T07:51:45.998Z</time></trkpt><trkpt lat="44.853060815178964" lon="9.8783832116847"><ele>167.0</ele><time>2026-03-29T07:51:46.998Z</time></trkpt><trkpt lat="44.85312904723854" lon="9.878454121536741"><ele>167.0</ele><time>2026-03-29T07:51:47.998Z</time></trkpt><trkpt lat="44.853198161512545" lon="9.878527534851214"><ele>167.0</ele><time>2026-03-29T07:51:48.998Z</time></trkpt><trkpt lat="44.853267164161004" lon="9.87860435178804"><ele>167.0</ele><time>2026-03-29T07:51:49.998Z</time></trkpt><trkpt lat="44.85333543638503" lon="9.878678797370691"><ele>167.0</ele><time>2026-03-29T07:51:50.998Z</time></trkpt><trkpt lat="44.85340506505617" lon="9.878754721538755"><ele>166.16666666666666</ele><time>2026-03-29T07:51:51.998Z</time></trkpt><trkpt lat="44.853475330202926" lon="9.87883057525287"><ele>165.33333333333331</ele><time>2026-03-29T07:51:52.998Z</time></trkpt><trkpt lat="44.85354591061957" lon="9.878904879506983"><ele>164.5</ele><time>2026-03-29T07:51:53.998Z</time></trkpt><trkpt lat="44.85362013222275" lon="9.878975808060046"><ele>163.66666666666666</ele><time>2026-03-29T07:51:54.998Z</time></trkpt><trkpt lat="44.85368988711352" lon="9.879048525516527"><ele>162.83333333333334</ele><time>2026-03-29T07:51:55.998Z</time></trkpt><trkpt lat="44.8537621400774" lon="9.879122743054154"><ele>162.0</ele><time>2026-03-29T07:51:56.998Z</time></trkpt><trkpt lat="44.85383804624472" lon="9.879187069877945"><ele>162.0</ele><time>2026-03-29T07:51:57.998Z</time></trkpt><trkpt lat="44.85391445377912" lon="9.879249672229093"><ele>162.0</ele><time>2026-03-29T07:51:58.998Z</time></trkpt><trkpt lat="44.85398999135249" lon="9.879309744858947"><ele>162.0</ele><time>2026-03-29T07:51:59.998Z</time></trkpt><trkpt lat="44.85406853973584" lon="9.879369588900296"><ele>162.0</ele><time>2026-03-29T07:52:00.998Z</time></trkpt><trkpt lat="44.85414698287015" lon="9.879430845493841"><ele>162.0</ele><time>2026-03-29T07:52:01.998Z</time></trkpt><trkpt lat="44.85422430099888" lon="9.87949196699842"><ele>162.0</ele><time>2026-03-29T07:52:02.998Z</time></trkpt><trkpt lat="44.854302941771145" lon="9.879550766925348"><ele>162.0</ele><time>2026-03-29T07:52:03.998Z</time></trkpt><trkpt lat="44.85438063683973" lon="9.879610773968123"><ele>162.0</ele><time>2026-03-29T07:52:04.998Z</time></trkpt><trkpt lat="44.85446094794396" lon="9.879669492578563"><ele>162.0</ele><time>2026-03-29T07:52:05.998Z</time></trkpt><trkpt lat="44.854539862708755" lon="9.879727254167815"><ele>162.0</ele><time>2026-03-29T07:52:06.997Z</time></trkpt><trkpt lat="44.85461837069782" lon="9.879785685493717"><ele>162.0</ele><time>2026-03-29T07:52:07.997Z</time></trkpt><trkpt lat="44.85469685057636" lon="9.879846352040518"><ele>162.0</ele><time>2026-03-29T07:52:08.997Z</time></trkpt><trkpt lat="44.8547755163357" lon="9.879906705304215"><ele>162.0</ele><time>2026-03-29T07:52:10Z</time></trkpt><trkpt lat="44.854854530281614" lon="9.879965587799349"><ele>162.0</ele><time>2026-03-29T07:52:11Z</time></trkpt><trkpt lat="44.85493386022785" lon="9.880023463715379"><ele>162.0</ele><time>2026-03-29T07:52:12Z</time></trkpt><trkpt lat="44.85501313533159" lon="9.880083706644527"><ele>162.0</ele><time>2026-03-29T07:52:13Z</time></trkpt><trkpt lat="44.855092231759386" lon="9.880142304220023"><ele>162.0</ele><time>2026-03-29T07:52:14Z</time></trkpt><trkpt lat="44.85517364000969" lon="9.880200856664478"><ele>162.0</ele><time>2026-03-29T07:52:15Z</time></trkpt><trkpt lat="44.85525520864286" lon="9.880263555994683"><ele>162.0</ele><time>2026-03-29T07:52:16Z</time></trkpt><trkpt lat="44.85533345291744" lon="9.880328778246685"><ele>162.0</ele><time>2026-03-29T07:52:17Z</time></trkpt><trkpt lat="44.8554128743722" lon="9.88039164287553"><ele>162.0</ele><time>2026-03-29T07:52:18Z</time></trkpt><trkpt lat="44.855494672245285" lon="9.880455404174588"><ele>162.0</ele><time>2026-03-29T07:52:19Z</time></trkpt><trkpt lat="44.85557567815664" lon="9.880511703306464"><ele>162.0</ele><time>2026-03-29T07:52:20Z</time></trkpt><trkpt lat="44.85565668993452" lon="9.880570046474642"><ele>162.0</ele><time>2026-03-29T07:52:21Z</time></trkpt><trkpt lat="44.85573402064455" lon="9.880631374024999"><ele>162.0</ele><time>2026-03-29T07:52:22Z</time></trkpt><trkpt lat="44.85581665036301" lon="9.880694904965448"><ele>162.0</ele><time>2026-03-29T07:52:23Z</time></trkpt><trkpt lat="44.85589834871419" lon="9.880756053695682"><ele>162.0</ele><time>2026-03-29T07:52:24Z</time></trkpt><trkpt lat="44.85598058278904" lon="9.880814258023713"><ele>162.0</ele><time>2026-03-29T07:52:25Z</time></trkpt><trkpt lat="44.856059949753444" lon="9.880874534965244"><ele>161.8</ele><time>2026-03-29T07:52:25.999Z</time></trkpt><trkpt lat="44.85614266305773" lon="9.88093413139951"><ele>161.6</ele><time>2026-03-29T07:52:26.999Z</time></trkpt><trkpt lat="44.856221453265064" lon="9.881000643300382"><ele>161.4</ele><time>2026-03-29T07:52:27.999Z</time></trkpt><trkpt lat="44.85630591468407" lon="9.88105844080142"><ele>161.20000000000002</ele><time>2026-03-29T07:52:28.999Z</time></trkpt><trkpt lat="44.856386890383256" lon="9.881119140252727"><ele>161.0</ele><time>2026-03-29T07:52:29.999Z</time></trkpt><trkpt lat="44.85647156952711" lon="9.881176904757558"><ele>161.0</ele><time>2026-03-29T07:52:30.999Z</time></trkpt><trkpt lat="44.85655261371225" lon="9.881238996253272"><ele>161.0</ele><time>2026-03-29T07:52:31.999Z</time></trkpt><trkpt lat="44.85663554461521" lon="9.88129848682388"><ele>161.0</ele><time>2026-03-29T07:52:32.999Z</time></trkpt><trkpt lat="44.856717651830955" lon="9.881358418425426"><ele>161.0</ele><time>2026-03-29T07:52:33.999Z</time></trkpt><trkpt lat="44.85680068172529" lon="9.881417849868052"><ele>161.0</ele><time>2026-03-29T07:52:34.999Z</time></trkpt><trkpt lat="44.85688454904196" lon="9.88147557702411"><ele>160.8</ele><time>2026-03-29T07:52:35.999Z</time></trkpt><trkpt lat="44.85697002787253" lon="9.881534111720542"><ele>160.60000000000002</ele><time>2026-03-29T07:52:36.999Z</time></trkpt><trkpt lat="44.85705373633506" lon="9.881587984174564"><ele>160.4</ele><time>2026-03-29T07:52:37.999Z</time></trkpt><trkpt lat="44.85713848333009" lon="9.881645656322405"><ele>160.2</ele><time>2026-03-29T07:52:38.999Z</time></trkpt><trkpt lat="44.85722238660506" lon="9.881703043510338"><ele>160.0</ele><time>2026-03-29T07:52:39.999Z</time></trkpt><trkpt lat="44.85730388293316" lon="9.881761499092267"><ele>159.8</ele><time>2026-03-29T07:52:40.999Z</time></trkpt><trkpt lat="44.857388715917175" lon="9.881816724540535"><ele>159.6</ele><time>2026-03-29T07:52:41.999Z</time></trkpt><trkpt lat="44.85747256269835" lon="9.881869971152993"><ele>159.4</ele><time>2026-03-29T07:52:42.999Z</time></trkpt><trkpt lat="44.85755640744503" lon="9.881929075755066"><ele>159.2</ele><time>2026-03-29T07:52:43.999Z</time></trkpt><trkpt lat="44.857640356244076" lon="9.881981674265177"><ele>159.0</ele><time>2026-03-29T07:52:44.999Z</time></trkpt><trkpt lat="44.8577232462013" lon="9.882041541888487"><ele>159.0</ele><time>2026-03-29T07:52:45.999Z</time></trkpt><trkpt lat="44.85780577820662" lon="9.88209853618117"><ele>159.0</ele><time>2026-03-29T07:52:46.999Z</time></trkpt><trkpt lat="44.85788971886544" lon="9.882159759198672"><ele>159.0</ele><time>2026-03-29T07:52:47.999Z</time></trkpt><trkpt lat="44.857973448481175" lon="9.882213079785874"><ele>159.0</ele><time>2026-03-29T07:52:48.999Z</time></trkpt><trkpt lat="44.858056893111" lon="9.882266722669586"><ele>159.0</ele><time>2026-03-29T07:52:49.999Z</time></trkpt><trkpt lat="44.85814292625067" lon="9.8823233997805"><ele>159.0</ele><time>2026-03-29T07:52:50.999Z</time></trkpt><trkpt lat="44.85822524842959" lon="9.882378685761482"><ele>159.0</ele><time>2026-03-29T07:52:51.999Z</time></trkpt><trkpt lat="44.85830928066599" lon="9.882435852401663"><ele>159.0</ele><time>2026-03-29T07:52:52.999Z</time></trkpt><trkpt lat="44.85839511473497" lon="9.882494770896304"><ele>159.0</ele><time>2026-03-29T07:52:53.999Z</time></trkpt><trkpt lat="44.858476356055434" lon="9.882554661982761"><ele>159.0</ele><time>2026-03-29T07:52:54.999Z</time></trkpt><trkpt lat="44.85856129088639" lon="9.882613769897173"><ele>158.4</ele><time>2026-03-29T07:52:55.999Z</time></trkpt><trkpt lat="44.85864562309017" lon="9.882666118710379"><ele>157.8</ele><time>2026-03-29T07:52:56.999Z</time></trkpt><trkpt lat="44.85873015817826" lon="9.882724169203158"><ele>157.2</ele><time>2026-03-29T07:52:57.999Z</time></trkpt><trkpt lat="44.85881415277026" lon="9.88278063860441"><ele>156.6</ele><time>2026-03-29T07:52:58.999Z</time></trkpt><trkpt lat="44.85889700845338" lon="9.882839213642464"><ele>156.0</ele><time>2026-03-29T07:52:59.999Z</time></trkpt><trkpt lat="44.858983611273494" lon="9.882894433833679"><ele>156.0</ele><time>2026-03-29T07:53:00.999Z</time></trkpt><trkpt lat="44.85906704911423" lon="9.88295589443381"><ele>156.0</ele><time>2026-03-29T07:53:01.999Z</time></trkpt><trkpt lat="44.85915328995785" lon="9.883012316389019"><ele>156.0</ele><time>2026-03-29T07:53:02.999Z</time></trkpt><trkpt lat="44.85923631323611" lon="9.883070211990354"><ele>156.0</ele><time>2026-03-29T07:53:03.999Z</time></trkpt><trkpt lat="44.859322113549275" lon="9.883129868464227"><ele>156.0</ele><time>2026-03-29T07:53:04.999Z</time></trkpt><trkpt lat="44.85940615070488" lon="9.883184494601803"><ele>156.0</ele><time>2026-03-29T07:53:05.999Z</time></trkpt><trkpt lat="44.85949277008965" lon="9.883240675769054"><ele>156.0</ele><time>2026-03-29T07:53:06.999Z</time></trkpt><trkpt lat="44.859572278319106" lon="9.883300728893666"><ele>156.0</ele><time>2026-03-29T07:53:07.999Z</time></trkpt><trkpt lat="44.859655365856256" lon="9.883357879970987"><ele>156.0</ele><time>2026-03-29T07:53:08.999Z</time></trkpt><trkpt lat="44.8597393198086" lon="9.883415928006542"><ele>156.0</ele><time>2026-03-29T07:53:09.999Z</time></trkpt><trkpt lat="44.8598233431283" lon="9.883467989394513"><ele>156.0</ele><time>2026-03-29T07:53:10.999Z</time></trkpt><trkpt lat="44.85990823158887" lon="9.883529150335733"><ele>156.0</ele><time>2026-03-29T07:53:11.999Z</time></trkpt><trkpt lat="44.85999189481329" lon="9.883586343849311"><ele>156.0</ele><time>2026-03-29T07:53:12.999Z</time></trkpt><trkpt lat="44.86007754332964" lon="9.883644067893032"><ele>156.0</ele><time>2026-03-29T07:53:13.999Z</time></trkpt><trkpt lat="44.860162331903375" lon="9.883702331188369"><ele>156.0</ele><time>2026-03-29T07:53:14.999Z</time></trkpt><trkpt lat="44.86024651977178" lon="9.883759769494041"><ele>156.2</ele><time>2026-03-29T07:53:15.999Z</time></trkpt><trkpt lat="44.860332340611066" lon="9.883815635861055"><ele>156.39999999999998</ele><time>2026-03-29T07:53:16.999Z</time></trkpt><trkpt lat="44.860414285291" lon="9.883873564972689"><ele>156.6</ele><time>2026-03-29T07:53:17.999Z</time></trkpt><trkpt lat="44.860503657864136" lon="9.883930754247674"><ele>156.79999999999998</ele><time>2026-03-29T07:53:18.999Z</time></trkpt><trkpt lat="44.86058544548196" lon="9.883986474076561"><ele>157.0</ele><time>2026-03-29T07:53:19.998Z</time></trkpt><trkpt lat="44.86067420974312" lon="9.884041826616064"><ele>157.0</ele><time>2026-03-29T07:53:20.998Z</time></trkpt><trkpt lat="44.86075470324825" lon="9.884102481349403"><ele>157.0</ele><time>2026-03-29T07:53:21.998Z</time></trkpt><trkpt lat="44.860841458460555" lon="9.884161558679931"><ele>157.0</ele><time>2026-03-29T07:53:22.998Z</time></trkpt><trkpt lat="44.8609251800669" lon="9.884218248415051"><ele>157.0</ele><time>2026-03-29T07:53:23.998Z</time></trkpt><trkpt lat="44.86101050133575" lon="9.88427745763287"><ele>157.0</ele><time>2026-03-29T07:53:24.998Z</time></trkpt><trkpt lat="44.86109536690742" lon="9.88433493090652"><ele>156.2</ele><time>2026-03-29T07:53:25.998Z</time></trkpt><trkpt lat="44.861181497282864" lon="9.884392793574321"><ele>155.39999999999998</ele><time>2026-03-29T07:53:26.998Z</time></trkpt><trkpt lat="44.86126701006159" lon="9.884449892157226"><ele>154.60000000000002</ele><time>2026-03-29T07:53:27.998Z</time></trkpt><trkpt lat="44.86135485041936" lon="9.884503083876501"><ele>153.8</ele><time>2026-03-29T07:53:28.998Z</time></trkpt><trkpt lat="44.86144234015037" lon="9.884550495270867"><ele>153.0</ele><time>2026-03-29T07:53:29.998Z</time></trkpt><trkpt lat="44.8615335606832" lon="9.88459297396104"><ele>153.0</ele><time>2026-03-29T07:53:30.998Z</time></trkpt><trkpt lat="44.861624882737445" lon="9.884633727718933"><ele>153.0</ele><time>2026-03-29T07:53:31.998Z</time></trkpt><trkpt lat="44.86172036080269" lon="9.884673759234799"><ele>153.0</ele><time>2026-03-29T07:53:32.998Z</time></trkpt><trkpt lat="44.86181486044084" lon="9.884709089872624"><ele>153.0</ele><time>2026-03-29T07:53:33.998Z</time></trkpt><trkpt lat="44.86191024890287" lon="9.884743311580479"><ele>153.0</ele><time>2026-03-29T07:53:34.998Z</time></trkpt><trkpt lat="44.86200715363295" lon="9.884780537834986"><ele>152.6</ele><time>2026-03-29T07:53:35.998Z</time></trkpt><trkpt lat="44.862101319149744" lon="9.884819235393199"><ele>152.20000000000002</ele><time>2026-03-29T07:53:36.998Z</time></trkpt><trkpt lat="44.862194842275976" lon="9.884855023681208"><ele>151.8</ele><time>2026-03-29T07:53:37.998Z</time></trkpt><trkpt lat="44.862293320196116" lon="9.884889910870324"><ele>151.4</ele><time>2026-03-29T07:53:38.998Z</time></trkpt><trkpt lat="44.86238864822231" lon="9.88492725983857"><ele>151.0</ele><time>2026-03-29T07:53:39.998Z</time></trkpt><trkpt lat="44.86248364260309" lon="9.884963856941598"><ele>151.0</ele><time>2026-03-29T07:53:40.998Z</time></trkpt><trkpt lat="44.86258075711522" lon="9.885000548972583"><ele>151.0</ele><time>2026-03-29T07:53:41.998Z</time></trkpt><trkpt lat="44.86267540696611" lon="9.885037109595375"><ele>151.0</ele><time>2026-03-29T07:53:42.998Z</time></trkpt><trkpt lat="44.862774075962804" lon="9.88507503690158"><ele>151.0</ele><time>2026-03-29T07:53:43.998Z</time></trkpt><trkpt lat="44.86287122312363" lon="9.885113953321824"><ele>151.0</ele><time>2026-03-29T07:53:44.998Z</time></trkpt><trkpt lat="44.86296791459788" lon="9.885154195106013"><ele>150.4</ele><time>2026-03-29T07:53:45.998Z</time></trkpt><trkpt lat="44.863065204214934" lon="9.88519623334512"><ele>149.8</ele><time>2026-03-29T07:53:46.998Z</time></trkpt><trkpt lat="44.86315996547027" lon="9.885241755105218"><ele>149.20000000000002</ele><time>2026-03-29T07:53:47.998Z</time></trkpt><trkpt lat="44.863250638328616" lon="9.8852894857864"><ele>148.6</ele><time>2026-03-29T07:53:48.998Z</time></trkpt><trkpt lat="44.863343370248224" lon="9.885346959660188"><ele>148.0</ele><time>2026-03-29T07:53:49.998Z</time></trkpt><trkpt lat="44.86343482185828" lon="9.88540321956219"><ele>147.6</ele><time>2026-03-29T07:53:50.998Z</time></trkpt><trkpt lat="44.86352205540632" lon="9.885461877130403"><ele>147.20000000000002</ele><time>2026-03-29T07:53:51.998Z</time></trkpt><trkpt lat="44.86360788895018" lon="9.885526623523013"><ele>146.8</ele><time>2026-03-29T07:53:52.999Z</time></trkpt><trkpt lat="44.863692304370616" lon="9.885595199878203"><ele>146.4</ele><time>2026-03-29T07:53:53.999Z</time></trkpt><trkpt lat="44.863776972067164" lon="9.885662847521926"><ele>146.0</ele><time>2026-03-29T07:53:54.999Z</time></trkpt><trkpt lat="44.86385864556283" lon="9.885729333024011"><ele>146.0</ele><time>2026-03-29T07:53:55.999Z</time></trkpt><trkpt lat="44.863941826754804" lon="9.885798659870652"><ele>146.0</ele><time>2026-03-29T07:53:56.999Z</time></trkpt><trkpt lat="44.864025965073715" lon="9.885864935343378"><ele>146.0</ele><time>2026-03-29T07:53:57.999Z</time></trkpt><trkpt lat="44.86410995428345" lon="9.885930015053765"><ele>146.0</ele><time>2026-03-29T07:53:58.999Z</time></trkpt><trkpt lat="44.86419271859612" lon="9.885998723600512"><ele>146.0</ele><time>2026-03-29T07:53:59.999Z</time></trkpt><trkpt lat="44.86427493126789" lon="9.886069970086005"><ele>146.8</ele><time>2026-03-29T07:54:00.999Z</time></trkpt><trkpt lat="44.864358050332626" lon="9.886141099597332"><ele>147.6</ele><time>2026-03-29T07:54:01.999Z</time></trkpt><trkpt lat="44.86444076595429" lon="9.886210807796706"><ele>148.4</ele><time>2026-03-29T07:54:02.999Z</time></trkpt><trkpt lat="44.86452380565927" lon="9.886278324716994"><ele>149.2</ele><time>2026-03-29T07:54:03.999Z</time></trkpt><trkpt lat="44.864606464880175" lon="9.8863460826305"><ele>150.0</ele><time>2026-03-29T07:54:04.999Z</time></trkpt><trkpt lat="44.86468715244755" lon="9.886413412760607"><ele>150.0</ele><time>2026-03-29T07:54:05.999Z</time></trkpt><trkpt lat="44.86476941484509" lon="9.88648446908134"><ele>150.0</ele><time>2026-03-29T07:54:06.999Z</time></trkpt><trkpt lat="44.86485195863532" lon="9.886553461368454"><ele>150.0</ele><time>2026-03-29T07:54:07.999Z</time></trkpt><trkpt lat="44.86493196110308" lon="9.886621931397071"><ele>150.0</ele><time>2026-03-29T07:54:08.999Z</time></trkpt><trkpt lat="44.86501366024707" lon="9.886691007016285"><ele>150.0</ele><time>2026-03-29T07:54:09.999Z</time></trkpt><trkpt lat="44.865094562765464" lon="9.886757650733637"><ele>149.4</ele><time>2026-03-29T07:54:10.999Z</time></trkpt><trkpt lat="44.86517648915208" lon="9.886826369434177"><ele>148.8</ele><time>2026-03-29T07:54:11.999Z</time></trkpt><trkpt lat="44.86525645523405" lon="9.886893315600846"><ele>148.2</ele><time>2026-03-29T07:54:12.998Z</time></trkpt><trkpt lat="44.865336536786515" lon="9.886961911660965"><ele>147.6</ele><time>2026-03-29T07:54:13.998Z</time></trkpt><trkpt lat="44.86541670076443" lon="9.887027052395231"><ele>147.0</ele><time>2026-03-29T07:54:14.998Z</time></trkpt><trkpt lat="44.86549707142536" lon="9.887093867921005"><ele>147.0</ele><time>2026-03-29T07:54:16.001Z</time></trkpt><trkpt lat="44.86557785799041" lon="9.887160900788844"><ele>147.0</ele><time>2026-03-29T07:54:17.001Z</time></trkpt><trkpt lat="44.86565823057321" lon="9.887223453669652"><ele>147.0</ele><time>2026-03-29T07:54:18.001Z</time></trkpt><trkpt lat="44.86573860252407" lon="9.887290514605638"><ele>147.0</ele><time>2026-03-29T07:54:19.001Z</time></trkpt><trkpt lat="44.865816910269785" lon="9.887356016923727"><ele>147.0</ele><time>2026-03-29T07:54:20.001Z</time></trkpt><trkpt lat="44.86589681676827" lon="9.8874203819028"><ele>146.79999999999998</ele><time>2026-03-29T07:54:21.001Z</time></trkpt><trkpt lat="44.86597811427145" lon="9.887484761964696"><ele>146.6</ele><time>2026-03-29T07:54:22.001Z</time></trkpt><trkpt lat="44.86605646467522" lon="9.887550976433308"><ele>146.39999999999998</ele><time>2026-03-29T07:54:23.001Z</time></trkpt><trkpt lat="44.86613476455994" lon="9.887620234475511"><ele>146.2</ele><time>2026-03-29T07:54:24.001Z</time></trkpt><trkpt lat="44.866212870616444" lon="9.887684322823711"><ele>146.0</ele><time>2026-03-29T07:54:25.001Z</time></trkpt><trkpt lat="44.86629283366822" lon="9.887750709760299"><ele>146.0</ele><time>2026-03-29T07:54:26.001Z</time></trkpt><trkpt lat="44.866372417074665" lon="9.887814291517738"><ele>146.0</ele><time>2026-03-29T07:54:27.001Z</time></trkpt><trkpt lat="44.866452558579425" lon="9.88787605197301"><ele>146.0</ele><time>2026-03-29T07:54:28.001Z</time></trkpt><trkpt lat="44.86653490560199" lon="9.887934169087398"><ele>146.0</ele><time>2026-03-29T07:54:29.001Z</time></trkpt><trkpt lat="44.86661745770225" lon="9.887994425443955"><ele>146.0</ele><time>2026-03-29T07:54:30.001Z</time></trkpt><trkpt lat="44.86670140691012" lon="9.888050017056965"><ele>146.0</ele><time>2026-03-29T07:54:31.001Z</time></trkpt><trkpt lat="44.8667869111763" lon="9.888102086160366"><ele>146.0</ele><time>2026-03-29T07:54:32Z</time></trkpt><trkpt lat="44.86687238623138" lon="9.88815538881182"><ele>146.0</ele><time>2026-03-29T07:54:33Z</time></trkpt><trkpt lat="44.866959676224674" lon="9.888206688064209"><ele>146.0</ele><time>2026-03-29T07:54:34Z</time></trkpt><trkpt lat="44.86704772160713" lon="9.888254887498015"><ele>146.0</ele><time>2026-03-29T07:54:35Z</time></trkpt><trkpt lat="44.86713587864722" lon="9.888301885419498"><ele>146.0</ele><time>2026-03-29T07:54:36Z</time></trkpt><trkpt lat="44.8672245362194" lon="9.888346410464212"><ele>146.0</ele><time>2026-03-29T07:54:37Z</time></trkpt><trkpt lat="44.86731268301895" lon="9.88838976900829"><ele>146.0</ele><time>2026-03-29T07:54:38Z</time></trkpt><trkpt lat="44.867403409160694" lon="9.888428157075987"><ele>146.0</ele><time>2026-03-29T07:54:39Z</time></trkpt><trkpt lat="44.86749536795356" lon="9.888466949138266"><ele>146.0</ele><time>2026-03-29T07:54:40Z</time></trkpt><trkpt lat="44.867586249090046" lon="9.888500655895019"><ele>145.6</ele><time>2026-03-29T07:54:41Z</time></trkpt><trkpt lat="44.86767817033335" lon="9.88853824896771"><ele>145.2</ele><time>2026-03-29T07:54:42Z</time></trkpt><trkpt lat="44.86776823431685" lon="9.888570982359612"><ele>144.8</ele><time>2026-03-29T07:54:43Z</time></trkpt><trkpt lat="44.867860378328075" lon="9.888602392979035"><ele>144.4</ele><time>2026-03-29T07:54:44Z</time></trkpt><trkpt lat="44.86794919677492" lon="9.888635754166087"><ele>144.0</ele><time>2026-03-29T07:54:45Z</time></trkpt><trkpt lat="44.868038523158866" lon="9.888673261479365"><ele>144.0</ele><time>2026-03-29T07:54:46Z</time></trkpt><trkpt lat="44.868126268847426" lon="9.88871479679932"><ele>144.0</ele><time>2026-03-29T07:54:47Z</time></trkpt><trkpt lat="44.86821571911369" lon="9.888745880040167"><ele>144.0</ele><time>2026-03-29T07:54:48Z</time></trkpt><trkpt lat="44.8683008832829" lon="9.88877877006212"><ele>144.0</ele><time>2026-03-29T07:54:49Z</time></trkpt><trkpt lat="44.868390846734876" lon="9.888817845552621"><ele>144.0</ele><time>2026-03-29T07:54:50Z</time></trkpt><trkpt lat="44.86847986769302" lon="9.888850808506644"><ele>143.0</ele><time>2026-03-29T07:54:51Z</time></trkpt><trkpt lat="44.868568455184935" lon="9.888884167788527"><ele>142.0</ele><time>2026-03-29T07:54:52Z</time></trkpt><trkpt lat="44.86866021026472" lon="9.888919990962648"><ele>141.0</ele><time>2026-03-29T07:54:53Z</time></trkpt><trkpt lat="44.868747592876204" lon="9.888953384468131"><ele>140.0</ele><time>2026-03-29T07:54:54Z</time></trkpt><trkpt lat="44.86883692225656" lon="9.88898453497917"><ele>139.0</ele><time>2026-03-29T07:54:55Z</time></trkpt><trkpt lat="44.86892547176074" lon="9.889019067866647"><ele>139.0</ele><time>2026-03-29T07:54:56Z</time></trkpt><trkpt lat="44.869014134676725" lon="9.889052645696358"><ele>139.0</ele><time>2026-03-29T07:54:57Z</time></trkpt><trkpt lat="44.8691002580418" lon="9.889090295890014"><ele>139.0</ele><time>2026-03-29T07:54:58Z</time></trkpt><trkpt lat="44.86919060090956" lon="9.889121857256441"><ele>139.0</ele><time>2026-03-29T07:54:59Z</time></trkpt><trkpt lat="44.86928207803978" lon="9.889157927579445"><ele>139.0</ele><time>2026-03-29T07:55:00Z</time></trkpt><trkpt lat="44.869371855896546" lon="9.889191296898431"><ele>139.2</ele><time>2026-03-29T07:55:01Z</time></trkpt><trkpt lat="44.86946137030549" lon="9.889227015452928"><ele>139.4</ele><time>2026-03-29T07:55:02Z</time></trkpt><trkpt lat="44.86955283165128" lon="9.889259811228158"><ele>139.6</ele><time>2026-03-29T07:55:03Z</time></trkpt><trkpt lat="44.86964313264479" lon="9.889292375959661"><ele>139.8</ele><time>2026-03-29T07:55:04Z</time></trkpt><trkpt lat="44.869735086841814" lon="9.889327632532822"><ele>140.0</ele><time>2026-03-29T07:55:05Z</time></trkpt><trkpt lat="44.86982626557219" lon="9.889363236643517"><ele>140.0</ele><time>2026-03-29T07:55:06Z</time></trkpt><trkpt lat="44.86991784102042" lon="9.889397837875574"><ele>140.0</ele><time>2026-03-29T07:55:07Z</time></trkpt><trkpt lat="44.87000934314465" lon="9.889433042859434"><ele>140.0</ele><time>2026-03-29T07:55:08Z</time></trkpt><trkpt lat="44.87010131899162" lon="9.889467614126067"><ele>140.0</ele><time>2026-03-29T07:55:09Z</time></trkpt><trkpt lat="44.87019259920776" lon="9.889501978111522"><ele>140.0</ele><time>2026-03-29T07:55:10Z</time></trkpt><trkpt lat="44.870284348708346" lon="9.889534131513535"><ele>140.2</ele><time>2026-03-29T07:55:11Z</time></trkpt><trkpt lat="44.870375118100064" lon="9.889568566499852"><ele>140.4</ele><time>2026-03-29T07:55:12Z</time></trkpt><trkpt lat="44.87046675810645" lon="9.889602768594015"><ele>140.6</ele><time>2026-03-29T07:55:13Z</time></trkpt><trkpt lat="44.870559133680935" lon="9.889637517209374"><ele>140.8</ele><time>2026-03-29T07:55:14Z</time></trkpt><trkpt lat="44.87065193031817" lon="9.889669723243273"><ele>141.0</ele><time>2026-03-29T07:55:15Z</time></trkpt><trkpt lat="44.87074380076934" lon="9.889703403257268"><ele>141.0</ele><time>2026-03-29T07:55:16Z</time></trkpt><trkpt lat="44.87083672943469" lon="9.889738831827454"><ele>141.0</ele><time>2026-03-29T07:55:17Z</time></trkpt><trkpt lat="44.87092515355268" lon="9.889772528089718"><ele>141.0</ele><time>2026-03-29T07:55:18Z</time></trkpt><trkpt lat="44.871018910760206" lon="9.889808349697827"><ele>141.0</ele><time>2026-03-29T07:55:19Z</time></trkpt><trkpt lat="44.87110863522674" lon="9.889840164795595"><ele>141.0</ele><time>2026-03-29T07:55:20Z</time></trkpt><trkpt lat="44.87119980264091" lon="9.889874908145597"><ele>141.4</ele><time>2026-03-29T07:55:21Z</time></trkpt><trkpt lat="44.87128723234092" lon="9.889908784831997"><ele>141.8</ele><time>2026-03-29T07:55:22Z</time></trkpt><trkpt lat="44.87137979199026" lon="9.88994096258147"><ele>142.20000000000002</ele><time>2026-03-29T07:55:23Z</time></trkpt><trkpt lat="44.87147033977164" lon="9.88997543964122"><ele>142.6</ele><time>2026-03-29T07:55:23.999Z</time></trkpt><trkpt lat="44.8715605600757" lon="9.890006323694323"><ele>143.0</ele><time>2026-03-29T07:55:24.999Z</time></trkpt><trkpt lat="44.87165168297473" lon="9.890039810321671"><ele>143.0</ele><time>2026-03-29T07:55:25.999Z</time></trkpt><trkpt lat="44.871740890339" lon="9.890072814808109"><ele>143.0</ele><time>2026-03-29T07:55:26.999Z</time></trkpt><trkpt lat="44.8718308737502" lon="9.89010407749139"><ele>143.0</ele><time>2026-03-29T07:55:27.999Z</time></trkpt><trkpt lat="44.87192221135154" lon="9.890133808716163"><ele>143.0</ele><time>2026-03-29T07:55:28.999Z</time></trkpt><trkpt lat="44.872012235576" lon="9.890165366325979"><ele>143.0</ele><time>2026-03-29T07:55:29.999Z</time></trkpt><trkpt lat="44.872103055082164" lon="9.890195450658618"><ele>142.0</ele><time>2026-03-29T07:55:30.999Z</time></trkpt><trkpt lat="44.87219529963155" lon="9.890227087805815"><ele>141.0</ele><time>2026-03-29T07:55:31.999Z</time></trkpt><trkpt lat="44.87228691180108" lon="9.890260339048762"><ele>140.0</ele><time>2026-03-29T07:55:32.999Z</time></trkpt><trkpt lat="44.87237801359767" lon="9.890291123908476"><ele>139.0</ele><time>2026-03-29T07:55:33.999Z</time></trkpt><trkpt lat="44.87247112083449" lon="9.890320815916356"><ele>138.0</ele><time>2026-03-29T07:55:34.999Z</time></trkpt><trkpt lat="44.872562375748295" lon="9.890353120698407"><ele>138.0</ele><time>2026-03-29T07:55:35.999Z</time></trkpt><trkpt lat="44.87265410809755" lon="9.890385864600711"><ele>138.0</ele><time>2026-03-29T07:55:36.999Z</time></trkpt><trkpt lat="44.87274511469172" lon="9.890417682430867"><ele>138.0</ele><time>2026-03-29T07:55:37.999Z</time></trkpt><trkpt lat="44.872837438107744" lon="9.890447329787058"><ele>138.0</ele><time>2026-03-29T07:55:38.999Z</time></trkpt><trkpt lat="44.87292685209963" lon="9.89047690639124"><ele>138.0</ele><time>2026-03-29T07:55:39.999Z</time></trkpt><trkpt lat="44.873017881030144" lon="9.89051034212873"><ele>138.0</ele><time>2026-03-29T07:55:40.999Z</time></trkpt><trkpt lat="44.87310867465681" lon="9.890542136776485"><ele>138.0</ele><time>2026-03-29T07:55:41.999Z</time></trkpt><trkpt lat="44.87319914978955" lon="9.89057385292658"><ele>138.0</ele><time>2026-03-29T07:55:42.999Z</time></trkpt><trkpt lat="44.87329032392874" lon="9.89060557469028"><ele>138.0</ele><time>2026-03-29T07:55:43.999Z</time></trkpt><trkpt lat="44.873379493711504" lon="9.890638390330468"><ele>138.0</ele><time>2026-03-29T07:55:44.999Z</time></trkpt><trkpt lat="44.87347107415046" lon="9.89067182192819"><ele>138.20000000000002</ele><time>2026-03-29T07:55:45.999Z</time></trkpt><trkpt lat="44.87356246878394" lon="9.89070647394413"><ele>138.4</ele><time>2026-03-29T07:55:46.999Z</time></trkpt><trkpt lat="44.873652942784155" lon="9.89074330029383"><ele>138.60000000000002</ele><time>2026-03-29T07:55:47.999Z</time></trkpt><trkpt lat="44.87374340358156" lon="9.890782020273976"><ele>138.8</ele><time>2026-03-29T07:55:48.999Z</time></trkpt><trkpt lat="44.87383242985658" lon="9.890824423154337"><ele>139.0</ele><time>2026-03-29T07:55:49.999Z</time></trkpt><trkpt lat="44.873918917174265" lon="9.890868752045348"><ele>139.0</ele><time>2026-03-29T07:55:50.999Z</time></trkpt><trkpt lat="44.87400355156472" lon="9.890916810190635"><ele>139.0</ele><time>2026-03-29T07:55:51.999Z</time></trkpt><trkpt lat="44.874088553971745" lon="9.890971114150158"><ele>139.0</ele><time>2026-03-29T07:55:52.999Z</time></trkpt><trkpt lat="44.87417289939337" lon="9.891026309976477"><ele>139.0</ele><time>2026-03-29T07:55:53.999Z</time></trkpt><trkpt lat="44.87425623238321" lon="9.891081612847044"><ele>139.0</ele><time>2026-03-29T07:55:54.999Z</time></trkpt><trkpt lat="44.87433673491257" lon="9.891142081721554"><ele>138.2</ele><time>2026-03-29T07:55:55.999Z</time></trkpt><trkpt lat="44.874419836030505" lon="9.891200226680322"><ele>137.4</ele><time>2026-03-29T07:55:56.999Z</time></trkpt><trkpt lat="44.874501809150956" lon="9.891258306221253"><ele>136.6</ele><time>2026-03-29T07:55:57.999Z</time></trkpt><trkpt lat="44.87458082462619" lon="9.891316491698246"><ele>135.8</ele><time>2026-03-29T07:55:58.999Z</time></trkpt><trkpt lat="44.8746612383317" lon="9.891376646323671"><ele>135.0</ele><time>2026-03-29T07:55:59.999Z</time></trkpt><trkpt lat="44.87474282314151" lon="9.891436412550554"><ele>135.0</ele><time>2026-03-29T07:56:00.999Z</time></trkpt><trkpt lat="44.8748232552814" lon="9.891498007008822"><ele>135.0</ele><time>2026-03-29T07:56:01.999Z</time></trkpt><trkpt lat="44.874903565451035" lon="9.891560862789907"><ele>135.0</ele><time>2026-03-29T07:56:02.999Z</time></trkpt><trkpt lat="44.87498476163826" lon="9.891619422285507"><ele>135.0</ele><time>2026-03-29T07:56:03.999Z</time></trkpt><trkpt lat="44.87506834898219" lon="9.891680176635882"><ele>135.0</ele><time>2026-03-29T07:56:04.999Z</time></trkpt><trkpt lat="44.87515041817293" lon="9.891741164390517"><ele>135.0</ele><time>2026-03-29T07:56:05.999Z</time></trkpt><trkpt lat="44.87523268705992" lon="9.891801503244928"><ele>135.0</ele><time>2026-03-29T07:56:06.999Z</time></trkpt><trkpt lat="44.87531536571779" lon="9.891862604862602"><ele>135.0</ele><time>2026-03-29T07:56:07.999Z</time></trkpt><trkpt lat="44.87539865055962" lon="9.891923953411347"><ele>135.0</ele><time>2026-03-29T07:56:08.999Z</time></trkpt><trkpt lat="44.87548215080789" lon="9.89198419362358"><ele>135.0</ele><time>2026-03-29T07:56:09.999Z</time></trkpt><trkpt lat="44.8755652486195" lon="9.892044656753075"><ele>135.0</ele><time>2026-03-29T07:56:10.999Z</time></trkpt><trkpt lat="44.875648247208126" lon="9.89210539323175"><ele>135.0</ele><time>2026-03-29T07:56:11.999Z</time></trkpt><trkpt lat="44.87573214802753" lon="9.89216360868835"><ele>135.0</ele><time>2026-03-29T07:56:12.999Z</time></trkpt><trkpt lat="44.875815381623354" lon="9.89222147948593"><ele>135.0</ele><time>2026-03-29T07:56:13.999Z</time></trkpt><trkpt lat="44.875901351831395" lon="9.892279661404462"><ele>135.0</ele><time>2026-03-29T07:56:14.999Z</time></trkpt><trkpt lat="44.87598732970947" lon="9.89233402081942"><ele>134.4</ele><time>2026-03-29T07:56:15.999Z</time></trkpt><trkpt lat="44.876073239349964" lon="9.892387970168791"><ele>133.8</ele><time>2026-03-29T07:56:16.998Z</time></trkpt><trkpt lat="44.87616007808008" lon="9.89243859239504"><ele>133.2</ele><time>2026-03-29T07:56:17.998Z</time></trkpt><trkpt lat="44.876248007090126" lon="9.892490188493449"><ele>132.6</ele><time>2026-03-29T07:56:18.998Z</time></trkpt><trkpt lat="44.87633538976723" lon="9.892536953619627"><ele>132.0</ele><time>2026-03-29T07:56:19.998Z</time></trkpt><trkpt lat="44.876424385075" lon="9.892587363664553"><ele>132.0</ele><time>2026-03-29T07:56:20.998Z</time></trkpt><trkpt lat="44.87651157858797" lon="9.892633397103149"><ele>132.0</ele><time>2026-03-29T07:56:22Z</time></trkpt><trkpt lat="44.87659973261658" lon="9.892678903313554"><ele>132.0</ele><time>2026-03-29T07:56:23.001Z</time></trkpt><trkpt lat="44.87668706688027" lon="9.892722632956467"><ele>132.0</ele><time>2026-03-29T07:56:24Z</time></trkpt><trkpt lat="44.87677460498085" lon="9.892766306922764"><ele>132.0</ele><time>2026-03-29T07:56:25Z</time></trkpt><trkpt lat="44.87686387039687" lon="9.892809306422352"><ele>131.6</ele><time>2026-03-29T07:56:26.001Z</time></trkpt><trkpt lat="44.87695270287725" lon="9.89284779233838"><ele>131.2</ele><time>2026-03-29T07:56:27Z</time></trkpt><trkpt lat="44.87704310582394" lon="9.892890030305454"><ele>130.8</ele><time>2026-03-29T07:56:28Z</time></trkpt><trkpt lat="44.8771315457267" lon="9.892928672371726"><ele>130.4</ele><time>2026-03-29T07:56:29Z</time></trkpt><trkpt lat="44.877221215224004" lon="9.892967483832336"><ele>130.0</ele><time>2026-03-29T07:56:30Z</time></trkpt><trkpt lat="44.87731141363415" lon="9.893004893822955"><ele>130.0</ele><time>2026-03-29T07:56:31Z</time></trkpt><trkpt lat="44.87740008603763" lon="9.893044213621655"><ele>130.0</ele><time>2026-03-29T07:56:32Z</time></trkpt><trkpt lat="44.87749089950338" lon="9.893082495348919"><ele>130.0</ele><time>2026-03-29T07:56:33Z</time></trkpt><trkpt lat="44.877580422996225" lon="9.893121073026572"><ele>130.0</ele><time>2026-03-29T07:56:34Z</time></trkpt><trkpt lat="44.87767121598798" lon="9.893162796980494"><ele>130.0</ele><time>2026-03-29T07:56:35Z</time></trkpt><trkpt lat="44.87776001388199" lon="9.893200371517722"><ele>130.2</ele><time>2026-03-29T07:56:36Z</time></trkpt><trkpt lat="44.877849792357644" lon="9.89323954572869"><ele>130.4</ele><time>2026-03-29T07:56:37Z</time></trkpt><trkpt lat="44.87793923809555" lon="9.893277631147347"><ele>130.6</ele><time>2026-03-29T07:56:38Z</time></trkpt><trkpt lat="44.87802810049696" lon="9.893316261899606"><ele>130.8</ele><time>2026-03-29T07:56:39Z</time></trkpt><trkpt lat="44.878117953167006" lon="9.893355218005235"><ele>131.0</ele><time>2026-03-29T07:56:40Z</time></trkpt><trkpt lat="44.878206765803746" lon="9.893394828935648"><ele>131.0</ele><time>2026-03-29T07:56:41Z</time></trkpt><trkpt lat="44.87829573322598" lon="9.893435845050913"><ele>131.0</ele><time>2026-03-29T07:56:42Z</time></trkpt><trkpt lat="44.87838300762182" lon="9.893474728743742"><ele>131.0</ele><time>2026-03-29T07:56:43Z</time></trkpt><trkpt lat="44.878472489351914" lon="9.893513660574614"><ele>131.0</ele><time>2026-03-29T07:56:44Z</time></trkpt><trkpt lat="44.87856072489725" lon="9.893550824665658"><ele>131.0</ele><time>2026-03-29T07:56:45Z</time></trkpt><trkpt lat="44.87864873369092" lon="9.893589363633973"><ele>130.8</ele><time>2026-03-29T07:56:46Z</time></trkpt><trkpt lat="44.87873772144819" lon="9.893628606459615"><ele>130.6</ele><time>2026-03-29T07:56:47Z</time></trkpt><trkpt lat="44.87882750516898" lon="9.89366594715041"><ele>130.4</ele><time>2026-03-29T07:56:48Z</time></trkpt><trkpt lat="44.878916682100666" lon="9.893704955166335"><ele>130.2</ele><time>2026-03-29T07:56:49Z</time></trkpt><trkpt lat="44.879006707372206" lon="9.89374399518859"><ele>130.0</ele><time>2026-03-29T07:56:50Z</time></trkpt><trkpt lat="44.879096613083775" lon="9.893784213452209"><ele>130.0</ele><time>2026-03-29T07:56:51Z</time></trkpt><trkpt lat="44.879186759626414" lon="9.893823835732736"><ele>130.0</ele><time>2026-03-29T07:56:52Z</time></trkpt><trkpt lat="44.8792772021209" lon="9.893862657120161"><ele>130.0</ele><time>2026-03-29T07:56:53Z</time></trkpt><trkpt lat="44.87936886374644" lon="9.893904298209156"><ele>130.0</ele><time>2026-03-29T07:56:54Z</time></trkpt><trkpt lat="44.8794608848632" lon="9.893941052717455"><ele>130.0</ele><time>2026-03-29T07:56:55Z</time></trkpt><trkpt lat="44.87955241625962" lon="9.893982868286475"><ele>130.2</ele><time>2026-03-29T07:56:56Z</time></trkpt><trkpt lat="44.879644266593644" lon="9.894019275336086"><ele>130.4</ele><time>2026-03-29T07:56:57Z</time></trkpt><trkpt lat="44.879733991102725" lon="9.894057769456527"><ele>130.6</ele><time>2026-03-29T07:56:58Z</time></trkpt><trkpt lat="44.87982578340227" lon="9.894097795036709"><ele>130.8</ele><time>2026-03-29T07:56:59Z</time></trkpt><trkpt lat="44.87991535899806" lon="9.894134962874086"><ele>131.0</ele><time>2026-03-29T07:57:00Z</time></trkpt><trkpt lat="44.88000540602429" lon="9.894177536073434"><ele>131.0</ele><time>2026-03-29T07:57:01Z</time></trkpt><trkpt lat="44.88009426555282" lon="9.894217901231755"><ele>131.0</ele><time>2026-03-29T07:57:02Z</time></trkpt><trkpt lat="44.88018466519806" lon="9.894255127125588"><ele>131.0</ele><time>2026-03-29T07:57:03Z</time></trkpt><trkpt lat="44.880273199053846" lon="9.894292860613453"><ele>131.0</ele><time>2026-03-29T07:57:04Z</time></trkpt><trkpt lat="44.8803631602844" lon="9.894331217605517"><ele>131.0</ele><time>2026-03-29T07:57:05Z</time></trkpt><trkpt lat="44.88045218441652" lon="9.894371331798927"><ele>130.2</ele><time>2026-03-29T07:57:06Z</time></trkpt><trkpt lat="44.88054203970378" lon="9.894409487309828"><ele>129.39999999999998</ele><time>2026-03-29T07:57:07Z</time></trkpt><trkpt lat="44.88063222072639" lon="9.894452759650251"><ele>128.6</ele><time>2026-03-29T07:57:08Z</time></trkpt><trkpt lat="44.8807213250022" lon="9.894488838973354"><ele>127.8</ele><time>2026-03-29T07:57:09Z</time></trkpt><trkpt lat="44.880810651423346" lon="9.894528489608316"><ele>127.0</ele><time>2026-03-29T07:57:10Z</time></trkpt><trkpt lat="44.88090063906433" lon="9.894568217669336"><ele>126.8</ele><time>2026-03-29T07:57:11Z</time></trkpt><trkpt lat="44.880990941855224" lon="9.89460726453865"><ele>126.6</ele><time>2026-03-29T07:57:12Z</time></trkpt><trkpt lat="44.88108126267408" lon="9.894647399196595"><ele>126.39999999999999</ele><time>2026-03-29T07:57:13Z</time></trkpt><trkpt lat="44.8811723460305" lon="9.894688558277137"><ele>126.19999999999999</ele><time>2026-03-29T07:57:14Z</time></trkpt><trkpt lat="44.881262811071295" lon="9.894726812401512"><ele>126.0</ele><time>2026-03-29T07:57:15Z</time></trkpt><trkpt lat="44.88135356448128" lon="9.894766781090217"><ele>126.0</ele><time>2026-03-29T07:57:16Z</time></trkpt><trkpt lat="44.881445646993065" lon="9.894804500767012"><ele>126.0</ele><time>2026-03-29T07:57:17Z</time></trkpt><trkpt lat="44.88153543285312" lon="9.894842659671895"><ele>126.0</ele><time>2026-03-29T07:57:18Z</time></trkpt><trkpt lat="44.881627450671395" lon="9.894882017102338"><ele>126.0</ele><time>2026-03-29T07:57:19Z</time></trkpt><trkpt lat="44.88171859055034" lon="9.894922771239312"><ele>126.0</ele><time>2026-03-29T07:57:20Z</time></trkpt><trkpt lat="44.88180921857348" lon="9.89496382337405"><ele>126.0</ele><time>2026-03-29T07:57:21Z</time></trkpt><trkpt lat="44.88189946431648" lon="9.895001547740218"><ele>126.0</ele><time>2026-03-29T07:57:22Z</time></trkpt><trkpt lat="44.88199111768498" lon="9.895040197145503"><ele>126.0</ele><time>2026-03-29T07:57:23Z</time></trkpt><trkpt lat="44.88208198413117" lon="9.895078711625235"><ele>126.0</ele><time>2026-03-29T07:57:24Z</time></trkpt><trkpt lat="44.88217155187394" lon="9.89511937764359"><ele>126.0</ele><time>2026-03-29T07:57:25Z</time></trkpt><trkpt lat="44.88226175043894" lon="9.895158624372026"><ele>126.0</ele><time>2026-03-29T07:57:26Z</time></trkpt><trkpt lat="44.88235161703192" lon="9.895197485677079"><ele>126.0</ele><time>2026-03-29T07:57:26.999Z</time></trkpt><trkpt lat="44.88244033700304" lon="9.895235103976335"><ele>126.0</ele><time>2026-03-29T07:57:27.999Z</time></trkpt><trkpt lat="44.8825291752793" lon="9.895277318486835"><ele>126.0</ele><time>2026-03-29T07:57:28.999Z</time></trkpt><trkpt lat="44.88261990046344" lon="9.895316588503482"><ele>126.0</ele><time>2026-03-29T07:57:29.999Z</time></trkpt><trkpt lat="44.88270833151855" lon="9.895356043175058"><ele>125.8</ele><time>2026-03-29T07:57:30.999Z</time></trkpt><trkpt lat="44.88279755249551" lon="9.895399132286357"><ele>125.6</ele><time>2026-03-29T07:57:31.999Z</time></trkpt><trkpt lat="44.882887424349306" lon="9.89544111159326"><ele>125.4</ele><time>2026-03-29T07:57:32.999Z</time></trkpt><trkpt lat="44.88297796969666" lon="9.895485491454917"><ele>125.2</ele><time>2026-03-29T07:57:33.999Z</time></trkpt><trkpt lat="44.883067823317276" lon="9.89552944220664"><ele>125.0</ele><time>2026-03-29T07:57:34.999Z</time></trkpt><trkpt lat="44.88315779318708" lon="9.895572019399852"><ele>125.0</ele><time>2026-03-29T07:57:35.999Z</time></trkpt><trkpt lat="44.88324859358841" lon="9.895617519322515"><ele>125.0</ele><time>2026-03-29T07:57:36.999Z</time></trkpt><trkpt lat="44.88333969906016" lon="9.895659988522342"><ele>125.0</ele><time>2026-03-29T07:57:37.999Z</time></trkpt><trkpt lat="44.883428903483406" lon="9.895703173844423"><ele>125.0</ele><time>2026-03-29T07:57:38.999Z</time></trkpt><trkpt lat="44.883517765191776" lon="9.895749457627824"><ele>125.0</ele><time>2026-03-29T07:57:39.999Z</time></trkpt><trkpt lat="44.883606567527266" lon="9.895792415973643"><ele>125.0</ele><time>2026-03-29T07:57:40.999Z</time></trkpt><trkpt lat="44.88369644877216" lon="9.895836240603115"><ele>125.0</ele><time>2026-03-29T07:57:41.999Z</time></trkpt><trkpt lat="44.883783621971865" lon="9.895880910977876"><ele>125.0</ele><time>2026-03-29T07:57:42.999Z</time></trkpt><trkpt lat="44.883872239260825" lon="9.895925301663246"><ele>125.0</ele><time>2026-03-29T07:57:43.999Z</time></trkpt><trkpt lat="44.88396147726624" lon="9.89596592882094"><ele>125.0</ele><time>2026-03-29T07:57:44.999Z</time></trkpt><trkpt lat="44.884049963884706" lon="9.896009113068077"><ele>125.2</ele><time>2026-03-29T07:57:45.999Z</time></trkpt><trkpt lat="44.88413950947947" lon="9.896052415685714"><ele>125.4</ele><time>2026-03-29T07:57:46.999Z</time></trkpt><trkpt lat="44.88422957720797" lon="9.89609598628258"><ele>125.6</ele><time>2026-03-29T07:57:47.999Z</time></trkpt><trkpt lat="44.88432003965796" lon="9.89613983858832"><ele>125.8</ele><time>2026-03-29T07:57:48.999Z</time></trkpt><trkpt lat="44.88441017374462" lon="9.896185601383657"><ele>126.0</ele><time>2026-03-29T07:57:49.999Z</time></trkpt><trkpt lat="44.88449927088162" lon="9.896227765924932"><ele>125.4</ele><time>2026-03-29T07:57:50.999Z</time></trkpt><trkpt lat="44.88459075145287" lon="9.89627440597175"><ele>124.8</ele><time>2026-03-29T07:57:51.999Z</time></trkpt><trkpt lat="44.8846825067166" lon="9.896318643101221"><ele>124.20000000000002</ele><time>2026-03-29T07:57:52.999Z</time></trkpt><trkpt lat="44.88477423320939" lon="9.896362900878055"><ele>123.60000000000001</ele><time>2026-03-29T07:57:53.999Z</time></trkpt><trkpt lat="44.884865541268006" lon="9.896406056612914"><ele>123.0</ele><time>2026-03-29T07:57:54.999Z</time></trkpt><trkpt lat="44.8849556994639" lon="9.896452580417886"><ele>123.0</ele><time>2026-03-29T07:57:55.999Z</time></trkpt><trkpt lat="44.885047008126634" lon="9.896498683133636"><ele>123.00000000000001</ele><time>2026-03-29T07:57:56.999Z</time></trkpt><trkpt lat="44.88513799421901" lon="9.896542492529681"><ele>123.00000000000001</ele><time>2026-03-29T07:57:57.999Z</time></trkpt><trkpt lat="44.88522769566311" lon="9.896588397363507"><ele>123.0</ele><time>2026-03-29T07:57:58.999Z</time></trkpt><trkpt lat="44.8853169663122" lon="9.896631690115303"><ele>123.0</ele><time>2026-03-29T07:57:59.999Z</time></trkpt><trkpt lat="44.88540644587168" lon="9.896676659544598"><ele>122.60000000000001</ele><time>2026-03-29T07:58:00.999Z</time></trkpt><trkpt lat="44.885496253372224" lon="9.896721953699844"><ele>122.20000000000002</ele><time>2026-03-29T07:58:01.999Z</time></trkpt><trkpt lat="44.885586432612705" lon="9.896766440547943"><ele>121.8</ele><time>2026-03-29T07:58:02.999Z</time></trkpt><trkpt lat="44.88567608985504" lon="9.896811283626857"><ele>121.4</ele><time>2026-03-29T07:58:03.999Z</time></trkpt><trkpt lat="44.88576574621723" lon="9.896855309689503"><ele>121.0</ele><time>2026-03-29T07:58:04.999Z</time></trkpt><trkpt lat="44.88585563438547" lon="9.896899079287042"><ele>120.8</ele><time>2026-03-29T07:58:05.999Z</time></trkpt><trkpt lat="44.885944258373016" lon="9.896941128755754"><ele>120.6</ele><time>2026-03-29T07:58:06.999Z</time></trkpt><trkpt lat="44.88603243683744" lon="9.896982990367603"><ele>120.4</ele><time>2026-03-29T07:58:07.999Z</time></trkpt><trkpt lat="44.88611977226559" lon="9.897026019658517"><ele>120.2</ele><time>2026-03-29T07:58:08.999Z</time></trkpt><trkpt lat="44.88620808363308" lon="9.897068612632888"><ele>120.0</ele><time>2026-03-29T07:58:09.999Z</time></trkpt><trkpt lat="44.886297620488705" lon="9.897107767363696"><ele>120.0</ele><time>2026-03-29T07:58:10.999Z</time></trkpt><trkpt lat="44.88638823771529" lon="9.897153762745386"><ele>120.0</ele><time>2026-03-29T07:58:11.999Z</time></trkpt><trkpt lat="44.886476534914706" lon="9.897198143786893"><ele>120.0</ele><time>2026-03-29T07:58:12.999Z</time></trkpt><trkpt lat="44.886566341696465" lon="9.897242644965276"><ele>120.0</ele><time>2026-03-29T07:58:13.999Z</time></trkpt><trkpt lat="44.88665510800651" lon="9.897282439702707"><ele>120.0</ele><time>2026-03-29T07:58:14.999Z</time></trkpt><trkpt lat="44.88674288870487" lon="9.897324883279746"><ele>120.0</ele><time>2026-03-29T07:58:15.999Z</time></trkpt><trkpt lat="44.88683225591804" lon="9.897367323759003"><ele>120.0</ele><time>2026-03-29T07:58:16.999Z</time></trkpt><trkpt lat="44.886921200664986" lon="9.897410148722324"><ele>120.0</ele><time>2026-03-29T07:58:17.999Z</time></trkpt><trkpt lat="44.88701205072548" lon="9.897453892422043"><ele>120.0</ele><time>2026-03-29T07:58:18.999Z</time></trkpt><trkpt lat="44.88709993226529" lon="9.897494372228827"><ele>120.0</ele><time>2026-03-29T07:58:19.998Z</time></trkpt><trkpt lat="44.88718971281316" lon="9.897538619293822"><ele>120.0</ele><time>2026-03-29T07:58:20.998Z</time></trkpt><trkpt lat="44.887278824808135" lon="9.89758039261101"><ele>120.0</ele><time>2026-03-29T07:58:21.998Z</time></trkpt><trkpt lat="44.88736819738282" lon="9.89762367189273"><ele>120.0</ele><time>2026-03-29T07:58:22.998Z</time></trkpt><trkpt lat="44.887456897426226" lon="9.897665181691874"><ele>120.0</ele><time>2026-03-29T07:58:23.998Z</time></trkpt><trkpt lat="44.887545602814924" lon="9.897708483409556"><ele>120.0</ele><time>2026-03-29T07:58:24.998Z</time></trkpt><trkpt lat="44.88763484151261" lon="9.897751496970638"><ele>120.0</ele><time>2026-03-29T07:58:25.998Z</time></trkpt><trkpt lat="44.88772433722795" lon="9.897789802711287"><ele>120.0</ele><time>2026-03-29T07:58:26.998Z</time></trkpt><trkpt lat="44.887813140450184" lon="9.897830980935122"><ele>120.0</ele><time>2026-03-29T07:58:28Z</time></trkpt><trkpt lat="44.887900065640515" lon="9.897871769372411"><ele>120.0</ele><time>2026-03-29T07:58:29Z</time></trkpt><trkpt lat="44.88798875460308" lon="9.897915911500547"><ele>120.0</ele><time>2026-03-29T07:58:30Z</time></trkpt><trkpt lat="44.88807516240679" lon="9.897957311909368"><ele>120.0</ele><time>2026-03-29T07:58:31Z</time></trkpt><trkpt lat="44.888162718793744" lon="9.898003132894576"><ele>120.0</ele><time>2026-03-29T07:58:32Z</time></trkpt><trkpt lat="44.88825476745926" lon="9.898044155002479"><ele>120.0</ele><time>2026-03-29T07:58:33Z</time></trkpt><trkpt lat="44.88834308606382" lon="9.898086480178847"><ele>120.0</ele><time>2026-03-29T07:58:34Z</time></trkpt><trkpt lat="44.88843261376746" lon="9.898134630902451"><ele>120.0</ele><time>2026-03-29T07:58:35Z</time></trkpt><trkpt lat="44.888519034487196" lon="9.898187375975906"><ele>119.6</ele><time>2026-03-29T07:58:36Z</time></trkpt><trkpt lat="44.88860622465056" lon="9.898244773106237"><ele>119.2</ele><time>2026-03-29T07:58:37Z</time></trkpt><trkpt lat="44.88869288435536" lon="9.898303861400809"><ele>118.80000000000001</ele><time>2026-03-29T07:58:38Z</time></trkpt><trkpt lat="44.888777594303775" lon="9.898361236257701"><ele>118.4</ele><time>2026-03-29T07:58:39Z</time></trkpt><trkpt lat="44.88886452654479" lon="9.898426674341993"><ele>118.0</ele><time>2026-03-29T07:58:40Z</time></trkpt><trkpt lat="44.8889477924986" lon="9.89848617877151"><ele>117.80000000000001</ele><time>2026-03-29T07:58:41Z</time></trkpt><trkpt lat="44.88903449452028" lon="9.898545526638852"><ele>117.60000000000001</ele><time>2026-03-29T07:58:42Z</time></trkpt><trkpt lat="44.889121172106584" lon="9.898607742945433"><ele>117.39999999999999</ele><time>2026-03-29T07:58:43Z</time></trkpt><trkpt lat="44.889206857869766" lon="9.898666385344741"><ele>117.19999999999999</ele><time>2026-03-29T07:58:44Z</time></trkpt><trkpt lat="44.889294473305064" lon="9.89872414407962"><ele>117.0</ele><time>2026-03-29T07:58:45Z</time></trkpt><trkpt lat="44.889380107065605" lon="9.898786229215068"><ele>117.0</ele><time>2026-03-29T07:58:46Z</time></trkpt><trkpt lat="44.889467846646035" lon="9.898849657550814"><ele>116.99999999999999</ele><time>2026-03-29T07:58:47Z</time></trkpt><trkpt lat="44.889555439549994" lon="9.898906247196377"><ele>116.99999999999999</ele><time>2026-03-29T07:58:48Z</time></trkpt><trkpt lat="44.88964456478992" lon="9.898965178045422"><ele>117.0</ele><time>2026-03-29T07:58:49Z</time></trkpt><trkpt lat="44.88973207898145" lon="9.899022544248929"><ele>117.0</ele><time>2026-03-29T07:58:50Z</time></trkpt><trkpt lat="44.88982108698183" lon="9.899078704791135"><ele>117.0</ele><time>2026-03-29T07:58:51Z</time></trkpt><trkpt lat="44.889906383878085" lon="9.89914054810669"><ele>116.99999999999999</ele><time>2026-03-29T07:58:52Z</time></trkpt><trkpt lat="44.8899926512445" lon="9.899203906814888"><ele>116.99999999999999</ele><time>2026-03-29T07:58:53Z</time></trkpt><trkpt lat="44.89008581666695" lon="9.899253528456182"><ele>117.0</ele><time>2026-03-29T07:58:54Z</time></trkpt><trkpt lat="44.89017590552055" lon="9.899298203303609"><ele>117.0</ele><time>2026-03-29T07:58:55Z</time></trkpt><trkpt lat="44.89026904039795" lon="9.89934238403062"><ele>116.6</ele><time>2026-03-29T07:58:56Z</time></trkpt><trkpt lat="44.89036007157858" lon="9.899386672171557"><ele>116.19999999999999</ele><time>2026-03-29T07:58:57Z</time></trkpt><trkpt lat="44.890450051518066" lon="9.89943177593346"><ele>115.8</ele><time>2026-03-29T07:58:58Z</time></trkpt><trkpt lat="44.89054393233167" lon="9.899476301232447"><ele>115.4</ele><time>2026-03-29T07:58:59Z</time></trkpt><trkpt lat="44.890636302783264" lon="9.89951977474016"><ele>115.0</ele><time>2026-03-29T07:59:00Z</time></trkpt><trkpt lat="44.89072904717551" lon="9.899564132698094"><ele>115.0</ele><time>2026-03-29T07:59:01Z</time></trkpt><trkpt lat="44.89082169097051" lon="9.899604179386795"><ele>115.0</ele><time>2026-03-29T07:59:02Z</time></trkpt><trkpt lat="44.89091451678275" lon="9.899644737548572"><ele>115.0</ele><time>2026-03-29T07:59:03Z</time></trkpt><trkpt lat="44.8910068824066" lon="9.899690321889212"><ele>115.0</ele><time>2026-03-29T07:59:04Z</time></trkpt><trkpt lat="44.89109831454426" lon="9.899736077020512"><ele>115.0</ele><time>2026-03-29T07:59:05Z</time></trkpt><trkpt lat="44.89119162129052" lon="9.899781347996772"><ele>115.0</ele><time>2026-03-29T07:59:06Z</time></trkpt><trkpt lat="44.89128632735579" lon="9.899826300855779"><ele>115.0</ele><time>2026-03-29T07:59:07Z</time></trkpt><trkpt lat="44.89137834176444" lon="9.899868798516197"><ele>115.0</ele><time>2026-03-29T07:59:08Z</time></trkpt><trkpt lat="44.891468651989726" lon="9.899912243359559"><ele>115.0</ele><time>2026-03-29T07:59:09Z</time></trkpt><trkpt lat="44.89156046959085" lon="9.899955980835855"><ele>115.0</ele><time>2026-03-29T07:59:10Z</time></trkpt><trkpt lat="44.89165220194497" lon="9.900000808439785"><ele>115.0</ele><time>2026-03-29T07:59:11Z</time></trkpt><trkpt lat="44.89174217572664" lon="9.90004499238482"><ele>115.0</ele><time>2026-03-29T07:59:12Z</time></trkpt><trkpt lat="44.891830942183404" lon="9.900086815172537"><ele>115.0</ele><time>2026-03-29T07:59:13Z</time></trkpt><trkpt lat="44.891922688630814" lon="9.90012944912234"><ele>115.0</ele><time>2026-03-29T07:59:14Z</time></trkpt><trkpt lat="44.892012413189626" lon="9.900175358228992"><ele>115.0</ele><time>2026-03-29T07:59:15Z</time></trkpt><trkpt lat="44.892102132604606" lon="9.90021699221162"><ele>114.4</ele><time>2026-03-29T07:59:16Z</time></trkpt><trkpt lat="44.89219373065684" lon="9.900258655375325"><ele>113.8</ele><time>2026-03-29T07:59:17Z</time></trkpt><trkpt lat="44.89228389710244" lon="9.900303035667276"><ele>113.19999999999999</ele><time>2026-03-29T07:59:18Z</time></trkpt><trkpt lat="44.89237596182748" lon="9.900348992928805"><ele>112.6</ele><time>2026-03-29T07:59:19Z</time></trkpt><trkpt lat="44.89246766651923" lon="9.900393649679284"><ele>112.0</ele><time>2026-03-29T07:59:20Z</time></trkpt><trkpt lat="44.89255947365013" lon="9.900436043062632"><ele>112.19999999999999</ele><time>2026-03-29T07:59:21Z</time></trkpt><trkpt lat="44.892651199504726" lon="9.900479262155672"><ele>112.39999999999999</ele><time>2026-03-29T07:59:22Z</time></trkpt><trkpt lat="44.892742530899824" lon="9.900521168399514"><ele>112.60000000000001</ele><time>2026-03-29T07:59:23Z</time></trkpt><trkpt lat="44.89283060426547" lon="9.900564510624985"><ele>112.80000000000001</ele><time>2026-03-29T07:59:24Z</time></trkpt><trkpt lat="44.8929221910115" lon="9.900608983368885"><ele>113.0</ele><time>2026-03-29T07:59:25Z</time></trkpt><trkpt lat="44.89301290150467" lon="9.900652490265147"><ele>113.0</ele><time>2026-03-29T07:59:26Z</time></trkpt><trkpt lat="44.89310332457817" lon="9.90069381465083"><ele>113.00000000000001</ele><time>2026-03-29T07:59:27Z</time></trkpt><trkpt lat="44.893192380737744" lon="9.900739539959291"><ele>113.00000000000001</ele><time>2026-03-29T07:59:28Z</time></trkpt><trkpt lat="44.893284136694945" lon="9.900782159445365"><ele>113.0</ele><time>2026-03-29T07:59:29Z</time></trkpt><trkpt lat="44.89337257275444" lon="9.900828943404202"><ele>113.0</ele><time>2026-03-29T07:59:30Z</time></trkpt><trkpt lat="44.89346498041729" lon="9.900867962915243"><ele>113.2</ele><time>2026-03-29T07:59:30.999Z</time></trkpt><trkpt lat="44.8935535399161" lon="9.90091581633506"><ele>113.4</ele><time>2026-03-29T07:59:31.999Z</time></trkpt><trkpt lat="44.893645817777696" lon="9.900962034901916"><ele>113.60000000000001</ele><time>2026-03-29T07:59:32.999Z</time></trkpt><trkpt lat="44.893732848634215" lon="9.901006436822586"><ele>113.80000000000001</ele><time>2026-03-29T07:59:33.999Z</time></trkpt><trkpt lat="44.893826759104265" lon="9.901050199951483"><ele>114.0</ele><time>2026-03-29T07:59:34.999Z</time></trkpt><trkpt lat="44.89391981595923" lon="9.901093606256849"><ele>113.4</ele><time>2026-03-29T07:59:35.999Z</time></trkpt><trkpt lat="44.89401248149974" lon="9.901136352162489"><ele>112.80000000000001</ele><time>2026-03-29T07:59:36.999Z</time></trkpt><trkpt lat="44.89410414866639" lon="9.901177476789298"><ele>112.19999999999999</ele><time>2026-03-29T07:59:37.999Z</time></trkpt><trkpt lat="44.89419613670735" lon="9.901211389142862"><ele>111.6</ele><time>2026-03-29T07:59:38.999Z</time></trkpt><trkpt lat="44.89428975489973" lon="9.901250274353862"><ele>111.0</ele><time>2026-03-29T07:59:39.999Z</time></trkpt><trkpt lat="44.89438165223782" lon="9.901279457807222"><ele>111.0</ele><time>2026-03-29T07:59:40.999Z</time></trkpt><trkpt lat="44.894477512749766" lon="9.90130409346349"><ele>111.0</ele><time>2026-03-29T07:59:41.999Z</time></trkpt><trkpt lat="44.89457418124313" lon="9.90133733626866"><ele>111.0</ele><time>2026-03-29T07:59:42.999Z</time></trkpt><trkpt lat="44.894664224528654" lon="9.901364161603695"><ele>111.0</ele><time>2026-03-29T07:59:43.999Z</time></trkpt><trkpt lat="44.89475855297913" lon="9.90139494114062"><ele>111.0</ele><time>2026-03-29T07:59:44.999Z</time></trkpt><trkpt lat="44.89485271058364" lon="9.901428556076816"><ele>111.0</ele><time>2026-03-29T07:59:45.999Z</time></trkpt><trkpt lat="44.894949123835424" lon="9.901456397018164"><ele>111.0</ele><time>2026-03-29T07:59:46.999Z</time></trkpt><trkpt lat="44.89504419938128" lon="9.901485979786587"><ele>111.0</ele><time>2026-03-29T07:59:47.999Z</time></trkpt><trkpt lat="44.895138592966944" lon="9.901513700753442"><ele>111.0</ele><time>2026-03-29T07:59:48.999Z</time></trkpt><trkpt lat="44.89523439648898" lon="9.901542854713604"><ele>111.0</ele><time>2026-03-29T07:59:49.999Z</time></trkpt><trkpt lat="44.895331991409215" lon="9.90157303355068"><ele>110.6</ele><time>2026-03-29T07:59:50.999Z</time></trkpt><trkpt lat="44.89542739367069" lon="9.901602870281646"><ele>110.19999999999999</ele><time>2026-03-29T07:59:51.999Z</time></trkpt><trkpt lat="44.89552194009849" lon="9.901631660636708"><ele>109.80000000000001</ele><time>2026-03-29T07:59:52.999Z</time></trkpt><trkpt lat="44.89561552088094" lon="9.901662874031251"><ele>109.4</ele><time>2026-03-29T07:59:53.999Z</time></trkpt><trkpt lat="44.89570979487431" lon="9.901692395995111"><ele>109.0</ele><time>2026-03-29T07:59:54.999Z</time></trkpt><trkpt lat="44.89580424055788" lon="9.901724434839624"><ele>108.6</ele><time>2026-03-29T07:59:55.999Z</time></trkpt><trkpt lat="44.89589728323946" lon="9.901755999280335"><ele>108.2</ele><time>2026-03-29T07:59:56.999Z</time></trkpt><trkpt lat="44.89598954589402" lon="9.901790892759541"><ele>107.79999999999998</ele><time>2026-03-29T07:59:57.999Z</time></trkpt><trkpt lat="44.89608265885756" lon="9.90182789630606"><ele>107.39999999999999</ele><time>2026-03-29T07:59:58.999Z</time></trkpt><trkpt lat="44.896173981718725" lon="9.901865177387075"><ele>107.0</ele><time>2026-03-29T07:59:59.999Z</time></trkpt><trkpt lat="44.8962652638843" lon="9.901906027574169"><ele>107.0</ele><time>2026-03-29T08:00:00.999Z</time></trkpt><trkpt lat="44.896356537960905" lon="9.901948020214572"><ele>106.99999999999999</ele><time>2026-03-29T08:00:01.999Z</time></trkpt><trkpt lat="44.896447145012374" lon="9.901989710805548"><ele>106.99999999999999</ele><time>2026-03-29T08:00:02.999Z</time></trkpt><trkpt lat="44.89653899865796" lon="9.902035928414964"><ele>107.0</ele><time>2026-03-29T08:00:03.999Z</time></trkpt><trkpt lat="44.896628612470906" lon="9.902084445701782"><ele>107.0</ele><time>2026-03-29T08:00:04.999Z</time></trkpt><trkpt lat="44.8967197625582" lon="9.902133694338733"><ele>107.19999999999999</ele><time>2026-03-29T08:00:05.999Z</time></trkpt><trkpt lat="44.89681034084629" lon="9.902183542968903"><ele>107.39999999999999</ele><time>2026-03-29T08:00:06.999Z</time></trkpt><trkpt lat="44.89690195879466" lon="9.902235240320937"><ele>107.60000000000001</ele><time>2026-03-29T08:00:07.999Z</time></trkpt><trkpt lat="44.89699270133201" lon="9.902286458829863"><ele>107.80000000000001</ele><time>2026-03-29T08:00:08.999Z</time></trkpt><trkpt lat="44.89708174041791" lon="9.90233864534164"><ele>108.0</ele><time>2026-03-29T08:00:09.999Z</time></trkpt><trkpt lat="44.89717377580083" lon="9.902389747709886"><ele>108.0</ele><time>2026-03-29T08:00:10.999Z</time></trkpt><trkpt lat="44.89726509344407" lon="9.902445149566233"><ele>108.00000000000001</ele><time>2026-03-29T08:00:11.999Z</time></trkpt><trkpt lat="44.89735577556396" lon="9.902496661740031"><ele>108.00000000000001</ele><time>2026-03-29T08:00:12.999Z</time></trkpt><trkpt lat="44.89744651113841" lon="9.90254628286346"><ele>108.0</ele><time>2026-03-29T08:00:13.999Z</time></trkpt><trkpt lat="44.89753686651159" lon="9.902597167767414"><ele>108.0</ele><time>2026-03-29T08:00:14.999Z</time></trkpt><trkpt lat="44.89762784755626" lon="9.902646464953637"><ele>107.2</ele><time>2026-03-29T08:00:15.999Z</time></trkpt><trkpt lat="44.89771942184061" lon="9.9026944722149"><ele>106.4</ele><time>2026-03-29T08:00:16.999Z</time></trkpt><trkpt lat="44.89781128833514" lon="9.90274415227528"><ele>105.60000000000001</ele><time>2026-03-29T08:00:17.999Z</time></trkpt><trkpt lat="44.89790245267882" lon="9.90279053691765"><ele>104.80000000000001</ele><time>2026-03-29T08:00:18.999Z</time></trkpt><trkpt lat="44.89799303616764" lon="9.90283747788596"><ele>104.0</ele><time>2026-03-29T08:00:19.999Z</time></trkpt><trkpt lat="44.89808475667507" lon="9.902879762495392"><ele>104.0</ele><time>2026-03-29T08:00:20.999Z</time></trkpt><trkpt lat="44.89817710309521" lon="9.902924945413767"><ele>104.0</ele><time>2026-03-29T08:00:21.999Z</time></trkpt><trkpt lat="44.89826867289776" lon="9.902968091793662"><ele>104.0</ele><time>2026-03-29T08:00:22.999Z</time></trkpt><trkpt lat="44.89835844330991" lon="9.90301608230356"><ele>104.0</ele><time>2026-03-29T08:00:23.998Z</time></trkpt><trkpt lat="44.89844980233978" lon="9.90306142628627"><ele>104.0</ele><time>2026-03-29T08:00:24.998Z</time></trkpt><trkpt lat="44.89854188476616" lon="9.903106562066132"><ele>103.80000000000001</ele><time>2026-03-29T08:00:25.998Z</time></trkpt><trkpt lat="44.898631193504336" lon="9.903148318050702"><ele>103.60000000000001</ele><time>2026-03-29T08:00:26.998Z</time></trkpt><trkpt lat="44.89872017678949" lon="9.903196166674759"><ele>103.4</ele><time>2026-03-29T08:00:27.998Z</time></trkpt><trkpt lat="44.89880991558415" lon="9.903237354075035"><ele>103.2</ele><time>2026-03-29T08:00:28.998Z</time></trkpt><trkpt lat="44.89889974799039" lon="9.903283792652156"><ele>103.0</ele><time>2026-03-29T08:00:29.998Z</time></trkpt><trkpt lat="44.8989901599984" lon="9.903325975232484"><ele>103.0</ele><time>2026-03-29T08:00:30.998Z</time></trkpt><trkpt lat="44.89907998503784" lon="9.903369755430727"><ele>103.0</ele><time>2026-03-29T08:00:31.998Z</time></trkpt><trkpt lat="44.899170220101524" lon="9.903414330141116"><ele>103.0</ele><time>2026-03-29T08:00:32.998Z</time></trkpt><trkpt lat="44.89925933858022" lon="9.903460356021704"><ele>103.0</ele><time>2026-03-29T08:00:34Z</time></trkpt><trkpt lat="44.899349779405235" lon="9.903505119740077"><ele>103.0</ele><time>2026-03-29T08:00:35Z</time></trkpt><trkpt lat="44.899439761152706" lon="9.903547756661267"><ele>103.0</ele><time>2026-03-29T08:00:36Z</time></trkpt><trkpt lat="44.899530717491245" lon="9.903591904327785"><ele>103.0</ele><time>2026-03-29T08:00:37Z</time></trkpt><trkpt lat="44.899619491005836" lon="9.90363664407901"><ele>103.0</ele><time>2026-03-29T08:00:38Z</time></trkpt><trkpt lat="44.899709591326136" lon="9.903681903793641"><ele>103.0</ele><time>2026-03-29T08:00:39Z</time></trkpt><trkpt lat="44.89979955209781" lon="9.903727073022333"><ele>103.0</ele><time>2026-03-29T08:00:40Z</time></trkpt><trkpt lat="44.899888491335965" lon="9.903773017733752"><ele>103.0</ele><time>2026-03-29T08:00:41Z</time></trkpt><trkpt lat="44.89997944646992" lon="9.903820895139585"><ele>103.0</ele><time>2026-03-29T08:00:42Z</time></trkpt><trkpt lat="44.900068993326514" lon="9.903862824951416"><ele>103.0</ele><time>2026-03-29T08:00:43Z</time></trkpt><trkpt lat="44.90015862083065" lon="9.903907233806237"><ele>103.0</ele><time>2026-03-29T08:00:44Z</time></trkpt><trkpt lat="44.90024985554938" lon="9.903951456803444"><ele>103.0</ele><time>2026-03-29T08:00:45Z</time></trkpt><trkpt lat="44.90033756802974" lon="9.903995345297183"><ele>103.0</ele><time>2026-03-29T08:00:46Z</time></trkpt><trkpt lat="44.90042910696664" lon="9.904040339113665"><ele>103.0</ele><time>2026-03-29T08:00:47Z</time></trkpt><trkpt lat="44.900517023112265" lon="9.904084466598926"><ele>103.0</ele><time>2026-03-29T08:00:48Z</time></trkpt><trkpt lat="44.90060717765298" lon="9.904128057537536"><ele>103.0</ele><time>2026-03-29T08:00:49Z</time></trkpt><trkpt lat="44.900695174176626" lon="9.904171816513504"><ele>103.0</ele><time>2026-03-29T08:00:50Z</time></trkpt><trkpt lat="44.9007856848824" lon="9.904216517132133"><ele>103.2</ele><time>2026-03-29T08:00:51Z</time></trkpt><trkpt lat="44.90087289144763" lon="9.904261215786288"><ele>103.4</ele><time>2026-03-29T08:00:52Z</time></trkpt><trkpt lat="44.90096222257992" lon="9.904306572116694"><ele>103.60000000000001</ele><time>2026-03-29T08:00:53Z</time></trkpt><trkpt lat="44.90105025171978" lon="9.904351131557641"><ele>103.80000000000001</ele><time>2026-03-29T08:00:54Z</time></trkpt><trkpt lat="44.90113954102227" lon="9.9043957246196"><ele>104.0</ele><time>2026-03-29T08:00:55Z</time></trkpt><trkpt lat="44.90122769936139" lon="9.904438072892951"><ele>104.0</ele><time>2026-03-29T08:00:56Z</time></trkpt><trkpt lat="44.901317320531746" lon="9.904481352457589"><ele>104.0</ele><time>2026-03-29T08:00:57Z</time></trkpt><trkpt lat="44.901404988573404" lon="9.904528253799603"><ele>104.0</ele><time>2026-03-29T08:00:58Z</time></trkpt><trkpt lat="44.90149275144782" lon="9.904575544193198"><ele>104.0</ele><time>2026-03-29T08:00:59Z</time></trkpt><trkpt lat="44.90158112978699" lon="9.904621287424828"><ele>104.0</ele><time>2026-03-29T08:01:00Z</time></trkpt><trkpt lat="44.90166802021691" lon="9.904659164133756"><ele>103.80000000000001</ele><time>2026-03-29T08:01:01Z</time></trkpt><trkpt lat="44.90175612434895" lon="9.904717018931452"><ele>103.60000000000001</ele><time>2026-03-29T08:01:02Z</time></trkpt><trkpt lat="44.9018428766171" lon="9.904759825994955"><ele>103.4</ele><time>2026-03-29T08:01:03Z</time></trkpt><trkpt lat="44.90193049814202" lon="9.904806101224805"><ele>103.2</ele><time>2026-03-29T08:01:04Z</time></trkpt><trkpt lat="44.90202138937596" lon="9.904850518398597"><ele>103.0</ele><time>2026-03-29T08:01:05Z</time></trkpt><trkpt lat="44.90210783140195" lon="9.904896549734579"><ele>103.0</ele><time>2026-03-29T08:01:06Z</time></trkpt><trkpt lat="44.90220179397878" lon="9.904942638924537"><ele>103.0</ele><time>2026-03-29T08:01:07Z</time></trkpt><trkpt lat="44.90229124695426" lon="9.904988148649812"><ele>103.0</ele><time>2026-03-29T08:01:08Z</time></trkpt><trkpt lat="44.90238196095638" lon="9.905030375517342"><ele>103.0</ele><time>2026-03-29T08:01:09Z</time></trkpt><trkpt lat="44.90247118715167" lon="9.905080356280832"><ele>103.0</ele><time>2026-03-29T08:01:10Z</time></trkpt><trkpt lat="44.902560817866146" lon="9.90512212773474"><ele>103.0</ele><time>2026-03-29T08:01:11Z</time></trkpt><trkpt lat="44.902651403577494" lon="9.905166841120801"><ele>103.0</ele><time>2026-03-29T08:01:12Z</time></trkpt><trkpt lat="44.90274120107476" lon="9.905213863524052"><ele>103.0</ele><time>2026-03-29T08:01:13Z</time></trkpt><trkpt lat="44.90283284471649" lon="9.905257205643665"><ele>103.0</ele><time>2026-03-29T08:01:14Z</time></trkpt><trkpt lat="44.902923897372666" lon="9.90530344743448"><ele>103.0</ele><time>2026-03-29T08:01:15Z</time></trkpt><trkpt lat="44.903014883805156" lon="9.905349448383788"><ele>103.0</ele><time>2026-03-29T08:01:16Z</time></trkpt><trkpt lat="44.90310636889578" lon="9.905396010541514"><ele>103.0</ele><time>2026-03-29T08:01:17Z</time></trkpt><trkpt lat="44.90319589211494" lon="9.905441701220639"><ele>103.0</ele><time>2026-03-29T08:01:18Z</time></trkpt><trkpt lat="44.903288651315904" lon="9.905488425820007"><ele>103.0</ele><time>2026-03-29T08:01:19Z</time></trkpt><trkpt lat="44.903377535869005" lon="9.905534368792232"><ele>103.0</ele><time>2026-03-29T08:01:20Z</time></trkpt><trkpt lat="44.903469145526266" lon="9.905580526376605"><ele>102.2</ele><time>2026-03-29T08:01:21Z</time></trkpt><trkpt lat="44.90356121446509" lon="9.905626608376725"><ele>101.4</ele><time>2026-03-29T08:01:22Z</time></trkpt><trkpt lat="44.90365100031016" lon="9.905669122206668"><ele>100.60000000000001</ele><time>2026-03-29T08:01:23Z</time></trkpt><trkpt lat="44.90374276465941" lon="9.905716734056215"><ele>99.80000000000001</ele><time>2026-03-29T08:01:24Z</time></trkpt><trkpt lat="44.90383310113251" lon="9.90576265278863"><ele>99.0</ele><time>2026-03-29T08:01:25Z</time></trkpt><trkpt lat="44.903922502484946" lon="9.90580836902309"><ele>99.0</ele><time>2026-03-29T08:01:26Z</time></trkpt><trkpt lat="44.904013456829865" lon="9.90585142977621"><ele>99.0</ele><time>2026-03-29T08:01:27Z</time></trkpt><trkpt lat="44.904105372934616" lon="9.905902913605376"><ele>99.0</ele><time>2026-03-29T08:01:28Z</time></trkpt><trkpt lat="44.90419495070185" lon="9.90594620231774"><ele>99.0</ele><time>2026-03-29T08:01:29Z</time></trkpt><trkpt lat="44.90428431901757" lon="9.905996300523547"><ele>99.0</ele><time>2026-03-29T08:01:30Z</time></trkpt><trkpt lat="44.904375251202204" lon="9.906046917048926"><ele>98.4</ele><time>2026-03-29T08:01:31Z</time></trkpt><trkpt lat="44.90446441392648" lon="9.906095129811403"><ele>97.80000000000001</ele><time>2026-03-29T08:01:32Z</time></trkpt><trkpt lat="44.90456113651589" lon="9.906116287005567"><ele>97.19999999999999</ele><time>2026-03-29T08:01:33Z</time></trkpt><trkpt lat="44.904650103591706" lon="9.906164446629925"><ele>96.6</ele><time>2026-03-29T08:01:34Z</time></trkpt><trkpt lat="44.904739829699" lon="9.906214386100633"><ele>96.0</ele><time>2026-03-29T08:01:34.999Z</time></trkpt><trkpt lat="44.904827899831766" lon="9.906263404733682"><ele>96.0</ele><time>2026-03-29T08:01:35.999Z</time></trkpt><trkpt lat="44.90491756572735" lon="9.906313310612491"><ele>96.0</ele><time>2026-03-29T08:01:36.999Z</time></trkpt><trkpt lat="44.90500191488594" lon="9.906380842280647"><ele>96.0</ele><time>2026-03-29T08:01:37.999Z</time></trkpt><trkpt lat="44.905092930327314" lon="9.906423191272184"><ele>96.0</ele><time>2026-03-29T08:01:38.999Z</time></trkpt><trkpt lat="44.90518341714316" lon="9.906469638877258"><ele>96.0</ele><time>2026-03-29T08:01:39.999Z</time></trkpt><trkpt lat="44.905273427765025" lon="9.906515344495894"><ele>95.8</ele><time>2026-03-29T08:01:40.999Z</time></trkpt><trkpt lat="44.90536375812473" lon="9.90656202450859"><ele>95.6</ele><time>2026-03-29T08:01:41.999Z</time></trkpt><trkpt lat="44.90546015409615" lon="9.906578884129404"><ele>95.4</ele><time>2026-03-29T08:01:42.999Z</time></trkpt><trkpt lat="44.905555346921965" lon="9.906618580224722"><ele>95.2</ele><time>2026-03-29T08:01:43.999Z</time></trkpt><trkpt lat="44.90564746317968" lon="9.906661834735914"><ele>95.0</ele><time>2026-03-29T08:01:44.999Z</time></trkpt><trkpt lat="44.905739760944975" lon="9.906707784529223"><ele>95.0</ele><time>2026-03-29T08:01:45.999Z</time></trkpt><trkpt lat="44.90583165849478" lon="9.906752988123916"><ele>95.0</ele><time>2026-03-29T08:01:46.999Z</time></trkpt><trkpt lat="44.90592224925164" lon="9.90679747272118"><ele>95.0</ele><time>2026-03-29T08:01:47.999Z</time></trkpt><trkpt lat="44.90601353768005" lon="9.906842299894036"><ele>95.0</ele><time>2026-03-29T08:01:48.999Z</time></trkpt><trkpt lat="44.90610475921149" lon="9.906887094223636"><ele>95.0</ele><time>2026-03-29T08:01:49.999Z</time></trkpt><trkpt lat="44.90619682559011" lon="9.906933930444964"><ele>95.0</ele><time>2026-03-29T08:01:50.999Z</time></trkpt><trkpt lat="44.90628829765595" lon="9.906982802336206"><ele>95.0</ele><time>2026-03-29T08:01:51.999Z</time></trkpt><trkpt lat="44.90638044455703" lon="9.907032647875818"><ele>95.0</ele><time>2026-03-29T08:01:52.999Z</time></trkpt><trkpt lat="44.906471554884554" lon="9.907081132376879"><ele>95.0</ele><time>2026-03-29T08:01:53.999Z</time></trkpt><trkpt lat="44.90656323071075" lon="9.907126034798534"><ele>95.0</ele><time>2026-03-29T08:01:54.999Z</time></trkpt><trkpt lat="44.906655818502124" lon="9.90717138391583"><ele>95.0</ele><time>2026-03-29T08:01:55.999Z</time></trkpt><trkpt lat="44.90674789823562" lon="9.907215485415133"><ele>95.0</ele><time>2026-03-29T08:01:56.999Z</time></trkpt><trkpt lat="44.90683995602201" lon="9.907259525404413"><ele>95.0</ele><time>2026-03-29T08:01:57.999Z</time></trkpt><trkpt lat="44.9069325270949" lon="9.907303810933719"><ele>95.0</ele><time>2026-03-29T08:01:58.999Z</time></trkpt><trkpt lat="44.907022692534795" lon="9.907340619685106"><ele>95.0</ele><time>2026-03-29T08:01:59.999Z</time></trkpt><trkpt lat="44.90710889472799" lon="9.907421928220721"><ele>95.0</ele><time>2026-03-29T08:02:00.999Z</time></trkpt><trkpt lat="44.90720123584181" lon="9.907465892437479"><ele>95.0</ele><time>2026-03-29T08:02:01.999Z</time></trkpt><trkpt lat="44.90729483844809" lon="9.907504611655028"><ele>95.0</ele><time>2026-03-29T08:02:02.999Z</time></trkpt><trkpt lat="44.90738731102227" lon="9.907544854038575"><ele>95.0</ele><time>2026-03-29T08:02:03.999Z</time></trkpt><trkpt lat="44.90747903288884" lon="9.907589927240124"><ele>95.0</ele><time>2026-03-29T08:02:04.999Z</time></trkpt><trkpt lat="44.90757195891893" lon="9.90763880774797"><ele>94.6</ele><time>2026-03-29T08:02:05.999Z</time></trkpt><trkpt lat="44.90766577784132" lon="9.907687007400416"><ele>94.2</ele><time>2026-03-29T08:02:06.999Z</time></trkpt><trkpt lat="44.90776052499158" lon="9.90773219206752"><ele>93.80000000000001</ele><time>2026-03-29T08:02:07.999Z</time></trkpt><trkpt lat="44.90785450602222" lon="9.90777666081581"><ele>93.4</ele><time>2026-03-29T08:02:08.999Z</time></trkpt><trkpt lat="44.9079499646698" lon="9.907824200781583"><ele>93.0</ele><time>2026-03-29T08:02:09.999Z</time></trkpt><trkpt lat="44.90804370849884" lon="9.907869307494657"><ele>93.0</ele><time>2026-03-29T08:02:10.999Z</time></trkpt><trkpt lat="44.90813534505426" lon="9.907913787537648"><ele>93.0</ele><time>2026-03-29T08:02:11.999Z</time></trkpt><trkpt lat="44.90822955858135" lon="9.907959017498053"><ele>93.0</ele><time>2026-03-29T08:02:12.999Z</time></trkpt><trkpt lat="44.90832248583149" lon="9.908008968691208"><ele>93.0</ele><time>2026-03-29T08:02:13.999Z</time></trkpt><trkpt lat="44.908415258994" lon="9.908049397977951"><ele>93.0</ele><time>2026-03-29T08:02:14.999Z</time></trkpt><trkpt lat="44.90850718061688" lon="9.908094922146283"><ele>92.60000000000001</ele><time>2026-03-29T08:02:15.999Z</time></trkpt><trkpt lat="44.90859997008563" lon="9.908139927933654"><ele>92.2</ele><time>2026-03-29T08:02:16.999Z</time></trkpt><trkpt lat="44.90869391198552" lon="9.908187134123555"><ele>91.8</ele><time>2026-03-29T08:02:17.999Z</time></trkpt><trkpt lat="44.90878913658453" lon="9.908231794311353"><ele>91.4</ele><time>2026-03-29T08:02:18.999Z</time></trkpt><trkpt lat="44.90888215013687" lon="9.908281756147543"><ele>91.0</ele><time>2026-03-29T08:02:19.999Z</time></trkpt><trkpt lat="44.908979091906865" lon="9.908324858718714"><ele>91.0</ele><time>2026-03-29T08:02:20.999Z</time></trkpt><trkpt lat="44.90907494800301" lon="9.908370862563135"><ele>91.0</ele><time>2026-03-29T08:02:21.999Z</time></trkpt><trkpt lat="44.90916953206007" lon="9.908415982229798"><ele>91.0</ele><time>2026-03-29T08:02:22.999Z</time></trkpt><trkpt lat="44.909264280884884" lon="9.9084608012253"><ele>91.0</ele><time>2026-03-29T08:02:23.999Z</time></trkpt><trkpt lat="44.90935787686819" lon="9.908504148387152"><ele>91.0</ele><time>2026-03-29T08:02:24.999Z</time></trkpt><trkpt lat="44.90945118058061" lon="9.908549306705858"><ele>91.4</ele><time>2026-03-29T08:02:25.999Z</time></trkpt><trkpt lat="44.90954251488323" lon="9.908597850500453"><ele>91.8</ele><time>2026-03-29T08:02:26.999Z</time></trkpt><trkpt lat="44.909632354771404" lon="9.908651067602216"><ele>92.2</ele><time>2026-03-29T08:02:27.998Z</time></trkpt><trkpt lat="44.909720048757926" lon="9.908703148822179"><ele>92.60000000000001</ele><time>2026-03-29T08:02:28.998Z</time></trkpt><trkpt lat="44.90980615355035" lon="9.908750118323807"><ele>93.0</ele><time>2026-03-29T08:02:29.998Z</time></trkpt><trkpt lat="44.90989308299065" lon="9.908792993484104"><ele>93.0</ele><time>2026-03-29T08:02:30.998Z</time></trkpt><trkpt lat="44.90997971213926" lon="9.908836868443547"><ele>93.0</ele><time>2026-03-29T08:02:31.998Z</time></trkpt><trkpt lat="44.91006449531181" lon="9.908881013438824"><ele>93.0</ele><time>2026-03-29T08:02:32.998Z</time></trkpt><trkpt lat="44.91014808639993" lon="9.908926821018165"><ele>93.0</ele><time>2026-03-29T08:02:33.998Z</time></trkpt><trkpt lat="44.910228532294006" lon="9.908974687069385"><ele>93.0</ele><time>2026-03-29T08:02:34.998Z</time></trkpt><trkpt lat="44.91031335591144" lon="9.9090154791302"><ele>93.0</ele><time>2026-03-29T08:02:35.998Z</time></trkpt><trkpt lat="44.91039443244337" lon="9.909060708038515"><ele>93.0</ele><time>2026-03-29T08:02:36.998Z</time></trkpt><trkpt lat="44.91047611061201" lon="9.909106335424806"><ele>93.0</ele><time>2026-03-29T08:02:37.998Z</time></trkpt><trkpt lat="44.91055559066322" lon="9.909149314796407"><ele>93.0</ele><time>2026-03-29T08:02:38.998Z</time></trkpt><trkpt lat="44.910638496111474" lon="9.90919138846287"><ele>93.0</ele><time>2026-03-29T08:02:40Z</time></trkpt><trkpt lat="44.910718182407145" lon="9.909233137466607"><ele>93.0</ele><time>2026-03-29T08:02:41Z</time></trkpt><trkpt lat="44.91079491448043" lon="9.909275020916454"><ele>93.0</ele><time>2026-03-29T08:02:42Z</time></trkpt><trkpt lat="44.910869871921435" lon="9.909315784962946"><ele>92.33333333333333</ele><time>2026-03-29T08:02:43Z</time></trkpt><trkpt lat="44.910946430112894" lon="9.909358106032437"><ele>91.66666666666667</ele><time>2026-03-29T08:02:44Z</time></trkpt><trkpt lat="44.91102194239907" lon="9.909399384890468"><ele>91.0</ele><time>2026-03-29T08:02:45Z</time></trkpt><trkpt lat="44.9110990358903" lon="9.909440831748455"><ele>90.33333333333334</ele><time>2026-03-29T08:02:46Z</time></trkpt><trkpt lat="44.91117629080159" lon="9.909483227071295"><ele>89.66666666666667</ele><time>2026-03-29T08:02:47Z</time></trkpt><trkpt lat="44.9112532571104" lon="9.90952706928844"><ele>89.0</ele><time>2026-03-29T08:02:48Z</time></trkpt><trkpt lat="44.91133383566116" lon="9.909570836704493"><ele>89.0</ele><time>2026-03-29T08:02:49Z</time></trkpt><trkpt lat="44.911414602160804" lon="9.909613857312795"><ele>89.0</ele><time>2026-03-29T08:02:50Z</time></trkpt><trkpt lat="44.911494772098294" lon="9.909649841224242"><ele>89.0</ele><time>2026-03-29T08:02:51Z</time></trkpt><trkpt lat="44.91157701879914" lon="9.909677893002806"><ele>89.0</ele><time>2026-03-29T08:02:52Z</time></trkpt><trkpt lat="44.91166240171704" lon="9.909699682525579"><ele>89.0</ele><time>2026-03-29T08:02:53Z</time></trkpt><trkpt lat="44.9117497125028" lon="9.909717614843546"><ele>89.0</ele><time>2026-03-29T08:02:54Z</time></trkpt><trkpt lat="44.91183705491397" lon="9.909733438010184"><ele>89.2</ele><time>2026-03-29T08:02:55Z</time></trkpt><trkpt lat="44.9119280382321" lon="9.909744745275471"><ele>89.4</ele><time>2026-03-29T08:02:56Z</time></trkpt><trkpt lat="44.912019283755335" lon="9.90974875759145"><ele>89.6</ele><time>2026-03-29T08:02:57Z</time></trkpt><trkpt lat="44.912109786018036" lon="9.909748652515212"><ele>89.8</ele><time>2026-03-29T08:02:58Z</time></trkpt><trkpt lat="44.91220154023589" lon="9.909746282094996"><ele>90.0</ele><time>2026-03-29T08:02:59Z</time></trkpt><trkpt lat="44.912293620429" lon="9.909740140194558"><ele>90.0</ele><time>2026-03-29T08:03:00Z</time></trkpt><trkpt lat="44.91238915590945" lon="9.909726559218697"><ele>90.0</ele><time>2026-03-29T08:03:01Z</time></trkpt><trkpt lat="44.91248889660101" lon="9.909714296121999"><ele>90.0</ele><time>2026-03-29T08:03:02Z</time></trkpt><trkpt lat="44.91259114051811" lon="9.909703256714169"><ele>90.0</ele><time>2026-03-29T08:03:03Z</time></trkpt><trkpt lat="44.912691023429076" lon="9.909690446542012"><ele>90.0</ele><time>2026-03-29T08:03:04Z</time></trkpt><trkpt lat="44.912787806097874" lon="9.90968065963854"><ele>90.6</ele><time>2026-03-29T08:03:05Z</time></trkpt><trkpt lat="44.912880800254584" lon="9.909670358690732"><ele>91.2</ele><time>2026-03-29T08:03:06Z</time></trkpt><trkpt lat="44.91297504021193" lon="9.909659338250227"><ele>91.80000000000001</ele><time>2026-03-29T08:03:07Z</time></trkpt><trkpt lat="44.91306584218457" lon="9.909649369361178"><ele>92.4</ele><time>2026-03-29T08:03:08Z</time></trkpt><trkpt lat="44.913156253994" lon="9.909636999893044"><ele>93.0</ele><time>2026-03-29T08:03:09Z</time></trkpt><trkpt lat="44.91324923917625" lon="9.90962657821134"><ele>93.0</ele><time>2026-03-29T08:03:10Z</time></trkpt><trkpt lat="44.913341370889874" lon="9.909616373115727"><ele>93.0</ele><time>2026-03-29T08:03:11Z</time></trkpt><trkpt lat="44.9134329189842" lon="9.909606026868307"><ele>93.0</ele><time>2026-03-29T08:03:12Z</time></trkpt><trkpt lat="44.9135223174454" lon="9.909595930841371"><ele>93.0</ele><time>2026-03-29T08:03:13Z</time></trkpt><trkpt lat="44.91361251943763" lon="9.909587544511842"><ele>93.0</ele><time>2026-03-29T08:03:14Z</time></trkpt><trkpt lat="44.91370431111605" lon="9.909579310107565"><ele>92.33333333333333</ele><time>2026-03-29T08:03:15Z</time></trkpt><trkpt lat="44.91379204659951" lon="9.909570374480722"><ele>91.66666666666667</ele><time>2026-03-29T08:03:16Z</time></trkpt><trkpt lat="44.91388041348981" lon="9.909561747698314"><ele>91.0</ele><time>2026-03-29T08:03:17Z</time></trkpt><trkpt lat="44.913969789993764" lon="9.909554590033848"><ele>90.33333333333334</ele><time>2026-03-29T08:03:18Z</time></trkpt><trkpt lat="44.91405798246877" lon="9.90954296879849"><ele>89.66666666666667</ele><time>2026-03-29T08:03:19Z</time></trkpt><trkpt lat="44.91415082231394" lon="9.909529197969098"><ele>89.0</ele><time>2026-03-29T08:03:20Z</time></trkpt><trkpt lat="44.9142416389082" lon="9.909516149530447"><ele>88.83333333333334</ele><time>2026-03-29T08:03:21Z</time></trkpt><trkpt lat="44.91433188350985" lon="9.909513630532297"><ele>88.66666666666667</ele><time>2026-03-29T08:03:22Z</time></trkpt><trkpt lat="44.91441810887019" lon="9.909500312581201"><ele>88.5</ele><time>2026-03-29T08:03:23Z</time></trkpt><trkpt lat="44.91450342836837" lon="9.909486168175496"><ele>88.33333333333333</ele><time>2026-03-29T08:03:24Z</time></trkpt><trkpt lat="44.91458503280905" lon="9.909469011410858"><ele>88.16666666666666</ele><time>2026-03-29T08:03:25Z</time></trkpt><trkpt lat="44.91466719412771" lon="9.909456108341095"><ele>88.0</ele><time>2026-03-29T08:03:26Z</time></trkpt><trkpt lat="44.914746189641384" lon="9.90945405437824"><ele>88.0</ele><time>2026-03-29T08:03:27Z</time></trkpt><trkpt lat="44.91482470380592" lon="9.909443143780173"><ele>88.0</ele><time>2026-03-29T08:03:28Z</time></trkpt><trkpt lat="44.914903005950954" lon="9.909435542068683"><ele>88.0</ele><time>2026-03-29T08:03:29Z</time></trkpt><trkpt lat="44.914981210756046" lon="9.90943194601819"><ele>88.0</ele><time>2026-03-29T08:03:30Z</time></trkpt><trkpt lat="44.915057374767024" lon="9.909434010713131"><ele>88.0</ele><time>2026-03-29T08:03:31Z</time></trkpt><trkpt lat="44.91513025732326" lon="9.909446344594786"><ele>88.0</ele><time>2026-03-29T08:03:32Z</time></trkpt><trkpt lat="44.91520764673614" lon="9.909421616694543"><ele>87.42857142857143</ele><time>2026-03-29T08:03:33Z</time></trkpt><trkpt lat="44.915274454144864" lon="9.909464966336742"><ele>86.85714285714286</ele><time>2026-03-29T08:03:34Z</time></trkpt><trkpt lat="44.9153448166459" lon="9.909486973001151"><ele>86.28571428571428</ele><time>2026-03-29T08:03:35Z</time></trkpt><trkpt lat="44.91541784770193" lon="9.90948623887308"><ele>85.71428571428572</ele><time>2026-03-29T08:03:36Z</time></trkpt><trkpt lat="44.915486372020716" lon="9.909507305928937"><ele>85.14285714285714</ele><time>2026-03-29T08:03:37Z</time></trkpt><trkpt lat="44.91554589530656" lon="9.909580461232443"><ele>84.57142857142857</ele><time>2026-03-29T08:03:38Z</time></trkpt><trkpt lat="44.91561974649667" lon="9.90956410099265"><ele>84.0</ele><time>2026-03-29T08:03:38.999Z</time></trkpt><trkpt lat="44.915677370548444" lon="9.909506190211367"><ele>84.0</ele><time>2026-03-29T08:03:39.999Z</time></trkpt><trkpt lat="44.915760048805865" lon="9.909502199753243"><ele>84.0</ele><time>2026-03-29T08:03:40.999Z</time></trkpt><trkpt lat="44.915832259507695" lon="9.90947925582316"><ele>84.0</ele><time>2026-03-29T08:03:41.999Z</time></trkpt><trkpt lat="44.91589593813636" lon="9.909420722955979"><ele>84.0</ele><time>2026-03-29T08:03:42.999Z</time></trkpt><trkpt lat="44.91596081374262" lon="9.90937800772939"><ele>84.0</ele><time>2026-03-29T08:03:43.999Z</time></trkpt><trkpt lat="44.91602845816755" lon="9.909333832812983"><ele>84.0</ele><time>2026-03-29T08:03:44.999Z</time></trkpt><trkpt lat="44.91612928692002" lon="9.909387101643121"><ele>84.5</ele><time>2026-03-29T08:03:45.999Z</time></trkpt><trkpt lat="44.91620456735163" lon="9.909362320583321"><ele>85.0</ele><time>2026-03-29T08:03:46.999Z</time></trkpt><trkpt lat="44.91627744089284" lon="9.909328495400079"><ele>85.5</ele><time>2026-03-29T08:03:47.999Z</time></trkpt><trkpt lat="44.91634911470333" lon="9.909288446778108"><ele>86.0</ele><time>2026-03-29T08:03:48.999Z</time></trkpt><trkpt lat="44.916421557601254" lon="9.909266735827833"><ele>86.5</ele><time>2026-03-29T08:03:49.999Z</time></trkpt><trkpt lat="44.916500172010075" lon="9.909261764542261"><ele>87.0</ele><time>2026-03-29T08:03:50.999Z</time></trkpt><trkpt lat="44.91657839912143" lon="9.90925167906095"><ele>87.0</ele><time>2026-03-29T08:03:51.999Z</time></trkpt><trkpt lat="44.91665734131893" lon="9.909243856129848"><ele>87.0</ele><time>2026-03-29T08:03:52.999Z</time></trkpt><trkpt lat="44.91673710805553" lon="9.909235630460422"><ele>87.0</ele><time>2026-03-29T08:03:53.999Z</time></trkpt><trkpt lat="44.91681770399096" lon="9.909223721095959"><ele>87.0</ele><time>2026-03-29T08:03:54.999Z</time></trkpt><trkpt lat="44.916896557422774" lon="9.909209976771193"><ele>87.0</ele><time>2026-03-29T08:03:55.999Z</time></trkpt><trkpt lat="44.916975920484646" lon="9.909194134240467"><ele>87.0</ele><time>2026-03-29T08:03:56.999Z</time></trkpt><trkpt lat="44.917054076121936" lon="9.909184045976815"><ele>87.16666666666667</ele><time>2026-03-29T08:03:57.999Z</time></trkpt><trkpt lat="44.91713372034635" lon="9.909177654819384"><ele>87.33333333333333</ele><time>2026-03-29T08:03:58.999Z</time></trkpt><trkpt lat="44.917213796835426" lon="9.909166611392779"><ele>87.5</ele><time>2026-03-29T08:03:59.999Z</time></trkpt><trkpt lat="44.91729422897163" lon="9.909156373149226"><ele>87.66666666666666</ele><time>2026-03-29T08:04:00.999Z</time></trkpt><trkpt lat="44.9173757764759" lon="9.909149473729654"><ele>87.83333333333333</ele><time>2026-03-29T08:04:01.999Z</time></trkpt><trkpt lat="44.9174559744135" lon="9.909142231498851"><ele>88.0</ele><time>2026-03-29T08:04:02.999Z</time></trkpt><trkpt lat="44.91753691611695" lon="9.909139754631205"><ele>87.5</ele><time>2026-03-29T08:04:03.999Z</time></trkpt><trkpt lat="44.91761966955086" lon="9.909139548386277"><ele>87.0</ele><time>2026-03-29T08:04:04.999Z</time></trkpt><trkpt lat="44.91770188304596" lon="9.909140037761688"><ele>86.5</ele><time>2026-03-29T08:04:05.999Z</time></trkpt><trkpt lat="44.9177836186636" lon="9.909144668768409"><ele>86.0</ele><time>2026-03-29T08:04:06.999Z</time></trkpt><trkpt lat="44.91786474312273" lon="9.909148987677185"><ele>85.5</ele><time>2026-03-29T08:04:07.999Z</time></trkpt><trkpt lat="44.917944046390666" lon="9.909151252290195"><ele>85.0</ele><time>2026-03-29T08:04:08.999Z</time></trkpt><trkpt lat="44.918025586668485" lon="9.9091536497998"><ele>85.0</ele><time>2026-03-29T08:04:09.999Z</time></trkpt><trkpt lat="44.91810829406461" lon="9.909154388149858"><ele>85.0</ele><time>2026-03-29T08:04:10.999Z</time></trkpt><trkpt lat="44.918190430079775" lon="9.90915967608"><ele>85.0</ele><time>2026-03-29T08:04:11.999Z</time></trkpt><trkpt lat="44.918272367259206" lon="9.909160608462825"><ele>85.0</ele><time>2026-03-29T08:04:12.999Z</time></trkpt><trkpt lat="44.91835469818686" lon="9.909167775539236"><ele>85.0</ele><time>2026-03-29T08:04:13.999Z</time></trkpt><trkpt lat="44.918436867964495" lon="9.909178810446225"><ele>85.0</ele><time>2026-03-29T08:04:14.999Z</time></trkpt><trkpt lat="44.9185183854729" lon="9.909189900729645"><ele>85.16666666666666</ele><time>2026-03-29T08:04:15.999Z</time></trkpt><trkpt lat="44.91859747342495" lon="9.909194581694956"><ele>85.33333333333333</ele><time>2026-03-29T08:04:16.999Z</time></trkpt><trkpt lat="44.91867728413239" lon="9.90919118162905"><ele>85.5</ele><time>2026-03-29T08:04:17.999Z</time></trkpt><trkpt lat="44.91875691684057" lon="9.90918449898222"><ele>85.66666666666667</ele><time>2026-03-29T08:04:18.999Z</time></trkpt><trkpt lat="44.918836214906904" lon="9.90917676445782"><ele>85.83333333333334</ele><time>2026-03-29T08:04:19.999Z</time></trkpt><trkpt lat="44.91891690186223" lon="9.909169297452012"><ele>86.0</ele><time>2026-03-29T08:04:20.999Z</time></trkpt><trkpt lat="44.918996280660714" lon="9.9091613749291"><ele>86.0</ele><time>2026-03-29T08:04:21.999Z</time></trkpt><trkpt lat="44.91907775811924" lon="9.909150673472032"><ele>86.0</ele><time>2026-03-29T08:04:22.999Z</time></trkpt><trkpt lat="44.919158048947104" lon="9.909138984400776"><ele>86.0</ele><time>2026-03-29T08:04:23.999Z</time></trkpt><trkpt lat="44.91923790277467" lon="9.909125512152476"><ele>86.0</ele><time>2026-03-29T08:04:24.999Z</time></trkpt><trkpt lat="44.91931920780839" lon="9.909113870134627"><ele>86.0</ele><time>2026-03-29T08:04:25.999Z</time></trkpt><trkpt lat="44.91940185728995" lon="9.909101863623084"><ele>86.0</ele><time>2026-03-29T08:04:26.999Z</time></trkpt><trkpt lat="44.91948275917252" lon="9.909091869934086"><ele>86.0</ele><time>2026-03-29T08:04:27.999Z</time></trkpt><trkpt lat="44.91956516614951" lon="9.909073706079438"><ele>86.0</ele><time>2026-03-29T08:04:28.999Z</time></trkpt><trkpt lat="44.91964374295966" lon="9.909057319328895"><ele>86.0</ele><time>2026-03-29T08:04:29.999Z</time></trkpt><trkpt lat="44.919724423744654" lon="9.909041640532559"><ele>86.0</ele><time>2026-03-29T08:04:30.998Z</time></trkpt><trkpt lat="44.91980507520655" lon="9.909026414077578"><ele>86.0</ele><time>2026-03-29T08:04:31.998Z</time></trkpt><trkpt lat="44.91988346788074" lon="9.909015362137879"><ele>86.0</ele><time>2026-03-29T08:04:32.998Z</time></trkpt><trkpt lat="44.91996327404802" lon="9.909005263120953"><ele>86.0</ele><time>2026-03-29T08:04:33.998Z</time></trkpt><trkpt lat="44.92004456807045" lon="9.908991558596764"><ele>86.0</ele><time>2026-03-29T08:04:34.998Z</time></trkpt><trkpt lat="44.92012630241693" lon="9.908978196720883"><ele>86.0</ele><time>2026-03-29T08:04:35.998Z</time></trkpt><trkpt lat="44.920208426862295" lon="9.908964011955186"><ele>86.0</ele><time>2026-03-29T08:04:36.998Z</time></trkpt><trkpt lat="44.92028880133481" lon="9.908953346179004"><ele>86.0</ele><time>2026-03-29T08:04:37.998Z</time></trkpt><trkpt lat="44.9203717526942" lon="9.908942024522297"><ele>86.0</ele><time>2026-03-29T08:04:38.998Z</time></trkpt><trkpt lat="44.92045401482704" lon="9.908937599603536"><ele>86.0</ele><time>2026-03-29T08:04:39.998Z</time></trkpt><trkpt lat="44.920536233854726" lon="9.908939555099629"><ele>86.0</ele><time>2026-03-29T08:04:40.998Z</time></trkpt><trkpt lat="44.92061862284664" lon="9.908951116219649"><ele>86.0</ele><time>2026-03-29T08:04:41.998Z</time></trkpt><trkpt lat="44.92070066767811" lon="9.908966374449017"><ele>86.0</ele><time>2026-03-29T08:04:42.998Z</time></trkpt><trkpt lat="44.920781424943485" lon="9.908990177486965"><ele>86.0</ele><time>2026-03-29T08:04:43.998Z</time></trkpt><trkpt lat="44.92086126479491" lon="9.909016918236135"><ele>86.0</ele><time>2026-03-29T08:04:44.998Z</time></trkpt><trkpt lat="44.920940875975504" lon="9.909051853726154"><ele>86.16666666666667</ele><time>2026-03-29T08:04:46Z</time></trkpt><trkpt lat="44.921020198732435" lon="9.909085803556358"><ele>86.33333333333334</ele><time>2026-03-29T08:04:47Z</time></trkpt><trkpt lat="44.9210986626143" lon="9.909118876222797"><ele>86.5</ele><time>2026-03-29T08:04:48Z</time></trkpt><trkpt lat="44.92117816527439" lon="9.909155204129613"><ele>86.66666666666667</ele><time>2026-03-29T08:04:49Z</time></trkpt><trkpt lat="44.9212577945912" lon="9.909195984741535"><ele>86.83333333333333</ele><time>2026-03-29T08:04:50Z</time></trkpt><trkpt lat="44.921337294237276" lon="9.909232641244037"><ele>87.0</ele><time>2026-03-29T08:04:51Z</time></trkpt><trkpt lat="44.921416597804445" lon="9.909268596989364"><ele>86.5</ele><time>2026-03-29T08:04:52Z</time></trkpt><trkpt lat="44.92149752573887" lon="9.909306090788172"><ele>86.0</ele><time>2026-03-29T08:04:53Z</time></trkpt><trkpt lat="44.92157472647215" lon="9.909346299009858"><ele>85.5</ele><time>2026-03-29T08:04:54Z</time></trkpt><trkpt lat="44.921650681109774" lon="9.909381799602556"><ele>85.0</ele><time>2026-03-29T08:04:55Z</time></trkpt><trkpt lat="44.921727736405934" lon="9.909417020106481"><ele>84.5</ele><time>2026-03-29T08:04:56Z</time></trkpt><trkpt lat="44.9218023346518" lon="9.909451871327269"><ele>84.0</ele><time>2026-03-29T08:04:57Z</time></trkpt><trkpt lat="44.92187712283051" lon="9.909490010455816"><ele>84.0</ele><time>2026-03-29T08:04:58Z</time></trkpt><trkpt lat="44.9219522973044" lon="9.909525709290753"><ele>84.0</ele><time>2026-03-29T08:04:59Z</time></trkpt><trkpt lat="44.9220207505254" lon="9.909567796641426"><ele>84.0</ele><time>2026-03-29T08:05:00Z</time></trkpt><trkpt lat="44.92208673824605" lon="9.909601311045874"><ele>84.0</ele><time>2026-03-29T08:05:01Z</time></trkpt><trkpt lat="44.922158149766666" lon="9.909629476632253"><ele>84.0</ele><time>2026-03-29T08:05:02Z</time></trkpt><trkpt lat="44.92222670324733" lon="9.909657534795581"><ele>84.0</ele><time>2026-03-29T08:05:03Z</time></trkpt><trkpt lat="44.92229078502665" lon="9.909695283888944"><ele>84.0</ele><time>2026-03-29T08:05:04Z</time></trkpt><trkpt lat="44.922348414732845" lon="9.909740094751806"><ele>84.0</ele><time>2026-03-29T08:05:05Z</time></trkpt><trkpt lat="44.92240505960946" lon="9.909800304823994"><ele>84.0</ele><time>2026-03-29T08:05:06Z</time></trkpt><trkpt lat="44.922474164023" lon="9.909831397398525"><ele>84.0</ele><time>2026-03-29T08:05:07Z</time></trkpt><trkpt lat="44.922548987224936" lon="9.909832793799856"><ele>84.0</ele><time>2026-03-29T08:05:08Z</time></trkpt><trkpt lat="44.922621607593086" lon="9.909833876643734"><ele>84.0</ele><time>2026-03-29T08:05:09Z</time></trkpt><trkpt lat="44.92268818068735" lon="9.909857960023675"><ele>84.0</ele><time>2026-03-29T08:05:10Z</time></trkpt><trkpt lat="44.92275491216674" lon="9.909896006122175"><ele>84.0</ele><time>2026-03-29T08:05:11Z</time></trkpt><trkpt lat="44.92282160844739" lon="9.90993640811658"><ele>84.0</ele><time>2026-03-29T08:05:12Z</time></trkpt><trkpt lat="44.922893611610675" lon="9.90997220804605"><ele>84.0</ele><time>2026-03-29T08:05:13Z</time></trkpt><trkpt lat="44.92296510380378" lon="9.910006949185895"><ele>84.0</ele><time>2026-03-29T08:05:14Z</time></trkpt><trkpt lat="44.923038720905346" lon="9.910041392139464"><ele>84.0</ele><time>2026-03-29T08:05:15Z</time></trkpt><trkpt lat="44.92311123016454" lon="9.910078966103878"><ele>84.0</ele><time>2026-03-29T08:05:16Z</time></trkpt><trkpt lat="44.92318471309486" lon="9.9101123421344"><ele>84.0</ele><time>2026-03-29T08:05:17Z</time></trkpt><trkpt lat="44.92325961860697" lon="9.910147280824901"><ele>84.0</ele><time>2026-03-29T08:05:18Z</time></trkpt><trkpt lat="44.92333513161812" lon="9.910177215666703"><ele>84.0</ele><time>2026-03-29T08:05:19Z</time></trkpt><trkpt lat="44.92340739918606" lon="9.910211511028928"><ele>84.0</ele><time>2026-03-29T08:05:20Z</time></trkpt><trkpt lat="44.92348390426787" lon="9.910241457304748"><ele>84.0</ele><time>2026-03-29T08:05:21Z</time></trkpt><trkpt lat="44.923560109547196" lon="9.910278007548644"><ele>84.0</ele><time>2026-03-29T08:05:22Z</time></trkpt><trkpt lat="44.92363585293944" lon="9.910312352885235"><ele>84.0</ele><time>2026-03-29T08:05:23Z</time></trkpt><trkpt lat="44.923711715868535" lon="9.910347424942215"><ele>84.16666666666667</ele><time>2026-03-29T08:05:24Z</time></trkpt><trkpt lat="44.92378744534065" lon="9.91037854679389"><ele>84.33333333333333</ele><time>2026-03-29T08:05:25Z</time></trkpt><trkpt lat="44.923860602762716" lon="9.910415784584481"><ele>84.5</ele><time>2026-03-29T08:05:26Z</time></trkpt><trkpt lat="44.92393443364026" lon="9.91045738769361"><ele>84.66666666666666</ele><time>2026-03-29T08:05:27Z</time></trkpt><trkpt lat="44.924003164796126" lon="9.910491095587682"><ele>84.83333333333333</ele><time>2026-03-29T08:05:28Z</time></trkpt><trkpt lat="44.92407228554009" lon="9.910522014623947"><ele>85.0</ele><time>2026-03-29T08:05:29Z</time></trkpt><trkpt lat="44.924139674654874" lon="9.910552576637702"><ele>85.0</ele><time>2026-03-29T08:05:30Z</time></trkpt><trkpt lat="44.92420717472533" lon="9.910583628565183"><ele>85.0</ele><time>2026-03-29T08:05:31Z</time></trkpt><trkpt lat="44.9242709713024" lon="9.910619154671853"><ele>85.0</ele><time>2026-03-29T08:05:32Z</time></trkpt><trkpt lat="44.924347832114286" lon="9.910631741899515"><ele>85.0</ele><time>2026-03-29T08:05:33Z</time></trkpt><trkpt lat="44.92443139170628" lon="9.910658260208177"><ele>85.0</ele><time>2026-03-29T08:05:34Z</time></trkpt><trkpt lat="44.92448418942269" lon="9.91070860094856"><ele>85.0</ele><time>2026-03-29T08:05:35Z</time></trkpt><trkpt lat="44.924547277319306" lon="9.910741213596415"><ele>85.0</ele><time>2026-03-29T08:05:36Z</time></trkpt><trkpt lat="44.924621378530915" lon="9.910765597426092"><ele>85.0</ele><time>2026-03-29T08:05:37Z</time></trkpt><trkpt lat="44.92468734183982" lon="9.91079651492816"><ele>85.0</ele><time>2026-03-29T08:05:38Z</time></trkpt><trkpt lat="44.924756669554" lon="9.910837896731703"><ele>85.0</ele><time>2026-03-29T08:05:39Z</time></trkpt><trkpt lat="44.92481797317772" lon="9.910876498152847"><ele>85.0</ele><time>2026-03-29T08:05:40Z</time></trkpt><trkpt lat="44.924883012326966" lon="9.910899162426555"><ele>85.0</ele><time>2026-03-29T08:05:41Z</time></trkpt><trkpt lat="44.924949236666436" lon="9.910925956020368"><ele>85.0</ele><time>2026-03-29T08:05:42Z</time></trkpt><trkpt lat="44.92501986987889" lon="9.910945148123952"><ele>85.0</ele><time>2026-03-29T08:05:42.999Z</time></trkpt><trkpt lat="44.92508421394677" lon="9.91098332748384"><ele>84.71428571428572</ele><time>2026-03-29T08:05:43.999Z</time></trkpt><trkpt lat="44.92514842081391" lon="9.911011767221751"><ele>84.42857142857142</ele><time>2026-03-29T08:05:44.999Z</time></trkpt><trkpt lat="44.925212525290085" lon="9.911043994097135"><ele>84.14285714285714</ele><time>2026-03-29T08:05:45.999Z</time></trkpt><trkpt lat="44.92528027394542" lon="9.911073815385409"><ele>83.85714285714286</ele><time>2026-03-29T08:05:46.999Z</time></trkpt><trkpt lat="44.92534227723456" lon="9.911109415461581"><ele>83.57142857142858</ele><time>2026-03-29T08:05:47.999Z</time></trkpt><trkpt lat="44.92540502585007" lon="9.911142886286143"><ele>83.28571428571428</ele><time>2026-03-29T08:05:48.999Z</time></trkpt><trkpt lat="44.92546427322113" lon="9.911173536853406"><ele>83.0</ele><time>2026-03-29T08:05:49.999Z</time></trkpt><trkpt lat="44.92556269866482" lon="9.911241446633914"><ele>83.0</ele><time>2026-03-29T08:05:51.999Z</time></trkpt><trkpt lat="44.92562273715488" lon="9.911347277644172"><ele>83.0</ele><time>2026-03-29T08:05:53.999Z</time></trkpt><trkpt lat="44.925700667426824" lon="9.91144641329641"><ele>83.0</ele><time>2026-03-29T08:05:55.999Z</time></trkpt><trkpt lat="44.92581064205705" lon="9.911399406370295"><ele>83.0</ele><time>2026-03-29T08:05:57.999Z</time></trkpt><trkpt lat="44.925847977047944" lon="9.911320035219545"><ele>83.0</ele><time>2026-03-29T08:05:58.999Z</time></trkpt><trkpt lat="44.92591802971813" lon="9.911180298978666"><ele>83.14285714285714</ele><time>2026-03-29T08:06:00.999Z</time></trkpt><trkpt lat="44.925991908131195" lon="9.911043918342685"><ele>83.28571428571429</ele><time>2026-03-29T08:06:02.999Z</time></trkpt><trkpt lat="44.92602758548212" lon="9.910966702274882"><ele>83.42857142857143</ele><time>2026-03-29T08:06:03.999Z</time></trkpt><trkpt lat="44.9260634352686" lon="9.910889142758727"><ele>83.57142857142857</ele><time>2026-03-29T08:06:04.999Z</time></trkpt><trkpt lat="44.92609795685317" lon="9.910811926205767"><ele>83.71428571428572</ele><time>2026-03-29T08:06:05.999Z</time></trkpt><trkpt lat="44.926135200198644" lon="9.910733170592342"><ele>83.85714285714286</ele><time>2026-03-29T08:06:06.999Z</time></trkpt><trkpt lat="44.92617309701741" lon="9.910658523590334"><ele>84.0</ele><time>2026-03-29T08:06:07.999Z</time></trkpt><trkpt lat="44.92621272082687" lon="9.910582044006011"><ele>84.0</ele><time>2026-03-29T08:06:08.999Z</time></trkpt><trkpt lat="44.92625103898073" lon="9.910508955609648"><ele>84.0</ele><time>2026-03-29T08:06:09.999Z</time></trkpt><trkpt lat="44.92629379423466" lon="9.910428825431906"><ele>84.0</ele><time>2026-03-29T08:06:10.999Z</time></trkpt><trkpt lat="44.926334413649194" lon="9.910347435010227"><ele>84.0</ele><time>2026-03-29T08:06:11.999Z</time></trkpt><trkpt lat="44.92637570571049" lon="9.910266384115799"><ele>84.0</ele><time>2026-03-29T08:06:12.999Z</time></trkpt><trkpt lat="44.92641916506228" lon="9.910182235486221"><ele>84.0</ele><time>2026-03-29T08:06:13.999Z</time></trkpt><trkpt lat="44.92646191316028" lon="9.910093477628225"><ele>84.0</ele><time>2026-03-29T08:06:14.999Z</time></trkpt><trkpt lat="44.92650632499408" lon="9.910012501580564"><ele>83.83333333333333</ele><time>2026-03-29T08:06:15.999Z</time></trkpt><trkpt lat="44.92654830605511" lon="9.909927942831079"><ele>83.66666666666667</ele><time>2026-03-29T08:06:16.999Z</time></trkpt><trkpt lat="44.926594258610095" lon="9.909844023088667"><ele>83.5</ele><time>2026-03-29T08:06:17.999Z</time></trkpt><trkpt lat="44.92663888242423" lon="9.909764710724371"><ele>83.33333333333334</ele><time>2026-03-29T08:06:18.999Z</time></trkpt><trkpt lat="44.926685920584106" lon="9.909679130996544"><ele>83.16666666666667</ele><time>2026-03-29T08:06:19.999Z</time></trkpt><trkpt lat="44.92673109886108" lon="9.909587638058719"><ele>83.0</ele><time>2026-03-29T08:06:20.999Z</time></trkpt><trkpt lat="44.926774592310665" lon="9.909501687330005"><ele>83.16666666666667</ele><time>2026-03-29T08:06:21.999Z</time></trkpt><trkpt lat="44.92681934179276" lon="9.909416629716011"><ele>83.33333333333334</ele><time>2026-03-29T08:06:22.999Z</time></trkpt><trkpt lat="44.92686527422418" lon="9.909327613115257"><ele>83.5</ele><time>2026-03-29T08:06:23.999Z</time></trkpt><trkpt lat="44.92691161498824" lon="9.909239043968318"><ele>83.66666666666667</ele><time>2026-03-29T08:06:24.999Z</time></trkpt><trkpt lat="44.92695446605956" lon="9.909149021306343"><ele>83.83333333333333</ele><time>2026-03-29T08:06:25.999Z</time></trkpt><trkpt lat="44.927002361043684" lon="9.909058904756519"><ele>84.0</ele><time>2026-03-29T08:06:26.999Z</time></trkpt><trkpt lat="44.927048969687576" lon="9.908971500718659"><ele>84.0</ele><time>2026-03-29T08:06:27.999Z</time></trkpt><trkpt lat="44.927090068395046" lon="9.90888470050278"><ele>84.0</ele><time>2026-03-29T08:06:28.999Z</time></trkpt><trkpt lat="44.92713882910746" lon="9.908792567034887"><ele>84.0</ele><time>2026-03-29T08:06:29.999Z</time></trkpt><trkpt lat="44.92718594665368" lon="9.908703700820514"><ele>84.0</ele><time>2026-03-29T08:06:30.999Z</time></trkpt><trkpt lat="44.92723654577772" lon="9.908618823250963"><ele>84.0</ele><time>2026-03-29T08:06:31.999Z</time></trkpt><trkpt lat="44.92728798236126" lon="9.90853060213755"><ele>84.0</ele><time>2026-03-29T08:06:32.999Z</time></trkpt><trkpt lat="44.927334301891285" lon="9.908444220146237"><ele>84.0</ele><time>2026-03-29T08:06:33.999Z</time></trkpt><trkpt lat="44.927380813195185" lon="9.908354796048746"><ele>84.0</ele><time>2026-03-29T08:06:34.998Z</time></trkpt><trkpt lat="44.927428919168754" lon="9.908270339223762"><ele>84.0</ele><time>2026-03-29T08:06:35.998Z</time></trkpt><trkpt lat="44.927473231464944" lon="9.908179493257704"><ele>84.0</ele><time>2026-03-29T08:06:36.998Z</time></trkpt><trkpt lat="44.927517294078555" lon="9.90809406544044"><ele>84.0</ele><time>2026-03-29T08:06:37.998Z</time></trkpt><trkpt lat="44.927562017353964" lon="9.908005405896645"><ele>84.0</ele><time>2026-03-29T08:06:38.998Z</time></trkpt><trkpt lat="44.92760795058153" lon="9.90792212112756"><ele>83.83333333333333</ele><time>2026-03-29T08:06:39.998Z</time></trkpt><trkpt lat="44.92765780647103" lon="9.907837022377059"><ele>83.66666666666667</ele><time>2026-03-29T08:06:40.998Z</time></trkpt><trkpt lat="44.92769950382509" lon="9.907749931497097"><ele>83.5</ele><time>2026-03-29T08:06:41.998Z</time></trkpt><trkpt lat="44.92774729933172" lon="9.907665259052253"><ele>83.33333333333334</ele><time>2026-03-29T08:06:42.998Z</time></trkpt><trkpt lat="44.92779264416373" lon="9.90757847836892"><ele>83.16666666666667</ele><time>2026-03-29T08:06:43.998Z</time></trkpt><trkpt lat="44.927838591142454" lon="9.907492290691364"><ele>83.0</ele><time>2026-03-29T08:06:44.998Z</time></trkpt><trkpt lat="44.92788502965776" lon="9.907408555972077"><ele>83.28571428571428</ele><time>2026-03-29T08:06:45.998Z</time></trkpt><trkpt lat="44.927931429989194" lon="9.907322544683183"><ele>83.57142857142858</ele><time>2026-03-29T08:06:46.998Z</time></trkpt><trkpt lat="44.92797423307203" lon="9.907242057803927"><ele>83.85714285714286</ele><time>2026-03-29T08:06:47.998Z</time></trkpt><trkpt lat="44.92801693294265" lon="9.907161224248874"><ele>84.14285714285714</ele><time>2026-03-29T08:06:48.998Z</time></trkpt><trkpt lat="44.92805521962705" lon="9.907079630107763"><ele>84.42857142857142</ele><time>2026-03-29T08:06:49.998Z</time></trkpt><trkpt lat="44.92809772779596" lon="9.907000154688452"><ele>84.71428571428572</ele><time>2026-03-29T08:06:50.998Z</time></trkpt><trkpt lat="44.92814097564651" lon="9.906922508587762"><ele>85.0</ele><time>2026-03-29T08:06:52Z</time></trkpt><trkpt lat="44.92818154152534" lon="9.906839910613753"><ele>85.0</ele><time>2026-03-29T08:06:53Z</time></trkpt><trkpt lat="44.92822263552798" lon="9.906765775818968"><ele>85.0</ele><time>2026-03-29T08:06:54Z</time></trkpt><trkpt lat="44.92826495395078" lon="9.90668858170537"><ele>85.0</ele><time>2026-03-29T08:06:55Z</time></trkpt><trkpt lat="44.928305513969725" lon="9.906618630469783"><ele>85.0</ele><time>2026-03-29T08:06:56Z</time></trkpt><trkpt lat="44.92840993046144" lon="9.906513447608733"><ele>85.0</ele><time>2026-03-29T08:06:58Z</time></trkpt><trkpt lat="44.928469747690066" lon="9.90647764024368"><ele>85.0</ele><time>2026-03-29T08:06:59Z</time></trkpt><trkpt lat="44.9285350094819" lon="9.906458008574546"><ele>84.33333333333333</ele><time>2026-03-29T08:07:00Z</time></trkpt><trkpt lat="44.9285979403386" lon="9.906454072728737"><ele>83.66666666666666</ele><time>2026-03-29T08:07:01Z</time></trkpt><trkpt lat="44.92872512678708" lon="9.906495690153909"><ele>83.0</ele><time>2026-03-29T08:07:03Z</time></trkpt><trkpt lat="44.928787349784535" lon="9.906528550889112"><ele>82.33333333333333</ele><time>2026-03-29T08:07:04Z</time></trkpt><trkpt lat="44.928849467225106" lon="9.906563434978418"><ele>81.66666666666667</ele><time>2026-03-29T08:07:05Z</time></trkpt><trkpt lat="44.92890507266962" lon="9.906611312596409"><ele>81.0</ele><time>2026-03-29T08:07:06Z</time></trkpt><trkpt lat="44.928959098281744" lon="9.906671376682299"><ele>81.16666666666667</ele><time>2026-03-29T08:07:07Z</time></trkpt><trkpt lat="44.929075129496695" lon="9.90677659422768"><ele>81.33333333333333</ele><time>2026-03-29T08:07:09Z</time></trkpt><trkpt lat="44.92913166446991" lon="9.906840116482769"><ele>81.5</ele><time>2026-03-29T08:07:10Z</time></trkpt><trkpt lat="44.92919114624303" lon="9.90690136227316"><ele>81.66666666666666</ele><time>2026-03-29T08:07:11Z</time></trkpt><trkpt lat="44.92925220920295" lon="9.906958243418632"><ele>81.83333333333333</ele><time>2026-03-29T08:07:12Z</time></trkpt><trkpt lat="44.92931108761372" lon="9.90701991223927"><ele>82.0</ele><time>2026-03-29T08:07:13Z</time></trkpt><trkpt lat="44.92936807965529" lon="9.907081781733563"><ele>81.99999999999999</ele><time>2026-03-29T08:07:14Z</time></trkpt><trkpt lat="44.92942466536938" lon="9.907133876977017"><ele>82.0</ele><time>2026-03-29T08:07:15Z</time></trkpt><trkpt lat="44.929481888949404" lon="9.907189201175395"><ele>82.0</ele><time>2026-03-29T08:07:16Z</time></trkpt><trkpt lat="44.92953818520793" lon="9.907236250050065"><ele>82.0</ele><time>2026-03-29T08:07:17Z</time></trkpt><trkpt lat="44.92958998723644" lon="9.907292540461299"><ele>82.0</ele><time>2026-03-29T08:07:18Z</time></trkpt><trkpt lat="44.92965178695041" lon="9.907353348748241"><ele>81.99999999999999</ele><time>2026-03-29T08:07:19Z</time></trkpt><trkpt lat="44.9297178300227" lon="9.90740724267885"><ele>82.0</ele><time>2026-03-29T08:07:20Z</time></trkpt><trkpt lat="44.9297765346013" lon="9.907458217958029"><ele>82.0</ele><time>2026-03-29T08:07:21Z</time></trkpt><trkpt lat="44.92983077119914" lon="9.907523408651155"><ele>82.0</ele><time>2026-03-29T08:07:22Z</time></trkpt><trkpt lat="44.92988873430018" lon="9.90757766214168"><ele>82.0</ele><time>2026-03-29T08:07:23Z</time></trkpt><trkpt lat="44.92994364690086" lon="9.907633305664067"><ele>82.0</ele><time>2026-03-29T08:07:24Z</time></trkpt><trkpt lat="44.92999487846546" lon="9.907686507272455"><ele>82.0</ele><time>2026-03-29T08:07:25Z</time></trkpt><trkpt lat="44.930096635982146" lon="9.907779061736324"><ele>82.0</ele><time>2026-03-29T08:07:27Z</time></trkpt><trkpt lat="44.93018592069721" lon="9.907873465843005"><ele>82.0</ele><time>2026-03-29T08:07:29Z</time></trkpt><trkpt lat="44.930271251969096" lon="9.90791988183757"><ele>82.0</ele><time>2026-03-29T08:07:31Z</time></trkpt><trkpt lat="44.93034901266318" lon="9.907962417507955"><ele>82.0</ele><time>2026-03-29T08:07:34Z</time></trkpt><trkpt lat="44.93044727418807" lon="9.907985593262143"><ele>82.0</ele><time>2026-03-29T08:07:37Z</time></trkpt><trkpt lat="44.93052617603324" lon="9.907976613530359"><ele>82.0</ele><time>2026-03-29T08:07:39Z</time></trkpt><trkpt lat="44.93061314553166" lon="9.907962314050122"><ele>82.0</ele><time>2026-03-29T08:07:41Z</time></trkpt><trkpt lat="44.9307020145394" lon="9.907911333531635"><ele>82.0</ele><time>2026-03-29T08:07:43Z</time></trkpt><trkpt lat="44.93077991834634" lon="9.907852659205302"><ele>82.0</ele><time>2026-03-29T08:07:44Z</time></trkpt><trkpt lat="44.93081236441039" lon="9.908004556205904"><ele>82.0</ele><time>2026-03-29T08:07:45Z</time></trkpt><trkpt lat="44.93085705496705" lon="9.908145573106797"><ele>82.0</ele><time>2026-03-29T08:07:46.999Z</time></trkpt><trkpt lat="44.93088340310994" lon="9.90822688648267"><ele>82.0</ele><time>2026-03-29T08:07:47.999Z</time></trkpt><trkpt lat="44.93094377151427" lon="9.908384109158614"><ele>81.66666666666666</ele><time>2026-03-29T08:07:49.999Z</time></trkpt><trkpt lat="44.93097135814754" lon="9.908465119698464"><ele>81.33333333333333</ele><time>2026-03-29T08:07:50.999Z</time></trkpt><trkpt lat="44.93100003026718" lon="9.908636434852749"><ele>81.0</ele><time>2026-03-29T08:07:52.999Z</time></trkpt><trkpt lat="44.93100298042235" lon="9.908730419645634"><ele>80.66666666666667</ele><time>2026-03-29T08:07:53.999Z</time></trkpt><trkpt lat="44.93100357460595" lon="9.908822747362343"><ele>80.33333333333334</ele><time>2026-03-29T08:07:54.999Z</time></trkpt><trkpt lat="44.93099489863624" lon="9.908917086066952"><ele>80.0</ele><time>2026-03-29T08:07:55.999Z</time></trkpt><trkpt lat="44.93097845044" lon="9.90900670050813"><ele>80.0</ele><time>2026-03-29T08:07:56.999Z</time></trkpt><trkpt lat="44.93095225187098" lon="9.909093158998312"><ele>80.0</ele><time>2026-03-29T08:07:57.999Z</time></trkpt><trkpt lat="44.93091837467186" lon="9.909169716845652"><ele>80.0</ele><time>2026-03-29T08:07:58.999Z</time></trkpt><trkpt lat="44.93088225475587" lon="9.909246078370588"><ele>80.0</ele><time>2026-03-29T08:07:59.999Z</time></trkpt><trkpt lat="44.930849382860764" lon="9.909322234465067"><ele>80.0</ele><time>2026-03-29T08:08:00.999Z</time></trkpt><trkpt lat="44.93078705859518" lon="9.909465222702764"><ele>80.0</ele><time>2026-03-29T08:08:02.999Z</time></trkpt><trkpt lat="44.93071869405368" lon="9.909598872870507"><ele>80.25</ele><time>2026-03-29T08:08:04.999Z</time></trkpt><trkpt lat="44.93065774634559" lon="9.909738484971223"><ele>80.5</ele><time>2026-03-29T08:08:06.999Z</time></trkpt><trkpt lat="44.930583968231836" lon="9.909867082266107"><ele>80.75</ele><time>2026-03-29T08:08:08.999Z</time></trkpt><trkpt lat="44.93050359121006" lon="9.909993830118049"><ele>81.0</ele><time>2026-03-29T08:08:10.999Z</time></trkpt><trkpt lat="44.93044031098386" lon="9.910136207663403"><ele>81.0</ele><time>2026-03-29T08:08:12.999Z</time></trkpt><trkpt lat="44.9303682860842" lon="9.91026442243658"><ele>81.0</ele><time>2026-03-29T08:08:14.999Z</time></trkpt><trkpt lat="44.93029102552039" lon="9.910402003986752"><ele>81.0</ele><time>2026-03-29T08:08:16.999Z</time></trkpt><trkpt lat="44.930205209820166" lon="9.910523312206326"><ele>81.0</ele><time>2026-03-29T08:08:18.999Z</time></trkpt><trkpt lat="44.93015056346172" lon="9.91066647666139"><ele>81.0</ele><time>2026-03-29T08:08:20.999Z</time></trkpt><trkpt lat="44.93009034478197" lon="9.910813581509297"><ele>81.0</ele><time>2026-03-29T08:08:22.999Z</time></trkpt><trkpt lat="44.93001057716137" lon="9.91094271721041"><ele>81.0</ele><time>2026-03-29T08:08:24.999Z</time></trkpt><trkpt lat="44.929940228283066" lon="9.911078438290069"><ele>81.0</ele><time>2026-03-29T08:08:26.999Z</time></trkpt><trkpt lat="44.92987219787635" lon="9.911204969220469"><ele>80.75</ele><time>2026-03-29T08:08:28.999Z</time></trkpt><trkpt lat="44.92981715813103" lon="9.911327497653602"><ele>80.5</ele><time>2026-03-29T08:08:30.999Z</time></trkpt><trkpt lat="44.92992760541966" lon="9.911499467699814"><ele>80.25</ele><time>2026-03-29T08:08:33.999Z</time></trkpt><trkpt lat="44.93002992372332" lon="9.911597178096821"><ele>80.0</ele><time>2026-03-29T08:08:35.999Z</time></trkpt><trkpt lat="44.93008067520193" lon="9.911661753781686"><ele>79.85714285714286</ele><time>2026-03-29T08:08:36.999Z</time></trkpt><trkpt lat="44.930129507209315" lon="9.911727560826018"><ele>79.71428571428572</ele><time>2026-03-29T08:08:37.999Z</time></trkpt><trkpt lat="44.930179359073534" lon="9.911787586661903"><ele>79.57142857142858</ele><time>2026-03-29T08:08:38.999Z</time></trkpt><trkpt lat="44.930236095455804" lon="9.911858537038759"><ele>79.42857142857143</ele><time>2026-03-29T08:08:39.998Z</time></trkpt><trkpt lat="44.93029411570473" lon="9.911927361616424"><ele>79.28571428571429</ele><time>2026-03-29T08:08:40.998Z</time></trkpt><trkpt lat="44.930349919383076" lon="9.91199632967676"><ele>79.14285714285715</ele><time>2026-03-29T08:08:41.998Z</time></trkpt><trkpt lat="44.930409308680346" lon="9.912060446887464"><ele>79.0</ele><time>2026-03-29T08:08:42.998Z</time></trkpt><trkpt lat="44.93046610628779" lon="9.912139031335961"><ele>78.5</ele><time>2026-03-29T08:08:43.998Z</time></trkpt><trkpt lat="44.930533382213504" lon="9.9122038681009"><ele>78.0</ele><time>2026-03-29T08:08:44.998Z</time></trkpt><trkpt lat="44.93058624536932" lon="9.9122914457727"><ele>77.5</ele><time>2026-03-29T08:08:45.998Z</time></trkpt><trkpt lat="44.930644449761296" lon="9.912365767777205"><ele>77.0</ele><time>2026-03-29T08:08:46.998Z</time></trkpt><trkpt lat="44.9307051239131" lon="9.912445700810695"><ele>76.5</ele><time>2026-03-29T08:08:47.998Z</time></trkpt><trkpt lat="44.93076297252295" lon="9.912523375980076"><ele>76.0</ele><time>2026-03-29T08:08:48.998Z</time></trkpt><trkpt lat="44.930820961712136" lon="9.912603776034846"><ele>76.0</ele><time>2026-03-29T08:08:49.998Z</time></trkpt><trkpt lat="44.93089261588906" lon="9.912666549897521"><ele>76.0</ele><time>2026-03-29T08:08:50.998Z</time></trkpt><trkpt lat="44.93096258398699" lon="9.912727796486308"><ele>76.0</ele><time>2026-03-29T08:08:51.998Z</time></trkpt><trkpt lat="44.931026007127244" lon="9.912818977800855"><ele>76.0</ele><time>2026-03-29T08:08:52.998Z</time></trkpt><trkpt lat="44.93109063133832" lon="9.91290256067092"><ele>76.0</ele><time>2026-03-29T08:08:53.998Z</time></trkpt><trkpt lat="44.93114003808263" lon="9.912998593419534"><ele>76.0</ele><time>2026-03-29T08:08:54.998Z</time></trkpt><trkpt lat="44.931199588657854" lon="9.913077683507392"><ele>76.0</ele><time>2026-03-29T08:08:55.998Z</time></trkpt><trkpt lat="44.931258805954016" lon="9.913153519498923"><ele>76.0</ele><time>2026-03-29T08:08:56.998Z</time></trkpt><trkpt lat="44.931313114135904" lon="9.913214163476928"><ele>76.0</ele><time>2026-03-29T08:08:58Z</time></trkpt><trkpt lat="44.931363950725704" lon="9.913279828978304"><ele>76.0</ele><time>2026-03-29T08:08:59Z</time></trkpt><trkpt lat="44.93141271471181" lon="9.913342439048819"><ele>76.0</ele><time>2026-03-29T08:09:00Z</time></trkpt><trkpt lat="44.931463556836135" lon="9.913396090118546"><ele>76.0</ele><time>2026-03-29T08:09:01Z</time></trkpt><trkpt lat="44.931552806320745" lon="9.913514360918043"><ele>76.0</ele><time>2026-03-29T08:09:03Z</time></trkpt><trkpt lat="44.93162514740754" lon="9.913641348739354"><ele>76.0</ele><time>2026-03-29T08:09:05Z</time></trkpt><trkpt lat="44.931672447663246" lon="9.913795767207372"><ele>76.0</ele><time>2026-03-29T08:09:07Z</time></trkpt><trkpt lat="44.931690249610895" lon="9.91396044991021"><ele>76.0</ele><time>2026-03-29T08:09:09Z</time></trkpt><trkpt lat="44.931684578353654" lon="9.914049404178101"><ele>76.0</ele><time>2026-03-29T08:09:10Z</time></trkpt><trkpt lat="44.93165064356362" lon="9.914217656939742"><ele>75.83333333333333</ele><time>2026-03-29T08:09:12Z</time></trkpt><trkpt lat="44.931596929843266" lon="9.914376725314412"><ele>75.66666666666666</ele><time>2026-03-29T08:09:14Z</time></trkpt><trkpt lat="44.93156221148638" lon="9.9144519504469"><ele>75.5</ele><time>2026-03-29T08:09:15Z</time></trkpt><trkpt lat="44.93149946928454" lon="9.914603904873948"><ele>75.33333333333333</ele><time>2026-03-29T08:09:17Z</time></trkpt><trkpt lat="44.93146591825942" lon="9.914683945874895"><ele>75.16666666666667</ele><time>2026-03-29T08:09:18Z</time></trkpt><trkpt lat="44.93143134436763" lon="9.914758920279422"><ele>75.0</ele><time>2026-03-29T08:09:19Z</time></trkpt><trkpt lat="44.93139697870605" lon="9.914839899777581"><ele>74.99999999999999</ele><time>2026-03-29T08:09:20Z</time></trkpt><trkpt lat="44.931361171865" lon="9.914915089006595"><ele>75.0</ele><time>2026-03-29T08:09:21Z</time></trkpt><trkpt lat="44.93132895388773" lon="9.914997547467665"><ele>75.0</ele><time>2026-03-29T08:09:22Z</time></trkpt><trkpt lat="44.931302350965005" lon="9.915083343709664"><ele>75.0</ele><time>2026-03-29T08:09:23Z</time></trkpt><trkpt lat="44.93127184617965" lon="9.915163682304327"><ele>75.0</ele><time>2026-03-29T08:09:24Z</time></trkpt><trkpt lat="44.93123611622331" lon="9.915242882371869"><ele>74.99999999999999</ele><time>2026-03-29T08:09:25Z</time></trkpt><trkpt lat="44.93119884505793" lon="9.91532059082277"><ele>75.0</ele><time>2026-03-29T08:09:26Z</time></trkpt><trkpt lat="44.93116510365494" lon="9.915401571635071"><ele>74.99999999999999</ele><time>2026-03-29T08:09:27Z</time></trkpt><trkpt lat="44.93113108648215" lon="9.915480134553473"><ele>75.0</ele><time>2026-03-29T08:09:28Z</time></trkpt><trkpt lat="44.93109846044988" lon="9.915565594601631"><ele>75.0</ele><time>2026-03-29T08:09:29Z</time></trkpt><trkpt lat="44.931066316460424" lon="9.915646221731675"><ele>75.0</ele><time>2026-03-29T08:09:30Z</time></trkpt><trkpt lat="44.931034661854994" lon="9.915725722892187"><ele>75.0</ele><time>2026-03-29T08:09:31Z</time></trkpt><trkpt lat="44.93100214668868" lon="9.915808121436788"><ele>74.99999999999999</ele><time>2026-03-29T08:09:32Z</time></trkpt><trkpt lat="44.930965369306136" lon="9.915886867406694"><ele>75.0</ele><time>2026-03-29T08:09:33Z</time></trkpt><trkpt lat="44.93093089143404" lon="9.91596603385681"><ele>75.0</ele><time>2026-03-29T08:09:34Z</time></trkpt><trkpt lat="44.93089611985463" lon="9.916045675627293"><ele>75.0</ele><time>2026-03-29T08:09:35Z</time></trkpt><trkpt lat="44.93086430571803" lon="9.916131293926504"><ele>75.0</ele><time>2026-03-29T08:09:36Z</time></trkpt><trkpt lat="44.93083060153701" lon="9.916209595634452"><ele>75.0</ele><time>2026-03-29T08:09:37Z</time></trkpt><trkpt lat="44.93079507369079" lon="9.916289933020908"><ele>75.0</ele><time>2026-03-29T08:09:38Z</time></trkpt><trkpt lat="44.93076001396194" lon="9.916369122754547"><ele>75.0</ele><time>2026-03-29T08:09:39Z</time></trkpt><trkpt lat="44.93069553318111" lon="9.916529039610069"><ele>75.28571428571428</ele><time>2026-03-29T08:09:41Z</time></trkpt><trkpt lat="44.930661903304426" lon="9.916612710799772"><ele>75.57142857142857</ele><time>2026-03-29T08:09:42Z</time></trkpt><trkpt lat="44.93062969404376" lon="9.916696274955028"><ele>75.85714285714286</ele><time>2026-03-29T08:09:43Z</time></trkpt><trkpt lat="44.93059569201574" lon="9.916777827062228"><ele>76.14285714285714</ele><time>2026-03-29T08:09:44Z</time></trkpt><trkpt lat="44.930562900784366" lon="9.91685898311363"><ele>76.42857142857143</ele><time>2026-03-29T08:09:45Z</time></trkpt><trkpt lat="44.93052722493272" lon="9.916943644412838"><ele>76.71428571428571</ele><time>2026-03-29T08:09:46Z</time></trkpt><trkpt lat="44.930495877684166" lon="9.91702708611902"><ele>77.0</ele><time>2026-03-29T08:09:47Z</time></trkpt><trkpt lat="44.93046375301846" lon="9.917116635806455"><ele>77.0</ele><time>2026-03-29T08:09:48Z</time></trkpt><trkpt lat="44.93042823679654" lon="9.917203563293839"><ele>77.0</ele><time>2026-03-29T08:09:49Z</time></trkpt><trkpt lat="44.93039709084397" lon="9.917298649957022"><ele>77.0</ele><time>2026-03-29T08:09:50Z</time></trkpt><trkpt lat="44.93037877258319" lon="9.917409897800804"><ele>77.0</ele><time>2026-03-29T08:09:50.999Z</time></trkpt><trkpt lat="44.93036555482295" lon="9.917520995860542"><ele>77.0</ele><time>2026-03-29T08:09:51.999Z</time></trkpt><trkpt lat="44.93035594134329" lon="9.91763457588033"><ele>77.0</ele><time>2026-03-29T08:09:52.999Z</time></trkpt><trkpt lat="44.93034590258967" lon="9.917748174880295"><ele>76.2</ele><time>2026-03-29T08:09:53.999Z</time></trkpt><trkpt lat="44.93034987199012" lon="9.9178718226664"><ele>75.4</ele><time>2026-03-29T08:09:54.999Z</time></trkpt><trkpt lat="44.930372811628736" lon="9.917993158330821"><ele>74.6</ele><time>2026-03-29T08:09:55.999Z</time></trkpt><trkpt lat="44.93041728619642" lon="9.91810967137633"><ele>73.8</ele><time>2026-03-29T08:09:56.999Z</time></trkpt><trkpt lat="44.930470032418235" lon="9.918212686835135"><ele>73.0</ele><time>2026-03-29T08:09:57.999Z</time></trkpt><trkpt lat="44.930533863285795" lon="9.91831359398951"><ele>72.6</ele><time>2026-03-29T08:09:58.999Z</time></trkpt><trkpt lat="44.93059513238642" lon="9.918404770593288"><ele>72.19999999999999</ele><time>2026-03-29T08:09:59.999Z</time></trkpt><trkpt lat="44.9306614952381" lon="9.918497154827168"><ele>71.8</ele><time>2026-03-29T08:10:00.999Z</time></trkpt><trkpt lat="44.930725607444344" lon="9.918588513832768"><ele>71.39999999999999</ele><time>2026-03-29T08:10:01.999Z</time></trkpt><trkpt lat="44.93078628571579" lon="9.918682708410266"><ele>71.0</ele><time>2026-03-29T08:10:02.999Z</time></trkpt><trkpt lat="44.930849377463794" lon="9.918779576713582"><ele>71.0</ele><time>2026-03-29T08:10:03.999Z</time></trkpt><trkpt lat="44.93091261768253" lon="9.918876569411607"><ele>71.0</ele><time>2026-03-29T08:10:04.999Z</time></trkpt><trkpt lat="44.93097612138293" lon="9.918969698347512"><ele>71.0</ele><time>2026-03-29T08:10:05.999Z</time></trkpt><trkpt lat="44.93103895932444" lon="9.919063037314139"><ele>71.0</ele><time>2026-03-29T08:10:06.999Z</time></trkpt><trkpt lat="44.931101453199155" lon="9.91915743570324"><ele>71.0</ele><time>2026-03-29T08:10:07.999Z</time></trkpt><trkpt lat="44.93116299797381" lon="9.919251957643228"><ele>71.0</ele><time>2026-03-29T08:10:08.999Z</time></trkpt><trkpt lat="44.93122561173935" lon="9.919344205271978"><ele>71.0</ele><time>2026-03-29T08:10:09.999Z</time></trkpt><trkpt lat="44.93128749009101" lon="9.919435938006474"><ele>71.0</ele><time>2026-03-29T08:10:10.999Z</time></trkpt><trkpt lat="44.93134971116976" lon="9.919528176553873"><ele>71.0</ele><time>2026-03-29T08:10:11.999Z</time></trkpt><trkpt lat="44.931410579875475" lon="9.919620966614001"><ele>71.0</ele><time>2026-03-29T08:10:12.999Z</time></trkpt><trkpt lat="44.9314730387606" lon="9.919712578172286"><ele>71.0</ele><time>2026-03-29T08:10:13.999Z</time></trkpt><trkpt lat="44.93153311134599" lon="9.919803805489034"><ele>71.0</ele><time>2026-03-29T08:10:14.999Z</time></trkpt><trkpt lat="44.931595842936055" lon="9.919894867108138"><ele>71.0</ele><time>2026-03-29T08:10:15.999Z</time></trkpt><trkpt lat="44.93166088844257" lon="9.919984618586435"><ele>71.0</ele><time>2026-03-29T08:10:16.999Z</time></trkpt><trkpt lat="44.93172469140416" lon="9.920074946129787"><ele>71.0</ele><time>2026-03-29T08:10:17.999Z</time></trkpt><trkpt lat="44.931786820744776" lon="9.920164183433702"><ele>71.0</ele><time>2026-03-29T08:10:18.999Z</time></trkpt><trkpt lat="44.93185182468945" lon="9.920254452349507"><ele>70.33333333333334</ele><time>2026-03-29T08:10:19.999Z</time></trkpt><trkpt lat="44.93191434857173" lon="9.920344435279976"><ele>69.66666666666667</ele><time>2026-03-29T08:10:20.999Z</time></trkpt><trkpt lat="44.931977573898145" lon="9.920437592314306"><ele>69.0</ele><time>2026-03-29T08:10:21.999Z</time></trkpt><trkpt lat="44.93203686956372" lon="9.920530015291662"><ele>68.33333333333333</ele><time>2026-03-29T08:10:22.999Z</time></trkpt><trkpt lat="44.93209992739896" lon="9.920620452134317"><ele>67.66666666666666</ele><time>2026-03-29T08:10:23.999Z</time></trkpt><trkpt lat="44.932163286987105" lon="9.920710887045749"><ele>67.0</ele><time>2026-03-29T08:10:24.999Z</time></trkpt><trkpt lat="44.932226207452736" lon="9.920801099337057"><ele>67.0</ele><time>2026-03-29T08:10:25.999Z</time></trkpt><trkpt lat="44.93229041781983" lon="9.920892074340914"><ele>67.0</ele><time>2026-03-29T08:10:26.999Z</time></trkpt><trkpt lat="44.93235330186267" lon="9.920980337640463"><ele>67.0</ele><time>2026-03-29T08:10:27.999Z</time></trkpt><trkpt lat="44.93241776683331" lon="9.921070464079841"><ele>67.0</ele><time>2026-03-29T08:10:28.999Z</time></trkpt><trkpt lat="44.9324816074057" lon="9.921157974767626"><ele>67.0</ele><time>2026-03-29T08:10:29.999Z</time></trkpt><trkpt lat="44.93254523528514" lon="9.921251650050394"><ele>67.2</ele><time>2026-03-29T08:10:30.999Z</time></trkpt><trkpt lat="44.93260691480202" lon="9.921343546710085"><ele>67.4</ele><time>2026-03-29T08:10:31.999Z</time></trkpt><trkpt lat="44.93267092001262" lon="9.921435139244135"><ele>67.6</ele><time>2026-03-29T08:10:32.999Z</time></trkpt><trkpt lat="44.93273375318041" lon="9.92152623269949"><ele>67.8</ele><time>2026-03-29T08:10:33.999Z</time></trkpt><trkpt lat="44.93279527742146" lon="9.92161826724532"><ele>68.0</ele><time>2026-03-29T08:10:34.999Z</time></trkpt><trkpt lat="44.932856574211115" lon="9.921709987857747"><ele>68.33333333333334</ele><time>2026-03-29T08:10:35.999Z</time></trkpt><trkpt lat="44.932918003649824" lon="9.921803666990163"><ele>68.66666666666667</ele><time>2026-03-29T08:10:36.999Z</time></trkpt><trkpt lat="44.93297577204458" lon="9.921894738259162"><ele>69.0</ele><time>2026-03-29T08:10:37.999Z</time></trkpt><trkpt lat="44.933033407966526" lon="9.92199231908026"><ele>69.33333333333333</ele><time>2026-03-29T08:10:38.999Z</time></trkpt><trkpt lat="44.93309018608137" lon="9.922088309657887"><ele>69.66666666666666</ele><time>2026-03-29T08:10:39.999Z</time></trkpt><trkpt lat="44.93314395127463" lon="9.922190877815584"><ele>70.0</ele><time>2026-03-29T08:10:40.999Z</time></trkpt><trkpt lat="44.93319835118413" lon="9.922293527345644"><ele>70.0</ele><time>2026-03-29T08:10:41.999Z</time></trkpt><trkpt lat="44.93325318688269" lon="9.92239543040893"><ele>70.0</ele><time>2026-03-29T08:10:42.998Z</time></trkpt><trkpt lat="44.93330825834858" lon="9.922499591555969"><ele>70.0</ele><time>2026-03-29T08:10:43.998Z</time></trkpt><trkpt lat="44.933360581149714" lon="9.922603201233686"><ele>70.0</ele><time>2026-03-29T08:10:44.998Z</time></trkpt><trkpt lat="44.933410352223696" lon="9.922709389784135"><ele>70.0</ele><time>2026-03-29T08:10:45.998Z</time></trkpt><trkpt lat="44.93345932582962" lon="9.922816688333642"><ele>69.4</ele><time>2026-03-29T08:10:46.998Z</time></trkpt><trkpt lat="44.93351045771027" lon="9.922923740663892"><ele>68.8</ele><time>2026-03-29T08:10:47.998Z</time></trkpt><trkpt lat="44.93355851842838" lon="9.92303156954837"><ele>68.2</ele><time>2026-03-29T08:10:48.998Z</time></trkpt><trkpt lat="44.93360539735454" lon="9.923140528166686"><ele>67.6</ele><time>2026-03-29T08:10:49.998Z</time></trkpt><trkpt lat="44.93364828654886" lon="9.923251931082127"><ele>67.0</ele><time>2026-03-29T08:10:50.998Z</time></trkpt><trkpt lat="44.93368780718008" lon="9.92336417132374"><ele>66.8</ele><time>2026-03-29T08:10:51.998Z</time></trkpt><trkpt lat="44.93372240941044" lon="9.923481563072356"><ele>66.6</ele><time>2026-03-29T08:10:52.998Z</time></trkpt><trkpt lat="44.933750104936124" lon="9.923603984144933"><ele>66.39999999999999</ele><time>2026-03-29T08:10:53.998Z</time></trkpt><trkpt lat="44.93377196030399" lon="9.9237245973628"><ele>66.2</ele><time>2026-03-29T08:10:54.998Z</time></trkpt><trkpt lat="44.93378772269874" lon="9.923851266636142"><ele>66.0</ele><time>2026-03-29T08:10:55.998Z</time></trkpt><trkpt lat="44.93379878209504" lon="9.92397802528411"><ele>66.0</ele><time>2026-03-29T08:10:56.998Z</time></trkpt><trkpt lat="44.933809226284744" lon="9.92410463512783"><ele>66.0</ele><time>2026-03-29T08:10:57.998Z</time></trkpt><trkpt lat="44.93381417082613" lon="9.924232899383625"><ele>66.0</ele><time>2026-03-29T08:10:58.998Z</time></trkpt><trkpt lat="44.933812894221035" lon="9.924363891976352"><ele>66.0</ele><time>2026-03-29T08:10:59.998Z</time></trkpt><trkpt lat="44.93380618769595" lon="9.924489669060659"><ele>66.0</ele><time>2026-03-29T08:11:00.998Z</time></trkpt><trkpt lat="44.933798290961704" lon="9.924617489317162"><ele>65.8</ele><time>2026-03-29T08:11:01.998Z</time></trkpt><trkpt lat="44.933786173835855" lon="9.924744661559366"><ele>65.6</ele><time>2026-03-29T08:11:02.998Z</time></trkpt><trkpt lat="44.93377230046288" lon="9.924871968664988"><ele>65.4</ele><time>2026-03-29T08:11:04Z</time></trkpt><trkpt lat="44.933755669063764" lon="9.924996686474135"><ele>65.2</ele><time>2026-03-29T08:11:05Z</time></trkpt><trkpt lat="44.93373735773249" lon="9.925120645699412"><ele>65.0</ele><time>2026-03-29T08:11:06Z</time></trkpt><trkpt lat="44.9337195460348" lon="9.925247320658748"><ele>65.0</ele><time>2026-03-29T08:11:07Z</time></trkpt><trkpt lat="44.9337025378372" lon="9.925370219759502"><ele>65.0</ele><time>2026-03-29T08:11:08Z</time></trkpt><trkpt lat="44.93368437252008" lon="9.925494347359102"><ele>65.0</ele><time>2026-03-29T08:11:09Z</time></trkpt><trkpt lat="44.93367269521671" lon="9.925618900936152"><ele>65.0</ele><time>2026-03-29T08:11:10Z</time></trkpt><trkpt lat="44.9336803990518" lon="9.925742340449293"><ele>65.0</ele><time>2026-03-29T08:11:11Z</time></trkpt><trkpt lat="44.9337095108383" lon="9.925867034264739"><ele>65.0</ele><time>2026-03-29T08:11:12Z</time></trkpt><trkpt lat="44.93376348322718" lon="9.925971049257202"><ele>65.0</ele><time>2026-03-29T08:11:13Z</time></trkpt><trkpt lat="44.933832037220824" lon="9.926060999575439"><ele>65.0</ele><time>2026-03-29T08:11:14Z</time></trkpt><trkpt lat="44.93390394444326" lon="9.926144800183005"><ele>65.0</ele><time>2026-03-29T08:11:15Z</time></trkpt><trkpt lat="44.933971730914415" lon="9.926231198510541"><ele>65.0</ele><time>2026-03-29T08:11:16Z</time></trkpt><trkpt lat="44.93403886527114" lon="9.92631786455922"><ele>65.0</ele><time>2026-03-29T08:11:17Z</time></trkpt><trkpt lat="44.93410705717581" lon="9.926405037970808"><ele>65.0</ele><time>2026-03-29T08:11:18Z</time></trkpt><trkpt lat="44.93417372084456" lon="9.926489340149896"><ele>65.0</ele><time>2026-03-29T08:11:19Z</time></trkpt><trkpt lat="44.934245098258955" lon="9.926570508096052"><ele>65.0</ele><time>2026-03-29T08:11:20Z</time></trkpt><trkpt lat="44.934317410132174" lon="9.926648048944264"><ele>65.0</ele><time>2026-03-29T08:11:21Z</time></trkpt><trkpt lat="44.934389988846384" lon="9.926722422798994"><ele>65.0</ele><time>2026-03-29T08:11:22Z</time></trkpt><trkpt lat="44.93446451756075" lon="9.926793949920308"><ele>64.4</ele><time>2026-03-29T08:11:23Z</time></trkpt><trkpt lat="44.93454175727626" lon="9.926864187636859"><ele>63.8</ele><time>2026-03-29T08:11:24Z</time></trkpt><trkpt lat="44.934615713356834" lon="9.926934806781487"><ele>63.2</ele><time>2026-03-29T08:11:25Z</time></trkpt><trkpt lat="44.93469018277018" lon="9.927005259989155"><ele>62.6</ele><time>2026-03-29T08:11:26Z</time></trkpt><trkpt lat="44.93476536803332" lon="9.927078772939947"><ele>62.0</ele><time>2026-03-29T08:11:27Z</time></trkpt><trkpt lat="44.93483710214158" lon="9.927155847304979"><ele>62.0</ele><time>2026-03-29T08:11:28Z</time></trkpt><trkpt lat="44.93490693145343" lon="9.927235157789477"><ele>62.0</ele><time>2026-03-29T08:11:29Z</time></trkpt><trkpt lat="44.93497599616405" lon="9.927319123407534"><ele>62.0</ele><time>2026-03-29T08:11:30Z</time></trkpt><trkpt lat="44.935044057435555" lon="9.927404614363192"><ele>62.0</ele><time>2026-03-29T08:11:31Z</time></trkpt><trkpt lat="44.93511192368556" lon="9.92748678780707"><ele>62.0</ele><time>2026-03-29T08:11:32Z</time></trkpt><trkpt lat="44.935181139711574" lon="9.927570542210807"><ele>62.400000000000006</ele><time>2026-03-29T08:11:33Z</time></trkpt><trkpt lat="44.93525095428806" lon="9.927653065191837"><ele>62.800000000000004</ele><time>2026-03-29T08:11:34Z</time></trkpt><trkpt lat="44.9353222423881" lon="9.92773353483259"><ele>63.2</ele><time>2026-03-29T08:11:35Z</time></trkpt><trkpt lat="44.93539222414074" lon="9.927814965636996"><ele>63.6</ele><time>2026-03-29T08:11:36Z</time></trkpt><trkpt lat="44.935461973673654" lon="9.927900601864202"><ele>64.0</ele><time>2026-03-29T08:11:37Z</time></trkpt><trkpt lat="44.935530708190406" lon="9.927984790640721"><ele>64.0</ele><time>2026-03-29T08:11:38Z</time></trkpt><trkpt lat="44.93559982747302" lon="9.928068813078331"><ele>64.0</ele><time>2026-03-29T08:11:39Z</time></trkpt><trkpt lat="44.93566331405805" lon="9.928159653915229"><ele>64.0</ele><time>2026-03-29T08:11:40Z</time></trkpt><trkpt lat="44.935720884491325" lon="9.92826312364673"><ele>64.0</ele><time>2026-03-29T08:11:41Z</time></trkpt><trkpt lat="44.93577074723837" lon="9.928372844221045"><ele>64.0</ele><time>2026-03-29T08:11:42Z</time></trkpt><trkpt lat="44.93580824557699" lon="9.928493306157554"><ele>63.6</ele><time>2026-03-29T08:11:43Z</time></trkpt><trkpt lat="44.935837821254644" lon="9.928613108726324"><ele>63.2</ele><time>2026-03-29T08:11:44Z</time></trkpt><trkpt lat="44.93586509514709" lon="9.928733783356424"><ele>62.800000000000004</ele><time>2026-03-29T08:11:45Z</time></trkpt><trkpt lat="44.93590229904514" lon="9.928851960784714"><ele>62.400000000000006</ele><time>2026-03-29T08:11:46Z</time></trkpt><trkpt lat="44.93594599503842" lon="9.9289695618359"><ele>62.0</ele><time>2026-03-29T08:11:47Z</time></trkpt><trkpt lat="44.935999461700305" lon="9.929076547918294"><ele>62.0</ele><time>2026-03-29T08:11:48Z</time></trkpt><trkpt lat="44.936060854000736" lon="9.929172731754885"><ele>62.0</ele><time>2026-03-29T08:11:49Z</time></trkpt><trkpt lat="44.93612268140618" lon="9.929265933538302"><ele>62.0</ele><time>2026-03-29T08:11:50Z</time></trkpt><trkpt lat="44.93618428160832" lon="9.929362197147798"><ele>62.0</ele><time>2026-03-29T08:11:51Z</time></trkpt><trkpt lat="44.93624835846541" lon="9.929458147731456"><ele>62.0</ele><time>2026-03-29T08:11:52Z</time></trkpt><trkpt lat="44.93631031764238" lon="9.92955394408498"><ele>62.0</ele><time>2026-03-29T08:11:53Z</time></trkpt><trkpt lat="44.93637196048667" lon="9.92965017719256"><ele>62.0</ele><time>2026-03-29T08:11:54Z</time></trkpt><trkpt lat="44.93643370211009" lon="9.92974843433392"><ele>62.0</ele><time>2026-03-29T08:11:55Z</time></trkpt><trkpt lat="44.93649474695535" lon="9.929846021266474"><ele>62.0</ele><time>2026-03-29T08:11:55.999Z</time></trkpt><trkpt lat="44.936556641862346" lon="9.92994095124723"><ele>62.0</ele><time>2026-03-29T08:11:56.999Z</time></trkpt><trkpt lat="44.936618115004975" lon="9.930033560766647"><ele>62.0</ele><time>2026-03-29T08:11:57.999Z</time></trkpt><trkpt lat="44.93668090130856" lon="9.930126834559204"><ele>62.0</ele><time>2026-03-29T08:11:58.999Z</time></trkpt><trkpt lat="44.93674347724297" lon="9.930221010605669"><ele>62.0</ele><time>2026-03-29T08:11:59.999Z</time></trkpt><trkpt lat="44.93680500742175" lon="9.93031324049501"><ele>62.0</ele><time>2026-03-29T08:12:00.999Z</time></trkpt><trkpt lat="44.9368651439048" lon="9.930406667344087"><ele>62.0</ele><time>2026-03-29T08:12:01.999Z</time></trkpt><trkpt lat="44.93692628348937" lon="9.930503128043958"><ele>62.0</ele><time>2026-03-29T08:12:02.999Z</time></trkpt><trkpt lat="44.936988376476265" lon="9.930595448678"><ele>62.0</ele><time>2026-03-29T08:12:03.999Z</time></trkpt><trkpt lat="44.93704902115404" lon="9.930688681577367"><ele>62.0</ele><time>2026-03-29T08:12:04.999Z</time></trkpt><trkpt lat="44.937111142907185" lon="9.930782759308906"><ele>62.0</ele><time>2026-03-29T08:12:05.999Z</time></trkpt><trkpt lat="44.93717365461348" lon="9.930874332106916"><ele>62.0</ele><time>2026-03-29T08:12:06.999Z</time></trkpt><trkpt lat="44.93723602000683" lon="9.930968482064305"><ele>63.0</ele><time>2026-03-29T08:12:07.999Z</time></trkpt><trkpt lat="44.937298449348475" lon="9.931062727908184"><ele>64.0</ele><time>2026-03-29T08:12:08.999Z</time></trkpt><trkpt lat="44.9373610814983" lon="9.931157231431762"><ele>65.0</ele><time>2026-03-29T08:12:09.999Z</time></trkpt><trkpt lat="44.937423330682236" lon="9.931248412739377"><ele>66.0</ele><time>2026-03-29T08:12:10.999Z</time></trkpt><trkpt lat="44.93748505511208" lon="9.931339366932775"><ele>67.0</ele><time>2026-03-29T08:12:11.999Z</time></trkpt><trkpt lat="44.93754724201193" lon="9.931434706411961"><ele>67.8</ele><time>2026-03-29T08:12:12.999Z</time></trkpt><trkpt lat="44.937608987917606" lon="9.931528677991333"><ele>68.6</ele><time>2026-03-29T08:12:13.999Z</time></trkpt><trkpt lat="44.93767081633429" lon="9.931619303604263"><ele>69.39999999999999</ele><time>2026-03-29T08:12:14.999Z</time></trkpt><trkpt lat="44.93773435957774" lon="9.931713167347924"><ele>70.2</ele><time>2026-03-29T08:12:15.999Z</time></trkpt><trkpt lat="44.937796380032665" lon="9.931804746403976"><ele>71.0</ele><time>2026-03-29T08:12:16.999Z</time></trkpt><trkpt lat="44.937857945993564" lon="9.931895136884153"><ele>69.39999999999999</ele><time>2026-03-29T08:12:17.999Z</time></trkpt><trkpt lat="44.93792288756712" lon="9.931984543152756"><ele>67.8</ele><time>2026-03-29T08:12:18.999Z</time></trkpt><trkpt lat="44.93798803320376" lon="9.93207198684244"><ele>66.19999999999999</ele><time>2026-03-29T08:12:19.999Z</time></trkpt><trkpt lat="44.93805408403003" lon="9.932160137222718"><ele>64.6</ele><time>2026-03-29T08:12:20.999Z</time></trkpt><trkpt lat="44.938122594899205" lon="9.932248167490016"><ele>63.0</ele><time>2026-03-29T08:12:21.999Z</time></trkpt><trkpt lat="44.93818901859147" lon="9.932334131462547"><ele>63.0</ele><time>2026-03-29T08:12:22.999Z</time></trkpt><trkpt lat="44.93825644637367" lon="9.932418518798075"><ele>63.0</ele><time>2026-03-29T08:12:23.999Z</time></trkpt><trkpt lat="44.93832456150204" lon="9.932503422249809"><ele>63.0</ele><time>2026-03-29T08:12:24.999Z</time></trkpt><trkpt lat="44.938394702928846" lon="9.932590913490833"><ele>63.0</ele><time>2026-03-29T08:12:25.999Z</time></trkpt><trkpt lat="44.93846553925267" lon="9.932669975259923"><ele>63.0</ele><time>2026-03-29T08:12:26.999Z</time></trkpt><trkpt lat="44.938537233125686" lon="9.932744104444142"><ele>62.8</ele><time>2026-03-29T08:12:27.999Z</time></trkpt><trkpt lat="44.9386116684546" lon="9.932818524304057"><ele>62.599999999999994</ele><time>2026-03-29T08:12:28.999Z</time></trkpt><trkpt lat="44.93869022616853" lon="9.932887937890989"><ele>62.400000000000006</ele><time>2026-03-29T08:12:29.999Z</time></trkpt><trkpt lat="44.938768307549" lon="9.932954663043619"><ele>62.2</ele><time>2026-03-29T08:12:30.999Z</time></trkpt><trkpt lat="44.9388453175012" lon="9.933017891086546"><ele>62.0</ele><time>2026-03-29T08:12:31.999Z</time></trkpt><trkpt lat="44.938922643486684" lon="9.933081336686328"><ele>62.0</ele><time>2026-03-29T08:12:32.999Z</time></trkpt><trkpt lat="44.93900160480323" lon="9.93314531337741"><ele>62.0</ele><time>2026-03-29T08:12:33.999Z</time></trkpt><trkpt lat="44.939080291813426" lon="9.933205214555343"><ele>62.0</ele><time>2026-03-29T08:12:34.999Z</time></trkpt><trkpt lat="44.93915881093476" lon="9.93326537239159"><ele>62.0</ele><time>2026-03-29T08:12:35.999Z</time></trkpt><trkpt lat="44.939238592835245" lon="9.933328516988476"><ele>62.0</ele><time>2026-03-29T08:12:36.999Z</time></trkpt><trkpt lat="44.93931938452607" lon="9.933388499734747"><ele>61.2</ele><time>2026-03-29T08:12:37.999Z</time></trkpt><trkpt lat="44.93940026164421" lon="9.933443683388889"><ele>60.400000000000006</ele><time>2026-03-29T08:12:38.999Z</time></trkpt><trkpt lat="44.93948179617499" lon="9.933503175776405"><ele>59.599999999999994</ele><time>2026-03-29T08:12:39.999Z</time></trkpt><trkpt lat="44.93956209270786" lon="9.933563990903965"><ele>58.8</ele><time>2026-03-29T08:12:40.999Z</time></trkpt><trkpt lat="44.9396412769687" lon="9.933628991851448"><ele>58.0</ele><time>2026-03-29T08:12:41.999Z</time></trkpt><trkpt lat="44.93971844856132" lon="9.933692929287188"><ele>58.0</ele><time>2026-03-29T08:12:42.999Z</time></trkpt><trkpt lat="44.93979659313019" lon="9.933761278873355"><ele>58.0</ele><time>2026-03-29T08:12:43.999Z</time></trkpt><trkpt lat="44.93987247342982" lon="9.933834882118283"><ele>58.0</ele><time>2026-03-29T08:12:44.999Z</time></trkpt><trkpt lat="44.93994470420518" lon="9.933911082099396"><ele>58.0</ele><time>2026-03-29T08:12:45.999Z</time></trkpt><trkpt lat="44.9400143595336" lon="9.93399496767754"><ele>58.0</ele><time>2026-03-29T08:12:46.999Z</time></trkpt><trkpt lat="44.94008010329523" lon="9.934085797477422"><ele>58.0</ele><time>2026-03-29T08:12:47.999Z</time></trkpt><trkpt lat="44.940143999413245" lon="9.934178123159068"><ele>58.0</ele><time>2026-03-29T08:12:48.998Z</time></trkpt><trkpt lat="44.94020699500184" lon="9.934271939139345"><ele>58.0</ele><time>2026-03-29T08:12:49.998Z</time></trkpt><trkpt lat="44.940267995911626" lon="9.934364411070364"><ele>58.0</ele><time>2026-03-29T08:12:50.998Z</time></trkpt><trkpt lat="44.94033013433395" lon="9.934458295697992"><ele>58.0</ele><time>2026-03-29T08:12:51.998Z</time></trkpt><trkpt lat="44.94039504924926" lon="9.934553581575841"><ele>58.0</ele><time>2026-03-29T08:12:52.998Z</time></trkpt><trkpt lat="44.94046199369422" lon="9.934645024142165"><ele>58.0</ele><time>2026-03-29T08:12:53.998Z</time></trkpt><trkpt lat="44.94052807175326" lon="9.934736492939413"><ele>58.0</ele><time>2026-03-29T08:12:54.998Z</time></trkpt><trkpt lat="44.94059101686855" lon="9.934826418147942"><ele>58.0</ele><time>2026-03-29T08:12:55.998Z</time></trkpt><trkpt lat="44.940655024586064" lon="9.934916394763656"><ele>58.0</ele><time>2026-03-29T08:12:56.998Z</time></trkpt><trkpt lat="44.94072062139048" lon="9.935006930066525"><ele>58.2</ele><time>2026-03-29T08:12:57.998Z</time></trkpt><trkpt lat="44.94078761338851" lon="9.935097333414303"><ele>58.4</ele><time>2026-03-29T08:12:58.998Z</time></trkpt><trkpt lat="44.94085229987999" lon="9.935186729205673"><ele>58.60000000000001</ele><time>2026-03-29T08:12:59.998Z</time></trkpt><trkpt lat="44.94091632187443" lon="9.935278581525843"><ele>58.800000000000004</ele><time>2026-03-29T08:13:00.998Z</time></trkpt><trkpt lat="44.940982291060386" lon="9.935364770336664"><ele>59.0</ele><time>2026-03-29T08:13:01.998Z</time></trkpt><trkpt lat="44.94105027742859" lon="9.935449303910104"><ele>59.0</ele><time>2026-03-29T08:13:02.998Z</time></trkpt><trkpt lat="44.94112012827077" lon="9.935528413808617"><ele>59.00000000000001</ele><time>2026-03-29T08:13:03.998Z</time></trkpt><trkpt lat="44.94119224927536" lon="9.935603581093504"><ele>59.00000000000001</ele><time>2026-03-29T08:13:04.998Z</time></trkpt><trkpt lat="44.94126806810668" lon="9.93567718515316"><ele>59.0</ele><time>2026-03-29T08:13:05.998Z</time></trkpt><trkpt lat="44.941345639682034" lon="9.93574395085248"><ele>59.0</ele><time>2026-03-29T08:13:06.998Z</time></trkpt><trkpt lat="44.94142174991446" lon="9.935811541330638"><ele>59.0</ele><time>2026-03-29T08:13:07.998Z</time></trkpt><trkpt lat="44.94149815111672" lon="9.935885879797757"><ele>59.00000000000001</ele><time>2026-03-29T08:13:08.998Z</time></trkpt><trkpt lat="44.94157605075643" lon="9.935958135765066"><ele>59.00000000000001</ele><time>2026-03-29T08:13:10Z</time></trkpt><trkpt lat="44.94165113202552" lon="9.936032637983018"><ele>59.0</ele><time>2026-03-29T08:13:11Z</time></trkpt><trkpt lat="44.94172305882346" lon="9.936108712796257"><ele>59.0</ele><time>2026-03-29T08:13:12Z</time></trkpt><trkpt lat="44.94179163752364" lon="9.936189639989477"><ele>58.800000000000004</ele><time>2026-03-29T08:13:13Z</time></trkpt><trkpt lat="44.941857316630816" lon="9.936283034318864"><ele>58.60000000000001</ele><time>2026-03-29T08:13:14Z</time></trkpt><trkpt lat="44.941916716134436" lon="9.936379477711045"><ele>58.4</ele><time>2026-03-29T08:13:15Z</time></trkpt><trkpt lat="44.94197388157945" lon="9.936478484369463"><ele>58.2</ele><time>2026-03-29T08:13:16Z</time></trkpt><trkpt lat="44.9420308496776" lon="9.93658040250553"><ele>58.0</ele><time>2026-03-29T08:13:17Z</time></trkpt><trkpt lat="44.942090271694674" lon="9.936679341047428"><ele>58.166666666666664</ele><time>2026-03-29T08:13:18Z</time></trkpt><trkpt lat="44.942147171981055" lon="9.936781989915554"><ele>58.33333333333333</ele><time>2026-03-29T08:13:19Z</time></trkpt><trkpt lat="44.94220372714056" lon="9.936881904112912"><ele>58.5</ele><time>2026-03-29T08:13:20Z</time></trkpt><trkpt lat="44.942257266986694" lon="9.936978186381157"><ele>58.66666666666667</ele><time>2026-03-29T08:13:21Z</time></trkpt><trkpt lat="44.942312509730094" lon="9.937077204508045"><ele>58.833333333333336</ele><time>2026-03-29T08:13:22Z</time></trkpt><trkpt lat="44.94236846113414" lon="9.937175396247236"><ele>59.0</ele><time>2026-03-29T08:13:23Z</time></trkpt><trkpt lat="44.94242393362067" lon="9.93727170159365"><ele>59.00000000000001</ele><time>2026-03-29T08:13:24Z</time></trkpt><trkpt lat="44.94247988823329" lon="9.937366762919208"><ele>59.0</ele><time>2026-03-29T08:13:25Z</time></trkpt><trkpt lat="44.9425362181125" lon="9.9374639968877"><ele>59.0</ele><time>2026-03-29T08:13:26Z</time></trkpt><trkpt lat="44.94259281125092" lon="9.93755948701762"><ele>59.0</ele><time>2026-03-29T08:13:27Z</time></trkpt><trkpt lat="44.9426490094398" lon="9.937658803670008"><ele>59.00000000000001</ele><time>2026-03-29T08:13:28Z</time></trkpt><trkpt lat="44.94270455570398" lon="9.937758701594985"><ele>59.0</ele><time>2026-03-29T08:13:29Z</time></trkpt><trkpt lat="44.94276131211645" lon="9.937860628129986"><ele>58.800000000000004</ele><time>2026-03-29T08:13:30Z</time></trkpt><trkpt lat="44.9428190980954" lon="9.937961679972883"><ele>58.60000000000001</ele><time>2026-03-29T08:13:31Z</time></trkpt><trkpt lat="44.94287601971143" lon="9.938062848270315"><ele>58.4</ele><time>2026-03-29T08:13:32Z</time></trkpt><trkpt lat="44.94293035515631" lon="9.93816808392516"><ele>58.2</ele><time>2026-03-29T08:13:33Z</time></trkpt><trkpt lat="44.94297923377398" lon="9.93827693201067"><ele>58.0</ele><time>2026-03-29T08:13:34Z</time></trkpt><trkpt lat="44.94302456019218" lon="9.938385591945432"><ele>58.0</ele><time>2026-03-29T08:13:35Z</time></trkpt><trkpt lat="44.9430765600588" lon="9.938493667603264"><ele>58.0</ele><time>2026-03-29T08:13:36Z</time></trkpt><trkpt lat="44.94313538221573" lon="9.938595095989816"><ele>58.0</ele><time>2026-03-29T08:13:37Z</time></trkpt><trkpt lat="44.943202030642475" lon="9.938682849498962"><ele>58.0</ele><time>2026-03-29T08:13:38Z</time></trkpt><trkpt lat="44.94327519383904" lon="9.938755424805388"><ele>58.0</ele><time>2026-03-29T08:13:39Z</time></trkpt><trkpt lat="44.943356377296865" lon="9.93881203673178"><ele>58.0</ele><time>2026-03-29T08:13:40Z</time></trkpt><trkpt lat="44.9434405217604" lon="9.938863196800781"><ele>58.0</ele><time>2026-03-29T08:13:41Z</time></trkpt><trkpt lat="44.94352642601824" lon="9.938903308601384"><ele>58.0</ele><time>2026-03-29T08:13:42Z</time></trkpt><trkpt lat="44.94361250532997" lon="9.938934822578373"><ele>58.0</ele><time>2026-03-29T08:13:43Z</time></trkpt><trkpt lat="44.94370229694617" lon="9.93896247443732"><ele>58.0</ele><time>2026-03-29T08:13:44Z</time></trkpt><trkpt lat="44.9437888493747" lon="9.938986996868449"><ele>57.99999999999999</ele><time>2026-03-29T08:13:45Z</time></trkpt><trkpt lat="44.94387546351162" lon="9.939017376809508"><ele>58.0</ele><time>2026-03-29T08:13:46Z</time></trkpt><trkpt lat="44.94396130538791" lon="9.939042715307297"><ele>58.0</ele><time>2026-03-29T08:13:47Z</time></trkpt><trkpt lat="44.944048540139235" lon="9.9390700521696"><ele>58.0</ele><time>2026-03-29T08:13:48Z</time></trkpt><trkpt lat="44.944132280934866" lon="9.939095628854176"><ele>57.99999999999999</ele><time>2026-03-29T08:13:49Z</time></trkpt><trkpt lat="44.9442153473407" lon="9.939123368730364"><ele>58.0</ele><time>2026-03-29T08:13:50Z</time></trkpt><trkpt lat="44.94429448741199" lon="9.939145859838398"><ele>57.99999999999999</ele><time>2026-03-29T08:13:51Z</time></trkpt><trkpt lat="44.94437441252799" lon="9.939160628453353"><ele>58.0</ele><time>2026-03-29T08:13:52Z</time></trkpt><trkpt lat="44.94444232174722" lon="9.939196668828055"><ele>58.0</ele><time>2026-03-29T08:13:53Z</time></trkpt><trkpt lat="44.944491338042305" lon="9.939258390925623"><ele>58.0</ele><time>2026-03-29T08:13:54Z</time></trkpt><trkpt lat="44.9444975983739" lon="9.939440994125773"><ele>57.99999999999999</ele><time>2026-03-29T08:13:56Z</time></trkpt><trkpt lat="44.94447695513078" lon="9.939538469520405"><ele>58.0</ele><time>2026-03-29T08:13:57Z</time></trkpt><trkpt lat="44.94446031342318" lon="9.939633946055768"><ele>57.99999999999999</ele><time>2026-03-29T08:13:58Z</time></trkpt><trkpt lat="44.94444458633339" lon="9.93973213842873"><ele>58.0</ele><time>2026-03-29T08:13:59Z</time></trkpt><trkpt lat="44.944430199540285" lon="9.939832334470454"><ele>58.0</ele><time>2026-03-29T08:13:59.999Z</time></trkpt><trkpt lat="44.944416556230316" lon="9.939936445906298"><ele>58.0</ele><time>2026-03-29T08:14:00.999Z</time></trkpt><trkpt lat="44.944404675923174" lon="9.940041447196014"><ele>57.99999999999999</ele><time>2026-03-29T08:14:01.999Z</time></trkpt><trkpt lat="44.94439095909316" lon="9.940149327723812"><ele>58.0</ele><time>2026-03-29T08:14:02.999Z</time></trkpt><trkpt lat="44.94437517045472" lon="9.940258892538543"><ele>57.83333333333333</ele><time>2026-03-29T08:14:03.999Z</time></trkpt><trkpt lat="44.94435883612107" lon="9.940369538788405"><ele>57.666666666666664</ele><time>2026-03-29T08:14:04.999Z</time></trkpt><trkpt lat="44.944344774486694" lon="9.940479278819414"><ele>57.5</ele><time>2026-03-29T08:14:05.999Z</time></trkpt><trkpt lat="44.944328168047065" lon="9.940594187311042"><ele>57.33333333333333</ele><time>2026-03-29T08:14:06.999Z</time></trkpt><trkpt lat="44.94431061652254" lon="9.940709023858712"><ele>57.166666666666664</ele><time>2026-03-29T08:14:07.999Z</time></trkpt><trkpt lat="44.94429451986741" lon="9.940823966788065"><ele>57.0</ele><time>2026-03-29T08:14:08.999Z</time></trkpt><trkpt lat="44.94428087075771" lon="9.94093942695081"><ele>57.166666666666664</ele><time>2026-03-29T08:14:09.999Z</time></trkpt><trkpt lat="44.94426484046004" lon="9.941055328549627"><ele>57.33333333333333</ele><time>2026-03-29T08:14:10.999Z</time></trkpt><trkpt lat="44.94424937856386" lon="9.941172970192492"><ele>57.5</ele><time>2026-03-29T08:14:11.999Z</time></trkpt><trkpt lat="44.944234237143505" lon="9.94129076645107"><ele>57.666666666666664</ele><time>2026-03-29T08:14:12.999Z</time></trkpt><trkpt lat="44.944220127620426" lon="9.941408859251776"><ele>57.83333333333333</ele><time>2026-03-29T08:14:13.999Z</time></trkpt><trkpt lat="44.94420677087881" lon="9.941527783044453"><ele>58.0</ele><time>2026-03-29T08:14:14.999Z</time></trkpt><trkpt lat="44.9441915886936" lon="9.941643926730135"><ele>57.99999999999999</ele><time>2026-03-29T08:14:15.999Z</time></trkpt><trkpt lat="44.944174584426634" lon="9.941762261953759"><ele>58.0</ele><time>2026-03-29T08:14:16.999Z</time></trkpt><trkpt lat="44.94415968947999" lon="9.941881557896856"><ele>58.0</ele><time>2026-03-29T08:14:17.999Z</time></trkpt><trkpt lat="44.944141061814854" lon="9.942003373328125"><ele>58.0</ele><time>2026-03-29T08:14:18.999Z</time></trkpt><trkpt lat="44.944125474472415" lon="9.942122958129941"><ele>57.99999999999999</ele><time>2026-03-29T08:14:19.999Z</time></trkpt><trkpt lat="44.94411064722115" lon="9.94224427285251"><ele>58.0</ele><time>2026-03-29T08:14:20.999Z</time></trkpt><trkpt lat="44.94409623332941" lon="9.942361289608348"><ele>57.99999999999999</ele><time>2026-03-29T08:14:21.999Z</time></trkpt><trkpt lat="44.94407870254544" lon="9.942481435509555"><ele>58.0</ele><time>2026-03-29T08:14:22.999Z</time></trkpt><trkpt lat="44.9440644061681" lon="9.942599636670701"><ele>58.0</ele><time>2026-03-29T08:14:23.999Z</time></trkpt><trkpt lat="44.94404845473934" lon="9.942719581377286"><ele>58.0</ele><time>2026-03-29T08:14:24.999Z</time></trkpt><trkpt lat="44.944030663898836" lon="9.942838125612653"><ele>57.99999999999999</ele><time>2026-03-29T08:14:25.999Z</time></trkpt><trkpt lat="44.94401222955687" lon="9.94295736477646"><ele>58.0</ele><time>2026-03-29T08:14:26.999Z</time></trkpt><trkpt lat="44.943995407007186" lon="9.943075878353183"><ele>57.83333333333333</ele><time>2026-03-29T08:14:27.999Z</time></trkpt><trkpt lat="44.94397830943854" lon="9.94319598359554"><ele>57.666666666666664</ele><time>2026-03-29T08:14:28.999Z</time></trkpt><trkpt lat="44.94395616819025" lon="9.943316656888157"><ele>57.5</ele><time>2026-03-29T08:14:29.999Z</time></trkpt><trkpt lat="44.94393151258988" lon="9.943434839036113"><ele>57.33333333333333</ele><time>2026-03-29T08:14:30.999Z</time></trkpt><trkpt lat="44.9439031277989" lon="9.943551061965765"><ele>57.166666666666664</ele><time>2026-03-29T08:14:31.999Z</time></trkpt><trkpt lat="44.943868625436075" lon="9.943664330202722"><ele>57.0</ele><time>2026-03-29T08:14:32.999Z</time></trkpt><trkpt lat="44.94382748537787" lon="9.943771030962592"><ele>56.666666666666664</ele><time>2026-03-29T08:14:33.999Z</time></trkpt><trkpt lat="44.94377855534578" lon="9.943874263083886"><ele>56.33333333333333</ele><time>2026-03-29T08:14:34.999Z</time></trkpt><trkpt lat="44.94372294033367" lon="9.943967597132884"><ele>56.0</ele><time>2026-03-29T08:14:35.999Z</time></trkpt><trkpt lat="44.94366212403292" lon="9.94405550089579"><ele>55.666666666666664</ele><time>2026-03-29T08:14:36.999Z</time></trkpt><trkpt lat="44.94359628541739" lon="9.944137043658756"><ele>55.33333333333333</ele><time>2026-03-29T08:14:37.999Z</time></trkpt><trkpt lat="44.94352710677415" lon="9.944212821317274"><ele>55.0</ele><time>2026-03-29T08:14:38.999Z</time></trkpt><trkpt lat="44.943460755512696" lon="9.944286607657254"><ele>54.83333333333333</ele><time>2026-03-29T08:14:39.999Z</time></trkpt><trkpt lat="44.9433950065846" lon="9.944364483772077"><ele>54.666666666666664</ele><time>2026-03-29T08:14:40.999Z</time></trkpt><trkpt lat="44.943328342255384" lon="9.944443224714158"><ele>54.5</ele><time>2026-03-29T08:14:41.999Z</time></trkpt><trkpt lat="44.94326142501902" lon="9.94452139069999"><ele>54.33333333333333</ele><time>2026-03-29T08:14:42.999Z</time></trkpt><trkpt lat="44.943195068657225" lon="9.944601055725375"><ele>54.166666666666664</ele><time>2026-03-29T08:14:43.999Z</time></trkpt><trkpt lat="44.9431281641495" lon="9.944679602815501"><ele>54.0</ele><time>2026-03-29T08:14:44.999Z</time></trkpt><trkpt lat="44.94306313436458" lon="9.944752526681807"><ele>54.0</ele><time>2026-03-29T08:14:45.999Z</time></trkpt><trkpt lat="44.94300132085528" lon="9.944822441543955"><ele>54.0</ele><time>2026-03-29T08:14:46.999Z</time></trkpt><trkpt lat="44.942941104998184" lon="9.94489056541075"><ele>54.0</ele><time>2026-03-29T08:14:47.999Z</time></trkpt><trkpt lat="44.94288296707333" lon="9.944955243219363"><ele>54.0</ele><time>2026-03-29T08:14:48.999Z</time></trkpt><trkpt lat="44.94282337326614" lon="9.945019160281568"><ele>54.0</ele><time>2026-03-29T08:14:49.999Z</time></trkpt><trkpt lat="44.9427634509208" lon="9.945084696485587"><ele>54.0</ele><time>2026-03-29T08:14:50.999Z</time></trkpt><trkpt lat="44.942702247247475" lon="9.9451486890731"><ele>54.0</ele><time>2026-03-29T08:14:51.998Z</time></trkpt><trkpt lat="44.94264295359173" lon="9.945210206587557"><ele>54.0</ele><time>2026-03-29T08:14:52.998Z</time></trkpt><trkpt lat="44.94258808150436" lon="9.945270748206882"><ele>54.0</ele><time>2026-03-29T08:14:53.998Z</time></trkpt><trkpt lat="44.942533843345544" lon="9.945326851240278"><ele>54.0</ele><time>2026-03-29T08:14:54.998Z</time></trkpt><trkpt lat="44.94248202418913" lon="9.945383033682889"><ele>54.0</ele><time>2026-03-29T08:14:55.998Z</time></trkpt><trkpt lat="44.942429976037836" lon="9.94543505841055"><ele>54.0</ele><time>2026-03-29T08:14:56.998Z</time></trkpt><trkpt lat="44.94237731795608" lon="9.945487845310586"><ele>54.0</ele><time>2026-03-29T08:14:57.998Z</time></trkpt><trkpt lat="44.9422797341369" lon="9.945593738732226"><ele>54.2</ele><time>2026-03-29T08:14:59.998Z</time></trkpt><trkpt lat="44.94219441089732" lon="9.945696415844234"><ele>54.400000000000006</ele><time>2026-03-29T08:15:01.998Z</time></trkpt><trkpt lat="44.94213852527897" lon="9.945837084470325"><ele>54.6</ele><time>2026-03-29T08:15:03.998Z</time></trkpt><trkpt lat="44.942182317420865" lon="9.945940686639927"><ele>54.8</ele><time>2026-03-29T08:15:04.998Z</time></trkpt><trkpt lat="44.94225869945459" lon="9.945996172537813"><ele>55.0</ele><time>2026-03-29T08:15:05.998Z</time></trkpt><trkpt lat="44.94231819306927" lon="9.946047153956775"><ele>54.99999999999999</ele><time>2026-03-29T08:15:06.998Z</time></trkpt><trkpt lat="44.942375593431635" lon="9.946098531042871"><ele>55.0</ele><time>2026-03-29T08:15:07.998Z</time></trkpt><trkpt lat="44.942437172885725" lon="9.946150906622437"><ele>55.0</ele><time>2026-03-29T08:15:08.998Z</time></trkpt><trkpt lat="44.94249962656025" lon="9.946203139536095"><ele>55.0</ele><time>2026-03-29T08:15:09.998Z</time></trkpt><trkpt lat="44.942556863412044" lon="9.94625921459487"><ele>55.0</ele><time>2026-03-29T08:15:10.998Z</time></trkpt><trkpt lat="44.94261567948038" lon="9.946321958433066"><ele>54.99999999999999</ele><time>2026-03-29T08:15:11.998Z</time></trkpt><trkpt lat="44.94267347887332" lon="9.946383482317088"><ele>55.0</ele><time>2026-03-29T08:15:12.998Z</time></trkpt><trkpt lat="44.942732020188956" lon="9.94644491897839"><ele>54.857142857142854</ele><time>2026-03-29T08:15:13.998Z</time></trkpt><trkpt lat="44.94278821507542" lon="9.94650626989236"><ele>54.714285714285715</ele><time>2026-03-29T08:15:14.998Z</time></trkpt><trkpt lat="44.94284230425206" lon="9.946572091300181"><ele>54.57142857142857</ele><time>2026-03-29T08:15:16Z</time></trkpt><trkpt lat="44.942893288693014" lon="9.946637537185545"><ele>54.42857142857143</ele><time>2026-03-29T08:15:17Z</time></trkpt><trkpt lat="44.942942277528715" lon="9.946704676839385"><ele>54.285714285714285</ele><time>2026-03-29T08:15:18Z</time></trkpt><trkpt lat="44.94298901475891" lon="9.946772254384685"><ele>54.14285714285714</ele><time>2026-03-29T08:15:19Z</time></trkpt><trkpt lat="44.943034380380865" lon="9.946838800049937"><ele>54.0</ele><time>2026-03-29T08:15:20Z</time></trkpt><trkpt lat="44.94312068053304" lon="9.946969929301416"><ele>53.75</ele><time>2026-03-29T08:15:22Z</time></trkpt><trkpt lat="44.943207481608226" lon="9.947099100101916"><ele>53.5</ele><time>2026-03-29T08:15:24Z</time></trkpt><trkpt lat="44.94329311640065" lon="9.947225899060195"><ele>53.25</ele><time>2026-03-29T08:15:26Z</time></trkpt><trkpt lat="44.94337690787455" lon="9.947348373269048"><ele>53.0</ele><time>2026-03-29T08:15:28Z</time></trkpt><trkpt lat="44.94346277012108" lon="9.94746124000068"><ele>53.4</ele><time>2026-03-29T08:15:30Z</time></trkpt><trkpt lat="44.94354980784387" lon="9.94757528489741"><ele>53.8</ele><time>2026-03-29T08:15:32Z</time></trkpt><trkpt lat="44.943642295113015" lon="9.947679964116514"><ele>54.2</ele><time>2026-03-29T08:15:34Z</time></trkpt><trkpt lat="44.943743517880726" lon="9.94777874614141"><ele>54.6</ele><time>2026-03-29T08:15:36Z</time></trkpt><trkpt lat="44.94379615602585" lon="9.947830482669007"><ele>55.0</ele><time>2026-03-29T08:15:37Z</time></trkpt><trkpt lat="44.94390371779843" lon="9.947924541076555"><ele>54.99999999999999</ele><time>2026-03-29T08:15:39Z</time></trkpt><trkpt lat="44.943959764291726" lon="9.947971196210418"><ele>55.0</ele><time>2026-03-29T08:15:40Z</time></trkpt><trkpt lat="44.94401284897412" lon="9.948021603407849"><ele>55.0</ele><time>2026-03-29T08:15:41Z</time></trkpt><trkpt lat="44.94411515888995" lon="9.948108810895528"><ele>55.0</ele><time>2026-03-29T08:15:43Z</time></trkpt><trkpt lat="44.944220398940054" lon="9.948198659808478"><ele>54.99999999999999</ele><time>2026-03-29T08:15:45Z</time></trkpt><trkpt lat="44.94427530304398" lon="9.948246329148175"><ele>55.0</ele><time>2026-03-29T08:15:46Z</time></trkpt><trkpt lat="44.94433194327566" lon="9.948292894105151"><ele>54.99999999999999</ele><time>2026-03-29T08:15:47Z</time></trkpt><trkpt lat="44.94438698009587" lon="9.948341742007411"><ele>55.0</ele><time>2026-03-29T08:15:48Z</time></trkpt><trkpt lat="44.944444088400516" lon="9.948388905593815"><ele>55.0</ele><time>2026-03-29T08:15:49Z</time></trkpt><trkpt lat="44.94450253649495" lon="9.948438548277222"><ele>55.0</ele><time>2026-03-29T08:15:50Z</time></trkpt><trkpt lat="44.944558142753856" lon="9.94848728542415"><ele>55.0</ele><time>2026-03-29T08:15:51Z</time></trkpt><trkpt lat="44.944616695671314" lon="9.948538080393424"><ele>54.99999999999999</ele><time>2026-03-29T08:15:52Z</time></trkpt><trkpt lat="44.94467523445741" lon="9.948589189396257"><ele>55.0</ele><time>2026-03-29T08:15:53Z</time></trkpt><trkpt lat="44.94473325416567" lon="9.948639604552103"><ele>54.857142857142854</ele><time>2026-03-29T08:15:54Z</time></trkpt><trkpt lat="44.944791499487664" lon="9.94868779343955"><ele>54.714285714285715</ele><time>2026-03-29T08:15:55Z</time></trkpt><trkpt lat="44.94485140257543" lon="9.948738919086079"><ele>54.57142857142857</ele><time>2026-03-29T08:15:56Z</time></trkpt><trkpt lat="44.944910529633844" lon="9.948792355512936"><ele>54.42857142857143</ele><time>2026-03-29T08:15:57Z</time></trkpt><trkpt lat="44.944973192546954" lon="9.94884439671988"><ele>54.285714285714285</ele><time>2026-03-29T08:15:58Z</time></trkpt><trkpt lat="44.945035814126555" lon="9.948897106332266"><ele>54.14285714285714</ele><time>2026-03-29T08:15:59Z</time></trkpt><trkpt lat="44.94510004652805" lon="9.94894953347843"><ele>54.0</ele><time>2026-03-29T08:16:00Z</time></trkpt><trkpt lat="44.945165225210644" lon="9.949003679168571"><ele>54.0</ele><time>2026-03-29T08:16:01Z</time></trkpt><trkpt lat="44.945230670852304" lon="9.949060798300227"><ele>54.0</ele><time>2026-03-29T08:16:02Z</time></trkpt><trkpt lat="44.945296544483995" lon="9.949117219175575"><ele>54.0</ele><time>2026-03-29T08:16:03Z</time></trkpt><trkpt lat="44.94536368675708" lon="9.949175651381273"><ele>54.0</ele><time>2026-03-29T08:16:03.999Z</time></trkpt><trkpt lat="44.94543039762874" lon="9.94923412297159"><ele>54.0</ele><time>2026-03-29T08:16:04.999Z</time></trkpt><trkpt lat="44.94550000370066" lon="9.949291265812615"><ele>54.0</ele><time>2026-03-29T08:16:05.999Z</time></trkpt><trkpt lat="44.94556989192384" lon="9.949350155357875"><ele>54.166666666666664</ele><time>2026-03-29T08:16:06.999Z</time></trkpt><trkpt lat="44.945638854013566" lon="9.949409226396131"><ele>54.33333333333333</ele><time>2026-03-29T08:16:07.999Z</time></trkpt><trkpt lat="44.94571252038128" lon="9.949467227979868"><ele>54.5</ele><time>2026-03-29T08:16:08.999Z</time></trkpt><trkpt lat="44.945787769076226" lon="9.949522560875641"><ele>54.666666666666664</ele><time>2026-03-29T08:16:09.999Z</time></trkpt><trkpt lat="44.945866709018254" lon="9.949574794395092"><ele>54.83333333333333</ele><time>2026-03-29T08:16:10.999Z</time></trkpt><trkpt lat="44.945951751861074" lon="9.949621325834766"><ele>55.0</ele><time>2026-03-29T08:16:11.999Z</time></trkpt><trkpt lat="44.94603936299874" lon="9.949663934709923"><ele>55.2</ele><time>2026-03-29T08:16:12.999Z</time></trkpt><trkpt lat="44.94613113303225" lon="9.949712219810111"><ele>55.4</ele><time>2026-03-29T08:16:13.999Z</time></trkpt><trkpt lat="44.9462244097704" lon="9.949762933058937"><ele>55.599999999999994</ele><time>2026-03-29T08:16:14.999Z</time></trkpt><trkpt lat="44.94631948200117" lon="9.949810416381675"><ele>55.8</ele><time>2026-03-29T08:16:15.999Z</time></trkpt><trkpt lat="44.94641618395798" lon="9.94985800448261"><ele>56.0</ele><time>2026-03-29T08:16:16.999Z</time></trkpt><trkpt lat="44.94651294326152" lon="9.949904459501042"><ele>56.0</ele><time>2026-03-29T08:16:17.999Z</time></trkpt><trkpt lat="44.94661415569631" lon="9.949955085703625"><ele>55.99999999999999</ele><time>2026-03-29T08:16:18.999Z</time></trkpt><trkpt lat="44.946714191334095" lon="9.95000635513365"><ele>55.99999999999999</ele><time>2026-03-29T08:16:19.999Z</time></trkpt><trkpt lat="44.94681302385249" lon="9.950057267625978"><ele>56.0</ele><time>2026-03-29T08:16:20.999Z</time></trkpt><trkpt lat="44.94691219724766" lon="9.950106644656081"><ele>56.0</ele><time>2026-03-29T08:16:21.999Z</time></trkpt><trkpt lat="44.94700727485453" lon="9.950158845388126"><ele>55.599999999999994</ele><time>2026-03-29T08:16:22.999Z</time></trkpt><trkpt lat="44.9470969756518" lon="9.950213847081532"><ele>55.199999999999996</ele><time>2026-03-29T08:16:23.999Z</time></trkpt><trkpt lat="44.94718027247523" lon="9.950281540236817"><ele>54.800000000000004</ele><time>2026-03-29T08:16:24.999Z</time></trkpt><trkpt lat="44.947253787341246" lon="9.95035541691692"><ele>54.400000000000006</ele><time>2026-03-29T08:16:25.999Z</time></trkpt><trkpt lat="44.94733087546303" lon="9.950423075283346"><ele>54.0</ele><time>2026-03-29T08:16:26.999Z</time></trkpt><trkpt lat="44.94740722020204" lon="9.950486958753952"><ele>54.0</ele><time>2026-03-29T08:16:27.999Z</time></trkpt><trkpt lat="44.94748247902197" lon="9.950549365140104"><ele>54.0</ele><time>2026-03-29T08:16:28.999Z</time></trkpt><trkpt lat="44.94755879091356" lon="9.950612762628447"><ele>54.0</ele><time>2026-03-29T08:16:29.999Z</time></trkpt><trkpt lat="44.947636013798736" lon="9.95067098784949"><ele>54.0</ele><time>2026-03-29T08:16:30.999Z</time></trkpt><trkpt lat="44.947714612395636" lon="9.950728229292189"><ele>54.0</ele><time>2026-03-29T08:16:31.999Z</time></trkpt><trkpt lat="44.94779447684326" lon="9.950784432595764"><ele>54.0</ele><time>2026-03-29T08:16:32.999Z</time></trkpt><trkpt lat="44.94787531338117" lon="9.950838809570126"><ele>53.833333333333336</ele><time>2026-03-29T08:16:33.999Z</time></trkpt><trkpt lat="44.947953883428454" lon="9.950895463092941"><ele>53.66666666666667</ele><time>2026-03-29T08:16:34.999Z</time></trkpt><trkpt lat="44.94803212416159" lon="9.950955153909986"><ele>53.5</ele><time>2026-03-29T08:16:35.999Z</time></trkpt><trkpt lat="44.94811124653145" lon="9.951010983541043"><ele>53.333333333333336</ele><time>2026-03-29T08:16:36.999Z</time></trkpt><trkpt lat="44.94819104649306" lon="9.951069813395735"><ele>53.16666666666667</ele><time>2026-03-29T08:16:37.999Z</time></trkpt><trkpt lat="44.94826967060993" lon="9.951130417868557"><ele>53.0</ele><time>2026-03-29T08:16:38.999Z</time></trkpt><trkpt lat="44.94834944610748" lon="9.951189269411298"><ele>52.833333333333336</ele><time>2026-03-29T08:16:39.999Z</time></trkpt><trkpt lat="44.94842674531088" lon="9.951248377509998"><ele>52.66666666666667</ele><time>2026-03-29T08:16:40.999Z</time></trkpt><trkpt lat="44.94850493193594" lon="9.951307211438616"><ele>52.5</ele><time>2026-03-29T08:16:41.999Z</time></trkpt><trkpt lat="44.94858296651933" lon="9.951365504720412"><ele>52.33333333333333</ele><time>2026-03-29T08:16:42.999Z</time></trkpt><trkpt lat="44.948661977154075" lon="9.951424661079738"><ele>52.166666666666664</ele><time>2026-03-29T08:16:43.999Z</time></trkpt><trkpt lat="44.94874105786805" lon="9.951481933810099"><ele>52.0</ele><time>2026-03-29T08:16:44.999Z</time></trkpt><trkpt lat="44.948820261541236" lon="9.951536092228137"><ele>51.99999999999999</ele><time>2026-03-29T08:16:45.999Z</time></trkpt><trkpt lat="44.94889841804135" lon="9.951589462261804"><ele>52.0</ele><time>2026-03-29T08:16:46.999Z</time></trkpt><trkpt lat="44.94897797046132" lon="9.9516431743673"><ele>52.0</ele><time>2026-03-29T08:16:47.999Z</time></trkpt><trkpt lat="44.949055663577695" lon="9.951698642114348"><ele>52.0</ele><time>2026-03-29T08:16:48.999Z</time></trkpt><trkpt lat="44.94913113659029" lon="9.951756741969767"><ele>51.99999999999999</ele><time>2026-03-29T08:16:49.999Z</time></trkpt><trkpt lat="44.94920788586199" lon="9.951817052305241"><ele>52.0</ele><time>2026-03-29T08:16:50.999Z</time></trkpt><trkpt lat="44.9492838538296" lon="9.951877833687861"><ele>51.99999999999999</ele><time>2026-03-29T08:16:51.999Z</time></trkpt><trkpt lat="44.9493596018315" lon="9.95193984399406"><ele>52.0</ele><time>2026-03-29T08:16:52.999Z</time></trkpt><trkpt lat="44.94943175902273" lon="9.952005844399704"><ele>52.0</ele><time>2026-03-29T08:16:53.999Z</time></trkpt><trkpt lat="44.949504763251575" lon="9.952072885224954"><ele>52.0</ele><time>2026-03-29T08:16:54.999Z</time></trkpt><trkpt lat="44.9495810866325" lon="9.952137356359522"><ele>51.99999999999999</ele><time>2026-03-29T08:16:55.999Z</time></trkpt><trkpt lat="44.94965353014021" lon="9.952206071375358"><ele>52.0</ele><time>2026-03-29T08:16:56.999Z</time></trkpt><trkpt lat="44.94972458421794" lon="9.952279047469785"><ele>51.99999999999999</ele><time>2026-03-29T08:16:57.998Z</time></trkpt><trkpt lat="44.94979362728365" lon="9.952347965805094"><ele>52.0</ele><time>2026-03-29T08:16:58.998Z</time></trkpt><trkpt lat="44.949866345668575" lon="9.952419499213807"><ele>52.0</ele><time>2026-03-29T08:16:59.998Z</time></trkpt><trkpt lat="44.94993598171127" lon="9.952492859316814"><ele>52.0</ele><time>2026-03-29T08:17:00.998Z</time></trkpt><trkpt lat="44.95000880355138" lon="9.95256244622281"><ele>51.99999999999999</ele><time>2026-03-29T08:17:01.998Z</time></trkpt><trkpt lat="44.95007768517784" lon="9.952630087586181"><ele>52.0</ele><time>2026-03-29T08:17:02.998Z</time></trkpt><trkpt lat="44.95015244119774" lon="9.95269650449119"><ele>51.99999999999999</ele><time>2026-03-29T08:17:03.998Z</time></trkpt><trkpt lat="44.950222252580524" lon="9.952768935522096"><ele>52.0</ele><time>2026-03-29T08:17:04.998Z</time></trkpt><trkpt lat="44.95028875733299" lon="9.952843531038292"><ele>52.0</ele><time>2026-03-29T08:17:05.998Z</time></trkpt><trkpt lat="44.950356766179254" lon="9.952914465572253"><ele>52.0</ele><time>2026-03-29T08:17:06.998Z</time></trkpt><trkpt lat="44.95042585842069" lon="9.952984886852876"><ele>51.99999999999999</ele><time>2026-03-29T08:17:07.998Z</time></trkpt><trkpt lat="44.950493938757404" lon="9.953055648257532"><ele>52.0</ele><time>2026-03-29T08:17:08.998Z</time></trkpt><trkpt lat="44.95056187553115" lon="9.953126842352848"><ele>51.99999999999999</ele><time>2026-03-29T08:17:09.998Z</time></trkpt><trkpt lat="44.95063080575768" lon="9.953200224923954"><ele>52.0</ele><time>2026-03-29T08:17:10.998Z</time></trkpt><trkpt lat="44.950698468534135" lon="9.953273046405899"><ele>52.0</ele><time>2026-03-29T08:17:11.998Z</time></trkpt><trkpt lat="44.9507680452153" lon="9.953341836999304"><ele>52.0</ele><time>2026-03-29T08:17:12.998Z</time></trkpt><trkpt lat="44.95083607755065" lon="9.953413820876955"><ele>51.99999999999999</ele><time>2026-03-29T08:17:13.998Z</time></trkpt><trkpt lat="44.95090377705821" lon="9.953485926047986"><ele>52.0</ele><time>2026-03-29T08:17:14.998Z</time></trkpt><trkpt lat="44.950971981767196" lon="9.953553749610881"><ele>51.99999999999999</ele><time>2026-03-29T08:17:15.998Z</time></trkpt><trkpt lat="44.951040705318135" lon="9.953625828880636"><ele>52.0</ele><time>2026-03-29T08:17:16.998Z</time></trkpt><trkpt lat="44.95110866272532" lon="9.953696597363002"><ele>52.0</ele><time>2026-03-29T08:17:17.998Z</time></trkpt><trkpt lat="44.95117514739458" lon="9.953771427208908"><ele>52.0</ele><time>2026-03-29T08:17:18.998Z</time></trkpt><trkpt lat="44.95124240853266" lon="9.953841515012545"><ele>51.99999999999999</ele><time>2026-03-29T08:17:19.998Z</time></trkpt><trkpt lat="44.95131331492916" lon="9.953913496640931"><ele>52.0</ele><time>2026-03-29T08:17:20.998Z</time></trkpt><trkpt lat="44.95138115180715" lon="9.953981760708075"><ele>51.99999999999999</ele><time>2026-03-29T08:17:22Z</time></trkpt><trkpt lat="44.95144944187864" lon="9.954051204869591"><ele>52.0</ele><time>2026-03-29T08:17:23Z</time></trkpt><trkpt lat="44.95152072225318" lon="9.954120257578987"><ele>52.0</ele><time>2026-03-29T08:17:24Z</time></trkpt><trkpt lat="44.951588036786866" lon="9.954191034395842"><ele>52.0</ele><time>2026-03-29T08:17:25Z</time></trkpt><trkpt lat="44.951657883434066" lon="9.954262014147131"><ele>51.99999999999999</ele><time>2026-03-29T08:17:26Z</time></trkpt><trkpt lat="44.95172509580075" lon="9.954331631599644"><ele>52.0</ele><time>2026-03-29T08:17:27Z</time></trkpt><trkpt lat="44.951795140988274" lon="9.954398798586913"><ele>51.83333333333333</ele><time>2026-03-29T08:17:28Z</time></trkpt><trkpt lat="44.951863125668844" lon="9.954471913435503"><ele>51.666666666666664</ele><time>2026-03-29T08:17:29Z</time></trkpt><trkpt lat="44.95193213095059" lon="9.95454245253859"><ele>51.5</ele><time>2026-03-29T08:17:30Z</time></trkpt><trkpt lat="44.95199710001265" lon="9.954616445113233"><ele>51.33333333333333</ele><time>2026-03-29T08:17:31Z</time></trkpt><trkpt lat="44.952067706250695" lon="9.954686976039637"><ele>51.166666666666664</ele><time>2026-03-29T08:17:32Z</time></trkpt><trkpt lat="44.952138385869084" lon="9.954758549732741"><ele>51.0</ele><time>2026-03-29T08:17:33Z</time></trkpt><trkpt lat="44.95220667449853" lon="9.954825324522997"><ele>51.0</ele><time>2026-03-29T08:17:34Z</time></trkpt><trkpt lat="44.95227955096548" lon="9.954892325420392"><ele>51.0</ele><time>2026-03-29T08:17:35Z</time></trkpt><trkpt lat="44.95234881564727" lon="9.954965587854524"><ele>51.0</ele><time>2026-03-29T08:17:36Z</time></trkpt><trkpt lat="44.952413977946705" lon="9.955042082545345"><ele>51.0</ele><time>2026-03-29T08:17:37Z</time></trkpt><trkpt lat="44.95248279921477" lon="9.955116819219688"><ele>51.0</ele><time>2026-03-29T08:17:38Z</time></trkpt><trkpt lat="44.952549796267945" lon="9.955184869952747"><ele>51.0</ele><time>2026-03-29T08:17:39Z</time></trkpt><trkpt lat="44.952617996279706" lon="9.955255405692267"><ele>51.333333333333336</ele><time>2026-03-29T08:17:40Z</time></trkpt><trkpt lat="44.952686815728924" lon="9.955324090309176"><ele>51.66666666666667</ele><time>2026-03-29T08:17:41Z</time></trkpt><trkpt lat="44.952756130984305" lon="9.955392450238831"><ele>52.0</ele><time>2026-03-29T08:17:42Z</time></trkpt><trkpt lat="44.95282536069075" lon="9.955461133013818"><ele>52.333333333333336</ele><time>2026-03-29T08:17:43Z</time></trkpt><trkpt lat="44.95289249040521" lon="9.955533278960683"><ele>52.66666666666667</ele><time>2026-03-29T08:17:44Z</time></trkpt><trkpt lat="44.952963542456" lon="9.955600028952718"><ele>53.0</ele><time>2026-03-29T08:17:45Z</time></trkpt><trkpt lat="44.95303180309963" lon="9.955673971458081"><ele>53.00000000000001</ele><time>2026-03-29T08:17:46Z</time></trkpt><trkpt lat="44.95310016913761" lon="9.955743627810612"><ele>53.0</ele><time>2026-03-29T08:17:47Z</time></trkpt><trkpt lat="44.953167511882214" lon="9.955816419076646"><ele>53.0</ele><time>2026-03-29T08:17:48Z</time></trkpt><trkpt lat="44.95323350465343" lon="9.955886302522394"><ele>53.0</ele><time>2026-03-29T08:17:49Z</time></trkpt><trkpt lat="44.953304534910366" lon="9.955954117488698"><ele>53.00000000000001</ele><time>2026-03-29T08:17:50Z</time></trkpt><trkpt lat="44.95337186491581" lon="9.956024314539125"><ele>53.0</ele><time>2026-03-29T08:17:51Z</time></trkpt><trkpt lat="44.95344007133354" lon="9.956094774745639"><ele>53.00000000000001</ele><time>2026-03-29T08:17:52Z</time></trkpt><trkpt lat="44.95350717844849" lon="9.956165038497678"><ele>53.0</ele><time>2026-03-29T08:17:53Z</time></trkpt><trkpt lat="44.953576152339934" lon="9.956235420167502"><ele>53.0</ele><time>2026-03-29T08:17:54Z</time></trkpt><trkpt lat="44.95364514540513" lon="9.956303238505908"><ele>53.0</ele><time>2026-03-29T08:17:55Z</time></trkpt><trkpt lat="44.95371522502633" lon="9.956374560929502"><ele>53.00000000000001</ele><time>2026-03-29T08:17:56Z</time></trkpt><trkpt lat="44.95378589390339" lon="9.956441731408757"><ele>53.0</ele><time>2026-03-29T08:17:57Z</time></trkpt><trkpt lat="44.95385467098599" lon="9.95651207823444"><ele>53.00000000000001</ele><time>2026-03-29T08:17:58Z</time></trkpt><trkpt lat="44.95392409393488" lon="9.956581116821116"><ele>53.0</ele><time>2026-03-29T08:17:59Z</time></trkpt><trkpt lat="44.95399247562964" lon="9.956649033951456"><ele>53.0</ele><time>2026-03-29T08:18:00Z</time></trkpt><trkpt lat="44.95405970584117" lon="9.95671832101203"><ele>53.0</ele><time>2026-03-29T08:18:01Z</time></trkpt><trkpt lat="44.95412654732776" lon="9.95678593972403"><ele>53.00000000000001</ele><time>2026-03-29T08:18:02Z</time></trkpt><trkpt lat="44.95419515793255" lon="9.956851136767767"><ele>53.0</ele><time>2026-03-29T08:18:03Z</time></trkpt><trkpt lat="44.954266679601204" lon="9.956906173266606"><ele>52.66666666666667</ele><time>2026-03-29T08:18:04Z</time></trkpt><trkpt lat="44.954339734057015" lon="9.956952807975952"><ele>52.333333333333336</ele><time>2026-03-29T08:18:05Z</time></trkpt><trkpt lat="44.95441367025268" lon="9.956995584046025"><ele>52.0</ele><time>2026-03-29T08:18:06Z</time></trkpt><trkpt lat="44.954487701704984" lon="9.957037352115156"><ele>51.66666666666667</ele><time>2026-03-29T08:18:07Z</time></trkpt><trkpt lat="44.954562956558796" lon="9.957077296972452"><ele>51.333333333333336</ele><time>2026-03-29T08:18:07.999Z</time></trkpt><trkpt lat="44.95463949052626" lon="9.957112495034114"><ele>51.0</ele><time>2026-03-29T08:18:08.999Z</time></trkpt><trkpt lat="44.95471392667799" lon="9.957145668048994"><ele>51.0</ele><time>2026-03-29T08:18:09.999Z</time></trkpt><trkpt lat="44.95478838659899" lon="9.957182456167457"><ele>51.0</ele><time>2026-03-29T08:18:10.999Z</time></trkpt><trkpt lat="44.95486281514928" lon="9.957222015291672"><ele>51.0</ele><time>2026-03-29T08:18:11.999Z</time></trkpt><trkpt lat="44.954937157274856" lon="9.957258059715096"><ele>51.0</ele><time>2026-03-29T08:18:12.999Z</time></trkpt><trkpt lat="44.95501153344068" lon="9.957296663070299"><ele>51.0</ele><time>2026-03-29T08:18:13.999Z</time></trkpt><trkpt lat="44.95508406771191" lon="9.957330986621889"><ele>51.0</ele><time>2026-03-29T08:18:14.999Z</time></trkpt><trkpt lat="44.95515788234093" lon="9.957363210663585"><ele>50.666666666666664</ele><time>2026-03-29T08:18:15.999Z</time></trkpt><trkpt lat="44.95523086838967" lon="9.957397533544123"><ele>50.33333333333333</ele><time>2026-03-29T08:18:16.999Z</time></trkpt><trkpt lat="44.95530344306231" lon="9.957433288638525"><ele>50.0</ele><time>2026-03-29T08:18:17.999Z</time></trkpt><trkpt lat="44.95537817828805" lon="9.957466862353982"><ele>49.666666666666664</ele><time>2026-03-29T08:18:18.999Z</time></trkpt><trkpt lat="44.95545068233042" lon="9.957500811546497"><ele>49.33333333333333</ele><time>2026-03-29T08:18:19.999Z</time></trkpt><trkpt lat="44.95552250023964" lon="9.957538812267465"><ele>49.0</ele><time>2026-03-29T08:18:20.999Z</time></trkpt><trkpt lat="44.95559489460293" lon="9.957577059205773"><ele>48.99999999999999</ele><time>2026-03-29T08:18:21.999Z</time></trkpt><trkpt lat="44.95566743074428" lon="9.957614725533677"><ele>49.0</ele><time>2026-03-29T08:18:22.999Z</time></trkpt><trkpt lat="44.95574054516854" lon="9.957646747803974"><ele>49.0</ele><time>2026-03-29T08:18:23.999Z</time></trkpt><trkpt lat="44.955814700361465" lon="9.95767932543722"><ele>49.0</ele><time>2026-03-29T08:18:24.999Z</time></trkpt><trkpt lat="44.95588664096321" lon="9.957712058063565"><ele>48.99999999999999</ele><time>2026-03-29T08:18:25.999Z</time></trkpt><trkpt lat="44.95595924606393" lon="9.957748534521555"><ele>49.0</ele><time>2026-03-29T08:18:26.999Z</time></trkpt><trkpt lat="44.9560312830146" lon="9.957784092165953"><ele>48.99999999999999</ele><time>2026-03-29T08:18:27.999Z</time></trkpt><trkpt lat="44.95610416101928" lon="9.95782074671155"><ele>49.0</ele><time>2026-03-29T08:18:28.999Z</time></trkpt><trkpt lat="44.956176068548" lon="9.957855365649474"><ele>49.0</ele><time>2026-03-29T08:18:29.999Z</time></trkpt><trkpt lat="44.95624906936764" lon="9.957890428734727"><ele>49.0</ele><time>2026-03-29T08:18:30.999Z</time></trkpt><trkpt lat="44.95631966849616" lon="9.9579295220519"><ele>48.99999999999999</ele><time>2026-03-29T08:18:31.999Z</time></trkpt><trkpt lat="44.95639252497697" lon="9.95796854160907"><ele>49.0</ele><time>2026-03-29T08:18:32.999Z</time></trkpt><trkpt lat="44.95646521177215" lon="9.958007030094343"><ele>48.99999999999999</ele><time>2026-03-29T08:18:33.999Z</time></trkpt><trkpt lat="44.956536704157095" lon="9.958046330438428"><ele>49.0</ele><time>2026-03-29T08:18:34.999Z</time></trkpt><trkpt lat="44.95660793621152" lon="9.95808880938964"><ele>49.0</ele><time>2026-03-29T08:18:35.999Z</time></trkpt><trkpt lat="44.956678064335364" lon="9.958133339245824"><ele>49.0</ele><time>2026-03-29T08:18:36.999Z</time></trkpt><trkpt lat="44.956747788185005" lon="9.958181931245356"><ele>48.99999999999999</ele><time>2026-03-29T08:18:37.999Z</time></trkpt><trkpt lat="44.956818041949575" lon="9.958226661832544"><ele>49.0</ele><time>2026-03-29T08:18:38.999Z</time></trkpt><trkpt lat="44.9568876178972" lon="9.958273123987484"><ele>48.83333333333333</ele><time>2026-03-29T08:18:39.999Z</time></trkpt><trkpt lat="44.956955272721366" lon="9.958319483012978"><ele>48.666666666666664</ele><time>2026-03-29T08:18:40.999Z</time></trkpt><trkpt lat="44.95702352353593" lon="9.958364210045142"><ele>48.5</ele><time>2026-03-29T08:18:41.999Z</time></trkpt><trkpt lat="44.95709344002045" lon="9.958409398603223"><ele>48.33333333333333</ele><time>2026-03-29T08:18:42.999Z</time></trkpt><trkpt lat="44.95716144738051" lon="9.958455175405241"><ele>48.166666666666664</ele><time>2026-03-29T08:18:43.999Z</time></trkpt><trkpt lat="44.95723063217238" lon="9.958500514010822"><ele>48.0</ele><time>2026-03-29T08:18:44.999Z</time></trkpt><trkpt lat="44.9573005194203" lon="9.958546706646391"><ele>48.333333333333336</ele><time>2026-03-29T08:18:45.999Z</time></trkpt><trkpt lat="44.957370919692686" lon="9.958591338218875"><ele>48.66666666666667</ele><time>2026-03-29T08:18:46.999Z</time></trkpt><trkpt lat="44.957438194028995" lon="9.95863897066893"><ele>49.0</ele><time>2026-03-29T08:18:47.999Z</time></trkpt><trkpt lat="44.957508144362535" lon="9.958683699057726"><ele>49.333333333333336</ele><time>2026-03-29T08:18:48.999Z</time></trkpt><trkpt lat="44.957576672562176" lon="9.958730235118109"><ele>49.66666666666667</ele><time>2026-03-29T08:18:49.999Z</time></trkpt><trkpt lat="44.95764611977245" lon="9.958772597063472"><ele>50.0</ele><time>2026-03-29T08:18:50.999Z</time></trkpt><trkpt lat="44.95771666367145" lon="9.95881763539435"><ele>50.00000000000001</ele><time>2026-03-29T08:18:51.999Z</time></trkpt><trkpt lat="44.95778573687514" lon="9.958863070329857"><ele>50.0</ele><time>2026-03-29T08:18:52.999Z</time></trkpt><trkpt lat="44.95785360940189" lon="9.958906156287668"><ele>50.0</ele><time>2026-03-29T08:18:53.999Z</time></trkpt><trkpt lat="44.95792171735681" lon="9.958951833925402"><ele>50.0</ele><time>2026-03-29T08:18:54.999Z</time></trkpt><trkpt lat="44.95799037175348" lon="9.958996910563545"><ele>50.00000000000001</ele><time>2026-03-29T08:18:55.999Z</time></trkpt><trkpt lat="44.95805879813329" lon="9.95904275030533"><ele>50.0</ele><time>2026-03-29T08:18:56.999Z</time></trkpt><trkpt lat="44.95812740940262" lon="9.959085961204583"><ele>50.00000000000001</ele><time>2026-03-29T08:18:57.999Z</time></trkpt><trkpt lat="44.95819649705683" lon="9.959130567580488"><ele>50.0</ele><time>2026-03-29T08:18:58.999Z</time></trkpt><trkpt lat="44.95826476148729" lon="9.959175427740321"><ele>50.0</ele><time>2026-03-29T08:18:59.999Z</time></trkpt><trkpt lat="44.958333370273714" lon="9.959221129138292"><ele>50.0</ele><time>2026-03-29T08:19:00.999Z</time></trkpt><trkpt lat="44.95840235318187" lon="9.959265287410503"><ele>50.00000000000001</ele><time>2026-03-29T08:19:01.998Z</time></trkpt><trkpt lat="44.958470728268864" lon="9.95930894185162"><ele>50.0</ele><time>2026-03-29T08:19:02.998Z</time></trkpt><trkpt lat="44.95853991612794" lon="9.959351321040762"><ele>50.16666666666667</ele><time>2026-03-29T08:19:03.998Z</time></trkpt><trkpt lat="44.95860940143932" lon="9.959391509822058"><ele>50.333333333333336</ele><time>2026-03-29T08:19:04.998Z</time></trkpt><trkpt lat="44.9586817528317" lon="9.959428416329805"><ele>50.5</ele><time>2026-03-29T08:19:05.998Z</time></trkpt><trkpt lat="44.95875396320803" lon="9.959457516338238"><ele>50.66666666666667</ele><time>2026-03-29T08:19:06.998Z</time></trkpt><trkpt lat="44.95882814487102" lon="9.959482285112689"><ele>50.833333333333336</ele><time>2026-03-29T08:19:07.998Z</time></trkpt><trkpt lat="44.95890472528085" lon="9.959498037416443"><ele>51.0</ele><time>2026-03-29T08:19:08.998Z</time></trkpt><trkpt lat="44.95898212079026" lon="9.959508521834241"><ele>51.0</ele><time>2026-03-29T08:19:09.998Z</time></trkpt><trkpt lat="44.959060952879014" lon="9.959515535492597"><ele>51.0</ele><time>2026-03-29T08:19:10.998Z</time></trkpt><trkpt lat="44.95913896758513" lon="9.959517313294386"><ele>51.0</ele><time>2026-03-29T08:19:11.998Z</time></trkpt><trkpt lat="44.959219239526604" lon="9.959517974571076"><ele>51.0</ele><time>2026-03-29T08:19:12.998Z</time></trkpt><trkpt lat="44.95929842602703" lon="9.95952273484954"><ele>51.0</ele><time>2026-03-29T08:19:13.998Z</time></trkpt><trkpt lat="44.959376135115676" lon="9.959529404544435"><ele>51.0</ele><time>2026-03-29T08:19:14.998Z</time></trkpt><trkpt lat="44.95945443975618" lon="9.959536307389516"><ele>51.166666666666664</ele><time>2026-03-29T08:19:15.998Z</time></trkpt><trkpt lat="44.959533646906756" lon="9.959536769817872"><ele>51.33333333333333</ele><time>2026-03-29T08:19:16.998Z</time></trkpt><trkpt lat="44.959612712871625" lon="9.959542161828967"><ele>51.5</ele><time>2026-03-29T08:19:17.998Z</time></trkpt><trkpt lat="44.95969080167922" lon="9.95954379769381"><ele>51.666666666666664</ele><time>2026-03-29T08:19:18.998Z</time></trkpt><trkpt lat="44.95977027501331" lon="9.959548689236268"><ele>51.83333333333333</ele><time>2026-03-29T08:19:19.998Z</time></trkpt><trkpt lat="44.95984789685005" lon="9.959550802625838"><ele>52.0</ele><time>2026-03-29T08:19:20.998Z</time></trkpt><trkpt lat="44.959929180029285" lon="9.959556905163844"><ele>51.99999999999999</ele><time>2026-03-29T08:19:21.998Z</time></trkpt><trkpt lat="44.96000663682166" lon="9.959561107618455"><ele>52.0</ele><time>2026-03-29T08:19:22.998Z</time></trkpt><trkpt lat="44.960085880339356" lon="9.959564767584311"><ele>52.0</ele><time>2026-03-29T08:19:23.998Z</time></trkpt><trkpt lat="44.96016655635716" lon="9.959568357415405"><ele>52.0</ele><time>2026-03-29T08:19:24.998Z</time></trkpt><trkpt lat="44.96024502801666" lon="9.959572400233842"><ele>51.99999999999999</ele><time>2026-03-29T08:19:25.998Z</time></trkpt><trkpt lat="44.96032305480061" lon="9.959581113406832"><ele>52.0</ele><time>2026-03-29T08:19:26.998Z</time></trkpt><trkpt lat="44.96040153035077" lon="9.959591978882239"><ele>51.83333333333333</ele><time>2026-03-29T08:19:28Z</time></trkpt><trkpt lat="44.96047893863836" lon="9.959599642884406"><ele>51.666666666666664</ele><time>2026-03-29T08:19:29Z</time></trkpt><trkpt lat="44.96055640182171" lon="9.959604231408148"><ele>51.5</ele><time>2026-03-29T08:19:30Z</time></trkpt><trkpt lat="44.96063709740126" lon="9.959607528056043"><ele>51.33333333333333</ele><time>2026-03-29T08:19:31Z</time></trkpt><trkpt lat="44.96071624302639" lon="9.959610937710911"><ele>51.166666666666664</ele><time>2026-03-29T08:19:32Z</time></trkpt><trkpt lat="44.96079470093157" lon="9.959617580723204"><ele>51.0</ele><time>2026-03-29T08:19:33Z</time></trkpt><trkpt lat="44.9608739418233" lon="9.9596227581674"><ele>50.5</ele><time>2026-03-29T08:19:34Z</time></trkpt><trkpt lat="44.960953285700526" lon="9.959630905406195"><ele>50.0</ele><time>2026-03-29T08:19:35Z</time></trkpt><trkpt lat="44.96103253086083" lon="9.959638468677763"><ele>49.5</ele><time>2026-03-29T08:19:36Z</time></trkpt><trkpt lat="44.96111167056764" lon="9.95964464164074"><ele>49.0</ele><time>2026-03-29T08:19:37Z</time></trkpt><trkpt lat="44.961191156997444" lon="9.95964881649587"><ele>48.5</ele><time>2026-03-29T08:19:38Z</time></trkpt><trkpt lat="44.96127101308181" lon="9.959650437397414"><ele>48.0</ele><time>2026-03-29T08:19:39Z</time></trkpt><trkpt lat="44.961351405107294" lon="9.95965480297133"><ele>48.0</ele><time>2026-03-29T08:19:40Z</time></trkpt><trkpt lat="44.96143157528003" lon="9.959660601741563"><ele>48.0</ele><time>2026-03-29T08:19:41Z</time></trkpt><trkpt lat="44.96151132746843" lon="9.9596657123508"><ele>48.0</ele><time>2026-03-29T08:19:42Z</time></trkpt><trkpt lat="44.961591929345715" lon="9.959669885897085"><ele>48.0</ele><time>2026-03-29T08:19:43Z</time></trkpt><trkpt lat="44.96167072647233" lon="9.959677718084963"><ele>48.0</ele><time>2026-03-29T08:19:44Z</time></trkpt><trkpt lat="44.961750535531856" lon="9.959684365825328"><ele>48.0</ele><time>2026-03-29T08:19:45Z</time></trkpt><trkpt lat="44.96183057673445" lon="9.959684761933946"><ele>48.166666666666664</ele><time>2026-03-29T08:19:46Z</time></trkpt><trkpt lat="44.9619094204895" lon="9.959688547390744"><ele>48.33333333333333</ele><time>2026-03-29T08:19:47Z</time></trkpt><trkpt lat="44.9619887925033" lon="9.959690290725735"><ele>48.5</ele><time>2026-03-29T08:19:48Z</time></trkpt><trkpt lat="44.96207010987732" lon="9.959695424504629"><ele>48.666666666666664</ele><time>2026-03-29T08:19:49Z</time></trkpt><trkpt lat="44.9621478897679" lon="9.959698164811154"><ele>48.83333333333333</ele><time>2026-03-29T08:19:50Z</time></trkpt><trkpt lat="44.962230238436376" lon="9.959703340305083"><ele>49.0</ele><time>2026-03-29T08:19:51Z</time></trkpt><trkpt lat="44.96231041408993" lon="9.959707286616473"><ele>48.99999999999999</ele><time>2026-03-29T08:19:52Z</time></trkpt><trkpt lat="44.96239165903392" lon="9.959710831519818"><ele>49.0</ele><time>2026-03-29T08:19:53Z</time></trkpt><trkpt lat="44.96247286219413" lon="9.959716145249594"><ele>49.0</ele><time>2026-03-29T08:19:54Z</time></trkpt><trkpt lat="44.96255424603776" lon="9.959718854175659"><ele>49.0</ele><time>2026-03-29T08:19:55Z</time></trkpt><trkpt lat="44.96263502322931" lon="9.959724663810547"><ele>48.99999999999999</ele><time>2026-03-29T08:19:56Z</time></trkpt><trkpt lat="44.962717652917654" lon="9.95973197674513"><ele>49.0</ele><time>2026-03-29T08:19:57Z</time></trkpt><trkpt lat="44.96279939044985" lon="9.95973671712987"><ele>48.99999999999999</ele><time>2026-03-29T08:19:58Z</time></trkpt><trkpt lat="44.96288036740728" lon="9.959738774712573"><ele>49.0</ele><time>2026-03-29T08:19:59Z</time></trkpt><trkpt lat="44.96296187752705" lon="9.959743365404456"><ele>49.0</ele><time>2026-03-29T08:20:00Z</time></trkpt><trkpt lat="44.96304455598713" lon="9.959749277969847"><ele>49.0</ele><time>2026-03-29T08:20:01Z</time></trkpt><trkpt lat="44.963126411643344" lon="9.959753976337247"><ele>48.99999999999999</ele><time>2026-03-29T08:20:02Z</time></trkpt><trkpt lat="44.963208791079296" lon="9.959758484204226"><ele>49.0</ele><time>2026-03-29T08:20:03Z</time></trkpt><trkpt lat="44.9632907952478" lon="9.95976429235105"><ele>49.49999999999999</ele><time>2026-03-29T08:20:04Z</time></trkpt><trkpt lat="44.96337360170969" lon="9.959770274473021"><ele>50.0</ele><time>2026-03-29T08:20:05Z</time></trkpt><trkpt lat="44.963455651801546" lon="9.959774375501178"><ele>50.5</ele><time>2026-03-29T08:20:06Z</time></trkpt><trkpt lat="44.96353516395773" lon="9.959779162135776"><ele>51.0</ele><time>2026-03-29T08:20:07Z</time></trkpt><trkpt lat="44.96361232103296" lon="9.959780384486196"><ele>51.49999999999999</ele><time>2026-03-29T08:20:08Z</time></trkpt><trkpt lat="44.96368828609671" lon="9.959785799964342"><ele>52.0</ele><time>2026-03-29T08:20:09Z</time></trkpt><trkpt lat="44.96376168012567" lon="9.959790708090207"><ele>52.0</ele><time>2026-03-29T08:20:10Z</time></trkpt><trkpt lat="44.96383254986659" lon="9.959792621267697"><ele>52.0</ele><time>2026-03-29T08:20:11Z</time></trkpt><trkpt lat="44.96390295937437" lon="9.95979415962054"><ele>52.0</ele><time>2026-03-29T08:20:12Z</time></trkpt><trkpt lat="44.96397373813644" lon="9.959800269961608"><ele>52.0</ele><time>2026-03-29T08:20:13Z</time></trkpt><trkpt lat="44.96404361931043" lon="9.959809376991402"><ele>52.0</ele><time>2026-03-29T08:20:13.999Z</time></trkpt><trkpt lat="44.96411285351748" lon="9.959815477634427"><ele>52.0</ele><time>2026-03-29T08:20:14.999Z</time></trkpt><trkpt lat="44.96418043554992" lon="9.959819203827685"><ele>52.0</ele><time>2026-03-29T08:20:15.999Z</time></trkpt><trkpt lat="44.96424563119985" lon="9.959820743868443"><ele>51.25</ele><time>2026-03-29T08:20:16.999Z</time></trkpt><trkpt lat="44.96436911027933" lon="9.959832001687293"><ele>50.5</ele><time>2026-03-29T08:20:18.999Z</time></trkpt><trkpt lat="44.96447724363439" lon="9.959836316577565"><ele>49.75</ele><time>2026-03-29T08:20:20.999Z</time></trkpt><trkpt lat="44.96452228379887" lon="9.960020706114792"><ele>49.0</ele><time>2026-03-29T08:20:23.999Z</time></trkpt><trkpt lat="44.964504452981814" lon="9.960185076312033"><ele>48.83333333333333</ele><time>2026-03-29T08:20:25.999Z</time></trkpt><trkpt lat="44.96449464431897" lon="9.960357608039665"><ele>48.666666666666664</ele><time>2026-03-29T08:20:27.999Z</time></trkpt><trkpt lat="44.964492832124854" lon="9.960448329640142"><ele>48.5</ele><time>2026-03-29T08:20:28.999Z</time></trkpt><trkpt lat="44.96449188534968" lon="9.960543585658776"><ele>48.33333333333333</ele><time>2026-03-29T08:20:29.999Z</time></trkpt><trkpt lat="44.96448958837079" lon="9.96063967259778"><ele>48.166666666666664</ele><time>2026-03-29T08:20:30.999Z</time></trkpt><trkpt lat="44.96448646675175" lon="9.960734729488106"><ele>48.0</ele><time>2026-03-29T08:20:31.999Z</time></trkpt><trkpt lat="44.964481540830555" lon="9.960828392418486"><ele>47.99999999999999</ele><time>2026-03-29T08:20:32.999Z</time></trkpt><trkpt lat="44.96447996733785" lon="9.960926727163624"><ele>48.0</ele><time>2026-03-29T08:20:33.999Z</time></trkpt><trkpt lat="44.96447643468594" lon="9.96102711257261"><ele>48.0</ele><time>2026-03-29T08:20:34.999Z</time></trkpt><trkpt lat="44.96447713676759" lon="9.961130083042251"><ele>48.0</ele><time>2026-03-29T08:20:35.999Z</time></trkpt><trkpt lat="44.96447530721208" lon="9.961233662609965"><ele>48.0</ele><time>2026-03-29T08:20:36.999Z</time></trkpt><trkpt lat="44.96447283667538" lon="9.96133675825915"><ele>47.99999999999999</ele><time>2026-03-29T08:20:37.999Z</time></trkpt><trkpt lat="44.96446838245696" lon="9.96144136911819"><ele>48.0</ele><time>2026-03-29T08:20:38.999Z</time></trkpt><trkpt lat="44.96446571414107" lon="9.961546731213689"><ele>48.0</ele><time>2026-03-29T08:20:39.999Z</time></trkpt><trkpt lat="44.964461979842326" lon="9.961651460144564"><ele>48.0</ele><time>2026-03-29T08:20:40.999Z</time></trkpt><trkpt lat="44.96445814539097" lon="9.961757934053482"><ele>48.0</ele><time>2026-03-29T08:20:41.999Z</time></trkpt><trkpt lat="44.96445414683274" lon="9.961866013325473"><ele>48.0</ele><time>2026-03-29T08:20:42.999Z</time></trkpt><trkpt lat="44.96445294684705" lon="9.961973474724413"><ele>48.0</ele><time>2026-03-29T08:20:43.999Z</time></trkpt><trkpt lat="44.964450512734146" lon="9.96208270177675"><ele>48.0</ele><time>2026-03-29T08:20:44.999Z</time></trkpt><trkpt lat="44.964445871008394" lon="9.962192399791324"><ele>48.5</ele><time>2026-03-29T08:20:45.999Z</time></trkpt><trkpt lat="44.96444131902993" lon="9.962302283326489"><ele>49.0</ele><time>2026-03-29T08:20:46.999Z</time></trkpt><trkpt lat="44.96443712616975" lon="9.962412325325579"><ele>49.5</ele><time>2026-03-29T08:20:47.999Z</time></trkpt><trkpt lat="44.964435759671424" lon="9.962525087096386"><ele>50.0</ele><time>2026-03-29T08:20:48.999Z</time></trkpt><trkpt lat="44.96443554721053" lon="9.962638520320233"><ele>50.5</ele><time>2026-03-29T08:20:49.999Z</time></trkpt><trkpt lat="44.9644333529276" lon="9.962750784711849"><ele>51.0</ele><time>2026-03-29T08:20:50.999Z</time></trkpt><trkpt lat="44.96442914920549" lon="9.962864236740577"><ele>51.166666666666664</ele><time>2026-03-29T08:20:51.999Z</time></trkpt><trkpt lat="44.96442361931172" lon="9.962977686560292"><ele>51.33333333333333</ele><time>2026-03-29T08:20:52.999Z</time></trkpt><trkpt lat="44.96442059868326" lon="9.963089072887504"><ele>51.5</ele><time>2026-03-29T08:20:53.999Z</time></trkpt><trkpt lat="44.96441712704984" lon="9.963205424670246"><ele>51.666666666666664</ele><time>2026-03-29T08:20:54.999Z</time></trkpt><trkpt lat="44.96441189838147" lon="9.963316130294452"><ele>51.83333333333333</ele><time>2026-03-29T08:20:55.999Z</time></trkpt><trkpt lat="44.964407978161795" lon="9.963427198128077"><ele>52.0</ele><time>2026-03-29T08:20:56.999Z</time></trkpt><trkpt lat="44.96440331775039" lon="9.963540862868296"><ele>51.666666666666664</ele><time>2026-03-29T08:20:57.999Z</time></trkpt><trkpt lat="44.96440002234782" lon="9.963651299357238"><ele>51.33333333333333</ele><time>2026-03-29T08:20:58.999Z</time></trkpt><trkpt lat="44.96439584147721" lon="9.963762799446785"><ele>51.0</ele><time>2026-03-29T08:20:59.999Z</time></trkpt><trkpt lat="44.96439173679278" lon="9.963874570258998"><ele>50.66666666666667</ele><time>2026-03-29T08:21:00.999Z</time></trkpt><trkpt lat="44.964383721304216" lon="9.963987020237916"><ele>50.333333333333336</ele><time>2026-03-29T08:21:01.999Z</time></trkpt><trkpt lat="44.96437916116059" lon="9.96409974831941"><ele>50.0</ele><time>2026-03-29T08:21:02.999Z</time></trkpt><trkpt lat="44.96437343159764" lon="9.964213312221728"><ele>50.00000000000001</ele><time>2026-03-29T08:21:03.999Z</time></trkpt><trkpt lat="44.964367757742295" lon="9.964329091865574"><ele>50.0</ele><time>2026-03-29T08:21:04.999Z</time></trkpt><trkpt lat="44.96436259276352" lon="9.964442350988206"><ele>50.0</ele><time>2026-03-29T08:21:05.999Z</time></trkpt><trkpt lat="44.96436107957649" lon="9.964558674666241"><ele>50.0</ele><time>2026-03-29T08:21:06.998Z</time></trkpt><trkpt lat="44.96435359490243" lon="9.964673637987872"><ele>50.00000000000001</ele><time>2026-03-29T08:21:07.998Z</time></trkpt><trkpt lat="44.96434681323699" lon="9.964787894318444"><ele>50.0</ele><time>2026-03-29T08:21:08.998Z</time></trkpt><trkpt lat="44.96433761369736" lon="9.964899577130977"><ele>50.00000000000001</ele><time>2026-03-29T08:21:09.998Z</time></trkpt><trkpt lat="44.964330222221754" lon="9.96501249397192"><ele>50.0</ele><time>2026-03-29T08:21:10.998Z</time></trkpt><trkpt lat="44.96432353950253" lon="9.965126788054041"><ele>50.0</ele><time>2026-03-29T08:21:11.998Z</time></trkpt><trkpt lat="44.96431585146363" lon="9.965237327165054"><ele>50.0</ele><time>2026-03-29T08:21:12.998Z</time></trkpt><trkpt lat="44.964307023930324" lon="9.965351800273579"><ele>50.00000000000001</ele><time>2026-03-29T08:21:13.998Z</time></trkpt><trkpt lat="44.9643004285578" lon="9.965464938668802"><ele>50.0</ele><time>2026-03-29T08:21:14.998Z</time></trkpt><trkpt lat="44.96429440917223" lon="9.965576682002174"><ele>50.00000000000001</ele><time>2026-03-29T08:21:15.998Z</time></trkpt><trkpt lat="44.96428607354533" lon="9.965688904746363"><ele>50.0</ele><time>2026-03-29T08:21:16.998Z</time></trkpt><trkpt lat="44.9642799907172" lon="9.965798752555056"><ele>50.0</ele><time>2026-03-29T08:21:17.998Z</time></trkpt><trkpt lat="44.96427309443864" lon="9.965909972797903"><ele>50.0</ele><time>2026-03-29T08:21:18.998Z</time></trkpt><trkpt lat="44.96427167766816" lon="9.966019136243734"><ele>50.00000000000001</ele><time>2026-03-29T08:21:19.998Z</time></trkpt><trkpt lat="44.964291294969534" lon="9.966121948476639"><ele>50.0</ele><time>2026-03-29T08:21:20.998Z</time></trkpt><trkpt lat="44.964331801212566" lon="9.966208390707447"><ele>50.00000000000001</ele><time>2026-03-29T08:21:21.998Z</time></trkpt><trkpt lat="44.96439247146984" lon="9.966269980882737"><ele>50.0</ele><time>2026-03-29T08:21:22.998Z</time></trkpt><trkpt lat="44.96445802840894" lon="9.966305659651114"><ele>50.0</ele><time>2026-03-29T08:21:23.998Z</time></trkpt><trkpt lat="44.964531822337555" lon="9.966327663713809"><ele>50.0</ele><time>2026-03-29T08:21:24.998Z</time></trkpt><trkpt lat="44.964599399000655" lon="9.966347396817612"><ele>50.0</ele><time>2026-03-29T08:21:25.998Z</time></trkpt><trkpt lat="44.96466699662941" lon="9.96636413937772"><ele>50.00000000000001</ele><time>2026-03-29T08:21:26.998Z</time></trkpt><trkpt lat="44.96473096071807" lon="9.966382284376857"><ele>50.0</ele><time>2026-03-29T08:21:27.998Z</time></trkpt><trkpt lat="44.964791688234044" lon="9.966406059671232"><ele>50.00000000000001</ele><time>2026-03-29T08:21:28.998Z</time></trkpt><trkpt lat="44.96488202148713" lon="9.966532636545853"><ele>50.0</ele><time>2026-03-29T08:21:30.998Z</time></trkpt><trkpt lat="44.96489716815485" lon="9.96662989887865"><ele>50.0</ele><time>2026-03-29T08:21:31.998Z</time></trkpt><trkpt lat="44.96489207880765" lon="9.966731049157094"><ele>50.0</ele><time>2026-03-29T08:21:32.998Z</time></trkpt><trkpt lat="44.964882828941654" lon="9.966837078530995"><ele>50.00000000000001</ele><time>2026-03-29T08:21:34Z</time></trkpt><trkpt lat="44.96488226150745" lon="9.966940016510232"><ele>50.0</ele><time>2026-03-29T08:21:35Z</time></trkpt><trkpt lat="44.96488554258989" lon="9.967046837191196"><ele>50.00000000000001</ele><time>2026-03-29T08:21:36Z</time></trkpt><trkpt lat="44.96488754420079" lon="9.967155691148228"><ele>50.0</ele><time>2026-03-29T08:21:37Z</time></trkpt><trkpt lat="44.96488813411135" lon="9.967265591943361"><ele>50.0</ele><time>2026-03-29T08:21:38Z</time></trkpt><trkpt lat="44.96488870976945" lon="9.967375876873062"><ele>50.0</ele><time>2026-03-29T08:21:39Z</time></trkpt><trkpt lat="44.96489077018094" lon="9.967487159667256"><ele>50.00000000000001</ele><time>2026-03-29T08:21:40Z</time></trkpt><trkpt lat="44.96488744207646" lon="9.967599864053097"><ele>50.0</ele><time>2026-03-29T08:21:41Z</time></trkpt><trkpt lat="44.96488451724063" lon="9.967711523863922"><ele>49.66666666666667</ele><time>2026-03-29T08:21:42Z</time></trkpt><trkpt lat="44.96488278971064" lon="9.967823475500182"><ele>49.333333333333336</ele><time>2026-03-29T08:21:43Z</time></trkpt><trkpt lat="44.964879947464176" lon="9.967937232577878"><ele>49.0</ele><time>2026-03-29T08:21:44Z</time></trkpt><trkpt lat="44.96487824387113" lon="9.968049437705728"><ele>48.66666666666667</ele><time>2026-03-29T08:21:45Z</time></trkpt><trkpt lat="44.96487468382395" lon="9.96816459122762"><ele>48.333333333333336</ele><time>2026-03-29T08:21:46Z</time></trkpt><trkpt lat="44.964871044322436" lon="9.968279311009125"><ele>48.0</ele><time>2026-03-29T08:21:47Z</time></trkpt><trkpt lat="44.96486626126511" lon="9.96839268747699"><ele>48.0</ele><time>2026-03-29T08:21:48Z</time></trkpt><trkpt lat="44.9648547995709" lon="9.968509376863908"><ele>48.0</ele><time>2026-03-29T08:21:49Z</time></trkpt><trkpt lat="44.96484513811014" lon="9.968622912034455"><ele>48.0</ele><time>2026-03-29T08:21:50Z</time></trkpt><trkpt lat="44.96483280086074" lon="9.968735460587697"><ele>48.0</ele><time>2026-03-29T08:21:51Z</time></trkpt><trkpt lat="44.96482147899513" lon="9.968849515821686"><ele>48.0</ele><time>2026-03-29T08:21:52Z</time></trkpt><trkpt lat="44.96481234542763" lon="9.968963757587792"><ele>48.0</ele><time>2026-03-29T08:21:53Z</time></trkpt><trkpt lat="44.964801131134884" lon="9.969079698535962"><ele>48.0</ele><time>2026-03-29T08:21:54Z</time></trkpt><trkpt lat="44.96479190022486" lon="9.969193761640597"><ele>48.0</ele><time>2026-03-29T08:21:55Z</time></trkpt><trkpt lat="44.96478514014841" lon="9.969308213114283"><ele>48.0</ele><time>2026-03-29T08:21:56Z</time></trkpt><trkpt lat="44.96477751616429" lon="9.969422238814984"><ele>48.0</ele><time>2026-03-29T08:21:57Z</time></trkpt><trkpt lat="44.96476950981723" lon="9.969536908648566"><ele>48.0</ele><time>2026-03-29T08:21:58Z</time></trkpt><trkpt lat="44.96476156314308" lon="9.969651051656351"><ele>48.0</ele><time>2026-03-29T08:21:59Z</time></trkpt><trkpt lat="44.964754771205634" lon="9.969762831133092"><ele>48.0</ele><time>2026-03-29T08:22:00Z</time></trkpt><trkpt lat="44.96474888378359" lon="9.969875809158685"><ele>48.0</ele><time>2026-03-29T08:22:01Z</time></trkpt><trkpt lat="44.964742306113656" lon="9.96998997300019"><ele>48.0</ele><time>2026-03-29T08:22:02Z</time></trkpt><trkpt lat="44.96473917617726" lon="9.970103301042062"><ele>48.0</ele><time>2026-03-29T08:22:03Z</time></trkpt><trkpt lat="44.964737510959495" lon="9.970218071985125"><ele>48.0</ele><time>2026-03-29T08:22:04Z</time></trkpt><trkpt lat="44.964739596941854" lon="9.970334444897869"><ele>48.0</ele><time>2026-03-29T08:22:05Z</time></trkpt><trkpt lat="44.96474289080065" lon="9.970447949068214"><ele>48.0</ele><time>2026-03-29T08:22:06Z</time></trkpt><trkpt lat="44.96474940613181" lon="9.970561979028556"><ele>48.0</ele><time>2026-03-29T08:22:07Z</time></trkpt><trkpt lat="44.96475727518584" lon="9.970679272681181"><ele>48.0</ele><time>2026-03-29T08:22:08Z</time></trkpt><trkpt lat="44.96476641227693" lon="9.970793388654238"><ele>48.0</ele><time>2026-03-29T08:22:09Z</time></trkpt><trkpt lat="44.964777701038855" lon="9.970909400161558"><ele>48.0</ele><time>2026-03-29T08:22:10Z</time></trkpt><trkpt lat="44.96478637029875" lon="9.971027292355934"><ele>48.0</ele><time>2026-03-29T08:22:11Z</time></trkpt><trkpt lat="44.964794857940554" lon="9.97114284938369"><ele>48.0</ele><time>2026-03-29T08:22:12Z</time></trkpt><trkpt lat="44.96480475499974" lon="9.971258889682773"><ele>48.0</ele><time>2026-03-29T08:22:13Z</time></trkpt><trkpt lat="44.96481399224068" lon="9.971371303074429"><ele>48.0</ele><time>2026-03-29T08:22:14Z</time></trkpt><trkpt lat="44.96482245178017" lon="9.971487045637621"><ele>48.0</ele><time>2026-03-29T08:22:15Z</time></trkpt><trkpt lat="44.96482833548001" lon="9.971603709383025"><ele>48.0</ele><time>2026-03-29T08:22:16Z</time></trkpt><trkpt lat="44.96483347745998" lon="9.971720859123488"><ele>48.0</ele><time>2026-03-29T08:22:16.999Z</time></trkpt><trkpt lat="44.96483855550665" lon="9.971836733630601"><ele>47.833333333333336</ele><time>2026-03-29T08:22:17.999Z</time></trkpt><trkpt lat="44.96484158168252" lon="9.971951439844682"><ele>47.666666666666664</ele><time>2026-03-29T08:22:18.999Z</time></trkpt><trkpt lat="44.96484435112306" lon="9.972067697021814"><ele>47.5</ele><time>2026-03-29T08:22:19.999Z</time></trkpt><trkpt lat="44.964843722725334" lon="9.972190559514283"><ele>47.33333333333333</ele><time>2026-03-29T08:22:20.999Z</time></trkpt><trkpt lat="44.96484005752446" lon="9.972310874095133"><ele>47.166666666666664</ele><time>2026-03-29T08:22:21.999Z</time></trkpt><trkpt lat="44.964831891676006" lon="9.9724306176271"><ele>47.0</ele><time>2026-03-29T08:22:22.999Z</time></trkpt><trkpt lat="44.96482270205749" lon="9.972550273089869"><ele>46.83333333333333</ele><time>2026-03-29T08:22:23.999Z</time></trkpt><trkpt lat="44.964812766361135" lon="9.97267024765828"><ele>46.666666666666664</ele><time>2026-03-29T08:22:24.999Z</time></trkpt><trkpt lat="44.9648013442108" lon="9.972788042923098"><ele>46.5</ele><time>2026-03-29T08:22:25.999Z</time></trkpt><trkpt lat="44.964789824928474" lon="9.972908026084037"><ele>46.333333333333336</ele><time>2026-03-29T08:22:26.999Z</time></trkpt><trkpt lat="44.964780394063894" lon="9.973024981491662"><ele>46.16666666666667</ele><time>2026-03-29T08:22:27.999Z</time></trkpt><trkpt lat="44.964767485018896" lon="9.973143848880392"><ele>46.0</ele><time>2026-03-29T08:22:28.999Z</time></trkpt><trkpt lat="44.96475608781232" lon="9.973261416119646"><ele>46.5</ele><time>2026-03-29T08:22:29.999Z</time></trkpt><trkpt lat="44.96474368432443" lon="9.973381605146608"><ele>47.0</ele><time>2026-03-29T08:22:30.999Z</time></trkpt><trkpt lat="44.96473071318507" lon="9.973501425076998"><ele>47.5</ele><time>2026-03-29T08:22:31.999Z</time></trkpt><trkpt lat="44.964717812768434" lon="9.973621061411205"><ele>48.0</ele><time>2026-03-29T08:22:32.999Z</time></trkpt><trkpt lat="44.96470650752298" lon="9.973740729325973"><ele>48.49999999999999</ele><time>2026-03-29T08:22:33.999Z</time></trkpt><trkpt lat="44.964698186014" lon="9.973862201283204"><ele>49.0</ele><time>2026-03-29T08:22:34.999Z</time></trkpt><trkpt lat="44.964692695851305" lon="9.973982862026876"><ele>48.99999999999999</ele><time>2026-03-29T08:22:35.999Z</time></trkpt><trkpt lat="44.96469066567705" lon="9.974103013015775"><ele>49.0</ele><time>2026-03-29T08:22:36.999Z</time></trkpt><trkpt lat="44.964686491541514" lon="9.974223474186953"><ele>49.0</ele><time>2026-03-29T08:22:37.999Z</time></trkpt><trkpt lat="44.96468291106905" lon="9.974342472522551"><ele>49.0</ele><time>2026-03-29T08:22:38.999Z</time></trkpt><trkpt lat="44.964682746228355" lon="9.974460828272422"><ele>48.99999999999999</ele><time>2026-03-29T08:22:39.999Z</time></trkpt><trkpt lat="44.96468587078013" lon="9.97457583125969"><ele>49.0</ele><time>2026-03-29T08:22:40.999Z</time></trkpt><trkpt lat="44.96468812909682" lon="9.974687829476103"><ele>48.83333333333333</ele><time>2026-03-29T08:22:41.999Z</time></trkpt><trkpt lat="44.96469224584342" lon="9.974795214720116"><ele>48.666666666666664</ele><time>2026-03-29T08:22:42.999Z</time></trkpt><trkpt lat="44.96469430521526" lon="9.974898494231594"><ele>48.5</ele><time>2026-03-29T08:22:43.999Z</time></trkpt><trkpt lat="44.96470205808798" lon="9.975002522507765"><ele>48.33333333333333</ele><time>2026-03-29T08:22:44.999Z</time></trkpt><trkpt lat="44.964735448581" lon="9.975093611241126"><ele>48.166666666666664</ele><time>2026-03-29T08:22:45.999Z</time></trkpt><trkpt lat="44.96480240617489" lon="9.97514696272095"><ele>48.0</ele><time>2026-03-29T08:22:46.999Z</time></trkpt><trkpt lat="44.96488266615525" lon="9.975146667467861"><ele>47.99999999999999</ele><time>2026-03-29T08:22:47.999Z</time></trkpt><trkpt lat="44.96495824178839" lon="9.975119323880406"><ele>48.0</ele><time>2026-03-29T08:22:48.999Z</time></trkpt><trkpt lat="44.96502940370372" lon="9.975087032393683"><ele>48.0</ele><time>2026-03-29T08:22:49.999Z</time></trkpt><trkpt lat="44.96510022836561" lon="9.975059443712881"><ele>48.0</ele><time>2026-03-29T08:22:50.999Z</time></trkpt><trkpt lat="44.96516978492296" lon="9.975032466883054"><ele>48.0</ele><time>2026-03-29T08:22:51.999Z</time></trkpt><trkpt lat="44.96524044599335" lon="9.975003427261571"><ele>47.99999999999999</ele><time>2026-03-29T08:22:52.999Z</time></trkpt><trkpt lat="44.96531385527547" lon="9.97497945537827"><ele>48.0</ele><time>2026-03-29T08:22:53.999Z</time></trkpt><trkpt lat="44.96539015428128" lon="9.974947507290839"><ele>48.0</ele><time>2026-03-29T08:22:54.999Z</time></trkpt><trkpt lat="44.96546493724502" lon="9.974918534746676"><ele>48.0</ele><time>2026-03-29T08:22:55.999Z</time></trkpt><trkpt lat="44.96554010462806" lon="9.974894263819525"><ele>48.0</ele><time>2026-03-29T08:22:56.999Z</time></trkpt><trkpt lat="44.965612041007134" lon="9.97486849595827"><ele>48.0</ele><time>2026-03-29T08:22:57.999Z</time></trkpt><trkpt lat="44.96568616857546" lon="9.974846181681968"><ele>48.0</ele><time>2026-03-29T08:22:58.999Z</time></trkpt><trkpt lat="44.96576113696494" lon="9.974818540157349"><ele>48.0</ele><time>2026-03-29T08:22:59.999Z</time></trkpt><trkpt lat="44.96583532300285" lon="9.974792787776247"><ele>48.166666666666664</ele><time>2026-03-29T08:23:00.999Z</time></trkpt><trkpt lat="44.965909327342665" lon="9.974765957182921"><ele>48.33333333333333</ele><time>2026-03-29T08:23:01.999Z</time></trkpt><trkpt lat="44.96598517170032" lon="9.974740094717895"><ele>48.5</ele><time>2026-03-29T08:23:02.999Z</time></trkpt><trkpt lat="44.96606000503711" lon="9.974714335560968"><ele>48.666666666666664</ele><time>2026-03-29T08:23:03.999Z</time></trkpt><trkpt lat="44.96613567293261" lon="9.974685855650486"><ele>48.83333333333333</ele><time>2026-03-29T08:23:04.999Z</time></trkpt><trkpt lat="44.96620966043891" lon="9.974657066016434"><ele>49.0</ele><time>2026-03-29T08:23:05.999Z</time></trkpt><trkpt lat="44.96628606839098" lon="9.974630347331729"><ele>48.99999999999999</ele><time>2026-03-29T08:23:06.999Z</time></trkpt><trkpt lat="44.966362369829646" lon="9.974607404975567"><ele>49.0</ele><time>2026-03-29T08:23:07.999Z</time></trkpt><trkpt lat="44.96644035379321" lon="9.974579307300482"><ele>49.0</ele><time>2026-03-29T08:23:08.999Z</time></trkpt><trkpt lat="44.96651611199921" lon="9.974553133720134"><ele>49.0</ele><time>2026-03-29T08:23:09.999Z</time></trkpt><trkpt lat="44.966593360162335" lon="9.974525954548065"><ele>48.99999999999999</ele><time>2026-03-29T08:23:10.998Z</time></trkpt><trkpt lat="44.966670173956146" lon="9.974492012735137"><ele>49.0</ele><time>2026-03-29T08:23:11.998Z</time></trkpt><trkpt lat="44.966747340085064" lon="9.974464928674411"><ele>48.83333333333333</ele><time>2026-03-29T08:23:12.998Z</time></trkpt><trkpt lat="44.966825213356934" lon="9.974434569917173"><ele>48.666666666666664</ele><time>2026-03-29T08:23:13.998Z</time></trkpt><trkpt lat="44.96690209510988" lon="9.97440912046247"><ele>48.5</ele><time>2026-03-29T08:23:14.998Z</time></trkpt><trkpt lat="44.96698057417613" lon="9.974379649437958"><ele>48.33333333333333</ele><time>2026-03-29T08:23:15.998Z</time></trkpt><trkpt lat="44.96705530694202" lon="9.974348541733995"><ele>48.166666666666664</ele><time>2026-03-29T08:23:16.998Z</time></trkpt><trkpt lat="44.967130550544525" lon="9.974318461120882"><ele>48.0</ele><time>2026-03-29T08:23:17.998Z</time></trkpt><trkpt lat="44.96720597202983" lon="9.974290399440122"><ele>48.0</ele><time>2026-03-29T08:23:18.998Z</time></trkpt><trkpt lat="44.96728142097722" lon="9.974256796433504"><ele>48.0</ele><time>2026-03-29T08:23:19.998Z</time></trkpt><trkpt lat="44.96735527614115" lon="9.97422962147151"><ele>48.0</ele><time>2026-03-29T08:23:20.998Z</time></trkpt><trkpt lat="44.96743026828708" lon="9.974197874814044"><ele>48.0</ele><time>2026-03-29T08:23:21.998Z</time></trkpt><trkpt lat="44.9675034058233" lon="9.974169425104476"><ele>48.0</ele><time>2026-03-29T08:23:22.998Z</time></trkpt><trkpt lat="44.96757818717174" lon="9.974140794223016"><ele>48.0</ele><time>2026-03-29T08:23:23.998Z</time></trkpt><trkpt lat="44.967654087579426" lon="9.974111616089498"><ele>47.666666666666664</ele><time>2026-03-29T08:23:24.998Z</time></trkpt><trkpt lat="44.96772730949508" lon="9.974082446766175"><ele>47.333333333333336</ele><time>2026-03-29T08:23:25.998Z</time></trkpt><trkpt lat="44.96780176370962" lon="9.97405255893823"><ele>47.0</ele><time>2026-03-29T08:23:26.998Z</time></trkpt><trkpt lat="44.967878789210424" lon="9.974022399340297"><ele>46.66666666666667</ele><time>2026-03-29T08:23:27.998Z</time></trkpt><trkpt lat="44.96795503519895" lon="9.973994388858678"><ele>46.333333333333336</ele><time>2026-03-29T08:23:28.998Z</time></trkpt><trkpt lat="44.968031204675775" lon="9.973963176151123"><ele>46.0</ele><time>2026-03-29T08:23:29.998Z</time></trkpt><trkpt lat="44.968109098791324" lon="9.973934294940232"><ele>46.0</ele><time>2026-03-29T08:23:30.998Z</time></trkpt><trkpt lat="44.96818367546881" lon="9.973903989380233"><ele>46.0</ele><time>2026-03-29T08:23:31.998Z</time></trkpt><trkpt lat="44.968260429060244" lon="9.973873256745982"><ele>46.0</ele><time>2026-03-29T08:23:32.998Z</time></trkpt><trkpt lat="44.96833573063186" lon="9.973842397040338"><ele>46.0</ele><time>2026-03-29T08:23:33.998Z</time></trkpt><trkpt lat="44.96841207145896" lon="9.973810741391222"><ele>46.0</ele><time>2026-03-29T08:23:34.998Z</time></trkpt><trkpt lat="44.96848809001139" lon="9.973779576612674"><ele>46.0</ele><time>2026-03-29T08:23:35.998Z</time></trkpt><trkpt lat="44.96856459536476" lon="9.973749375889684"><ele>46.0</ele><time>2026-03-29T08:23:36.998Z</time></trkpt><trkpt lat="44.96864023207103" lon="9.973717523648984"><ele>46.0</ele><time>2026-03-29T08:23:37.998Z</time></trkpt><trkpt lat="44.96871793994556" lon="9.973686268905832"><ele>46.0</ele><time>2026-03-29T08:23:38.998Z</time></trkpt><trkpt lat="44.96879415908406" lon="9.973653872842112"><ele>46.0</ele><time>2026-03-29T08:23:40Z</time></trkpt><trkpt lat="44.96887300525037" lon="9.973624344932125"><ele>46.0</ele><time>2026-03-29T08:23:41Z</time></trkpt><trkpt lat="44.96894902394883" lon="9.973596869761039"><ele>46.0</ele><time>2026-03-29T08:23:42Z</time></trkpt><trkpt lat="44.96902808677041" lon="9.973569028347352"><ele>46.0</ele><time>2026-03-29T08:23:43Z</time></trkpt><trkpt lat="44.96910586489559" lon="9.973538056853265"><ele>46.0</ele><time>2026-03-29T08:23:44Z</time></trkpt><trkpt lat="44.96918166682175" lon="9.973506832836534"><ele>46.0</ele><time>2026-03-29T08:23:45Z</time></trkpt><trkpt lat="44.96925919933236" lon="9.97347309012879"><ele>46.0</ele><time>2026-03-29T08:23:46Z</time></trkpt><trkpt lat="44.9693358206652" lon="9.973441047660925"><ele>46.0</ele><time>2026-03-29T08:23:47Z</time></trkpt><trkpt lat="44.96941411105163" lon="9.973410947695974"><ele>46.0</ele><time>2026-03-29T08:23:48Z</time></trkpt><trkpt lat="44.969491865525626" lon="9.973384690645602"><ele>46.333333333333336</ele><time>2026-03-29T08:23:49Z</time></trkpt><trkpt lat="44.969567477824455" lon="9.973350755302636"><ele>46.66666666666667</ele><time>2026-03-29T08:23:50Z</time></trkpt><trkpt lat="44.96964429166414" lon="9.973317583580396"><ele>47.0</ele><time>2026-03-29T08:23:51Z</time></trkpt><trkpt lat="44.969718939870376" lon="9.973285971507197"><ele>47.333333333333336</ele><time>2026-03-29T08:23:52Z</time></trkpt><trkpt lat="44.9697972910514" lon="9.973254640989554"><ele>47.666666666666664</ele><time>2026-03-29T08:23:53Z</time></trkpt><trkpt lat="44.96987465456242" lon="9.973224608896498"><ele>48.0</ele><time>2026-03-29T08:23:54Z</time></trkpt><trkpt lat="44.96995255987562" lon="9.973193687905752"><ele>47.833333333333336</ele><time>2026-03-29T08:23:55Z</time></trkpt><trkpt lat="44.97003017055223" lon="9.973161262385604"><ele>47.666666666666664</ele><time>2026-03-29T08:23:56Z</time></trkpt><trkpt lat="44.97010673501368" lon="9.973127991413794"><ele>47.5</ele><time>2026-03-29T08:23:57Z</time></trkpt><trkpt lat="44.97018334563882" lon="9.973096635696967"><ele>47.33333333333333</ele><time>2026-03-29T08:23:58Z</time></trkpt><trkpt lat="44.97025814033984" lon="9.973069311720206"><ele>47.166666666666664</ele><time>2026-03-29T08:23:59Z</time></trkpt><trkpt lat="44.97033535582962" lon="9.97304312504831"><ele>47.0</ele><time>2026-03-29T08:24:00Z</time></trkpt><trkpt lat="44.970416072165364" lon="9.973031081326756"><ele>47.0</ele><time>2026-03-29T08:24:01Z</time></trkpt><trkpt lat="44.9704961325125" lon="9.973036755739283"><ele>47.0</ele><time>2026-03-29T08:24:02Z</time></trkpt><trkpt lat="44.970573281215295" lon="9.97306040816774"><ele>47.0</ele><time>2026-03-29T08:24:03Z</time></trkpt><trkpt lat="44.97065304765371" lon="9.973090495033532"><ele>47.0</ele><time>2026-03-29T08:24:04Z</time></trkpt><trkpt lat="44.9707284830788" lon="9.9731187870542"><ele>47.0</ele><time>2026-03-29T08:24:05Z</time></trkpt><trkpt lat="44.97080467284347" lon="9.973147271180382"><ele>47.0</ele><time>2026-03-29T08:24:06Z</time></trkpt><trkpt lat="44.9708818163723" lon="9.973170553475295"><ele>46.83333333333333</ele><time>2026-03-29T08:24:07Z</time></trkpt><trkpt lat="44.97095836951265" lon="9.973199493991597"><ele>46.666666666666664</ele><time>2026-03-29T08:24:08Z</time></trkpt><trkpt lat="44.97103560360065" lon="9.973227378333263"><ele>46.5</ele><time>2026-03-29T08:24:09Z</time></trkpt><trkpt lat="44.97111185705997" lon="9.973250838796417"><ele>46.333333333333336</ele><time>2026-03-29T08:24:10Z</time></trkpt><trkpt lat="44.971189397478675" lon="9.97328191796732"><ele>46.16666666666667</ele><time>2026-03-29T08:24:11Z</time></trkpt><trkpt lat="44.97126655117564" lon="9.973304076401167"><ele>46.0</ele><time>2026-03-29T08:24:12Z</time></trkpt><trkpt lat="44.971347465595755" lon="9.973328587908057"><ele>46.0</ele><time>2026-03-29T08:24:13Z</time></trkpt><trkpt lat="44.971426013915476" lon="9.973352360247102"><ele>46.0</ele><time>2026-03-29T08:24:14Z</time></trkpt><trkpt lat="44.97150370021738" lon="9.973370751924652"><ele>46.0</ele><time>2026-03-29T08:24:15Z</time></trkpt><trkpt lat="44.97158462747618" lon="9.973394868815806"><ele>46.0</ele><time>2026-03-29T08:24:16Z</time></trkpt><trkpt lat="44.97166213687591" lon="9.973415626705439"><ele>46.0</ele><time>2026-03-29T08:24:17Z</time></trkpt><trkpt lat="44.97174118937658" lon="9.973439873674634"><ele>46.0</ele><time>2026-03-29T08:24:18Z</time></trkpt><trkpt lat="44.971818087784754" lon="9.973465216991164"><ele>46.0</ele><time>2026-03-29T08:24:19Z</time></trkpt><trkpt lat="44.971895760165324" lon="9.973488144903827"><ele>46.0</ele><time>2026-03-29T08:24:20Z</time></trkpt><trkpt lat="44.971973372821694" lon="9.9735143274047"><ele>46.0</ele><time>2026-03-29T08:24:21Z</time></trkpt><trkpt lat="44.97205217357183" lon="9.973539627120054"><ele>46.0</ele><time>2026-03-29T08:24:21.999Z</time></trkpt><trkpt lat="44.97213197381028" lon="9.973564807683973"><ele>46.0</ele><time>2026-03-29T08:24:22.999Z</time></trkpt><trkpt lat="44.97221063081046" lon="9.973587053492572"><ele>46.0</ele><time>2026-03-29T08:24:23.999Z</time></trkpt><trkpt lat="44.972289326890525" lon="9.973611378264117"><ele>46.0</ele><time>2026-03-29T08:24:24.999Z</time></trkpt><trkpt lat="44.97236932664365" lon="9.973634703953794"><ele>46.0</ele><time>2026-03-29T08:24:25.999Z</time></trkpt><trkpt lat="44.97244892188526" lon="9.973659127719182"><ele>46.0</ele><time>2026-03-29T08:24:26.999Z</time></trkpt><trkpt lat="44.97252899262979" lon="9.973686454550638"><ele>46.0</ele><time>2026-03-29T08:24:27.999Z</time></trkpt><trkpt lat="44.97260865440781" lon="9.97371267876674"><ele>46.0</ele><time>2026-03-29T08:24:28.999Z</time></trkpt><trkpt lat="44.97268837349626" lon="9.97373549228705"><ele>46.0</ele><time>2026-03-29T08:24:29.999Z</time></trkpt><trkpt lat="44.97276702131762" lon="9.973761754825583"><ele>45.833333333333336</ele><time>2026-03-29T08:24:30.999Z</time></trkpt><trkpt lat="44.97284775240544" lon="9.973786358822544"><ele>45.66666666666667</ele><time>2026-03-29T08:24:31.999Z</time></trkpt><trkpt lat="44.97292710423083" lon="9.97380947192989"><ele>45.5</ele><time>2026-03-29T08:24:32.999Z</time></trkpt><trkpt lat="44.97300771895758" lon="9.973831949748469"><ele>45.333333333333336</ele><time>2026-03-29T08:24:33.999Z</time></trkpt><trkpt lat="44.97308754137723" lon="9.973855366223168"><ele>45.166666666666664</ele><time>2026-03-29T08:24:34.999Z</time></trkpt><trkpt lat="44.97316889185057" lon="9.973883106443175"><ele>45.0</ele><time>2026-03-29T08:24:35.999Z</time></trkpt><trkpt lat="44.97324736456353" lon="9.973908898926744"><ele>45.0</ele><time>2026-03-29T08:24:36.999Z</time></trkpt><trkpt lat="44.97332789933537" lon="9.973928529884034"><ele>45.0</ele><time>2026-03-29T08:24:37.999Z</time></trkpt><trkpt lat="44.97340983165146" lon="9.973947997979952"><ele>45.0</ele><time>2026-03-29T08:24:38.999Z</time></trkpt><trkpt lat="44.97349018875393" lon="9.973967990560837"><ele>45.0</ele><time>2026-03-29T08:24:39.999Z</time></trkpt><trkpt lat="44.97356926773575" lon="9.97399038061448"><ele>45.0</ele><time>2026-03-29T08:24:40.999Z</time></trkpt><trkpt lat="44.973647681961516" lon="9.97401578995439"><ele>45.0</ele><time>2026-03-29T08:24:41.999Z</time></trkpt><trkpt lat="44.973726020226785" lon="9.97403794035988"><ele>45.0</ele><time>2026-03-29T08:24:42.999Z</time></trkpt><trkpt lat="44.97380549322036" lon="9.974062294578646"><ele>45.0</ele><time>2026-03-29T08:24:43.999Z</time></trkpt><trkpt lat="44.973885393517676" lon="9.974084055844456"><ele>45.0</ele><time>2026-03-29T08:24:44.999Z</time></trkpt><trkpt lat="44.97396442352622" lon="9.974108967077902"><ele>45.0</ele><time>2026-03-29T08:24:45.999Z</time></trkpt><trkpt lat="44.9740427260398" lon="9.974129814381783"><ele>45.0</ele><time>2026-03-29T08:24:46.999Z</time></trkpt><trkpt lat="44.974123794623935" lon="9.974154723151907"><ele>45.0</ele><time>2026-03-29T08:24:47.999Z</time></trkpt><trkpt lat="44.974202408441805" lon="9.97418152803606"><ele>45.166666666666664</ele><time>2026-03-29T08:24:48.999Z</time></trkpt><trkpt lat="44.97428057025256" lon="9.974202688014302"><ele>45.333333333333336</ele><time>2026-03-29T08:24:49.999Z</time></trkpt><trkpt lat="44.97436005173912" lon="9.974229289895554"><ele>45.5</ele><time>2026-03-29T08:24:50.999Z</time></trkpt><trkpt lat="44.974440335616364" lon="9.974255924624988"><ele>45.66666666666667</ele><time>2026-03-29T08:24:51.999Z</time></trkpt><trkpt lat="44.97451699992387" lon="9.974280643321483"><ele>45.833333333333336</ele><time>2026-03-29T08:24:52.999Z</time></trkpt><trkpt lat="44.974597126088995" lon="9.974305608723965"><ele>46.0</ele><time>2026-03-29T08:24:53.999Z</time></trkpt><trkpt lat="44.974675911380245" lon="9.974329814945493"><ele>46.0</ele><time>2026-03-29T08:24:54.999Z</time></trkpt><trkpt lat="44.97475438550442" lon="9.974348407617642"><ele>46.0</ele><time>2026-03-29T08:24:55.999Z</time></trkpt><trkpt lat="44.97483408693856" lon="9.974376534317253"><ele>46.0</ele><time>2026-03-29T08:24:56.999Z</time></trkpt><trkpt lat="44.97491247396144" lon="9.974400339122491"><ele>46.0</ele><time>2026-03-29T08:24:57.999Z</time></trkpt><trkpt lat="44.974990964863586" lon="9.974427793251799"><ele>46.0</ele><time>2026-03-29T08:24:58.999Z</time></trkpt><trkpt lat="44.97506920592553" lon="9.974455464353083"><ele>46.0</ele><time>2026-03-29T08:24:59.999Z</time></trkpt><trkpt lat="44.97514768363881" lon="9.974481466034721"><ele>45.833333333333336</ele><time>2026-03-29T08:25:00.999Z</time></trkpt><trkpt lat="44.97522766245208" lon="9.974506974585257"><ele>45.66666666666667</ele><time>2026-03-29T08:25:01.999Z</time></trkpt><trkpt lat="44.975305768145084" lon="9.974534181386977"><ele>45.5</ele><time>2026-03-29T08:25:02.999Z</time></trkpt><trkpt lat="44.97538462596044" lon="9.97456053188227"><ele>45.333333333333336</ele><time>2026-03-29T08:25:03.999Z</time></trkpt><trkpt lat="44.975460160511915" lon="9.974587921807196"><ele>45.166666666666664</ele><time>2026-03-29T08:25:04.999Z</time></trkpt><trkpt lat="44.975539542229654" lon="9.974617517842027"><ele>45.0</ele><time>2026-03-29T08:25:05.999Z</time></trkpt><trkpt lat="44.975618175528986" lon="9.974645943678455"><ele>45.0</ele><time>2026-03-29T08:25:06.999Z</time></trkpt><trkpt lat="44.97569326748821" lon="9.974675129206036"><ele>45.0</ele><time>2026-03-29T08:25:07.999Z</time></trkpt><trkpt lat="44.97577048568462" lon="9.974703897410407"><ele>45.0</ele><time>2026-03-29T08:25:08.999Z</time></trkpt><trkpt lat="44.97584788370606" lon="9.974734084705556"><ele>45.0</ele><time>2026-03-29T08:25:09.999Z</time></trkpt><trkpt lat="44.975926083811146" lon="9.97476238925983"><ele>45.0</ele><time>2026-03-29T08:25:10.999Z</time></trkpt><trkpt lat="44.97600417653365" lon="9.974791119146623"><ele>45.0</ele><time>2026-03-29T08:25:11.999Z</time></trkpt><trkpt lat="44.976081327404124" lon="9.97481477756774"><ele>45.0</ele><time>2026-03-29T08:25:12.999Z</time></trkpt><trkpt lat="44.976159331571225" lon="9.974847356686277"><ele>45.0</ele><time>2026-03-29T08:25:13.999Z</time></trkpt><trkpt lat="44.976235736578566" lon="9.974874013479885"><ele>45.0</ele><time>2026-03-29T08:25:14.999Z</time></trkpt><trkpt lat="44.9763155839445" lon="9.97490304182597"><ele>45.0</ele><time>2026-03-29T08:25:15.998Z</time></trkpt><trkpt lat="44.97639502383009" lon="9.974924064995003"><ele>45.0</ele><time>2026-03-29T08:25:16.998Z</time></trkpt><trkpt lat="44.97647160571272" lon="9.97494476395073"><ele>45.0</ele><time>2026-03-29T08:25:17.998Z</time></trkpt><trkpt lat="44.97655086878417" lon="9.974966640124281"><ele>45.0</ele><time>2026-03-29T08:25:18.998Z</time></trkpt><trkpt lat="44.97662899180451" lon="9.974987299074645"><ele>45.0</ele><time>2026-03-29T08:25:19.998Z</time></trkpt><trkpt lat="44.976706825428394" lon="9.975008352775172"><ele>45.0</ele><time>2026-03-29T08:25:20.998Z</time></trkpt><trkpt lat="44.976785806805516" lon="9.975035478794467"><ele>45.0</ele><time>2026-03-29T08:25:21.998Z</time></trkpt><trkpt lat="44.97686245209869" lon="9.975060541741286"><ele>45.0</ele><time>2026-03-29T08:25:22.998Z</time></trkpt><trkpt lat="44.976941250666606" lon="9.975080061826247"><ele>45.0</ele><time>2026-03-29T08:25:23.998Z</time></trkpt><trkpt lat="44.97702006662921" lon="9.975097917580472"><ele>44.666666666666664</ele><time>2026-03-29T08:25:24.998Z</time></trkpt><trkpt lat="44.97709757243693" lon="9.975118561182393"><ele>44.333333333333336</ele><time>2026-03-29T08:25:25.998Z</time></trkpt><trkpt lat="44.97717693661478" lon="9.975143154289771"><ele>44.0</ele><time>2026-03-29T08:25:26.998Z</time></trkpt><trkpt lat="44.97725716342651" lon="9.975163332714672"><ele>43.66666666666667</ele><time>2026-03-29T08:25:27.998Z</time></trkpt><trkpt lat="44.977337817063784" lon="9.975183607562276"><ele>43.333333333333336</ele><time>2026-03-29T08:25:28.998Z</time></trkpt><trkpt lat="44.97741891789862" lon="9.975205029464933"><ele>43.0</ele><time>2026-03-29T08:25:29.998Z</time></trkpt><trkpt lat="44.97749889585241" lon="9.975228475837383"><ele>43.333333333333336</ele><time>2026-03-29T08:25:30.998Z</time></trkpt><trkpt lat="44.977577463167876" lon="9.975251871717514"><ele>43.66666666666667</ele><time>2026-03-29T08:25:31.998Z</time></trkpt><trkpt lat="44.97765651433759" lon="9.975276006562613"><ele>44.0</ele><time>2026-03-29T08:25:32.998Z</time></trkpt><trkpt lat="44.97773568349055" lon="9.975303356166032"><ele>44.333333333333336</ele><time>2026-03-29T08:25:33.998Z</time></trkpt><trkpt lat="44.97781354241647" lon="9.975333259273938"><ele>44.666666666666664</ele><time>2026-03-29T08:25:34.998Z</time></trkpt><trkpt lat="44.97789179532962" lon="9.975361506333652"><ele>45.0</ele><time>2026-03-29T08:25:35.998Z</time></trkpt><trkpt lat="44.97797256263072" lon="9.975388978128327"><ele>45.0</ele><time>2026-03-29T08:25:36.998Z</time></trkpt><trkpt lat="44.97805210900753" lon="9.97541908545514"><ele>45.0</ele><time>2026-03-29T08:25:37.998Z</time></trkpt><trkpt lat="44.97813074048886" lon="9.975449360299288"><ele>45.0</ele><time>2026-03-29T08:25:38.998Z</time></trkpt><trkpt lat="44.978209048535426" lon="9.975478664181972"><ele>45.0</ele><time>2026-03-29T08:25:39.998Z</time></trkpt><trkpt lat="44.9782857019568" lon="9.975508913101601"><ele>45.0</ele><time>2026-03-29T08:25:40.998Z</time></trkpt><trkpt lat="44.978362338673335" lon="9.975542595953957"><ele>45.0</ele><time>2026-03-29T08:25:41.998Z</time></trkpt><trkpt lat="44.978436946824615" lon="9.975579789017683"><ele>45.0</ele><time>2026-03-29T08:25:42.998Z</time></trkpt><trkpt lat="44.97851347065322" lon="9.975616543747359"><ele>45.0</ele><time>2026-03-29T08:25:43.998Z</time></trkpt><trkpt lat="44.978591182008955" lon="9.975651790892943"><ele>45.0</ele><time>2026-03-29T08:25:45Z</time></trkpt><trkpt lat="44.978666976826325" lon="9.975685292334264"><ele>45.0</ele><time>2026-03-29T08:25:46Z</time></trkpt><trkpt lat="44.97874653503511" lon="9.975718049384863"><ele>45.0</ele><time>2026-03-29T08:25:47Z</time></trkpt><trkpt lat="44.97882445449145" lon="9.975751783806903"><ele>45.0</ele><time>2026-03-29T08:25:48Z</time></trkpt><trkpt lat="44.97890171790678" lon="9.97578539132023"><ele>45.0</ele><time>2026-03-29T08:25:49Z</time></trkpt><trkpt lat="44.97898138424028" lon="9.97581730744064"><ele>45.0</ele><time>2026-03-29T08:25:50Z</time></trkpt><trkpt lat="44.97905977678606" lon="9.97584826596357"><ele>45.0</ele><time>2026-03-29T08:25:51Z</time></trkpt><trkpt lat="44.979138218143675" lon="9.975881059345335"><ele>45.0</ele><time>2026-03-29T08:25:52Z</time></trkpt><trkpt lat="44.97921469888227" lon="9.975915202905282"><ele>45.0</ele><time>2026-03-29T08:25:53Z</time></trkpt><trkpt lat="44.979290545139484" lon="9.975949856596428"><ele>45.0</ele><time>2026-03-29T08:25:54Z</time></trkpt><trkpt lat="44.97936752271393" lon="9.97598564549949"><ele>45.333333333333336</ele><time>2026-03-29T08:25:55Z</time></trkpt><trkpt lat="44.97944362197061" lon="9.97601751030802"><ele>45.666666666666664</ele><time>2026-03-29T08:25:56Z</time></trkpt><trkpt lat="44.97952150512371" lon="9.97604964640136"><ele>46.0</ele><time>2026-03-29T08:25:57Z</time></trkpt><trkpt lat="44.97960112996566" lon="9.976085361868389"><ele>46.33333333333333</ele><time>2026-03-29T08:25:58Z</time></trkpt><trkpt lat="44.97967649776068" lon="9.976119095465359"><ele>46.666666666666664</ele><time>2026-03-29T08:25:59Z</time></trkpt><trkpt lat="44.9797521947336" lon="9.976151866409662"><ele>47.0</ele><time>2026-03-29T08:26:00Z</time></trkpt><trkpt lat="44.97982954597565" lon="9.976187162232458"><ele>47.0</ele><time>2026-03-29T08:26:01Z</time></trkpt><trkpt lat="44.979903524601795" lon="9.976219566163259"><ele>47.0</ele><time>2026-03-29T08:26:02Z</time></trkpt><trkpt lat="44.97998174235926" lon="9.976251097082164"><ele>47.0</ele><time>2026-03-29T08:26:03Z</time></trkpt><trkpt lat="44.980054675240794" lon="9.97628512714525"><ele>47.0</ele><time>2026-03-29T08:26:04Z</time></trkpt><trkpt lat="44.980130336760304" lon="9.976320338649307"><ele>47.0</ele><time>2026-03-29T08:26:05Z</time></trkpt><trkpt lat="44.98020579314564" lon="9.976352570943423"><ele>47.0</ele><time>2026-03-29T08:26:06Z</time></trkpt><trkpt lat="44.98028034841104" lon="9.976386934123743"><ele>46.83333333333333</ele><time>2026-03-29T08:26:07Z</time></trkpt><trkpt lat="44.98035633402041" lon="9.976420888667525"><ele>46.666666666666664</ele><time>2026-03-29T08:26:08Z</time></trkpt><trkpt lat="44.980431780370076" lon="9.976453769021221"><ele>46.5</ele><time>2026-03-29T08:26:09Z</time></trkpt><trkpt lat="44.98050784008546" lon="9.976486361223962"><ele>46.333333333333336</ele><time>2026-03-29T08:26:10Z</time></trkpt><trkpt lat="44.98058017018106" lon="9.976520742642796"><ele>46.16666666666667</ele><time>2026-03-29T08:26:11Z</time></trkpt><trkpt lat="44.98065582906023" lon="9.976552976557743"><ele>46.0</ele><time>2026-03-29T08:26:12Z</time></trkpt><trkpt lat="44.98073152842155" lon="9.976586756556438"><ele>46.0</ele><time>2026-03-29T08:26:13Z</time></trkpt><trkpt lat="44.98080667853154" lon="9.976621805122694"><ele>46.0</ele><time>2026-03-29T08:26:14Z</time></trkpt><trkpt lat="44.98088259846768" lon="9.97666009052271"><ele>46.0</ele><time>2026-03-29T08:26:15Z</time></trkpt><trkpt lat="44.980955983183904" lon="9.97669930062198"><ele>46.0</ele><time>2026-03-29T08:26:16Z</time></trkpt><trkpt lat="44.98102903135156" lon="9.976745277685954"><ele>46.0</ele><time>2026-03-29T08:26:17Z</time></trkpt><trkpt lat="44.9811011703325" lon="9.976793477130089"><ele>46.0</ele><time>2026-03-29T08:26:18Z</time></trkpt><trkpt lat="44.981169040525465" lon="9.97684564512292"><ele>46.16666666666667</ele><time>2026-03-29T08:26:19Z</time></trkpt><trkpt lat="44.981240666751695" lon="9.97690348366994"><ele>46.333333333333336</ele><time>2026-03-29T08:26:20Z</time></trkpt><trkpt lat="44.981309406721664" lon="9.976956188415937"><ele>46.5</ele><time>2026-03-29T08:26:21Z</time></trkpt><trkpt lat="44.981380134025606" lon="9.97700992079949"><ele>46.666666666666664</ele><time>2026-03-29T08:26:22Z</time></trkpt><trkpt lat="44.98144686320041" lon="9.977065331491806"><ele>46.83333333333333</ele><time>2026-03-29T08:26:23Z</time></trkpt><trkpt lat="44.981514813039055" lon="9.977118829613984"><ele>47.0</ele><time>2026-03-29T08:26:24Z</time></trkpt><trkpt lat="44.9815831752264" lon="9.977173874529205"><ele>47.0</ele><time>2026-03-29T08:26:25Z</time></trkpt><trkpt lat="44.981651477264855" lon="9.977225001313991"><ele>47.0</ele><time>2026-03-29T08:26:25.999Z</time></trkpt><trkpt lat="44.981715947418195" lon="9.97728115892354"><ele>47.0</ele><time>2026-03-29T08:26:26.999Z</time></trkpt><trkpt lat="44.98178577366747" lon="9.977336691537877"><ele>47.0</ele><time>2026-03-29T08:26:27.999Z</time></trkpt><trkpt lat="44.98185244264348" lon="9.97738937022083"><ele>47.0</ele><time>2026-03-29T08:26:28.999Z</time></trkpt><trkpt lat="44.98192144687381" lon="9.977445080882598"><ele>47.0</ele><time>2026-03-29T08:26:29.999Z</time></trkpt><trkpt lat="44.9819923591225" lon="9.97750159479396"><ele>46.5</ele><time>2026-03-29T08:26:30.999Z</time></trkpt><trkpt lat="44.98206097232251" lon="9.977555278267571"><ele>46.0</ele><time>2026-03-29T08:26:31.999Z</time></trkpt><trkpt lat="44.982130794583604" lon="9.977610580717437"><ele>45.5</ele><time>2026-03-29T08:26:32.999Z</time></trkpt><trkpt lat="44.98219992155169" lon="9.977664049858703"><ele>45.0</ele><time>2026-03-29T08:26:33.999Z</time></trkpt><trkpt lat="44.982270152270445" lon="9.977717922027583"><ele>44.5</ele><time>2026-03-29T08:26:34.999Z</time></trkpt><trkpt lat="44.98233980858869" lon="9.977768927189299"><ele>44.0</ele><time>2026-03-29T08:26:35.999Z</time></trkpt><trkpt lat="44.982411962984656" lon="9.977816951597987"><ele>44.0</ele><time>2026-03-29T08:26:36.999Z</time></trkpt><trkpt lat="44.982483744641506" lon="9.977860576751175"><ele>44.0</ele><time>2026-03-29T08:26:37.999Z</time></trkpt><trkpt lat="44.98255460082221" lon="9.977907803496135"><ele>44.0</ele><time>2026-03-29T08:26:38.999Z</time></trkpt><trkpt lat="44.9826226865966" lon="9.97794920559418"><ele>44.0</ele><time>2026-03-29T08:26:39.999Z</time></trkpt><trkpt lat="44.98269068543357" lon="9.9779852058162"><ele>44.0</ele><time>2026-03-29T08:26:40.999Z</time></trkpt><trkpt lat="44.98275591021594" lon="9.978020956101687"><ele>44.0</ele><time>2026-03-29T08:26:41.999Z</time></trkpt><trkpt lat="44.98281692155775" lon="9.978057410151528"><ele>44.0</ele><time>2026-03-29T08:26:42.999Z</time></trkpt><trkpt lat="44.982877211609086" lon="9.978092016829468"><ele>44.75</ele><time>2026-03-29T08:26:43.999Z</time></trkpt><trkpt lat="44.982992842542224" lon="9.978157069664872"><ele>45.5</ele><time>2026-03-29T08:26:45.999Z</time></trkpt><trkpt lat="44.98310270723691" lon="9.97820963223003"><ele>46.25</ele><time>2026-03-29T08:26:47.999Z</time></trkpt><trkpt lat="44.98320979887172" lon="9.978263480561301"><ele>47.0</ele><time>2026-03-29T08:26:49.999Z</time></trkpt><trkpt lat="44.98332293308535" lon="9.978320450347708"><ele>46.83333333333333</ele><time>2026-03-29T08:26:51.999Z</time></trkpt><trkpt lat="44.98340936214673" lon="9.97838223024521"><ele>46.666666666666664</ele><time>2026-03-29T08:26:53.999Z</time></trkpt><trkpt lat="44.98341771443389" lon="9.978494751743927"><ele>46.5</ele><time>2026-03-29T08:26:54.999Z</time></trkpt><trkpt lat="44.983440051854664" lon="9.978669031808684"><ele>46.333333333333336</ele><time>2026-03-29T08:26:56.999Z</time></trkpt><trkpt lat="44.983455195955415" lon="9.97875854719335"><ele>46.16666666666667</ele><time>2026-03-29T08:26:57.999Z</time></trkpt><trkpt lat="44.98347258496778" lon="9.978849405044377"><ele>46.0</ele><time>2026-03-29T08:26:58.999Z</time></trkpt><trkpt lat="44.98348961820383" lon="9.978943004048405"><ele>46.0</ele><time>2026-03-29T08:26:59.999Z</time></trkpt><trkpt lat="44.983502489748155" lon="9.97903291832318"><ele>46.0</ele><time>2026-03-29T08:27:00.999Z</time></trkpt><trkpt lat="44.98351916217666" lon="9.97912421256663"><ele>46.0</ele><time>2026-03-29T08:27:01.999Z</time></trkpt><trkpt lat="44.98353957230997" lon="9.979213648604564"><ele>46.0</ele><time>2026-03-29T08:27:02.999Z</time></trkpt><trkpt lat="44.98355905970915" lon="9.979307437320728"><ele>46.0</ele><time>2026-03-29T08:27:03.999Z</time></trkpt><trkpt lat="44.98357494856373" lon="9.979399497911762"><ele>46.0</ele><time>2026-03-29T08:27:04.999Z</time></trkpt><trkpt lat="44.98359175774427" lon="9.979495092927154"><ele>46.0</ele><time>2026-03-29T08:27:05.999Z</time></trkpt><trkpt lat="44.983607812125385" lon="9.979590177293172"><ele>46.0</ele><time>2026-03-29T08:27:06.999Z</time></trkpt><trkpt lat="44.98362590420992" lon="9.97968583985686"><ele>46.0</ele><time>2026-03-29T08:27:07.999Z</time></trkpt><trkpt lat="44.98364433013304" lon="9.97977844007573"><ele>46.0</ele><time>2026-03-29T08:27:08.999Z</time></trkpt><trkpt lat="44.98366355993297" lon="9.9798728770178"><ele>46.0</ele><time>2026-03-29T08:27:09.999Z</time></trkpt><trkpt lat="44.9836831795419" lon="9.979966048020282"><ele>46.0</ele><time>2026-03-29T08:27:10.999Z</time></trkpt><trkpt lat="44.98370373734781" lon="9.980062771367324"><ele>46.0</ele><time>2026-03-29T08:27:11.999Z</time></trkpt><trkpt lat="44.98372418293101" lon="9.98015937716384"><ele>46.0</ele><time>2026-03-29T08:27:12.999Z</time></trkpt><trkpt lat="44.983744355411886" lon="9.980258544479076"><ele>46.0</ele><time>2026-03-29T08:27:13.999Z</time></trkpt><trkpt lat="44.98376816627149" lon="9.980354051295496"><ele>46.0</ele><time>2026-03-29T08:27:14.999Z</time></trkpt><trkpt lat="44.983798974146985" lon="9.980447889877913"><ele>46.0</ele><time>2026-03-29T08:27:15.999Z</time></trkpt><trkpt lat="44.983837283736534" lon="9.980537985688224"><ele>46.0</ele><time>2026-03-29T08:27:16.999Z</time></trkpt><trkpt lat="44.98388044437974" lon="9.980624245348464"><ele>46.0</ele><time>2026-03-29T08:27:17.999Z</time></trkpt><trkpt lat="44.98393010310765" lon="9.980705153805218"><ele>46.0</ele><time>2026-03-29T08:27:18.999Z</time></trkpt><trkpt lat="44.983984569334716" lon="9.980775554271814"><ele>46.0</ele><time>2026-03-29T08:27:19.998Z</time></trkpt><trkpt lat="44.98404518231912" lon="9.98083835800966"><ele>46.16666666666667</ele><time>2026-03-29T08:27:20.998Z</time></trkpt><trkpt lat="44.98411335345252" lon="9.980887920976835"><ele>46.333333333333336</ele><time>2026-03-29T08:27:21.998Z</time></trkpt><trkpt lat="44.98418557193784" lon="9.980930181556113"><ele>46.5</ele><time>2026-03-29T08:27:22.998Z</time></trkpt><trkpt lat="44.984258888880895" lon="9.980965560418362"><ele>46.666666666666664</ele><time>2026-03-29T08:27:23.998Z</time></trkpt><trkpt lat="44.98433164537661" lon="9.981003235446094"><ele>46.83333333333333</ele><time>2026-03-29T08:27:24.998Z</time></trkpt><trkpt lat="44.98440265600101" lon="9.981038802482054"><ele>47.0</ele><time>2026-03-29T08:27:25.998Z</time></trkpt><trkpt lat="44.98447602213404" lon="9.981070361682063"><ele>47.0</ele><time>2026-03-29T08:27:26.998Z</time></trkpt><trkpt lat="44.984550106223104" lon="9.981105608802308"><ele>47.0</ele><time>2026-03-29T08:27:27.998Z</time></trkpt><trkpt lat="44.984624761249115" lon="9.981143077655673"><ele>47.0</ele><time>2026-03-29T08:27:28.998Z</time></trkpt><trkpt lat="44.98469814191825" lon="9.981178591997342"><ele>47.0</ele><time>2026-03-29T08:27:29.998Z</time></trkpt><trkpt lat="44.984772605813944" lon="9.981219080708058"><ele>47.0</ele><time>2026-03-29T08:27:30.998Z</time></trkpt><trkpt lat="44.98484795999408" lon="9.981258168014216"><ele>47.0</ele><time>2026-03-29T08:27:31.998Z</time></trkpt><trkpt lat="44.98492241565403" lon="9.981295697079107"><ele>47.0</ele><time>2026-03-29T08:27:32.998Z</time></trkpt><trkpt lat="44.98499828002656" lon="9.981333642235532"><ele>47.0</ele><time>2026-03-29T08:27:33.998Z</time></trkpt><trkpt lat="44.98507439312273" lon="9.981373720499066"><ele>47.0</ele><time>2026-03-29T08:27:34.998Z</time></trkpt><trkpt lat="44.98515074219728" lon="9.981411914498155"><ele>47.0</ele><time>2026-03-29T08:27:35.998Z</time></trkpt><trkpt lat="44.98522703539316" lon="9.981452191205186"><ele>47.0</ele><time>2026-03-29T08:27:36.998Z</time></trkpt><trkpt lat="44.98530302773494" lon="9.981488645597732"><ele>47.0</ele><time>2026-03-29T08:27:37.998Z</time></trkpt><trkpt lat="44.985379687653456" lon="9.981527388535781"><ele>46.666666666666664</ele><time>2026-03-29T08:27:38.998Z</time></trkpt><trkpt lat="44.98545574631377" lon="9.981564205281218"><ele>46.33333333333333</ele><time>2026-03-29T08:27:39.998Z</time></trkpt><trkpt lat="44.98553008222123" lon="9.98160077406605"><ele>46.0</ele><time>2026-03-29T08:27:40.998Z</time></trkpt><trkpt lat="44.98560641706229" lon="9.98163796986767"><ele>45.666666666666664</ele><time>2026-03-29T08:27:41.998Z</time></trkpt><trkpt lat="44.985683613995946" lon="9.981675477509953"><ele>45.333333333333336</ele><time>2026-03-29T08:27:42.998Z</time></trkpt><trkpt lat="44.98575918189937" lon="9.981712375692794"><ele>45.0</ele><time>2026-03-29T08:27:43.998Z</time></trkpt><trkpt lat="44.985833889233184" lon="9.981753366650574"><ele>44.833333333333336</ele><time>2026-03-29T08:27:44.998Z</time></trkpt><trkpt lat="44.9859100933392" lon="9.981792107023791"><ele>44.666666666666664</ele><time>2026-03-29T08:27:45.998Z</time></trkpt><trkpt lat="44.985985010846996" lon="9.981837461710588"><ele>44.5</ele><time>2026-03-29T08:27:46.998Z</time></trkpt><trkpt lat="44.986061473979376" lon="9.98187385973732"><ele>44.33333333333333</ele><time>2026-03-29T08:27:47.998Z</time></trkpt><trkpt lat="44.986136923253824" lon="9.981913494589945"><ele>44.166666666666664</ele><time>2026-03-29T08:27:48.998Z</time></trkpt><trkpt lat="44.98621217797044" lon="9.98195449045324"><ele>44.0</ele><time>2026-03-29T08:27:49.998Z</time></trkpt><trkpt lat="44.98628561658735" lon="9.981993843446396"><ele>44.0</ele><time>2026-03-29T08:27:51Z</time></trkpt><trkpt lat="44.98636201803701" lon="9.982035544720945"><ele>44.0</ele><time>2026-03-29T08:27:52Z</time></trkpt><trkpt lat="44.986436214114676" lon="9.982074119321323"><ele>44.0</ele><time>2026-03-29T08:27:53Z</time></trkpt><trkpt lat="44.98651391116732" lon="9.982109878566853"><ele>44.0</ele><time>2026-03-29T08:27:54Z</time></trkpt><trkpt lat="44.98658971243852" lon="9.982147804157721"><ele>44.0</ele><time>2026-03-29T08:27:55Z</time></trkpt><trkpt lat="44.986665681147" lon="9.982185584526635"><ele>44.0</ele><time>2026-03-29T08:27:56Z</time></trkpt><trkpt lat="44.98674298586413" lon="9.982225164543713"><ele>44.0</ele><time>2026-03-29T08:27:57Z</time></trkpt><trkpt lat="44.98681816073172" lon="9.982262601475531"><ele>44.0</ele><time>2026-03-29T08:27:58Z</time></trkpt><trkpt lat="44.98689498744952" lon="9.982302714208494"><ele>44.0</ele><time>2026-03-29T08:27:59Z</time></trkpt><trkpt lat="44.98697218780741" lon="9.982342222591255"><ele>44.0</ele><time>2026-03-29T08:28:00Z</time></trkpt><trkpt lat="44.98704952004646" lon="9.982381491420092"><ele>44.0</ele><time>2026-03-29T08:28:01Z</time></trkpt><trkpt lat="44.98712637562542" lon="9.982420672238261"><ele>44.0</ele><time>2026-03-29T08:28:02Z</time></trkpt><trkpt lat="44.987204141179255" lon="9.98246154601919"><ele>44.0</ele><time>2026-03-29T08:28:03Z</time></trkpt><trkpt lat="44.98728162593007" lon="9.982500369675359"><ele>44.0</ele><time>2026-03-29T08:28:04Z</time></trkpt><trkpt lat="44.98736021720754" lon="9.982538568171329"><ele>44.0</ele><time>2026-03-29T08:28:05Z</time></trkpt><trkpt lat="44.98743800417101" lon="9.9825745025306"><ele>44.0</ele><time>2026-03-29T08:28:06Z</time></trkpt><trkpt lat="44.987516952708795" lon="9.982613738731521"><ele>44.0</ele><time>2026-03-29T08:28:07Z</time></trkpt><trkpt lat="44.98759533284293" lon="9.982651047539314"><ele>44.0</ele><time>2026-03-29T08:28:08Z</time></trkpt><trkpt lat="44.987675896098935" lon="9.982685241505623"><ele>43.666666666666664</ele><time>2026-03-29T08:28:09Z</time></trkpt><trkpt lat="44.98775530387953" lon="9.9827234460857"><ele>43.33333333333333</ele><time>2026-03-29T08:28:10Z</time></trkpt><trkpt lat="44.987832493325534" lon="9.982763472851428"><ele>43.0</ele><time>2026-03-29T08:28:11Z</time></trkpt><trkpt lat="44.987909119531984" lon="9.982807463608069"><ele>42.666666666666664</ele><time>2026-03-29T08:28:12Z</time></trkpt><trkpt lat="44.98798801167593" lon="9.982850382934398"><ele>42.333333333333336</ele><time>2026-03-29T08:28:13Z</time></trkpt><trkpt lat="44.988065194679116" lon="9.982893903951656"><ele>42.0</ele><time>2026-03-29T08:28:14Z</time></trkpt><trkpt lat="44.988140581722504" lon="9.982939696742987"><ele>42.0</ele><time>2026-03-29T08:28:15Z</time></trkpt><trkpt lat="44.988217352537724" lon="9.982984127829013"><ele>42.0</ele><time>2026-03-29T08:28:16Z</time></trkpt><trkpt lat="44.98829402056988" lon="9.983027625821983"><ele>42.0</ele><time>2026-03-29T08:28:17Z</time></trkpt><trkpt lat="44.98837111401303" lon="9.983069271947938"><ele>42.0</ele><time>2026-03-29T08:28:18Z</time></trkpt><trkpt lat="44.98844651185928" lon="9.983110975749755"><ele>42.0</ele><time>2026-03-29T08:28:19Z</time></trkpt><trkpt lat="44.98852370787271" lon="9.983151185171613"><ele>42.0</ele><time>2026-03-29T08:28:20Z</time></trkpt><trkpt lat="44.988600435821404" lon="9.983192432497427"><ele>42.166666666666664</ele><time>2026-03-29T08:28:21Z</time></trkpt><trkpt lat="44.98867941041887" lon="9.983235943052911"><ele>42.333333333333336</ele><time>2026-03-29T08:28:22Z</time></trkpt><trkpt lat="44.988756007178466" lon="9.98328219128015"><ele>42.5</ele><time>2026-03-29T08:28:23Z</time></trkpt><trkpt lat="44.98882858821035" lon="9.983335266561545"><ele>42.66666666666667</ele><time>2026-03-29T08:28:24Z</time></trkpt><trkpt lat="44.988897782116474" lon="9.983390818334673"><ele>42.833333333333336</ele><time>2026-03-29T08:28:25Z</time></trkpt><trkpt lat="44.988967745010925" lon="9.983445034353943"><ele>43.0</ele><time>2026-03-29T08:28:26Z</time></trkpt><trkpt lat="44.98903622781478" lon="9.983507919025932"><ele>43.16666666666667</ele><time>2026-03-29T08:28:27Z</time></trkpt><trkpt lat="44.98910234235159" lon="9.983574290112811"><ele>43.333333333333336</ele><time>2026-03-29T08:28:28Z</time></trkpt><trkpt lat="44.98916623479783" lon="9.98364266559716"><ele>43.5</ele><time>2026-03-29T08:28:29Z</time></trkpt><trkpt lat="44.98923071492748" lon="9.983715289233572"><ele>43.666666666666664</ele><time>2026-03-29T08:28:30Z</time></trkpt><trkpt lat="44.9892950895488" lon="9.983787870762624"><ele>43.83333333333333</ele><time>2026-03-29T08:28:31Z</time></trkpt><trkpt lat="44.98935943277108" lon="9.98386088124337"><ele>44.0</ele><time>2026-03-29T08:28:31.999Z</time></trkpt><trkpt lat="44.98941912753827" lon="9.983934531122916"><ele>44.0</ele><time>2026-03-29T08:28:32.999Z</time></trkpt><trkpt lat="44.9894814789039" lon="9.984008129657195"><ele>44.0</ele><time>2026-03-29T08:28:33.999Z</time></trkpt><trkpt lat="44.989547002854174" lon="9.984080771640448"><ele>44.0</ele><time>2026-03-29T08:28:34.999Z</time></trkpt><trkpt lat="44.989609887506994" lon="9.984151075305249"><ele>44.0</ele><time>2026-03-29T08:28:35.999Z</time></trkpt><trkpt lat="44.98967228623333" lon="9.984223909432279"><ele>44.0</ele><time>2026-03-29T08:28:36.999Z</time></trkpt><trkpt lat="44.989737194074664" lon="9.984301019052019"><ele>44.0</ele><time>2026-03-29T08:28:37.999Z</time></trkpt><trkpt lat="44.98979773356389" lon="9.9843720996949"><ele>44.0</ele><time>2026-03-29T08:28:38.999Z</time></trkpt><trkpt lat="44.98985689521325" lon="9.984446151281361"><ele>44.0</ele><time>2026-03-29T08:28:39.999Z</time></trkpt><trkpt lat="44.989913774791596" lon="9.984515509426174"><ele>44.0</ele><time>2026-03-29T08:28:40.999Z</time></trkpt><trkpt lat="44.98997002053041" lon="9.984582280470898"><ele>44.0</ele><time>2026-03-29T08:28:41.999Z</time></trkpt><trkpt lat="44.99002644389294" lon="9.984648205811016"><ele>44.0</ele><time>2026-03-29T08:28:42.999Z</time></trkpt><trkpt lat="44.990079478568106" lon="9.984715042898259"><ele>44.0</ele><time>2026-03-29T08:28:43.999Z</time></trkpt><trkpt lat="44.99012751573039" lon="9.984785008901984"><ele>44.0</ele><time>2026-03-29T08:28:44.999Z</time></trkpt><trkpt lat="44.990161340919244" lon="9.984867915680436"><ele>44.0</ele><time>2026-03-29T08:28:45.999Z</time></trkpt><trkpt lat="44.990288989937035" lon="9.985047859063913"><ele>44.0</ele><time>2026-03-29T08:28:47.999Z</time></trkpt><trkpt lat="44.99038090563878" lon="9.984714876442824"><ele>44.0</ele><time>2026-03-29T08:28:49.999Z</time></trkpt><trkpt lat="44.990412938596215" lon="9.984635035990175"><ele>44.0</ele><time>2026-03-29T08:28:50.999Z</time></trkpt><trkpt lat="44.99044367978026" lon="9.984556910372698"><ele>44.0</ele><time>2026-03-29T08:28:51.999Z</time></trkpt><trkpt lat="44.990477317219714" lon="9.984476951328753"><ele>44.0</ele><time>2026-03-29T08:28:52.999Z</time></trkpt><trkpt lat="44.99051612848256" lon="9.984398020274785"><ele>44.0</ele><time>2026-03-29T08:28:53.999Z</time></trkpt><trkpt lat="44.99055487159799" lon="9.984320021695957"><ele>44.0</ele><time>2026-03-29T08:28:54.999Z</time></trkpt><trkpt lat="44.990593421455145" lon="9.984239656507604"><ele>44.0</ele><time>2026-03-29T08:28:55.999Z</time></trkpt><trkpt lat="44.990633124953455" lon="9.984159770245688"><ele>44.0</ele><time>2026-03-29T08:28:56.999Z</time></trkpt><trkpt lat="44.99067298631497" lon="9.984080606516903"><ele>44.0</ele><time>2026-03-29T08:28:57.999Z</time></trkpt><trkpt lat="44.99071155886394" lon="9.983994367175185"><ele>44.0</ele><time>2026-03-29T08:28:58.999Z</time></trkpt><trkpt lat="44.9907478044361" lon="9.983910482782457"><ele>44.0</ele><time>2026-03-29T08:28:59.999Z</time></trkpt><trkpt lat="44.990786376053116" lon="9.983821412162362"><ele>44.0</ele><time>2026-03-29T08:29:00.999Z</time></trkpt><trkpt lat="44.990826862588456" lon="9.983733785574671"><ele>44.0</ele><time>2026-03-29T08:29:01.999Z</time></trkpt><trkpt lat="44.990866782703826" lon="9.983646864614167"><ele>44.0</ele><time>2026-03-29T08:29:02.999Z</time></trkpt><trkpt lat="44.99090692076038" lon="9.983557663106012"><ele>44.0</ele><time>2026-03-29T08:29:03.999Z</time></trkpt><trkpt lat="44.99094374877088" lon="9.983465392010109"><ele>44.0</ele><time>2026-03-29T08:29:04.999Z</time></trkpt><trkpt lat="44.990997708395874" lon="9.983386414208299"><ele>44.0</ele><time>2026-03-29T08:29:05.999Z</time></trkpt><trkpt lat="44.99103847723145" lon="9.98329796272311"><ele>44.0</ele><time>2026-03-29T08:29:06.999Z</time></trkpt><trkpt lat="44.99108001992149" lon="9.983207832210903"><ele>44.0</ele><time>2026-03-29T08:29:07.999Z</time></trkpt><trkpt lat="44.99110831663124" lon="9.983104987922886"><ele>44.0</ele><time>2026-03-29T08:29:08.999Z</time></trkpt><trkpt lat="44.991153107660466" lon="9.983012084870039"><ele>44.0</ele><time>2026-03-29T08:29:09.999Z</time></trkpt><trkpt lat="44.991196864005936" lon="9.98292038833254"><ele>44.0</ele><time>2026-03-29T08:29:10.999Z</time></trkpt><trkpt lat="44.991254909597075" lon="9.982832326159539"><ele>44.0</ele><time>2026-03-29T08:29:11.999Z</time></trkpt><trkpt lat="44.99128364526894" lon="9.98273043267669"><ele>44.0</ele><time>2026-03-29T08:29:12.999Z</time></trkpt><trkpt lat="44.99132757875623" lon="9.98263618721447"><ele>44.0</ele><time>2026-03-29T08:29:13.999Z</time></trkpt><trkpt lat="44.991372109732545" lon="9.982543089916312"><ele>44.0</ele><time>2026-03-29T08:29:14.999Z</time></trkpt><trkpt lat="44.991415905980254" lon="9.982449350574953"><ele>44.0</ele><time>2026-03-29T08:29:15.999Z</time></trkpt><trkpt lat="44.991460949223395" lon="9.98235481697852"><ele>44.0</ele><time>2026-03-29T08:29:16.999Z</time></trkpt><trkpt lat="44.99150250989404" lon="9.982260664564004"><ele>44.0</ele><time>2026-03-29T08:29:17.999Z</time></trkpt><trkpt lat="44.99154717323061" lon="9.982166589287433"><ele>44.0</ele><time>2026-03-29T08:29:18.999Z</time></trkpt><trkpt lat="44.991593256528915" lon="9.98207198272123"><ele>44.0</ele><time>2026-03-29T08:29:19.999Z</time></trkpt><trkpt lat="44.9916369106294" lon="9.98197817491204"><ele>44.0</ele><time>2026-03-29T08:29:20.999Z</time></trkpt><trkpt lat="44.99169466661767" lon="9.981893101436802"><ele>44.0</ele><time>2026-03-29T08:29:21.999Z</time></trkpt><trkpt lat="44.991726093796224" lon="9.981787845930457"><ele>43.83333333333333</ele><time>2026-03-29T08:29:22.999Z</time></trkpt><trkpt lat="44.99177349807151" lon="9.981694394637293"><ele>43.666666666666664</ele><time>2026-03-29T08:29:23.999Z</time></trkpt><trkpt lat="44.991819789326605" lon="9.981600601087008"><ele>43.5</ele><time>2026-03-29T08:29:24.999Z</time></trkpt><trkpt lat="44.99186402788513" lon="9.981507903059322"><ele>43.333333333333336</ele><time>2026-03-29T08:29:25.999Z</time></trkpt><trkpt lat="44.99191010155227" lon="9.981411774418689"><ele>43.16666666666667</ele><time>2026-03-29T08:29:26.998Z</time></trkpt><trkpt lat="44.991955043230035" lon="9.981320137149604"><ele>43.0</ele><time>2026-03-29T08:29:27.998Z</time></trkpt><trkpt lat="44.99200179251396" lon="9.981228104146355"><ele>43.0</ele><time>2026-03-29T08:29:28.998Z</time></trkpt><trkpt lat="44.9920472608269" lon="9.981133042703153"><ele>43.0</ele><time>2026-03-29T08:29:29.998Z</time></trkpt><trkpt lat="44.9920908097838" lon="9.981038202567856"><ele>43.0</ele><time>2026-03-29T08:29:30.998Z</time></trkpt><trkpt lat="44.99213540493843" lon="9.980940540710291"><ele>43.0</ele><time>2026-03-29T08:29:31.998Z</time></trkpt><trkpt lat="44.992180705634375" lon="9.980845903230657"><ele>43.0</ele><time>2026-03-29T08:29:32.998Z</time></trkpt><trkpt lat="44.992227228039106" lon="9.980751504463955"><ele>43.0</ele><time>2026-03-29T08:29:33.998Z</time></trkpt><trkpt lat="44.99227286895735" lon="9.980658165386497"><ele>43.0</ele><time>2026-03-29T08:29:34.998Z</time></trkpt><trkpt lat="44.992316628990025" lon="9.980561065175458"><ele>43.0</ele><time>2026-03-29T08:29:35.998Z</time></trkpt><trkpt lat="44.99236227133941" lon="9.980464870185447"><ele>43.0</ele><time>2026-03-29T08:29:36.998Z</time></trkpt><trkpt lat="44.99240765571399" lon="9.980370131125124"><ele>43.0</ele><time>2026-03-29T08:29:37.998Z</time></trkpt><trkpt lat="44.99245179625456" lon="9.980272159471992"><ele>43.0</ele><time>2026-03-29T08:29:38.998Z</time></trkpt><trkpt lat="44.99250967687261" lon="9.980191531929156"><ele>43.0</ele><time>2026-03-29T08:29:39.998Z</time></trkpt><trkpt lat="44.99255547968257" lon="9.980096824102198"><ele>42.833333333333336</ele><time>2026-03-29T08:29:40.998Z</time></trkpt><trkpt lat="44.99258893876697" lon="9.979987579768165"><ele>42.66666666666667</ele><time>2026-03-29T08:29:41.998Z</time></trkpt><trkpt lat="44.99263748670019" lon="9.979895322478233"><ele>42.5</ele><time>2026-03-29T08:29:42.998Z</time></trkpt><trkpt lat="44.992683366454884" lon="9.97979888765985"><ele>42.333333333333336</ele><time>2026-03-29T08:29:43.998Z</time></trkpt><trkpt lat="44.99272685438016" lon="9.979702319794232"><ele>42.166666666666664</ele><time>2026-03-29T08:29:44.998Z</time></trkpt><trkpt lat="44.99277304897537" lon="9.97960672307273"><ele>42.0</ele><time>2026-03-29T08:29:45.998Z</time></trkpt><trkpt lat="44.99281682517372" lon="9.979510361172837"><ele>42.0</ele><time>2026-03-29T08:29:46.998Z</time></trkpt><trkpt lat="44.992841702760806" lon="9.979406410404389"><ele>42.0</ele><time>2026-03-29T08:29:47.998Z</time></trkpt><trkpt lat="44.99290766577844" lon="9.979316968624769"><ele>42.0</ele><time>2026-03-29T08:29:48.998Z</time></trkpt><trkpt lat="44.99295758288776" lon="9.979215795460986"><ele>42.0</ele><time>2026-03-29T08:29:49.998Z</time></trkpt><trkpt lat="44.993006550440136" lon="9.979115987299293"><ele>42.0</ele><time>2026-03-29T08:29:50.998Z</time></trkpt><trkpt lat="44.99305209555559" lon="9.979013395687007"><ele>42.0</ele><time>2026-03-29T08:29:51.998Z</time></trkpt><trkpt lat="44.99310059032208" lon="9.978915605957479"><ele>42.333333333333336</ele><time>2026-03-29T08:29:52.998Z</time></trkpt><trkpt lat="44.993150520192565" lon="9.978817437357195"><ele>42.666666666666664</ele><time>2026-03-29T08:29:53.998Z</time></trkpt><trkpt lat="44.99320129747861" lon="9.978727892982201"><ele>43.0</ele><time>2026-03-29T08:29:54.998Z</time></trkpt><trkpt lat="44.99326614157348" lon="9.978646961073814"><ele>43.33333333333333</ele><time>2026-03-29T08:29:56Z</time></trkpt><trkpt lat="44.99334094387195" lon="9.978581864598441"><ele>43.666666666666664</ele><time>2026-03-29T08:29:57Z</time></trkpt><trkpt lat="44.99341944266073" lon="9.978563783677032"><ele>44.0</ele><time>2026-03-29T08:29:58Z</time></trkpt><trkpt lat="44.99350028952857" lon="9.97859326266027"><ele>44.0</ele><time>2026-03-29T08:29:59Z</time></trkpt><trkpt lat="44.99358598147045" lon="9.978655306872655"><ele>44.0</ele><time>2026-03-29T08:30:00Z</time></trkpt><trkpt lat="44.99365597367244" lon="9.978702297905407"><ele>44.0</ele><time>2026-03-29T08:30:01Z</time></trkpt><trkpt lat="44.9937293150244" lon="9.978746315733886"><ele>44.0</ele><time>2026-03-29T08:30:02Z</time></trkpt><trkpt lat="44.993803273165874" lon="9.978791402587552"><ele>44.0</ele><time>2026-03-29T08:30:03Z</time></trkpt><trkpt lat="44.993880991825264" lon="9.978835405768969"><ele>44.0</ele><time>2026-03-29T08:30:04Z</time></trkpt><trkpt lat="44.99395660968923" lon="9.978878752690264"><ele>44.0</ele><time>2026-03-29T08:30:05Z</time></trkpt><trkpt lat="44.99403343457656" lon="9.978921844228022"><ele>44.0</ele><time>2026-03-29T08:30:06Z</time></trkpt><trkpt lat="44.99410897722003" lon="9.97896529292833"><ele>44.0</ele><time>2026-03-29T08:30:07Z</time></trkpt><trkpt lat="44.99418297473834" lon="9.97901058938873"><ele>44.0</ele><time>2026-03-29T08:30:08Z</time></trkpt><trkpt lat="44.99425983850787" lon="9.979051899070955"><ele>44.0</ele><time>2026-03-29T08:30:09Z</time></trkpt><trkpt lat="44.9943381858035" lon="9.979097021663986"><ele>44.0</ele><time>2026-03-29T08:30:10Z</time></trkpt><trkpt lat="44.99441533056586" lon="9.9791426492478"><ele>43.83333333333333</ele><time>2026-03-29T08:30:11Z</time></trkpt><trkpt lat="44.994493514049516" lon="9.979183223768457"><ele>43.666666666666664</ele><time>2026-03-29T08:30:12Z</time></trkpt><trkpt lat="44.99457234209792" lon="9.979224126867813"><ele>43.5</ele><time>2026-03-29T08:30:13Z</time></trkpt><trkpt lat="44.99464890257263" lon="9.979265559912385"><ele>43.333333333333336</ele><time>2026-03-29T08:30:14Z</time></trkpt><trkpt lat="44.99472610596001" lon="9.979309372358065"><ele>43.16666666666667</ele><time>2026-03-29T08:30:15Z</time></trkpt><trkpt lat="44.99480187141056" lon="9.97935303722431"><ele>43.0</ele><time>2026-03-29T08:30:16Z</time></trkpt><trkpt lat="44.99487914769391" lon="9.979397017125304"><ele>43.0</ele><time>2026-03-29T08:30:17Z</time></trkpt><trkpt lat="44.994958578219986" lon="9.979435986650412"><ele>43.0</ele><time>2026-03-29T08:30:18Z</time></trkpt><trkpt lat="44.995037496305" lon="9.979475566728768"><ele>43.0</ele><time>2026-03-29T08:30:19Z</time></trkpt><trkpt lat="44.99511555662973" lon="9.979515153214656"><ele>43.0</ele><time>2026-03-29T08:30:20Z</time></trkpt><trkpt lat="44.99519442823436" lon="9.979554853195895"><ele>43.0</ele><time>2026-03-29T08:30:21Z</time></trkpt><trkpt lat="44.99527425258924" lon="9.979593267408475"><ele>43.0</ele><time>2026-03-29T08:30:22Z</time></trkpt><trkpt lat="44.99535389450458" lon="9.979632386078173"><ele>42.833333333333336</ele><time>2026-03-29T08:30:23Z</time></trkpt><trkpt lat="44.99543214372871" lon="9.97967282935568"><ele>42.66666666666667</ele><time>2026-03-29T08:30:24Z</time></trkpt><trkpt lat="44.99551205944797" lon="9.979710131009666"><ele>42.5</ele><time>2026-03-29T08:30:25Z</time></trkpt><trkpt lat="44.99559271090098" lon="9.979745719941272"><ele>42.333333333333336</ele><time>2026-03-29T08:30:26Z</time></trkpt><trkpt lat="44.99567073913011" lon="9.979782780613712"><ele>42.166666666666664</ele><time>2026-03-29T08:30:27Z</time></trkpt><trkpt lat="44.99575046576108" lon="9.979819759104403"><ele>42.0</ele><time>2026-03-29T08:30:28Z</time></trkpt><trkpt lat="44.995830157732364" lon="9.979855904183221"><ele>41.666666666666664</ele><time>2026-03-29T08:30:29Z</time></trkpt><trkpt lat="44.995908475342844" lon="9.979891823737505"><ele>41.333333333333336</ele><time>2026-03-29T08:30:30Z</time></trkpt><trkpt lat="44.99598776786049" lon="9.979930683977987"><ele>41.0</ele><time>2026-03-29T08:30:31Z</time></trkpt><trkpt lat="44.996067345508685" lon="9.979964126888422"><ele>40.66666666666667</ele><time>2026-03-29T08:30:32Z</time></trkpt><trkpt lat="44.99614474547536" lon="9.979998352595404"><ele>40.333333333333336</ele><time>2026-03-29T08:30:33Z</time></trkpt><trkpt lat="44.99622423888769" lon="9.980032457205914"><ele>40.0</ele><time>2026-03-29T08:30:34Z</time></trkpt><trkpt lat="44.99630236350731" lon="9.98006578962969"><ele>40.0</ele><time>2026-03-29T08:30:35Z</time></trkpt><trkpt lat="44.996378136917826" lon="9.980101527220665"><ele>40.0</ele><time>2026-03-29T08:30:35.999Z</time></trkpt><trkpt lat="44.996458424796906" lon="9.980135987830543"><ele>40.0</ele><time>2026-03-29T08:30:36.999Z</time></trkpt><trkpt lat="44.99653796529399" lon="9.980167737522688"><ele>40.0</ele><time>2026-03-29T08:30:37.999Z</time></trkpt><trkpt lat="44.99661607637953" lon="9.980202680524668"><ele>40.0</ele><time>2026-03-29T08:30:38.999Z</time></trkpt><trkpt lat="44.99669363903962" lon="9.98023654921092"><ele>40.0</ele><time>2026-03-29T08:30:39.999Z</time></trkpt><trkpt lat="44.99677214890675" lon="9.980271096665886"><ele>39.833333333333336</ele><time>2026-03-29T08:30:40.999Z</time></trkpt><trkpt lat="44.996851145733096" lon="9.980304799254172"><ele>39.66666666666667</ele><time>2026-03-29T08:30:41.999Z</time></trkpt><trkpt lat="44.99693053908939" lon="9.980340214442014"><ele>39.5</ele><time>2026-03-29T08:30:42.999Z</time></trkpt><trkpt lat="44.99700868909213" lon="9.980371088706889"><ele>39.333333333333336</ele><time>2026-03-29T08:30:43.999Z</time></trkpt><trkpt lat="44.99708616059739" lon="9.980404110426596"><ele>39.166666666666664</ele><time>2026-03-29T08:30:44.999Z</time></trkpt><trkpt lat="44.997163724227114" lon="9.98043759329637"><ele>39.0</ele><time>2026-03-29T08:30:45.999Z</time></trkpt><trkpt lat="44.99724313288155" lon="9.980474194155002"><ele>39.0</ele><time>2026-03-29T08:30:46.999Z</time></trkpt><trkpt lat="44.99731986188533" lon="9.980513067691323"><ele>39.0</ele><time>2026-03-29T08:30:47.999Z</time></trkpt><trkpt lat="44.99739850070317" lon="9.980546982826452"><ele>39.0</ele><time>2026-03-29T08:30:48.999Z</time></trkpt><trkpt lat="44.99747621326723" lon="9.980579263166565"><ele>39.0</ele><time>2026-03-29T08:30:49.999Z</time></trkpt><trkpt lat="44.997554924846554" lon="9.980613413324107"><ele>39.0</ele><time>2026-03-29T08:30:50.999Z</time></trkpt><trkpt lat="44.99763368801354" lon="9.980651703150098"><ele>39.0</ele><time>2026-03-29T08:30:51.999Z</time></trkpt><trkpt lat="44.99770986726895" lon="9.980688112504112"><ele>39.166666666666664</ele><time>2026-03-29T08:30:52.999Z</time></trkpt><trkpt lat="44.997789150289016" lon="9.980722773352873"><ele>39.333333333333336</ele><time>2026-03-29T08:30:53.999Z</time></trkpt><trkpt lat="44.99786685505238" lon="9.980757838610039"><ele>39.5</ele><time>2026-03-29T08:30:54.999Z</time></trkpt><trkpt lat="44.99794629773032" lon="9.98079511186571"><ele>39.66666666666667</ele><time>2026-03-29T08:30:55.999Z</time></trkpt><trkpt lat="44.99802385647917" lon="9.980831570316981"><ele>39.833333333333336</ele><time>2026-03-29T08:30:56.999Z</time></trkpt><trkpt lat="44.99810318289597" lon="9.980865124382703"><ele>40.0</ele><time>2026-03-29T08:30:57.999Z</time></trkpt><trkpt lat="44.99817945764272" lon="9.980900238105807"><ele>40.16666666666667</ele><time>2026-03-29T08:30:58.999Z</time></trkpt><trkpt lat="44.99825753218615" lon="9.980934758008646"><ele>40.333333333333336</ele><time>2026-03-29T08:30:59.999Z</time></trkpt><trkpt lat="44.99833507301139" lon="9.98097194566442"><ele>40.5</ele><time>2026-03-29T08:31:00.999Z</time></trkpt><trkpt lat="44.9984119458151" lon="9.981007030655075"><ele>40.666666666666664</ele><time>2026-03-29T08:31:01.999Z</time></trkpt><trkpt lat="44.998488374125515" lon="9.981041277188396"><ele>40.83333333333333</ele><time>2026-03-29T08:31:02.999Z</time></trkpt><trkpt lat="44.99856562245079" lon="9.981075733435526"><ele>41.0</ele><time>2026-03-29T08:31:03.999Z</time></trkpt><trkpt lat="44.998643578755676" lon="9.981108236653037"><ele>41.33333333333333</ele><time>2026-03-29T08:31:04.999Z</time></trkpt><trkpt lat="44.99871903834403" lon="9.981145189999271"><ele>41.666666666666664</ele><time>2026-03-29T08:31:05.999Z</time></trkpt><trkpt lat="44.99879594308615" lon="9.981182252378913"><ele>42.0</ele><time>2026-03-29T08:31:06.999Z</time></trkpt><trkpt lat="44.99887281795112" lon="9.981219484616545"><ele>42.333333333333336</ele><time>2026-03-29T08:31:07.999Z</time></trkpt><trkpt lat="44.998949168293215" lon="9.981253770299011"><ele>42.66666666666667</ele><time>2026-03-29T08:31:08.999Z</time></trkpt><trkpt lat="44.99902577631081" lon="9.981287071198182"><ele>43.0</ele><time>2026-03-29T08:31:09.999Z</time></trkpt><trkpt lat="44.99910127213381" lon="9.981326235162514"><ele>43.0</ele><time>2026-03-29T08:31:10.999Z</time></trkpt><trkpt lat="44.99917576164919" lon="9.981362765065603"><ele>43.0</ele><time>2026-03-29T08:31:11.999Z</time></trkpt><trkpt lat="44.99925365837772" lon="9.981397224898398"><ele>43.0</ele><time>2026-03-29T08:31:12.999Z</time></trkpt><trkpt lat="44.99932941996559" lon="9.981432372094693"><ele>43.0</ele><time>2026-03-29T08:31:13.999Z</time></trkpt><trkpt lat="44.99940620992829" lon="9.981463399655258"><ele>43.0</ele><time>2026-03-29T08:31:14.999Z</time></trkpt><trkpt lat="44.999483188846924" lon="9.981497368631295"><ele>43.0</ele><time>2026-03-29T08:31:15.999Z</time></trkpt><trkpt lat="44.99956076535969" lon="9.981530751779195"><ele>43.0</ele><time>2026-03-29T08:31:16.999Z</time></trkpt><trkpt lat="44.99963891558258" lon="9.98156771679121"><ele>43.0</ele><time>2026-03-29T08:31:17.999Z</time></trkpt><trkpt lat="44.99971688636508" lon="9.981605495045397"><ele>43.0</ele><time>2026-03-29T08:31:18.999Z</time></trkpt><trkpt lat="44.99979180109633" lon="9.981639443732837"><ele>43.0</ele><time>2026-03-29T08:31:19.999Z</time></trkpt><trkpt lat="44.999870134247374" lon="9.981672878228371"><ele>43.0</ele><time>2026-03-29T08:31:20.999Z</time></trkpt><trkpt lat="44.999943080814546" lon="9.981727840939294"><ele>43.0</ele><time>2026-03-29T08:31:21.999Z</time></trkpt><trkpt lat="45.00001786463827" lon="9.981762276413122"><ele>42.833333333333336</ele><time>2026-03-29T08:31:22.999Z</time></trkpt><trkpt lat="45.00010090506848" lon="9.981781664479524"><ele>42.66666666666667</ele><time>2026-03-29T08:31:23.999Z</time></trkpt><trkpt lat="45.00017205391489" lon="9.981819545879535"><ele>42.5</ele><time>2026-03-29T08:31:24.999Z</time></trkpt><trkpt lat="45.000250554764435" lon="9.981852123282922"><ele>42.333333333333336</ele><time>2026-03-29T08:31:25.999Z</time></trkpt><trkpt lat="45.00032605068086" lon="9.981888533363643"><ele>42.166666666666664</ele><time>2026-03-29T08:31:26.999Z</time></trkpt><trkpt lat="45.00040141831792" lon="9.981920739665792"><ele>42.0</ele><time>2026-03-29T08:31:27.999Z</time></trkpt><trkpt lat="45.000478304275276" lon="9.981958731551114"><ele>42.0</ele><time>2026-03-29T08:31:28.999Z</time></trkpt><trkpt lat="45.00054945202762" lon="9.98199388241926"><ele>42.0</ele><time>2026-03-29T08:31:29.999Z</time></trkpt><trkpt lat="45.000618684981696" lon="9.982033882259982"><ele>42.0</ele><time>2026-03-29T08:31:30.998Z</time></trkpt><trkpt lat="45.000684969988384" lon="9.982074123016194"><ele>42.0</ele><time>2026-03-29T08:31:31.998Z</time></trkpt><trkpt lat="45.000750088420816" lon="9.982108886794592"><ele>42.0</ele><time>2026-03-29T08:31:32.998Z</time></trkpt><trkpt lat="45.000812795951084" lon="9.982147426997724"><ele>42.0</ele><time>2026-03-29T08:31:33.998Z</time></trkpt><trkpt lat="45.000874696692804" lon="9.982183678074971"><ele>42.0</ele><time>2026-03-29T08:31:34.998Z</time></trkpt><trkpt lat="45.000937375551544" lon="9.982217852203613"><ele>42.0</ele><time>2026-03-29T08:31:35.998Z</time></trkpt><trkpt lat="45.001000451251656" lon="9.982255903791453"><ele>42.0</ele><time>2026-03-29T08:31:36.998Z</time></trkpt><trkpt lat="45.001063640332596" lon="9.982298195804907"><ele>42.0</ele><time>2026-03-29T08:31:37.998Z</time></trkpt><trkpt lat="45.00112762627758" lon="9.982337950865734"><ele>42.0</ele><time>2026-03-29T08:31:38.998Z</time></trkpt><trkpt lat="45.00119248331174" lon="9.982378795347525"><ele>42.0</ele><time>2026-03-29T08:31:39.998Z</time></trkpt><trkpt lat="45.0012603035641" lon="9.98241623966524"><ele>42.0</ele><time>2026-03-29T08:31:40.998Z</time></trkpt><trkpt lat="45.001326401641236" lon="9.982454957371623"><ele>42.0</ele><time>2026-03-29T08:31:41.998Z</time></trkpt><trkpt lat="45.00139500498844" lon="9.982497959725457"><ele>42.0</ele><time>2026-03-29T08:31:42.998Z</time></trkpt><trkpt lat="45.00146210911644" lon="9.98254237959259"><ele>42.0</ele><time>2026-03-29T08:31:43.998Z</time></trkpt><trkpt lat="45.001530101341785" lon="9.982591145728483"><ele>42.0</ele><time>2026-03-29T08:31:44.998Z</time></trkpt><trkpt lat="45.001599374985474" lon="9.982630197460377"><ele>42.0</ele><time>2026-03-29T08:31:45.998Z</time></trkpt><trkpt lat="45.00167072272183" lon="9.982671360865217"><ele>42.0</ele><time>2026-03-29T08:31:46.998Z</time></trkpt><trkpt lat="45.00173803272199" lon="9.982711640957152"><ele>42.0</ele><time>2026-03-29T08:31:47.998Z</time></trkpt><trkpt lat="45.001802551574386" lon="9.98275223466368"><ele>42.0</ele><time>2026-03-29T08:31:48.998Z</time></trkpt><trkpt lat="45.00186951920353" lon="9.98279308601332"><ele>42.0</ele><time>2026-03-29T08:31:49.998Z</time></trkpt><trkpt lat="45.00193830437917" lon="9.982837874113184"><ele>42.0</ele><time>2026-03-29T08:31:50.998Z</time></trkpt><trkpt lat="45.00200797784343" lon="9.982878765394254"><ele>42.0</ele><time>2026-03-29T08:31:51.998Z</time></trkpt><trkpt lat="45.002077026371566" lon="9.9829230077894"><ele>42.0</ele><time>2026-03-29T08:31:52.998Z</time></trkpt><trkpt lat="45.00214647176191" lon="9.98296638542727"><ele>42.0</ele><time>2026-03-29T08:31:53.998Z</time></trkpt><trkpt lat="45.0022174754366" lon="9.983016817042317"><ele>42.0</ele><time>2026-03-29T08:31:54.998Z</time></trkpt><trkpt lat="45.00228535436626" lon="9.983059714152542"><ele>42.0</ele><time>2026-03-29T08:31:55.998Z</time></trkpt><trkpt lat="45.00235281208513" lon="9.983114044241988"><ele>42.0</ele><time>2026-03-29T08:31:56.998Z</time></trkpt><trkpt lat="45.00240999437354" lon="9.983182534900285"><ele>42.0</ele><time>2026-03-29T08:31:57.998Z</time></trkpt><trkpt lat="45.002461026940445" lon="9.98326178696129"><ele>42.0</ele><time>2026-03-29T08:31:58.998Z</time></trkpt><trkpt lat="45.0025083136059" lon="9.98334693344423"><ele>42.0</ele><time>2026-03-29T08:31:59.998Z</time></trkpt><trkpt lat="45.00255371104722" lon="9.98343319257505"><ele>42.0</ele><time>2026-03-29T08:32:00.998Z</time></trkpt><trkpt lat="45.00259902235087" lon="9.983516805624046"><ele>41.714285714285715</ele><time>2026-03-29T08:32:02Z</time></trkpt><trkpt lat="45.00264831366721" lon="9.983594193911731"><ele>41.42857142857143</ele><time>2026-03-29T08:32:03Z</time></trkpt><trkpt lat="45.00270178930817" lon="9.983665268205383"><ele>41.14285714285714</ele><time>2026-03-29T08:32:04Z</time></trkpt><trkpt lat="45.00276410534488" lon="9.983723206511478"><ele>40.85714285714286</ele><time>2026-03-29T08:32:05Z</time></trkpt><trkpt lat="45.0028293418639" lon="9.983773918307474"><ele>40.57142857142857</ele><time>2026-03-29T08:32:06Z</time></trkpt><trkpt lat="45.002893178737054" lon="9.983827409763938"><ele>40.285714285714285</ele><time>2026-03-29T08:32:07Z</time></trkpt><trkpt lat="45.0029582608669" lon="9.983881928975608"><ele>40.0</ele><time>2026-03-29T08:32:08Z</time></trkpt><trkpt lat="45.00302293527777" lon="9.98393581575003"><ele>40.0</ele><time>2026-03-29T08:32:09Z</time></trkpt><trkpt lat="45.00308750449584" lon="9.983984089893749"><ele>40.0</ele><time>2026-03-29T08:32:10Z</time></trkpt><trkpt lat="45.00315330651908" lon="9.984036567724646"><ele>40.0</ele><time>2026-03-29T08:32:11Z</time></trkpt><trkpt lat="45.003219168686" lon="9.984084498615479"><ele>40.0</ele><time>2026-03-29T08:32:12Z</time></trkpt><trkpt lat="45.003285237463345" lon="9.984138999027781"><ele>40.0</ele><time>2026-03-29T08:32:13Z</time></trkpt><trkpt lat="45.00335215711815" lon="9.984190006522672"><ele>40.0</ele><time>2026-03-29T08:32:14Z</time></trkpt><trkpt lat="45.003418812438476" lon="9.984244764795964"><ele>40.16666666666667</ele><time>2026-03-29T08:32:15Z</time></trkpt><trkpt lat="45.00348428922779" lon="9.984296471395792"><ele>40.333333333333336</ele><time>2026-03-29T08:32:16Z</time></trkpt><trkpt lat="45.00355092801852" lon="9.984349435067465"><ele>40.5</ele><time>2026-03-29T08:32:17Z</time></trkpt><trkpt lat="45.00361884207699" lon="9.984399925457332"><ele>40.666666666666664</ele><time>2026-03-29T08:32:18Z</time></trkpt><trkpt lat="45.00368770810114" lon="9.984451624671546"><ele>40.83333333333333</ele><time>2026-03-29T08:32:19Z</time></trkpt><trkpt lat="45.003755655326735" lon="9.984507093682925"><ele>41.0</ele><time>2026-03-29T08:32:20Z</time></trkpt><trkpt lat="45.00382315359071" lon="9.984562947500791"><ele>41.0</ele><time>2026-03-29T08:32:21Z</time></trkpt><trkpt lat="45.00389031867221" lon="9.984614326056322"><ele>41.0</ele><time>2026-03-29T08:32:22Z</time></trkpt><trkpt lat="45.003957642094626" lon="9.984666614178638"><ele>41.0</ele><time>2026-03-29T08:32:23Z</time></trkpt><trkpt lat="45.00402340260693" lon="9.984720252778576"><ele>41.0</ele><time>2026-03-29T08:32:24Z</time></trkpt><trkpt lat="45.00409013151687" lon="9.98477403676666"><ele>41.0</ele><time>2026-03-29T08:32:25Z</time></trkpt><trkpt lat="45.004156279335966" lon="9.984830913586803"><ele>41.0</ele><time>2026-03-29T08:32:26Z</time></trkpt><trkpt lat="45.0042233927241" lon="9.984884510071288"><ele>40.83333333333333</ele><time>2026-03-29T08:32:27Z</time></trkpt><trkpt lat="45.00429132514477" lon="9.984937824256559"><ele>40.666666666666664</ele><time>2026-03-29T08:32:28Z</time></trkpt><trkpt lat="45.00435813111603" lon="9.984989986983955"><ele>40.5</ele><time>2026-03-29T08:32:29Z</time></trkpt><trkpt lat="45.00442456205754" lon="9.985039666378592"><ele>40.333333333333336</ele><time>2026-03-29T08:32:30Z</time></trkpt><trkpt lat="45.00449287500532" lon="9.98509081394142"><ele>40.16666666666667</ele><time>2026-03-29T08:32:31Z</time></trkpt><trkpt lat="45.00455218546373" lon="9.985164210823902"><ele>40.0</ele><time>2026-03-29T08:32:32Z</time></trkpt><trkpt lat="45.00462702279623" lon="9.98519837682581"><ele>40.0</ele><time>2026-03-29T08:32:33Z</time></trkpt><trkpt lat="45.00469309915505" lon="9.985255569720282"><ele>40.0</ele><time>2026-03-29T08:32:34Z</time></trkpt><trkpt lat="45.00475845208664" lon="9.985311526310781"><ele>40.0</ele><time>2026-03-29T08:32:35Z</time></trkpt><trkpt lat="45.00482512394681" lon="9.98536348154281"><ele>40.0</ele><time>2026-03-29T08:32:36Z</time></trkpt><trkpt lat="45.004894780115606" lon="9.985413576120424"><ele>40.0</ele><time>2026-03-29T08:32:37Z</time></trkpt><trkpt lat="45.00496309045264" lon="9.985467592062307"><ele>40.0</ele><time>2026-03-29T08:32:38Z</time></trkpt><trkpt lat="45.005029272043785" lon="9.9855222649631"><ele>40.0</ele><time>2026-03-29T08:32:39Z</time></trkpt><trkpt lat="45.005096358670606" lon="9.985577252760807"><ele>40.0</ele><time>2026-03-29T08:32:39.999Z</time></trkpt><trkpt lat="45.005162445974015" lon="9.985634682764147"><ele>40.0</ele><time>2026-03-29T08:32:40.999Z</time></trkpt><trkpt lat="45.005228415246755" lon="9.985692000159403"><ele>40.0</ele><time>2026-03-29T08:32:41.999Z</time></trkpt><trkpt lat="45.005295121993946" lon="9.985743896762424"><ele>40.0</ele><time>2026-03-29T08:32:42.999Z</time></trkpt><trkpt lat="45.00536471366961" lon="9.985793191114261"><ele>40.0</ele><time>2026-03-29T08:32:43.999Z</time></trkpt><trkpt lat="45.005431670825836" lon="9.985847529716425"><ele>40.0</ele><time>2026-03-29T08:32:44.999Z</time></trkpt><trkpt lat="45.00549679157669" lon="9.9859013499404"><ele>40.0</ele><time>2026-03-29T08:32:45.999Z</time></trkpt><trkpt lat="45.00556332135079" lon="9.985955179446657"><ele>40.0</ele><time>2026-03-29T08:32:46.999Z</time></trkpt><trkpt lat="45.00563156392435" lon="9.986008759577519"><ele>40.0</ele><time>2026-03-29T08:32:47.999Z</time></trkpt><trkpt lat="45.00569939332958" lon="9.986064444294732"><ele>40.0</ele><time>2026-03-29T08:32:48.999Z</time></trkpt><trkpt lat="45.005765547214004" lon="9.986118664960502"><ele>40.0</ele><time>2026-03-29T08:32:49.999Z</time></trkpt><trkpt lat="45.005833670172244" lon="9.986171537058855"><ele>40.333333333333336</ele><time>2026-03-29T08:32:50.999Z</time></trkpt><trkpt lat="45.00590103419041" lon="9.986225608692333"><ele>40.66666666666667</ele><time>2026-03-29T08:32:51.999Z</time></trkpt><trkpt lat="45.00596771558955" lon="9.986281024261972"><ele>41.0</ele><time>2026-03-29T08:32:52.999Z</time></trkpt><trkpt lat="45.006032397949056" lon="9.98633797807314"><ele>41.333333333333336</ele><time>2026-03-29T08:32:53.999Z</time></trkpt><trkpt lat="45.006096875664916" lon="9.986400438160452"><ele>41.666666666666664</ele><time>2026-03-29T08:32:54.999Z</time></trkpt><trkpt lat="45.006159532321924" lon="9.986463752047683"><ele>42.0</ele><time>2026-03-29T08:32:55.999Z</time></trkpt><trkpt lat="45.00621822499223" lon="9.986531526502027"><ele>42.0</ele><time>2026-03-29T08:32:56.999Z</time></trkpt><trkpt lat="45.0062718278813" lon="9.986611332540203"><ele>42.0</ele><time>2026-03-29T08:32:57.999Z</time></trkpt><trkpt lat="45.00632216911535" lon="9.986695404666118"><ele>42.0</ele><time>2026-03-29T08:32:58.999Z</time></trkpt><trkpt lat="45.00637306032866" lon="9.986779059366327"><ele>42.0</ele><time>2026-03-29T08:32:59.999Z</time></trkpt><trkpt lat="45.00642259579872" lon="9.986862830354202"><ele>42.0</ele><time>2026-03-29T08:33:00.999Z</time></trkpt><trkpt lat="45.006473261467335" lon="9.986944078403551"><ele>42.0</ele><time>2026-03-29T08:33:01.999Z</time></trkpt><trkpt lat="45.006525377999665" lon="9.98702806753202"><ele>41.833333333333336</ele><time>2026-03-29T08:33:02.999Z</time></trkpt><trkpt lat="45.00657818719007" lon="9.987110084936559"><ele>41.666666666666664</ele><time>2026-03-29T08:33:03.999Z</time></trkpt><trkpt lat="45.0066314677454" lon="9.987194855260002"><ele>41.5</ele><time>2026-03-29T08:33:04.999Z</time></trkpt><trkpt lat="45.006683130974515" lon="9.98728079336222"><ele>41.33333333333333</ele><time>2026-03-29T08:33:05.999Z</time></trkpt><trkpt lat="45.00673445596007" lon="9.987363630894283"><ele>41.166666666666664</ele><time>2026-03-29T08:33:06.999Z</time></trkpt><trkpt lat="45.00678647624269" lon="9.987446292860948"><ele>41.0</ele><time>2026-03-29T08:33:07.999Z</time></trkpt><trkpt lat="45.006839449686886" lon="9.987529763027407"><ele>41.0</ele><time>2026-03-29T08:33:08.999Z</time></trkpt><trkpt lat="45.00689104739769" lon="9.98761249766854"><ele>41.0</ele><time>2026-03-29T08:33:09.999Z</time></trkpt><trkpt lat="45.006942513934916" lon="9.987696734713303"><ele>41.0</ele><time>2026-03-29T08:33:10.999Z</time></trkpt><trkpt lat="45.006993934216915" lon="9.987777525974796"><ele>41.0</ele><time>2026-03-29T08:33:11.999Z</time></trkpt><trkpt lat="45.007047003360455" lon="9.98786194736816"><ele>41.0</ele><time>2026-03-29T08:33:12.999Z</time></trkpt><trkpt lat="45.00709807097421" lon="9.987945879467786"><ele>41.0</ele><time>2026-03-29T08:33:13.999Z</time></trkpt><trkpt lat="45.007149434770895" lon="9.988026456072344"><ele>41.0</ele><time>2026-03-29T08:33:14.999Z</time></trkpt><trkpt lat="45.00720121653047" lon="9.988109179236417"><ele>41.0</ele><time>2026-03-29T08:33:15.999Z</time></trkpt><trkpt lat="45.007252908249235" lon="9.988191358971319"><ele>41.0</ele><time>2026-03-29T08:33:16.999Z</time></trkpt><trkpt lat="45.007302314116025" lon="9.9882781124758"><ele>41.0</ele><time>2026-03-29T08:33:17.999Z</time></trkpt><trkpt lat="45.00734921166409" lon="9.98836769216266"><ele>41.0</ele><time>2026-03-29T08:33:18.999Z</time></trkpt><trkpt lat="45.007394122735555" lon="9.988457465593008"><ele>41.0</ele><time>2026-03-29T08:33:19.999Z</time></trkpt><trkpt lat="45.007435729526236" lon="9.988553250454496"><ele>41.0</ele><time>2026-03-29T08:33:20.999Z</time></trkpt><trkpt lat="45.00747323494859" lon="9.988651782908889"><ele>41.0</ele><time>2026-03-29T08:33:21.999Z</time></trkpt><trkpt lat="45.00750837901183" lon="9.98875069980034"><ele>41.0</ele><time>2026-03-29T08:33:22.999Z</time></trkpt><trkpt lat="45.00754115380221" lon="9.988849836817389"><ele>41.0</ele><time>2026-03-29T08:33:23.999Z</time></trkpt><trkpt lat="45.00757270645032" lon="9.98894956452797"><ele>41.0</ele><time>2026-03-29T08:33:24.999Z</time></trkpt><trkpt lat="45.007605888709676" lon="9.989048949461356"><ele>41.0</ele><time>2026-03-29T08:33:25.999Z</time></trkpt><trkpt lat="45.007640158978646" lon="9.989148610777782"><ele>41.0</ele><time>2026-03-29T08:33:26.999Z</time></trkpt><trkpt lat="45.007678245717294" lon="9.989241957241191"><ele>41.0</ele><time>2026-03-29T08:33:27.999Z</time></trkpt><trkpt lat="45.00771875619598" lon="9.989333948591078"><ele>41.0</ele><time>2026-03-29T08:33:28.999Z</time></trkpt><trkpt lat="45.007760765728094" lon="9.989422770034336"><ele>41.0</ele><time>2026-03-29T08:33:29.999Z</time></trkpt><trkpt lat="45.00780660813313" lon="9.989508446436423"><ele>41.0</ele><time>2026-03-29T08:33:30.999Z</time></trkpt><trkpt lat="45.007854497012104" lon="9.989594835697503"><ele>41.0</ele><time>2026-03-29T08:33:31.999Z</time></trkpt><trkpt lat="45.00790178249747" lon="9.989680097204158"><ele>41.0</ele><time>2026-03-29T08:33:32.999Z</time></trkpt><trkpt lat="45.00795265055395" lon="9.989764747296459"><ele>41.0</ele><time>2026-03-29T08:33:33.999Z</time></trkpt><trkpt lat="45.00800067359328" lon="9.98985094515871"><ele>41.0</ele><time>2026-03-29T08:33:34.998Z</time></trkpt><trkpt lat="45.00804974515133" lon="9.989938800718132"><ele>41.0</ele><time>2026-03-29T08:33:35.998Z</time></trkpt><trkpt lat="45.00809967635136" lon="9.990019503744355"><ele>41.0</ele><time>2026-03-29T08:33:36.998Z</time></trkpt><trkpt lat="45.00815257940443" lon="9.990101530817988"><ele>41.0</ele><time>2026-03-29T08:33:37.998Z</time></trkpt><trkpt lat="45.0082013874481" lon="9.99018930868339"><ele>40.83333333333333</ele><time>2026-03-29T08:33:38.998Z</time></trkpt><trkpt lat="45.008253001081066" lon="9.990271442929048"><ele>40.666666666666664</ele><time>2026-03-29T08:33:39.998Z</time></trkpt><trkpt lat="45.0083047459403" lon="9.990356770518382"><ele>40.5</ele><time>2026-03-29T08:33:40.998Z</time></trkpt><trkpt lat="45.00835705969825" lon="9.990443885919449"><ele>40.333333333333336</ele><time>2026-03-29T08:33:41.998Z</time></trkpt><trkpt lat="45.00840819548873" lon="9.990529544913416"><ele>40.16666666666667</ele><time>2026-03-29T08:33:42.998Z</time></trkpt><trkpt lat="45.008460787534744" lon="9.990616040099574"><ele>40.0</ele><time>2026-03-29T08:33:43.998Z</time></trkpt><trkpt lat="45.00851091392073" lon="9.99070533860387"><ele>40.0</ele><time>2026-03-29T08:33:44.998Z</time></trkpt><trkpt lat="45.00856316808223" lon="9.990794473031613"><ele>40.0</ele><time>2026-03-29T08:33:45.998Z</time></trkpt><trkpt lat="45.00861401383268" lon="9.990882901356525"><ele>40.0</ele><time>2026-03-29T08:33:46.998Z</time></trkpt><trkpt lat="45.00866628816093" lon="9.990972431905115"><ele>40.0</ele><time>2026-03-29T08:33:47.998Z</time></trkpt><trkpt lat="45.008715983419734" lon="9.991060588816069"><ele>40.0</ele><time>2026-03-29T08:33:48.998Z</time></trkpt><trkpt lat="45.008770273047595" lon="9.99114661803721"><ele>40.0</ele><time>2026-03-29T08:33:49.998Z</time></trkpt><trkpt lat="45.00882213233837" lon="9.991236823007632"><ele>40.0</ele><time>2026-03-29T08:33:50.998Z</time></trkpt><trkpt lat="45.00887656283002" lon="9.991322881447415"><ele>40.0</ele><time>2026-03-29T08:33:51.998Z</time></trkpt><trkpt lat="45.00892772822358" lon="9.99140958332793"><ele>40.0</ele><time>2026-03-29T08:33:52.998Z</time></trkpt><trkpt lat="45.00898044415422" lon="9.991494089192473"><ele>40.0</ele><time>2026-03-29T08:33:53.998Z</time></trkpt><trkpt lat="45.00902948247758" lon="9.991583531775726"><ele>40.0</ele><time>2026-03-29T08:33:54.998Z</time></trkpt><trkpt lat="45.0090805360141" lon="9.991668881860967"><ele>40.0</ele><time>2026-03-29T08:33:55.998Z</time></trkpt><trkpt lat="45.00912988080268" lon="9.991755304197813"><ele>39.66666666666667</ele><time>2026-03-29T08:33:56.998Z</time></trkpt><trkpt lat="45.00918039766297" lon="9.991840868077043"><ele>39.333333333333336</ele><time>2026-03-29T08:33:57.998Z</time></trkpt><trkpt lat="45.00923105360061" lon="9.991926248793352"><ele>39.0</ele><time>2026-03-29T08:33:58.998Z</time></trkpt><trkpt lat="45.00928391524146" lon="9.992012919464807"><ele>38.666666666666664</ele><time>2026-03-29T08:33:59.998Z</time></trkpt><trkpt lat="45.00933541646165" lon="9.992099474052296"><ele>38.33333333333333</ele><time>2026-03-29T08:34:00.998Z</time></trkpt><trkpt lat="45.009387083396135" lon="9.992183575206639"><ele>38.0</ele><time>2026-03-29T08:34:01.998Z</time></trkpt><trkpt lat="45.009440964975575" lon="9.992272370405946"><ele>38.0</ele><time>2026-03-29T08:34:02.998Z</time></trkpt><trkpt lat="45.00949474437746" lon="9.992357016578628"><ele>38.0</ele><time>2026-03-29T08:34:03.998Z</time></trkpt><trkpt lat="45.009549304567656" lon="9.992442626890679"><ele>38.0</ele><time>2026-03-29T08:34:04.998Z</time></trkpt><trkpt lat="45.00960361684876" lon="9.992527443417293"><ele>38.0</ele><time>2026-03-29T08:34:05.998Z</time></trkpt><trkpt lat="45.009658227453315" lon="9.99261044487279"><ele>38.0</ele><time>2026-03-29T08:34:06.998Z</time></trkpt><trkpt lat="45.00971474287404" lon="9.992692730438897"><ele>38.0</ele><time>2026-03-29T08:34:08Z</time></trkpt><trkpt lat="45.00977011811514" lon="9.99277906595156"><ele>38.166666666666664</ele><time>2026-03-29T08:34:09Z</time></trkpt><trkpt lat="45.009824797982816" lon="9.992861151045064"><ele>38.33333333333333</ele><time>2026-03-29T08:34:10Z</time></trkpt><trkpt lat="45.00988126662282" lon="9.99294360566871"><ele>38.5</ele><time>2026-03-29T08:34:11Z</time></trkpt><trkpt lat="45.00993631076744" lon="9.993023502186407"><ele>38.666666666666664</ele><time>2026-03-29T08:34:12Z</time></trkpt><trkpt lat="45.009990352070126" lon="9.993104852274636"><ele>38.833333333333336</ele><time>2026-03-29T08:34:13Z</time></trkpt><trkpt lat="45.010046137278565" lon="9.993187540544017"><ele>39.0</ele><time>2026-03-29T08:34:14Z</time></trkpt><trkpt lat="45.01010332340359" lon="9.993265591146878"><ele>39.166666666666664</ele><time>2026-03-29T08:34:15Z</time></trkpt><trkpt lat="45.010159478091026" lon="9.993345753460964"><ele>39.333333333333336</ele><time>2026-03-29T08:34:16Z</time></trkpt><trkpt lat="45.01021409697716" lon="9.99342686608127"><ele>39.5</ele><time>2026-03-29T08:34:17Z</time></trkpt><trkpt lat="45.01026811614833" lon="9.99350864817411"><ele>39.66666666666667</ele><time>2026-03-29T08:34:18Z</time></trkpt><trkpt lat="45.01032256944031" lon="9.993589054865906"><ele>39.833333333333336</ele><time>2026-03-29T08:34:19Z</time></trkpt><trkpt lat="45.01037676794209" lon="9.993670692691671"><ele>40.0</ele><time>2026-03-29T08:34:20Z</time></trkpt><trkpt lat="45.0104317426757" lon="9.993750938042256"><ele>40.0</ele><time>2026-03-29T08:34:21Z</time></trkpt><trkpt lat="45.01048571215915" lon="9.993831942701135"><ele>40.0</ele><time>2026-03-29T08:34:22Z</time></trkpt><trkpt lat="45.010540399135685" lon="9.993910573212743"><ele>40.0</ele><time>2026-03-29T08:34:23Z</time></trkpt><trkpt lat="45.01059422937214" lon="9.99399263587716"><ele>40.0</ele><time>2026-03-29T08:34:24Z</time></trkpt><trkpt lat="45.010646195457674" lon="9.99407858195379"><ele>40.0</ele><time>2026-03-29T08:34:25Z</time></trkpt><trkpt lat="45.01070067563915" lon="9.994160551441292"><ele>40.0</ele><time>2026-03-29T08:34:26Z</time></trkpt><trkpt lat="45.01075695529209" lon="9.994237993042018"><ele>40.0</ele><time>2026-03-29T08:34:27Z</time></trkpt><trkpt lat="45.01081541054834" lon="9.994317949080683"><ele>40.0</ele><time>2026-03-29T08:34:28Z</time></trkpt><trkpt lat="45.01087228474102" lon="9.994395527070756"><ele>40.0</ele><time>2026-03-29T08:34:29Z</time></trkpt><trkpt lat="45.0109316774451" lon="9.99447281475643"><ele>40.0</ele><time>2026-03-29T08:34:30Z</time></trkpt><trkpt lat="45.010992289143324" lon="9.994548284011993"><ele>40.0</ele><time>2026-03-29T08:34:31Z</time></trkpt><trkpt lat="45.01104898260348" lon="9.994626398409636"><ele>40.0</ele><time>2026-03-29T08:34:32Z</time></trkpt><trkpt lat="45.01110691165258" lon="9.994706547617985"><ele>40.0</ele><time>2026-03-29T08:34:33Z</time></trkpt><trkpt lat="45.01117063284808" lon="9.994774991958622"><ele>40.0</ele><time>2026-03-29T08:34:34Z</time></trkpt><trkpt lat="45.011230071140595" lon="9.994855776229876"><ele>40.0</ele><time>2026-03-29T08:34:35Z</time></trkpt><trkpt lat="45.011288033676344" lon="9.994935910579608"><ele>40.0</ele><time>2026-03-29T08:34:36Z</time></trkpt><trkpt lat="45.01134439327009" lon="9.995014545425862"><ele>40.0</ele><time>2026-03-29T08:34:37Z</time></trkpt><trkpt lat="45.01139878129937" lon="9.995102120716883"><ele>40.0</ele><time>2026-03-29T08:34:38Z</time></trkpt><trkpt lat="45.01145300938284" lon="9.995187782707866"><ele>39.833333333333336</ele><time>2026-03-29T08:34:39Z</time></trkpt><trkpt lat="45.011508209558265" lon="9.995268136943855"><ele>39.66666666666667</ele><time>2026-03-29T08:34:40Z</time></trkpt><trkpt lat="45.01156446299551" lon="9.995349716716984"><ele>39.5</ele><time>2026-03-29T08:34:41Z</time></trkpt><trkpt lat="45.01161967105752" lon="9.995432571810804"><ele>39.333333333333336</ele><time>2026-03-29T08:34:42Z</time></trkpt><trkpt lat="45.01167405306958" lon="9.99551569539905"><ele>39.166666666666664</ele><time>2026-03-29T08:34:43Z</time></trkpt><trkpt lat="45.0117273334184" lon="9.995600106678065"><ele>39.0</ele><time>2026-03-29T08:34:44Z</time></trkpt><trkpt lat="45.011780619343504" lon="9.99568700566837"><ele>39.166666666666664</ele><time>2026-03-29T08:34:44.999Z</time></trkpt><trkpt lat="45.011834624136156" lon="9.99576910181989"><ele>39.333333333333336</ele><time>2026-03-29T08:34:45.999Z</time></trkpt><trkpt lat="45.01188479619807" lon="9.995849386320788"><ele>39.5</ele><time>2026-03-29T08:34:46.999Z</time></trkpt><trkpt lat="45.011932550170144" lon="9.995925511148442"><ele>39.66666666666667</ele><time>2026-03-29T08:34:47.999Z</time></trkpt><trkpt lat="45.01197624371472" lon="9.995999563792909"><ele>39.833333333333336</ele><time>2026-03-29T08:34:48.999Z</time></trkpt><trkpt lat="45.01201710686486" lon="9.99607171371305"><ele>40.0</ele><time>2026-03-29T08:34:49.999Z</time></trkpt><trkpt lat="45.01209056871047" lon="9.99620635742715"><ele>40.0</ele><time>2026-03-29T08:34:51.999Z</time></trkpt><trkpt lat="45.01215059598757" lon="9.99633869054903"><ele>40.0</ele><time>2026-03-29T08:34:53.999Z</time></trkpt><trkpt lat="45.012221495304935" lon="9.996469988724591"><ele>40.0</ele><time>2026-03-29T08:34:55.999Z</time></trkpt><trkpt lat="45.01229521269948" lon="9.996611271833952"><ele>40.0</ele><time>2026-03-29T08:34:57.999Z</time></trkpt><trkpt lat="45.012336105516226" lon="9.99668062580356"><ele>40.0</ele><time>2026-03-29T08:34:58.999Z</time></trkpt><trkpt lat="45.01241781012952" lon="9.996818333763084"><ele>40.0</ele><time>2026-03-29T08:35:00.999Z</time></trkpt><trkpt lat="45.012461435356805" lon="9.996886173080213"><ele>40.0</ele><time>2026-03-29T08:35:01.999Z</time></trkpt><trkpt lat="45.01250354351754" lon="9.996957999552837"><ele>40.0</ele><time>2026-03-29T08:35:02.999Z</time></trkpt><trkpt lat="45.0125450436523" lon="9.997025624935862"><ele>40.0</ele><time>2026-03-29T08:35:03.999Z</time></trkpt><trkpt lat="45.01258928503642" lon="9.997102491597666"><ele>40.0</ele><time>2026-03-29T08:35:04.999Z</time></trkpt><trkpt lat="45.012634223395885" lon="9.997170160390297"><ele>40.0</ele><time>2026-03-29T08:35:05.999Z</time></trkpt><trkpt lat="45.012681126151946" lon="9.997238101413163"><ele>40.0</ele><time>2026-03-29T08:35:06.999Z</time></trkpt><trkpt lat="45.01272986259555" lon="9.997307887992356"><ele>39.857142857142854</ele><time>2026-03-29T08:35:07.999Z</time></trkpt><trkpt lat="45.01277743173622" lon="9.997374384516421"><ele>39.714285714285715</ele><time>2026-03-29T08:35:08.999Z</time></trkpt><trkpt lat="45.01282569225745" lon="9.99744237856557"><ele>39.57142857142857</ele><time>2026-03-29T08:35:09.999Z</time></trkpt><trkpt lat="45.01286855312715" lon="9.99751762716371"><ele>39.42857142857143</ele><time>2026-03-29T08:35:10.999Z</time></trkpt><trkpt lat="45.01291365506655" lon="9.99759256165028"><ele>39.285714285714285</ele><time>2026-03-29T08:35:11.999Z</time></trkpt><trkpt lat="45.01295954379632" lon="9.997665036050357"><ele>39.142857142857146</ele><time>2026-03-29T08:35:12.999Z</time></trkpt><trkpt lat="45.01300448437664" lon="9.997738362692335"><ele>39.0</ele><time>2026-03-29T08:35:13.999Z</time></trkpt><trkpt lat="45.01304952734595" lon="9.997814826216235"><ele>38.85714285714286</ele><time>2026-03-29T08:35:14.999Z</time></trkpt><trkpt lat="45.013094794738585" lon="9.997889675179948"><ele>38.71428571428571</ele><time>2026-03-29T08:35:15.999Z</time></trkpt><trkpt lat="45.01313825689775" lon="9.997961893096976"><ele>38.57142857142857</ele><time>2026-03-29T08:35:16.999Z</time></trkpt><trkpt lat="45.013186311703834" lon="9.998035206736697"><ele>38.42857142857143</ele><time>2026-03-29T08:35:17.999Z</time></trkpt><trkpt lat="45.01323112543303" lon="9.998109918295626"><ele>38.28571428571429</ele><time>2026-03-29T08:35:18.999Z</time></trkpt><trkpt lat="45.01327610891284" lon="9.998187081653588"><ele>38.14285714285714</ele><time>2026-03-29T08:35:19.999Z</time></trkpt><trkpt lat="45.0133205538346" lon="9.99826381675037"><ele>38.0</ele><time>2026-03-29T08:35:20.999Z</time></trkpt><trkpt lat="45.01336574757412" lon="9.998340831915916"><ele>38.0</ele><time>2026-03-29T08:35:21.999Z</time></trkpt><trkpt lat="45.01341410968555" lon="9.998416258303912"><ele>38.0</ele><time>2026-03-29T08:35:22.999Z</time></trkpt><trkpt lat="45.01346078893772" lon="9.998493089642793"><ele>38.0</ele><time>2026-03-29T08:35:23.999Z</time></trkpt><trkpt lat="45.01351005383627" lon="9.998567406415798"><ele>38.0</ele><time>2026-03-29T08:35:24.999Z</time></trkpt><trkpt lat="45.01355746288677" lon="9.998645666020469"><ele>38.0</ele><time>2026-03-29T08:35:25.999Z</time></trkpt><trkpt lat="45.01360323695147" lon="9.998721431762865"><ele>38.0</ele><time>2026-03-29T08:35:26.999Z</time></trkpt><trkpt lat="45.01364767760171" lon="9.998803338649436"><ele>38.0</ele><time>2026-03-29T08:35:27.999Z</time></trkpt><trkpt lat="45.01368976181388" lon="9.998884135688256"><ele>38.0</ele><time>2026-03-29T08:35:28.999Z</time></trkpt><trkpt lat="45.01373809793114" lon="9.998963213779563"><ele>38.0</ele><time>2026-03-29T08:35:29.999Z</time></trkpt><trkpt lat="45.01378747701581" lon="9.99904010632499"><ele>38.0</ele><time>2026-03-29T08:35:30.999Z</time></trkpt><trkpt lat="45.01383647483096" lon="9.99911634431148"><ele>38.0</ele><time>2026-03-29T08:35:31.999Z</time></trkpt><trkpt lat="45.01388405095405" lon="9.99919173229488"><ele>38.0</ele><time>2026-03-29T08:35:32.999Z</time></trkpt><trkpt lat="45.01393039837931" lon="9.999270437256486"><ele>38.0</ele><time>2026-03-29T08:35:33.999Z</time></trkpt><trkpt lat="45.01397667829173" lon="9.999352761104982"><ele>38.0</ele><time>2026-03-29T08:35:34.999Z</time></trkpt><trkpt lat="45.01402073825795" lon="9.999431735253378"><ele>37.857142857142854</ele><time>2026-03-29T08:35:35.999Z</time></trkpt><trkpt lat="45.01406695510831" lon="9.999510856345498"><ele>37.714285714285715</ele><time>2026-03-29T08:35:36.999Z</time></trkpt><trkpt lat="45.01411408754923" lon="9.999591967299189"><ele>37.57142857142857</ele><time>2026-03-29T08:35:37.999Z</time></trkpt><trkpt lat="45.0141611415328" lon="9.999673045010804"><ele>37.42857142857143</ele><time>2026-03-29T08:35:38.999Z</time></trkpt><trkpt lat="45.01420938356934" lon="9.999746478783889"><ele>37.285714285714285</ele><time>2026-03-29T08:35:39.998Z</time></trkpt><trkpt lat="45.014257785203725" lon="9.99982555817239"><ele>37.142857142857146</ele><time>2026-03-29T08:35:40.998Z</time></trkpt><trkpt lat="45.01430384024041" lon="9.999905439158379"><ele>37.0</ele><time>2026-03-29T08:35:41.998Z</time></trkpt><trkpt lat="45.0143539501267" lon="9.999985904859996"><ele>37.285714285714285</ele><time>2026-03-29T08:35:42.998Z</time></trkpt><trkpt lat="45.01440096129882" lon="10.000067020774166"><ele>37.57142857142857</ele><time>2026-03-29T08:35:43.998Z</time></trkpt><trkpt lat="45.01444905548492" lon="10.000147001140885"><ele>37.85714285714286</ele><time>2026-03-29T08:35:44.998Z</time></trkpt><trkpt lat="45.014497620647134" lon="10.000227061200937"><ele>38.14285714285714</ele><time>2026-03-29T08:35:45.998Z</time></trkpt><trkpt lat="45.01454684513055" lon="10.000306684870806"><ele>38.42857142857142</ele><time>2026-03-29T08:35:46.998Z</time></trkpt><trkpt lat="45.014595767391995" lon="10.000386059675773"><ele>38.714285714285715</ele><time>2026-03-29T08:35:47.998Z</time></trkpt><trkpt lat="45.01464530178069" lon="10.000464727941937"><ele>39.0</ele><time>2026-03-29T08:35:48.998Z</time></trkpt><trkpt lat="45.01469479988078" lon="10.000543227856456"><ele>39.0</ele><time>2026-03-29T08:35:49.998Z</time></trkpt><trkpt lat="45.014743475339664" lon="10.000623056303326"><ele>39.0</ele><time>2026-03-29T08:35:50.998Z</time></trkpt><trkpt lat="45.01478959266944" lon="10.000704708755944"><ele>39.0</ele><time>2026-03-29T08:35:51.998Z</time></trkpt><trkpt lat="45.014840773002334" lon="10.000785776003395"><ele>39.0</ele><time>2026-03-29T08:35:52.998Z</time></trkpt><trkpt lat="45.014891443117435" lon="10.000864847157846"><ele>39.0</ele><time>2026-03-29T08:35:53.998Z</time></trkpt><trkpt lat="45.01494102597513" lon="10.00094091505226"><ele>39.0</ele><time>2026-03-29T08:35:54.998Z</time></trkpt><trkpt lat="45.014989395622464" lon="10.00101866971582"><ele>39.0</ele><time>2026-03-29T08:35:55.998Z</time></trkpt><trkpt lat="45.015036228100584" lon="10.001101819574185"><ele>38.833333333333336</ele><time>2026-03-29T08:35:56.998Z</time></trkpt><trkpt lat="45.01508371948932" lon="10.001185651770534"><ele>38.666666666666664</ele><time>2026-03-29T08:35:57.998Z</time></trkpt><trkpt lat="45.01513175042366" lon="10.001270429117763"><ele>38.5</ele><time>2026-03-29T08:35:58.998Z</time></trkpt><trkpt lat="45.01518267565204" lon="10.001351476581023"><ele>38.33333333333333</ele><time>2026-03-29T08:35:59.998Z</time></trkpt><trkpt lat="45.01523492200031" lon="10.001431103155884"><ele>38.166666666666664</ele><time>2026-03-29T08:36:00.998Z</time></trkpt><trkpt lat="45.01528486276792" lon="10.001512633602822"><ele>38.0</ele><time>2026-03-29T08:36:01.998Z</time></trkpt><trkpt lat="45.01533764790489" lon="10.00158270251445"><ele>38.0</ele><time>2026-03-29T08:36:02.998Z</time></trkpt><trkpt lat="45.01539066136215" lon="10.001658019350083"><ele>38.0</ele><time>2026-03-29T08:36:03.998Z</time></trkpt><trkpt lat="45.0154365285018" lon="10.001736711373258"><ele>38.0</ele><time>2026-03-29T08:36:04.998Z</time></trkpt><trkpt lat="45.01548153859987" lon="10.001814243818268"><ele>38.0</ele><time>2026-03-29T08:36:05.998Z</time></trkpt><trkpt lat="45.01552516496639" lon="10.001889518820821"><ele>38.0</ele><time>2026-03-29T08:36:06.998Z</time></trkpt><trkpt lat="45.01557193508455" lon="10.001971702482065"><ele>38.0</ele><time>2026-03-29T08:36:07.998Z</time></trkpt><trkpt lat="45.01561560751764" lon="10.002052526357756"><ele>38.0</ele><time>2026-03-29T08:36:08.998Z</time></trkpt><trkpt lat="45.01566421581855" lon="10.002135345007808"><ele>38.0</ele><time>2026-03-29T08:36:09.998Z</time></trkpt><trkpt lat="45.0157121107544" lon="10.002216273994703"><ele>38.0</ele><time>2026-03-29T08:36:10.998Z</time></trkpt><trkpt lat="45.01576148123505" lon="10.002297121736493"><ele>38.0</ele><time>2026-03-29T08:36:11.998Z</time></trkpt><trkpt lat="45.015813074250374" lon="10.002378537350978"><ele>38.0</ele><time>2026-03-29T08:36:13Z</time></trkpt><trkpt lat="45.015865431787596" lon="10.002457252198582"><ele>38.0</ele><time>2026-03-29T08:36:14Z</time></trkpt><trkpt lat="45.01591484078279" lon="10.002539192686848"><ele>38.0</ele><time>2026-03-29T08:36:15Z</time></trkpt><trkpt lat="45.015963722398716" lon="10.002624155565668"><ele>38.0</ele><time>2026-03-29T08:36:16Z</time></trkpt><trkpt lat="45.01601348732206" lon="10.002708113603148"><ele>38.0</ele><time>2026-03-29T08:36:17Z</time></trkpt><trkpt lat="45.01606570653133" lon="10.002792237457953"><ele>38.0</ele><time>2026-03-29T08:36:18Z</time></trkpt><trkpt lat="45.01611673521538" lon="10.002871612463318"><ele>38.0</ele><time>2026-03-29T08:36:19Z</time></trkpt><trkpt lat="45.016169202084164" lon="10.002950062121492"><ele>38.0</ele><time>2026-03-29T08:36:20Z</time></trkpt><trkpt lat="45.016218134653734" lon="10.003031049133023"><ele>38.0</ele><time>2026-03-29T08:36:21Z</time></trkpt><trkpt lat="45.01626522791323" lon="10.00311386299637"><ele>38.0</ele><time>2026-03-29T08:36:22Z</time></trkpt><trkpt lat="45.01631391452577" lon="10.003196826562377"><ele>38.0</ele><time>2026-03-29T08:36:23Z</time></trkpt><trkpt lat="45.01636248788286" lon="10.003278311366968"><ele>38.0</ele><time>2026-03-29T08:36:24Z</time></trkpt><trkpt lat="45.01641272678755" lon="10.003356579455286"><ele>38.0</ele><time>2026-03-29T08:36:25Z</time></trkpt><trkpt lat="45.01646263473966" lon="10.003435331286214"><ele>38.0</ele><time>2026-03-29T08:36:26Z</time></trkpt><trkpt lat="45.016513936028026" lon="10.003514546557764"><ele>38.0</ele><time>2026-03-29T08:36:27Z</time></trkpt><trkpt lat="45.01656325498643" lon="10.003596967469493"><ele>38.0</ele><time>2026-03-29T08:36:28Z</time></trkpt><trkpt lat="45.01661322536411" lon="10.003677840142439"><ele>38.0</ele><time>2026-03-29T08:36:29Z</time></trkpt><trkpt lat="45.01666414819616" lon="10.003759043087628"><ele>38.0</ele><time>2026-03-29T08:36:30Z</time></trkpt><trkpt lat="45.01671386830718" lon="10.003842093235772"><ele>38.0</ele><time>2026-03-29T08:36:31Z</time></trkpt><trkpt lat="45.016763093616085" lon="10.003924881289818"><ele>38.0</ele><time>2026-03-29T08:36:32Z</time></trkpt><trkpt lat="45.016811155760955" lon="10.004008628908231"><ele>38.0</ele><time>2026-03-29T08:36:33Z</time></trkpt><trkpt lat="45.016860173218596" lon="10.004090124402397"><ele>38.0</ele><time>2026-03-29T08:36:34Z</time></trkpt><trkpt lat="45.016909148621224" lon="10.004172999214106"><ele>38.0</ele><time>2026-03-29T08:36:35Z</time></trkpt><trkpt lat="45.01695774762353" lon="10.004255104824294"><ele>38.0</ele><time>2026-03-29T08:36:36Z</time></trkpt><trkpt lat="45.01700727057302" lon="10.004334972592298"><ele>38.0</ele><time>2026-03-29T08:36:37Z</time></trkpt><trkpt lat="45.01705785212769" lon="10.004414934732369"><ele>38.0</ele><time>2026-03-29T08:36:38Z</time></trkpt><trkpt lat="45.01710758773933" lon="10.004494689119467"><ele>38.0</ele><time>2026-03-29T08:36:39Z</time></trkpt><trkpt lat="45.01715659889766" lon="10.004573489332957"><ele>38.0</ele><time>2026-03-29T08:36:40Z</time></trkpt><trkpt lat="45.01720519182445" lon="10.004655915361424"><ele>38.0</ele><time>2026-03-29T08:36:41Z</time></trkpt><trkpt lat="45.01725286447825" lon="10.004738318848338"><ele>38.0</ele><time>2026-03-29T08:36:42Z</time></trkpt><trkpt lat="45.01730186659876" lon="10.00482102746904"><ele>38.0</ele><time>2026-03-29T08:36:43Z</time></trkpt><trkpt lat="45.017352021086104" lon="10.004903980977607"><ele>38.0</ele><time>2026-03-29T08:36:44Z</time></trkpt><trkpt lat="45.01740170186553" lon="10.004987587987841"><ele>38.0</ele><time>2026-03-29T08:36:45Z</time></trkpt><trkpt lat="45.01745115819532" lon="10.005069252455627"><ele>38.166666666666664</ele><time>2026-03-29T08:36:46Z</time></trkpt><trkpt lat="45.01750126164909" lon="10.005152667996557"><ele>38.33333333333333</ele><time>2026-03-29T08:36:46.999Z</time></trkpt><trkpt lat="45.017551439037135" lon="10.005234167293672"><ele>38.5</ele><time>2026-03-29T08:36:47.999Z</time></trkpt><trkpt lat="45.017601250289516" lon="10.005316241171776"><ele>38.666666666666664</ele><time>2026-03-29T08:36:48.999Z</time></trkpt><trkpt lat="45.01765055066917" lon="10.005399790963436"><ele>38.833333333333336</ele><time>2026-03-29T08:36:49.999Z</time></trkpt><trkpt lat="45.017701277781036" lon="10.005482683771334"><ele>39.0</ele><time>2026-03-29T08:36:50.999Z</time></trkpt><trkpt lat="45.01775252992695" lon="10.00556196444348"><ele>39.0</ele><time>2026-03-29T08:36:51.999Z</time></trkpt><trkpt lat="45.01780261752918" lon="10.005644309432721"><ele>39.0</ele><time>2026-03-29T08:36:52.999Z</time></trkpt><trkpt lat="45.01785181959803" lon="10.005729479283753"><ele>39.0</ele><time>2026-03-29T08:36:53.999Z</time></trkpt><trkpt lat="45.017901470135264" lon="10.00581299355082"><ele>39.0</ele><time>2026-03-29T08:36:54.999Z</time></trkpt><trkpt lat="45.01795180727629" lon="10.005897149449364"><ele>39.0</ele><time>2026-03-29T08:36:55.999Z</time></trkpt><trkpt lat="45.01800086160262" lon="10.005981299700174"><ele>39.0</ele><time>2026-03-29T08:36:56.999Z</time></trkpt><trkpt lat="45.01805128535549" lon="10.006067098962731"><ele>39.0</ele><time>2026-03-29T08:36:57.999Z</time></trkpt><trkpt lat="45.01810204856853" lon="10.006149259656778"><ele>39.0</ele><time>2026-03-29T08:36:58.999Z</time></trkpt><trkpt lat="45.01815328895546" lon="10.006227574802326"><ele>39.0</ele><time>2026-03-29T08:36:59.999Z</time></trkpt><trkpt lat="45.018205137002596" lon="10.006307070312454"><ele>39.0</ele><time>2026-03-29T08:37:00.999Z</time></trkpt><trkpt lat="45.01825772072347" lon="10.006384619404573"><ele>39.0</ele><time>2026-03-29T08:37:01.999Z</time></trkpt><trkpt lat="45.01830990837061" lon="10.006467840140775"><ele>39.0</ele><time>2026-03-29T08:37:02.999Z</time></trkpt><trkpt lat="45.018358710941236" lon="10.006554257862266"><ele>38.833333333333336</ele><time>2026-03-29T08:37:03.999Z</time></trkpt><trkpt lat="45.01840927182497" lon="10.006641534868132"><ele>38.666666666666664</ele><time>2026-03-29T08:37:04.999Z</time></trkpt><trkpt lat="45.018460623260566" lon="10.006727789623403"><ele>38.5</ele><time>2026-03-29T08:37:05.999Z</time></trkpt><trkpt lat="45.018512275881164" lon="10.006812226978056"><ele>38.33333333333333</ele><time>2026-03-29T08:37:06.999Z</time></trkpt><trkpt lat="45.018564602931356" lon="10.006896381508062"><ele>38.166666666666664</ele><time>2026-03-29T08:37:07.999Z</time></trkpt><trkpt lat="45.018615529127175" lon="10.006980555552506"><ele>38.0</ele><time>2026-03-29T08:37:08.999Z</time></trkpt><trkpt lat="45.01866746114008" lon="10.007063421349587"><ele>38.0</ele><time>2026-03-29T08:37:09.999Z</time></trkpt><trkpt lat="45.01871965922605" lon="10.007147759067083"><ele>38.0</ele><time>2026-03-29T08:37:10.999Z</time></trkpt><trkpt lat="45.018770977070275" lon="10.007232851091521"><ele>38.0</ele><time>2026-03-29T08:37:11.999Z</time></trkpt><trkpt lat="45.01882285526041" lon="10.007317590167334"><ele>38.0</ele><time>2026-03-29T08:37:12.999Z</time></trkpt><trkpt lat="45.018873862105345" lon="10.00740629884637"><ele>38.0</ele><time>2026-03-29T08:37:13.999Z</time></trkpt><trkpt lat="45.018924690876496" lon="10.007490953420547"><ele>38.0</ele><time>2026-03-29T08:37:14.999Z</time></trkpt><trkpt lat="45.01897714334409" lon="10.007576055982579"><ele>38.0</ele><time>2026-03-29T08:37:15.999Z</time></trkpt><trkpt lat="45.01902716156065" lon="10.007661094497898"><ele>38.0</ele><time>2026-03-29T08:37:16.999Z</time></trkpt><trkpt lat="45.01907404648694" lon="10.007745804428968"><ele>38.0</ele><time>2026-03-29T08:37:17.999Z</time></trkpt><trkpt lat="45.019122083353224" lon="10.007819011979146"><ele>38.0</ele><time>2026-03-29T08:37:18.999Z</time></trkpt><trkpt lat="45.01916671200541" lon="10.007892329671972"><ele>38.0</ele><time>2026-03-29T08:37:19.999Z</time></trkpt><trkpt lat="45.01921008400251" lon="10.00796256127147"><ele>38.0</ele><time>2026-03-29T08:37:20.999Z</time></trkpt><trkpt lat="45.01925542409388" lon="10.00802901294224"><ele>38.0</ele><time>2026-03-29T08:37:21.999Z</time></trkpt><trkpt lat="45.01934129400997" lon="10.008155979327187"><ele>38.25</ele><time>2026-03-29T08:37:23.999Z</time></trkpt><trkpt lat="45.01941975189248" lon="10.008290521009782"><ele>38.5</ele><time>2026-03-29T08:37:25.999Z</time></trkpt><trkpt lat="45.01949615764559" lon="10.008416194184287"><ele>38.75</ele><time>2026-03-29T08:37:27.999Z</time></trkpt><trkpt lat="45.01956854314802" lon="10.008540595954159"><ele>39.0</ele><time>2026-03-29T08:37:29.999Z</time></trkpt><trkpt lat="45.019643785682746" lon="10.008652833718331"><ele>39.0</ele><time>2026-03-29T08:37:31.999Z</time></trkpt><trkpt lat="45.019713795509404" lon="10.008759856953295"><ele>39.0</ele><time>2026-03-29T08:37:33.999Z</time></trkpt><trkpt lat="45.019779843665034" lon="10.008866089985128"><ele>39.0</ele><time>2026-03-29T08:37:35.999Z</time></trkpt><trkpt lat="45.019840441214924" lon="10.008966690925664"><ele>39.0</ele><time>2026-03-29T08:37:37.999Z</time></trkpt><trkpt lat="45.019901261174375" lon="10.0090501864493"><ele>39.0</ele><time>2026-03-29T08:37:39.999Z</time></trkpt><trkpt lat="45.01996445501961" lon="10.009110661663096"><ele>38.6</ele><time>2026-03-29T08:37:53.998Z</time></trkpt><trkpt lat="45.020032799196535" lon="10.009086253759675"><ele>38.2</ele><time>2026-03-29T08:37:56.998Z</time></trkpt><trkpt lat="45.02008419548317" lon="10.008990488201404"><ele>37.800000000000004</ele><time>2026-03-29T08:37:58.998Z</time></trkpt><trkpt lat="45.02013951702094" lon="10.008879255598986"><ele>37.4</ele><time>2026-03-29T08:38:00.998Z</time></trkpt><trkpt lat="45.02020121324719" lon="10.00875976932921"><ele>37.0</ele><time>2026-03-29T08:38:02.998Z</time></trkpt><trkpt lat="45.02027153822805" lon="10.008628593858013"><ele>37.0</ele><time>2026-03-29T08:38:04.998Z</time></trkpt><trkpt lat="45.02034455534688" lon="10.008484289520354"><ele>37.0</ele><time>2026-03-29T08:38:06.998Z</time></trkpt><trkpt lat="45.02038046798434" lon="10.00840972876035"><ele>37.0</ele><time>2026-03-29T08:38:07.998Z</time></trkpt><trkpt lat="45.020420283269374" lon="10.008334645879314"><ele>37.0</ele><time>2026-03-29T08:38:08.998Z</time></trkpt><trkpt lat="45.02045843929946" lon="10.008252913715333"><ele>37.0</ele><time>2026-03-29T08:38:09.998Z</time></trkpt><trkpt lat="45.02053179213407" lon="10.008104109400865"><ele>37.142857142857146</ele><time>2026-03-29T08:38:11.998Z</time></trkpt><trkpt lat="45.02057259368429" lon="10.008026441643356"><ele>37.285714285714285</ele><time>2026-03-29T08:38:12.998Z</time></trkpt><trkpt lat="45.02061288829261" lon="10.007944644387642"><ele>37.42857142857143</ele><time>2026-03-29T08:38:13.998Z</time></trkpt><trkpt lat="45.02065252212626" lon="10.007863567481396"><ele>37.57142857142857</ele><time>2026-03-29T08:38:14.998Z</time></trkpt><trkpt lat="45.02069295735772" lon="10.007781634640756"><ele>37.714285714285715</ele><time>2026-03-29T08:38:15.998Z</time></trkpt><trkpt lat="45.02073306278981" lon="10.007696693541815"><ele>37.857142857142854</ele><time>2026-03-29T08:38:16.998Z</time></trkpt><trkpt lat="45.020773210643405" lon="10.007610591942756"><ele>38.0</ele><time>2026-03-29T08:38:18Z</time></trkpt><trkpt lat="45.02081818067876" lon="10.007529264035448"><ele>38.0</ele><time>2026-03-29T08:38:19Z</time></trkpt><trkpt lat="45.020863736090405" lon="10.007447756480833"><ele>38.0</ele><time>2026-03-29T08:38:20Z</time></trkpt><trkpt lat="45.020907722970975" lon="10.007362083123537"><ele>38.0</ele><time>2026-03-29T08:38:21Z</time></trkpt><trkpt lat="45.020950325487895" lon="10.00727411401959"><ele>38.0</ele><time>2026-03-29T08:38:22Z</time></trkpt><trkpt lat="45.020993650377356" lon="10.007189784857273"><ele>38.0</ele><time>2026-03-29T08:38:23Z</time></trkpt><trkpt lat="45.0210384023582" lon="10.007103827670088"><ele>38.0</ele><time>2026-03-29T08:38:24Z</time></trkpt><trkpt lat="45.02108188992984" lon="10.00701518861443"><ele>38.0</ele><time>2026-03-29T08:38:25Z</time></trkpt><trkpt lat="45.02112601378427" lon="10.006931264191893"><ele>38.0</ele><time>2026-03-29T08:38:26Z</time></trkpt><trkpt lat="45.02117009496532" lon="10.006843243645074"><ele>38.0</ele><time>2026-03-29T08:38:27Z</time></trkpt><trkpt lat="45.02121375823595" lon="10.006759285934788"><ele>38.0</ele><time>2026-03-29T08:38:28Z</time></trkpt><trkpt lat="45.02125847101219" lon="10.006674777577155"><ele>38.0</ele><time>2026-03-29T08:38:29Z</time></trkpt><trkpt lat="45.021301600013956" lon="10.006588379064642"><ele>38.0</ele><time>2026-03-29T08:38:30Z</time></trkpt><trkpt lat="45.02134699057573" lon="10.00650373549432"><ele>38.0</ele><time>2026-03-29T08:38:31Z</time></trkpt><trkpt lat="45.02139016283274" lon="10.006419084641983"><ele>38.0</ele><time>2026-03-29T08:38:32Z</time></trkpt><trkpt lat="45.021432519239745" lon="10.006332161361039"><ele>37.857142857142854</ele><time>2026-03-29T08:38:33Z</time></trkpt><trkpt lat="45.02147707622185" lon="10.006246198940515"><ele>37.714285714285715</ele><time>2026-03-29T08:38:34Z</time></trkpt><trkpt lat="45.02152164421492" lon="10.00616189630493"><ele>37.57142857142857</ele><time>2026-03-29T08:38:35Z</time></trkpt><trkpt lat="45.02156458842747" lon="10.006076206857184"><ele>37.42857142857143</ele><time>2026-03-29T08:38:36Z</time></trkpt><trkpt lat="45.021608561463" lon="10.005989216118374"><ele>37.285714285714285</ele><time>2026-03-29T08:38:37Z</time></trkpt><trkpt lat="45.02165112252674" lon="10.00590509800008"><ele>37.142857142857146</ele><time>2026-03-29T08:38:38Z</time></trkpt><trkpt lat="45.02169380150104" lon="10.005817456400308"><ele>37.0</ele><time>2026-03-29T08:38:39Z</time></trkpt><trkpt lat="45.02173636491258" lon="10.005731001487867"><ele>37.0</ele><time>2026-03-29T08:38:40Z</time></trkpt><trkpt lat="45.02177892074916" lon="10.00564475107111"><ele>37.0</ele><time>2026-03-29T08:38:41Z</time></trkpt><trkpt lat="45.02181948149042" lon="10.005560164457446"><ele>37.0</ele><time>2026-03-29T08:38:42Z</time></trkpt><trkpt lat="45.02186404139198" lon="10.00547313374295"><ele>37.0</ele><time>2026-03-29T08:38:43Z</time></trkpt><trkpt lat="45.02190885716299" lon="10.005391948242867"><ele>37.0</ele><time>2026-03-29T08:38:44Z</time></trkpt><trkpt lat="45.02195331136102" lon="10.0053044378749"><ele>37.0</ele><time>2026-03-29T08:38:45Z</time></trkpt><trkpt lat="45.02199630526069" lon="10.005217609845362"><ele>37.0</ele><time>2026-03-29T08:38:46Z</time></trkpt><trkpt lat="45.022039298873075" lon="10.005129028882513"><ele>37.0</ele><time>2026-03-29T08:38:47Z</time></trkpt><trkpt lat="45.02208331815588" lon="10.00504069713158"><ele>37.0</ele><time>2026-03-29T08:38:48Z</time></trkpt><trkpt lat="45.02212787006854" lon="10.004956062032763"><ele>37.0</ele><time>2026-03-29T08:38:49Z</time></trkpt><trkpt lat="45.02217386597587" lon="10.004871609975623"><ele>37.0</ele><time>2026-03-29T08:38:50Z</time></trkpt><trkpt lat="45.02221865542461" lon="10.004786581553901"><ele>37.0</ele><time>2026-03-29T08:38:50.999Z</time></trkpt><trkpt lat="45.02226285133939" lon="10.004694881978129"><ele>37.0</ele><time>2026-03-29T08:38:51.999Z</time></trkpt><trkpt lat="45.022308866049364" lon="10.004606263561579"><ele>37.16666666666667</ele><time>2026-03-29T08:38:52.999Z</time></trkpt><trkpt lat="45.02235422563492" lon="10.00451994842071"><ele>37.333333333333336</ele><time>2026-03-29T08:38:53.999Z</time></trkpt><trkpt lat="45.02240153248526" lon="10.004431526106753"><ele>37.5</ele><time>2026-03-29T08:38:54.999Z</time></trkpt><trkpt lat="45.022446402178275" lon="10.004346717825126"><ele>37.666666666666664</ele><time>2026-03-29T08:38:55.999Z</time></trkpt><trkpt lat="45.0224904056082" lon="10.004258627802523"><ele>37.83333333333333</ele><time>2026-03-29T08:38:56.999Z</time></trkpt><trkpt lat="45.02253456041699" lon="10.004171797604366"><ele>38.0</ele><time>2026-03-29T08:38:57.999Z</time></trkpt><trkpt lat="45.02257966366081" lon="10.00408172354735"><ele>37.666666666666664</ele><time>2026-03-29T08:38:58.999Z</time></trkpt><trkpt lat="45.02262380681109" lon="10.003994258901304"><ele>37.33333333333333</ele><time>2026-03-29T08:38:59.999Z</time></trkpt><trkpt lat="45.02266982397339" lon="10.003906978864292"><ele>37.0</ele><time>2026-03-29T08:39:00.999Z</time></trkpt><trkpt lat="45.02271921081903" lon="10.003821249380973"><ele>36.666666666666664</ele><time>2026-03-29T08:39:01.999Z</time></trkpt><trkpt lat="45.02276641795514" lon="10.003733343730184"><ele>36.333333333333336</ele><time>2026-03-29T08:39:02.999Z</time></trkpt><trkpt lat="45.022813212378274" lon="10.003643544588687"><ele>36.0</ele><time>2026-03-29T08:39:03.999Z</time></trkpt><trkpt lat="45.02285797280344" lon="10.003552878093293"><ele>36.0</ele><time>2026-03-29T08:39:04.999Z</time></trkpt><trkpt lat="45.02290271161526" lon="10.003461308934526"><ele>36.0</ele><time>2026-03-29T08:39:05.999Z</time></trkpt><trkpt lat="45.02294750843895" lon="10.00336795466588"><ele>36.0</ele><time>2026-03-29T08:39:06.999Z</time></trkpt><trkpt lat="45.02299199511066" lon="10.003276171118399"><ele>36.0</ele><time>2026-03-29T08:39:07.999Z</time></trkpt><trkpt lat="45.02303929032649" lon="10.00319060959929"><ele>36.0</ele><time>2026-03-29T08:39:08.999Z</time></trkpt><trkpt lat="45.02308502973673" lon="10.003104251231234"><ele>36.0</ele><time>2026-03-29T08:39:09.999Z</time></trkpt><trkpt lat="45.02313263231354" lon="10.003018561260834"><ele>36.166666666666664</ele><time>2026-03-29T08:39:10.999Z</time></trkpt><trkpt lat="45.023179426263795" lon="10.002931350524177"><ele>36.333333333333336</ele><time>2026-03-29T08:39:11.999Z</time></trkpt><trkpt lat="45.0232219510273" lon="10.00284460224594"><ele>36.5</ele><time>2026-03-29T08:39:12.999Z</time></trkpt><trkpt lat="45.02326637768839" lon="10.002753297690766"><ele>36.66666666666667</ele><time>2026-03-29T08:39:13.999Z</time></trkpt><trkpt lat="45.023307846782245" lon="10.00266214075001"><ele>36.833333333333336</ele><time>2026-03-29T08:39:14.999Z</time></trkpt><trkpt lat="45.023353257319144" lon="10.002575712153781"><ele>37.0</ele><time>2026-03-29T08:39:15.999Z</time></trkpt><trkpt lat="45.023404830014144" lon="10.002491692149086"><ele>37.0</ele><time>2026-03-29T08:39:16.999Z</time></trkpt><trkpt lat="45.0234567520786" lon="10.00241237054361"><ele>37.0</ele><time>2026-03-29T08:39:17.999Z</time></trkpt><trkpt lat="45.023514058783384" lon="10.002335639512724"><ele>37.0</ele><time>2026-03-29T08:39:18.999Z</time></trkpt><trkpt lat="45.023574716887936" lon="10.002268533958746"><ele>37.0</ele><time>2026-03-29T08:39:19.999Z</time></trkpt><trkpt lat="45.023635805534006" lon="10.002200729817067"><ele>37.0</ele><time>2026-03-29T08:39:20.999Z</time></trkpt><trkpt lat="45.0236963228639" lon="10.002132735627494"><ele>37.0</ele><time>2026-03-29T08:39:21.999Z</time></trkpt><trkpt lat="45.023758224962535" lon="10.002065708105238"><ele>37.0</ele><time>2026-03-29T08:39:22.999Z</time></trkpt><trkpt lat="45.02381825523981" lon="10.001998004018079"><ele>37.0</ele><time>2026-03-29T08:39:23.999Z</time></trkpt><trkpt lat="45.023877307584634" lon="10.001924741247425"><ele>37.0</ele><time>2026-03-29T08:39:24.999Z</time></trkpt><trkpt lat="45.02394006700551" lon="10.00185247094864"><ele>37.0</ele><time>2026-03-29T08:39:25.999Z</time></trkpt><trkpt lat="45.02399689914561" lon="10.001777735686154"><ele>37.0</ele><time>2026-03-29T08:39:26.999Z</time></trkpt><trkpt lat="45.02405590659504" lon="10.001704635491182"><ele>37.0</ele><time>2026-03-29T08:39:27.999Z</time></trkpt><trkpt lat="45.024116972642766" lon="10.001637610891438"><ele>37.5</ele><time>2026-03-29T08:39:28.999Z</time></trkpt><trkpt lat="45.02417692347784" lon="10.0015676433648"><ele>38.0</ele><time>2026-03-29T08:39:29.999Z</time></trkpt><trkpt lat="45.02423664474568" lon="10.001495667083313"><ele>38.5</ele><time>2026-03-29T08:39:30.999Z</time></trkpt><trkpt lat="45.02429528222939" lon="10.001423880509435"><ele>39.0</ele><time>2026-03-29T08:39:31.999Z</time></trkpt><trkpt lat="45.024352475479674" lon="10.001351203639627"><ele>39.5</ele><time>2026-03-29T08:39:32.999Z</time></trkpt><trkpt lat="45.024411592294534" lon="10.00128085081965"><ele>40.0</ele><time>2026-03-29T08:39:33.999Z</time></trkpt><trkpt lat="45.024471989547116" lon="10.001209608239105"><ele>40.0</ele><time>2026-03-29T08:39:34.999Z</time></trkpt><trkpt lat="45.02453132199261" lon="10.001140100739475"><ele>40.0</ele><time>2026-03-29T08:39:35.999Z</time></trkpt><trkpt lat="45.0245918005075" lon="10.001070295221725"><ele>40.0</ele><time>2026-03-29T08:39:36.999Z</time></trkpt><trkpt lat="45.02465349866822" lon="10.001005436920542"><ele>40.0</ele><time>2026-03-29T08:39:37.999Z</time></trkpt><trkpt lat="45.024715025615464" lon="10.000937383855739"><ele>40.0</ele><time>2026-03-29T08:39:38.999Z</time></trkpt><trkpt lat="45.02477341067658" lon="10.00087947683831"><ele>40.0</ele><time>2026-03-29T08:39:39.999Z</time></trkpt><trkpt lat="45.02483054890909" lon="10.000824715315852"><ele>40.333333333333336</ele><time>2026-03-29T08:39:40.999Z</time></trkpt><trkpt lat="45.02488253791732" lon="10.00076929889215"><ele>40.66666666666667</ele><time>2026-03-29T08:39:41.999Z</time></trkpt><trkpt lat="45.02493141639184" lon="10.0007094456657"><ele>41.0</ele><time>2026-03-29T08:39:42.999Z</time></trkpt><trkpt lat="45.02502278756769" lon="10.000607245925616"><ele>41.333333333333336</ele><time>2026-03-29T08:39:44.999Z</time></trkpt><trkpt lat="45.02510448473162" lon="10.0005134873437"><ele>41.666666666666664</ele><time>2026-03-29T08:39:46.998Z</time></trkpt><trkpt lat="45.025175517285284" lon="10.000435116691825"><ele>42.0</ele><time>2026-03-29T08:39:48.998Z</time></trkpt><trkpt lat="45.02523810122048" lon="10.000376679793883"><ele>42.166666666666664</ele><time>2026-03-29T08:39:50.998Z</time></trkpt><trkpt lat="45.0253012767544" lon="10.000321496129594"><ele>42.333333333333336</ele><time>2026-03-29T08:39:52.998Z</time></trkpt><trkpt lat="45.0253539920485" lon="10.00025118007033"><ele>42.5</ele><time>2026-03-29T08:39:55.998Z</time></trkpt><trkpt lat="45.02541623752218" lon="10.00018371952249"><ele>42.66666666666667</ele><time>2026-03-29T08:39:59.998Z</time></trkpt><trkpt lat="45.0254511438193" lon="10.00009673433813"><ele>42.833333333333336</ele><time>2026-03-29T08:40:02.998Z</time></trkpt><trkpt lat="45.025533774485325" lon="10.000052132602004"><ele>43.0</ele><time>2026-03-29T08:40:05.998Z</time></trkpt><trkpt lat="45.025610974837555" lon="9.999945281030609"><ele>43.0</ele><time>2026-03-29T08:40:07.998Z</time></trkpt><trkpt lat="45.02567483202303" lon="9.999793338793712"><ele>43.0</ele><time>2026-03-29T08:40:09.998Z</time></trkpt><trkpt lat="45.02570839068723" lon="9.999708781505603"><ele>43.0</ele><time>2026-03-29T08:40:10.998Z</time></trkpt><trkpt lat="45.025743257660174" lon="9.99962793133356"><ele>43.0</ele><time>2026-03-29T08:40:11.998Z</time></trkpt><trkpt lat="45.02577393588408" lon="9.999536923824627"><ele>43.0</ele><time>2026-03-29T08:40:12.998Z</time></trkpt><trkpt lat="45.0258064991861" lon="9.999445678313142"><ele>43.0</ele><time>2026-03-29T08:40:13.998Z</time></trkpt><trkpt lat="45.02584416327954" lon="9.999356230866814"><ele>43.142857142857146</ele><time>2026-03-29T08:40:14.998Z</time></trkpt><trkpt lat="45.025881032933704" lon="9.99926686156659"><ele>43.285714285714285</ele><time>2026-03-29T08:40:15.998Z</time></trkpt><trkpt lat="45.025917026216" lon="9.999176471909143"><ele>43.42857142857143</ele><time>2026-03-29T08:40:16.998Z</time></trkpt><trkpt lat="45.025950033189446" lon="9.999083406991867"><ele>43.57142857142857</ele><time>2026-03-29T08:40:17.998Z</time></trkpt><trkpt lat="45.025989324298706" lon="9.998996478801276"><ele>43.714285714285715</ele><time>2026-03-29T08:40:18.998Z</time></trkpt><trkpt lat="45.026029482509884" lon="9.998909750976342"><ele>43.85714285714286</ele><time>2026-03-29T08:40:19.998Z</time></trkpt><trkpt lat="45.02606663890586" lon="9.998819991213704"><ele>44.0</ele><time>2026-03-29T08:40:20.998Z</time></trkpt><trkpt lat="45.02610561370957" lon="9.99873343556544"><ele>43.85714285714286</ele><time>2026-03-29T08:40:21.998Z</time></trkpt><trkpt lat="45.02614532093886" lon="9.998645064817692"><ele>43.714285714285715</ele><time>2026-03-29T08:40:22.998Z</time></trkpt><trkpt lat="45.02618065451502" lon="9.998553843667244"><ele>43.57142857142857</ele><time>2026-03-29T08:40:24Z</time></trkpt><trkpt lat="45.026218789751645" lon="9.998462631590364"><ele>43.42857142857143</ele><time>2026-03-29T08:40:25Z</time></trkpt><trkpt lat="45.02625831666453" lon="9.99837435333816"><ele>43.285714285714285</ele><time>2026-03-29T08:40:26Z</time></trkpt><trkpt lat="45.026300413631546" lon="9.998286806614434"><ele>43.142857142857146</ele><time>2026-03-29T08:40:27Z</time></trkpt><trkpt lat="45.02634461202487" lon="9.998197400937887"><ele>43.0</ele><time>2026-03-29T08:40:28Z</time></trkpt><trkpt lat="45.026386453511684" lon="9.998107555270249"><ele>43.0</ele><time>2026-03-29T08:40:29Z</time></trkpt><trkpt lat="45.02642813035608" lon="9.998016789028885"><ele>43.0</ele><time>2026-03-29T08:40:30Z</time></trkpt><trkpt lat="45.02646716997391" lon="9.997923874118909"><ele>43.0</ele><time>2026-03-29T08:40:31Z</time></trkpt><trkpt lat="45.02651201890697" lon="9.997831543201805"><ele>43.0</ele><time>2026-03-29T08:40:32Z</time></trkpt><trkpt lat="45.0265544063698" lon="9.997741176657074"><ele>43.0</ele><time>2026-03-29T08:40:33Z</time></trkpt><trkpt lat="45.02660360839374" lon="9.997656766084699"><ele>43.0</ele><time>2026-03-29T08:40:34Z</time></trkpt><trkpt lat="45.02666476050892" lon="9.99758895272878"><ele>42.66666666666667</ele><time>2026-03-29T08:40:35Z</time></trkpt><trkpt lat="45.026741142753814" lon="9.997552454173722"><ele>42.333333333333336</ele><time>2026-03-29T08:40:36Z</time></trkpt><trkpt lat="45.0268237780728" lon="9.997554931945945"><ele>42.0</ele><time>2026-03-29T08:40:37Z</time></trkpt><trkpt lat="45.02689481529466" lon="9.997606945355233"><ele>41.666666666666664</ele><time>2026-03-29T08:40:38Z</time></trkpt><trkpt lat="45.02696000042369" lon="9.997670926314964"><ele>41.33333333333333</ele><time>2026-03-29T08:40:39Z</time></trkpt><trkpt lat="45.027023984395264" lon="9.997725256817455"><ele>41.0</ele><time>2026-03-29T08:40:40Z</time></trkpt><trkpt lat="45.02709263302736" lon="9.997771607067707"><ele>41.0</ele><time>2026-03-29T08:40:41Z</time></trkpt><trkpt lat="45.02716134297381" lon="9.99781145775036"><ele>41.0</ele><time>2026-03-29T08:40:42Z</time></trkpt><trkpt lat="45.02723219357763" lon="9.997856998153798"><ele>41.0</ele><time>2026-03-29T08:40:43Z</time></trkpt><trkpt lat="45.0273008323443" lon="9.99790425268321"><ele>41.0</ele><time>2026-03-29T08:40:44Z</time></trkpt><trkpt lat="45.02736838715773" lon="9.997956488559206"><ele>41.0</ele><time>2026-03-29T08:40:45Z</time></trkpt><trkpt lat="45.027432458440444" lon="9.998007041404213"><ele>41.0</ele><time>2026-03-29T08:40:46Z</time></trkpt><trkpt lat="45.02750060954847" lon="9.998053012636339"><ele>41.166666666666664</ele><time>2026-03-29T08:40:47Z</time></trkpt><trkpt lat="45.02756613728649" lon="9.998106296851958"><ele>41.33333333333333</ele><time>2026-03-29T08:40:48Z</time></trkpt><trkpt lat="45.027633577209784" lon="9.998154227449078"><ele>41.5</ele><time>2026-03-29T08:40:49Z</time></trkpt><trkpt lat="45.02769995188511" lon="9.99820094847098"><ele>41.666666666666664</ele><time>2026-03-29T08:40:50Z</time></trkpt><trkpt lat="45.0277671415339" lon="9.998252684165115"><ele>41.833333333333336</ele><time>2026-03-29T08:40:51Z</time></trkpt><trkpt lat="45.027835097164015" lon="9.998302059915176"><ele>42.0</ele><time>2026-03-29T08:40:52Z</time></trkpt><trkpt lat="45.02790192951406" lon="9.998351548806015"><ele>42.0</ele><time>2026-03-29T08:40:53Z</time></trkpt><trkpt lat="45.027969032694024" lon="9.998399374536051"><ele>42.0</ele><time>2026-03-29T08:40:54Z</time></trkpt><trkpt lat="45.028041378121856" lon="9.99842919450391"><ele>42.0</ele><time>2026-03-29T08:40:55Z</time></trkpt><trkpt lat="45.028118621697466" lon="9.998425883905695"><ele>42.0</ele><time>2026-03-29T08:40:55.999Z</time></trkpt><trkpt lat="45.028191996864805" lon="9.9983788583371"><ele>42.0</ele><time>2026-03-29T08:40:56.999Z</time></trkpt><trkpt lat="45.02825423522055" lon="9.998300776282248"><ele>42.0</ele><time>2026-03-29T08:40:57.999Z</time></trkpt><trkpt lat="45.02830007315407" lon="9.998203784302607"><ele>41.833333333333336</ele><time>2026-03-29T08:40:58.999Z</time></trkpt><trkpt lat="45.028335279907296" lon="9.998097276239237"><ele>41.666666666666664</ele><time>2026-03-29T08:40:59.999Z</time></trkpt><trkpt lat="45.028366929172236" lon="9.997994043223795"><ele>41.5</ele><time>2026-03-29T08:41:00.999Z</time></trkpt><trkpt lat="45.02839881168664" lon="9.997890490263613"><ele>41.33333333333333</ele><time>2026-03-29T08:41:01.999Z</time></trkpt><trkpt lat="45.02843722669367" lon="9.99778999022849"><ele>41.166666666666664</ele><time>2026-03-29T08:41:02.999Z</time></trkpt><trkpt lat="45.02847349751264" lon="9.997686272847783"><ele>41.0</ele><time>2026-03-29T08:41:03.999Z</time></trkpt><trkpt lat="45.02851035258072" lon="9.997586118272467"><ele>41.0</ele><time>2026-03-29T08:41:04.999Z</time></trkpt><trkpt lat="45.02854589333648" lon="9.997486728757115"><ele>41.0</ele><time>2026-03-29T08:41:05.999Z</time></trkpt><trkpt lat="45.02858207534284" lon="9.997390584405354"><ele>41.0</ele><time>2026-03-29T08:41:06.999Z</time></trkpt><trkpt lat="45.02861992400374" lon="9.997289800966659"><ele>41.0</ele><time>2026-03-29T08:41:07.999Z</time></trkpt><trkpt lat="45.028654109653125" lon="9.997188605914047"><ele>41.0</ele><time>2026-03-29T08:41:08.999Z</time></trkpt><trkpt lat="45.028688785967894" lon="9.997089888474136"><ele>41.0</ele><time>2026-03-29T08:41:09.999Z</time></trkpt><trkpt lat="45.02872410227968" lon="9.996989039318418"><ele>41.0</ele><time>2026-03-29T08:41:10.999Z</time></trkpt><trkpt lat="45.028761331295634" lon="9.996887691525128"><ele>41.0</ele><time>2026-03-29T08:41:11.999Z</time></trkpt><trkpt lat="45.02879855422331" lon="9.996785331697838"><ele>41.0</ele><time>2026-03-29T08:41:12.999Z</time></trkpt><trkpt lat="45.02883162028748" lon="9.996682602486231"><ele>41.0</ele><time>2026-03-29T08:41:13.999Z</time></trkpt><trkpt lat="45.02886803987441" lon="9.996583640854958"><ele>41.0</ele><time>2026-03-29T08:41:14.999Z</time></trkpt><trkpt lat="45.028904867812756" lon="9.996487271871613"><ele>41.0</ele><time>2026-03-29T08:41:15.999Z</time></trkpt><trkpt lat="45.02893997460305" lon="9.996389207797357"><ele>40.83333333333333</ele><time>2026-03-29T08:41:16.999Z</time></trkpt><trkpt lat="45.028976313519784" lon="9.99629558181065"><ele>40.666666666666664</ele><time>2026-03-29T08:41:17.999Z</time></trkpt><trkpt lat="45.029011821941545" lon="9.99620625938193"><ele>40.5</ele><time>2026-03-29T08:41:18.999Z</time></trkpt><trkpt lat="45.029063379570346" lon="9.996136380262394"><ele>40.333333333333336</ele><time>2026-03-29T08:41:19.999Z</time></trkpt><trkpt lat="45.0292064398468" lon="9.996109300454965"><ele>40.16666666666667</ele><time>2026-03-29T08:41:21.999Z</time></trkpt><trkpt lat="45.02927743158006" lon="9.996157592462751"><ele>40.0</ele><time>2026-03-29T08:41:22.999Z</time></trkpt><trkpt lat="45.02934033052734" lon="9.996216211255927"><ele>39.857142857142854</ele><time>2026-03-29T08:41:23.999Z</time></trkpt><trkpt lat="45.029406435317945" lon="9.996267146258832"><ele>39.714285714285715</ele><time>2026-03-29T08:41:24.999Z</time></trkpt><trkpt lat="45.029471713853056" lon="9.996313375954244"><ele>39.57142857142857</ele><time>2026-03-29T08:41:25.999Z</time></trkpt><trkpt lat="45.02953735523104" lon="9.996360816537997"><ele>39.42857142857143</ele><time>2026-03-29T08:41:26.999Z</time></trkpt><trkpt lat="45.02960360194268" lon="9.996411550691466"><ele>39.285714285714285</ele><time>2026-03-29T08:41:27.999Z</time></trkpt><trkpt lat="45.02967083359987" lon="9.996455551454345"><ele>39.142857142857146</ele><time>2026-03-29T08:41:28.999Z</time></trkpt><trkpt lat="45.029739167408955" lon="9.996504201234398"><ele>39.0</ele><time>2026-03-29T08:41:29.999Z</time></trkpt><trkpt lat="45.029807439971194" lon="9.996551802920727"><ele>39.0</ele><time>2026-03-29T08:41:30.999Z</time></trkpt><trkpt lat="45.02987604590043" lon="9.99660132258741"><ele>39.0</ele><time>2026-03-29T08:41:31.999Z</time></trkpt><trkpt lat="45.02994433885169" lon="9.99665088936513"><ele>39.0</ele><time>2026-03-29T08:41:32.999Z</time></trkpt><trkpt lat="45.03001488956139" lon="9.99669637423267"><ele>39.0</ele><time>2026-03-29T08:41:33.999Z</time></trkpt><trkpt lat="45.03008577965113" lon="9.996737859887851"><ele>39.0</ele><time>2026-03-29T08:41:34.999Z</time></trkpt><trkpt lat="45.030155223491406" lon="9.996790723875217"><ele>39.0</ele><time>2026-03-29T08:41:35.999Z</time></trkpt><trkpt lat="45.030224067379116" lon="9.996841856676946"><ele>38.5</ele><time>2026-03-29T08:41:36.999Z</time></trkpt><trkpt lat="45.03029389744117" lon="9.996892158853559"><ele>38.0</ele><time>2026-03-29T08:41:37.999Z</time></trkpt><trkpt lat="45.03036263829827" lon="9.996937664004589"><ele>37.5</ele><time>2026-03-29T08:41:38.999Z</time></trkpt><trkpt lat="45.030431715390414" lon="9.99698784160516"><ele>37.0</ele><time>2026-03-29T08:41:39.999Z</time></trkpt><trkpt lat="45.03050024096257" lon="9.997039884378012"><ele>36.5</ele><time>2026-03-29T08:41:40.999Z</time></trkpt><trkpt lat="45.03056787743589" lon="9.997089534598867"><ele>36.0</ele><time>2026-03-29T08:41:41.999Z</time></trkpt><trkpt lat="45.03063659013559" lon="9.997137837600597"><ele>36.0</ele><time>2026-03-29T08:41:42.999Z</time></trkpt><trkpt lat="45.030705694269855" lon="9.997188453789654"><ele>36.0</ele><time>2026-03-29T08:41:43.999Z</time></trkpt><trkpt lat="45.03077526810287" lon="9.997238332213973"><ele>36.0</ele><time>2026-03-29T08:41:44.999Z</time></trkpt><trkpt lat="45.030845637710435" lon="9.997284515299095"><ele>36.0</ele><time>2026-03-29T08:41:45.999Z</time></trkpt><trkpt lat="45.03091645720335" lon="9.997331335231815"><ele>36.0</ele><time>2026-03-29T08:41:46.999Z</time></trkpt><trkpt lat="45.030985751004" lon="9.997379468377282"><ele>36.0</ele><time>2026-03-29T08:41:47.999Z</time></trkpt><trkpt lat="45.03105586961373" lon="9.997424143935074"><ele>36.166666666666664</ele><time>2026-03-29T08:41:48.999Z</time></trkpt><trkpt lat="45.03112360742458" lon="9.997467712174881"><ele>36.333333333333336</ele><time>2026-03-29T08:41:49.999Z</time></trkpt><trkpt lat="45.03119194910243" lon="9.997512001338297"><ele>36.5</ele><time>2026-03-29T08:41:50.999Z</time></trkpt><trkpt lat="45.031263154247426" lon="9.997556494386068"><ele>36.66666666666667</ele><time>2026-03-29T08:41:51.998Z</time></trkpt><trkpt lat="45.03133046773477" lon="9.997606070397444"><ele>36.833333333333336</ele><time>2026-03-29T08:41:52.998Z</time></trkpt><trkpt lat="45.031399908442125" lon="9.997655681555841"><ele>37.0</ele><time>2026-03-29T08:41:53.998Z</time></trkpt><trkpt lat="45.031468362021556" lon="9.997702409210794"><ele>37.0</ele><time>2026-03-29T08:41:54.998Z</time></trkpt><trkpt lat="45.03153902474011" lon="9.99775092979909"><ele>37.0</ele><time>2026-03-29T08:41:55.998Z</time></trkpt><trkpt lat="45.03160831401416" lon="9.997798372310342"><ele>37.0</ele><time>2026-03-29T08:41:56.998Z</time></trkpt><trkpt lat="45.03167766164437" lon="9.997847986513404"><ele>37.0</ele><time>2026-03-29T08:41:57.998Z</time></trkpt><trkpt lat="45.03174764245839" lon="9.997895029632632"><ele>37.0</ele><time>2026-03-29T08:41:58.998Z</time></trkpt><trkpt lat="45.03181656081095" lon="9.99794290679829"><ele>37.0</ele><time>2026-03-29T08:41:59.998Z</time></trkpt><trkpt lat="45.03188555068322" lon="9.997985322787896"><ele>37.333333333333336</ele><time>2026-03-29T08:42:00.998Z</time></trkpt><trkpt lat="45.03195726529204" lon="9.998030058542122"><ele>37.66666666666667</ele><time>2026-03-29T08:42:01.998Z</time></trkpt><trkpt lat="45.03202781817378" lon="9.998074482746269"><ele>38.0</ele><time>2026-03-29T08:42:02.998Z</time></trkpt><trkpt lat="45.03209905066311" lon="9.998117437259287"><ele>38.333333333333336</ele><time>2026-03-29T08:42:03.998Z</time></trkpt><trkpt lat="45.032172077568056" lon="9.99815799282977"><ele>38.666666666666664</ele><time>2026-03-29T08:42:04.998Z</time></trkpt><trkpt lat="45.03224744105759" lon="9.998197059915967"><ele>39.0</ele><time>2026-03-29T08:42:05.998Z</time></trkpt><trkpt lat="45.03232215552936" lon="9.998235004338278"><ele>39.0</ele><time>2026-03-29T08:42:06.998Z</time></trkpt><trkpt lat="45.03239564066086" lon="9.998276513991378"><ele>39.0</ele><time>2026-03-29T08:42:07.998Z</time></trkpt><trkpt lat="45.03246704979098" lon="9.998322705225526"><ele>39.0</ele><time>2026-03-29T08:42:08.998Z</time></trkpt><trkpt lat="45.03254162619886" lon="9.998362374067622"><ele>39.0</ele><time>2026-03-29T08:42:09.998Z</time></trkpt><trkpt lat="45.03261467206494" lon="9.998404811141132"><ele>39.0</ele><time>2026-03-29T08:42:10.998Z</time></trkpt><trkpt lat="45.032689645449054" lon="9.998443396256421"><ele>39.0</ele><time>2026-03-29T08:42:11.998Z</time></trkpt><trkpt lat="45.03276367312196" lon="9.99848085261579"><ele>38.5</ele><time>2026-03-29T08:42:12.998Z</time></trkpt><trkpt lat="45.032836593441516" lon="9.998514503295752"><ele>38.0</ele><time>2026-03-29T08:42:13.998Z</time></trkpt><trkpt lat="45.03291220198348" lon="9.998549066735213"><ele>37.5</ele><time>2026-03-29T08:42:14.998Z</time></trkpt><trkpt lat="45.03298883237401" lon="9.99858281044919"><ele>37.0</ele><time>2026-03-29T08:42:15.998Z</time></trkpt><trkpt lat="45.033063165855985" lon="9.998614995373593"><ele>36.5</ele><time>2026-03-29T08:42:16.998Z</time></trkpt><trkpt lat="45.033140151018856" lon="9.99864495565175"><ele>36.0</ele><time>2026-03-29T08:42:17.998Z</time></trkpt><trkpt lat="45.03321624943453" lon="9.998676961203222"><ele>36.0</ele><time>2026-03-29T08:42:18.998Z</time></trkpt><trkpt lat="45.03329217396956" lon="9.99870580823343"><ele>36.0</ele><time>2026-03-29T08:42:19.998Z</time></trkpt><trkpt lat="45.03336777881911" lon="9.998736656992293"><ele>36.0</ele><time>2026-03-29T08:42:20.998Z</time></trkpt><trkpt lat="45.033446232816225" lon="9.998765655322224"><ele>36.0</ele><time>2026-03-29T08:42:21.998Z</time></trkpt><trkpt lat="45.03352188959276" lon="9.998797605663789"><ele>36.0</ele><time>2026-03-29T08:42:22.998Z</time></trkpt><trkpt lat="45.03359593672895" lon="9.998832784889757"><ele>36.0</ele><time>2026-03-29T08:42:23.998Z</time></trkpt><trkpt lat="45.033672500135836" lon="9.998864724678908"><ele>36.333333333333336</ele><time>2026-03-29T08:42:24.998Z</time></trkpt><trkpt lat="45.03374934329871" lon="9.99889521482626"><ele>36.666666666666664</ele><time>2026-03-29T08:42:25.998Z</time></trkpt><trkpt lat="45.03382537483572" lon="9.99892871471622"><ele>37.0</ele><time>2026-03-29T08:42:26.998Z</time></trkpt><trkpt lat="45.0339015767297" lon="9.998959556299578"><ele>37.33333333333333</ele><time>2026-03-29T08:42:27.998Z</time></trkpt><trkpt lat="45.03397786270667" lon="9.998993836464019"><ele>37.666666666666664</ele><time>2026-03-29T08:42:29Z</time></trkpt><trkpt lat="45.03405411351588" lon="9.999025422966545"><ele>38.0</ele><time>2026-03-29T08:42:30Z</time></trkpt><trkpt lat="45.03412969600674" lon="9.999061209422694"><ele>38.0</ele><time>2026-03-29T08:42:31Z</time></trkpt><trkpt lat="45.03420499299056" lon="9.999093683194104"><ele>38.0</ele><time>2026-03-29T08:42:32Z</time></trkpt><trkpt lat="45.03427976049126" lon="9.999133181103044"><ele>38.0</ele><time>2026-03-29T08:42:33Z</time></trkpt><trkpt lat="45.03435461740946" lon="9.999166647703685"><ele>38.0</ele><time>2026-03-29T08:42:34Z</time></trkpt><trkpt lat="45.034430975007446" lon="9.999200513665311"><ele>38.0</ele><time>2026-03-29T08:42:35Z</time></trkpt><trkpt lat="45.0345044060833" lon="9.999232272069973"><ele>38.0</ele><time>2026-03-29T08:42:36Z</time></trkpt><trkpt lat="45.03458048087363" lon="9.999264318232964"><ele>37.83333333333333</ele><time>2026-03-29T08:42:37Z</time></trkpt><trkpt lat="45.03465518503257" lon="9.99929750511449"><ele>37.666666666666664</ele><time>2026-03-29T08:42:38Z</time></trkpt><trkpt lat="45.034729536792256" lon="9.999329796188402"><ele>37.5</ele><time>2026-03-29T08:42:39Z</time></trkpt><trkpt lat="45.03480507103414" lon="9.999358403258455"><ele>37.333333333333336</ele><time>2026-03-29T08:42:40Z</time></trkpt><trkpt lat="45.034881184013685" lon="9.99938564404585"><ele>37.16666666666667</ele><time>2026-03-29T08:42:41Z</time></trkpt><trkpt lat="45.0349573669519" lon="9.999417744608879"><ele>37.0</ele><time>2026-03-29T08:42:42Z</time></trkpt><trkpt lat="45.0350325315537" lon="9.999449886302164"><ele>37.0</ele><time>2026-03-29T08:42:43Z</time></trkpt><trkpt lat="45.035106130267145" lon="9.999484251756448"><ele>37.0</ele><time>2026-03-29T08:42:44Z</time></trkpt><trkpt lat="45.035177472259846" lon="9.999517709633396"><ele>37.0</ele><time>2026-03-29T08:42:45Z</time></trkpt><trkpt lat="45.03525202239213" lon="9.999548414619946"><ele>37.0</ele><time>2026-03-29T08:42:46Z</time></trkpt><trkpt lat="45.035326383142554" lon="9.999580290874375"><ele>37.0</ele><time>2026-03-29T08:42:47Z</time></trkpt><trkpt lat="45.03539900417926" lon="9.999611668270209"><ele>37.0</ele><time>2026-03-29T08:42:48Z</time></trkpt><trkpt lat="45.035471284028226" lon="9.999644947121531"><ele>37.0</ele><time>2026-03-29T08:42:49Z</time></trkpt><trkpt lat="45.035542789379285" lon="9.999679334194507"><ele>37.0</ele><time>2026-03-29T08:42:50Z</time></trkpt><trkpt lat="45.03561271277071" lon="9.999711816067025"><ele>37.0</ele><time>2026-03-29T08:42:51Z</time></trkpt><trkpt lat="45.03568508493376" lon="9.999745041558846"><ele>37.0</ele><time>2026-03-29T08:42:52Z</time></trkpt><trkpt lat="45.03575624663892" lon="9.999784862990603"><ele>37.0</ele><time>2026-03-29T08:42:53Z</time></trkpt><trkpt lat="45.03582701218864" lon="9.999824523335198"><ele>37.0</ele><time>2026-03-29T08:42:54Z</time></trkpt><trkpt lat="45.035900395221894" lon="9.99986311044431"><ele>37.0</ele><time>2026-03-29T08:42:55Z</time></trkpt><trkpt lat="45.03597256234038" lon="9.999903381425069"><ele>37.0</ele><time>2026-03-29T08:42:56Z</time></trkpt><trkpt lat="45.03604585001921" lon="9.999940017168846"><ele>37.0</ele><time>2026-03-29T08:42:57Z</time></trkpt><trkpt lat="45.03611697717589" lon="9.999981876762467"><ele>37.0</ele><time>2026-03-29T08:42:58Z</time></trkpt><trkpt lat="45.036189588428556" lon="10.000023232824399"><ele>37.0</ele><time>2026-03-29T08:42:59Z</time></trkpt><trkpt lat="45.03625975037945" lon="10.000066639900322"><ele>37.0</ele><time>2026-03-29T08:42:59.999Z</time></trkpt><trkpt lat="45.03633217703394" lon="10.000107585531524"><ele>37.0</ele><time>2026-03-29T08:43:00.999Z</time></trkpt><trkpt lat="45.03640337359953" lon="10.00015288425156"><ele>37.0</ele><time>2026-03-29T08:43:01.999Z</time></trkpt><trkpt lat="45.03647560181647" lon="10.000198375089179"><ele>37.0</ele><time>2026-03-29T08:43:02.999Z</time></trkpt><trkpt lat="45.036547674218" lon="10.000242521005216"><ele>37.0</ele><time>2026-03-29T08:43:03.999Z</time></trkpt><trkpt lat="45.03662163805107" lon="10.000286637083446"><ele>37.0</ele><time>2026-03-29T08:43:04.999Z</time></trkpt><trkpt lat="45.03669412598328" lon="10.000329783637296"><ele>37.0</ele><time>2026-03-29T08:43:05.999Z</time></trkpt><trkpt lat="45.03676420055421" lon="10.000371412544151"><ele>36.66666666666667</ele><time>2026-03-29T08:43:06.999Z</time></trkpt><trkpt lat="45.036837300384995" lon="10.000407455925568"><ele>36.333333333333336</ele><time>2026-03-29T08:43:07.999Z</time></trkpt><trkpt lat="45.03691072372573" lon="10.000445797498827"><ele>36.0</ele><time>2026-03-29T08:43:08.999Z</time></trkpt><trkpt lat="45.03698283588859" lon="10.000484619048398"><ele>35.666666666666664</ele><time>2026-03-29T08:43:09.999Z</time></trkpt><trkpt lat="45.03705500889391" lon="10.000525655244703"><ele>35.33333333333333</ele><time>2026-03-29T08:43:10.999Z</time></trkpt><trkpt lat="45.037126624991316" lon="10.000564433297267"><ele>35.0</ele><time>2026-03-29T08:43:11.999Z</time></trkpt><trkpt lat="45.03720070573964" lon="10.000603762227282"><ele>35.0</ele><time>2026-03-29T08:43:12.999Z</time></trkpt><trkpt lat="45.03727173174677" lon="10.000647915449466"><ele>35.0</ele><time>2026-03-29T08:43:13.999Z</time></trkpt><trkpt lat="45.03734576136798" lon="10.000693165442284"><ele>35.0</ele><time>2026-03-29T08:43:14.999Z</time></trkpt><trkpt lat="45.03741989466464" lon="10.000732605878435"><ele>35.0</ele><time>2026-03-29T08:43:15.999Z</time></trkpt><trkpt lat="45.03749448924383" lon="10.000773456169963"><ele>35.0</ele><time>2026-03-29T08:43:16.999Z</time></trkpt><trkpt lat="45.037567961939786" lon="10.000813880216626"><ele>35.0</ele><time>2026-03-29T08:43:17.999Z</time></trkpt><trkpt lat="45.037643581262174" lon="10.000857037280454"><ele>35.5</ele><time>2026-03-29T08:43:18.999Z</time></trkpt><trkpt lat="45.03771420248013" lon="10.000902190314559"><ele>36.0</ele><time>2026-03-29T08:43:19.999Z</time></trkpt><trkpt lat="45.03778283437464" lon="10.000965655857733"><ele>36.5</ele><time>2026-03-29T08:43:20.999Z</time></trkpt><trkpt lat="45.03785610776291" lon="10.001008308029782"><ele>37.0</ele><time>2026-03-29T08:43:21.999Z</time></trkpt><trkpt lat="45.03792899090844" lon="10.001050733044455"><ele>37.5</ele><time>2026-03-29T08:43:22.999Z</time></trkpt><trkpt lat="45.03800093832372" lon="10.00109261337234"><ele>38.0</ele><time>2026-03-29T08:43:23.999Z</time></trkpt><trkpt lat="45.03807985922559" lon="10.00111596438303"><ele>38.0</ele><time>2026-03-29T08:43:24.999Z</time></trkpt><trkpt lat="45.03815235406751" lon="10.001155874650388"><ele>38.0</ele><time>2026-03-29T08:43:25.999Z</time></trkpt><trkpt lat="45.03822323146817" lon="10.001199697749927"><ele>38.0</ele><time>2026-03-29T08:43:26.999Z</time></trkpt><trkpt lat="45.03829519982901" lon="10.001241318428677"><ele>38.0</ele><time>2026-03-29T08:43:27.999Z</time></trkpt><trkpt lat="45.038361150009116" lon="10.001304886475959"><ele>38.0</ele><time>2026-03-29T08:43:28.999Z</time></trkpt><trkpt lat="45.03843257574302" lon="10.001347550493785"><ele>38.0</ele><time>2026-03-29T08:43:29.999Z</time></trkpt><trkpt lat="45.03850440955205" lon="10.001390361268259"><ele>37.83333333333333</ele><time>2026-03-29T08:43:30.999Z</time></trkpt><trkpt lat="45.03858128902938" lon="10.00141127882402"><ele>37.666666666666664</ele><time>2026-03-29T08:43:31.999Z</time></trkpt><trkpt lat="45.038652198791425" lon="10.001453774790702"><ele>37.5</ele><time>2026-03-29T08:43:32.999Z</time></trkpt><trkpt lat="45.03871814584396" lon="10.00151667282435"><ele>37.333333333333336</ele><time>2026-03-29T08:43:33.999Z</time></trkpt><trkpt lat="45.03879129891925" lon="10.001559904033902"><ele>37.16666666666667</ele><time>2026-03-29T08:43:34.999Z</time></trkpt><trkpt lat="45.0388634557682" lon="10.001602546511299"><ele>37.0</ele><time>2026-03-29T08:43:35.999Z</time></trkpt><trkpt lat="45.03893611806243" lon="10.001645487684444"><ele>37.0</ele><time>2026-03-29T08:43:36.999Z</time></trkpt><trkpt lat="45.03900856342903" lon="10.001688984961906"><ele>37.0</ele><time>2026-03-29T08:43:37.999Z</time></trkpt><trkpt lat="45.03907994634253" lon="10.001731916462589"><ele>37.0</ele><time>2026-03-29T08:43:38.999Z</time></trkpt><trkpt lat="45.03915094966336" lon="10.001774621339626"><ele>37.0</ele><time>2026-03-29T08:43:39.999Z</time></trkpt><trkpt lat="45.039226635304225" lon="10.00179575767521"><ele>37.0</ele><time>2026-03-29T08:43:40.999Z</time></trkpt><trkpt lat="45.03929690907849" lon="10.001839125233687"><ele>37.0</ele><time>2026-03-29T08:43:41.999Z</time></trkpt><trkpt lat="45.03936234968271" lon="10.001901762789815"><ele>37.333333333333336</ele><time>2026-03-29T08:43:42.999Z</time></trkpt><trkpt lat="45.0394374029338" lon="10.001927601710095"><ele>37.66666666666667</ele><time>2026-03-29T08:43:43.999Z</time></trkpt><trkpt lat="45.0395086963852" lon="10.001972333900644"><ele>38.0</ele><time>2026-03-29T08:43:44.999Z</time></trkpt><trkpt lat="45.03958179071438" lon="10.00201232683979"><ele>38.333333333333336</ele><time>2026-03-29T08:43:45.999Z</time></trkpt><trkpt lat="45.03965629978877" lon="10.002054154854187"><ele>38.666666666666664</ele><time>2026-03-29T08:43:46.999Z</time></trkpt><trkpt lat="45.039728701364275" lon="10.002092916081235"><ele>39.0</ele><time>2026-03-29T08:43:47.999Z</time></trkpt><trkpt lat="45.03980021342059" lon="10.00213622714714"><ele>39.0</ele><time>2026-03-29T08:43:48.999Z</time></trkpt><trkpt lat="45.03987494814985" lon="10.002175727472158"><ele>39.0</ele><time>2026-03-29T08:43:49.999Z</time></trkpt><trkpt lat="45.03994268195071" lon="10.002238585277532"><ele>39.0</ele><time>2026-03-29T08:43:50.999Z</time></trkpt><trkpt lat="45.04001862204089" lon="10.00228182484464"><ele>39.0</ele><time>2026-03-29T08:43:51.999Z</time></trkpt><trkpt lat="45.04009340472357" lon="10.00232280229418"><ele>39.0</ele><time>2026-03-29T08:43:52.999Z</time></trkpt><trkpt lat="45.040174594935564" lon="10.002347384513282"><ele>39.0</ele><time>2026-03-29T08:43:53.999Z</time></trkpt><trkpt lat="45.040249280568865" lon="10.002388995636526"><ele>38.666666666666664</ele><time>2026-03-29T08:43:54.999Z</time></trkpt><trkpt lat="45.040325007396945" lon="10.002428892890762"><ele>38.333333333333336</ele><time>2026-03-29T08:43:55.998Z</time></trkpt><trkpt lat="45.04039179442051" lon="10.002491857076562"><ele>38.0</ele><time>2026-03-29T08:43:56.998Z</time></trkpt><trkpt lat="45.040471941359485" lon="10.002512219013152"><ele>37.66666666666667</ele><time>2026-03-29T08:43:57.998Z</time></trkpt><trkpt lat="45.04054264705637" lon="10.00255548581033"><ele>37.333333333333336</ele><time>2026-03-29T08:43:58.998Z</time></trkpt><trkpt lat="45.040616402299705" lon="10.00259731874715"><ele>37.0</ele><time>2026-03-29T08:43:59.998Z</time></trkpt><trkpt lat="45.0406892530277" lon="10.00263955738194"><ele>36.85714285714286</ele><time>2026-03-29T08:44:00.998Z</time></trkpt><trkpt lat="45.040758327095645" lon="10.00267962476813"><ele>36.714285714285715</ele><time>2026-03-29T08:44:01.998Z</time></trkpt><trkpt lat="45.04082399370638" lon="10.002736880129453"><ele>36.57142857142857</ele><time>2026-03-29T08:44:02.998Z</time></trkpt><trkpt lat="45.040895353095756" lon="10.002752895140487"><ele>36.42857142857143</ele><time>2026-03-29T08:44:03.998Z</time></trkpt><trkpt lat="45.04095947862604" lon="10.002790786513458"><ele>36.285714285714285</ele><time>2026-03-29T08:44:04.998Z</time></trkpt><trkpt lat="45.041020890664996" lon="10.002826965629218"><ele>36.142857142857146</ele><time>2026-03-29T08:44:05.998Z</time></trkpt><trkpt lat="45.04107567330882" lon="10.002879562697013"><ele>36.0</ele><time>2026-03-29T08:44:06.998Z</time></trkpt><trkpt lat="45.04113469587033" lon="10.002913023852795"><ele>36.00000000000001</ele><time>2026-03-29T08:44:07.998Z</time></trkpt><trkpt lat="45.041193472434294" lon="10.002946345552141"><ele>36.0</ele><time>2026-03-29T08:44:08.998Z</time></trkpt><trkpt lat="45.04125299180675" lon="10.002980088359802"><ele>36.0</ele><time>2026-03-29T08:44:09.998Z</time></trkpt><trkpt lat="45.04132042991377" lon="10.002994384866728"><ele>36.0</ele><time>2026-03-29T08:44:10.998Z</time></trkpt><trkpt lat="45.0413809096562" lon="10.00302859998219"><ele>36.0</ele><time>2026-03-29T08:44:11.998Z</time></trkpt><trkpt lat="45.04144056606441" lon="10.003066365693119"><ele>36.00000000000001</ele><time>2026-03-29T08:44:12.998Z</time></trkpt><trkpt lat="45.04150213324491" lon="10.003104130874991"><ele>36.0</ele><time>2026-03-29T08:44:13.998Z</time></trkpt><trkpt lat="45.041562591695346" lon="10.003137017000729"><ele>36.0</ele><time>2026-03-29T08:44:14.998Z</time></trkpt><trkpt lat="45.04162361831683" lon="10.003170244876205"><ele>36.0</ele><time>2026-03-29T08:44:15.998Z</time></trkpt><trkpt lat="45.04168276090297" lon="10.003206238807406"><ele>36.0</ele><time>2026-03-29T08:44:16.998Z</time></trkpt><trkpt lat="45.041743192483864" lon="10.003240625746358"><ele>36.0</ele><time>2026-03-29T08:44:17.998Z</time></trkpt><trkpt lat="45.04180424040709" lon="10.003272022983287"><ele>36.0</ele><time>2026-03-29T08:44:18.998Z</time></trkpt><trkpt lat="45.041922928656405" lon="10.003335654864776"><ele>36.0</ele><time>2026-03-29T08:44:20.998Z</time></trkpt><trkpt lat="45.042028694042585" lon="10.003412844218232"><ele>36.0</ele><time>2026-03-29T08:44:22.998Z</time></trkpt><trkpt lat="45.04214474896104" lon="10.003272751426211"><ele>36.0</ele><time>2026-03-29T08:44:24.998Z</time></trkpt><trkpt lat="45.042204959017326" lon="10.003117447381351"><ele>36.0</ele><time>2026-03-29T08:44:26.998Z</time></trkpt><trkpt lat="45.04223343228477" lon="10.003029509377114"><ele>36.0</ele><time>2026-03-29T08:44:27.998Z</time></trkpt><trkpt lat="45.042263244604186" lon="10.002940118176035"><ele>36.0</ele><time>2026-03-29T08:44:28.998Z</time></trkpt><trkpt lat="45.0422959734811" lon="10.00284993323825"><ele>36.00000000000001</ele><time>2026-03-29T08:44:29.998Z</time></trkpt><trkpt lat="45.04232993595741" lon="10.002757196802019"><ele>36.0</ele><time>2026-03-29T08:44:30.998Z</time></trkpt><trkpt lat="45.04236046540337" lon="10.002664358993686"><ele>36.0</ele><time>2026-03-29T08:44:31.998Z</time></trkpt><trkpt lat="45.04239187252604" lon="10.002576624559845"><ele>36.0</ele><time>2026-03-29T08:44:32.998Z</time></trkpt><trkpt lat="45.04242469984832" lon="10.002484938268571"><ele>36.0</ele><time>2026-03-29T08:44:33.998Z</time></trkpt><trkpt lat="45.042458186064195" lon="10.002394425803951"><ele>36.00000000000001</ele><time>2026-03-29T08:44:35Z</time></trkpt><trkpt lat="45.042491002350744" lon="10.002293597276278"><ele>36.0</ele><time>2026-03-29T08:44:36Z</time></trkpt><trkpt lat="45.04252276413007" lon="10.002202232222189"><ele>35.666666666666664</ele><time>2026-03-29T08:44:37Z</time></trkpt><trkpt lat="45.0425557332182" lon="10.00210564659823"><ele>35.333333333333336</ele><time>2026-03-29T08:44:38Z</time></trkpt><trkpt lat="45.04259058729812" lon="10.00200753619951"><ele>35.0</ele><time>2026-03-29T08:44:39Z</time></trkpt><trkpt lat="45.042622563980984" lon="10.001907098902969"><ele>34.66666666666667</ele><time>2026-03-29T08:44:40Z</time></trkpt><trkpt lat="45.04265751054266" lon="10.001810883399251"><ele>34.333333333333336</ele><time>2026-03-29T08:44:41Z</time></trkpt><trkpt lat="45.04269201789136" lon="10.001714127651974"><ele>34.0</ele><time>2026-03-29T08:44:42Z</time></trkpt><trkpt lat="45.04272638855857" lon="10.00161595979221"><ele>34.0</ele><time>2026-03-29T08:44:43Z</time></trkpt><trkpt lat="45.04276106780564" lon="10.001518806576687"><ele>34.0</ele><time>2026-03-29T08:44:44Z</time></trkpt><trkpt lat="45.04279613808837" lon="10.001417277289885"><ele>34.0</ele><time>2026-03-29T08:44:45Z</time></trkpt><trkpt lat="45.04283076039263" lon="10.001318119170898"><ele>34.0</ele><time>2026-03-29T08:44:46Z</time></trkpt><trkpt lat="45.0428676978589" lon="10.001221387042815"><ele>34.0</ele><time>2026-03-29T08:44:47Z</time></trkpt><trkpt lat="45.04290266290344" lon="10.001121670479373"><ele>34.0</ele><time>2026-03-29T08:44:48Z</time></trkpt><trkpt lat="45.0429378238662" lon="10.001024444066399"><ele>34.0</ele><time>2026-03-29T08:44:49Z</time></trkpt><trkpt lat="45.04297332128668" lon="10.000922798275347"><ele>34.0</ele><time>2026-03-29T08:44:50Z</time></trkpt><trkpt lat="45.04300747157506" lon="10.000825808334268"><ele>34.0</ele><time>2026-03-29T08:44:51Z</time></trkpt><trkpt lat="45.04304306841789" lon="10.00072748124684"><ele>34.0</ele><time>2026-03-29T08:44:52Z</time></trkpt><trkpt lat="45.043079916822386" lon="10.000628058883297"><ele>34.0</ele><time>2026-03-29T08:44:53Z</time></trkpt><trkpt lat="45.04311456921101" lon="10.000528150010261"><ele>34.0</ele><time>2026-03-29T08:44:54Z</time></trkpt><trkpt lat="45.04314930603718" lon="10.00042920975929"><ele>34.0</ele><time>2026-03-29T08:44:55Z</time></trkpt><trkpt lat="45.04318337202115" lon="10.000327749171491"><ele>34.0</ele><time>2026-03-29T08:44:56Z</time></trkpt><trkpt lat="45.04321907121783" lon="10.000229364454027"><ele>34.0</ele><time>2026-03-29T08:44:57Z</time></trkpt><trkpt lat="45.043255715586966" lon="10.00012851605917"><ele>34.0</ele><time>2026-03-29T08:44:58Z</time></trkpt><trkpt lat="45.043291140708575" lon="10.0000283713155"><ele>34.0</ele><time>2026-03-29T08:44:59Z</time></trkpt><trkpt lat="45.04332680845881" lon="9.999927525842425"><ele>34.0</ele><time>2026-03-29T08:45:00Z</time></trkpt><trkpt lat="45.04336304265688" lon="9.999828942149838"><ele>34.0</ele><time>2026-03-29T08:45:01Z</time></trkpt><trkpt lat="45.04339901688449" lon="9.999728348639202"><ele>34.0</ele><time>2026-03-29T08:45:02Z</time></trkpt><trkpt lat="45.04343420797901" lon="9.99962697977539"><ele>34.0</ele><time>2026-03-29T08:45:03Z</time></trkpt><trkpt lat="45.043468026323225" lon="9.999522750272405"><ele>34.0</ele><time>2026-03-29T08:45:04Z</time></trkpt><trkpt lat="45.04350373358832" lon="9.999423143051684"><ele>34.0</ele><time>2026-03-29T08:45:05Z</time></trkpt><trkpt lat="45.043541151774335" lon="9.999321240257927"><ele>34.0</ele><time>2026-03-29T08:45:05.999Z</time></trkpt><trkpt lat="45.0435783932168" lon="9.999218806025011"><ele>33.833333333333336</ele><time>2026-03-29T08:45:06.999Z</time></trkpt><trkpt lat="45.0436254214627" lon="9.999098044119547"><ele>33.66666666666667</ele><time>2026-03-29T08:45:07.999Z</time></trkpt><trkpt lat="45.043653789705296" lon="9.999010334380326"><ele>33.5</ele><time>2026-03-29T08:45:08.999Z</time></trkpt><trkpt lat="45.043690200998476" lon="9.9989082339876"><ele>33.333333333333336</ele><time>2026-03-29T08:45:09.999Z</time></trkpt><trkpt lat="45.04372385586621" lon="9.998806333900982"><ele>33.166666666666664</ele><time>2026-03-29T08:45:10.999Z</time></trkpt><trkpt lat="45.043757288627184" lon="9.998704605870351"><ele>33.0</ele><time>2026-03-29T08:45:11.999Z</time></trkpt><trkpt lat="45.043790119412634" lon="9.998601625859076"><ele>33.0</ele><time>2026-03-29T08:45:12.999Z</time></trkpt><trkpt lat="45.04384044001736" lon="9.998512027161686"><ele>33.0</ele><time>2026-03-29T08:45:13.999Z</time></trkpt><trkpt lat="45.04387706479045" lon="9.998408936278194"><ele>33.0</ele><time>2026-03-29T08:45:14.999Z</time></trkpt><trkpt lat="45.043902460460814" lon="9.99830108596255"><ele>33.0</ele><time>2026-03-29T08:45:15.999Z</time></trkpt><trkpt lat="45.043941033017084" lon="9.998201887372485"><ele>33.0</ele><time>2026-03-29T08:45:16.999Z</time></trkpt><trkpt lat="45.0439759441372" lon="9.998094697177063"><ele>33.0</ele><time>2026-03-29T08:45:17.999Z</time></trkpt><trkpt lat="45.04401217140075" lon="9.997998253216629"><ele>33.0</ele><time>2026-03-29T08:45:18.999Z</time></trkpt><trkpt lat="45.04404803201715" lon="9.9978959889652"><ele>33.0</ele><time>2026-03-29T08:45:19.999Z</time></trkpt><trkpt lat="45.044085133126195" lon="9.99779552803036"><ele>33.0</ele><time>2026-03-29T08:45:20.999Z</time></trkpt><trkpt lat="45.04412099741171" lon="9.99769357587134"><ele>33.0</ele><time>2026-03-29T08:45:21.999Z</time></trkpt><trkpt lat="45.044158013094965" lon="9.997593293647244"><ele>33.0</ele><time>2026-03-29T08:45:22.999Z</time></trkpt><trkpt lat="45.04419266722412" lon="9.997490471858269"><ele>33.0</ele><time>2026-03-29T08:45:23.999Z</time></trkpt><trkpt lat="45.044232810431055" lon="9.997391869440317"><ele>33.333333333333336</ele><time>2026-03-29T08:45:24.999Z</time></trkpt><trkpt lat="45.04427372939868" lon="9.997292386380346"><ele>33.666666666666664</ele><time>2026-03-29T08:45:25.999Z</time></trkpt><trkpt lat="45.04431240124269" lon="9.997190216342753"><ele>34.0</ele><time>2026-03-29T08:45:26.999Z</time></trkpt><trkpt lat="45.04434909375946" lon="9.99708727552898"><ele>34.33333333333333</ele><time>2026-03-29T08:45:27.999Z</time></trkpt><trkpt lat="45.04438447033437" lon="9.996982781121176"><ele>34.666666666666664</ele><time>2026-03-29T08:45:28.999Z</time></trkpt><trkpt lat="45.04442117584226" lon="9.996877638246396"><ele>35.0</ele><time>2026-03-29T08:45:29.999Z</time></trkpt><trkpt lat="45.04445606694321" lon="9.996775289737158"><ele>35.0</ele><time>2026-03-29T08:45:30.999Z</time></trkpt><trkpt lat="45.04449229211783" lon="9.996670028547136"><ele>35.0</ele><time>2026-03-29T08:45:31.999Z</time></trkpt><trkpt lat="45.044528557705554" lon="9.996569398113266"><ele>35.0</ele><time>2026-03-29T08:45:32.999Z</time></trkpt><trkpt lat="45.044566898394265" lon="9.996467738871141"><ele>35.0</ele><time>2026-03-29T08:45:33.999Z</time></trkpt><trkpt lat="45.0446033322625" lon="9.996365580711807"><ele>35.0</ele><time>2026-03-29T08:45:34.999Z</time></trkpt><trkpt lat="45.044640224038794" lon="9.996261708420143"><ele>35.0</ele><time>2026-03-29T08:45:35.999Z</time></trkpt><trkpt lat="45.04467541720407" lon="9.996160948447631"><ele>34.83333333333333</ele><time>2026-03-29T08:45:36.999Z</time></trkpt><trkpt lat="45.04471347033651" lon="9.99606211553836"><ele>34.666666666666664</ele><time>2026-03-29T08:45:37.999Z</time></trkpt><trkpt lat="45.04474945121405" lon="9.995959368171178"><ele>34.5</ele><time>2026-03-29T08:45:38.999Z</time></trkpt><trkpt lat="45.04478553036977" lon="9.995858584823102"><ele>34.333333333333336</ele><time>2026-03-29T08:45:39.999Z</time></trkpt><trkpt lat="45.04482021295279" lon="9.995758905846946"><ele>34.16666666666667</ele><time>2026-03-29T08:45:40.999Z</time></trkpt><trkpt lat="45.04485771508924" lon="9.995655819219767"><ele>34.0</ele><time>2026-03-29T08:45:41.999Z</time></trkpt><trkpt lat="45.04489617097534" lon="9.995558145323713"><ele>34.0</ele><time>2026-03-29T08:45:42.999Z</time></trkpt><trkpt lat="45.04493191525182" lon="9.995455138873915"><ele>34.0</ele><time>2026-03-29T08:45:43.999Z</time></trkpt><trkpt lat="45.044968408516425" lon="9.995354668267291"><ele>34.0</ele><time>2026-03-29T08:45:44.999Z</time></trkpt><trkpt lat="45.045002265458365" lon="9.995249940777493"><ele>34.0</ele><time>2026-03-29T08:45:45.999Z</time></trkpt><trkpt lat="45.04503881320425" lon="9.995150791818135"><ele>34.0</ele><time>2026-03-29T08:45:46.999Z</time></trkpt><trkpt lat="45.04507644518725" lon="9.995051484564408"><ele>34.0</ele><time>2026-03-29T08:45:47.999Z</time></trkpt><trkpt lat="45.04511368915822" lon="9.99495195916191"><ele>34.5</ele><time>2026-03-29T08:45:48.999Z</time></trkpt><trkpt lat="45.04514993013179" lon="9.994845621942222"><ele>35.0</ele><time>2026-03-29T08:45:49.999Z</time></trkpt><trkpt lat="45.04518464298533" lon="9.99474450482099"><ele>35.5</ele><time>2026-03-29T08:45:50.999Z</time></trkpt><trkpt lat="45.045221284827335" lon="9.994635739449766"><ele>36.0</ele><time>2026-03-29T08:45:51.999Z</time></trkpt><trkpt lat="45.045258063459606" lon="9.994538462304476"><ele>36.5</ele><time>2026-03-29T08:45:52.999Z</time></trkpt><trkpt lat="45.045295347243815" lon="9.994433886568771"><ele>37.0</ele><time>2026-03-29T08:45:53.999Z</time></trkpt><trkpt lat="45.04533016396461" lon="9.99433161558455"><ele>37.0</ele><time>2026-03-29T08:45:54.999Z</time></trkpt><trkpt lat="45.045366275926746" lon="9.994227445420705"><ele>37.0</ele><time>2026-03-29T08:45:55.999Z</time></trkpt><trkpt lat="45.04540078577967" lon="9.994122275597055"><ele>37.0</ele><time>2026-03-29T08:45:56.999Z</time></trkpt><trkpt lat="45.045438521707155" lon="9.994019821836675"><ele>37.0</ele><time>2026-03-29T08:45:57.999Z</time></trkpt><trkpt lat="45.045474105872444" lon="9.993916598651946"><ele>37.0</ele><time>2026-03-29T08:45:58.999Z</time></trkpt><trkpt lat="45.045508819975836" lon="9.993809838817308"><ele>37.0</ele><time>2026-03-29T08:45:59.999Z</time></trkpt><trkpt lat="45.04554500734143" lon="9.993710841043463"><ele>36.833333333333336</ele><time>2026-03-29T08:46:00.999Z</time></trkpt><trkpt lat="45.0455802251036" lon="9.993606398884385"><ele>36.66666666666667</ele><time>2026-03-29T08:46:01.998Z</time></trkpt><trkpt lat="45.045617272356345" lon="9.99350037200479"><ele>36.5</ele><time>2026-03-29T08:46:02.998Z</time></trkpt><trkpt lat="45.04565328416027" lon="9.993395740118746"><ele>36.333333333333336</ele><time>2026-03-29T08:46:03.998Z</time></trkpt><trkpt lat="45.04568663462399" lon="9.993292568891192"><ele>36.166666666666664</ele><time>2026-03-29T08:46:04.998Z</time></trkpt><trkpt lat="45.04571960233798" lon="9.993185217752448"><ele>36.0</ele><time>2026-03-29T08:46:05.998Z</time></trkpt><trkpt lat="45.04574614173231" lon="9.99307637925689"><ele>35.833333333333336</ele><time>2026-03-29T08:46:06.998Z</time></trkpt><trkpt lat="45.04579479728469" lon="9.992985664778352"><ele>35.666666666666664</ele><time>2026-03-29T08:46:07.998Z</time></trkpt><trkpt lat="45.04583000476897" lon="9.992883017242242"><ele>35.5</ele><time>2026-03-29T08:46:08.998Z</time></trkpt><trkpt lat="45.04585237836929" lon="9.992769491172968"><ele>35.33333333333333</ele><time>2026-03-29T08:46:09.998Z</time></trkpt><trkpt lat="45.04588837326189" lon="9.99266662406684"><ele>35.166666666666664</ele><time>2026-03-29T08:46:10.998Z</time></trkpt><trkpt lat="45.04592248925173" lon="9.992561815303759"><ele>35.0</ele><time>2026-03-29T08:46:11.998Z</time></trkpt><trkpt lat="45.04596066846885" lon="9.99246250172165"><ele>35.0</ele><time>2026-03-29T08:46:12.998Z</time></trkpt><trkpt lat="45.04599557469287" lon="9.99235585427084"><ele>35.0</ele><time>2026-03-29T08:46:13.998Z</time></trkpt><trkpt lat="45.04603063878259" lon="9.992251135204619"><ele>35.0</ele><time>2026-03-29T08:46:14.998Z</time></trkpt><trkpt lat="45.04606484344893" lon="9.99214589853956"><ele>35.0</ele><time>2026-03-29T08:46:15.998Z</time></trkpt><trkpt lat="45.04610001069065" lon="9.992042536880833"><ele>35.0</ele><time>2026-03-29T08:46:16.998Z</time></trkpt><trkpt lat="45.04615146648407" lon="9.991944871772024"><ele>35.0</ele><time>2026-03-29T08:46:17.998Z</time></trkpt><trkpt lat="45.046171964416956" lon="9.991832624139688"><ele>35.0</ele><time>2026-03-29T08:46:18.998Z</time></trkpt><trkpt lat="45.04620760083758" lon="9.991728354542563"><ele>35.0</ele><time>2026-03-29T08:46:19.998Z</time></trkpt><trkpt lat="45.04624363037255" lon="9.99162735466243"><ele>35.0</ele><time>2026-03-29T08:46:20.998Z</time></trkpt><trkpt lat="45.046279752412474" lon="9.991521082025901"><ele>35.0</ele><time>2026-03-29T08:46:21.998Z</time></trkpt><trkpt lat="45.04631323517659" lon="9.991418961826204"><ele>35.0</ele><time>2026-03-29T08:46:22.998Z</time></trkpt><trkpt lat="45.04636509671006" lon="9.991321320748376"><ele>35.0</ele><time>2026-03-29T08:46:23.998Z</time></trkpt><trkpt lat="45.04638626760588" lon="9.991210515109522"><ele>35.166666666666664</ele><time>2026-03-29T08:46:24.998Z</time></trkpt><trkpt lat="45.046422815870194" lon="9.991106457644788"><ele>35.33333333333333</ele><time>2026-03-29T08:46:25.998Z</time></trkpt><trkpt lat="45.04645758260991" lon="9.991001368147742"><ele>35.5</ele><time>2026-03-29T08:46:26.998Z</time></trkpt><trkpt lat="45.046507556099314" lon="9.990905505420075"><ele>35.666666666666664</ele><time>2026-03-29T08:46:27.998Z</time></trkpt><trkpt lat="45.04654257279897" lon="9.9908032975095"><ele>35.833333333333336</ele><time>2026-03-29T08:46:28.998Z</time></trkpt><trkpt lat="45.04657781846323" lon="9.990700421318426"><ele>36.0</ele><time>2026-03-29T08:46:29.998Z</time></trkpt><trkpt lat="45.04661292775367" lon="9.990597943118605"><ele>35.833333333333336</ele><time>2026-03-29T08:46:30.998Z</time></trkpt><trkpt lat="45.046648783419556" lon="9.990493286360088"><ele>35.666666666666664</ele><time>2026-03-29T08:46:31.998Z</time></trkpt><trkpt lat="45.04668461701309" lon="9.990389589585988"><ele>35.5</ele><time>2026-03-29T08:46:32.998Z</time></trkpt><trkpt lat="45.04670665096176" lon="9.990273369271005"><ele>35.33333333333333</ele><time>2026-03-29T08:46:33.998Z</time></trkpt><trkpt lat="45.04674282400616" lon="9.990170569430818"><ele>35.166666666666664</ele><time>2026-03-29T08:46:34.998Z</time></trkpt><trkpt lat="45.046796480394114" lon="9.990068627716155"><ele>35.0</ele><time>2026-03-29T08:46:35.998Z</time></trkpt><trkpt lat="45.04681741448783" lon="9.989962175979969"><ele>35.33333333333333</ele><time>2026-03-29T08:46:36.998Z</time></trkpt><trkpt lat="45.046853198801024" lon="9.989856168640738"><ele>35.666666666666664</ele><time>2026-03-29T08:46:37.998Z</time></trkpt><trkpt lat="45.04688881956009" lon="9.98975349636088"><ele>36.0</ele><time>2026-03-29T08:46:38.998Z</time></trkpt><trkpt lat="45.0469252371291" lon="9.989654835169778"><ele>36.333333333333336</ele><time>2026-03-29T08:46:39.998Z</time></trkpt><trkpt lat="45.04696403095089" lon="9.989560104341825"><ele>36.66666666666667</ele><time>2026-03-29T08:46:41Z</time></trkpt><trkpt lat="45.046997668938474" lon="9.989469228493062"><ele>37.0</ele><time>2026-03-29T08:46:42Z</time></trkpt><trkpt lat="45.047029385995856" lon="9.98937579304194"><ele>37.0</ele><time>2026-03-29T08:46:43Z</time></trkpt><trkpt lat="45.04706050289357" lon="9.989274396638345"><ele>37.0</ele><time>2026-03-29T08:46:44Z</time></trkpt><trkpt lat="45.04708758914116" lon="9.989188329867831"><ele>37.0</ele><time>2026-03-29T08:46:45Z</time></trkpt><trkpt lat="45.04711831694999" lon="9.989091269422499"><ele>37.0</ele><time>2026-03-29T08:46:46Z</time></trkpt><trkpt lat="45.04715156954574" lon="9.988996582093357"><ele>37.0</ele><time>2026-03-29T08:46:47Z</time></trkpt><trkpt lat="45.047187004970894" lon="9.98889978960611"><ele>37.0</ele><time>2026-03-29T08:46:48Z</time></trkpt><trkpt lat="45.04722129357419" lon="9.988801216588433"><ele>37.0</ele><time>2026-03-29T08:46:49Z</time></trkpt><trkpt lat="45.04725454621751" lon="9.988700461780846"><ele>36.66666666666667</ele><time>2026-03-29T08:46:50Z</time></trkpt><trkpt lat="45.04728600212885" lon="9.98860059054332"><ele>36.333333333333336</ele><time>2026-03-29T08:46:51Z</time></trkpt><trkpt lat="45.047318762837506" lon="9.988500548488139"><ele>36.0</ele><time>2026-03-29T08:46:52Z</time></trkpt><trkpt lat="45.04735374188482" lon="9.988399435067214"><ele>35.666666666666664</ele><time>2026-03-29T08:46:53Z</time></trkpt><trkpt lat="45.04740143608373" lon="9.988307615133907"><ele>35.33333333333333</ele><time>2026-03-29T08:46:54Z</time></trkpt><trkpt lat="45.04743575960355" lon="9.988207359832398"><ele>35.0</ele><time>2026-03-29T08:46:55Z</time></trkpt><trkpt lat="45.04745831467747" lon="9.98809695168654"><ele>34.857142857142854</ele><time>2026-03-29T08:46:56Z</time></trkpt><trkpt lat="45.047491611809214" lon="9.987999996433134"><ele>34.714285714285715</ele><time>2026-03-29T08:46:57Z</time></trkpt><trkpt lat="45.04752242161406" lon="9.987907971335327"><ele>34.57142857142857</ele><time>2026-03-29T08:46:58Z</time></trkpt><trkpt lat="45.04755432735319" lon="9.987816850537817"><ele>34.42857142857143</ele><time>2026-03-29T08:46:59Z</time></trkpt><trkpt lat="45.04758295475642" lon="9.987727017632317"><ele>34.285714285714285</ele><time>2026-03-29T08:47:00Z</time></trkpt><trkpt lat="45.04762659657004" lon="9.98764994544136"><ele>34.14285714285714</ele><time>2026-03-29T08:47:01Z</time></trkpt><trkpt lat="45.04765526085452" lon="9.987566220186013"><ele>34.0</ele><time>2026-03-29T08:47:02Z</time></trkpt><trkpt lat="45.04768349581228" lon="9.987483748942031"><ele>34.5</ele><time>2026-03-29T08:47:03Z</time></trkpt><trkpt lat="45.047702835422136" lon="9.98739727434022"><ele>35.0</ele><time>2026-03-29T08:47:04Z</time></trkpt><trkpt lat="45.047747138884176" lon="9.987331803182279"><ele>35.5</ele><time>2026-03-29T08:47:05Z</time></trkpt><trkpt lat="45.047791298174815" lon="9.987222866788526"><ele>36.0</ele><time>2026-03-29T08:47:07Z</time></trkpt><trkpt lat="45.047934343938266" lon="9.98729806849162"><ele>36.5</ele><time>2026-03-29T08:47:08Z</time></trkpt><trkpt lat="45.047999995487366" lon="9.987320124376593"><ele>37.0</ele><time>2026-03-29T08:47:09Z</time></trkpt><trkpt lat="45.04806806366155" lon="9.987335034736779"><ele>37.0</ele><time>2026-03-29T08:47:10Z</time></trkpt><trkpt lat="45.048137532076076" lon="9.98734594296446"><ele>37.0</ele><time>2026-03-29T08:47:10.999Z</time></trkpt><trkpt lat="45.048208019875275" lon="9.987354455240192"><ele>37.0</ele><time>2026-03-29T08:47:11.999Z</time></trkpt><trkpt lat="45.04827963552738" lon="9.987362887155234"><ele>37.0</ele><time>2026-03-29T08:47:12.999Z</time></trkpt><trkpt lat="45.048353154364506" lon="9.98737175530589"><ele>37.0</ele><time>2026-03-29T08:47:13.999Z</time></trkpt><trkpt lat="45.048424363931524" lon="9.987382992846733"><ele>37.0</ele><time>2026-03-29T08:47:14.999Z</time></trkpt><trkpt lat="45.04849829342025" lon="9.98739151434475"><ele>37.0</ele><time>2026-03-29T08:47:15.999Z</time></trkpt><trkpt lat="45.048573326011606" lon="9.987402019166963"><ele>37.0</ele><time>2026-03-29T08:47:16.999Z</time></trkpt><trkpt lat="45.04864886030515" lon="9.987414169836448"><ele>37.0</ele><time>2026-03-29T08:47:17.999Z</time></trkpt><trkpt lat="45.04872310020655" lon="9.987424797109833"><ele>37.0</ele><time>2026-03-29T08:47:18.999Z</time></trkpt><trkpt lat="45.04879953290815" lon="9.987436198827718"><ele>37.0</ele><time>2026-03-29T08:47:19.999Z</time></trkpt><trkpt lat="45.048874288316355" lon="9.98744695538178"><ele>37.0</ele><time>2026-03-29T08:47:20.999Z</time></trkpt><trkpt lat="45.0489503959821" lon="9.987457798372112"><ele>37.0</ele><time>2026-03-29T08:47:21.999Z</time></trkpt><trkpt lat="45.04902538664573" lon="9.987469203066041"><ele>37.0</ele><time>2026-03-29T08:47:22.999Z</time></trkpt><trkpt lat="45.04910040270894" lon="9.987478536811437"><ele>37.0</ele><time>2026-03-29T08:47:23.999Z</time></trkpt><trkpt lat="45.049175523250064" lon="9.987490425257525"><ele>37.0</ele><time>2026-03-29T08:47:24.999Z</time></trkpt><trkpt lat="45.04925008083953" lon="9.987503469486265"><ele>37.0</ele><time>2026-03-29T08:47:25.999Z</time></trkpt><trkpt lat="45.04932539892709" lon="9.987517097671335"><ele>37.0</ele><time>2026-03-29T08:47:26.999Z</time></trkpt><trkpt lat="45.049402422793584" lon="9.987531034506423"><ele>37.0</ele><time>2026-03-29T08:47:27.999Z</time></trkpt><trkpt lat="45.0494793407721" lon="9.987544430520968"><ele>36.66666666666667</ele><time>2026-03-29T08:47:28.999Z</time></trkpt><trkpt lat="45.04955671000387" lon="9.98755682612726"><ele>36.333333333333336</ele><time>2026-03-29T08:47:29.999Z</time></trkpt><trkpt lat="45.049632688053585" lon="9.987568252783358"><ele>36.0</ele><time>2026-03-29T08:47:30.999Z</time></trkpt><trkpt lat="45.049707419584315" lon="9.987580482848326"><ele>35.666666666666664</ele><time>2026-03-29T08:47:31.999Z</time></trkpt><trkpt lat="45.04978260706109" lon="9.987597990070435"><ele>35.33333333333333</ele><time>2026-03-29T08:47:32.999Z</time></trkpt><trkpt lat="45.049857577126616" lon="9.98760965608303"><ele>35.0</ele><time>2026-03-29T08:47:33.999Z</time></trkpt><trkpt lat="45.049933216133695" lon="9.987624809118694"><ele>34.857142857142854</ele><time>2026-03-29T08:47:34.999Z</time></trkpt><trkpt lat="45.05000623507963" lon="9.987635629188302"><ele>34.714285714285715</ele><time>2026-03-29T08:47:35.999Z</time></trkpt><trkpt lat="45.05008037676531" lon="9.987649688496601"><ele>34.57142857142857</ele><time>2026-03-29T08:47:36.999Z</time></trkpt><trkpt lat="45.050154023973874" lon="9.98766429335608"><ele>34.42857142857143</ele><time>2026-03-29T08:47:37.999Z</time></trkpt><trkpt lat="45.05022696275752" lon="9.987674680607412"><ele>34.285714285714285</ele><time>2026-03-29T08:47:38.999Z</time></trkpt><trkpt lat="45.05030086710055" lon="9.987682525260897"><ele>34.14285714285714</ele><time>2026-03-29T08:47:39.999Z</time></trkpt><trkpt lat="45.05037469721609" lon="9.98769378614882"><ele>34.0</ele><time>2026-03-29T08:47:40.999Z</time></trkpt><trkpt lat="45.050448367953166" lon="9.987711934503514"><ele>33.99999999999999</ele><time>2026-03-29T08:47:41.999Z</time></trkpt><trkpt lat="45.050522867374085" lon="9.987726693745941"><ele>34.0</ele><time>2026-03-29T08:47:42.999Z</time></trkpt><trkpt lat="45.05059803230847" lon="9.98774181904308"><ele>34.0</ele><time>2026-03-29T08:47:43.999Z</time></trkpt><trkpt lat="45.050671195377454" lon="9.987754571894527"><ele>34.0</ele><time>2026-03-29T08:47:44.999Z</time></trkpt><trkpt lat="45.05074395751769" lon="9.987762570889966"><ele>34.0</ele><time>2026-03-29T08:47:45.999Z</time></trkpt><trkpt lat="45.050815583150424" lon="9.987775411934889"><ele>33.99999999999999</ele><time>2026-03-29T08:47:46.999Z</time></trkpt><trkpt lat="45.05088777454355" lon="9.987786479837897"><ele>34.0</ele><time>2026-03-29T08:47:47.999Z</time></trkpt><trkpt lat="45.05095971879028" lon="9.987799281105183"><ele>34.14285714285714</ele><time>2026-03-29T08:47:48.999Z</time></trkpt><trkpt lat="45.051033904348515" lon="9.987815468471004"><ele>34.285714285714285</ele><time>2026-03-29T08:47:49.999Z</time></trkpt><trkpt lat="45.051105671848234" lon="9.987829631088356"><ele>34.42857142857143</ele><time>2026-03-29T08:47:50.999Z</time></trkpt><trkpt lat="45.05117844668672" lon="9.987841330299966"><ele>34.57142857142857</ele><time>2026-03-29T08:47:51.999Z</time></trkpt><trkpt lat="45.05125175017879" lon="9.98785340512152"><ele>34.714285714285715</ele><time>2026-03-29T08:47:52.999Z</time></trkpt><trkpt lat="45.05132625792644" lon="9.987868595073408"><ele>34.857142857142854</ele><time>2026-03-29T08:47:53.999Z</time></trkpt><trkpt lat="45.051398450146735" lon="9.98788296227594"><ele>35.0</ele><time>2026-03-29T08:47:54.999Z</time></trkpt><trkpt lat="45.051471919213334" lon="9.987894459177165"><ele>35.0</ele><time>2026-03-29T08:47:55.999Z</time></trkpt><trkpt lat="45.051543588141364" lon="9.987904884661566"><ele>35.0</ele><time>2026-03-29T08:47:56.999Z</time></trkpt><trkpt lat="45.05161784705348" lon="9.987918805810276"><ele>35.0</ele><time>2026-03-29T08:47:57.999Z</time></trkpt><trkpt lat="45.05169070968318" lon="9.987933898684238"><ele>35.0</ele><time>2026-03-29T08:47:58.999Z</time></trkpt><trkpt lat="45.05176312417127" lon="9.987948291659588"><ele>35.0</ele><time>2026-03-29T08:47:59.999Z</time></trkpt><trkpt lat="45.051835956139236" lon="9.987960452520541"><ele>35.0</ele><time>2026-03-29T08:48:00.999Z</time></trkpt><trkpt lat="45.05190836634268" lon="9.987971575104265"><ele>35.0</ele><time>2026-03-29T08:48:01.999Z</time></trkpt><trkpt lat="45.05198029641869" lon="9.987985554348935"><ele>35.142857142857146</ele><time>2026-03-29T08:48:02.999Z</time></trkpt><trkpt lat="45.0520543081585" lon="9.987996410108039"><ele>35.285714285714285</ele><time>2026-03-29T08:48:03.999Z</time></trkpt><trkpt lat="45.052126662326124" lon="9.988009974206154"><ele>35.42857142857143</ele><time>2026-03-29T08:48:04.999Z</time></trkpt><trkpt lat="45.05219967693419" lon="9.988023364544235"><ele>35.57142857142857</ele><time>2026-03-29T08:48:05.999Z</time></trkpt><trkpt lat="45.05227290424814" lon="9.988036890474818"><ele>35.714285714285715</ele><time>2026-03-29T08:48:06.999Z</time></trkpt><trkpt lat="45.05234615148053" lon="9.98804938725207"><ele>35.85714285714286</ele><time>2026-03-29T08:48:07.998Z</time></trkpt><trkpt lat="45.052418036748826" lon="9.98806004399463"><ele>36.0</ele><time>2026-03-29T08:48:08.998Z</time></trkpt><trkpt lat="45.05249000141845" lon="9.988071558452585"><ele>36.00000000000001</ele><time>2026-03-29T08:48:09.998Z</time></trkpt><trkpt lat="45.0525609208144" lon="9.988085311703825"><ele>36.0</ele><time>2026-03-29T08:48:10.998Z</time></trkpt><trkpt lat="45.05263177740209" lon="9.988096441848791"><ele>36.0</ele><time>2026-03-29T08:48:11.998Z</time></trkpt><trkpt lat="45.05270225844631" lon="9.988107934357785"><ele>36.0</ele><time>2026-03-29T08:48:12.998Z</time></trkpt><trkpt lat="45.05277392517599" lon="9.988121813282827"><ele>36.0</ele><time>2026-03-29T08:48:13.998Z</time></trkpt><trkpt lat="45.05284356311322" lon="9.988133596170726"><ele>36.00000000000001</ele><time>2026-03-29T08:48:14.998Z</time></trkpt><trkpt lat="45.05291435312309" lon="9.988148987623134"><ele>36.0</ele><time>2026-03-29T08:48:15.998Z</time></trkpt><trkpt lat="45.052983493956134" lon="9.988160312527594"><ele>36.0</ele><time>2026-03-29T08:48:16.998Z</time></trkpt><trkpt lat="45.05305415486067" lon="9.988173247603784"><ele>36.0</ele><time>2026-03-29T08:48:17.998Z</time></trkpt><trkpt lat="45.05312336495537" lon="9.988185167002996"><ele>36.0</ele><time>2026-03-29T08:48:18.998Z</time></trkpt><trkpt lat="45.05319167379675" lon="9.988197934165322"><ele>36.0</ele><time>2026-03-29T08:48:19.998Z</time></trkpt><trkpt lat="45.05325609695323" lon="9.988209728591823"><ele>36.0</ele><time>2026-03-29T08:48:20.998Z</time></trkpt><trkpt lat="45.053319353851734" lon="9.988215641286738"><ele>36.0</ele><time>2026-03-29T08:48:21.998Z</time></trkpt><trkpt lat="45.05343869323293" lon="9.988237127556635"><ele>36.25</ele><time>2026-03-29T08:48:23.998Z</time></trkpt><trkpt lat="45.053553388110075" lon="9.988259530542523"><ele>36.5</ele><time>2026-03-29T08:48:25.998Z</time></trkpt><trkpt lat="45.053667314711284" lon="9.988281733124776"><ele>36.75</ele><time>2026-03-29T08:48:27.998Z</time></trkpt><trkpt lat="45.05378191042602" lon="9.988299308340405"><ele>37.0</ele><time>2026-03-29T08:48:29.998Z</time></trkpt><trkpt lat="45.05389404904922" lon="9.988320223452863"><ele>37.0</ele><time>2026-03-29T08:48:31.998Z</time></trkpt><trkpt lat="45.05399629325894" lon="9.988384774692914"><ele>37.0</ele><time>2026-03-29T08:48:33.998Z</time></trkpt><trkpt lat="45.054077190326545" lon="9.9885070223464"><ele>37.0</ele><time>2026-03-29T08:48:35.998Z</time></trkpt><trkpt lat="45.05415594934312" lon="9.988626571644343"><ele>37.0</ele><time>2026-03-29T08:48:37.998Z</time></trkpt><trkpt lat="45.054228221820736" lon="9.988737929088723"><ele>37.0</ele><time>2026-03-29T08:48:39.998Z</time></trkpt><trkpt lat="45.05430423656829" lon="9.98885975611286"><ele>37.0</ele><time>2026-03-29T08:48:41.998Z</time></trkpt><trkpt lat="45.054386464758615" lon="9.988990511420836"><ele>37.0</ele><time>2026-03-29T08:48:43.998Z</time></trkpt><trkpt lat="45.05443119257777" lon="9.989054301922748"><ele>37.0</ele><time>2026-03-29T08:48:44.998Z</time></trkpt><trkpt lat="45.054516962977495" lon="9.989187275292446"><ele>37.0</ele><time>2026-03-29T08:48:47Z</time></trkpt><trkpt lat="45.05456088819518" lon="9.989257592079442"><ele>37.0</ele><time>2026-03-29T08:48:48Z</time></trkpt><trkpt lat="45.054602407130105" lon="9.989329438465827"><ele>37.0</ele><time>2026-03-29T08:48:49Z</time></trkpt><trkpt lat="45.05464571016358" lon="9.989397649143342"><ele>37.0</ele><time>2026-03-29T08:48:50Z</time></trkpt><trkpt lat="45.054689262323656" lon="9.98946772075483"><ele>37.0</ele><time>2026-03-29T08:48:51Z</time></trkpt><trkpt lat="45.054733272801954" lon="9.989540860556653"><ele>37.0</ele><time>2026-03-29T08:48:52Z</time></trkpt><trkpt lat="45.05477977405449" lon="9.98960722034099"><ele>37.0</ele><time>2026-03-29T08:48:53Z</time></trkpt><trkpt lat="45.054825055979414" lon="9.989678827657638"><ele>37.0</ele><time>2026-03-29T08:48:54Z</time></trkpt><trkpt lat="45.05487237432607" lon="9.98974869782944"><ele>37.0</ele><time>2026-03-29T08:48:55Z</time></trkpt><trkpt lat="45.054915629233065" lon="9.989822206461135"><ele>37.0</ele><time>2026-03-29T08:48:56Z</time></trkpt><trkpt lat="45.05496047903396" lon="9.989895283273885"><ele>37.0</ele><time>2026-03-29T08:48:57Z</time></trkpt><trkpt lat="45.0550029196662" lon="9.989968449734583"><ele>37.0</ele><time>2026-03-29T08:48:58Z</time></trkpt><trkpt lat="45.05505147559607" lon="9.990040406395527"><ele>37.0</ele><time>2026-03-29T08:48:59Z</time></trkpt><trkpt lat="45.055101164153" lon="9.990105351286335"><ele>37.0</ele><time>2026-03-29T08:49:00Z</time></trkpt><trkpt lat="45.05515457189226" lon="9.99016896571759"><ele>37.0</ele><time>2026-03-29T08:49:01Z</time></trkpt><trkpt lat="45.05521491552644" lon="9.990226204916363"><ele>37.0</ele><time>2026-03-29T08:49:02Z</time></trkpt><trkpt lat="45.05527693791158" lon="9.99027169180881"><ele>37.0</ele><time>2026-03-29T08:49:03Z</time></trkpt><trkpt lat="45.05534269715914" lon="9.990308039686541"><ele>37.0</ele><time>2026-03-29T08:49:04Z</time></trkpt><trkpt lat="45.05540969199317" lon="9.990344971957736"><ele>37.0</ele><time>2026-03-29T08:49:05Z</time></trkpt><trkpt lat="45.05547787802038" lon="9.990378823092218"><ele>37.0</ele><time>2026-03-29T08:49:06Z</time></trkpt><trkpt lat="45.05554954663697" lon="9.990404392342104"><ele>37.0</ele><time>2026-03-29T08:49:07Z</time></trkpt><trkpt lat="45.05562443318475" lon="9.990413931391872"><ele>37.0</ele><time>2026-03-29T08:49:08Z</time></trkpt><trkpt lat="45.055702249464694" lon="9.990408395815294"><ele>37.0</ele><time>2026-03-29T08:49:09Z</time></trkpt><trkpt lat="45.05577875903404" lon="9.990390536049873"><ele>37.0</ele><time>2026-03-29T08:49:10Z</time></trkpt><trkpt lat="45.05585765772105" lon="9.99037061316671"><ele>37.0</ele><time>2026-03-29T08:49:11Z</time></trkpt><trkpt lat="45.055936040704694" lon="9.990350340725561"><ele>37.0</ele><time>2026-03-29T08:49:12Z</time></trkpt><trkpt lat="45.05601424037594" lon="9.990326174354603"><ele>37.0</ele><time>2026-03-29T08:49:13Z</time></trkpt><trkpt lat="45.056092830121564" lon="9.990301305673391"><ele>37.0</ele><time>2026-03-29T08:49:14Z</time></trkpt><trkpt lat="45.05617311798986" lon="9.990275226361563"><ele>37.0</ele><time>2026-03-29T08:49:15Z</time></trkpt><trkpt lat="45.05625085295393" lon="9.990248453725647"><ele>37.0</ele><time>2026-03-29T08:49:15.999Z</time></trkpt><trkpt lat="45.05632816822299" lon="9.99022643147769"><ele>37.0</ele><time>2026-03-29T08:49:16.999Z</time></trkpt><trkpt lat="45.05640659388667" lon="9.990211605867051"><ele>37.0</ele><time>2026-03-29T08:49:17.999Z</time></trkpt><trkpt lat="45.0564870262925" lon="9.990206655898273"><ele>37.0</ele><time>2026-03-29T08:49:18.999Z</time></trkpt><trkpt lat="45.05656629641767" lon="9.990213480434644"><ele>37.0</ele><time>2026-03-29T08:49:19.999Z</time></trkpt><trkpt lat="45.05664364956712" lon="9.99023755739369"><ele>37.16666666666667</ele><time>2026-03-29T08:49:20.999Z</time></trkpt><trkpt lat="45.05671588554809" lon="9.99028033616771"><ele>37.333333333333336</ele><time>2026-03-29T08:49:21.999Z</time></trkpt><trkpt lat="45.056787762585095" lon="9.990328826333796"><ele>37.5</ele><time>2026-03-29T08:49:22.999Z</time></trkpt><trkpt lat="45.05685806118155" lon="9.990379929319074"><ele>37.666666666666664</ele><time>2026-03-29T08:49:23.999Z</time></trkpt><trkpt lat="45.05692900960304" lon="9.990428714324276"><ele>37.83333333333333</ele><time>2026-03-29T08:49:24.999Z</time></trkpt><trkpt lat="45.05700055397901" lon="9.990475826128284"><ele>38.0</ele><time>2026-03-29T08:49:25.999Z</time></trkpt><trkpt lat="45.05707225718946" lon="9.990520936053386"><ele>38.0</ele><time>2026-03-29T08:49:26.999Z</time></trkpt><trkpt lat="45.0571438052602" lon="9.990566543861659"><ele>38.0</ele><time>2026-03-29T08:49:27.999Z</time></trkpt><trkpt lat="45.057213254329085" lon="9.990615202234526"><ele>38.0</ele><time>2026-03-29T08:49:28.999Z</time></trkpt><trkpt lat="45.057282220272114" lon="9.99066553994155"><ele>38.0</ele><time>2026-03-29T08:49:29.999Z</time></trkpt><trkpt lat="45.0573506177667" lon="9.990717445040447"><ele>38.0</ele><time>2026-03-29T08:49:30.999Z</time></trkpt><trkpt lat="45.05742040700942" lon="9.99076539978546"><ele>38.0</ele><time>2026-03-29T08:49:31.999Z</time></trkpt><trkpt lat="45.05749175922152" lon="9.990810236638497"><ele>37.666666666666664</ele><time>2026-03-29T08:49:32.999Z</time></trkpt><trkpt lat="45.057559524023695" lon="9.990858245297957"><ele>37.33333333333333</ele><time>2026-03-29T08:49:33.999Z</time></trkpt><trkpt lat="45.057627903206345" lon="9.990907444048554"><ele>37.0</ele><time>2026-03-29T08:49:34.999Z</time></trkpt><trkpt lat="45.057697651705396" lon="9.990958106007989"><ele>36.666666666666664</ele><time>2026-03-29T08:49:35.999Z</time></trkpt><trkpt lat="45.05776672065764" lon="9.991009817076474"><ele>36.333333333333336</ele><time>2026-03-29T08:49:36.999Z</time></trkpt><trkpt lat="45.05783326774009" lon="9.991064825694371"><ele>36.0</ele><time>2026-03-29T08:49:37.999Z</time></trkpt><trkpt lat="45.05789746201035" lon="9.991124808094176"><ele>36.0</ele><time>2026-03-29T08:49:38.999Z</time></trkpt><trkpt lat="45.05796098434313" lon="9.991185330166603"><ele>36.0</ele><time>2026-03-29T08:49:39.999Z</time></trkpt><trkpt lat="45.05802327467267" lon="9.991250484209063"><ele>36.0</ele><time>2026-03-29T08:49:40.999Z</time></trkpt><trkpt lat="45.05808223428402" lon="9.991322180633343"><ele>36.0</ele><time>2026-03-29T08:49:41.999Z</time></trkpt><trkpt lat="45.058138989328896" lon="9.991396712259727"><ele>36.0</ele><time>2026-03-29T08:49:42.999Z</time></trkpt><trkpt lat="45.058193603257436" lon="9.991475442413346"><ele>36.0</ele><time>2026-03-29T08:49:43.999Z</time></trkpt><trkpt lat="45.05824502567274" lon="9.99155657794039"><ele>35.833333333333336</ele><time>2026-03-29T08:49:44.999Z</time></trkpt><trkpt lat="45.058294083031946" lon="9.99164007831582"><ele>35.666666666666664</ele><time>2026-03-29T08:49:45.999Z</time></trkpt><trkpt lat="45.05834251185672" lon="9.991725861240923"><ele>35.5</ele><time>2026-03-29T08:49:46.999Z</time></trkpt><trkpt lat="45.05839071834945" lon="9.99181137287631"><ele>35.33333333333333</ele><time>2026-03-29T08:49:47.999Z</time></trkpt><trkpt lat="45.05843948448286" lon="9.991898325732258"><ele>35.166666666666664</ele><time>2026-03-29T08:49:48.999Z</time></trkpt><trkpt lat="45.058489103957214" lon="9.991982809485872"><ele>35.0</ele><time>2026-03-29T08:49:49.999Z</time></trkpt><trkpt lat="45.058539932110726" lon="9.992065686845406"><ele>35.0</ele><time>2026-03-29T08:49:50.999Z</time></trkpt><trkpt lat="45.05859131630388" lon="9.992146872421905"><ele>35.0</ele><time>2026-03-29T08:49:51.999Z</time></trkpt><trkpt lat="45.05864397314297" lon="9.992228265550846"><ele>35.0</ele><time>2026-03-29T08:49:52.999Z</time></trkpt><trkpt lat="45.05869803317996" lon="9.99230439304087"><ele>35.0</ele><time>2026-03-29T08:49:53.999Z</time></trkpt><trkpt lat="45.058752903971275" lon="9.99238079003243"><ele>35.0</ele><time>2026-03-29T08:49:54.999Z</time></trkpt><trkpt lat="45.0588119160707" lon="9.992454287038946"><ele>35.0</ele><time>2026-03-29T08:49:55.999Z</time></trkpt><trkpt lat="45.05886944066703" lon="9.99252436952019"><ele>35.166666666666664</ele><time>2026-03-29T08:49:56.999Z</time></trkpt><trkpt lat="45.058929616603194" lon="9.992593982116222"><ele>35.33333333333333</ele><time>2026-03-29T08:49:57.999Z</time></trkpt><trkpt lat="45.05898847259848" lon="9.99266131973167"><ele>35.5</ele><time>2026-03-29T08:49:58.999Z</time></trkpt><trkpt lat="45.05905151945556" lon="9.992729291872783"><ele>35.666666666666664</ele><time>2026-03-29T08:49:59.999Z</time></trkpt><trkpt lat="45.0591144240887" lon="9.992793017613776"><ele>35.833333333333336</ele><time>2026-03-29T08:50:00.999Z</time></trkpt><trkpt lat="45.059176101190886" lon="9.992857246295959"><ele>36.0</ele><time>2026-03-29T08:50:01.999Z</time></trkpt><trkpt lat="45.05923936850391" lon="9.992918233362428"><ele>35.666666666666664</ele><time>2026-03-29T08:50:02.999Z</time></trkpt><trkpt lat="45.05930368885773" lon="9.992978614981554"><ele>35.333333333333336</ele><time>2026-03-29T08:50:03.999Z</time></trkpt><trkpt lat="45.05936754093859" lon="9.993039197192452"><ele>35.0</ele><time>2026-03-29T08:50:04.999Z</time></trkpt><trkpt lat="45.059431940324174" lon="9.993097705447164"><ele>34.66666666666667</ele><time>2026-03-29T08:50:05.999Z</time></trkpt><trkpt lat="45.05949523482752" lon="9.993153369246487"><ele>34.333333333333336</ele><time>2026-03-29T08:50:06.999Z</time></trkpt><trkpt lat="45.05956061361655" lon="9.993210732648825"><ele>34.0</ele><time>2026-03-29T08:50:07.999Z</time></trkpt><trkpt lat="45.05962474041595" lon="9.993269505603134"><ele>34.0</ele><time>2026-03-29T08:50:08.999Z</time></trkpt><trkpt lat="45.05968942839331" lon="9.99332825235786"><ele>34.0</ele><time>2026-03-29T08:50:09.999Z</time></trkpt><trkpt lat="45.059752820499284" lon="9.993387406929015"><ele>34.0</ele><time>2026-03-29T08:50:10.998Z</time></trkpt><trkpt lat="45.05981715995304" lon="9.993445378370426"><ele>34.0</ele><time>2026-03-29T08:50:11.998Z</time></trkpt><trkpt lat="45.05988121060439" lon="9.99350632774242"><ele>34.0</ele><time>2026-03-29T08:50:12.998Z</time></trkpt><trkpt lat="45.059945702294655" lon="9.99356470099724"><ele>34.0</ele><time>2026-03-29T08:50:13.998Z</time></trkpt><trkpt lat="45.06001093015965" lon="9.993622205996719"><ele>34.0</ele><time>2026-03-29T08:50:14.998Z</time></trkpt><trkpt lat="45.060076336526464" lon="9.993679684446308"><ele>34.0</ele><time>2026-03-29T08:50:15.998Z</time></trkpt><trkpt lat="45.06014295352737" lon="9.99373833312717"><ele>34.0</ele><time>2026-03-29T08:50:16.998Z</time></trkpt><trkpt lat="45.06020803210868" lon="9.99379808759331"><ele>34.0</ele><time>2026-03-29T08:50:17.998Z</time></trkpt><trkpt lat="45.06027215795396" lon="9.99385619334243"><ele>34.0</ele><time>2026-03-29T08:50:18.998Z</time></trkpt><trkpt lat="45.060338018356596" lon="9.993909355961586"><ele>34.0</ele><time>2026-03-29T08:50:19.998Z</time></trkpt><trkpt lat="45.060404917863266" lon="9.993960927673927"><ele>34.0</ele><time>2026-03-29T08:50:20.998Z</time></trkpt><trkpt lat="45.06047224197806" lon="9.994008670154921"><ele>34.0</ele><time>2026-03-29T08:50:21.998Z</time></trkpt><trkpt lat="45.06054047374444" lon="9.994059742499793"><ele>34.0</ele><time>2026-03-29T08:50:22.998Z</time></trkpt><trkpt lat="45.060611176107635" lon="9.994106095680781"><ele>34.0</ele><time>2026-03-29T08:50:23.998Z</time></trkpt><trkpt lat="45.06068042622993" lon="9.994149938390043"><ele>34.0</ele><time>2026-03-29T08:50:24.998Z</time></trkpt><trkpt lat="45.06074977063859" lon="9.99418893165234"><ele>34.0</ele><time>2026-03-29T08:50:25.998Z</time></trkpt><trkpt lat="45.06082524493324" lon="9.994223212125068"><ele>34.5</ele><time>2026-03-29T08:50:26.998Z</time></trkpt><trkpt lat="45.06089715681404" lon="9.994259259311654"><ele>35.0</ele><time>2026-03-29T08:50:27.998Z</time></trkpt><trkpt lat="45.06097157918709" lon="9.994291719700882"><ele>35.5</ele><time>2026-03-29T08:50:28.998Z</time></trkpt><trkpt lat="45.06104507868298" lon="9.994325389407427"><ele>36.0</ele><time>2026-03-29T08:50:29.998Z</time></trkpt><trkpt lat="45.061116602630314" lon="9.994360499102035"><ele>36.5</ele><time>2026-03-29T08:50:30.998Z</time></trkpt><trkpt lat="45.06119253486833" lon="9.994390889013848"><ele>37.0</ele><time>2026-03-29T08:50:31.998Z</time></trkpt><trkpt lat="45.06126496706812" lon="9.994419860674794"><ele>37.0</ele><time>2026-03-29T08:50:32.998Z</time></trkpt><trkpt lat="45.061339301143406" lon="9.994453417764126"><ele>37.0</ele><time>2026-03-29T08:50:33.998Z</time></trkpt><trkpt lat="45.061415299266386" lon="9.994488307437416"><ele>37.0</ele><time>2026-03-29T08:50:34.998Z</time></trkpt><trkpt lat="45.06148962020497" lon="9.99452244118416"><ele>37.0</ele><time>2026-03-29T08:50:35.998Z</time></trkpt><trkpt lat="45.06156181152971" lon="9.994555770127567"><ele>37.0</ele><time>2026-03-29T08:50:36.998Z</time></trkpt><trkpt lat="45.06163779920316" lon="9.994589506561004"><ele>37.0</ele><time>2026-03-29T08:50:37.998Z</time></trkpt><trkpt lat="45.061709145088045" lon="9.994624006257466"><ele>36.66666666666667</ele><time>2026-03-29T08:50:38.998Z</time></trkpt><trkpt lat="45.06178248317071" lon="9.994659488420693"><ele>36.333333333333336</ele><time>2026-03-29T08:50:39.998Z</time></trkpt><trkpt lat="45.061852624015096" lon="9.994699451343632"><ele>36.0</ele><time>2026-03-29T08:50:40.998Z</time></trkpt><trkpt lat="45.0619243278127" lon="9.994744343783784"><ele>35.666666666666664</ele><time>2026-03-29T08:50:41.998Z</time></trkpt><trkpt lat="45.06199588712826" lon="9.994778819157451"><ele>35.33333333333333</ele><time>2026-03-29T08:50:42.998Z</time></trkpt><trkpt lat="45.062069455055024" lon="9.994813994825652"><ele>35.0</ele><time>2026-03-29T08:50:43.998Z</time></trkpt><trkpt lat="45.06214147046625" lon="9.994859133593735"><ele>35.0</ele><time>2026-03-29T08:50:44.998Z</time></trkpt><trkpt lat="45.062214158912504" lon="9.994907040347512"><ele>35.0</ele><time>2026-03-29T08:50:45.998Z</time></trkpt><trkpt lat="45.062282080268695" lon="9.994951561324292"><ele>35.0</ele><time>2026-03-29T08:50:46.998Z</time></trkpt><trkpt lat="45.06235004511359" lon="9.995000613197346"><ele>35.0</ele><time>2026-03-29T08:50:47.998Z</time></trkpt><trkpt lat="45.062416405699324" lon="9.995050333478225"><ele>35.0</ele><time>2026-03-29T08:50:48.998Z</time></trkpt><trkpt lat="45.06248336001579" lon="9.995099582755854"><ele>35.0</ele><time>2026-03-29T08:50:49.998Z</time></trkpt><trkpt lat="45.0625558865826" lon="9.995146082042721"><ele>35.166666666666664</ele><time>2026-03-29T08:50:50.998Z</time></trkpt><trkpt lat="45.0626233661198" lon="9.995194726512027"><ele>35.33333333333333</ele><time>2026-03-29T08:50:51.998Z</time></trkpt><trkpt lat="45.06269319385638" lon="9.995241057156592"><ele>35.5</ele><time>2026-03-29T08:50:53Z</time></trkpt><trkpt lat="45.06276083749062" lon="9.995282794495727"><ele>35.666666666666664</ele><time>2026-03-29T08:50:54Z</time></trkpt><trkpt lat="45.06282966800074" lon="9.995324237146669"><ele>35.833333333333336</ele><time>2026-03-29T08:50:55Z</time></trkpt><trkpt lat="45.06290212947277" lon="9.995362374964746"><ele>36.0</ele><time>2026-03-29T08:50:56Z</time></trkpt><trkpt lat="45.06297682432088" lon="9.995399605194393"><ele>36.00000000000001</ele><time>2026-03-29T08:50:57Z</time></trkpt><trkpt lat="45.0630426993496" lon="9.99544110235843"><ele>36.0</ele><time>2026-03-29T08:50:58Z</time></trkpt><trkpt lat="45.06311647945872" lon="9.995478682348487"><ele>36.0</ele><time>2026-03-29T08:50:59Z</time></trkpt><trkpt lat="45.06318565541283" lon="9.99551770922038"><ele>36.0</ele><time>2026-03-29T08:51:00Z</time></trkpt><trkpt lat="45.06325071893565" lon="9.995561327813883"><ele>36.0</ele><time>2026-03-29T08:51:01Z</time></trkpt><trkpt lat="45.06330377595637" lon="9.995620884168401"><ele>36.00000000000001</ele><time>2026-03-29T08:51:02Z</time></trkpt><trkpt lat="45.0633511511274" lon="9.995685837267436"><ele>36.0</ele><time>2026-03-29T08:51:03Z</time></trkpt><trkpt lat="45.06339727832306" lon="9.99575682113606"><ele>36.00000000000001</ele><time>2026-03-29T08:51:04Z</time></trkpt><trkpt lat="45.06349068828038" lon="9.995872667442258"><ele>36.0</ele><time>2026-03-29T08:51:06Z</time></trkpt><trkpt lat="45.063539944216366" lon="9.995929171084674"><ele>36.0</ele><time>2026-03-29T08:51:07Z</time></trkpt><trkpt lat="45.06358776790183" lon="9.995990235499555"><ele>36.0</ele><time>2026-03-29T08:51:08Z</time></trkpt><trkpt lat="45.06363866590456" lon="9.996045646505312"><ele>36.0</ele><time>2026-03-29T08:51:09Z</time></trkpt><trkpt lat="45.06368843180055" lon="9.996102244413706"><ele>36.00000000000001</ele><time>2026-03-29T08:51:10Z</time></trkpt><trkpt lat="45.06373739368066" lon="9.996159860350062"><ele>36.0</ele><time>2026-03-29T08:51:11Z</time></trkpt><trkpt lat="45.06378816996194" lon="9.996212638779859"><ele>36.0</ele><time>2026-03-29T08:51:12Z</time></trkpt><trkpt lat="45.063842036836384" lon="9.996259432522464"><ele>36.0</ele><time>2026-03-29T08:51:13Z</time></trkpt><trkpt lat="45.063960230560795" lon="9.996310410339008"><ele>36.0</ele><time>2026-03-29T08:51:15Z</time></trkpt><trkpt lat="45.06402581966369" lon="9.996288897337303"><ele>36.0</ele><time>2026-03-29T08:51:16Z</time></trkpt><trkpt lat="45.064091028123514" lon="9.996268715929082"><ele>36.0</ele><time>2026-03-29T08:51:17Z</time></trkpt><trkpt lat="45.064135761322255" lon="9.996168838708215"><ele>36.0</ele><time>2026-03-29T08:51:18Z</time></trkpt><trkpt lat="45.06417503977358" lon="9.996078793788378"><ele>35.833333333333336</ele><time>2026-03-29T08:51:19Z</time></trkpt><trkpt lat="45.064210888310164" lon="9.995988225429535"><ele>35.666666666666664</ele><time>2026-03-29T08:51:19.999Z</time></trkpt><trkpt lat="45.06424750892689" lon="9.995899155320489"><ele>35.5</ele><time>2026-03-29T08:51:20.999Z</time></trkpt><trkpt lat="45.06428600515088" lon="9.995808776890007"><ele>35.33333333333333</ele><time>2026-03-29T08:51:21.999Z</time></trkpt><trkpt lat="45.06432614123943" lon="9.995717836758397"><ele>35.166666666666664</ele><time>2026-03-29T08:51:22.999Z</time></trkpt><trkpt lat="45.06436589507203" lon="9.995625869047858"><ele>35.0</ele><time>2026-03-29T08:51:23.999Z</time></trkpt><trkpt lat="45.06440642843453" lon="9.99553270945819"><ele>35.0</ele><time>2026-03-29T08:51:24.999Z</time></trkpt><trkpt lat="45.064446198440976" lon="9.995439612057266"><ele>35.0</ele><time>2026-03-29T08:51:25.999Z</time></trkpt><trkpt lat="45.064485527710666" lon="9.995345540829847"><ele>35.0</ele><time>2026-03-29T08:51:26.999Z</time></trkpt><trkpt lat="45.06452674924935" lon="9.995255098625764"><ele>35.0</ele><time>2026-03-29T08:51:27.999Z</time></trkpt><trkpt lat="45.064567741962385" lon="9.99516324254653"><ele>35.0</ele><time>2026-03-29T08:51:28.999Z</time></trkpt><trkpt lat="45.064610708514394" lon="9.995073063485265"><ele>35.0</ele><time>2026-03-29T08:51:29.999Z</time></trkpt><trkpt lat="45.06465147516407" lon="9.994980237075328"><ele>35.0</ele><time>2026-03-29T08:51:30.999Z</time></trkpt><trkpt lat="45.06469035044547" lon="9.99488908067779"><ele>35.0</ele><time>2026-03-29T08:51:31.999Z</time></trkpt><trkpt lat="45.06473347474115" lon="9.994797840219691"><ele>35.0</ele><time>2026-03-29T08:51:32.999Z</time></trkpt><trkpt lat="45.064773817835096" lon="9.994705838844306"><ele>35.0</ele><time>2026-03-29T08:51:33.999Z</time></trkpt><trkpt lat="45.06481372017551" lon="9.994612273120888"><ele>35.0</ele><time>2026-03-29T08:51:34.999Z</time></trkpt><trkpt lat="45.06485062634068" lon="9.994517564335304"><ele>35.0</ele><time>2026-03-29T08:51:35.999Z</time></trkpt><trkpt lat="45.064888901804174" lon="9.994421862414066"><ele>35.0</ele><time>2026-03-29T08:51:36.999Z</time></trkpt><trkpt lat="45.064926702504536" lon="9.994324992387579"><ele>35.0</ele><time>2026-03-29T08:51:37.999Z</time></trkpt><trkpt lat="45.064964197375055" lon="9.99423023893439"><ele>35.0</ele><time>2026-03-29T08:51:38.999Z</time></trkpt><trkpt lat="45.06500290123921" lon="9.994135915000726"><ele>35.0</ele><time>2026-03-29T08:51:39.999Z</time></trkpt><trkpt lat="45.06504047701859" lon="9.994037888449979"><ele>35.0</ele><time>2026-03-29T08:51:40.999Z</time></trkpt><trkpt lat="45.06507820366429" lon="9.993939682315483"><ele>35.0</ele><time>2026-03-29T08:51:41.999Z</time></trkpt><trkpt lat="45.065111518683" lon="9.993837367577184"><ele>35.0</ele><time>2026-03-29T08:51:42.999Z</time></trkpt><trkpt lat="45.06514395017716" lon="9.993734306744406"><ele>35.0</ele><time>2026-03-29T08:51:43.999Z</time></trkpt><trkpt lat="45.06517329927092" lon="9.993632658254631"><ele>35.0</ele><time>2026-03-29T08:51:44.999Z</time></trkpt><trkpt lat="45.06520205121493" lon="9.99352981029268"><ele>35.0</ele><time>2026-03-29T08:51:45.999Z</time></trkpt><trkpt lat="45.06522991159334" lon="9.99342796387386"><ele>35.0</ele><time>2026-03-29T08:51:46.999Z</time></trkpt><trkpt lat="45.065259181325416" lon="9.99332014067984"><ele>35.0</ele><time>2026-03-29T08:51:47.999Z</time></trkpt><trkpt lat="45.06528664003342" lon="9.993215768988836"><ele>35.0</ele><time>2026-03-29T08:51:48.999Z</time></trkpt><trkpt lat="45.06531455899703" lon="9.993109558436915"><ele>35.0</ele><time>2026-03-29T08:51:49.999Z</time></trkpt><trkpt lat="45.06534172662539" lon="9.993002752560054"><ele>35.0</ele><time>2026-03-29T08:51:50.999Z</time></trkpt><trkpt lat="45.06536708692621" lon="9.992895471823902"><ele>35.0</ele><time>2026-03-29T08:51:51.999Z</time></trkpt><trkpt lat="45.0653924891376" lon="9.992782635153063"><ele>35.0</ele><time>2026-03-29T08:51:52.999Z</time></trkpt><trkpt lat="45.06542006881887" lon="9.992674865536245"><ele>35.0</ele><time>2026-03-29T08:51:53.999Z</time></trkpt><trkpt lat="45.06544478162723" lon="9.992565642759496"><ele>35.166666666666664</ele><time>2026-03-29T08:51:54.999Z</time></trkpt><trkpt lat="45.06546993961276" lon="9.992456296113795"><ele>35.33333333333333</ele><time>2026-03-29T08:51:55.999Z</time></trkpt><trkpt lat="45.06549651575156" lon="9.992345418481513"><ele>35.5</ele><time>2026-03-29T08:51:56.999Z</time></trkpt><trkpt lat="45.06552049725544" lon="9.992237613805731"><ele>35.666666666666664</ele><time>2026-03-29T08:51:57.999Z</time></trkpt><trkpt lat="45.0655467714914" lon="9.992129213157966"><ele>35.833333333333336</ele><time>2026-03-29T08:51:58.999Z</time></trkpt><trkpt lat="45.06557484666657" lon="9.992025358384662"><ele>36.0</ele><time>2026-03-29T08:51:59.999Z</time></trkpt><trkpt lat="45.065603083652306" lon="9.9919182033642"><ele>36.0</ele><time>2026-03-29T08:52:00.999Z</time></trkpt><trkpt lat="45.065630392663444" lon="9.991812018196859"><ele>36.0</ele><time>2026-03-29T08:52:01.999Z</time></trkpt><trkpt lat="45.06565459275348" lon="9.991703330928255"><ele>36.0</ele><time>2026-03-29T08:52:02.999Z</time></trkpt><trkpt lat="45.065682263663064" lon="9.991594137790807"><ele>36.0</ele><time>2026-03-29T08:52:03.999Z</time></trkpt><trkpt lat="45.065709688000894" lon="9.991486887393775"><ele>36.0</ele><time>2026-03-29T08:52:04.999Z</time></trkpt><trkpt lat="45.065739665149394" lon="9.991379444737982"><ele>36.0</ele><time>2026-03-29T08:52:05.999Z</time></trkpt><trkpt lat="45.06577524522142" lon="9.991277474574579"><ele>35.666666666666664</ele><time>2026-03-29T08:52:06.999Z</time></trkpt><trkpt lat="45.06581994183716" lon="9.991182223592393"><ele>35.333333333333336</ele><time>2026-03-29T08:52:07.999Z</time></trkpt><trkpt lat="45.065880418480795" lon="9.991102513335258"><ele>35.0</ele><time>2026-03-29T08:52:08.999Z</time></trkpt><trkpt lat="45.06595083010434" lon="9.991043391403814"><ele>34.66666666666667</ele><time>2026-03-29T08:52:09.999Z</time></trkpt><trkpt lat="45.06602541253747" lon="9.990995763738022"><ele>34.333333333333336</ele><time>2026-03-29T08:52:10.999Z</time></trkpt><trkpt lat="45.06609848046692" lon="9.990945717873451"><ele>34.0</ele><time>2026-03-29T08:52:11.999Z</time></trkpt><trkpt lat="45.06617246398647" lon="9.990895870579257"><ele>34.0</ele><time>2026-03-29T08:52:12.999Z</time></trkpt><trkpt lat="45.0662462748981" lon="9.990841625282384"><ele>34.0</ele><time>2026-03-29T08:52:13.999Z</time></trkpt><trkpt lat="45.06631741884031" lon="9.990784040143032"><ele>34.0</ele><time>2026-03-29T08:52:14.999Z</time></trkpt><trkpt lat="45.06638837316806" lon="9.990728263062215"><ele>34.0</ele><time>2026-03-29T08:52:15.998Z</time></trkpt><trkpt lat="45.06646081925911" lon="9.990677567802093"><ele>34.0</ele><time>2026-03-29T08:52:16.998Z</time></trkpt><trkpt lat="45.06653815664422" lon="9.99063853631521"><ele>34.0</ele><time>2026-03-29T08:52:17.998Z</time></trkpt><trkpt lat="45.066618422215335" lon="9.990621147723912"><ele>34.5</ele><time>2026-03-29T08:52:18.998Z</time></trkpt><trkpt lat="45.06669820344342" lon="9.99062312276634"><ele>35.0</ele><time>2026-03-29T08:52:19.998Z</time></trkpt><trkpt lat="45.06677684687441" lon="9.99064995010807"><ele>35.5</ele><time>2026-03-29T08:52:20.998Z</time></trkpt><trkpt lat="45.06685097524905" lon="9.990691565920226"><ele>36.0</ele><time>2026-03-29T08:52:21.998Z</time></trkpt><trkpt lat="45.06692461032975" lon="9.99073705743191"><ele>36.5</ele><time>2026-03-29T08:52:22.998Z</time></trkpt><trkpt lat="45.06699894002872" lon="9.990778323653387"><ele>37.0</ele><time>2026-03-29T08:52:23.998Z</time></trkpt><trkpt lat="45.06707498421189" lon="9.99081319285289"><ele>37.0</ele><time>2026-03-29T08:52:24.998Z</time></trkpt><trkpt lat="45.06715130015211" lon="9.990835319154046"><ele>37.0</ele><time>2026-03-29T08:52:25.998Z</time></trkpt><trkpt lat="45.067228681778474" lon="9.990851462322496"><ele>37.0</ele><time>2026-03-29T08:52:26.998Z</time></trkpt><trkpt lat="45.06730648193015" lon="9.990862125568674"><ele>37.0</ele><time>2026-03-29T08:52:27.998Z</time></trkpt><trkpt lat="45.067383847477004" lon="9.990867551796029"><ele>37.0</ele><time>2026-03-29T08:52:28.998Z</time></trkpt><trkpt lat="45.06746219353463" lon="9.990868065856295"><ele>37.0</ele><time>2026-03-29T08:52:29.998Z</time></trkpt><trkpt lat="45.06753887915435" lon="9.990858797924052"><ele>37.0</ele><time>2026-03-29T08:52:30.998Z</time></trkpt><trkpt lat="45.06761377271984" lon="9.99084230390527"><ele>37.0</ele><time>2026-03-29T08:52:31.998Z</time></trkpt><trkpt lat="45.06768927702601" lon="9.990820573581763"><ele>37.0</ele><time>2026-03-29T08:52:32.998Z</time></trkpt><trkpt lat="45.06776108377378" lon="9.990804031835447"><ele>37.0</ele><time>2026-03-29T08:52:33.998Z</time></trkpt><trkpt lat="45.067830119417266" lon="9.990804424037874"><ele>37.0</ele><time>2026-03-29T08:52:34.998Z</time></trkpt><trkpt lat="45.067896954647715" lon="9.990823702327287"><ele>37.0</ele><time>2026-03-29T08:52:35.998Z</time></trkpt><trkpt lat="45.06795935321029" lon="9.990855316033004"><ele>37.0</ele><time>2026-03-29T08:52:36.998Z</time></trkpt><trkpt lat="45.06801932860904" lon="9.990892826556307"><ele>37.0</ele><time>2026-03-29T08:52:37.998Z</time></trkpt><trkpt lat="45.06807661172067" lon="9.990934191223348"><ele>37.0</ele><time>2026-03-29T08:52:38.998Z</time></trkpt><trkpt lat="45.0681326225052" lon="9.990991446239638"><ele>37.0</ele><time>2026-03-29T08:52:39.998Z</time></trkpt><trkpt lat="45.0681871469775" lon="9.99105674558612"><ele>37.0</ele><time>2026-03-29T08:52:40.998Z</time></trkpt><trkpt lat="45.0682425652166" lon="9.991122178717145"><ele>37.0</ele><time>2026-03-29T08:52:41.998Z</time></trkpt><trkpt lat="45.068301268722" lon="9.99118361714509"><ele>37.0</ele><time>2026-03-29T08:52:42.998Z</time></trkpt><trkpt lat="45.06836043424836" lon="9.991244153417416"><ele>37.0</ele><time>2026-03-29T08:52:43.998Z</time></trkpt><trkpt lat="45.06841640327702" lon="9.991311666266578"><ele>37.142857142857146</ele><time>2026-03-29T08:52:44.998Z</time></trkpt><trkpt lat="45.06847337908381" lon="9.991376863202854"><ele>37.285714285714285</ele><time>2026-03-29T08:52:45.998Z</time></trkpt><trkpt lat="45.068527902116" lon="9.991442047750146"><ele>37.42857142857143</ele><time>2026-03-29T08:52:46.998Z</time></trkpt><trkpt lat="45.06858509072571" lon="9.99150867917364"><ele>37.57142857142857</ele><time>2026-03-29T08:52:47.998Z</time></trkpt><trkpt lat="45.06864282187701" lon="9.991572111117097"><ele>37.714285714285715</ele><time>2026-03-29T08:52:48.998Z</time></trkpt><trkpt lat="45.068701744108004" lon="9.991634035596595"><ele>37.857142857142854</ele><time>2026-03-29T08:52:49.998Z</time></trkpt><trkpt lat="45.0687596372799" lon="9.991696837269645"><ele>38.0</ele><time>2026-03-29T08:52:50.998Z</time></trkpt><trkpt lat="45.068816190636824" lon="9.99176092099784"><ele>38.0</ele><time>2026-03-29T08:52:51.998Z</time></trkpt><trkpt lat="45.06887306774008" lon="9.99182698182483"><ele>38.0</ele><time>2026-03-29T08:52:52.998Z</time></trkpt><trkpt lat="45.068932197525776" lon="9.991888845502299"><ele>38.0</ele><time>2026-03-29T08:52:53.998Z</time></trkpt><trkpt lat="45.06899160828186" lon="9.991953844901417"><ele>38.0</ele><time>2026-03-29T08:52:54.998Z</time></trkpt><trkpt lat="45.069049764118105" lon="9.992018328505585"><ele>38.0</ele><time>2026-03-29T08:52:55.998Z</time></trkpt><trkpt lat="45.0691074574587" lon="9.992085538903162"><ele>38.0</ele><time>2026-03-29T08:52:56.998Z</time></trkpt><trkpt lat="45.06916586109668" lon="9.992148740251533"><ele>38.0</ele><time>2026-03-29T08:52:57.998Z</time></trkpt><trkpt lat="45.06922722966755" lon="9.992209263859909"><ele>38.0</ele><time>2026-03-29T08:52:59Z</time></trkpt><trkpt lat="45.06928511622672" lon="9.992275427601633"><ele>38.0</ele><time>2026-03-29T08:53:00Z</time></trkpt><trkpt lat="45.069350214862965" lon="9.992330581071656"><ele>38.0</ele><time>2026-03-29T08:53:01Z</time></trkpt><trkpt lat="45.069410951455026" lon="9.992383334692436"><ele>38.0</ele><time>2026-03-29T08:53:02Z</time></trkpt><trkpt lat="45.069467382289425" lon="9.992460526155584"><ele>38.0</ele><time>2026-03-29T08:53:03Z</time></trkpt><trkpt lat="45.0695251723987" lon="9.99252552889401"><ele>38.0</ele><time>2026-03-29T08:53:04Z</time></trkpt><trkpt lat="45.06958249297358" lon="9.992589338770182"><ele>38.0</ele><time>2026-03-29T08:53:05Z</time></trkpt><trkpt lat="45.06964250864005" lon="9.992656552781888"><ele>37.857142857142854</ele><time>2026-03-29T08:53:06Z</time></trkpt><trkpt lat="45.06970154961709" lon="9.992723084231262"><ele>37.714285714285715</ele><time>2026-03-29T08:53:07Z</time></trkpt><trkpt lat="45.06976210322214" lon="9.992787700634112"><ele>37.57142857142857</ele><time>2026-03-29T08:53:08Z</time></trkpt><trkpt lat="45.06982088493688" lon="9.992851431404162"><ele>37.42857142857143</ele><time>2026-03-29T08:53:09Z</time></trkpt><trkpt lat="45.06987713469501" lon="9.992918210144056"><ele>37.285714285714285</ele><time>2026-03-29T08:53:10Z</time></trkpt><trkpt lat="45.06993608957533" lon="9.99298225279525"><ele>37.142857142857146</ele><time>2026-03-29T08:53:11Z</time></trkpt><trkpt lat="45.069993867984884" lon="9.993046538221902"><ele>37.0</ele><time>2026-03-29T08:53:12Z</time></trkpt><trkpt lat="45.070052712639914" lon="9.993110528265813"><ele>37.285714285714285</ele><time>2026-03-29T08:53:13Z</time></trkpt><trkpt lat="45.0701118365506" lon="9.993173521001061"><ele>37.57142857142857</ele><time>2026-03-29T08:53:14Z</time></trkpt><trkpt lat="45.0701692541165" lon="9.993239060548435"><ele>37.85714285714286</ele><time>2026-03-29T08:53:15Z</time></trkpt><trkpt lat="45.07022704366625" lon="9.993303274530339"><ele>38.14285714285714</ele><time>2026-03-29T08:53:16Z</time></trkpt><trkpt lat="45.07028596034056" lon="9.993367553518059"><ele>38.42857142857142</ele><time>2026-03-29T08:53:17Z</time></trkpt><trkpt lat="45.07034533047077" lon="9.993424954989838"><ele>38.714285714285715</ele><time>2026-03-29T08:53:18Z</time></trkpt><trkpt lat="45.07040561273741" lon="9.993476451730912"><ele>39.0</ele><time>2026-03-29T08:53:19Z</time></trkpt><trkpt lat="45.07047787650962" lon="9.993506058925037"><ele>39.0</ele><time>2026-03-29T08:53:20Z</time></trkpt><trkpt lat="45.07055326668535" lon="9.993510721019538"><ele>39.0</ele><time>2026-03-29T08:53:21Z</time></trkpt><trkpt lat="45.07062635528484" lon="9.993490540814856"><ele>39.0</ele><time>2026-03-29T08:53:22Z</time></trkpt><trkpt lat="45.070697628501925" lon="9.993463471436453"><ele>39.0</ele><time>2026-03-29T08:53:23Z</time></trkpt><trkpt lat="45.070767325739055" lon="9.9934402074583"><ele>39.0</ele><time>2026-03-29T08:53:24Z</time></trkpt><trkpt lat="45.07084124481512" lon="9.99342600009151"><ele>39.0</ele><time>2026-03-29T08:53:25Z</time></trkpt><trkpt lat="45.07091325259087" lon="9.993422296170687"><ele>39.0</ele><time>2026-03-29T08:53:25.999Z</time></trkpt><trkpt lat="45.07098654367475" lon="9.993432746047597"><ele>38.833333333333336</ele><time>2026-03-29T08:53:26.999Z</time></trkpt><trkpt lat="45.07106241746257" lon="9.993443692984362"><ele>38.666666666666664</ele><time>2026-03-29T08:53:27.999Z</time></trkpt><trkpt lat="45.07113520096795" lon="9.993456027945264"><ele>38.5</ele><time>2026-03-29T08:53:28.999Z</time></trkpt><trkpt lat="45.07121115831246" lon="9.993473973604422"><ele>38.33333333333333</ele><time>2026-03-29T08:53:29.999Z</time></trkpt><trkpt lat="45.071285885291715" lon="9.993493818433206"><ele>38.166666666666664</ele><time>2026-03-29T08:53:30.999Z</time></trkpt><trkpt lat="45.07136217113583" lon="9.993510138061929"><ele>38.0</ele><time>2026-03-29T08:53:31.999Z</time></trkpt><trkpt lat="45.07143728721647" lon="9.99352407088737"><ele>38.0</ele><time>2026-03-29T08:53:32.999Z</time></trkpt><trkpt lat="45.071512138965105" lon="9.993538783032806"><ele>38.0</ele><time>2026-03-29T08:53:33.999Z</time></trkpt><trkpt lat="45.07158714939346" lon="9.993552315138604"><ele>38.0</ele><time>2026-03-29T08:53:34.999Z</time></trkpt><trkpt lat="45.07166215480495" lon="9.993562488715435"><ele>38.0</ele><time>2026-03-29T08:53:35.999Z</time></trkpt><trkpt lat="45.07173680680259" lon="9.993571777680739"><ele>38.0</ele><time>2026-03-29T08:53:36.999Z</time></trkpt><trkpt lat="45.07181244545479" lon="9.993581556818809"><ele>38.0</ele><time>2026-03-29T08:53:37.999Z</time></trkpt><trkpt lat="45.07188737561088" lon="9.993582638420394"><ele>37.83333333333333</ele><time>2026-03-29T08:53:38.999Z</time></trkpt><trkpt lat="45.071962954284196" lon="9.993571657341311"><ele>37.666666666666664</ele><time>2026-03-29T08:53:39.999Z</time></trkpt><trkpt lat="45.07203566974707" lon="9.993539856468463"><ele>37.5</ele><time>2026-03-29T08:53:40.999Z</time></trkpt><trkpt lat="45.0721044785448" lon="9.99348704693834"><ele>37.333333333333336</ele><time>2026-03-29T08:53:41.999Z</time></trkpt><trkpt lat="45.0721648185727" lon="9.993415910752349"><ele>37.16666666666667</ele><time>2026-03-29T08:53:42.999Z</time></trkpt><trkpt lat="45.072223113702115" lon="9.993338416302564"><ele>37.0</ele><time>2026-03-29T08:53:43.999Z</time></trkpt><trkpt lat="45.07227499735732" lon="9.993256269264267"><ele>36.833333333333336</ele><time>2026-03-29T08:53:44.999Z</time></trkpt><trkpt lat="45.07233026373034" lon="9.993177010791051"><ele>36.66666666666667</ele><time>2026-03-29T08:53:45.999Z</time></trkpt><trkpt lat="45.072391072782175" lon="9.993107095837122"><ele>36.5</ele><time>2026-03-29T08:53:46.999Z</time></trkpt><trkpt lat="45.07245883574203" lon="9.993046111063501"><ele>36.333333333333336</ele><time>2026-03-29T08:53:47.999Z</time></trkpt><trkpt lat="45.07253036081514" lon="9.992997906376745"><ele>36.166666666666664</ele><time>2026-03-29T08:53:48.999Z</time></trkpt><trkpt lat="45.072606059367146" lon="9.992966421497309"><ele>36.0</ele><time>2026-03-29T08:53:49.999Z</time></trkpt><trkpt lat="45.07268288009861" lon="9.99294660406004"><ele>36.0</ele><time>2026-03-29T08:53:50.999Z</time></trkpt><trkpt lat="45.0727609979944" lon="9.992941091818523"><ele>36.0</ele><time>2026-03-29T08:53:51.999Z</time></trkpt><trkpt lat="45.07283700652293" lon="9.99293800145471"><ele>36.0</ele><time>2026-03-29T08:53:52.999Z</time></trkpt><trkpt lat="45.07291223548434" lon="9.992934203766014"><ele>36.0</ele><time>2026-03-29T08:53:53.999Z</time></trkpt><trkpt lat="45.07298910521837" lon="9.992930538993434"><ele>36.0</ele><time>2026-03-29T08:53:54.999Z</time></trkpt><trkpt lat="45.073066031914536" lon="9.992918500696108"><ele>36.0</ele><time>2026-03-29T08:53:55.999Z</time></trkpt><trkpt lat="45.07314173462043" lon="9.992909760989594"><ele>36.00000000000001</ele><time>2026-03-29T08:53:56.999Z</time></trkpt><trkpt lat="45.07321746922387" lon="9.99290189206945"><ele>36.0</ele><time>2026-03-29T08:53:57.999Z</time></trkpt><trkpt lat="45.07329248120934" lon="9.992890507364864"><ele>36.0</ele><time>2026-03-29T08:53:58.999Z</time></trkpt><trkpt lat="45.07336660238758" lon="9.992879692108025"><ele>36.0</ele><time>2026-03-29T08:53:59.999Z</time></trkpt><trkpt lat="45.07344109177557" lon="9.992868440407756"><ele>36.0</ele><time>2026-03-29T08:54:00.999Z</time></trkpt><trkpt lat="45.07351513929435" lon="9.992858700611103"><ele>36.00000000000001</ele><time>2026-03-29T08:54:01.999Z</time></trkpt><trkpt lat="45.07358827498136" lon="9.992843947593505"><ele>36.0</ele><time>2026-03-29T08:54:02.999Z</time></trkpt><trkpt lat="45.07366190662859" lon="9.992817495662212"><ele>36.166666666666664</ele><time>2026-03-29T08:54:03.999Z</time></trkpt><trkpt lat="45.073732624475554" lon="9.992781649852711"><ele>36.333333333333336</ele><time>2026-03-29T08:54:04.999Z</time></trkpt><trkpt lat="45.07380183393833" lon="9.992737631064474"><ele>36.5</ele><time>2026-03-29T08:54:05.999Z</time></trkpt><trkpt lat="45.07386816998491" lon="9.99268427374458"><ele>36.66666666666667</ele><time>2026-03-29T08:54:06.999Z</time></trkpt><trkpt lat="45.073933189753966" lon="9.992626070135232"><ele>36.833333333333336</ele><time>2026-03-29T08:54:07.999Z</time></trkpt><trkpt lat="45.07400102325432" lon="9.992573354632581"><ele>37.0</ele><time>2026-03-29T08:54:08.999Z</time></trkpt><trkpt lat="45.07407007054417" lon="9.992528740741282"><ele>37.333333333333336</ele><time>2026-03-29T08:54:09.999Z</time></trkpt><trkpt lat="45.07414109546252" lon="9.992481471185851"><ele>37.66666666666667</ele><time>2026-03-29T08:54:10.999Z</time></trkpt><trkpt lat="45.074210661348346" lon="9.992433641089875"><ele>38.0</ele><time>2026-03-29T08:54:11.999Z</time></trkpt><trkpt lat="45.074278427837505" lon="9.992380060632716"><ele>38.333333333333336</ele><time>2026-03-29T08:54:12.999Z</time></trkpt><trkpt lat="45.0743467403446" lon="9.992328985408495"><ele>38.666666666666664</ele><time>2026-03-29T08:54:13.999Z</time></trkpt><trkpt lat="45.0744177146514" lon="9.992280140072918"><ele>39.0</ele><time>2026-03-29T08:54:14.999Z</time></trkpt><trkpt lat="45.074487747694086" lon="9.992230271668012"><ele>39.0</ele><time>2026-03-29T08:54:15.999Z</time></trkpt><trkpt lat="45.074558461458835" lon="9.992180919579235"><ele>39.0</ele><time>2026-03-29T08:54:16.999Z</time></trkpt><trkpt lat="45.074627667903016" lon="9.992129097525584"><ele>39.0</ele><time>2026-03-29T08:54:17.999Z</time></trkpt><trkpt lat="45.07469684939423" lon="9.992078910784903"><ele>39.0</ele><time>2026-03-29T08:54:18.999Z</time></trkpt><trkpt lat="45.07476321243248" lon="9.992025367980846"><ele>39.0</ele><time>2026-03-29T08:54:19.998Z</time></trkpt><trkpt lat="45.07483285252932" lon="9.991973472509121"><ele>39.0</ele><time>2026-03-29T08:54:20.998Z</time></trkpt><trkpt lat="45.0748999411586" lon="9.991919781020133"><ele>38.833333333333336</ele><time>2026-03-29T08:54:21.998Z</time></trkpt><trkpt lat="45.074967384086676" lon="9.991867685660223"><ele>38.666666666666664</ele><time>2026-03-29T08:54:22.998Z</time></trkpt><trkpt lat="45.075034106315066" lon="9.991819579328395"><ele>38.5</ele><time>2026-03-29T08:54:23.998Z</time></trkpt><trkpt lat="45.07510353374966" lon="9.991775785315113"><ele>38.33333333333333</ele><time>2026-03-29T08:54:24.998Z</time></trkpt><trkpt lat="45.075176549234016" lon="9.991740846081393"><ele>38.166666666666664</ele><time>2026-03-29T08:54:25.998Z</time></trkpt><trkpt lat="45.075251768440815" lon="9.991718715052544"><ele>38.0</ele><time>2026-03-29T08:54:26.998Z</time></trkpt><trkpt lat="45.075327293529845" lon="9.9917190058519"><ele>38.0</ele><time>2026-03-29T08:54:27.998Z</time></trkpt><trkpt lat="45.075401338059024" lon="9.991739862030713"><ele>38.0</ele><time>2026-03-29T08:54:28.998Z</time></trkpt><trkpt lat="45.075475432267936" lon="9.991763375049146"><ele>38.0</ele><time>2026-03-29T08:54:29.998Z</time></trkpt><trkpt lat="45.07554851184605" lon="9.991779918569971"><ele>38.0</ele><time>2026-03-29T08:54:30.998Z</time></trkpt><trkpt lat="45.07562251532634" lon="9.991793283057604"><ele>38.0</ele><time>2026-03-29T08:54:31.998Z</time></trkpt><trkpt lat="45.0756946856746" lon="9.991799910814125"><ele>38.0</ele><time>2026-03-29T08:54:32.998Z</time></trkpt><trkpt lat="45.07576758097573" lon="9.99179666094746"><ele>38.0</ele><time>2026-03-29T08:54:33.998Z</time></trkpt><trkpt lat="45.075839215647925" lon="9.991790803218045"><ele>38.0</ele><time>2026-03-29T08:54:34.998Z</time></trkpt><trkpt lat="45.07591208900577" lon="9.99177982384684"><ele>38.0</ele><time>2026-03-29T08:54:35.998Z</time></trkpt><trkpt lat="45.075982841796346" lon="9.99176523969892"><ele>38.0</ele><time>2026-03-29T08:54:36.998Z</time></trkpt><trkpt lat="45.0760541715318" lon="9.991753648421238"><ele>38.0</ele><time>2026-03-29T08:54:37.998Z</time></trkpt><trkpt lat="45.076119746408395" lon="9.991743138858338"><ele>38.0</ele><time>2026-03-29T08:54:38.998Z</time></trkpt><trkpt lat="45.076180887242465" lon="9.991718944973242"><ele>38.0</ele><time>2026-03-29T08:54:39.998Z</time></trkpt><trkpt lat="45.07623044415745" lon="9.991663478271379"><ele>38.0</ele><time>2026-03-29T08:54:40.998Z</time></trkpt><trkpt lat="45.07626146084378" lon="9.99158020693387"><ele>38.0</ele><time>2026-03-29T08:54:41.998Z</time></trkpt><trkpt lat="45.07627564617397" lon="9.991486601892062"><ele>38.0</ele><time>2026-03-29T08:54:42.998Z</time></trkpt><trkpt lat="45.076282786348244" lon="9.991390475640042"><ele>38.0</ele><time>2026-03-29T08:54:43.998Z</time></trkpt><trkpt lat="45.07629960555957" lon="9.991296659689137"><ele>38.0</ele><time>2026-03-29T08:54:44.998Z</time></trkpt><trkpt lat="45.07632018903415" lon="9.991199802103642"><ele>38.0</ele><time>2026-03-29T08:54:45.998Z</time></trkpt><trkpt lat="45.076350192015596" lon="9.991110064969018"><ele>38.0</ele><time>2026-03-29T08:54:46.998Z</time></trkpt><trkpt lat="45.07638668074122" lon="9.99102523162119"><ele>38.0</ele><time>2026-03-29T08:54:47.998Z</time></trkpt><trkpt lat="45.07642647192559" lon="9.990941264293236"><ele>38.0</ele><time>2026-03-29T08:54:48.998Z</time></trkpt><trkpt lat="45.07646958462228" lon="9.990859721085796"><ele>38.0</ele><time>2026-03-29T08:54:49.998Z</time></trkpt><trkpt lat="45.07651078051103" lon="9.990775428284563"><ele>38.0</ele><time>2026-03-29T08:54:50.998Z</time></trkpt><trkpt lat="45.07654728231521" lon="9.990688028656601"><ele>38.0</ele><time>2026-03-29T08:54:51.998Z</time></trkpt><trkpt lat="45.076580201042646" lon="9.990595906657418"><ele>38.0</ele><time>2026-03-29T08:54:52.998Z</time></trkpt><trkpt lat="45.07660813452831" lon="9.99049710169414"><ele>38.0</ele><time>2026-03-29T08:54:53.998Z</time></trkpt><trkpt lat="45.0766281373937" lon="9.990393571058547"><ele>38.0</ele><time>2026-03-29T08:54:54.998Z</time></trkpt><trkpt lat="45.07663885926373" lon="9.990290180918556"><ele>37.83333333333333</ele><time>2026-03-29T08:54:55.998Z</time></trkpt><trkpt lat="45.07664660876093" lon="9.990183632539111"><ele>37.666666666666664</ele><time>2026-03-29T08:54:56.998Z</time></trkpt><trkpt lat="45.07665121878639" lon="9.990076346444555"><ele>37.5</ele><time>2026-03-29T08:54:57.998Z</time></trkpt><trkpt lat="45.07666072893478" lon="9.989969613567492"><ele>37.333333333333336</ele><time>2026-03-29T08:54:58.998Z</time></trkpt><trkpt lat="45.07666788431085" lon="9.989861719813169"><ele>37.16666666666667</ele><time>2026-03-29T08:54:59.998Z</time></trkpt><trkpt lat="45.076677875214806" lon="9.989754034579095"><ele>37.0</ele><time>2026-03-29T08:55:00.998Z</time></trkpt><trkpt lat="45.07668368885531" lon="9.98964650131689"><ele>37.0</ele><time>2026-03-29T08:55:01.998Z</time></trkpt><trkpt lat="45.07669225550766" lon="9.989537380332756"><ele>37.0</ele><time>2026-03-29T08:55:02.998Z</time></trkpt><trkpt lat="45.07670007518938" lon="9.989434105980353"><ele>37.0</ele><time>2026-03-29T08:55:03.998Z</time></trkpt><trkpt lat="45.07670495454156" lon="9.989332580126174"><ele>37.0</ele><time>2026-03-29T08:55:05Z</time></trkpt><trkpt lat="45.07670890963291" lon="9.989236592636578"><ele>37.0</ele><time>2026-03-29T08:55:06Z</time></trkpt><trkpt lat="45.07671986803609" lon="9.989142804225295"><ele>37.0</ele><time>2026-03-29T08:55:07Z</time></trkpt><trkpt lat="45.07675253998687" lon="9.989059783186022"><ele>37.0</ele><time>2026-03-29T08:55:08Z</time></trkpt><trkpt lat="45.076805996920754" lon="9.988999069211268"><ele>36.85714285714286</ele><time>2026-03-29T08:55:09Z</time></trkpt><trkpt lat="45.076873153783346" lon="9.988968440868504"><ele>36.714285714285715</ele><time>2026-03-29T08:55:10Z</time></trkpt><trkpt lat="45.07694304890871" lon="9.98896309882887"><ele>36.57142857142857</ele><time>2026-03-29T08:55:11Z</time></trkpt><trkpt lat="45.077016124636074" lon="9.988971389497717"><ele>36.42857142857143</ele><time>2026-03-29T08:55:12Z</time></trkpt><trkpt lat="45.07708737348008" lon="9.98897747175183"><ele>36.285714285714285</ele><time>2026-03-29T08:55:13Z</time></trkpt><trkpt lat="45.07716016366044" lon="9.988978638185047"><ele>36.142857142857146</ele><time>2026-03-29T08:55:14Z</time></trkpt><trkpt lat="45.07723420615439" lon="9.988976812826023"><ele>36.0</ele><time>2026-03-29T08:55:15Z</time></trkpt><trkpt lat="45.07730580568926" lon="9.988977573911852"><ele>36.00000000000001</ele><time>2026-03-29T08:55:16Z</time></trkpt><trkpt lat="45.077381450197834" lon="9.988972984596167"><ele>36.0</ele><time>2026-03-29T08:55:17Z</time></trkpt><trkpt lat="45.07745706331006" lon="9.98896738965841"><ele>36.0</ele><time>2026-03-29T08:55:18Z</time></trkpt><trkpt lat="45.07753145488291" lon="9.98896229371969"><ele>36.0</ele><time>2026-03-29T08:55:19Z</time></trkpt><trkpt lat="45.07760314635155" lon="9.988960900589117"><ele>36.0</ele><time>2026-03-29T08:55:20Z</time></trkpt><trkpt lat="45.077672969484745" lon="9.988963413187026"><ele>36.00000000000001</ele><time>2026-03-29T08:55:21Z</time></trkpt><trkpt lat="45.07774341574804" lon="9.98896482080497"><ele>36.0</ele><time>2026-03-29T08:55:22Z</time></trkpt><trkpt lat="45.077817064112146" lon="9.98896634373972"><ele>36.00000000000001</ele><time>2026-03-29T08:55:23Z</time></trkpt><trkpt lat="45.077888587508816" lon="9.988964795011286"><ele>36.0</ele><time>2026-03-29T08:55:24Z</time></trkpt><trkpt lat="45.0779625278126" lon="9.988965230113411"><ele>36.0</ele><time>2026-03-29T08:55:25Z</time></trkpt><trkpt lat="45.07803765308244" lon="9.988967679377783"><ele>36.0</ele><time>2026-03-29T08:55:26Z</time></trkpt><trkpt lat="45.078112963446095" lon="9.988971295079692"><ele>36.0</ele><time>2026-03-29T08:55:27Z</time></trkpt><trkpt lat="45.07818776117738" lon="9.988974233972913"><ele>36.00000000000001</ele><time>2026-03-29T08:55:28Z</time></trkpt><trkpt lat="45.078262402719226" lon="9.98897276048819"><ele>36.0</ele><time>2026-03-29T08:55:29Z</time></trkpt><trkpt lat="45.0783373470239" lon="9.988964451519802"><ele>36.142857142857146</ele><time>2026-03-29T08:55:29.999Z</time></trkpt><trkpt lat="45.078410806830405" lon="9.988951363314008"><ele>36.285714285714285</ele><time>2026-03-29T08:55:30.999Z</time></trkpt><trkpt lat="45.078486034492556" lon="9.988939675632356"><ele>36.42857142857143</ele><time>2026-03-29T08:55:31.999Z</time></trkpt><trkpt lat="45.078559080388274" lon="9.988928977052014"><ele>36.57142857142857</ele><time>2026-03-29T08:55:32.999Z</time></trkpt><trkpt lat="45.078633165630514" lon="9.988915612824536"><ele>36.714285714285715</ele><time>2026-03-29T08:55:33.999Z</time></trkpt><trkpt lat="45.07870779062937" lon="9.988899034774564"><ele>36.85714285714286</ele><time>2026-03-29T08:55:34.999Z</time></trkpt><trkpt lat="45.07878176987719" lon="9.988888366817049"><ele>37.0</ele><time>2026-03-29T08:55:35.999Z</time></trkpt><trkpt lat="45.0788566676926" lon="9.988871922951096"><ele>37.0</ele><time>2026-03-29T08:55:36.999Z</time></trkpt><trkpt lat="45.07893056084299" lon="9.988859016369577"><ele>37.0</ele><time>2026-03-29T08:55:37.999Z</time></trkpt><trkpt lat="45.079002859136686" lon="9.98884885492744"><ele>37.0</ele><time>2026-03-29T08:55:38.999Z</time></trkpt><trkpt lat="45.079077824525065" lon="9.988830567497233"><ele>37.0</ele><time>2026-03-29T08:55:39.999Z</time></trkpt><trkpt lat="45.07915010533087" lon="9.988812836781932"><ele>37.0</ele><time>2026-03-29T08:55:40.999Z</time></trkpt><trkpt lat="45.079225832160404" lon="9.98878821342839"><ele>37.0</ele><time>2026-03-29T08:55:41.999Z</time></trkpt><trkpt lat="45.079297749470925" lon="9.988769060349506"><ele>37.0</ele><time>2026-03-29T08:55:42.999Z</time></trkpt><trkpt lat="45.07936839827813" lon="9.988745990938648"><ele>37.16666666666667</ele><time>2026-03-29T08:55:43.999Z</time></trkpt><trkpt lat="45.07944100918333" lon="9.988719249335464"><ele>37.333333333333336</ele><time>2026-03-29T08:55:44.999Z</time></trkpt><trkpt lat="45.07951215514264" lon="9.988692113949984"><ele>37.5</ele><time>2026-03-29T08:55:45.999Z</time></trkpt><trkpt lat="45.07958484417439" lon="9.988663299816935"><ele>37.666666666666664</ele><time>2026-03-29T08:55:46.999Z</time></trkpt><trkpt lat="45.07965747613512" lon="9.988633179007028"><ele>37.83333333333333</ele><time>2026-03-29T08:55:47.999Z</time></trkpt><trkpt lat="45.07972885104976" lon="9.988599426064242"><ele>38.0</ele><time>2026-03-29T08:55:48.999Z</time></trkpt><trkpt lat="45.07980151121572" lon="9.988569089710847"><ele>38.0</ele><time>2026-03-29T08:55:49.999Z</time></trkpt><trkpt lat="45.07987218366871" lon="9.988538276084705"><ele>38.0</ele><time>2026-03-29T08:55:50.999Z</time></trkpt><trkpt lat="45.07994411220662" lon="9.988511992297841"><ele>38.0</ele><time>2026-03-29T08:55:51.999Z</time></trkpt><trkpt lat="45.08001101471593" lon="9.98848925569977"><ele>38.0</ele><time>2026-03-29T08:55:52.999Z</time></trkpt><trkpt lat="45.08008560927799" lon="9.988456973307702"><ele>38.0</ele><time>2026-03-29T08:55:53.999Z</time></trkpt><trkpt lat="45.08016093803608" lon="9.988417493229203"><ele>38.0</ele><time>2026-03-29T08:55:54.999Z</time></trkpt><trkpt lat="45.08022975642675" lon="9.988392939447767"><ele>38.0</ele><time>2026-03-29T08:55:55.999Z</time></trkpt><trkpt lat="45.08029833079985" lon="9.98836395325702"><ele>38.0</ele><time>2026-03-29T08:55:56.999Z</time></trkpt><trkpt lat="45.08037360395198" lon="9.988331070747806"><ele>38.0</ele><time>2026-03-29T08:55:57.999Z</time></trkpt><trkpt lat="45.08044587028206" lon="9.98830915551397"><ele>38.0</ele><time>2026-03-29T08:55:58.999Z</time></trkpt><trkpt lat="45.08051622756471" lon="9.988289868064559"><ele>38.0</ele><time>2026-03-29T08:55:59.999Z</time></trkpt><trkpt lat="45.08058326020561" lon="9.988281664752684"><ele>38.0</ele><time>2026-03-29T08:56:00.999Z</time></trkpt><trkpt lat="45.080650326896084" lon="9.988286221345694"><ele>38.0</ele><time>2026-03-29T08:56:01.999Z</time></trkpt><trkpt lat="45.08071286483157" lon="9.988299440873275"><ele>38.0</ele><time>2026-03-29T08:56:02.999Z</time></trkpt><trkpt lat="45.08082983471423" lon="9.988350469116398"><ele>37.6</ele><time>2026-03-29T08:56:04.999Z</time></trkpt><trkpt lat="45.08094292430364" lon="9.988409618511298"><ele>37.199999999999996</ele><time>2026-03-29T08:56:06.999Z</time></trkpt><trkpt lat="45.08100601801461" lon="9.98839906094998"><ele>36.8</ele><time>2026-03-29T08:56:07.999Z</time></trkpt><trkpt lat="45.08111342575704" lon="9.988278739798691"><ele>36.4</ele><time>2026-03-29T08:56:09.999Z</time></trkpt><trkpt lat="45.081148232936776" lon="9.98818966049935"><ele>36.0</ele><time>2026-03-29T08:56:10.999Z</time></trkpt><trkpt lat="45.08118655960659" lon="9.988105151713466"><ele>36.0</ele><time>2026-03-29T08:56:11.999Z</time></trkpt><trkpt lat="45.08123663421869" lon="9.988037341919021"><ele>36.0</ele><time>2026-03-29T08:56:12.999Z</time></trkpt><trkpt lat="45.08127467839615" lon="9.987954286621543"><ele>36.0</ele><time>2026-03-29T08:56:13.999Z</time></trkpt><trkpt lat="45.081355700026556" lon="9.987918469002985"><ele>36.0</ele><time>2026-03-29T08:56:14.999Z</time></trkpt><trkpt lat="45.08142470472221" lon="9.987877273743017"><ele>36.0</ele><time>2026-03-29T08:56:15.999Z</time></trkpt><trkpt lat="45.08149734506099" lon="9.987852425743082"><ele>36.0</ele><time>2026-03-29T08:56:16.999Z</time></trkpt><trkpt lat="45.08157224708659" lon="9.987832915517329"><ele>36.166666666666664</ele><time>2026-03-29T08:56:17.999Z</time></trkpt><trkpt lat="45.08164509284077" lon="9.987803871030467"><ele>36.333333333333336</ele><time>2026-03-29T08:56:18.999Z</time></trkpt><trkpt lat="45.08171959335448" lon="9.987776901283375"><ele>36.5</ele><time>2026-03-29T08:56:19.999Z</time></trkpt><trkpt lat="45.08179362607602" lon="9.987747983045947"><ele>36.66666666666667</ele><time>2026-03-29T08:56:20.999Z</time></trkpt><trkpt lat="45.08186812201927" lon="9.987718468225468"><ele>36.833333333333336</ele><time>2026-03-29T08:56:21.999Z</time></trkpt><trkpt lat="45.081942154883414" lon="9.98768621876586"><ele>37.0</ele><time>2026-03-29T08:56:22.999Z</time></trkpt><trkpt lat="45.082016412671926" lon="9.98765673196392"><ele>37.0</ele><time>2026-03-29T08:56:23.999Z</time></trkpt><trkpt lat="45.08208992069521" lon="9.987623057217005"><ele>37.0</ele><time>2026-03-29T08:56:24.998Z</time></trkpt><trkpt lat="45.08216677167311" lon="9.987594367231477"><ele>37.0</ele><time>2026-03-29T08:56:25.998Z</time></trkpt><trkpt lat="45.082240000262935" lon="9.987563772718199"><ele>37.0</ele><time>2026-03-29T08:56:26.998Z</time></trkpt><trkpt lat="45.082312588104635" lon="9.987533383810394"><ele>37.0</ele><time>2026-03-29T08:56:27.998Z</time></trkpt><trkpt lat="45.08238574893025" lon="9.987501502648191"><ele>37.0</ele><time>2026-03-29T08:56:28.998Z</time></trkpt><trkpt lat="45.08245964543497" lon="9.98747486684694"><ele>36.66666666666667</ele><time>2026-03-29T08:56:29.998Z</time></trkpt><trkpt lat="45.08253159686655" lon="9.987443668978166"><ele>36.333333333333336</ele><time>2026-03-29T08:56:30.998Z</time></trkpt><trkpt lat="45.082604969012785" lon="9.987415637088496"><ele>36.0</ele><time>2026-03-29T08:56:31.998Z</time></trkpt><trkpt lat="45.08267469381853" lon="9.987386495568238"><ele>35.666666666666664</ele><time>2026-03-29T08:56:32.998Z</time></trkpt><trkpt lat="45.08274851237168" lon="9.987356794826937"><ele>35.33333333333333</ele><time>2026-03-29T08:56:33.998Z</time></trkpt><trkpt lat="45.08282141508583" lon="9.987325982005409"><ele>35.0</ele><time>2026-03-29T08:56:34.998Z</time></trkpt><trkpt lat="45.08289340187895" lon="9.987296707318354"><ele>35.0</ele><time>2026-03-29T08:56:35.998Z</time></trkpt><trkpt lat="45.08296553460133" lon="9.987255840402867"><ele>35.0</ele><time>2026-03-29T08:56:36.998Z</time></trkpt><trkpt lat="45.083034229787444" lon="9.987224408002318"><ele>35.0</ele><time>2026-03-29T08:56:37.998Z</time></trkpt><trkpt lat="45.08310412175888" lon="9.987188346574026"><ele>35.0</ele><time>2026-03-29T08:56:38.998Z</time></trkpt><trkpt lat="45.0831737562547" lon="9.987148739493957"><ele>35.0</ele><time>2026-03-29T08:56:39.998Z</time></trkpt><trkpt lat="45.08324308990259" lon="9.987106317687358"><ele>35.0</ele><time>2026-03-29T08:56:40.998Z</time></trkpt><trkpt lat="45.08331198133538" lon="9.987058023853365"><ele>35.33333333333333</ele><time>2026-03-29T08:56:41.998Z</time></trkpt><trkpt lat="45.083381610635506" lon="9.987011941158144"><ele>35.666666666666664</ele><time>2026-03-29T08:56:42.998Z</time></trkpt><trkpt lat="45.08344990308413" lon="9.986961712578951"><ele>36.0</ele><time>2026-03-29T08:56:43.998Z</time></trkpt><trkpt lat="45.083519310469036" lon="9.98689699058161"><ele>36.333333333333336</ele><time>2026-03-29T08:56:44.998Z</time></trkpt><trkpt lat="45.08357892903484" lon="9.986827173787237"><ele>36.66666666666667</ele><time>2026-03-29T08:56:45.998Z</time></trkpt><trkpt lat="45.083650229356195" lon="9.98677825778431"><ele>37.0</ele><time>2026-03-29T08:56:46.998Z</time></trkpt><trkpt lat="45.08372212401225" lon="9.986728588986795"><ele>37.0</ele><time>2026-03-29T08:56:47.998Z</time></trkpt><trkpt lat="45.08379743069234" lon="9.986686932701216"><ele>37.0</ele><time>2026-03-29T08:56:48.998Z</time></trkpt><trkpt lat="45.08388027705512" lon="9.986651321620323"><ele>37.0</ele><time>2026-03-29T08:56:49.998Z</time></trkpt><trkpt lat="45.08394434448059" lon="9.98661116523339"><ele>37.0</ele><time>2026-03-29T08:56:50.998Z</time></trkpt><trkpt lat="45.084016678142035" lon="9.986576710199794"><ele>37.0</ele><time>2026-03-29T08:56:51.998Z</time></trkpt><trkpt lat="45.084092090861205" lon="9.98654976836797"><ele>37.0</ele><time>2026-03-29T08:56:52.998Z</time></trkpt><trkpt lat="45.08416891011264" lon="9.986527986718942"><ele>36.66666666666667</ele><time>2026-03-29T08:56:53.998Z</time></trkpt><trkpt lat="45.08424605860109" lon="9.98651528321547"><ele>36.333333333333336</ele><time>2026-03-29T08:56:54.998Z</time></trkpt><trkpt lat="45.08432387769404" lon="9.986512791771318"><ele>36.0</ele><time>2026-03-29T08:56:55.998Z</time></trkpt><trkpt lat="45.08440140861347" lon="9.986516166107423"><ele>35.666666666666664</ele><time>2026-03-29T08:56:56.998Z</time></trkpt><trkpt lat="45.08447860158039" lon="9.986523210199877"><ele>35.33333333333333</ele><time>2026-03-29T08:56:57.998Z</time></trkpt><trkpt lat="45.08455326798904" lon="9.986531910070342"><ele>35.0</ele><time>2026-03-29T08:56:58.998Z</time></trkpt><trkpt lat="45.084629919619935" lon="9.986549096655306"><ele>35.0</ele><time>2026-03-29T08:56:59.998Z</time></trkpt><trkpt lat="45.08470537989272" lon="9.986573921007738"><ele>35.0</ele><time>2026-03-29T08:57:00.998Z</time></trkpt><trkpt lat="45.08477907197642" lon="9.986600289681824"><ele>35.0</ele><time>2026-03-29T08:57:01.998Z</time></trkpt><trkpt lat="45.084853097801115" lon="9.986632744855154"><ele>35.0</ele><time>2026-03-29T08:57:02.998Z</time></trkpt><trkpt lat="45.08492418798774" lon="9.986673756366356"><ele>35.0</ele><time>2026-03-29T08:57:03.998Z</time></trkpt><trkpt lat="45.08499196143744" lon="9.986724476913132"><ele>35.0</ele><time>2026-03-29T08:57:04.998Z</time></trkpt><trkpt lat="45.08505665701453" lon="9.986778584505187"><ele>35.0</ele><time>2026-03-29T08:57:05.998Z</time></trkpt><trkpt lat="45.08511988228368" lon="9.986841141330476"><ele>35.0</ele><time>2026-03-29T08:57:06.998Z</time></trkpt><trkpt lat="45.085180935360555" lon="9.986904622220587"><ele>35.0</ele><time>2026-03-29T08:57:07.998Z</time></trkpt><trkpt lat="45.08523998117887" lon="9.986972045702105"><ele>35.0</ele><time>2026-03-29T08:57:08.998Z</time></trkpt><trkpt lat="45.08529769496522" lon="9.987040673600054"><ele>35.0</ele><time>2026-03-29T08:57:10Z</time></trkpt><trkpt lat="45.08535488175948" lon="9.987108260451464"><ele>35.0</ele><time>2026-03-29T08:57:11Z</time></trkpt><trkpt lat="45.08541079453147" lon="9.987178073796866"><ele>35.0</ele><time>2026-03-29T08:57:12Z</time></trkpt><trkpt lat="45.08546829945415" lon="9.987250412572465"><ele>35.0</ele><time>2026-03-29T08:57:13Z</time></trkpt><trkpt lat="45.08552520228703" lon="9.987320213856474"><ele>35.0</ele><time>2026-03-29T08:57:14Z</time></trkpt><trkpt lat="45.0855820996806" lon="9.98739124798507"><ele>35.0</ele><time>2026-03-29T08:57:15Z</time></trkpt><trkpt lat="45.08564001873697" lon="9.987460908033631"><ele>35.0</ele><time>2026-03-29T08:57:16Z</time></trkpt><trkpt lat="45.08569945250505" lon="9.987530343804476"><ele>35.0</ele><time>2026-03-29T08:57:17Z</time></trkpt><trkpt lat="45.08575715669633" lon="9.987600005650744"><ele>35.0</ele><time>2026-03-29T08:57:18Z</time></trkpt><trkpt lat="45.08581184164364" lon="9.987672631301857"><ele>35.0</ele><time>2026-03-29T08:57:19Z</time></trkpt><trkpt lat="45.08586812186851" lon="9.987742004013292"><ele>35.0</ele><time>2026-03-29T08:57:20Z</time></trkpt><trkpt lat="45.085924454345644" lon="9.98780869222615"><ele>35.0</ele><time>2026-03-29T08:57:21Z</time></trkpt><trkpt lat="45.08598135869079" lon="9.987875752048392"><ele>35.0</ele><time>2026-03-29T08:57:22Z</time></trkpt><trkpt lat="45.086037253447124" lon="9.987943397955382"><ele>35.0</ele><time>2026-03-29T08:57:23Z</time></trkpt><trkpt lat="45.08609167979135" lon="9.988010714431608"><ele>35.0</ele><time>2026-03-29T08:57:24Z</time></trkpt><trkpt lat="45.08614701432422" lon="9.98807805450489"><ele>35.0</ele><time>2026-03-29T08:57:25Z</time></trkpt><trkpt lat="45.08620050831265" lon="9.988143879793073"><ele>35.0</ele><time>2026-03-29T08:57:26Z</time></trkpt><trkpt lat="45.08625601184852" lon="9.988206249688991"><ele>35.0</ele><time>2026-03-29T08:57:27Z</time></trkpt><trkpt lat="45.08630973474568" lon="9.988273944145257"><ele>35.0</ele><time>2026-03-29T08:57:28Z</time></trkpt><trkpt lat="45.086364111770486" lon="9.98833721562931"><ele>35.0</ele><time>2026-03-29T08:57:29Z</time></trkpt><trkpt lat="45.08641803427804" lon="9.98840818300159"><ele>35.0</ele><time>2026-03-29T08:57:30Z</time></trkpt><trkpt lat="45.08647178907287" lon="9.988468274356999"><ele>35.0</ele><time>2026-03-29T08:57:31Z</time></trkpt><trkpt lat="45.08652883994233" lon="9.98853691221341"><ele>35.142857142857146</ele><time>2026-03-29T08:57:31.999Z</time></trkpt><trkpt lat="45.08658515821322" lon="9.988599495180756"><ele>35.285714285714285</ele><time>2026-03-29T08:57:32.999Z</time></trkpt><trkpt lat="45.086641819126584" lon="9.988671483191158"><ele>35.42857142857143</ele><time>2026-03-29T08:57:33.999Z</time></trkpt><trkpt lat="45.0866961627888" lon="9.988741579607266"><ele>35.57142857142857</ele><time>2026-03-29T08:57:34.999Z</time></trkpt><trkpt lat="45.08675318884058" lon="9.988812107436102"><ele>35.714285714285715</ele><time>2026-03-29T08:57:35.999Z</time></trkpt><trkpt lat="45.08681088672753" lon="9.98887716438027"><ele>35.85714285714286</ele><time>2026-03-29T08:57:36.999Z</time></trkpt><trkpt lat="45.08686815856697" lon="9.988945178506732"><ele>36.0</ele><time>2026-03-29T08:57:37.999Z</time></trkpt><trkpt lat="45.086926011945444" lon="9.989011931664438"><ele>36.0</ele><time>2026-03-29T08:57:38.999Z</time></trkpt><trkpt lat="45.08698305866237" lon="9.989083951353445"><ele>36.0</ele><time>2026-03-29T08:57:39.999Z</time></trkpt><trkpt lat="45.087039343093" lon="9.9891531787437"><ele>36.0</ele><time>2026-03-29T08:57:40.999Z</time></trkpt><trkpt lat="45.08709631273998" lon="9.989224440047744"><ele>36.0</ele><time>2026-03-29T08:57:41.999Z</time></trkpt><trkpt lat="45.08715395627553" lon="9.989291109378604"><ele>36.0</ele><time>2026-03-29T08:57:42.999Z</time></trkpt><trkpt lat="45.08721168000382" lon="9.98936169842634"><ele>36.0</ele><time>2026-03-29T08:57:43.999Z</time></trkpt><trkpt lat="45.08726915314852" lon="9.98942894802017"><ele>36.0</ele><time>2026-03-29T08:57:44.999Z</time></trkpt><trkpt lat="45.08732871654674" lon="9.989500553646987"><ele>36.0</ele><time>2026-03-29T08:57:45.999Z</time></trkpt><trkpt lat="45.087382620972676" lon="9.989570582004237"><ele>36.0</ele><time>2026-03-29T08:57:46.999Z</time></trkpt><trkpt lat="45.08744238480265" lon="9.989639672307256"><ele>36.0</ele><time>2026-03-29T08:57:47.999Z</time></trkpt><trkpt lat="45.08749955334469" lon="9.989710593113216"><ele>36.0</ele><time>2026-03-29T08:57:48.999Z</time></trkpt><trkpt lat="45.0875573747269" lon="9.989782629885795"><ele>36.0</ele><time>2026-03-29T08:57:49.999Z</time></trkpt><trkpt lat="45.08761415525827" lon="9.989849779497703"><ele>36.0</ele><time>2026-03-29T08:57:50.999Z</time></trkpt><trkpt lat="45.0876699597053" lon="9.989926640683088"><ele>36.0</ele><time>2026-03-29T08:57:51.999Z</time></trkpt><trkpt lat="45.087727890649525" lon="9.989994197166729"><ele>36.0</ele><time>2026-03-29T08:57:52.999Z</time></trkpt><trkpt lat="45.08778692695631" lon="9.990062671441263"><ele>36.0</ele><time>2026-03-29T08:57:53.999Z</time></trkpt><trkpt lat="45.08784510540023" lon="9.990128475801448"><ele>36.0</ele><time>2026-03-29T08:57:54.999Z</time></trkpt><trkpt lat="45.08790057109995" lon="9.990202348632822"><ele>36.0</ele><time>2026-03-29T08:57:55.999Z</time></trkpt><trkpt lat="45.087956847934095" lon="9.990269332888536"><ele>35.833333333333336</ele><time>2026-03-29T08:57:56.999Z</time></trkpt><trkpt lat="45.0880098576811" lon="9.990335341435504"><ele>35.666666666666664</ele><time>2026-03-29T08:57:57.999Z</time></trkpt><trkpt lat="45.08805882681356" lon="9.990398286412855"><ele>35.5</ele><time>2026-03-29T08:57:58.999Z</time></trkpt><trkpt lat="45.08815444237372" lon="9.990509849318498"><ele>35.33333333333333</ele><time>2026-03-29T08:58:00.999Z</time></trkpt><trkpt lat="45.088248757130586" lon="9.990617460670084"><ele>35.166666666666664</ele><time>2026-03-29T08:58:02.999Z</time></trkpt><trkpt lat="45.088299465189024" lon="9.99067153866539"><ele>35.0</ele><time>2026-03-29T08:58:03.999Z</time></trkpt><trkpt lat="45.08839697558254" lon="9.99077706135381"><ele>35.4</ele><time>2026-03-29T08:58:05.999Z</time></trkpt><trkpt lat="45.08844722929704" lon="9.990833593586043"><ele>35.8</ele><time>2026-03-29T08:58:06.999Z</time></trkpt><trkpt lat="45.08854558023139" lon="9.990925601680722"><ele>36.2</ele><time>2026-03-29T08:58:08.999Z</time></trkpt><trkpt lat="45.08864735227263" lon="9.991012570825053"><ele>36.6</ele><time>2026-03-29T08:58:10.999Z</time></trkpt><trkpt lat="45.08875943663938" lon="9.991092746637817"><ele>37.0</ele><time>2026-03-29T08:58:12.999Z</time></trkpt><trkpt lat="45.08886834832808" lon="9.991152257434196"><ele>37.2</ele><time>2026-03-29T08:58:14.999Z</time></trkpt><trkpt lat="45.08898447077616" lon="9.99120155520369"><ele>37.400000000000006</ele><time>2026-03-29T08:58:16.999Z</time></trkpt><trkpt lat="45.08910095828798" lon="9.991238397088905"><ele>37.599999999999994</ele><time>2026-03-29T08:58:18.999Z</time></trkpt><trkpt lat="45.089162218288145" lon="9.991262355344023"><ele>37.8</ele><time>2026-03-29T08:58:19.999Z</time></trkpt><trkpt lat="45.08927597006858" lon="9.991301765329137"><ele>38.0</ele><time>2026-03-29T08:58:21.999Z</time></trkpt><trkpt lat="45.08939127556695" lon="9.991338560300967"><ele>38.0</ele><time>2026-03-29T08:58:23.999Z</time></trkpt><trkpt lat="45.08951021712981" lon="9.991384608968078"><ele>38.0</ele><time>2026-03-29T08:58:25.998Z</time></trkpt><trkpt lat="45.0895720237661" lon="9.991404912355048"><ele>38.0</ele><time>2026-03-29T08:58:26.998Z</time></trkpt><trkpt lat="45.089690854205834" lon="9.991443913603254"><ele>38.0</ele><time>2026-03-29T08:58:28.998Z</time></trkpt><trkpt lat="45.08981099153186" lon="9.991484129015767"><ele>38.0</ele><time>2026-03-29T08:58:30.998Z</time></trkpt><trkpt lat="45.0899252965502" lon="9.991539061503934"><ele>38.166666666666664</ele><time>2026-03-29T08:58:32.998Z</time></trkpt><trkpt lat="45.089978422458714" lon="9.991589633350456"><ele>38.33333333333333</ele><time>2026-03-29T08:58:33.998Z</time></trkpt><trkpt lat="45.09002320999193" lon="9.991655159350275"><ele>38.5</ele><time>2026-03-29T08:58:34.998Z</time></trkpt><trkpt lat="45.09006711255229" lon="9.991724411321808"><ele>38.666666666666664</ele><time>2026-03-29T08:58:35.998Z</time></trkpt><trkpt lat="45.09016997591669" lon="9.991835801199034"><ele>38.833333333333336</ele><time>2026-03-29T08:58:37.998Z</time></trkpt><trkpt lat="45.090246031673274" lon="9.991816245019374"><ele>39.0</ele><time>2026-03-29T08:58:38.998Z</time></trkpt><trkpt lat="45.09031203050948" lon="9.991787242305215"><ele>39.0</ele><time>2026-03-29T08:58:39.998Z</time></trkpt><trkpt lat="45.09037238949245" lon="9.991734685452133"><ele>39.0</ele><time>2026-03-29T08:58:40.998Z</time></trkpt><trkpt lat="45.09042920451345" lon="9.991674997966769"><ele>39.0</ele><time>2026-03-29T08:58:41.998Z</time></trkpt><trkpt lat="45.090492328604654" lon="9.991639687865735"><ele>39.0</ele><time>2026-03-29T08:58:42.998Z</time></trkpt><trkpt lat="45.09056096609586" lon="9.991665028074342"><ele>39.0</ele><time>2026-03-29T08:58:43.998Z</time></trkpt><trkpt lat="45.09062915631083" lon="9.991675188499787"><ele>39.0</ele><time>2026-03-29T08:58:44.998Z</time></trkpt><trkpt lat="45.090698618574216" lon="9.991685530660865"><ele>39.0</ele><time>2026-03-29T08:58:45.998Z</time></trkpt><trkpt lat="45.09076749091901" lon="9.991697792027779"><ele>38.714285714285715</ele><time>2026-03-29T08:58:46.998Z</time></trkpt><trkpt lat="45.090835780953064" lon="9.991710961199052"><ele>38.42857142857142</ele><time>2026-03-29T08:58:47.998Z</time></trkpt><trkpt lat="45.09090517450699" lon="9.991726292321644"><ele>38.14285714285714</ele><time>2026-03-29T08:58:48.998Z</time></trkpt><trkpt lat="45.09097503875066" lon="9.991741994737074"><ele>37.85714285714286</ele><time>2026-03-29T08:58:49.998Z</time></trkpt><trkpt lat="45.091045886406484" lon="9.991757998213377"><ele>37.57142857142857</ele><time>2026-03-29T08:58:50.998Z</time></trkpt><trkpt lat="45.09111717392688" lon="9.991774101060894"><ele>37.285714285714285</ele><time>2026-03-29T08:58:51.998Z</time></trkpt><trkpt lat="45.09118791392675" lon="9.991790080203778"><ele>37.0</ele><time>2026-03-29T08:58:52.998Z</time></trkpt><trkpt lat="45.09125875024054" lon="9.991807200223796"><ele>37.0</ele><time>2026-03-29T08:58:53.998Z</time></trkpt><trkpt lat="45.09133228490201" lon="9.991825372146407"><ele>37.0</ele><time>2026-03-29T08:58:54.998Z</time></trkpt><trkpt lat="45.09140502783557" lon="9.99184334843937"><ele>37.0</ele><time>2026-03-29T08:58:55.998Z</time></trkpt><trkpt lat="45.091477659834126" lon="9.991861297351132"><ele>37.0</ele><time>2026-03-29T08:58:56.998Z</time></trkpt><trkpt lat="45.09155219719886" lon="9.991879960318267"><ele>37.0</ele><time>2026-03-29T08:58:57.998Z</time></trkpt><trkpt lat="45.09162613734431" lon="9.99189865665637"><ele>37.0</ele><time>2026-03-29T08:58:58.998Z</time></trkpt><trkpt lat="45.09169828393531" lon="9.991916899104455"><ele>37.0</ele><time>2026-03-29T08:58:59.998Z</time></trkpt><trkpt lat="45.09177346972228" lon="9.991934321211948"><ele>37.16666666666667</ele><time>2026-03-29T08:59:00.998Z</time></trkpt><trkpt lat="45.091846582375794" lon="9.991951797096068"><ele>37.333333333333336</ele><time>2026-03-29T08:59:01.998Z</time></trkpt><trkpt lat="45.09192161147806" lon="9.991968999187765"><ele>37.5</ele><time>2026-03-29T08:59:02.998Z</time></trkpt><trkpt lat="45.091996049588865" lon="9.991985129116797"><ele>37.666666666666664</ele><time>2026-03-29T08:59:03.998Z</time></trkpt><trkpt lat="45.09206974311963" lon="9.991999456595343"><ele>37.83333333333333</ele><time>2026-03-29T08:59:04.998Z</time></trkpt><trkpt lat="45.09214440227315" lon="9.992009202292895"><ele>38.0</ele><time>2026-03-29T08:59:05.998Z</time></trkpt><trkpt lat="45.092219168474614" lon="9.992016100148176"><ele>38.0</ele><time>2026-03-29T08:59:06.998Z</time></trkpt><trkpt lat="45.0922965929928" lon="9.992017303987776"><ele>38.0</ele><time>2026-03-29T08:59:07.998Z</time></trkpt><trkpt lat="45.0923717954064" lon="9.99201609369692"><ele>38.0</ele><time>2026-03-29T08:59:08.998Z</time></trkpt><trkpt lat="45.0924466894304" lon="9.992010882035329"><ele>38.0</ele><time>2026-03-29T08:59:09.998Z</time></trkpt><trkpt lat="45.09252282653169" lon="9.991999016660825"><ele>38.0</ele><time>2026-03-29T08:59:10.998Z</time></trkpt><trkpt lat="45.09259823301586" lon="9.991986344297834"><ele>38.0</ele><time>2026-03-29T08:59:11.998Z</time></trkpt><trkpt lat="45.09267520528952" lon="9.991971006331719"><ele>37.83333333333333</ele><time>2026-03-29T08:59:12.998Z</time></trkpt><trkpt lat="45.092748883974195" lon="9.991951621810026"><ele>37.666666666666664</ele><time>2026-03-29T08:59:13.998Z</time></trkpt><trkpt lat="45.09282174997549" lon="9.991930589115992"><ele>37.5</ele><time>2026-03-29T08:59:15Z</time></trkpt><trkpt lat="45.092896089826695" lon="9.991904873694478"><ele>37.333333333333336</ele><time>2026-03-29T08:59:16Z</time></trkpt><trkpt lat="45.09296917243443" lon="9.99187534652018"><ele>37.16666666666667</ele><time>2026-03-29T08:59:17Z</time></trkpt><trkpt lat="45.09304296113161" lon="9.99184182848372"><ele>37.0</ele><time>2026-03-29T08:59:18Z</time></trkpt><trkpt lat="45.09311521151893" lon="9.991806873354218"><ele>37.0</ele><time>2026-03-29T08:59:19Z</time></trkpt><trkpt lat="45.09318495549222" lon="9.991767616103772"><ele>37.0</ele><time>2026-03-29T08:59:20Z</time></trkpt><trkpt lat="45.093256045478746" lon="9.991721284306117"><ele>37.0</ele><time>2026-03-29T08:59:21Z</time></trkpt><trkpt lat="45.093322989338624" lon="9.991672121056395"><ele>37.0</ele><time>2026-03-29T08:59:22Z</time></trkpt><trkpt lat="45.09339074533639" lon="9.991619616712748"><ele>37.0</ele><time>2026-03-29T08:59:23Z</time></trkpt><trkpt lat="45.09345724915992" lon="9.991566009896614"><ele>37.0</ele><time>2026-03-29T08:59:24Z</time></trkpt><trkpt lat="45.09352366151906" lon="9.991511311338865"><ele>37.16666666666667</ele><time>2026-03-29T08:59:25Z</time></trkpt><trkpt lat="45.093588282338814" lon="9.99145808823882"><ele>37.333333333333336</ele><time>2026-03-29T08:59:26Z</time></trkpt><trkpt lat="45.09365221270166" lon="9.991403668962572"><ele>37.5</ele><time>2026-03-29T08:59:27Z</time></trkpt><trkpt lat="45.09371643343838" lon="9.991347567226281"><ele>37.666666666666664</ele><time>2026-03-29T08:59:28Z</time></trkpt><trkpt lat="45.093781670071714" lon="9.991289587137906"><ele>37.83333333333333</ele><time>2026-03-29T08:59:29Z</time></trkpt><trkpt lat="45.0938451140694" lon="9.99122952136125"><ele>38.0</ele><time>2026-03-29T08:59:30Z</time></trkpt><trkpt lat="45.09390755827766" lon="9.991170539469344"><ele>38.0</ele><time>2026-03-29T08:59:31Z</time></trkpt><trkpt lat="45.093961836610646" lon="9.991091812705507"><ele>38.0</ele><time>2026-03-29T08:59:32Z</time></trkpt><trkpt lat="45.0940278817223" lon="9.9910371853839"><ele>38.0</ele><time>2026-03-29T08:59:33Z</time></trkpt><trkpt lat="45.0940939489377" lon="9.990984619885518"><ele>38.0</ele><time>2026-03-29T08:59:34Z</time></trkpt><trkpt lat="45.09415970866578" lon="9.99093107835143"><ele>38.0</ele><time>2026-03-29T08:59:34.999Z</time></trkpt><trkpt lat="45.09422852802383" lon="9.990881499704786"><ele>38.0</ele><time>2026-03-29T08:59:35.999Z</time></trkpt><trkpt lat="45.09430636279817" lon="9.990870154908421"><ele>37.83333333333333</ele><time>2026-03-29T08:59:36.999Z</time></trkpt><trkpt lat="45.09438081314744" lon="9.990842144232628"><ele>37.666666666666664</ele><time>2026-03-29T08:59:37.999Z</time></trkpt><trkpt lat="45.09445625290824" lon="9.990829750508526"><ele>37.5</ele><time>2026-03-29T08:59:38.999Z</time></trkpt><trkpt lat="45.09452929572511" lon="9.990822247439793"><ele>37.333333333333336</ele><time>2026-03-29T08:59:39.999Z</time></trkpt><trkpt lat="45.09460301904758" lon="9.990817773735552"><ele>37.16666666666667</ele><time>2026-03-29T08:59:40.999Z</time></trkpt><trkpt lat="45.0946779340615" lon="9.990816115103847"><ele>37.0</ele><time>2026-03-29T08:59:41.999Z</time></trkpt><trkpt lat="45.094753116469015" lon="9.990795943983912"><ele>36.833333333333336</ele><time>2026-03-29T08:59:42.999Z</time></trkpt><trkpt lat="45.09482771188455" lon="9.990788963429646"><ele>36.66666666666667</ele><time>2026-03-29T08:59:43.999Z</time></trkpt><trkpt lat="45.09490396816076" lon="9.99077612844618"><ele>36.5</ele><time>2026-03-29T08:59:44.999Z</time></trkpt><trkpt lat="45.094980242400645" lon="9.990784436516044"><ele>36.333333333333336</ele><time>2026-03-29T08:59:45.999Z</time></trkpt><trkpt lat="45.09505517709315" lon="9.99076774886713"><ele>36.166666666666664</ele><time>2026-03-29T08:59:46.999Z</time></trkpt><trkpt lat="45.09512891487821" lon="9.9907448332381"><ele>36.0</ele><time>2026-03-29T08:59:47.999Z</time></trkpt><trkpt lat="45.09520123422817" lon="9.990721205757538"><ele>36.57142857142858</ele><time>2026-03-29T08:59:48.999Z</time></trkpt><trkpt lat="45.09527021771087" lon="9.990694972618275"><ele>37.142857142857146</ele><time>2026-03-29T08:59:49.999Z</time></trkpt><trkpt lat="45.0953396174224" lon="9.990669257906939"><ele>37.714285714285715</ele><time>2026-03-29T08:59:50.999Z</time></trkpt><trkpt lat="45.09540420616124" lon="9.990646055577878"><ele>38.28571428571429</ele><time>2026-03-29T08:59:51.999Z</time></trkpt><trkpt lat="45.09546882752235" lon="9.990623515199681"><ele>38.85714285714286</ele><time>2026-03-29T08:59:52.999Z</time></trkpt><trkpt lat="45.095530724922845" lon="9.990601924883261"><ele>39.42857142857143</ele><time>2026-03-29T08:59:53.999Z</time></trkpt><trkpt lat="45.09559328152591" lon="9.99058010469583"><ele>40.0</ele><time>2026-03-29T08:59:54.999Z</time></trkpt><trkpt lat="45.09571367201931" lon="9.99053970794331"><ele>39.833333333333336</ele><time>2026-03-29T08:59:56.999Z</time></trkpt><trkpt lat="45.09583724230025" lon="9.990498727597576"><ele>39.66666666666667</ele><time>2026-03-29T08:59:58.999Z</time></trkpt><trkpt lat="45.0959024338576" lon="9.990478643711823"><ele>39.5</ele><time>2026-03-29T08:59:59.999Z</time></trkpt><trkpt lat="45.09596515049601" lon="9.99045932232902"><ele>39.333333333333336</ele><time>2026-03-29T09:00:00.999Z</time></trkpt><trkpt lat="45.09602746098155" lon="9.990443040746571"><ele>39.166666666666664</ele><time>2026-03-29T09:00:01.999Z</time></trkpt><trkpt lat="45.09608986596269" lon="9.990430402085234"><ele>39.0</ele><time>2026-03-29T09:00:02.999Z</time></trkpt><trkpt lat="45.096157067478636" lon="9.990419605450104"><ele>39.0</ele><time>2026-03-29T09:00:03.999Z</time></trkpt><trkpt lat="45.09628744217941" lon="9.990405859352421"><ele>39.0</ele><time>2026-03-29T09:00:05.999Z</time></trkpt><trkpt lat="45.0963591733772" lon="9.990396235235766"><ele>39.0</ele><time>2026-03-29T09:00:06.999Z</time></trkpt><trkpt lat="45.096428697029914" lon="9.99038325007102"><ele>39.0</ele><time>2026-03-29T09:00:07.999Z</time></trkpt><trkpt lat="45.096498737992114" lon="9.990370168810678"><ele>39.0</ele><time>2026-03-29T09:00:08.999Z</time></trkpt><trkpt lat="45.09656726119828" lon="9.99034964308611"><ele>39.0</ele><time>2026-03-29T09:00:09.999Z</time></trkpt><trkpt lat="45.09663850978794" lon="9.990331332048186"><ele>38.714285714285715</ele><time>2026-03-29T09:00:10.999Z</time></trkpt><trkpt lat="45.09670942487056" lon="9.990312186040113"><ele>38.42857142857142</ele><time>2026-03-29T09:00:11.999Z</time></trkpt><trkpt lat="45.09678101283586" lon="9.99029285837562"><ele>38.14285714285714</ele><time>2026-03-29T09:00:12.999Z</time></trkpt><trkpt lat="45.09685148907566" lon="9.990273371205642"><ele>37.85714285714286</ele><time>2026-03-29T09:00:13.999Z</time></trkpt><trkpt lat="45.096922048135426" lon="9.990253750496262"><ele>37.57142857142857</ele><time>2026-03-29T09:00:14.999Z</time></trkpt><trkpt lat="45.096994386212714" lon="9.990232657841307"><ele>37.285714285714285</ele><time>2026-03-29T09:00:15.999Z</time></trkpt><trkpt lat="45.09706742680415" lon="9.99020782097654"><ele>37.0</ele><time>2026-03-29T09:00:16.999Z</time></trkpt><trkpt lat="45.09714032597803" lon="9.990180748282315"><ele>37.0</ele><time>2026-03-29T09:00:17.999Z</time></trkpt><trkpt lat="45.097212576841464" lon="9.990153336217942"><ele>37.0</ele><time>2026-03-29T09:00:18.999Z</time></trkpt><trkpt lat="45.09728511759963" lon="9.990125814218564"><ele>37.0</ele><time>2026-03-29T09:00:19.999Z</time></trkpt><trkpt lat="45.09735751178085" lon="9.990098347747628"><ele>37.0</ele><time>2026-03-29T09:00:20.999Z</time></trkpt><trkpt lat="45.09742920157864" lon="9.990070413024204"><ele>37.0</ele><time>2026-03-29T09:00:21.999Z</time></trkpt><trkpt lat="45.09749998010543" lon="9.990041775036737"><ele>37.0</ele><time>2026-03-29T09:00:22.999Z</time></trkpt><trkpt lat="45.09757117093125" lon="9.99001297023623"><ele>37.0</ele><time>2026-03-29T09:00:23.999Z</time></trkpt><trkpt lat="45.09764441527029" lon="9.98998263968463"><ele>37.16666666666667</ele><time>2026-03-29T09:00:24.999Z</time></trkpt><trkpt lat="45.09771749232758" lon="9.989950361462933"><ele>37.333333333333336</ele><time>2026-03-29T09:00:25.999Z</time></trkpt><trkpt lat="45.09778720489" lon="9.989919569034411"><ele>37.5</ele><time>2026-03-29T09:00:26.999Z</time></trkpt><trkpt lat="45.09785919229558" lon="9.989877974886749"><ele>37.666666666666664</ele><time>2026-03-29T09:00:27.999Z</time></trkpt><trkpt lat="45.09791998177646" lon="9.989805725874204"><ele>37.83333333333333</ele><time>2026-03-29T09:00:28.999Z</time></trkpt><trkpt lat="45.09799296800354" lon="9.989776780404899"><ele>38.0</ele><time>2026-03-29T09:00:29.999Z</time></trkpt><trkpt lat="45.09806629610343" lon="9.989751642298422"><ele>38.0</ele><time>2026-03-29T09:00:30.998Z</time></trkpt><trkpt lat="45.09814172862027" lon="9.989765764724153"><ele>38.0</ele><time>2026-03-29T09:00:31.998Z</time></trkpt><trkpt lat="45.09821674138779" lon="9.989761245265273"><ele>38.0</ele><time>2026-03-29T09:00:32.998Z</time></trkpt><trkpt lat="45.09829335483634" lon="9.989756629290062"><ele>38.0</ele><time>2026-03-29T09:00:33.998Z</time></trkpt><trkpt lat="45.098371166841495" lon="9.989759560546654"><ele>38.0</ele><time>2026-03-29T09:00:34.998Z</time></trkpt><trkpt lat="45.098448667401634" lon="9.989763428667178"><ele>38.0</ele><time>2026-03-29T09:00:35.998Z</time></trkpt><trkpt lat="45.09852055031115" lon="9.98976927415931"><ele>38.166666666666664</ele><time>2026-03-29T09:00:36.998Z</time></trkpt><trkpt lat="45.098593173093" lon="9.989775677778477"><ele>38.33333333333333</ele><time>2026-03-29T09:00:37.998Z</time></trkpt><trkpt lat="45.09866169384289" lon="9.989781719685553"><ele>38.5</ele><time>2026-03-29T09:00:38.998Z</time></trkpt><trkpt lat="45.09872911124162" lon="9.989787664306835"><ele>38.666666666666664</ele><time>2026-03-29T09:00:39.998Z</time></trkpt><trkpt lat="45.09879494081266" lon="9.989793468918919"><ele>38.833333333333336</ele><time>2026-03-29T09:00:40.998Z</time></trkpt><trkpt lat="45.098914379824066" lon="9.989805758858871"><ele>39.0</ele><time>2026-03-29T09:00:42.998Z</time></trkpt><trkpt lat="45.09903117954253" lon="9.989822586327135"><ele>39.0</ele><time>2026-03-29T09:00:44.998Z</time></trkpt><trkpt lat="45.09909373884088" lon="9.989835142246838"><ele>39.0</ele><time>2026-03-29T09:00:45.998Z</time></trkpt><trkpt lat="45.09920689251354" lon="9.989877041627587"><ele>39.0</ele><time>2026-03-29T09:00:47.998Z</time></trkpt><trkpt lat="45.09930325516225" lon="9.989950267922113"><ele>39.0</ele><time>2026-03-29T09:00:49.998Z</time></trkpt><trkpt lat="45.099413032012905" lon="9.989833197240756"><ele>39.0</ele><time>2026-03-29T09:00:50.998Z</time></trkpt><trkpt lat="45.09951675083933" lon="9.989820983056505"><ele>39.0</ele><time>2026-03-29T09:00:52.998Z</time></trkpt><trkpt lat="45.099617397238134" lon="9.989770866836635"><ele>39.0</ele><time>2026-03-29T09:00:54.998Z</time></trkpt><trkpt lat="45.09971671878049" lon="9.989792113360576"><ele>39.0</ele><time>2026-03-29T09:00:56.998Z</time></trkpt><trkpt lat="45.09982913762237" lon="9.989820517243748"><ele>39.0</ele><time>2026-03-29T09:00:58.998Z</time></trkpt><trkpt lat="45.099948424205635" lon="9.98986544129563"><ele>39.0</ele><time>2026-03-29T09:01:00.998Z</time></trkpt><trkpt lat="45.10001012178603" lon="9.989889926988988"><ele>38.833333333333336</ele><time>2026-03-29T09:01:01.998Z</time></trkpt><trkpt lat="45.100072994016664" lon="9.989913744523086"><ele>38.666666666666664</ele><time>2026-03-29T09:01:02.998Z</time></trkpt><trkpt lat="45.10013939614616" lon="9.989930975369845"><ele>38.5</ele><time>2026-03-29T09:01:03.998Z</time></trkpt><trkpt lat="45.100197458832156" lon="9.989990906797368"><ele>38.33333333333333</ele><time>2026-03-29T09:01:04.998Z</time></trkpt><trkpt lat="45.10031849117979" lon="9.990041946956595"><ele>38.166666666666664</ele><time>2026-03-29T09:01:06.998Z</time></trkpt><trkpt lat="45.10038196850515" lon="9.990068579492188"><ele>38.0</ele><time>2026-03-29T09:01:07.998Z</time></trkpt><trkpt lat="45.100445915806624" lon="9.990094175234587"><ele>38.0</ele><time>2026-03-29T09:01:08.998Z</time></trkpt><trkpt lat="45.100511014368884" lon="9.990119907795998"><ele>38.0</ele><time>2026-03-29T09:01:09.998Z</time></trkpt><trkpt lat="45.10057808315511" lon="9.990146419138505"><ele>38.0</ele><time>2026-03-29T09:01:10.998Z</time></trkpt><trkpt lat="45.10064507619695" lon="9.990173641795046"><ele>38.0</ele><time>2026-03-29T09:01:11.998Z</time></trkpt><trkpt lat="45.100718917730156" lon="9.990172169862532"><ele>38.0</ele><time>2026-03-29T09:01:12.998Z</time></trkpt><trkpt lat="45.100785972818095" lon="9.990201643033714"><ele>38.0</ele><time>2026-03-29T09:01:13.998Z</time></trkpt><trkpt lat="45.10085139489573" lon="9.990232035935563"><ele>38.0</ele><time>2026-03-29T09:01:14.998Z</time></trkpt><trkpt lat="45.10091258789311" lon="9.990258554666699"><ele>38.0</ele><time>2026-03-29T09:01:15.998Z</time></trkpt><trkpt lat="45.10097539095819" lon="9.99028983480729"><ele>38.0</ele><time>2026-03-29T09:01:16.998Z</time></trkpt><trkpt lat="45.101037713611895" lon="9.99032361415054"><ele>38.0</ele><time>2026-03-29T09:01:17.998Z</time></trkpt><trkpt lat="45.101102249580165" lon="9.990352860295664"><ele>38.0</ele><time>2026-03-29T09:01:18.998Z</time></trkpt><trkpt lat="45.10116664537145" lon="9.990387223892254"><ele>38.0</ele><time>2026-03-29T09:01:20Z</time></trkpt><trkpt lat="45.10123065876675" lon="9.990421961649764"><ele>38.0</ele><time>2026-03-29T09:01:21Z</time></trkpt><trkpt lat="45.101292909283345" lon="9.990458169792516"><ele>38.0</ele><time>2026-03-29T09:01:22Z</time></trkpt><trkpt lat="45.10135500407302" lon="9.990494714032149"><ele>38.0</ele><time>2026-03-29T09:01:23Z</time></trkpt><trkpt lat="45.101415071669685" lon="9.9905349585629"><ele>38.0</ele><time>2026-03-29T09:01:24Z</time></trkpt><trkpt lat="45.101467129890274" lon="9.990605308813493"><ele>38.0</ele><time>2026-03-29T09:01:25Z</time></trkpt><trkpt lat="45.10152843164975" lon="9.99064233528413"><ele>38.0</ele><time>2026-03-29T09:01:26Z</time></trkpt><trkpt lat="45.10158673250194" lon="9.990682031236073"><ele>38.0</ele><time>2026-03-29T09:01:27Z</time></trkpt><trkpt lat="45.10164506317884" lon="9.990725381070963"><ele>38.0</ele><time>2026-03-29T09:01:28Z</time></trkpt><trkpt lat="45.1017036977654" lon="9.990769698285298"><ele>38.0</ele><time>2026-03-29T09:01:29Z</time></trkpt><trkpt lat="45.10176324926267" lon="9.990814708963427"><ele>37.714285714285715</ele><time>2026-03-29T09:01:30Z</time></trkpt><trkpt lat="45.101807966588254" lon="9.9908835584381"><ele>37.42857142857143</ele><time>2026-03-29T09:01:31Z</time></trkpt><trkpt lat="45.101860382077454" lon="9.990943989471397"><ele>37.142857142857146</ele><time>2026-03-29T09:01:32Z</time></trkpt><trkpt lat="45.10191100592358" lon="9.991007325232177"><ele>36.85714285714286</ele><time>2026-03-29T09:01:33Z</time></trkpt><trkpt lat="45.1019605549702" lon="9.991074011938588"><ele>36.57142857142857</ele><time>2026-03-29T09:01:34Z</time></trkpt><trkpt lat="45.10200975737675" lon="9.991142607789042"><ele>36.28571428571429</ele><time>2026-03-29T09:01:35Z</time></trkpt><trkpt lat="45.10205703624061" lon="9.991213259353163"><ele>36.0</ele><time>2026-03-29T09:01:36Z</time></trkpt><trkpt lat="45.10210305683939" lon="9.991282103428729"><ele>36.00000000000001</ele><time>2026-03-29T09:01:37Z</time></trkpt><trkpt lat="45.102147230772445" lon="9.991360626089422"><ele>36.0</ele><time>2026-03-29T09:01:38Z</time></trkpt><trkpt lat="45.10219370092175" lon="9.991441910475107"><ele>36.0</ele><time>2026-03-29T09:01:38.999Z</time></trkpt><trkpt lat="45.10223885650484" lon="9.991523056039568"><ele>36.0</ele><time>2026-03-29T09:01:39.999Z</time></trkpt><trkpt lat="45.10227971571299" lon="9.991601638756999"><ele>36.0</ele><time>2026-03-29T09:01:40.999Z</time></trkpt><trkpt lat="45.102321442155066" lon="9.991682448860265"><ele>36.00000000000001</ele><time>2026-03-29T09:01:41.999Z</time></trkpt><trkpt lat="45.102362055710145" lon="9.991761099819694"><ele>36.0</ele><time>2026-03-29T09:01:42.999Z</time></trkpt><trkpt lat="45.10240429847804" lon="9.991842905573476"><ele>36.42857142857143</ele><time>2026-03-29T09:01:43.999Z</time></trkpt><trkpt lat="45.10244887206216" lon="9.991922386885038"><ele>36.85714285714286</ele><time>2026-03-29T09:01:44.999Z</time></trkpt><trkpt lat="45.10249347593878" lon="9.992001039090765"><ele>37.28571428571429</ele><time>2026-03-29T09:01:45.999Z</time></trkpt><trkpt lat="45.10253849452341" lon="9.992077401300236"><ele>37.714285714285715</ele><time>2026-03-29T09:01:46.999Z</time></trkpt><trkpt lat="45.10259434319305" lon="9.992149995028221"><ele>38.14285714285714</ele><time>2026-03-29T09:01:47.999Z</time></trkpt><trkpt lat="45.10264980342566" lon="9.992216072026125"><ele>38.57142857142858</ele><time>2026-03-29T09:01:48.999Z</time></trkpt><trkpt lat="45.10270480047745" lon="9.992280817883932"><ele>39.0</ele><time>2026-03-29T09:01:49.999Z</time></trkpt><trkpt lat="45.102759250833884" lon="9.99234492208541"><ele>39.0</ele><time>2026-03-29T09:01:50.999Z</time></trkpt><trkpt lat="45.10281389596025" lon="9.992409255757257"><ele>39.0</ele><time>2026-03-29T09:01:51.999Z</time></trkpt><trkpt lat="45.10286817771414" lon="9.992469615402015"><ele>39.0</ele><time>2026-03-29T09:01:52.999Z</time></trkpt><trkpt lat="45.10292284329172" lon="9.992518778782085"><ele>39.0</ele><time>2026-03-29T09:01:53.999Z</time></trkpt><trkpt lat="45.103026526705754" lon="9.992596800882255"><ele>39.0</ele><time>2026-03-29T09:01:55.999Z</time></trkpt><trkpt lat="45.103120175756516" lon="9.992692612181559"><ele>39.0</ele><time>2026-03-29T09:01:57.999Z</time></trkpt><trkpt lat="45.10320208201021" lon="9.992792753095554"><ele>38.85714285714286</ele><time>2026-03-29T09:01:59.999Z</time></trkpt><trkpt lat="45.103294909370625" lon="9.992891764262707"><ele>38.71428571428571</ele><time>2026-03-29T09:02:01.999Z</time></trkpt><trkpt lat="45.10333580670918" lon="9.992972165862785"><ele>38.57142857142857</ele><time>2026-03-29T09:02:02.999Z</time></trkpt><trkpt lat="45.10340232431114" lon="9.992977336486549"><ele>38.42857142857143</ele><time>2026-03-29T09:02:03.999Z</time></trkpt><trkpt lat="45.10345634852145" lon="9.99302319383995"><ele>38.28571428571429</ele><time>2026-03-29T09:02:04.999Z</time></trkpt><trkpt lat="45.10351182250356" lon="9.993070281837117"><ele>38.14285714285714</ele><time>2026-03-29T09:02:05.999Z</time></trkpt><trkpt lat="45.103566508703395" lon="9.99311936081027"><ele>38.0</ele><time>2026-03-29T09:02:06.999Z</time></trkpt><trkpt lat="45.10362131695933" lon="9.993170907419708"><ele>38.0</ele><time>2026-03-29T09:02:07.999Z</time></trkpt><trkpt lat="45.10368289575712" lon="9.993212842865095"><ele>38.0</ele><time>2026-03-29T09:02:08.999Z</time></trkpt><trkpt lat="45.10373687492843" lon="9.993269680582875"><ele>38.0</ele><time>2026-03-29T09:02:09.999Z</time></trkpt><trkpt lat="45.10379013924108" lon="9.993325671977026"><ele>38.0</ele><time>2026-03-29T09:02:10.999Z</time></trkpt><trkpt lat="45.10384485694411" lon="9.993381849179421"><ele>38.0</ele><time>2026-03-29T09:02:11.999Z</time></trkpt><trkpt lat="45.10388553086969" lon="9.993455250631333"><ele>38.0</ele><time>2026-03-29T09:02:12.999Z</time></trkpt><trkpt lat="45.10393678824459" lon="9.993511951445791"><ele>38.0</ele><time>2026-03-29T09:02:13.999Z</time></trkpt><trkpt lat="45.1039911283885" lon="9.993570943415119"><ele>38.0</ele><time>2026-03-29T09:02:14.999Z</time></trkpt><trkpt lat="45.10404350445145" lon="9.993627267193087"><ele>38.0</ele><time>2026-03-29T09:02:15.999Z</time></trkpt><trkpt lat="45.104097188841884" lon="9.993684997760868"><ele>38.0</ele><time>2026-03-29T09:02:16.999Z</time></trkpt><trkpt lat="45.104149856041154" lon="9.993741634629695"><ele>38.0</ele><time>2026-03-29T09:02:17.999Z</time></trkpt><trkpt lat="45.10420007891815" lon="9.993798350364154"><ele>38.0</ele><time>2026-03-29T09:02:18.999Z</time></trkpt><trkpt lat="45.10425660214144" lon="9.993858890676504"><ele>38.0</ele><time>2026-03-29T09:02:19.999Z</time></trkpt><trkpt lat="45.104332012476206" lon="9.993897169276357"><ele>38.0</ele><time>2026-03-29T09:02:20.999Z</time></trkpt><trkpt lat="45.104418911909335" lon="9.993882044923492"><ele>38.0</ele><time>2026-03-29T09:02:21.999Z</time></trkpt><trkpt lat="45.10448940736399" lon="9.993785465406193"><ele>38.0</ele><time>2026-03-29T09:02:22.999Z</time></trkpt><trkpt lat="45.10452336977883" lon="9.993669315034353"><ele>38.0</ele><time>2026-03-29T09:02:23.999Z</time></trkpt><trkpt lat="45.10455626695171" lon="9.99358808193378"><ele>38.0</ele><time>2026-03-29T09:02:24.999Z</time></trkpt><trkpt lat="45.10458915781605" lon="9.993505394318328"><ele>38.0</ele><time>2026-03-29T09:02:25.999Z</time></trkpt><trkpt lat="45.104621305948015" lon="9.99342405228624"><ele>38.0</ele><time>2026-03-29T09:02:26.999Z</time></trkpt><trkpt lat="45.10465610775364" lon="9.993335995805168"><ele>38.0</ele><time>2026-03-29T09:02:27.999Z</time></trkpt><trkpt lat="45.10468949977276" lon="9.993251506483936"><ele>38.0</ele><time>2026-03-29T09:02:28.999Z</time></trkpt><trkpt lat="45.10472332472135" lon="9.993168397747013"><ele>38.0</ele><time>2026-03-29T09:02:29.999Z</time></trkpt><trkpt lat="45.10475870103231" lon="9.993082355589564"><ele>38.0</ele><time>2026-03-29T09:02:30.999Z</time></trkpt><trkpt lat="45.1047945713628" lon="9.992995111918658"><ele>38.0</ele><time>2026-03-29T09:02:31.999Z</time></trkpt><trkpt lat="45.10483013735494" lon="9.992908608392451"><ele>38.0</ele><time>2026-03-29T09:02:32.998Z</time></trkpt><trkpt lat="45.104866432754164" lon="9.992820330767012"><ele>38.0</ele><time>2026-03-29T09:02:33.998Z</time></trkpt><trkpt lat="45.10490282005136" lon="9.992731829898416"><ele>38.14285714285714</ele><time>2026-03-29T09:02:34.998Z</time></trkpt><trkpt lat="45.1049395140092" lon="9.992642582775895"><ele>38.28571428571429</ele><time>2026-03-29T09:02:35.998Z</time></trkpt><trkpt lat="45.10497522266993" lon="9.992555729186298"><ele>38.42857142857143</ele><time>2026-03-29T09:02:36.998Z</time></trkpt><trkpt lat="45.10501077996319" lon="9.992469244154554"><ele>38.57142857142857</ele><time>2026-03-29T09:02:37.998Z</time></trkpt><trkpt lat="45.105048923897726" lon="9.992385265692773"><ele>38.71428571428571</ele><time>2026-03-29T09:02:38.998Z</time></trkpt><trkpt lat="45.105071608752624" lon="9.992288030245456"><ele>38.85714285714286</ele><time>2026-03-29T09:02:39.998Z</time></trkpt><trkpt lat="45.105110205436866" lon="9.992201575149638"><ele>39.0</ele><time>2026-03-29T09:02:40.998Z</time></trkpt><trkpt lat="45.10515842677451" lon="9.992126658603457"><ele>39.0</ele><time>2026-03-29T09:02:41.998Z</time></trkpt><trkpt lat="45.10519483832378" lon="9.992040687804709"><ele>39.0</ele><time>2026-03-29T09:02:42.998Z</time></trkpt><trkpt lat="45.10522946373256" lon="9.991958934335402"><ele>39.0</ele><time>2026-03-29T09:02:43.998Z</time></trkpt><trkpt lat="45.10526465023486" lon="9.991878259883839"><ele>39.0</ele><time>2026-03-29T09:02:44.998Z</time></trkpt><trkpt lat="45.10530341195547" lon="9.991793843293737"><ele>39.0</ele><time>2026-03-29T09:02:45.998Z</time></trkpt><trkpt lat="45.10534143364044" lon="9.991711040160274"><ele>39.0</ele><time>2026-03-29T09:02:46.998Z</time></trkpt><trkpt lat="45.1053786449133" lon="9.991630004777702"><ele>39.0</ele><time>2026-03-29T09:02:47.998Z</time></trkpt><trkpt lat="45.105414445240456" lon="9.991555925289981"><ele>39.25</ele><time>2026-03-29T09:02:48.998Z</time></trkpt><trkpt lat="45.10549164427269" lon="9.991416126104188"><ele>39.5</ele><time>2026-03-29T09:02:50.998Z</time></trkpt><trkpt lat="45.1055752719375" lon="9.991295586888373"><ele>39.75</ele><time>2026-03-29T09:02:52.998Z</time></trkpt><trkpt lat="45.10565524376063" lon="9.99120426928182"><ele>40.0</ele><time>2026-03-29T09:02:54.998Z</time></trkpt><trkpt lat="45.10575572000843" lon="9.991286576958016"><ele>39.8</ele><time>2026-03-29T09:02:56.998Z</time></trkpt><trkpt lat="45.10574795413648" lon="9.99140299549448"><ele>39.6</ele><time>2026-03-29T09:02:57.998Z</time></trkpt><trkpt lat="45.105816341550145" lon="9.991518176514832"><ele>39.4</ele><time>2026-03-29T09:02:59.998Z</time></trkpt><trkpt lat="45.105903283535056" lon="9.991632720367631"><ele>39.2</ele><time>2026-03-29T09:03:01.998Z</time></trkpt><trkpt lat="45.10595304632344" lon="9.9916918841123"><ele>39.0</ele><time>2026-03-29T09:03:02.998Z</time></trkpt><trkpt lat="45.10605058251879" lon="9.991805906206292"><ele>39.0</ele><time>2026-03-29T09:03:04.998Z</time></trkpt><trkpt lat="45.10610073472912" lon="9.991863239373298"><ele>39.0</ele><time>2026-03-29T09:03:05.998Z</time></trkpt><trkpt lat="45.106153526591136" lon="9.991923590127465"><ele>39.0</ele><time>2026-03-29T09:03:06.998Z</time></trkpt><trkpt lat="45.10625802117724" lon="9.992012779033661"><ele>39.0</ele><time>2026-03-29T09:03:08.998Z</time></trkpt><trkpt lat="45.106349178437775" lon="9.992115679535338"><ele>39.0</ele><time>2026-03-29T09:03:10.998Z</time></trkpt><trkpt lat="45.10643220538015" lon="9.992224260408248"><ele>39.0</ele><time>2026-03-29T09:03:12.998Z</time></trkpt><trkpt lat="45.10651932265682" lon="9.992308769206062"><ele>39.0</ele><time>2026-03-29T09:03:14.998Z</time></trkpt><trkpt lat="45.106624343756444" lon="9.992385293567807"><ele>39.0</ele><time>2026-03-29T09:03:16.998Z</time></trkpt><trkpt lat="45.10671390062341" lon="9.992497471199407"><ele>39.0</ele><time>2026-03-29T09:03:18.998Z</time></trkpt><trkpt lat="45.1067675367418" lon="9.992548294990819"><ele>39.0</ele><time>2026-03-29T09:03:19.998Z</time></trkpt><trkpt lat="45.106879015610794" lon="9.992653926557029"><ele>39.0</ele><time>2026-03-29T09:03:21.998Z</time></trkpt><trkpt lat="45.106956760797935" lon="9.992641769453888"><ele>39.0</ele><time>2026-03-29T09:03:22.998Z</time></trkpt><trkpt lat="45.10700892134791" lon="9.992695072840613"><ele>39.0</ele><time>2026-03-29T09:03:23.998Z</time></trkpt><trkpt lat="45.10706040924427" lon="9.99275405407379"><ele>39.0</ele><time>2026-03-29T09:03:24.998Z</time></trkpt><trkpt lat="45.10711924077227" lon="9.992800725808722"><ele>39.0</ele><time>2026-03-29T09:03:26Z</time></trkpt><trkpt lat="45.107216425401894" lon="9.992891330347788"><ele>39.0</ele><time>2026-03-29T09:03:28Z</time></trkpt><trkpt lat="45.10729742621724" lon="9.992953753412705"><ele>39.0</ele><time>2026-03-29T09:03:30Z</time></trkpt><trkpt lat="45.10738629326784" lon="9.992991531211809"><ele>39.0</ele><time>2026-03-29T09:03:32Z</time></trkpt><trkpt lat="45.10748963340227" lon="9.992986267275585"><ele>39.0</ele><time>2026-03-29T09:03:34Z</time></trkpt><trkpt lat="45.10759379807221" lon="9.992945732110192"><ele>39.0</ele><time>2026-03-29T09:03:36Z</time></trkpt><trkpt lat="45.107697079241966" lon="9.992890336475092"><ele>39.0</ele><time>2026-03-29T09:03:38Z</time></trkpt><trkpt lat="45.10780426735296" lon="9.992837484143097"><ele>39.0</ele><time>2026-03-29T09:03:40Z</time></trkpt><trkpt lat="45.10792127097981" lon="9.99279217775687"><ele>39.0</ele><time>2026-03-29T09:03:42Z</time></trkpt><trkpt lat="45.108041684067025" lon="9.9927457173714"><ele>39.0</ele><time>2026-03-29T09:03:43.999Z</time></trkpt><trkpt lat="45.108161702328566" lon="9.992707628782533"><ele>39.0</ele><time>2026-03-29T09:03:45.999Z</time></trkpt><trkpt lat="45.10822609782022" lon="9.99269373337354"><ele>39.0</ele><time>2026-03-29T09:03:46.999Z</time></trkpt><trkpt lat="45.108292083306786" lon="9.992674914807797"><ele>38.714285714285715</ele><time>2026-03-29T09:03:47.999Z</time></trkpt><trkpt lat="45.108354120107215" lon="9.992654048042615"><ele>38.42857142857142</ele><time>2026-03-29T09:03:48.999Z</time></trkpt><trkpt lat="45.108475655498545" lon="9.992617124148527"><ele>38.14285714285714</ele><time>2026-03-29T09:03:50.999Z</time></trkpt><trkpt lat="45.10853703981645" lon="9.99259728721613"><ele>37.85714285714286</ele><time>2026-03-29T09:03:51.999Z</time></trkpt><trkpt lat="45.108598455062385" lon="9.992573225487535"><ele>37.57142857142857</ele><time>2026-03-29T09:03:52.999Z</time></trkpt><trkpt lat="45.10866171701563" lon="9.992552842908328"><ele>37.285714285714285</ele><time>2026-03-29T09:03:53.999Z</time></trkpt><trkpt lat="45.10872646457017" lon="9.992539103775092"><ele>37.0</ele><time>2026-03-29T09:03:54.999Z</time></trkpt><trkpt lat="45.10879182829558" lon="9.992524509663776"><ele>36.85714285714286</ele><time>2026-03-29T09:03:55.999Z</time></trkpt><trkpt lat="45.10885765185333" lon="9.992502944145546"><ele>36.714285714285715</ele><time>2026-03-29T09:03:56.999Z</time></trkpt><trkpt lat="45.108920551562" lon="9.99247804551437"><ele>36.57142857142857</ele><time>2026-03-29T09:03:57.999Z</time></trkpt><trkpt lat="45.1089842458185" lon="9.992455389745674"><ele>36.42857142857143</ele><time>2026-03-29T09:03:58.999Z</time></trkpt><trkpt lat="45.109044204719076" lon="9.992426755318416"><ele>36.285714285714285</ele><time>2026-03-29T09:03:59.999Z</time></trkpt><trkpt lat="45.10910376830184" lon="9.99239268740382"><ele>36.142857142857146</ele><time>2026-03-29T09:04:00.999Z</time></trkpt><trkpt lat="45.10916171096603" lon="9.992356716595276"><ele>36.0</ele><time>2026-03-29T09:04:01.999Z</time></trkpt><trkpt lat="45.109272589983505" lon="9.99228047658071"><ele>36.0</ele><time>2026-03-29T09:04:03.999Z</time></trkpt><trkpt lat="45.109366671397574" lon="9.99218516133319"><ele>36.0</ele><time>2026-03-29T09:04:05.999Z</time></trkpt><trkpt lat="45.10944733157689" lon="9.992071326230615"><ele>36.0</ele><time>2026-03-29T09:04:07.999Z</time></trkpt><trkpt lat="45.109520774007414" lon="9.991961849191947"><ele>36.0</ele><time>2026-03-29T09:04:09.999Z</time></trkpt><trkpt lat="45.10959138224249" lon="9.991918950965756"><ele>36.0</ele><time>2026-03-29T09:04:11.999Z</time></trkpt><trkpt lat="45.10966488019475" lon="9.992018835409333"><ele>36.0</ele><time>2026-03-29T09:04:13.999Z</time></trkpt><trkpt lat="45.10975123867131" lon="9.992130878972619"><ele>36.0</ele><time>2026-03-29T09:04:15.999Z</time></trkpt><trkpt lat="45.10980360787052" lon="9.992189044480725"><ele>36.0</ele><time>2026-03-29T09:04:16.999Z</time></trkpt><trkpt lat="45.10985708279636" lon="9.992253055016723"><ele>36.0</ele><time>2026-03-29T09:04:17.999Z</time></trkpt><trkpt lat="45.10991316771784" lon="9.992318006190644"><ele>36.0</ele><time>2026-03-29T09:04:18.999Z</time></trkpt><trkpt lat="45.109966566919034" lon="9.992377107146497"><ele>36.0</ele><time>2026-03-29T09:04:19.999Z</time></trkpt><trkpt lat="45.110019809926044" lon="9.992435931627229"><ele>36.142857142857146</ele><time>2026-03-29T09:04:20.999Z</time></trkpt><trkpt lat="45.11007142817837" lon="9.992498732074822"><ele>36.285714285714285</ele><time>2026-03-29T09:04:21.999Z</time></trkpt><trkpt lat="45.11012498422462" lon="9.992560960839999"><ele>36.42857142857143</ele><time>2026-03-29T09:04:22.999Z</time></trkpt><trkpt lat="45.11018270796534" lon="9.992625696272015"><ele>36.57142857142857</ele><time>2026-03-29T09:04:23.999Z</time></trkpt><trkpt lat="45.110239811971596" lon="9.992693810702564"><ele>36.714285714285715</ele><time>2026-03-29T09:04:24.999Z</time></trkpt><trkpt lat="45.11029786957993" lon="9.992761890650117"><ele>36.85714285714286</ele><time>2026-03-29T09:04:25.999Z</time></trkpt><trkpt lat="45.11036046109958" lon="9.992831612998842"><ele>37.0</ele><time>2026-03-29T09:04:26.999Z</time></trkpt><trkpt lat="45.11042164203453" lon="9.992897790932263"><ele>37.0</ele><time>2026-03-29T09:04:27.999Z</time></trkpt><trkpt lat="45.11047972839511" lon="9.992965792069414"><ele>37.0</ele><time>2026-03-29T09:04:28.999Z</time></trkpt><trkpt lat="45.110539764669255" lon="9.993033276482523"><ele>37.0</ele><time>2026-03-29T09:04:29.999Z</time></trkpt><trkpt lat="45.11059827115699" lon="9.993102197594743"><ele>37.0</ele><time>2026-03-29T09:04:30.999Z</time></trkpt><trkpt lat="45.11065808759731" lon="9.993167317457386"><ele>37.0</ele><time>2026-03-29T09:04:31.999Z</time></trkpt><trkpt lat="45.110717822097996" lon="9.99323419599073"><ele>37.0</ele><time>2026-03-29T09:04:32.999Z</time></trkpt><trkpt lat="45.11077714959266" lon="9.993300427355386"><ele>37.0</ele><time>2026-03-29T09:04:33.999Z</time></trkpt><trkpt lat="45.110837069888056" lon="9.993367761919533"><ele>37.0</ele><time>2026-03-29T09:04:34.999Z</time></trkpt><trkpt lat="45.110898296667635" lon="9.993435398466563"><ele>37.0</ele><time>2026-03-29T09:04:35.999Z</time></trkpt><trkpt lat="45.11095934869374" lon="9.993503206259266"><ele>37.0</ele><time>2026-03-29T09:04:36.998Z</time></trkpt><trkpt lat="45.11102030769049" lon="9.993567875944956"><ele>37.0</ele><time>2026-03-29T09:04:37.998Z</time></trkpt><trkpt lat="45.11107933177768" lon="9.993635523162162"><ele>37.0</ele><time>2026-03-29T09:04:38.998Z</time></trkpt><trkpt lat="45.11113658234889" lon="9.993702133032723"><ele>37.0</ele><time>2026-03-29T09:04:39.998Z</time></trkpt><trkpt lat="45.11119195636854" lon="9.99376283973978"><ele>37.0</ele><time>2026-03-29T09:04:40.998Z</time></trkpt><trkpt lat="45.111241387629114" lon="9.993819975321392"><ele>37.0</ele><time>2026-03-29T09:04:41.998Z</time></trkpt><trkpt lat="45.11131060422692" lon="9.993895265145927"><ele>37.0</ele><time>2026-03-29T09:04:43.998Z</time></trkpt><trkpt lat="45.11136947977716" lon="9.993951407653547"><ele>37.0</ele><time>2026-03-29T09:04:48.998Z</time></trkpt><trkpt lat="45.11144248304739" lon="9.994034758796444"><ele>37.0</ele><time>2026-03-29T09:04:52.998Z</time></trkpt><trkpt lat="45.11150073265718" lon="9.994102482192408"><ele>37.2</ele><time>2026-03-29T09:04:54.998Z</time></trkpt><trkpt lat="45.1115714250004" lon="9.994183210894374"><ele>37.400000000000006</ele><time>2026-03-29T09:04:56.998Z</time></trkpt><trkpt lat="45.111656438074796" lon="9.994285482780773"><ele>37.599999999999994</ele><time>2026-03-29T09:04:58.998Z</time></trkpt><trkpt lat="45.111746739097065" lon="9.994371189503468"><ele>37.8</ele><time>2026-03-29T09:05:00.998Z</time></trkpt><trkpt lat="45.111849380055425" lon="9.994468339508394"><ele>38.0</ele><time>2026-03-29T09:05:02.998Z</time></trkpt><trkpt lat="45.11196050585353" lon="9.994559987054743"><ele>38.166666666666664</ele><time>2026-03-29T09:05:04.998Z</time></trkpt><trkpt lat="45.1120185329728" lon="9.994602125223876"><ele>38.33333333333333</ele><time>2026-03-29T09:05:05.998Z</time></trkpt><trkpt lat="45.11207902034039" lon="9.994635608529983"><ele>38.5</ele><time>2026-03-29T09:05:06.998Z</time></trkpt><trkpt lat="45.112201344622655" lon="9.994687124948586"><ele>38.666666666666664</ele><time>2026-03-29T09:05:08.998Z</time></trkpt><trkpt lat="45.11226759193687" lon="9.9946977293578"><ele>38.833333333333336</ele><time>2026-03-29T09:05:09.998Z</time></trkpt><trkpt lat="45.112333359901434" lon="9.99470154681877"><ele>39.0</ele><time>2026-03-29T09:05:10.998Z</time></trkpt><trkpt lat="45.11240245887608" lon="9.994691014099294"><ele>39.142857142857146</ele><time>2026-03-29T09:05:11.998Z</time></trkpt><trkpt lat="45.11247046880881" lon="9.99467106254355"><ele>39.285714285714285</ele><time>2026-03-29T09:05:12.998Z</time></trkpt><trkpt lat="45.11253676692882" lon="9.994643221162056"><ele>39.42857142857143</ele><time>2026-03-29T09:05:13.998Z</time></trkpt><trkpt lat="45.11260439733931" lon="9.994609284904804"><ele>39.57142857142857</ele><time>2026-03-29T09:05:14.998Z</time></trkpt><trkpt lat="45.1126709210243" lon="9.994573822073285"><ele>39.714285714285715</ele><time>2026-03-29T09:05:15.998Z</time></trkpt><trkpt lat="45.112735159463334" lon="9.994533299093524"><ele>39.857142857142854</ele><time>2026-03-29T09:05:16.998Z</time></trkpt><trkpt lat="45.112800696770286" lon="9.994493623975732"><ele>40.0</ele><time>2026-03-29T09:05:17.998Z</time></trkpt><trkpt lat="45.11286675163363" lon="9.994452235387497"><ele>40.0</ele><time>2026-03-29T09:05:18.998Z</time></trkpt><trkpt lat="45.112934051293045" lon="9.994412999650745"><ele>40.0</ele><time>2026-03-29T09:05:19.998Z</time></trkpt><trkpt lat="45.11300044142672" lon="9.994370674190973"><ele>40.0</ele><time>2026-03-29T09:05:20.998Z</time></trkpt><trkpt lat="45.11306868500978" lon="9.99433377792805"><ele>40.0</ele><time>2026-03-29T09:05:21.998Z</time></trkpt><trkpt lat="45.113136765657266" lon="9.994296840259455"><ele>40.0</ele><time>2026-03-29T09:05:22.998Z</time></trkpt><trkpt lat="45.11320447121643" lon="9.994256241885925"><ele>40.0</ele><time>2026-03-29T09:05:23.998Z</time></trkpt><trkpt lat="45.11327179935659" lon="9.994209882620423"><ele>40.0</ele><time>2026-03-29T09:05:24.998Z</time></trkpt><trkpt lat="45.11333613548475" lon="9.99417229030542"><ele>39.857142857142854</ele><time>2026-03-29T09:05:25.998Z</time></trkpt><trkpt lat="45.113404805903784" lon="9.99413325886871"><ele>39.714285714285715</ele><time>2026-03-29T09:05:26.998Z</time></trkpt><trkpt lat="45.11347264937992" lon="9.99409322791568"><ele>39.57142857142857</ele><time>2026-03-29T09:05:27.998Z</time></trkpt><trkpt lat="45.113543566940905" lon="9.99405243639962"><ele>39.42857142857143</ele><time>2026-03-29T09:05:28.998Z</time></trkpt><trkpt lat="45.11360846991368" lon="9.994007964226121"><ele>39.285714285714285</ele><time>2026-03-29T09:05:29.998Z</time></trkpt><trkpt lat="45.11367670463274" lon="9.99396602348971"><ele>39.142857142857146</ele><time>2026-03-29T09:05:30.998Z</time></trkpt><trkpt lat="45.113745085358474" lon="9.993926840028324"><ele>39.0</ele><time>2026-03-29T09:05:32Z</time></trkpt><trkpt lat="45.1138143549003" lon="9.99388295707802"><ele>39.0</ele><time>2026-03-29T09:05:33Z</time></trkpt><trkpt lat="45.113885293302786" lon="9.993845943603276"><ele>39.0</ele><time>2026-03-29T09:05:34Z</time></trkpt><trkpt lat="45.113954052390824" lon="9.993802222042351"><ele>39.0</ele><time>2026-03-29T09:05:35Z</time></trkpt><trkpt lat="45.11402334301875" lon="9.993760901522286"><ele>39.0</ele><time>2026-03-29T09:05:36Z</time></trkpt><trkpt lat="45.114092302350315" lon="9.993715539895604"><ele>39.0</ele><time>2026-03-29T09:05:37Z</time></trkpt><trkpt lat="45.114160130600254" lon="9.993677788942222"><ele>39.0</ele><time>2026-03-29T09:05:38Z</time></trkpt><trkpt lat="45.114227946174594" lon="9.993635277893759"><ele>39.0</ele><time>2026-03-29T09:05:39Z</time></trkpt><trkpt lat="45.11429656823071" lon="9.993591328814883"><ele>39.0</ele><time>2026-03-29T09:05:40Z</time></trkpt><trkpt lat="45.114363535053016" lon="9.993550607770333"><ele>39.0</ele><time>2026-03-29T09:05:41Z</time></trkpt><trkpt lat="45.114432885210604" lon="9.993514300152137"><ele>39.0</ele><time>2026-03-29T09:05:42Z</time></trkpt><trkpt lat="45.11450020542912" lon="9.993478544490113"><ele>39.0</ele><time>2026-03-29T09:05:43Z</time></trkpt><trkpt lat="45.11457076687236" lon="9.993439418294654"><ele>39.0</ele><time>2026-03-29T09:05:44Z</time></trkpt><trkpt lat="45.11463979389801" lon="9.993398945590512"><ele>39.0</ele><time>2026-03-29T09:05:45Z</time></trkpt><trkpt lat="45.11470899394863" lon="9.993360145731547"><ele>39.0</ele><time>2026-03-29T09:05:46Z</time></trkpt><trkpt lat="45.114776621351076" lon="9.993317667803879"><ele>39.0</ele><time>2026-03-29T09:05:47Z</time></trkpt><trkpt lat="45.11484723721496" lon="9.993277417451475"><ele>39.0</ele><time>2026-03-29T09:05:47.999Z</time></trkpt><trkpt lat="45.11491654436602" lon="9.993235678873065"><ele>39.0</ele><time>2026-03-29T09:05:48.999Z</time></trkpt><trkpt lat="45.114986309948875" lon="9.993195372759006"><ele>39.0</ele><time>2026-03-29T09:05:49.999Z</time></trkpt><trkpt lat="45.11505537312248" lon="9.993154181640156"><ele>39.0</ele><time>2026-03-29T09:05:50.999Z</time></trkpt><trkpt lat="45.115122787653476" lon="9.993122889246154"><ele>39.0</ele><time>2026-03-29T09:05:51.999Z</time></trkpt><trkpt lat="45.11519270917126" lon="9.993080208161889"><ele>39.0</ele><time>2026-03-29T09:05:52.999Z</time></trkpt><trkpt lat="45.11526190974006" lon="9.993034312699718"><ele>39.166666666666664</ele><time>2026-03-29T09:05:53.999Z</time></trkpt><trkpt lat="45.11532952944866" lon="9.992990212185413"><ele>39.333333333333336</ele><time>2026-03-29T09:05:54.999Z</time></trkpt><trkpt lat="45.11539784212609" lon="9.992944733195099"><ele>39.5</ele><time>2026-03-29T09:05:55.999Z</time></trkpt><trkpt lat="45.11546698084673" lon="9.99290602902403"><ele>39.66666666666667</ele><time>2026-03-29T09:05:56.999Z</time></trkpt><trkpt lat="45.115536377499716" lon="9.992867965071643"><ele>39.833333333333336</ele><time>2026-03-29T09:05:57.999Z</time></trkpt><trkpt lat="45.11560713358118" lon="9.99282516515048"><ele>40.0</ele><time>2026-03-29T09:05:58.999Z</time></trkpt><trkpt lat="45.11567582179445" lon="9.992784463751315"><ele>39.833333333333336</ele><time>2026-03-29T09:05:59.999Z</time></trkpt><trkpt lat="45.11574725076859" lon="9.992746585944813"><ele>39.66666666666667</ele><time>2026-03-29T09:06:00.999Z</time></trkpt><trkpt lat="45.11581631035255" lon="9.992704949580574"><ele>39.5</ele><time>2026-03-29T09:06:01.999Z</time></trkpt><trkpt lat="45.11588597169416" lon="9.992663733751991"><ele>39.333333333333336</ele><time>2026-03-29T09:06:02.999Z</time></trkpt><trkpt lat="45.115955591458054" lon="9.992625622812211"><ele>39.166666666666664</ele><time>2026-03-29T09:06:03.999Z</time></trkpt><trkpt lat="45.116023462718005" lon="9.992583909118371"><ele>39.0</ele><time>2026-03-29T09:06:04.999Z</time></trkpt><trkpt lat="45.11609405910164" lon="9.992548353044967"><ele>39.333333333333336</ele><time>2026-03-29T09:06:05.999Z</time></trkpt><trkpt lat="45.11616491350301" lon="9.992503329221634"><ele>39.666666666666664</ele><time>2026-03-29T09:06:06.999Z</time></trkpt><trkpt lat="45.11623334886129" lon="9.992463201144654"><ele>40.0</ele><time>2026-03-29T09:06:07.999Z</time></trkpt><trkpt lat="45.116302489298015" lon="9.992422839640385"><ele>40.33333333333333</ele><time>2026-03-29T09:06:08.999Z</time></trkpt><trkpt lat="45.11637220882768" lon="9.992380012251559"><ele>40.666666666666664</ele><time>2026-03-29T09:06:09.999Z</time></trkpt><trkpt lat="45.11644151536867" lon="9.992336188991942"><ele>41.0</ele><time>2026-03-29T09:06:10.999Z</time></trkpt><trkpt lat="45.116511091423064" lon="9.99228931422914"><ele>40.666666666666664</ele><time>2026-03-29T09:06:11.999Z</time></trkpt><trkpt lat="45.116579863710996" lon="9.992243941199787"><ele>40.33333333333333</ele><time>2026-03-29T09:06:12.999Z</time></trkpt><trkpt lat="45.1166517336759" lon="9.99220310817121"><ele>40.0</ele><time>2026-03-29T09:06:13.999Z</time></trkpt><trkpt lat="45.11672235204303" lon="9.992160092851512"><ele>39.666666666666664</ele><time>2026-03-29T09:06:14.999Z</time></trkpt><trkpt lat="45.116793354577815" lon="9.992116684881987"><ele>39.333333333333336</ele><time>2026-03-29T09:06:15.999Z</time></trkpt><trkpt lat="45.11686467477312" lon="9.99207602366441"><ele>39.0</ele><time>2026-03-29T09:06:16.999Z</time></trkpt><trkpt lat="45.116936973591145" lon="9.992038884400912"><ele>39.0</ele><time>2026-03-29T09:06:17.999Z</time></trkpt><trkpt lat="45.117008375067805" lon="9.991995901353569"><ele>39.0</ele><time>2026-03-29T09:06:18.999Z</time></trkpt><trkpt lat="45.11707998491409" lon="9.991955946130856"><ele>39.0</ele><time>2026-03-29T09:06:19.999Z</time></trkpt><trkpt lat="45.11715227253992" lon="9.991911485201403"><ele>39.0</ele><time>2026-03-29T09:06:20.999Z</time></trkpt><trkpt lat="45.117223754071816" lon="9.991868105623219"><ele>39.0</ele><time>2026-03-29T09:06:21.999Z</time></trkpt><trkpt lat="45.11729496656897" lon="9.991823508042595"><ele>39.0</ele><time>2026-03-29T09:06:22.999Z</time></trkpt><trkpt lat="45.1173671237376" lon="9.991780016012196"><ele>39.0</ele><time>2026-03-29T09:06:23.999Z</time></trkpt><trkpt lat="45.1174382765732" lon="9.991734942328506"><ele>39.0</ele><time>2026-03-29T09:06:24.999Z</time></trkpt><trkpt lat="45.11750977806316" lon="9.991690608861237"><ele>39.0</ele><time>2026-03-29T09:06:25.999Z</time></trkpt><trkpt lat="45.117582639289395" lon="9.991647500438162"><ele>39.0</ele><time>2026-03-29T09:06:26.999Z</time></trkpt><trkpt lat="45.11765540471501" lon="9.991605191149521"><ele>39.0</ele><time>2026-03-29T09:06:27.999Z</time></trkpt><trkpt lat="45.117725755794666" lon="9.99156067936643"><ele>39.0</ele><time>2026-03-29T09:06:28.999Z</time></trkpt><trkpt lat="45.11779619458294" lon="9.991518538974976"><ele>39.0</ele><time>2026-03-29T09:06:29.999Z</time></trkpt><trkpt lat="45.11786839131515" lon="9.991474799472295"><ele>39.0</ele><time>2026-03-29T09:06:30.999Z</time></trkpt><trkpt lat="45.11794038458361" lon="9.991430259042177"><ele>39.0</ele><time>2026-03-29T09:06:31.999Z</time></trkpt><trkpt lat="45.118012342705946" lon="9.99138412305989"><ele>39.0</ele><time>2026-03-29T09:06:32.999Z</time></trkpt><trkpt lat="45.11808445149784" lon="9.991341171327711"><ele>39.0</ele><time>2026-03-29T09:06:33.999Z</time></trkpt><trkpt lat="45.11815617544721" lon="9.991296103407569"><ele>39.0</ele><time>2026-03-29T09:06:34.999Z</time></trkpt><trkpt lat="45.118227265509915" lon="9.991252162839581"><ele>38.166666666666664</ele><time>2026-03-29T09:06:35.999Z</time></trkpt><trkpt lat="45.11830029047168" lon="9.991209204318148"><ele>37.333333333333336</ele><time>2026-03-29T09:06:36.999Z</time></trkpt><trkpt lat="45.11837195383136" lon="9.991164701917478"><ele>36.5</ele><time>2026-03-29T09:06:37.999Z</time></trkpt><trkpt lat="45.11844425533244" lon="9.991123032044706"><ele>35.66666666666667</ele><time>2026-03-29T09:06:38.999Z</time></trkpt><trkpt lat="45.11851663838879" lon="9.991079326078259"><ele>34.833333333333336</ele><time>2026-03-29T09:06:39.999Z</time></trkpt><trkpt lat="45.11858903180592" lon="9.991034042254384"><ele>34.0</ele><time>2026-03-29T09:06:40.999Z</time></trkpt><trkpt lat="45.118660367191275" lon="9.990990431899034"><ele>34.0</ele><time>2026-03-29T09:06:41.999Z</time></trkpt><trkpt lat="45.11873093304206" lon="9.990948785020143"><ele>34.0</ele><time>2026-03-29T09:06:42.998Z</time></trkpt><trkpt lat="45.11880207410281" lon="9.990908398757076"><ele>34.0</ele><time>2026-03-29T09:06:43.998Z</time></trkpt><trkpt lat="45.118872958452386" lon="9.990871030206325"><ele>34.0</ele><time>2026-03-29T09:06:44.998Z</time></trkpt><trkpt lat="45.118943339516036" lon="9.990828142101002"><ele>34.0</ele><time>2026-03-29T09:06:45.998Z</time></trkpt><trkpt lat="45.11901317362541" lon="9.990784645795115"><ele>34.0</ele><time>2026-03-29T09:06:46.998Z</time></trkpt><trkpt lat="45.119085949824914" lon="9.990746008897492"><ele>34.333333333333336</ele><time>2026-03-29T09:06:47.998Z</time></trkpt><trkpt lat="45.11915810004939" lon="9.990708997385797"><ele>34.66666666666667</ele><time>2026-03-29T09:06:48.998Z</time></trkpt><trkpt lat="45.11923061219559" lon="9.990664433909108"><ele>35.0</ele><time>2026-03-29T09:06:49.998Z</time></trkpt><trkpt lat="45.119302711783845" lon="9.990617926008841"><ele>35.333333333333336</ele><time>2026-03-29T09:06:50.998Z</time></trkpt><trkpt lat="45.11937738535857" lon="9.990576086342632"><ele>35.666666666666664</ele><time>2026-03-29T09:06:51.998Z</time></trkpt><trkpt lat="45.11945005247975" lon="9.990531790208838"><ele>36.0</ele><time>2026-03-29T09:06:52.998Z</time></trkpt><trkpt lat="45.1195208526228" lon="9.990489376655662"><ele>36.0</ele><time>2026-03-29T09:06:53.998Z</time></trkpt><trkpt lat="45.11959261496699" lon="9.990445603237305"><ele>36.0</ele><time>2026-03-29T09:06:54.998Z</time></trkpt><trkpt lat="45.11966354415793" lon="9.99040283765777"><ele>36.0</ele><time>2026-03-29T09:06:55.998Z</time></trkpt><trkpt lat="45.11973425115008" lon="9.990362936802137"><ele>36.0</ele><time>2026-03-29T09:06:56.998Z</time></trkpt><trkpt lat="45.11980439416045" lon="9.990315284167433"><ele>36.0</ele><time>2026-03-29T09:06:57.998Z</time></trkpt><trkpt lat="45.11987443500394" lon="9.990271900672687"><ele>36.0</ele><time>2026-03-29T09:06:58.998Z</time></trkpt><trkpt lat="45.11994632005858" lon="9.990231015257498"><ele>36.42857142857143</ele><time>2026-03-29T09:06:59.998Z</time></trkpt><trkpt lat="45.1200167715179" lon="9.99018809580563"><ele>36.85714285714286</ele><time>2026-03-29T09:07:00.998Z</time></trkpt><trkpt lat="45.12008383392525" lon="9.990154028820973"><ele>37.28571428571429</ele><time>2026-03-29T09:07:01.998Z</time></trkpt><trkpt lat="45.120148273186786" lon="9.990113242670974"><ele>37.714285714285715</ele><time>2026-03-29T09:07:02.998Z</time></trkpt><trkpt lat="45.12021182424326" lon="9.990075233806047"><ele>38.14285714285714</ele><time>2026-03-29T09:07:03.998Z</time></trkpt><trkpt lat="45.120273945738965" lon="9.99003691983641"><ele>38.57142857142858</ele><time>2026-03-29T09:07:04.998Z</time></trkpt><trkpt lat="45.12033360544698" lon="9.98999846332511"><ele>39.0</ele><time>2026-03-29T09:07:05.998Z</time></trkpt><trkpt lat="45.12044761661364" lon="9.989930093509408"><ele>39.0</ele><time>2026-03-29T09:07:07.998Z</time></trkpt><trkpt lat="45.12055724945198" lon="9.989864506348438"><ele>39.0</ele><time>2026-03-29T09:07:09.998Z</time></trkpt><trkpt lat="45.12066761179247" lon="9.98979836936009"><ele>39.0</ele><time>2026-03-29T09:07:11.998Z</time></trkpt><trkpt lat="45.12077509365507" lon="9.98972943134084"><ele>39.0</ele><time>2026-03-29T09:07:13.998Z</time></trkpt><trkpt lat="45.120889149098666" lon="9.98966862210354"><ele>38.57142857142858</ele><time>2026-03-29T09:07:15.998Z</time></trkpt><trkpt lat="45.12100885483133" lon="9.989627635838005"><ele>38.14285714285714</ele><time>2026-03-29T09:07:17.998Z</time></trkpt><trkpt lat="45.121069233811326" lon="9.989600654205955"><ele>37.714285714285715</ele><time>2026-03-29T09:07:18.998Z</time></trkpt><trkpt lat="45.121132039380676" lon="9.989571838124863"><ele>37.28571428571429</ele><time>2026-03-29T09:07:19.998Z</time></trkpt><trkpt lat="45.12119156822374" lon="9.989539605604927"><ele>36.85714285714286</ele><time>2026-03-29T09:07:20.998Z</time></trkpt><trkpt lat="45.121250416435345" lon="9.989503356090278"><ele>36.42857142857143</ele><time>2026-03-29T09:07:21.998Z</time></trkpt><trkpt lat="45.1213089351636" lon="9.989463257001445"><ele>36.0</ele><time>2026-03-29T09:07:22.998Z</time></trkpt><trkpt lat="45.12136749477974" lon="9.989425013814415"><ele>36.0</ele><time>2026-03-29T09:07:23.998Z</time></trkpt><trkpt lat="45.12142577095363" lon="9.989389491769824"><ele>36.0</ele><time>2026-03-29T09:07:24.998Z</time></trkpt><trkpt lat="45.121485356848915" lon="9.989357708805278"><ele>36.0</ele><time>2026-03-29T09:07:25.998Z</time></trkpt><trkpt lat="45.12160349400654" lon="9.989303189598242"><ele>36.0</ele><time>2026-03-29T09:07:27.998Z</time></trkpt><trkpt lat="45.12172372944226" lon="9.989272858080804"><ele>36.0</ele><time>2026-03-29T09:07:29.998Z</time></trkpt><trkpt lat="45.12178684856796" lon="9.989276852711955"><ele>36.0</ele><time>2026-03-29T09:07:30.998Z</time></trkpt><trkpt lat="45.12184966936665" lon="9.989289016494116"><ele>36.25</ele><time>2026-03-29T09:07:31.998Z</time></trkpt><trkpt lat="45.12197090153957" lon="9.989333847000434"><ele>36.5</ele><time>2026-03-29T09:07:33.999Z</time></trkpt><trkpt lat="45.12208912519833" lon="9.989392879869872"><ele>36.75</ele><time>2026-03-29T09:07:35.999Z</time></trkpt><trkpt lat="45.122194746907695" lon="9.989455464981209"><ele>37.0</ele><time>2026-03-29T09:07:38.001Z</time></trkpt><trkpt lat="45.1222826574239" lon="9.989534156119735"><ele>37.0</ele><time>2026-03-29T09:07:40.001Z</time></trkpt><trkpt lat="45.122368959376686" lon="9.989631564599948"><ele>37.0</ele><time>2026-03-29T09:07:42.001Z</time></trkpt><trkpt lat="45.12246872188356" lon="9.989722171206695"><ele>37.0</ele><time>2026-03-29T09:07:44.001Z</time></trkpt><trkpt lat="45.12257163599127" lon="9.989812266774726"><ele>37.0</ele><time>2026-03-29T09:07:46.001Z</time></trkpt><trkpt lat="45.122676187129834" lon="9.989907331034997"><ele>37.125</ele><time>2026-03-29T09:07:48.001Z</time></trkpt><trkpt lat="45.12272940093147" lon="9.989955225727803"><ele>37.25</ele><time>2026-03-29T09:07:49.001Z</time></trkpt><trkpt lat="45.122784486578524" lon="9.9900011179565"><ele>37.375</ele><time>2026-03-29T09:07:50.001Z</time></trkpt><trkpt lat="45.12283891061338" lon="9.99004900173854"><ele>37.5</ele><time>2026-03-29T09:07:51.001Z</time></trkpt><trkpt lat="45.12289453119084" lon="9.990094067134176"><ele>37.625</ele><time>2026-03-29T09:07:52Z</time></trkpt><trkpt lat="45.12294978245577" lon="9.990141420778667"><ele>37.75</ele><time>2026-03-29T09:07:53Z</time></trkpt><trkpt lat="45.1230053197587" lon="9.990188148007325"><ele>37.875</ele><time>2026-03-29T09:07:54Z</time></trkpt><trkpt lat="45.1230600180496" lon="9.990237732316022"><ele>38.0</ele><time>2026-03-29T09:07:55Z</time></trkpt><trkpt lat="45.123114541040444" lon="9.990289514793417"><ele>38.0</ele><time>2026-03-29T09:07:56Z</time></trkpt><trkpt lat="45.12316865735369" lon="9.99033669429756"><ele>38.0</ele><time>2026-03-29T09:07:57Z</time></trkpt><trkpt lat="45.12322704551998" lon="9.990383566989548"><ele>38.0</ele><time>2026-03-29T09:07:58Z</time></trkpt><trkpt lat="45.12333462834719" lon="9.990474900992496"><ele>38.0</ele><time>2026-03-29T09:08:00Z</time></trkpt><trkpt lat="45.123438684232774" lon="9.990571420248257"><ele>38.0</ele><time>2026-03-29T09:08:02Z</time></trkpt><trkpt lat="45.12354639728481" lon="9.990666711000593"><ele>37.875</ele><time>2026-03-29T09:08:04Z</time></trkpt><trkpt lat="45.12360172950535" lon="9.990711100767278"><ele>37.75</ele><time>2026-03-29T09:08:05Z</time></trkpt><trkpt lat="45.123655633853" lon="9.990759993014922"><ele>37.625</ele><time>2026-03-29T09:08:06Z</time></trkpt><trkpt lat="45.12371066003103" lon="9.990806988450323"><ele>37.5</ele><time>2026-03-29T09:08:07Z</time></trkpt><trkpt lat="45.12376390136019" lon="9.990855484230694"><ele>37.375</ele><time>2026-03-29T09:08:08Z</time></trkpt><trkpt lat="45.123817918282796" lon="9.990902691645388"><ele>37.25</ele><time>2026-03-29T09:08:09Z</time></trkpt><trkpt lat="45.12387306003649" lon="9.990948378357984"><ele>37.125</ele><time>2026-03-29T09:08:10Z</time></trkpt><trkpt lat="45.12392808772859" lon="9.990994635393184"><ele>37.0</ele><time>2026-03-29T09:08:11Z</time></trkpt><trkpt lat="45.1239840040528" lon="9.991040487875358"><ele>37.0</ele><time>2026-03-29T09:08:12Z</time></trkpt><trkpt lat="45.12404082434861" lon="9.991085366714582"><ele>37.0</ele><time>2026-03-29T09:08:13Z</time></trkpt><trkpt lat="45.12409861106351" lon="9.9911298025464"><ele>37.0</ele><time>2026-03-29T09:08:14Z</time></trkpt><trkpt lat="45.12415415816765" lon="9.991178191582765"><ele>37.0</ele><time>2026-03-29T09:08:15Z</time></trkpt><trkpt lat="45.124212687011465" lon="9.99122885337146"><ele>37.0</ele><time>2026-03-29T09:08:16Z</time></trkpt><trkpt lat="45.124272465200505" lon="9.991278004748217"><ele>37.0</ele><time>2026-03-29T09:08:17Z</time></trkpt><trkpt lat="45.12432892842199" lon="9.991324080776147"><ele>37.0</ele><time>2026-03-29T09:08:18Z</time></trkpt><trkpt lat="45.12438700920919" lon="9.99137068213547"><ele>37.142857142857146</ele><time>2026-03-29T09:08:19Z</time></trkpt><trkpt lat="45.12444149992382" lon="9.991422184704062"><ele>37.285714285714285</ele><time>2026-03-29T09:08:20Z</time></trkpt><trkpt lat="45.124495969282236" lon="9.991477421863207"><ele>37.42857142857143</ele><time>2026-03-29T09:08:21Z</time></trkpt><trkpt lat="45.12454999893966" lon="9.991527623595335"><ele>37.57142857142857</ele><time>2026-03-29T09:08:22Z</time></trkpt><trkpt lat="45.1246073052795" lon="9.991575815328419"><ele>37.714285714285715</ele><time>2026-03-29T09:08:23Z</time></trkpt><trkpt lat="45.12466342377541" lon="9.991626057419685"><ele>37.857142857142854</ele><time>2026-03-29T09:08:24Z</time></trkpt><trkpt lat="45.12472043088398" lon="9.991676193116135"><ele>38.0</ele><time>2026-03-29T09:08:25Z</time></trkpt><trkpt lat="45.12477774554655" lon="9.991727052614515"><ele>38.0</ele><time>2026-03-29T09:08:26Z</time></trkpt><trkpt lat="45.12483622134439" lon="9.991772987350961"><ele>38.0</ele><time>2026-03-29T09:08:27Z</time></trkpt><trkpt lat="45.124898397051176" lon="9.991825912070379"><ele>38.0</ele><time>2026-03-29T09:08:28Z</time></trkpt><trkpt lat="45.124958737807376" lon="9.991874231620852"><ele>38.0</ele><time>2026-03-29T09:08:29Z</time></trkpt><trkpt lat="45.125019502726765" lon="9.991923391461242"><ele>38.0</ele><time>2026-03-29T09:08:30Z</time></trkpt><trkpt lat="45.12508020685054" lon="9.991972777119058"><ele>38.0</ele><time>2026-03-29T09:08:31Z</time></trkpt><trkpt lat="45.12514136398462" lon="9.992024009775863"><ele>38.0</ele><time>2026-03-29T09:08:32Z</time></trkpt><trkpt lat="45.12520232518074" lon="9.992072471417112"><ele>38.42857142857142</ele><time>2026-03-29T09:08:33Z</time></trkpt><trkpt lat="45.12526253837635" lon="9.992125189555095"><ele>38.85714285714286</ele><time>2026-03-29T09:08:34Z</time></trkpt><trkpt lat="45.12532137100524" lon="9.992175597708357"><ele>39.285714285714285</ele><time>2026-03-29T09:08:35Z</time></trkpt><trkpt lat="45.12538130489756" lon="9.992226034412802"><ele>39.71428571428571</ele><time>2026-03-29T09:08:36Z</time></trkpt><trkpt lat="45.125440771137725" lon="9.99227633092328"><ele>40.14285714285714</ele><time>2026-03-29T09:08:37Z</time></trkpt><trkpt lat="45.12549903679361" lon="9.99232918661792"><ele>40.57142857142857</ele><time>2026-03-29T09:08:38Z</time></trkpt><trkpt lat="45.12555761822967" lon="9.992380042687753"><ele>41.0</ele><time>2026-03-29T09:08:39Z</time></trkpt><trkpt lat="45.1256166490803" lon="9.992431470077248"><ele>40.99999999999999</ele><time>2026-03-29T09:08:40Z</time></trkpt><trkpt lat="45.12567498647404" lon="9.992480606386119"><ele>41.0</ele><time>2026-03-29T09:08:41Z</time></trkpt><trkpt lat="45.12573350241781" lon="9.992532054080467"><ele>41.0</ele><time>2026-03-29T09:08:42Z</time></trkpt><trkpt lat="45.12579094156155" lon="9.992583739744006"><ele>41.0</ele><time>2026-03-29T09:08:43Z</time></trkpt><trkpt lat="45.12585069893955" lon="9.99263486490743"><ele>41.0</ele><time>2026-03-29T09:08:44Z</time></trkpt><trkpt lat="45.12590899028924" lon="9.992684852141876"><ele>40.99999999999999</ele><time>2026-03-29T09:08:45Z</time></trkpt><trkpt lat="45.125970547272516" lon="9.992732504732372"><ele>41.0</ele><time>2026-03-29T09:08:45.999Z</time></trkpt><trkpt lat="45.12602938646828" lon="9.992780254882199"><ele>40.71428571428571</ele><time>2026-03-29T09:08:46.999Z</time></trkpt><trkpt lat="45.12608863622589" lon="9.992832499865727"><ele>40.42857142857143</ele><time>2026-03-29T09:08:47.999Z</time></trkpt><trkpt lat="45.12614716537207" lon="9.992883377038005"><ele>40.14285714285714</ele><time>2026-03-29T09:08:48.999Z</time></trkpt><trkpt lat="45.126206986406615" lon="9.99293459281241"><ele>39.857142857142854</ele><time>2026-03-29T09:08:49.999Z</time></trkpt><trkpt lat="45.1262665716882" lon="9.992981965281304"><ele>39.57142857142857</ele><time>2026-03-29T09:08:50.999Z</time></trkpt><trkpt lat="45.12632545563686" lon="9.99303330947818"><ele>39.285714285714285</ele><time>2026-03-29T09:08:51.999Z</time></trkpt><trkpt lat="45.12638604129061" lon="9.993083713600122"><ele>39.0</ele><time>2026-03-29T09:08:52.999Z</time></trkpt><trkpt lat="45.1264459691196" lon="9.993131267478487"><ele>39.0</ele><time>2026-03-29T09:08:53.999Z</time></trkpt><trkpt lat="45.1265047251008" lon="9.993182583890395"><ele>39.0</ele><time>2026-03-29T09:08:54.999Z</time></trkpt><trkpt lat="45.12656406637877" lon="9.993234610709234"><ele>39.0</ele><time>2026-03-29T09:08:55.999Z</time></trkpt><trkpt lat="45.126623840933696" lon="9.993284396583073"><ele>39.0</ele><time>2026-03-29T09:08:56.999Z</time></trkpt><trkpt lat="45.12668185436256" lon="9.993335856267866"><ele>39.0</ele><time>2026-03-29T09:08:57.999Z</time></trkpt><trkpt lat="45.12673849712988" lon="9.993391981958272"><ele>39.0</ele><time>2026-03-29T09:08:58.999Z</time></trkpt><trkpt lat="45.126796754696464" lon="9.99344740885746"><ele>39.0</ele><time>2026-03-29T09:08:59.999Z</time></trkpt><trkpt lat="45.126857199728825" lon="9.993495104740285"><ele>38.714285714285715</ele><time>2026-03-29T09:09:00.999Z</time></trkpt><trkpt lat="45.12691796385436" lon="9.993546095802127"><ele>38.42857142857142</ele><time>2026-03-29T09:09:01.999Z</time></trkpt><trkpt lat="45.12697816640821" lon="9.993600052163881"><ele>38.14285714285714</ele><time>2026-03-29T09:09:02.999Z</time></trkpt><trkpt lat="45.12703885424467" lon="9.993651249560191"><ele>37.85714285714286</ele><time>2026-03-29T09:09:03.999Z</time></trkpt><trkpt lat="45.12709926878668" lon="9.993700806282495"><ele>37.57142857142857</ele><time>2026-03-29T09:09:04.999Z</time></trkpt><trkpt lat="45.12716053604591" lon="9.993753563611842"><ele>37.285714285714285</ele><time>2026-03-29T09:09:05.999Z</time></trkpt><trkpt lat="45.12722276580592" lon="9.993805006430552"><ele>37.0</ele><time>2026-03-29T09:09:06.999Z</time></trkpt><trkpt lat="45.12728387914757" lon="9.993855797929632"><ele>37.0</ele><time>2026-03-29T09:09:07.999Z</time></trkpt><trkpt lat="45.127345725710335" lon="9.993908742661988"><ele>37.0</ele><time>2026-03-29T09:09:08.999Z</time></trkpt><trkpt lat="45.12740650300497" lon="9.993961820585504"><ele>37.0</ele><time>2026-03-29T09:09:09.999Z</time></trkpt><trkpt lat="45.12746908146107" lon="9.994014646502203"><ele>37.0</ele><time>2026-03-29T09:09:10.999Z</time></trkpt><trkpt lat="45.12753256610902" lon="9.994064230361099"><ele>37.0</ele><time>2026-03-29T09:09:11.999Z</time></trkpt><trkpt lat="45.127593615704946" lon="9.99411665104657"><ele>37.0</ele><time>2026-03-29T09:09:12.999Z</time></trkpt><trkpt lat="45.12765601401095" lon="9.994168255291118"><ele>37.0</ele><time>2026-03-29T09:09:13.999Z</time></trkpt><trkpt lat="45.12771868051401" lon="9.994223639111329"><ele>35.714285714285715</ele><time>2026-03-29T09:09:14.999Z</time></trkpt><trkpt lat="45.127778308417255" lon="9.994274956839659"><ele>34.42857142857143</ele><time>2026-03-29T09:09:15.999Z</time></trkpt><trkpt lat="45.12783823555768" lon="9.994330479377021"><ele>33.14285714285714</ele><time>2026-03-29T09:09:16.999Z</time></trkpt><trkpt lat="45.12789943290822" lon="9.994380626197117"><ele>31.857142857142858</ele><time>2026-03-29T09:09:17.999Z</time></trkpt><trkpt lat="45.12796060455489" lon="9.994431255612964"><ele>30.57142857142857</ele><time>2026-03-29T09:09:18.999Z</time></trkpt><trkpt lat="45.128021141123746" lon="9.994484690207011"><ele>29.285714285714285</ele><time>2026-03-29T09:09:19.999Z</time></trkpt><trkpt lat="45.12808236768847" lon="9.994533766272792"><ele>28.0</ele><time>2026-03-29T09:09:20.999Z</time></trkpt><trkpt lat="45.128142177887106" lon="9.994586029749733"><ele>28.0</ele><time>2026-03-29T09:09:21.999Z</time></trkpt><trkpt lat="45.12820365639681" lon="9.994637872225582"><ele>28.0</ele><time>2026-03-29T09:09:22.999Z</time></trkpt><trkpt lat="45.12826403963289" lon="9.994690743309418"><ele>28.0</ele><time>2026-03-29T09:09:23.999Z</time></trkpt><trkpt lat="45.128324157125526" lon="9.994743563136039"><ele>28.0</ele><time>2026-03-29T09:09:24.999Z</time></trkpt><trkpt lat="45.12838290678355" lon="9.994797382307453"><ele>28.0</ele><time>2026-03-29T09:09:25.999Z</time></trkpt><trkpt lat="45.128444961118554" lon="9.994850478293342"><ele>28.0</ele><time>2026-03-29T09:09:26.999Z</time></trkpt><trkpt lat="45.128506540506464" lon="9.994903824983677"><ele>28.0</ele><time>2026-03-29T09:09:27.999Z</time></trkpt><trkpt lat="45.1285688274753" lon="9.994953230545116"><ele>28.714285714285715</ele><time>2026-03-29T09:09:28.999Z</time></trkpt><trkpt lat="45.1286300943568" lon="9.995007953810177"><ele>29.42857142857143</ele><time>2026-03-29T09:09:29.999Z</time></trkpt><trkpt lat="45.128692957945454" lon="9.995060778863984"><ele>30.142857142857142</ele><time>2026-03-29T09:09:30.999Z</time></trkpt><trkpt lat="45.12875305742029" lon="9.995115818932797"><ele>30.857142857142858</ele><time>2026-03-29T09:09:31.999Z</time></trkpt><trkpt lat="45.12881596254753" lon="9.99516929980661"><ele>31.571428571428573</ele><time>2026-03-29T09:09:32.999Z</time></trkpt><trkpt lat="45.12887746192855" lon="9.99522186789733"><ele>32.285714285714285</ele><time>2026-03-29T09:09:33.999Z</time></trkpt><trkpt lat="45.12894045804932" lon="9.995274773695664"><ele>33.0</ele><time>2026-03-29T09:09:34.999Z</time></trkpt><trkpt lat="45.129003135305126" lon="9.995331971352531"><ele>33.285714285714285</ele><time>2026-03-29T09:09:35.999Z</time></trkpt><trkpt lat="45.12906443750834" lon="9.99538308982607"><ele>33.57142857142857</ele><time>2026-03-29T09:09:36.999Z</time></trkpt><trkpt lat="45.12912790709387" lon="9.995438894963604"><ele>33.85714285714286</ele><time>2026-03-29T09:09:37.999Z</time></trkpt><trkpt lat="45.129189754397856" lon="9.995489883055985"><ele>34.14285714285714</ele><time>2026-03-29T09:09:38.999Z</time></trkpt><trkpt lat="45.129250578368634" lon="9.995547211571543"><ele>34.42857142857143</ele><time>2026-03-29T09:09:39.998Z</time></trkpt><trkpt lat="45.12931151223541" lon="9.995599300127749"><ele>34.714285714285715</ele><time>2026-03-29T09:09:40.998Z</time></trkpt><trkpt lat="45.129372815238355" lon="9.995653222800517"><ele>35.0</ele><time>2026-03-29T09:09:41.998Z</time></trkpt><trkpt lat="45.12943430781119" lon="9.995702783630422"><ele>35.0</ele><time>2026-03-29T09:09:43Z</time></trkpt><trkpt lat="45.129493479703775" lon="9.99575186203929"><ele>35.0</ele><time>2026-03-29T09:09:44.001Z</time></trkpt><trkpt lat="45.12955194460047" lon="9.995797659220942"><ele>35.0</ele><time>2026-03-29T09:09:45Z</time></trkpt><trkpt lat="45.129608530207726" lon="9.995841406933058"><ele>35.0</ele><time>2026-03-29T09:09:46Z</time></trkpt><trkpt lat="45.129715927908315" lon="9.995932165424206"><ele>35.0</ele><time>2026-03-29T09:09:48Z</time></trkpt><trkpt lat="45.12981031456069" lon="9.996029150149795"><ele>35.0</ele><time>2026-03-29T09:09:50.001Z</time></trkpt><trkpt lat="45.129878922461664" lon="9.996172118977462"><ele>35.375</ele><time>2026-03-29T09:09:52Z</time></trkpt><trkpt lat="45.12991525576815" lon="9.996245583777503"><ele>35.75</ele><time>2026-03-29T09:09:53.001Z</time></trkpt><trkpt lat="45.12994879963061" lon="9.996323630349634"><ele>36.125</ele><time>2026-03-29T09:09:54Z</time></trkpt><trkpt lat="45.12997446019059" lon="9.996406598490761"><ele>36.5</ele><time>2026-03-29T09:09:55Z</time></trkpt><trkpt lat="45.129993363704166" lon="9.996494320927637"><ele>36.875</ele><time>2026-03-29T09:09:56.001Z</time></trkpt><trkpt lat="45.13000700502821" lon="9.996582016871523"><ele>37.25</ele><time>2026-03-29T09:09:57Z</time></trkpt><trkpt lat="45.13001723802252" lon="9.99667037996723"><ele>37.625</ele><time>2026-03-29T09:09:58Z</time></trkpt><trkpt lat="45.130026535142456" lon="9.99676262276644"><ele>38.0</ele><time>2026-03-29T09:09:59Z</time></trkpt><trkpt lat="45.13003933091296" lon="9.996853010670119"><ele>38.33333333333333</ele><time>2026-03-29T09:10:00Z</time></trkpt><trkpt lat="45.130047218050734" lon="9.996945476733195"><ele>38.666666666666664</ele><time>2026-03-29T09:10:01Z</time></trkpt><trkpt lat="45.13005890103612" lon="9.997041969161023"><ele>39.0</ele><time>2026-03-29T09:10:02Z</time></trkpt><trkpt lat="45.130075324231655" lon="9.997133872501934"><ele>39.333333333333336</ele><time>2026-03-29T09:10:03Z</time></trkpt><trkpt lat="45.13009612063296" lon="9.997220292780232"><ele>39.66666666666667</ele><time>2026-03-29T09:10:04Z</time></trkpt><trkpt lat="45.13011916432414" lon="9.99740153314573"><ele>40.0</ele><time>2026-03-29T09:10:06Z</time></trkpt><trkpt lat="45.13013108262655" lon="9.997494418394439"><ele>40.0</ele><time>2026-03-29T09:10:07Z</time></trkpt><trkpt lat="45.13014300243215" lon="9.997591292992045"><ele>40.0</ele><time>2026-03-29T09:10:08Z</time></trkpt><trkpt lat="45.130155673851085" lon="9.9976874892103"><ele>40.0</ele><time>2026-03-29T09:10:09Z</time></trkpt><trkpt lat="45.13016734766651" lon="9.997783815394804"><ele>40.0</ele><time>2026-03-29T09:10:10Z</time></trkpt><trkpt lat="45.13018744274197" lon="9.997973494072976"><ele>40.0</ele><time>2026-03-29T09:10:12Z</time></trkpt><trkpt lat="45.13020498625989" lon="9.998163122937576"><ele>40.0</ele><time>2026-03-29T09:10:14Z</time></trkpt><trkpt lat="45.13021980698309" lon="9.998263906220268"><ele>40.0</ele><time>2026-03-29T09:10:15Z</time></trkpt><trkpt lat="45.13022708006514" lon="9.998356775966666"><ele>40.0</ele><time>2026-03-29T09:10:16Z</time></trkpt><trkpt lat="45.13024961007277" lon="9.998526861605217"><ele>40.0</ele><time>2026-03-29T09:10:18Z</time></trkpt><trkpt lat="45.130265081882705" lon="9.998615926846101"><ele>40.0</ele><time>2026-03-29T09:10:19Z</time></trkpt><trkpt lat="45.13027603299532" lon="9.998707139517292"><ele>40.0</ele><time>2026-03-29T09:10:20Z</time></trkpt><trkpt lat="45.13029021395686" lon="9.998869950198895"><ele>40.25</ele><time>2026-03-29T09:10:22Z</time></trkpt><trkpt lat="45.1303056144916" lon="9.999036446432143"><ele>40.5</ele><time>2026-03-29T09:10:24Z</time></trkpt><trkpt lat="45.13032982675242" lon="9.999199519973141"><ele>40.75</ele><time>2026-03-29T09:10:26Z</time></trkpt><trkpt lat="45.13034897551755" lon="9.999361748322785"><ele>41.0</ele><time>2026-03-29T09:10:28Z</time></trkpt><trkpt lat="45.13037048023119" lon="9.9995349211181"><ele>40.99999999999999</ele><time>2026-03-29T09:10:30Z</time></trkpt><trkpt lat="45.13038211948722" lon="9.999629771971165"><ele>41.0</ele><time>2026-03-29T09:10:31Z</time></trkpt><trkpt lat="45.13039620493743" lon="9.999724800960195"><ele>41.0</ele><time>2026-03-29T09:10:32Z</time></trkpt><trkpt lat="45.13040635621541" lon="9.999818337302344"><ele>41.0</ele><time>2026-03-29T09:10:33Z</time></trkpt><trkpt lat="45.1304111843448" lon="9.99990849670962"><ele>41.0</ele><time>2026-03-29T09:10:34Z</time></trkpt><trkpt lat="45.13041841351358" lon="10.000000250834"><ele>40.99999999999999</ele><time>2026-03-29T09:10:35Z</time></trkpt><trkpt lat="45.13042354578105" lon="10.000090214809642"><ele>41.0</ele><time>2026-03-29T09:10:36Z</time></trkpt><trkpt lat="45.130433307126474" lon="10.00024776657019"><ele>41.0</ele><time>2026-03-29T09:10:38Z</time></trkpt><trkpt lat="45.130440848587085" lon="10.00040938089556"><ele>41.0</ele><time>2026-03-29T09:10:40Z</time></trkpt><trkpt lat="45.13043976153383" lon="10.000574900762023"><ele>41.0</ele><time>2026-03-29T09:10:42Z</time></trkpt><trkpt lat="45.130415928457765" lon="10.000727841177373"><ele>41.0</ele><time>2026-03-29T09:10:44Z</time></trkpt><trkpt lat="45.13037624299242" lon="10.000872275729114"><ele>40.75</ele><time>2026-03-29T09:10:46Z</time></trkpt><trkpt lat="45.13033473612999" lon="10.001009196365953"><ele>40.5</ele><time>2026-03-29T09:10:48Z</time></trkpt><trkpt lat="45.130279338598115" lon="10.00115800191666"><ele>40.25</ele><time>2026-03-29T09:10:50Z</time></trkpt><trkpt lat="45.13021538632357" lon="10.001277719120775"><ele>40.0</ele><time>2026-03-29T09:10:51.999Z</time></trkpt><trkpt lat="45.13007291879374" lon="10.001352313853099"><ele>40.0</ele><time>2026-03-29T09:10:53.999Z</time></trkpt><trkpt lat="45.13008840136873" lon="10.001491431509791"><ele>40.0</ele><time>2026-03-29T09:10:57.999Z</time></trkpt><trkpt lat="45.1300842076548" lon="10.00164289002867"><ele>40.0</ele><time>2026-03-29T09:10:59.999Z</time></trkpt><trkpt lat="45.130025475522395" lon="10.001778361797797"><ele>40.0</ele><time>2026-03-29T09:11:01.999Z</time></trkpt><trkpt lat="45.12994020462822" lon="10.001894317631802"><ele>40.0</ele><time>2026-03-29T09:11:03.999Z</time></trkpt><trkpt lat="45.12987468672827" lon="10.002049218118167"><ele>39.5</ele><time>2026-03-29T09:11:05.999Z</time></trkpt><trkpt lat="45.129840899577964" lon="10.002129714049017"><ele>39.0</ele><time>2026-03-29T09:11:06.999Z</time></trkpt><trkpt lat="45.12980602210349" lon="10.002210343054443"><ele>38.5</ele><time>2026-03-29T09:11:07.999Z</time></trkpt><trkpt lat="45.12977181956386" lon="10.002287863828373"><ele>38.0</ele><time>2026-03-29T09:11:08.999Z</time></trkpt><trkpt lat="45.12970602019568" lon="10.00244319650688"><ele>37.5</ele><time>2026-03-29T09:11:10.999Z</time></trkpt><trkpt lat="45.129670492148016" lon="10.002524217699603"><ele>37.0</ele><time>2026-03-29T09:11:11.999Z</time></trkpt><trkpt lat="45.12963615461824" lon="10.002608171924706"><ele>37.0</ele><time>2026-03-29T09:11:12.999Z</time></trkpt><trkpt lat="45.129600721069856" lon="10.00269528654171"><ele>37.0</ele><time>2026-03-29T09:11:13.999Z</time></trkpt><trkpt lat="45.12956306892676" lon="10.002779258749154"><ele>37.0</ele><time>2026-03-29T09:11:14.999Z</time></trkpt><trkpt lat="45.12952359217624" lon="10.0028683470446"><ele>37.0</ele><time>2026-03-29T09:11:15.999Z</time></trkpt><trkpt lat="45.129484843354184" lon="10.002951333772781"><ele>37.0</ele><time>2026-03-29T09:11:16.999Z</time></trkpt><trkpt lat="45.12944912849259" lon="10.003041771058017"><ele>37.0</ele><time>2026-03-29T09:11:17.999Z</time></trkpt><trkpt lat="45.129410402275155" lon="10.003129657124171"><ele>37.0</ele><time>2026-03-29T09:11:18.999Z</time></trkpt><trkpt lat="45.129372958613715" lon="10.00322049086232"><ele>37.0</ele><time>2026-03-29T09:11:19.999Z</time></trkpt><trkpt lat="45.12933665174063" lon="10.003297353518807"><ele>37.0</ele><time>2026-03-29T09:11:20.999Z</time></trkpt><trkpt lat="45.12930305950783" lon="10.003394941272237"><ele>37.0</ele><time>2026-03-29T09:11:21.999Z</time></trkpt><trkpt lat="45.12926749839851" lon="10.003490353166045"><ele>37.0</ele><time>2026-03-29T09:11:22.999Z</time></trkpt><trkpt lat="45.12923016426555" lon="10.003582294841507"><ele>37.0</ele><time>2026-03-29T09:11:23.999Z</time></trkpt><trkpt lat="45.12919225238913" lon="10.003672255415514"><ele>37.0</ele><time>2026-03-29T09:11:24.999Z</time></trkpt><trkpt lat="45.129156119274576" lon="10.003766272270028"><ele>37.0</ele><time>2026-03-29T09:11:25.999Z</time></trkpt><trkpt lat="45.12911876592913" lon="10.00385550103236"><ele>36.66666666666667</ele><time>2026-03-29T09:11:26.999Z</time></trkpt><trkpt lat="45.12908118585845" lon="10.00394945347972"><ele>36.333333333333336</ele><time>2026-03-29T09:11:27.999Z</time></trkpt><trkpt lat="45.12904676858279" lon="10.004042331779793"><ele>36.0</ele><time>2026-03-29T09:11:28.999Z</time></trkpt><trkpt lat="45.129009968784985" lon="10.004135871576477"><ele>35.666666666666664</ele><time>2026-03-29T09:11:29.999Z</time></trkpt><trkpt lat="45.12897309954309" lon="10.004226293126932"><ele>35.33333333333333</ele><time>2026-03-29T09:11:30.999Z</time></trkpt><trkpt lat="45.12893644002646" lon="10.00432202715709"><ele>35.0</ele><time>2026-03-29T09:11:31.999Z</time></trkpt><trkpt lat="45.12889990357654" lon="10.004415496757204"><ele>34.666666666666664</ele><time>2026-03-29T09:11:32.999Z</time></trkpt><trkpt lat="45.12886333312015" lon="10.0045132350814"><ele>34.33333333333333</ele><time>2026-03-29T09:11:33.999Z</time></trkpt><trkpt lat="45.12882955236058" lon="10.004607742401417"><ele>34.0</ele><time>2026-03-29T09:11:34.999Z</time></trkpt><trkpt lat="45.12879564398346" lon="10.004706708791325"><ele>33.666666666666664</ele><time>2026-03-29T09:11:35.999Z</time></trkpt><trkpt lat="45.128761960639174" lon="10.004802075811186"><ele>33.333333333333336</ele><time>2026-03-29T09:11:36.999Z</time></trkpt><trkpt lat="45.1287264971814" lon="10.004899894482325"><ele>33.0</ele><time>2026-03-29T09:11:37.999Z</time></trkpt><trkpt lat="45.12869300781912" lon="10.00499493725425"><ele>33.166666666666664</ele><time>2026-03-29T09:11:38.999Z</time></trkpt><trkpt lat="45.12865705571016" lon="10.005091492614808"><ele>33.333333333333336</ele><time>2026-03-29T09:11:39.999Z</time></trkpt><trkpt lat="45.128624616585576" lon="10.005188055832349"><ele>33.5</ele><time>2026-03-29T09:11:40.999Z</time></trkpt><trkpt lat="45.12859105733596" lon="10.005287121576085"><ele>33.66666666666667</ele><time>2026-03-29T09:11:41.999Z</time></trkpt><trkpt lat="45.12855933390171" lon="10.005384701196727"><ele>33.833333333333336</ele><time>2026-03-29T09:11:42.999Z</time></trkpt><trkpt lat="45.12852532729255" lon="10.005481756389381"><ele>34.0</ele><time>2026-03-29T09:11:43.999Z</time></trkpt><trkpt lat="45.128491433210485" lon="10.005572624282403"><ele>34.0</ele><time>2026-03-29T09:11:44.998Z</time></trkpt><trkpt lat="45.1284585487209" lon="10.00567134353049"><ele>34.0</ele><time>2026-03-29T09:11:45.998Z</time></trkpt><trkpt lat="45.12842645282036" lon="10.005771087069567"><ele>34.0</ele><time>2026-03-29T09:11:46.998Z</time></trkpt><trkpt lat="45.12839236288064" lon="10.00587010950653"><ele>34.0</ele><time>2026-03-29T09:11:47.998Z</time></trkpt><trkpt lat="45.12835762406137" lon="10.005967087596249"><ele>34.0</ele><time>2026-03-29T09:11:49Z</time></trkpt><trkpt lat="45.12832127204982" lon="10.006064063824692"><ele>34.0</ele><time>2026-03-29T09:11:50Z</time></trkpt><trkpt lat="45.12829400528973" lon="10.006160322914871"><ele>34.333333333333336</ele><time>2026-03-29T09:11:51Z</time></trkpt><trkpt lat="45.128261065637425" lon="10.006257622550102"><ele>34.66666666666667</ele><time>2026-03-29T09:11:52Z</time></trkpt><trkpt lat="45.1282264760431" lon="10.006353455380575"><ele>35.0</ele><time>2026-03-29T09:11:53Z</time></trkpt><trkpt lat="45.12819315362971" lon="10.00645216424061"><ele>35.333333333333336</ele><time>2026-03-29T09:11:54Z</time></trkpt><trkpt lat="45.12815875239553" lon="10.006548500233638"><ele>35.666666666666664</ele><time>2026-03-29T09:11:55Z</time></trkpt><trkpt lat="45.12812539357511" lon="10.006645621749177"><ele>36.0</ele><time>2026-03-29T09:11:56Z</time></trkpt><trkpt lat="45.12809604508193" lon="10.006745027538663"><ele>36.0</ele><time>2026-03-29T09:11:57Z</time></trkpt><trkpt lat="45.128060750131304" lon="10.006841261121831"><ele>36.0</ele><time>2026-03-29T09:11:58Z</time></trkpt><trkpt lat="45.128027473436894" lon="10.006939231978247"><ele>36.0</ele><time>2026-03-29T09:11:59Z</time></trkpt><trkpt lat="45.12799551872719" lon="10.007035056626732"><ele>36.0</ele><time>2026-03-29T09:12:00Z</time></trkpt><trkpt lat="45.12796307817701" lon="10.007128229548513"><ele>36.0</ele><time>2026-03-29T09:12:01Z</time></trkpt><trkpt lat="45.127932290888644" lon="10.007222733003394"><ele>36.0</ele><time>2026-03-29T09:12:02Z</time></trkpt><trkpt lat="45.12789823243981" lon="10.007318306587178"><ele>36.0</ele><time>2026-03-29T09:12:03Z</time></trkpt><trkpt lat="45.127866807024745" lon="10.007415569403808"><ele>36.0</ele><time>2026-03-29T09:12:04Z</time></trkpt><trkpt lat="45.127836835080586" lon="10.007507215405031"><ele>36.0</ele><time>2026-03-29T09:12:05Z</time></trkpt><trkpt lat="45.12780723928118" lon="10.007605930336394"><ele>36.0</ele><time>2026-03-29T09:12:06Z</time></trkpt><trkpt lat="45.12777346588688" lon="10.007701817862202"><ele>36.0</ele><time>2026-03-29T09:12:07Z</time></trkpt><trkpt lat="45.127740429535024" lon="10.007797739289845"><ele>36.0</ele><time>2026-03-29T09:12:08Z</time></trkpt><trkpt lat="45.127705290779176" lon="10.007896117970946"><ele>36.0</ele><time>2026-03-29T09:12:09Z</time></trkpt><trkpt lat="45.12766951969866" lon="10.007990169059486"><ele>36.0</ele><time>2026-03-29T09:12:10Z</time></trkpt><trkpt lat="45.12763589677331" lon="10.008083706835562"><ele>36.0</ele><time>2026-03-29T09:12:11Z</time></trkpt><trkpt lat="45.12760374605833" lon="10.008181128592339"><ele>36.0</ele><time>2026-03-29T09:12:12Z</time></trkpt><trkpt lat="45.127572903449796" lon="10.008280364612519"><ele>36.0</ele><time>2026-03-29T09:12:13Z</time></trkpt><trkpt lat="45.12754124573067" lon="10.008377315555741"><ele>36.0</ele><time>2026-03-29T09:12:14Z</time></trkpt><trkpt lat="45.127506166347914" lon="10.008471549714002"><ele>36.0</ele><time>2026-03-29T09:12:15Z</time></trkpt><trkpt lat="45.12747454621501" lon="10.008564498349385"><ele>36.0</ele><time>2026-03-29T09:12:16Z</time></trkpt><trkpt lat="45.127443812333205" lon="10.008653221938296"><ele>36.0</ele><time>2026-03-29T09:12:17Z</time></trkpt><trkpt lat="45.12741249837932" lon="10.008734537131868"><ele>36.0</ele><time>2026-03-29T09:12:18Z</time></trkpt><trkpt lat="45.1273836138997" lon="10.008822378536289"><ele>36.0</ele><time>2026-03-29T09:12:19Z</time></trkpt><trkpt lat="45.1273315516083" lon="10.00898127318806"><ele>36.0</ele><time>2026-03-29T09:12:21Z</time></trkpt><trkpt lat="45.12728145051593" lon="10.009129640061486"><ele>36.2</ele><time>2026-03-29T09:12:23Z</time></trkpt><trkpt lat="45.127231685366795" lon="10.009265042864987"><ele>36.400000000000006</ele><time>2026-03-29T09:12:25Z</time></trkpt><trkpt lat="45.12718428900024" lon="10.009384561740728"><ele>36.6</ele><time>2026-03-29T09:12:27Z</time></trkpt><trkpt lat="45.12715085586529" lon="10.009476648487842"><ele>36.800000000000004</ele><time>2026-03-29T09:12:29Z</time></trkpt><trkpt lat="45.126995043344635" lon="10.00946938465156"><ele>37.0</ele><time>2026-03-29T09:12:30Z</time></trkpt><trkpt lat="45.12692435197227" lon="10.009391276026859"><ele>37.0</ele><time>2026-03-29T09:12:32Z</time></trkpt><trkpt lat="45.12684378594781" lon="10.009304117431368"><ele>37.0</ele><time>2026-03-29T09:12:34Z</time></trkpt><trkpt lat="45.12676913449777" lon="10.009223355955395"><ele>37.0</ele><time>2026-03-29T09:12:36Z</time></trkpt><trkpt lat="45.12669303562957" lon="10.009141195949052"><ele>37.0</ele><time>2026-03-29T09:12:38Z</time></trkpt><trkpt lat="45.126597642057355" lon="10.009038386058876"><ele>37.0</ele><time>2026-03-29T09:12:40Z</time></trkpt><trkpt lat="45.12650179537662" lon="10.0089350883313"><ele>37.285714285714285</ele><time>2026-03-29T09:12:42Z</time></trkpt><trkpt lat="45.126449620402894" lon="10.008879882176409"><ele>37.57142857142857</ele><time>2026-03-29T09:12:43Z</time></trkpt><trkpt lat="45.12638652511734" lon="10.008813153533216"><ele>37.85714285714286</ele><time>2026-03-29T09:12:44Z</time></trkpt><trkpt lat="45.12632756702682" lon="10.008750798224007"><ele>38.14285714285714</ele><time>2026-03-29T09:12:45Z</time></trkpt><trkpt lat="45.126272680763954" lon="10.008692749340975"><ele>38.42857142857142</ele><time>2026-03-29T09:12:46Z</time></trkpt><trkpt lat="45.12622024953515" lon="10.008637296959545"><ele>38.714285714285715</ele><time>2026-03-29T09:12:47Z</time></trkpt><trkpt lat="45.12616755073763" lon="10.008581561679177"><ele>39.0</ele><time>2026-03-29T09:12:48Z</time></trkpt><trkpt lat="45.126113500442045" lon="10.008523926098906"><ele>39.0</ele><time>2026-03-29T09:12:49Z</time></trkpt><trkpt lat="45.12601860838721" lon="10.008423187181162"><ele>39.0</ele><time>2026-03-29T09:12:51Z</time></trkpt><trkpt lat="45.12592542821056" lon="10.008324959268718"><ele>39.0</ele><time>2026-03-29T09:12:52.999Z</time></trkpt><trkpt lat="45.12583802746679" lon="10.008232823932168"><ele>39.0</ele><time>2026-03-29T09:12:54.999Z</time></trkpt><trkpt lat="45.125743756727786" lon="10.008133446339267"><ele>38.2</ele><time>2026-03-29T09:12:56.999Z</time></trkpt><trkpt lat="45.125692795899155" lon="10.00807972487151"><ele>37.4</ele><time>2026-03-29T09:12:57.999Z</time></trkpt><trkpt lat="45.12564104317174" lon="10.00802527044196"><ele>36.6</ele><time>2026-03-29T09:12:58.999Z</time></trkpt><trkpt lat="45.12554186944488" lon="10.007920955022374"><ele>35.8</ele><time>2026-03-29T09:13:00.999Z</time></trkpt><trkpt lat="45.12544217174656" lon="10.007816088420412"><ele>35.0</ele><time>2026-03-29T09:13:02.999Z</time></trkpt><trkpt lat="45.12534138989786" lon="10.007710081509806"><ele>35.0</ele><time>2026-03-29T09:13:04.999Z</time></trkpt><trkpt lat="45.12528497163197" lon="10.007650738244322"><ele>35.0</ele><time>2026-03-29T09:13:05.999Z</time></trkpt><trkpt lat="45.12518456574292" lon="10.007545353976761"><ele>35.0</ele><time>2026-03-29T09:13:07.999Z</time></trkpt><trkpt lat="45.12508529007636" lon="10.00744168211661"><ele>35.0</ele><time>2026-03-29T09:13:09.999Z</time></trkpt><trkpt lat="45.12499917515546" lon="10.00735178563777"><ele>35.0</ele><time>2026-03-29T09:13:11.999Z</time></trkpt><trkpt lat="45.124980723795154" lon="10.007140185209995"><ele>34.666666666666664</ele><time>2026-03-29T09:13:13.999Z</time></trkpt><trkpt lat="45.124915499774396" lon="10.007055775938763"><ele>34.33333333333333</ele><time>2026-03-29T09:13:15.999Z</time></trkpt><trkpt lat="45.12483478177485" lon="10.006971524124385"><ele>34.0</ele><time>2026-03-29T09:13:17.999Z</time></trkpt><trkpt lat="45.124765271017615" lon="10.006895180861108"><ele>33.666666666666664</ele><time>2026-03-29T09:13:19.999Z</time></trkpt><trkpt lat="45.1246845940543" lon="10.006877870987816"><ele>33.333333333333336</ele><time>2026-03-29T09:13:21.999Z</time></trkpt><trkpt lat="45.12462177287713" lon="10.006927615810593"><ele>33.0</ele><time>2026-03-29T09:13:23.999Z</time></trkpt><trkpt lat="45.12457920124095" lon="10.006999555124866"><ele>33.8</ele><time>2026-03-29T09:13:25.999Z</time></trkpt><trkpt lat="45.1245381174583" lon="10.007109132946306"><ele>34.599999999999994</ele><time>2026-03-29T09:13:27.999Z</time></trkpt><trkpt lat="45.12448835697253" lon="10.00723924921858"><ele>35.400000000000006</ele><time>2026-03-29T09:13:29.999Z</time></trkpt><trkpt lat="45.12444422165439" lon="10.007379143075577"><ele>36.2</ele><time>2026-03-29T09:13:31.999Z</time></trkpt><trkpt lat="45.124401834738926" lon="10.007527129507402"><ele>37.0</ele><time>2026-03-29T09:13:33.999Z</time></trkpt><trkpt lat="45.12436086012554" lon="10.007673065712046"><ele>37.0</ele><time>2026-03-29T09:13:35.999Z</time></trkpt><trkpt lat="45.12433748208657" lon="10.007761201164099"><ele>37.0</ele><time>2026-03-29T09:13:36.999Z</time></trkpt><trkpt lat="45.124283020197055" lon="10.007914318787028"><ele>37.0</ele><time>2026-03-29T09:13:38.999Z</time></trkpt><trkpt lat="45.12423518337585" lon="10.008061976197466"><ele>37.0</ele><time>2026-03-29T09:13:40.999Z</time></trkpt><trkpt lat="45.124193042927736" lon="10.008205651149508"><ele>37.0</ele><time>2026-03-29T09:13:42.999Z</time></trkpt><trkpt lat="45.12413866623711" lon="10.008358342607671"><ele>36.66666666666667</ele><time>2026-03-29T09:13:44.999Z</time></trkpt><trkpt lat="45.1240864416442" lon="10.008508508369575"><ele>36.333333333333336</ele><time>2026-03-29T09:13:46.998Z</time></trkpt><trkpt lat="45.124032797134504" lon="10.008670222830869"><ele>36.0</ele><time>2026-03-29T09:13:48.998Z</time></trkpt><trkpt lat="45.12400195583322" lon="10.008752507832513"><ele>35.666666666666664</ele><time>2026-03-29T09:13:49.998Z</time></trkpt><trkpt lat="45.123975495250235" lon="10.008836815097126"><ele>35.33333333333333</ele><time>2026-03-29T09:13:50.998Z</time></trkpt><trkpt lat="45.123947970108674" lon="10.008921331619444"><ele>35.0</ele><time>2026-03-29T09:13:51.998Z</time></trkpt><trkpt lat="45.123897310723464" lon="10.00909370687565"><ele>35.0</ele><time>2026-03-29T09:13:53.998Z</time></trkpt><trkpt lat="45.12387269482477" lon="10.009177306114726"><ele>35.0</ele><time>2026-03-29T09:13:55Z</time></trkpt><trkpt lat="45.12384550256606" lon="10.009267970811655"><ele>35.0</ele><time>2026-03-29T09:13:56Z</time></trkpt><trkpt lat="45.1238183176217" lon="10.009352721318097"><ele>35.0</ele><time>2026-03-29T09:13:57Z</time></trkpt><trkpt lat="45.123787929059326" lon="10.009435471658382"><ele>35.0</ele><time>2026-03-29T09:13:58Z</time></trkpt><trkpt lat="45.1237551673951" lon="10.009517825056626"><ele>35.0</ele><time>2026-03-29T09:13:59Z</time></trkpt><trkpt lat="45.123722872022014" lon="10.009600529823707"><ele>35.0</ele><time>2026-03-29T09:14:00Z</time></trkpt><trkpt lat="45.123691572588505" lon="10.009684810454546"><ele>35.0</ele><time>2026-03-29T09:14:01Z</time></trkpt><trkpt lat="45.123662101175746" lon="10.00976939826943"><ele>35.0</ele><time>2026-03-29T09:14:02Z</time></trkpt><trkpt lat="45.123636391306455" lon="10.009854596161386"><ele>35.0</ele><time>2026-03-29T09:14:03Z</time></trkpt><trkpt lat="45.12361044469896" lon="10.009939755196388"><ele>35.0</ele><time>2026-03-29T09:14:04Z</time></trkpt><trkpt lat="45.123582817888526" lon="10.010023486089347"><ele>35.0</ele><time>2026-03-29T09:14:05Z</time></trkpt><trkpt lat="45.12355312585106" lon="10.010108002189341"><ele>35.0</ele><time>2026-03-29T09:14:06Z</time></trkpt><trkpt lat="45.1235234302906" lon="10.0101945325287"><ele>35.0</ele><time>2026-03-29T09:14:07Z</time></trkpt><trkpt lat="45.123493698533665" lon="10.010281474372578"><ele>34.857142857142854</ele><time>2026-03-29T09:14:08Z</time></trkpt><trkpt lat="45.12346605653095" lon="10.010369436497866"><ele>34.714285714285715</ele><time>2026-03-29T09:14:09Z</time></trkpt><trkpt lat="45.12343732770427" lon="10.010456995860475"><ele>34.57142857142857</ele><time>2026-03-29T09:14:10Z</time></trkpt><trkpt lat="45.1234071613863" lon="10.010549328751539"><ele>34.42857142857143</ele><time>2026-03-29T09:14:11Z</time></trkpt><trkpt lat="45.123375823403116" lon="10.010641980227373"><ele>34.285714285714285</ele><time>2026-03-29T09:14:12Z</time></trkpt><trkpt lat="45.12334584934685" lon="10.010730929655708"><ele>34.14285714285714</ele><time>2026-03-29T09:14:13Z</time></trkpt><trkpt lat="45.12331622230024" lon="10.010816686528106"><ele>34.0</ele><time>2026-03-29T09:14:14Z</time></trkpt><trkpt lat="45.12328645688387" lon="10.010907401897628"><ele>33.99999999999999</ele><time>2026-03-29T09:14:15Z</time></trkpt><trkpt lat="45.12325706808533" lon="10.010997367555852"><ele>34.0</ele><time>2026-03-29T09:14:16Z</time></trkpt><trkpt lat="45.12322767077228" lon="10.011089421249416"><ele>34.0</ele><time>2026-03-29T09:14:17Z</time></trkpt><trkpt lat="45.12319901935753" lon="10.011184008099262"><ele>34.0</ele><time>2026-03-29T09:14:18Z</time></trkpt><trkpt lat="45.123167100131866" lon="10.011278875095698"><ele>34.0</ele><time>2026-03-29T09:14:19Z</time></trkpt><trkpt lat="45.12313311678905" lon="10.011368864869642"><ele>33.99999999999999</ele><time>2026-03-29T09:14:20Z</time></trkpt><trkpt lat="45.12310208760721" lon="10.011458870870486"><ele>34.0</ele><time>2026-03-29T09:14:21Z</time></trkpt><trkpt lat="45.1230724664324" lon="10.011553190753228"><ele>33.99999999999999</ele><time>2026-03-29T09:14:22Z</time></trkpt><trkpt lat="45.12304145547521" lon="10.011644792901988"><ele>34.0</ele><time>2026-03-29T09:14:23Z</time></trkpt><trkpt lat="45.123010404962976" lon="10.01173718083637"><ele>34.0</ele><time>2026-03-29T09:14:24Z</time></trkpt><trkpt lat="45.12297996942809" lon="10.0118327869509"><ele>34.0</ele><time>2026-03-29T09:14:25Z</time></trkpt><trkpt lat="45.12294731720102" lon="10.01192932590866"><ele>34.0</ele><time>2026-03-29T09:14:26Z</time></trkpt><trkpt lat="45.12291349089889" lon="10.012023929220101"><ele>33.99999999999999</ele><time>2026-03-29T09:14:27Z</time></trkpt><trkpt lat="45.12288067305003" lon="10.01211795732548"><ele>34.0</ele><time>2026-03-29T09:14:28Z</time></trkpt><trkpt lat="45.122847478592305" lon="10.012212565758347"><ele>33.99999999999999</ele><time>2026-03-29T09:14:29Z</time></trkpt><trkpt lat="45.122816336931194" lon="10.012307413442146"><ele>34.0</ele><time>2026-03-29T09:14:30Z</time></trkpt><trkpt lat="45.122785440174134" lon="10.012399478133997"><ele>34.0</ele><time>2026-03-29T09:14:31Z</time></trkpt><trkpt lat="45.12275348352986" lon="10.012490510646494"><ele>34.0</ele><time>2026-03-29T09:14:32Z</time></trkpt><trkpt lat="45.12271911492005" lon="10.012579496400589"><ele>34.0</ele><time>2026-03-29T09:14:33Z</time></trkpt><trkpt lat="45.122681715587646" lon="10.012670671873973"><ele>33.99999999999999</ele><time>2026-03-29T09:14:34Z</time></trkpt><trkpt lat="45.122642585093104" lon="10.012758971876188"><ele>34.0</ele><time>2026-03-29T09:14:35Z</time></trkpt><trkpt lat="45.12260342521528" lon="10.01284594811187"><ele>33.71428571428571</ele><time>2026-03-29T09:14:36Z</time></trkpt><trkpt lat="45.12256695293905" lon="10.012933776312133"><ele>33.42857142857143</ele><time>2026-03-29T09:14:37Z</time></trkpt><trkpt lat="45.12252796613379" lon="10.013021525511823"><ele>33.14285714285714</ele><time>2026-03-29T09:14:38Z</time></trkpt><trkpt lat="45.12248620674872" lon="10.013108961441704"><ele>32.857142857142854</ele><time>2026-03-29T09:14:39Z</time></trkpt><trkpt lat="45.12243841622004" lon="10.013187815837195"><ele>32.57142857142857</ele><time>2026-03-29T09:14:40Z</time></trkpt><trkpt lat="45.122389826936214" lon="10.013270200968579"><ele>32.285714285714285</ele><time>2026-03-29T09:14:41Z</time></trkpt><trkpt lat="45.12234167840576" lon="10.013350789436249"><ele>32.0</ele><time>2026-03-29T09:14:42Z</time></trkpt><trkpt lat="45.12229367816769" lon="10.013432688410795"><ele>32.0</ele><time>2026-03-29T09:14:43Z</time></trkpt><trkpt lat="45.12224597217756" lon="10.013512219167634"><ele>31.999999999999996</ele><time>2026-03-29T09:14:44Z</time></trkpt><trkpt lat="45.12219822460901" lon="10.013590833245825"><ele>32.0</ele><time>2026-03-29T09:14:45Z</time></trkpt><trkpt lat="45.12214995870625" lon="10.0136675702412"><ele>32.0</ele><time>2026-03-29T09:14:46Z</time></trkpt><trkpt lat="45.12209978491304" lon="10.013744166222374"><ele>31.999999999999996</ele><time>2026-03-29T09:14:47Z</time></trkpt><trkpt lat="45.12205154051582" lon="10.013823305569504"><ele>32.0</ele><time>2026-03-29T09:14:48Z</time></trkpt><trkpt lat="45.122004575097705" lon="10.01390320511627"><ele>32.0</ele><time>2026-03-29T09:14:49Z</time></trkpt><trkpt lat="45.12195555252851" lon="10.013983407662389"><ele>31.999999999999996</ele><time>2026-03-29T09:14:50Z</time></trkpt><trkpt lat="45.12190638572293" lon="10.014059829754915"><ele>32.0</ele><time>2026-03-29T09:14:51Z</time></trkpt><trkpt lat="45.12185873368449" lon="10.014141648917184"><ele>32.0</ele><time>2026-03-29T09:14:52Z</time></trkpt><trkpt lat="45.12181130763262" lon="10.014222519220397"><ele>32.0</ele><time>2026-03-29T09:14:53Z</time></trkpt><trkpt lat="45.12176312152274" lon="10.014305933253429"><ele>31.999999999999996</ele><time>2026-03-29T09:14:54Z</time></trkpt><trkpt lat="45.12171531714877" lon="10.01438907041498"><ele>32.0</ele><time>2026-03-29T09:14:55Z</time></trkpt><trkpt lat="45.12165245599505" lon="10.014455717697398"><ele>32.285714285714285</ele><time>2026-03-29T09:14:56Z</time></trkpt><trkpt lat="45.121603297720085" lon="10.014535423079575"><ele>32.57142857142857</ele><time>2026-03-29T09:14:57Z</time></trkpt><trkpt lat="45.121554498244095" lon="10.014614546945458"><ele>32.857142857142854</ele><time>2026-03-29T09:14:57.999Z</time></trkpt><trkpt lat="45.12150670934744" lon="10.014693028216142"><ele>33.14285714285714</ele><time>2026-03-29T09:14:58.999Z</time></trkpt><trkpt lat="45.121471764587135" lon="10.014785483668234"><ele>33.42857142857143</ele><time>2026-03-29T09:14:59.999Z</time></trkpt><trkpt lat="45.12142334789939" lon="10.014857771023676"><ele>33.71428571428571</ele><time>2026-03-29T09:15:00.999Z</time></trkpt><trkpt lat="45.12137798056932" lon="10.01492731495596"><ele>34.0</ele><time>2026-03-29T09:15:01.999Z</time></trkpt><trkpt lat="45.1213353876685" lon="10.014996301004508"><ele>34.333333333333336</ele><time>2026-03-29T09:15:02.999Z</time></trkpt><trkpt lat="45.121255398880464" lon="10.01512760465462"><ele>34.66666666666667</ele><time>2026-03-29T09:15:04.999Z</time></trkpt><trkpt lat="45.12118149108928" lon="10.015261817916686"><ele>35.0</ele><time>2026-03-29T09:15:06.999Z</time></trkpt><trkpt lat="45.12114051237715" lon="10.015332888717435"><ele>35.333333333333336</ele><time>2026-03-29T09:15:07.999Z</time></trkpt><trkpt lat="45.12110275048437" lon="10.015408169703175"><ele>35.666666666666664</ele><time>2026-03-29T09:15:08.999Z</time></trkpt><trkpt lat="45.12106729335666" lon="10.015485843748504"><ele>36.0</ele><time>2026-03-29T09:15:09.999Z</time></trkpt><trkpt lat="45.12102070297148" lon="10.015549624442833"><ele>36.00000000000001</ele><time>2026-03-29T09:15:10.999Z</time></trkpt><trkpt lat="45.120979263722205" lon="10.015625547093983"><ele>36.0</ele><time>2026-03-29T09:15:11.999Z</time></trkpt><trkpt lat="45.12094113989349" lon="10.015710703081462"><ele>36.0</ele><time>2026-03-29T09:15:12.999Z</time></trkpt><trkpt lat="45.120891851037804" lon="10.015783621751114"><ele>36.0</ele><time>2026-03-29T09:15:13.999Z</time></trkpt><trkpt lat="45.12084701599877" lon="10.015862775937208"><ele>36.0</ele><time>2026-03-29T09:15:14.999Z</time></trkpt><trkpt lat="45.12080515745848" lon="10.015947377774781"><ele>36.00000000000001</ele><time>2026-03-29T09:15:15.999Z</time></trkpt><trkpt lat="45.120762498192576" lon="10.016029193798811"><ele>36.0</ele><time>2026-03-29T09:15:16.999Z</time></trkpt><trkpt lat="45.12071933425515" lon="10.016111146722066"><ele>35.714285714285715</ele><time>2026-03-29T09:15:17.999Z</time></trkpt><trkpt lat="45.12067649206679" lon="10.016197941700966"><ele>35.42857142857143</ele><time>2026-03-29T09:15:18.999Z</time></trkpt><trkpt lat="45.12063527295324" lon="10.016282221214103"><ele>35.14285714285714</ele><time>2026-03-29T09:15:19.999Z</time></trkpt><trkpt lat="45.120595376165184" lon="10.01637053145937"><ele>34.85714285714286</ele><time>2026-03-29T09:15:20.999Z</time></trkpt><trkpt lat="45.12055868386942" lon="10.016461005729916"><ele>34.57142857142857</ele><time>2026-03-29T09:15:21.999Z</time></trkpt><trkpt lat="45.12052222035948" lon="10.016551892545321"><ele>34.285714285714285</ele><time>2026-03-29T09:15:22.999Z</time></trkpt><trkpt lat="45.120471449777334" lon="10.016626920319617"><ele>34.0</ele><time>2026-03-29T09:15:23.999Z</time></trkpt><trkpt lat="45.120432790478574" lon="10.016714820299674"><ele>33.99999999999999</ele><time>2026-03-29T09:15:24.999Z</time></trkpt><trkpt lat="45.120394456161755" lon="10.016801981431877"><ele>34.0</ele><time>2026-03-29T09:15:25.999Z</time></trkpt><trkpt lat="45.12035633205051" lon="10.016890076719854"><ele>34.0</ele><time>2026-03-29T09:15:26.999Z</time></trkpt><trkpt lat="45.120327927723196" lon="10.01698227501605"><ele>34.0</ele><time>2026-03-29T09:15:27.999Z</time></trkpt><trkpt lat="45.12028631155184" lon="10.017063886251131"><ele>34.0</ele><time>2026-03-29T09:15:28.999Z</time></trkpt><trkpt lat="45.12024986355858" lon="10.01715082420588"><ele>33.99999999999999</ele><time>2026-03-29T09:15:29.999Z</time></trkpt><trkpt lat="45.12021208899653" lon="10.017238416818731"><ele>34.0</ele><time>2026-03-29T09:15:30.999Z</time></trkpt><trkpt lat="45.120174116424415" lon="10.017325860112294"><ele>33.99999999999999</ele><time>2026-03-29T09:15:31.999Z</time></trkpt><trkpt lat="45.12013943288089" lon="10.017414233526992"><ele>34.0</ele><time>2026-03-29T09:15:32.999Z</time></trkpt><trkpt lat="45.12010156815324" lon="10.017504080589992"><ele>34.0</ele><time>2026-03-29T09:15:33.999Z</time></trkpt><trkpt lat="45.120065518334314" lon="10.017592294368093"><ele>34.0</ele><time>2026-03-29T09:15:34.999Z</time></trkpt><trkpt lat="45.120028951749035" lon="10.01768186628678"><ele>34.0</ele><time>2026-03-29T09:15:35.999Z</time></trkpt><trkpt lat="45.11999167098752" lon="10.017771872112968"><ele>33.99999999999999</ele><time>2026-03-29T09:15:36.999Z</time></trkpt><trkpt lat="45.11995301590533" lon="10.017863144909226"><ele>34.0</ele><time>2026-03-29T09:15:37.999Z</time></trkpt><trkpt lat="45.11991468867376" lon="10.01795032591188"><ele>33.99999999999999</ele><time>2026-03-29T09:15:38.999Z</time></trkpt><trkpt lat="45.119874643291624" lon="10.018039724071004"><ele>34.0</ele><time>2026-03-29T09:15:39.999Z</time></trkpt><trkpt lat="45.11983868474599" lon="10.018126959578188"><ele>34.0</ele><time>2026-03-29T09:15:40.999Z</time></trkpt><trkpt lat="45.11980155566526" lon="10.018216155501944"><ele>34.0</ele><time>2026-03-29T09:15:41.999Z</time></trkpt><trkpt lat="45.11976311507305" lon="10.018308764463148"><ele>34.0</ele><time>2026-03-29T09:15:42.999Z</time></trkpt><trkpt lat="45.11972323581536" lon="10.018399096731388"><ele>33.99999999999999</ele><time>2026-03-29T09:15:43.999Z</time></trkpt><trkpt lat="45.119684275383854" lon="10.018489622369136"><ele>34.0</ele><time>2026-03-29T09:15:44.999Z</time></trkpt><trkpt lat="45.119646482496236" lon="10.018578844983187"><ele>33.857142857142854</ele><time>2026-03-29T09:15:45.999Z</time></trkpt><trkpt lat="45.11960860155187" lon="10.018670387804045"><ele>33.714285714285715</ele><time>2026-03-29T09:15:46.999Z</time></trkpt><trkpt lat="45.11957123638238" lon="10.018761754022657"><ele>33.57142857142857</ele><time>2026-03-29T09:15:47.999Z</time></trkpt><trkpt lat="45.1195336801518" lon="10.018851418699303"><ele>33.42857142857143</ele><time>2026-03-29T09:15:48.999Z</time></trkpt><trkpt lat="45.11949534538568" lon="10.018942875525495"><ele>33.285714285714285</ele><time>2026-03-29T09:15:49.999Z</time></trkpt><trkpt lat="45.11945720444598" lon="10.019032611000386"><ele>33.14285714285714</ele><time>2026-03-29T09:15:50.999Z</time></trkpt><trkpt lat="45.11941861788895" lon="10.019122490870721"><ele>33.0</ele><time>2026-03-29T09:15:51.998Z</time></trkpt><trkpt lat="45.11938016052018" lon="10.019209689092978"><ele>33.0</ele><time>2026-03-29T09:15:52.998Z</time></trkpt><trkpt lat="45.119337617296026" lon="10.019299175751327"><ele>33.0</ele><time>2026-03-29T09:15:53.998Z</time></trkpt><trkpt lat="45.119296546750235" lon="10.019387675998974"><ele>33.0</ele><time>2026-03-29T09:15:54.998Z</time></trkpt><trkpt lat="45.11925544801691" lon="10.019477041372754"><ele>33.0</ele><time>2026-03-29T09:15:55.998Z</time></trkpt><trkpt lat="45.11921012653485" lon="10.019562089609321"><ele>33.0</ele><time>2026-03-29T09:15:56.998Z</time></trkpt><trkpt lat="45.11916206969888" lon="10.01964430981355"><ele>33.0</ele><time>2026-03-29T09:15:57.998Z</time></trkpt><trkpt lat="45.11911065253971" lon="10.019722878701758"><ele>33.0</ele><time>2026-03-29T09:15:58.998Z</time></trkpt><trkpt lat="45.11905961655778" lon="10.019803304352346"><ele>33.0</ele><time>2026-03-29T09:15:59.998Z</time></trkpt><trkpt lat="45.11900840558864" lon="10.01988131653653"><ele>33.0</ele><time>2026-03-29T09:16:01Z</time></trkpt><trkpt lat="45.11895720823947" lon="10.019958711494255"><ele>33.0</ele><time>2026-03-29T09:16:02Z</time></trkpt><trkpt lat="45.11890498358339" lon="10.02003558176598"><ele>33.0</ele><time>2026-03-29T09:16:03Z</time></trkpt><trkpt lat="45.118853042310036" lon="10.020113769383162"><ele>33.0</ele><time>2026-03-29T09:16:04Z</time></trkpt><trkpt lat="45.118799989523716" lon="10.020191389142703"><ele>33.0</ele><time>2026-03-29T09:16:05Z</time></trkpt><trkpt lat="45.118748339483325" lon="10.020267101381366"><ele>33.0</ele><time>2026-03-29T09:16:06Z</time></trkpt><trkpt lat="45.11869518278798" lon="10.020344519471536"><ele>33.0</ele><time>2026-03-29T09:16:07Z</time></trkpt><trkpt lat="45.11864379369221" lon="10.020423290977037"><ele>33.0</ele><time>2026-03-29T09:16:08Z</time></trkpt><trkpt lat="45.11859012157339" lon="10.020503551382058"><ele>33.0</ele><time>2026-03-29T09:16:09Z</time></trkpt><trkpt lat="45.11853717294076" lon="10.02058037124392"><ele>33.0</ele><time>2026-03-29T09:16:10Z</time></trkpt><trkpt lat="45.11848448279282" lon="10.020658372502396"><ele>33.0</ele><time>2026-03-29T09:16:11Z</time></trkpt><trkpt lat="45.11843076370345" lon="10.02073547381349"><ele>33.0</ele><time>2026-03-29T09:16:12Z</time></trkpt><trkpt lat="45.11837708160951" lon="10.020812419279107"><ele>33.0</ele><time>2026-03-29T09:16:13Z</time></trkpt><trkpt lat="45.11832179462962" lon="10.020885839363713"><ele>33.0</ele><time>2026-03-29T09:16:14Z</time></trkpt><trkpt lat="45.11826695946116" lon="10.020960790197849"><ele>33.0</ele><time>2026-03-29T09:16:15Z</time></trkpt><trkpt lat="45.118213522626604" lon="10.02103625364797"><ele>33.0</ele><time>2026-03-29T09:16:16Z</time></trkpt><trkpt lat="45.11815747159304" lon="10.02110837689974"><ele>32.833333333333336</ele><time>2026-03-29T09:16:17Z</time></trkpt><trkpt lat="45.118100165589" lon="10.021179510944606"><ele>32.666666666666664</ele><time>2026-03-29T09:16:18Z</time></trkpt><trkpt lat="45.11804080894284" lon="10.021250172530097"><ele>32.5</ele><time>2026-03-29T09:16:19Z</time></trkpt><trkpt lat="45.117982171301435" lon="10.02131959043145"><ele>32.33333333333333</ele><time>2026-03-29T09:16:20Z</time></trkpt><trkpt lat="45.11792482312262" lon="10.021390305127934"><ele>32.166666666666664</ele><time>2026-03-29T09:16:21Z</time></trkpt><trkpt lat="45.11786773572913" lon="10.021462436728456"><ele>32.0</ele><time>2026-03-29T09:16:22Z</time></trkpt><trkpt lat="45.11780970293907" lon="10.021531235411397"><ele>31.999999999999996</ele><time>2026-03-29T09:16:23Z</time></trkpt><trkpt lat="45.11774955315368" lon="10.021600487852877"><ele>32.0</ele><time>2026-03-29T09:16:24Z</time></trkpt><trkpt lat="45.117689391514425" lon="10.021671244597913"><ele>32.0</ele><time>2026-03-29T09:16:25Z</time></trkpt><trkpt lat="45.11763042177466" lon="10.02174415931172"><ele>32.0</ele><time>2026-03-29T09:16:26Z</time></trkpt><trkpt lat="45.11756940399192" lon="10.02181606707703"><ele>31.999999999999996</ele><time>2026-03-29T09:16:27Z</time></trkpt><trkpt lat="45.11750909960331" lon="10.021886343056744"><ele>32.0</ele><time>2026-03-29T09:16:28Z</time></trkpt><trkpt lat="45.1174473396948" lon="10.021955989293488"><ele>31.999999999999996</ele><time>2026-03-29T09:16:29Z</time></trkpt><trkpt lat="45.11738491679559" lon="10.022022639581287"><ele>32.0</ele><time>2026-03-29T09:16:30Z</time></trkpt><trkpt lat="45.117324983613436" lon="10.022090130067566"><ele>32.0</ele><time>2026-03-29T09:16:31Z</time></trkpt><trkpt lat="45.11726502281319" lon="10.022158940310266"><ele>32.0</ele><time>2026-03-29T09:16:32Z</time></trkpt><trkpt lat="45.11720600694866" lon="10.022230457649481"><ele>31.999999999999996</ele><time>2026-03-29T09:16:33Z</time></trkpt><trkpt lat="45.117147237208044" lon="10.022300258849766"><ele>32.0</ele><time>2026-03-29T09:16:34Z</time></trkpt><trkpt lat="45.11708893950623" lon="10.022372120556426"><ele>32.0</ele><time>2026-03-29T09:16:35Z</time></trkpt><trkpt lat="45.1170297220298" lon="10.02244328308165"><ele>31.999999999999996</ele><time>2026-03-29T09:16:36Z</time></trkpt><trkpt lat="45.1169719747557" lon="10.022517528248581"><ele>32.0</ele><time>2026-03-29T09:16:37Z</time></trkpt><trkpt lat="45.116916477438025" lon="10.02258921685271"><ele>32.0</ele><time>2026-03-29T09:16:38Z</time></trkpt><trkpt lat="45.116859588257" lon="10.022661213924463"><ele>31.999999999999996</ele><time>2026-03-29T09:16:39Z</time></trkpt><trkpt lat="45.11681060633302" lon="10.022733600620022"><ele>32.0</ele><time>2026-03-29T09:16:40Z</time></trkpt><trkpt lat="45.1167658145262" lon="10.022812720935006"><ele>32.0</ele><time>2026-03-29T09:16:41Z</time></trkpt><trkpt lat="45.11672209956434" lon="10.022896953400188"><ele>31.999999999999996</ele><time>2026-03-29T09:16:42Z</time></trkpt><trkpt lat="45.116675961531264" lon="10.022982268627649"><ele>32.0</ele><time>2026-03-29T09:16:43Z</time></trkpt><trkpt lat="45.11663118809637" lon="10.023068969013714"><ele>32.0</ele><time>2026-03-29T09:16:44Z</time></trkpt><trkpt lat="45.11658652196778" lon="10.023153954033598"><ele>32.0</ele><time>2026-03-29T09:16:45Z</time></trkpt><trkpt lat="45.11654007121668" lon="10.0232371504386"><ele>31.999999999999996</ele><time>2026-03-29T09:16:46Z</time></trkpt><trkpt lat="45.11649387147589" lon="10.023324875842896"><ele>32.0</ele><time>2026-03-29T09:16:47Z</time></trkpt><trkpt lat="45.11644887759438" lon="10.023414378400057"><ele>31.999999999999996</ele><time>2026-03-29T09:16:48Z</time></trkpt><trkpt lat="45.11640641026409" lon="10.023504648360188"><ele>32.0</ele><time>2026-03-29T09:16:49Z</time></trkpt><trkpt lat="45.116366534255825" lon="10.023596033655247"><ele>32.0</ele><time>2026-03-29T09:16:50Z</time></trkpt><trkpt lat="45.11632952002678" lon="10.023690110848722"><ele>32.0</ele><time>2026-03-29T09:16:51Z</time></trkpt><trkpt lat="45.11629426218077" lon="10.023788255995779"><ele>31.999999999999996</ele><time>2026-03-29T09:16:52Z</time></trkpt><trkpt lat="45.11625624819972" lon="10.023881857001022"><ele>32.0</ele><time>2026-03-29T09:16:53Z</time></trkpt><trkpt lat="45.11622059190952" lon="10.023975090795496"><ele>31.999999999999996</ele><time>2026-03-29T09:16:54Z</time></trkpt><trkpt lat="45.11618498336951" lon="10.024071844077325"><ele>32.0</ele><time>2026-03-29T09:16:55Z</time></trkpt><trkpt lat="45.11615074885616" lon="10.024168459973685"><ele>32.0</ele><time>2026-03-29T09:16:56Z</time></trkpt><trkpt lat="45.11611438736409" lon="10.024260550792992"><ele>32.0</ele><time>2026-03-29T09:16:57Z</time></trkpt><trkpt lat="45.116077486586526" lon="10.024354623709353"><ele>31.999999999999996</ele><time>2026-03-29T09:16:58Z</time></trkpt><trkpt lat="45.116041080413204" lon="10.02445326285038"><ele>32.0</ele><time>2026-03-29T09:16:59Z</time></trkpt><trkpt lat="45.11600569177989" lon="10.024548949299227"><ele>31.999999999999996</ele><time>2026-03-29T09:17:00Z</time></trkpt><trkpt lat="45.11596978690165" lon="10.02464619827861"><ele>32.0</ele><time>2026-03-29T09:17:00.999Z</time></trkpt><trkpt lat="45.115930839242" lon="10.024739982391607"><ele>32.0</ele><time>2026-03-29T09:17:01.999Z</time></trkpt><trkpt lat="45.1158916247925" lon="10.024832688475799"><ele>32.0</ele><time>2026-03-29T09:17:02.999Z</time></trkpt><trkpt lat="45.11584643749113" lon="10.024921125407552"><ele>31.999999999999996</ele><time>2026-03-29T09:17:03.999Z</time></trkpt><trkpt lat="45.11579348015871" lon="10.025003209852406"><ele>32.0</ele><time>2026-03-29T09:17:04.999Z</time></trkpt><trkpt lat="45.11572928442017" lon="10.025072877786517"><ele>31.833333333333332</ele><time>2026-03-29T09:17:05.999Z</time></trkpt><trkpt lat="45.11565723718135" lon="10.025120402713044"><ele>31.666666666666664</ele><time>2026-03-29T09:17:06.999Z</time></trkpt><trkpt lat="45.115579622181194" lon="10.025155573156644"><ele>31.5</ele><time>2026-03-29T09:17:07.999Z</time></trkpt><trkpt lat="45.115501892012624" lon="10.025185136802712"><ele>31.333333333333336</ele><time>2026-03-29T09:17:08.999Z</time></trkpt><trkpt lat="45.11542737781365" lon="10.025220522048958"><ele>31.166666666666668</ele><time>2026-03-29T09:17:09.999Z</time></trkpt><trkpt lat="45.115349993920624" lon="10.025250569049831"><ele>31.0</ele><time>2026-03-29T09:17:10.999Z</time></trkpt><trkpt lat="45.11527402861585" lon="10.025281390594959"><ele>31.000000000000004</ele><time>2026-03-29T09:17:11.999Z</time></trkpt><trkpt lat="45.11519818442284" lon="10.025312539114562"><ele>31.0</ele><time>2026-03-29T09:17:12.999Z</time></trkpt><trkpt lat="45.11512185537507" lon="10.02534694854712"><ele>31.0</ele><time>2026-03-29T09:17:13.999Z</time></trkpt><trkpt lat="45.11504677905943" lon="10.025377952909107"><ele>31.0</ele><time>2026-03-29T09:17:14.999Z</time></trkpt><trkpt lat="45.114970401927664" lon="10.025409348898409"><ele>31.000000000000004</ele><time>2026-03-29T09:17:15.999Z</time></trkpt><trkpt lat="45.11489484209138" lon="10.025440513463845"><ele>31.0</ele><time>2026-03-29T09:17:16.999Z</time></trkpt><trkpt lat="45.11481991858719" lon="10.025469431577072"><ele>31.000000000000004</ele><time>2026-03-29T09:17:17.999Z</time></trkpt><trkpt lat="45.114745968357546" lon="10.025498242093096"><ele>31.0</ele><time>2026-03-29T09:17:18.999Z</time></trkpt><trkpt lat="45.114671547568456" lon="10.025524090810393"><ele>31.0</ele><time>2026-03-29T09:17:19.999Z</time></trkpt><trkpt lat="45.114595980407714" lon="10.02555332664008"><ele>31.0</ele><time>2026-03-29T09:17:20.999Z</time></trkpt><trkpt lat="45.11451945103548" lon="10.025575803438839"><ele>31.000000000000004</ele><time>2026-03-29T09:17:21.999Z</time></trkpt><trkpt lat="45.11444326839544" lon="10.025600899293263"><ele>31.0</ele><time>2026-03-29T09:17:22.999Z</time></trkpt><trkpt lat="45.11436506188953" lon="10.025622617964519"><ele>31.000000000000004</ele><time>2026-03-29T09:17:23.999Z</time></trkpt><trkpt lat="45.11428992761991" lon="10.02564602210035"><ele>31.0</ele><time>2026-03-29T09:17:24.999Z</time></trkpt><trkpt lat="45.11421267827566" lon="10.025667175412128"><ele>31.0</ele><time>2026-03-29T09:17:25.999Z</time></trkpt><trkpt lat="45.1141353598793" lon="10.025695594535861"><ele>31.0</ele><time>2026-03-29T09:17:26.999Z</time></trkpt><trkpt lat="45.11405910645237" lon="10.025722185880156"><ele>31.000000000000004</ele><time>2026-03-29T09:17:27.999Z</time></trkpt><trkpt lat="45.113985428842334" lon="10.02574625765727"><ele>31.0</ele><time>2026-03-29T09:17:28.999Z</time></trkpt><trkpt lat="45.11390915027321" lon="10.025767016560312"><ele>31.333333333333336</ele><time>2026-03-29T09:17:29.999Z</time></trkpt><trkpt lat="45.1138337021688" lon="10.025790280004195"><ele>31.666666666666668</ele><time>2026-03-29T09:17:30.999Z</time></trkpt><trkpt lat="45.11375949529975" lon="10.025810232388112"><ele>32.0</ele><time>2026-03-29T09:17:31.999Z</time></trkpt><trkpt lat="45.113684494441465" lon="10.025831635748803"><ele>32.333333333333336</ele><time>2026-03-29T09:17:32.999Z</time></trkpt><trkpt lat="45.11361295630294" lon="10.025852667907952"><ele>32.666666666666664</ele><time>2026-03-29T09:17:33.999Z</time></trkpt><trkpt lat="45.11353796301023" lon="10.025874349541436"><ele>33.0</ele><time>2026-03-29T09:17:34.999Z</time></trkpt><trkpt lat="45.113463441110746" lon="10.025900174132339"><ele>33.0</ele><time>2026-03-29T09:17:35.999Z</time></trkpt><trkpt lat="45.11338339992791" lon="10.025928081660176"><ele>33.0</ele><time>2026-03-29T09:17:36.999Z</time></trkpt><trkpt lat="45.11330566566731" lon="10.025953736332507"><ele>33.0</ele><time>2026-03-29T09:17:37.999Z</time></trkpt><trkpt lat="45.11322666429388" lon="10.025979859476163"><ele>33.0</ele><time>2026-03-29T09:17:38.999Z</time></trkpt><trkpt lat="45.1131499814016" lon="10.026003597361987"><ele>33.0</ele><time>2026-03-29T09:17:39.999Z</time></trkpt><trkpt lat="45.113071314354855" lon="10.026024970968418"><ele>33.0</ele><time>2026-03-29T09:17:40.999Z</time></trkpt><trkpt lat="45.11299501495669" lon="10.026048567128978"><ele>32.833333333333336</ele><time>2026-03-29T09:17:41.999Z</time></trkpt><trkpt lat="45.11291566242743" lon="10.02607413702615"><ele>32.666666666666664</ele><time>2026-03-29T09:17:42.999Z</time></trkpt><trkpt lat="45.112839090956314" lon="10.02610193391667"><ele>32.5</ele><time>2026-03-29T09:17:43.999Z</time></trkpt><trkpt lat="45.112761847684204" lon="10.026133930550815"><ele>32.33333333333333</ele><time>2026-03-29T09:17:44.999Z</time></trkpt><trkpt lat="45.11268591037256" lon="10.026165882773553"><ele>32.166666666666664</ele><time>2026-03-29T09:17:45.999Z</time></trkpt><trkpt lat="45.1126091680415" lon="10.026194894609787"><ele>32.0</ele><time>2026-03-29T09:17:46.999Z</time></trkpt><trkpt lat="45.11253603208061" lon="10.026230473979021"><ele>31.999999999999996</ele><time>2026-03-29T09:17:47.999Z</time></trkpt><trkpt lat="45.112460635196804" lon="10.026271230586346"><ele>32.0</ele><time>2026-03-29T09:17:48.999Z</time></trkpt><trkpt lat="45.11238853486831" lon="10.02631260939464"><ele>32.0</ele><time>2026-03-29T09:17:49.999Z</time></trkpt><trkpt lat="45.11231513762581" lon="10.026353177613386"><ele>32.0</ele><time>2026-03-29T09:17:50.999Z</time></trkpt><trkpt lat="45.11224170204701" lon="10.026395130143651"><ele>31.999999999999996</ele><time>2026-03-29T09:17:51.999Z</time></trkpt><trkpt lat="45.112168946725504" lon="10.026436035013102"><ele>32.0</ele><time>2026-03-29T09:17:52.999Z</time></trkpt><trkpt lat="45.11209553378781" lon="10.026479113606179"><ele>31.999999999999996</ele><time>2026-03-29T09:17:53.999Z</time></trkpt><trkpt lat="45.112026491164585" lon="10.026518723182802"><ele>32.0</ele><time>2026-03-29T09:17:54.998Z</time></trkpt><trkpt lat="45.11195243634957" lon="10.02656094215014"><ele>32.0</ele><time>2026-03-29T09:17:55.998Z</time></trkpt><trkpt lat="45.111881893712734" lon="10.026601554402735"><ele>32.0</ele><time>2026-03-29T09:17:56.998Z</time></trkpt><trkpt lat="45.11180775200969" lon="10.026637912369743"><ele>31.999999999999996</ele><time>2026-03-29T09:17:57.998Z</time></trkpt><trkpt lat="45.11173455565054" lon="10.026679723004131"><ele>32.0</ele><time>2026-03-29T09:17:58.998Z</time></trkpt><trkpt lat="45.11166259270437" lon="10.026720090429274"><ele>31.833333333333332</ele><time>2026-03-29T09:17:59.998Z</time></trkpt><trkpt lat="45.11158720496083" lon="10.026763071656873"><ele>31.666666666666664</ele><time>2026-03-29T09:18:00.998Z</time></trkpt><trkpt lat="45.11151441170172" lon="10.026803286876545"><ele>31.5</ele><time>2026-03-29T09:18:01.998Z</time></trkpt><trkpt lat="45.111438735296986" lon="10.026841487330948"><ele>31.333333333333336</ele><time>2026-03-29T09:18:02.998Z</time></trkpt><trkpt lat="45.11136616521469" lon="10.026882184581021"><ele>31.166666666666668</ele><time>2026-03-29T09:18:03.998Z</time></trkpt><trkpt lat="45.111292375181996" lon="10.026918899747047"><ele>31.0</ele><time>2026-03-29T09:18:04.998Z</time></trkpt><trkpt lat="45.111219773620846" lon="10.026959534522405"><ele>31.666666666666668</ele><time>2026-03-29T09:18:05.998Z</time></trkpt><trkpt lat="45.11114889802952" lon="10.027000908683352"><ele>32.333333333333336</ele><time>2026-03-29T09:18:07Z</time></trkpt><trkpt lat="45.11107508055819" lon="10.027042538550798"><ele>33.0</ele><time>2026-03-29T09:18:08Z</time></trkpt><trkpt lat="45.111002036660416" lon="10.027083585070864"><ele>33.666666666666664</ele><time>2026-03-29T09:18:09Z</time></trkpt><trkpt lat="45.11092713458226" lon="10.027123205336306"><ele>34.33333333333333</ele><time>2026-03-29T09:18:10Z</time></trkpt><trkpt lat="45.11085334147007" lon="10.02716377397228"><ele>35.0</ele><time>2026-03-29T09:18:11Z</time></trkpt><trkpt lat="45.110779309782586" lon="10.027202592855186"><ele>34.666666666666664</ele><time>2026-03-29T09:18:12Z</time></trkpt><trkpt lat="45.11070450061189" lon="10.02724022234709"><ele>34.33333333333333</ele><time>2026-03-29T09:18:13Z</time></trkpt><trkpt lat="45.11062935937589" lon="10.027275278054207"><ele>34.0</ele><time>2026-03-29T09:18:14Z</time></trkpt><trkpt lat="45.11055103620275" lon="10.027301558089365"><ele>33.666666666666664</ele><time>2026-03-29T09:18:15Z</time></trkpt><trkpt lat="45.11047152728659" lon="10.027325180671054"><ele>33.333333333333336</ele><time>2026-03-29T09:18:16Z</time></trkpt><trkpt lat="45.110392428043475" lon="10.027349224126747"><ele>33.0</ele><time>2026-03-29T09:18:17Z</time></trkpt><trkpt lat="45.110314027425424" lon="10.027376281834874"><ele>33.0</ele><time>2026-03-29T09:18:18Z</time></trkpt><trkpt lat="45.11023663959756" lon="10.027403040889753"><ele>33.0</ele><time>2026-03-29T09:18:19Z</time></trkpt><trkpt lat="45.110157572762624" lon="10.027429110787645"><ele>33.0</ele><time>2026-03-29T09:18:20Z</time></trkpt><trkpt lat="45.11007936824236" lon="10.027458484685187"><ele>33.0</ele><time>2026-03-29T09:18:21Z</time></trkpt><trkpt lat="45.10999954920618" lon="10.02748222790484"><ele>33.0</ele><time>2026-03-29T09:18:22Z</time></trkpt><trkpt lat="45.10992174397255" lon="10.027510244970339"><ele>33.0</ele><time>2026-03-29T09:18:23Z</time></trkpt><trkpt lat="45.10984470214302" lon="10.027533087707175"><ele>32.833333333333336</ele><time>2026-03-29T09:18:24Z</time></trkpt><trkpt lat="45.10976663788926" lon="10.027558764079917"><ele>32.666666666666664</ele><time>2026-03-29T09:18:25Z</time></trkpt><trkpt lat="45.10968706566791" lon="10.027587983119865"><ele>32.5</ele><time>2026-03-29T09:18:26Z</time></trkpt><trkpt lat="45.1096074171868" lon="10.027615946930847"><ele>32.33333333333333</ele><time>2026-03-29T09:18:27Z</time></trkpt><trkpt lat="45.10952729133568" lon="10.027643101573847"><ele>32.166666666666664</ele><time>2026-03-29T09:18:28Z</time></trkpt><trkpt lat="45.10944611793109" lon="10.027670985363462"><ele>32.0</ele><time>2026-03-29T09:18:29Z</time></trkpt><trkpt lat="45.10936654592598" lon="10.027698364401648"><ele>31.999999999999996</ele><time>2026-03-29T09:18:30Z</time></trkpt><trkpt lat="45.10928893435983" lon="10.027725811474657"><ele>32.0</ele><time>2026-03-29T09:18:31Z</time></trkpt><trkpt lat="45.1092095528822" lon="10.027751893419676"><ele>32.0</ele><time>2026-03-29T09:18:32Z</time></trkpt><trkpt lat="45.10913068351874" lon="10.027777183706968"><ele>32.0</ele><time>2026-03-29T09:18:33Z</time></trkpt><trkpt lat="45.10905182120941" lon="10.027805151610623"><ele>31.999999999999996</ele><time>2026-03-29T09:18:34Z</time></trkpt><trkpt lat="45.1089731717119" lon="10.027833226972705"><ele>32.0</ele><time>2026-03-29T09:18:35Z</time></trkpt><trkpt lat="45.108895848273676" lon="10.027854879528128"><ele>32.166666666666664</ele><time>2026-03-29T09:18:36Z</time></trkpt><trkpt lat="45.108816170420184" lon="10.027876718798373"><ele>32.33333333333333</ele><time>2026-03-29T09:18:37Z</time></trkpt><trkpt lat="45.10873817588495" lon="10.027897699067951"><ele>32.5</ele><time>2026-03-29T09:18:38Z</time></trkpt><trkpt lat="45.10866261983637" lon="10.027919202837891"><ele>32.666666666666664</ele><time>2026-03-29T09:18:39Z</time></trkpt><trkpt lat="45.1085840395366" lon="10.027947372651012"><ele>32.833333333333336</ele><time>2026-03-29T09:18:40Z</time></trkpt><trkpt lat="45.10850647839849" lon="10.027969363626811"><ele>33.0</ele><time>2026-03-29T09:18:41Z</time></trkpt><trkpt lat="45.108428987408494" lon="10.027985586596804"><ele>33.0</ele><time>2026-03-29T09:18:42Z</time></trkpt><trkpt lat="45.108351927531444" lon="10.028004320749393"><ele>33.0</ele><time>2026-03-29T09:18:43Z</time></trkpt><trkpt lat="45.10827188903139" lon="10.02800864910469"><ele>33.0</ele><time>2026-03-29T09:18:44Z</time></trkpt><trkpt lat="45.108191543279304" lon="10.028005856572776"><ele>33.0</ele><time>2026-03-29T09:18:45Z</time></trkpt><trkpt lat="45.10811213932973" lon="10.028004106814059"><ele>33.0</ele><time>2026-03-29T09:18:46Z</time></trkpt><trkpt lat="45.108032676771074" lon="10.028002674691"><ele>33.0</ele><time>2026-03-29T09:18:47Z</time></trkpt><trkpt lat="45.10795263245747" lon="10.028001758582239"><ele>32.833333333333336</ele><time>2026-03-29T09:18:48Z</time></trkpt><trkpt lat="45.10787207196785" lon="10.027999950279124"><ele>32.666666666666664</ele><time>2026-03-29T09:18:49Z</time></trkpt><trkpt lat="45.107791433106215" lon="10.027991219723146"><ele>32.5</ele><time>2026-03-29T09:18:50Z</time></trkpt><trkpt lat="45.107714094863" lon="10.027979487188698"><ele>32.33333333333333</ele><time>2026-03-29T09:18:51Z</time></trkpt><trkpt lat="45.107635397468755" lon="10.027970233645645"><ele>32.166666666666664</ele><time>2026-03-29T09:18:52Z</time></trkpt><trkpt lat="45.10755565782234" lon="10.0279680196779"><ele>32.0</ele><time>2026-03-29T09:18:53Z</time></trkpt><trkpt lat="45.10747622558603" lon="10.02796736304577"><ele>32.5</ele><time>2026-03-29T09:18:54Z</time></trkpt><trkpt lat="45.1073965647961" lon="10.027969170147726"><ele>33.0</ele><time>2026-03-29T09:18:55Z</time></trkpt><trkpt lat="45.107316897511986" lon="10.027968565572994"><ele>33.5</ele><time>2026-03-29T09:18:56Z</time></trkpt><trkpt lat="45.10723637498116" lon="10.027966945623524"><ele>34.0</ele><time>2026-03-29T09:18:57Z</time></trkpt><trkpt lat="45.10715678855715" lon="10.02796394352886"><ele>34.5</ele><time>2026-03-29T09:18:58Z</time></trkpt><trkpt lat="45.10707702113821" lon="10.027961478838492"><ele>35.0</ele><time>2026-03-29T09:18:59Z</time></trkpt><trkpt lat="45.10699674747328" lon="10.027958940076214"><ele>35.0</ele><time>2026-03-29T09:19:00Z</time></trkpt><trkpt lat="45.10691646397617" lon="10.027955978353356"><ele>35.0</ele><time>2026-03-29T09:19:01Z</time></trkpt><trkpt lat="45.106838944447176" lon="10.027954168107458"><ele>35.0</ele><time>2026-03-29T09:19:02Z</time></trkpt><trkpt lat="45.106759100912726" lon="10.027953680247313"><ele>35.0</ele><time>2026-03-29T09:19:03Z</time></trkpt><trkpt lat="45.10667921748955" lon="10.027955257442084"><ele>35.0</ele><time>2026-03-29T09:19:03.999Z</time></trkpt><trkpt lat="45.10660252459525" lon="10.02795014449817"><ele>35.0</ele><time>2026-03-29T09:19:04.999Z</time></trkpt><trkpt lat="45.10652392622727" lon="10.02794256374539"><ele>34.714285714285715</ele><time>2026-03-29T09:19:05.999Z</time></trkpt><trkpt lat="45.10644502225207" lon="10.027941355216434"><ele>34.42857142857143</ele><time>2026-03-29T09:19:06.999Z</time></trkpt><trkpt lat="45.10636753117617" lon="10.027937533833516"><ele>34.14285714285714</ele><time>2026-03-29T09:19:07.999Z</time></trkpt><trkpt lat="45.1062897438825" lon="10.02793867392641"><ele>33.85714285714286</ele><time>2026-03-29T09:19:08.999Z</time></trkpt><trkpt lat="45.1062180155088" lon="10.027937887349127"><ele>33.57142857142857</ele><time>2026-03-29T09:19:09.999Z</time></trkpt><trkpt lat="45.106145762156366" lon="10.027935809443184"><ele>33.285714285714285</ele><time>2026-03-29T09:19:10.999Z</time></trkpt><trkpt lat="45.106078047969156" lon="10.027929528619381"><ele>33.0</ele><time>2026-03-29T09:19:11.999Z</time></trkpt><trkpt lat="45.10600433744808" lon="10.027934206272151"><ele>33.0</ele><time>2026-03-29T09:19:12.999Z</time></trkpt><trkpt lat="45.1059334808052" lon="10.027952761147365"><ele>33.0</ele><time>2026-03-29T09:19:13.999Z</time></trkpt><trkpt lat="45.10586071525061" lon="10.027977443419278"><ele>33.0</ele><time>2026-03-29T09:19:14.999Z</time></trkpt><trkpt lat="45.10578844303927" lon="10.028010671238432"><ele>33.0</ele><time>2026-03-29T09:19:15.999Z</time></trkpt><trkpt lat="45.10571803756047" lon="10.028045433920616"><ele>33.0</ele><time>2026-03-29T09:19:16.999Z</time></trkpt><trkpt lat="45.10564650440867" lon="10.028079920231269"><ele>33.0</ele><time>2026-03-29T09:19:17.999Z</time></trkpt><trkpt lat="45.105571584042686" lon="10.028109640584463"><ele>32.666666666666664</ele><time>2026-03-29T09:19:18.999Z</time></trkpt><trkpt lat="45.10550024863544" lon="10.028149021414105"><ele>32.333333333333336</ele><time>2026-03-29T09:19:19.999Z</time></trkpt><trkpt lat="45.105429263123334" lon="10.028191691933785"><ele>32.0</ele><time>2026-03-29T09:19:20.999Z</time></trkpt><trkpt lat="45.105359396983566" lon="10.028232779269578"><ele>31.666666666666668</ele><time>2026-03-29T09:19:21.999Z</time></trkpt><trkpt lat="45.10528959383197" lon="10.028267613002386"><ele>31.333333333333336</ele><time>2026-03-29T09:19:22.999Z</time></trkpt><trkpt lat="45.10521834335878" lon="10.028308658380414"><ele>31.0</ele><time>2026-03-29T09:19:23.999Z</time></trkpt><trkpt lat="45.105146740816664" lon="10.028356210696556"><ele>31.666666666666668</ele><time>2026-03-29T09:19:24.999Z</time></trkpt><trkpt lat="45.10507279275961" lon="10.028398389682513"><ele>32.333333333333336</ele><time>2026-03-29T09:19:25.999Z</time></trkpt><trkpt lat="45.10500220934441" lon="10.028444269873024"><ele>33.0</ele><time>2026-03-29T09:19:26.999Z</time></trkpt><trkpt lat="45.10493197369679" lon="10.028493159245391"><ele>33.666666666666664</ele><time>2026-03-29T09:19:27.999Z</time></trkpt><trkpt lat="45.10486519177581" lon="10.028544889612638"><ele>34.33333333333333</ele><time>2026-03-29T09:19:28.999Z</time></trkpt><trkpt lat="45.104797124105076" lon="10.028596277876394"><ele>35.0</ele><time>2026-03-29T09:19:29.999Z</time></trkpt><trkpt lat="45.10473217782264" lon="10.02864849284021"><ele>35.285714285714285</ele><time>2026-03-29T09:19:30.999Z</time></trkpt><trkpt lat="45.10466920443086" lon="10.02870052049492"><ele>35.57142857142857</ele><time>2026-03-29T09:19:31.999Z</time></trkpt><trkpt lat="45.104609774839865" lon="10.028754435014164"><ele>35.85714285714286</ele><time>2026-03-29T09:19:32.999Z</time></trkpt><trkpt lat="45.104553143136485" lon="10.028805325763875"><ele>36.14285714285714</ele><time>2026-03-29T09:19:33.999Z</time></trkpt><trkpt lat="45.10449619471734" lon="10.02886012560428"><ele>36.42857142857143</ele><time>2026-03-29T09:19:34.999Z</time></trkpt><trkpt lat="45.10444396781976" lon="10.028913274595332"><ele>36.714285714285715</ele><time>2026-03-29T09:19:35.999Z</time></trkpt><trkpt lat="45.104383834937956" lon="10.02895563170062"><ele>37.0</ele><time>2026-03-29T09:19:36.999Z</time></trkpt><trkpt lat="45.10434192919772" lon="10.029028849036889"><ele>37.0</ele><time>2026-03-29T09:19:37.999Z</time></trkpt><trkpt lat="45.104333315704196" lon="10.029136359911213"><ele>37.0</ele><time>2026-03-29T09:19:38.999Z</time></trkpt><trkpt lat="45.1042982647562" lon="10.029220338303329"><ele>37.0</ele><time>2026-03-29T09:19:39.999Z</time></trkpt><trkpt lat="45.104274893581035" lon="10.02932195110385"><ele>37.0</ele><time>2026-03-29T09:19:40.999Z</time></trkpt><trkpt lat="45.10425503572107" lon="10.029422926565573"><ele>37.0</ele><time>2026-03-29T09:19:41.999Z</time></trkpt><trkpt lat="45.10423865693969" lon="10.029528429640218"><ele>37.0</ele><time>2026-03-29T09:19:42.999Z</time></trkpt><trkpt lat="45.1042319300372" lon="10.029640398352747"><ele>37.16666666666667</ele><time>2026-03-29T09:19:43.999Z</time></trkpt><trkpt lat="45.10423425350583" lon="10.029754868695363"><ele>37.333333333333336</ele><time>2026-03-29T09:19:44.999Z</time></trkpt><trkpt lat="45.10423425350549" lon="10.02986679297753"><ele>37.5</ele><time>2026-03-29T09:19:45.999Z</time></trkpt><trkpt lat="45.10423905350473" lon="10.029979673697602"><ele>37.666666666666664</ele><time>2026-03-29T09:19:46.999Z</time></trkpt><trkpt lat="45.104234249333594" lon="10.030087864439931"><ele>37.83333333333333</ele><time>2026-03-29T09:19:47.999Z</time></trkpt><trkpt lat="45.104208745953905" lon="10.030183521041968"><ele>38.0</ele><time>2026-03-29T09:19:48.999Z</time></trkpt><trkpt lat="45.104159163631785" lon="10.030255426482414"><ele>38.0</ele><time>2026-03-29T09:19:49.999Z</time></trkpt><trkpt lat="45.104109823123736" lon="10.030324552790312"><ele>38.0</ele><time>2026-03-29T09:19:50.999Z</time></trkpt><trkpt lat="45.10405578478768" lon="10.030386973454037"><ele>38.0</ele><time>2026-03-29T09:19:51.999Z</time></trkpt><trkpt lat="45.103996902473874" lon="10.030450612770963"><ele>38.0</ele><time>2026-03-29T09:19:52.999Z</time></trkpt><trkpt lat="45.103902919565286" lon="10.030536484749103"><ele>38.0</ele><time>2026-03-29T09:19:54.999Z</time></trkpt><trkpt lat="45.10383384476982" lon="10.03059254940397"><ele>38.0</ele><time>2026-03-29T09:19:55.999Z</time></trkpt><trkpt lat="45.10377346036691" lon="10.030640997483966"><ele>38.33333333333333</ele><time>2026-03-29T09:19:56.999Z</time></trkpt><trkpt lat="45.10366054661536" lon="10.030731173401069"><ele>38.666666666666664</ele><time>2026-03-29T09:19:58.998Z</time></trkpt><trkpt lat="45.10360210205841" lon="10.030784579833806"><ele>39.0</ele><time>2026-03-29T09:19:59.998Z</time></trkpt><trkpt lat="45.10355228520266" lon="10.030844004204454"><ele>39.333333333333336</ele><time>2026-03-29T09:20:00.998Z</time></trkpt><trkpt lat="45.103507003527305" lon="10.030912002655553"><ele>39.66666666666667</ele><time>2026-03-29T09:20:01.998Z</time></trkpt><trkpt lat="45.103465702663534" lon="10.030980140302441"><ele>40.0</ele><time>2026-03-29T09:20:02.998Z</time></trkpt><trkpt lat="45.10339008797618" lon="10.031112763109315"><ele>39.2</ele><time>2026-03-29T09:20:04.998Z</time></trkpt><trkpt lat="45.10337007317366" lon="10.031202108311925"><ele>38.4</ele><time>2026-03-29T09:20:05.998Z</time></trkpt><trkpt lat="45.10329468157293" lon="10.031333286093677"><ele>37.6</ele><time>2026-03-29T09:20:07.998Z</time></trkpt><trkpt lat="45.103223388216115" lon="10.031460692109388"><ele>36.8</ele><time>2026-03-29T09:20:09.998Z</time></trkpt><trkpt lat="45.103141686255796" lon="10.031587537641908"><ele>36.0</ele><time>2026-03-29T09:20:11.998Z</time></trkpt><trkpt lat="45.10308616931856" lon="10.031630894808526"><ele>35.6</ele><time>2026-03-29T09:20:13Z</time></trkpt><trkpt lat="45.103005061520115" lon="10.031771114727986"><ele>35.2</ele><time>2026-03-29T09:20:15Z</time></trkpt><trkpt lat="45.10296726790762" lon="10.031847492099665"><ele>34.8</ele><time>2026-03-29T09:20:16Z</time></trkpt><trkpt lat="45.10294434898371" lon="10.031933540132458"><ele>34.4</ele><time>2026-03-29T09:20:17Z</time></trkpt><trkpt lat="45.10286783060304" lon="10.032062331504422"><ele>34.0</ele><time>2026-03-29T09:20:19Z</time></trkpt><trkpt lat="45.10279247537269" lon="10.032188878507512"><ele>33.99999999999999</ele><time>2026-03-29T09:20:21Z</time></trkpt><trkpt lat="45.1027061680781" lon="10.032320629169083"><ele>34.0</ele><time>2026-03-29T09:20:23Z</time></trkpt><trkpt lat="45.10266408307367" lon="10.032387380491233"><ele>34.0</ele><time>2026-03-29T09:20:24Z</time></trkpt><trkpt lat="45.10262129623646" lon="10.032454592841543"><ele>34.0</ele><time>2026-03-29T09:20:25Z</time></trkpt><trkpt lat="45.10257946460543" lon="10.032521939283209"><ele>34.0</ele><time>2026-03-29T09:20:26Z</time></trkpt><trkpt lat="45.10253600434485" lon="10.032588494822523"><ele>33.99999999999999</ele><time>2026-03-29T09:20:27Z</time></trkpt><trkpt lat="45.102492606179496" lon="10.032657795112458"><ele>34.0</ele><time>2026-03-29T09:20:28Z</time></trkpt><trkpt lat="45.10244617418721" lon="10.03272603294813"><ele>33.857142857142854</ele><time>2026-03-29T09:20:29Z</time></trkpt><trkpt lat="45.10240171834515" lon="10.032796148453059"><ele>33.714285714285715</ele><time>2026-03-29T09:20:30Z</time></trkpt><trkpt lat="45.10234276672812" lon="10.032848455701984"><ele>33.57142857142857</ele><time>2026-03-29T09:20:31Z</time></trkpt><trkpt lat="45.10229379252109" lon="10.032912462603653"><ele>33.42857142857143</ele><time>2026-03-29T09:20:32Z</time></trkpt><trkpt lat="45.1022428827782" lon="10.032973785997624"><ele>33.285714285714285</ele><time>2026-03-29T09:20:33Z</time></trkpt><trkpt lat="45.102189830182205" lon="10.033029125637944"><ele>33.14285714285714</ele><time>2026-03-29T09:20:34Z</time></trkpt><trkpt lat="45.10213414181833" lon="10.033081158777696"><ele>33.0</ele><time>2026-03-29T09:20:35Z</time></trkpt><trkpt lat="45.10207520900865" lon="10.033124629771269"><ele>33.0</ele><time>2026-03-29T09:20:36Z</time></trkpt><trkpt lat="45.102016032484876" lon="10.03316490542497"><ele>33.0</ele><time>2026-03-29T09:20:37Z</time></trkpt><trkpt lat="45.10195392015262" lon="10.033203938327253"><ele>33.0</ele><time>2026-03-29T09:20:38Z</time></trkpt><trkpt lat="45.10189210349776" lon="10.033241222377686"><ele>33.0</ele><time>2026-03-29T09:20:39Z</time></trkpt><trkpt lat="45.101828287533664" lon="10.033279712401471"><ele>33.0</ele><time>2026-03-29T09:20:40Z</time></trkpt><trkpt lat="45.10176539345514" lon="10.033317646420377"><ele>33.0</ele><time>2026-03-29T09:20:41Z</time></trkpt><trkpt lat="45.101701287488595" lon="10.03335631128041"><ele>33.0</ele><time>2026-03-29T09:20:42Z</time></trkpt><trkpt lat="45.10163890392799" lon="10.03339393732446"><ele>33.0</ele><time>2026-03-29T09:20:43Z</time></trkpt><trkpt lat="45.10157401059866" lon="10.033433077161572"><ele>33.0</ele><time>2026-03-29T09:20:44Z</time></trkpt><trkpt lat="45.10150951627437" lon="10.033471884322061"><ele>33.0</ele><time>2026-03-29T09:20:45Z</time></trkpt><trkpt lat="45.10144314787767" lon="10.03351178184536"><ele>33.0</ele><time>2026-03-29T09:20:46Z</time></trkpt><trkpt lat="45.101377429609585" lon="10.033551703763994"><ele>33.0</ele><time>2026-03-29T09:20:47Z</time></trkpt><trkpt lat="45.10131886507166" lon="10.033613384920564"><ele>33.0</ele><time>2026-03-29T09:20:48Z</time></trkpt><trkpt lat="45.10125348405863" lon="10.033652684168047"><ele>33.0</ele><time>2026-03-29T09:20:49Z</time></trkpt><trkpt lat="45.10118339885099" lon="10.033671997610687"><ele>33.0</ele><time>2026-03-29T09:20:50Z</time></trkpt><trkpt lat="45.10111861289163" lon="10.033712163056155"><ele>33.0</ele><time>2026-03-29T09:20:51Z</time></trkpt><trkpt lat="45.10105269754384" lon="10.033753028828817"><ele>33.0</ele><time>2026-03-29T09:20:52Z</time></trkpt><trkpt lat="45.10098783961575" lon="10.033792933193807"><ele>33.0</ele><time>2026-03-29T09:20:53Z</time></trkpt><trkpt lat="45.10092160635298" lon="10.033833556929963"><ele>33.0</ele><time>2026-03-29T09:20:54Z</time></trkpt><trkpt lat="45.1008564622167" lon="10.033873716472003"><ele>33.0</ele><time>2026-03-29T09:20:55Z</time></trkpt><trkpt lat="45.10079050469997" lon="10.033915036597548"><ele>33.0</ele><time>2026-03-29T09:20:56Z</time></trkpt><trkpt lat="45.10072527881759" lon="10.033955898215089"><ele>33.0</ele><time>2026-03-29T09:20:57Z</time></trkpt><trkpt lat="45.10066051756292" lon="10.033996468888025"><ele>33.0</ele><time>2026-03-29T09:20:58Z</time></trkpt><trkpt lat="45.100595389961796" lon="10.03403726903922"><ele>33.0</ele><time>2026-03-29T09:20:59Z</time></trkpt><trkpt lat="45.100535193721996" lon="10.034095123398284"><ele>33.0</ele><time>2026-03-29T09:21:00Z</time></trkpt><trkpt lat="45.10046672657518" lon="10.034128732309302"><ele>33.0</ele><time>2026-03-29T09:21:01Z</time></trkpt><trkpt lat="45.10039759569344" lon="10.034166985135965"><ele>33.0</ele><time>2026-03-29T09:21:02Z</time></trkpt><trkpt lat="45.10033086881444" lon="10.03420839884697"><ele>33.0</ele><time>2026-03-29T09:21:03Z</time></trkpt><trkpt lat="45.100263622738495" lon="10.034251073781475"><ele>33.14285714285714</ele><time>2026-03-29T09:21:04Z</time></trkpt><trkpt lat="45.10019742184653" lon="10.034296468522548"><ele>33.285714285714285</ele><time>2026-03-29T09:21:05Z</time></trkpt><trkpt lat="45.10013004448806" lon="10.034338180582102"><ele>33.42857142857143</ele><time>2026-03-29T09:21:06Z</time></trkpt><trkpt lat="45.100065134562556" lon="10.034381678799503"><ele>33.57142857142857</ele><time>2026-03-29T09:21:07Z</time></trkpt><trkpt lat="45.09999997131219" lon="10.034425558324976"><ele>33.714285714285715</ele><time>2026-03-29T09:21:08Z</time></trkpt><trkpt lat="45.0999336346114" lon="10.03446506898717"><ele>33.857142857142854</ele><time>2026-03-29T09:21:09Z</time></trkpt><trkpt lat="45.09986843132224" lon="10.034504979207874"><ele>34.0</ele><time>2026-03-29T09:21:09.999Z</time></trkpt><trkpt lat="45.099802740095924" lon="10.03454338712931"><ele>33.57142857142857</ele><time>2026-03-29T09:21:10.999Z</time></trkpt><trkpt lat="45.09973322731344" lon="10.034576358654757"><ele>33.14285714285714</ele><time>2026-03-29T09:21:11.999Z</time></trkpt><trkpt lat="45.09966011593502" lon="10.03457537828439"><ele>32.714285714285715</ele><time>2026-03-29T09:21:12.999Z</time></trkpt><trkpt lat="45.09958724422081" lon="10.034585415128507"><ele>32.285714285714285</ele><time>2026-03-29T09:21:13.999Z</time></trkpt><trkpt lat="45.09951123943474" lon="10.03459487299461"><ele>31.85714285714286</ele><time>2026-03-29T09:21:14.999Z</time></trkpt><trkpt lat="45.099436539112546" lon="10.034604168476488"><ele>31.42857142857143</ele><time>2026-03-29T09:21:15.999Z</time></trkpt><trkpt lat="45.09936114860771" lon="10.034613549882375"><ele>31.0</ele><time>2026-03-29T09:21:16.999Z</time></trkpt><trkpt lat="45.09928723407965" lon="10.034645017726078"><ele>31.000000000000004</ele><time>2026-03-29T09:21:17.999Z</time></trkpt><trkpt lat="45.09920956260785" lon="10.034633814560069"><ele>31.0</ele><time>2026-03-29T09:21:18.999Z</time></trkpt><trkpt lat="45.09913377584393" lon="10.034645104651851"><ele>31.0</ele><time>2026-03-29T09:21:19.999Z</time></trkpt><trkpt lat="45.09905955465507" lon="10.03467849595308"><ele>31.0</ele><time>2026-03-29T09:21:20.999Z</time></trkpt><trkpt lat="45.09898305433434" lon="10.034686942992472"><ele>31.000000000000004</ele><time>2026-03-29T09:21:21.999Z</time></trkpt><trkpt lat="45.09890640656574" lon="10.034698879574506"><ele>31.0</ele><time>2026-03-29T09:21:22.999Z</time></trkpt><trkpt lat="45.098829926875574" lon="10.034712697606382"><ele>31.333333333333336</ele><time>2026-03-29T09:21:23.999Z</time></trkpt><trkpt lat="45.09875217887878" lon="10.03472497762855"><ele>31.666666666666668</ele><time>2026-03-29T09:21:24.999Z</time></trkpt><trkpt lat="45.09867497767064" lon="10.0347370290962"><ele>32.0</ele><time>2026-03-29T09:21:25.999Z</time></trkpt><trkpt lat="45.098596720803364" lon="10.034746342846157"><ele>32.333333333333336</ele><time>2026-03-29T09:21:26.999Z</time></trkpt><trkpt lat="45.0985199957928" lon="10.034757723296233"><ele>32.666666666666664</ele><time>2026-03-29T09:21:27.999Z</time></trkpt><trkpt lat="45.098452336132574" lon="10.03471559111661"><ele>33.0</ele><time>2026-03-29T09:21:28.999Z</time></trkpt><trkpt lat="45.09836898787748" lon="10.034787732962057"><ele>33.0</ele><time>2026-03-29T09:21:29.999Z</time></trkpt><trkpt lat="45.09829203234032" lon="10.034798826310421"><ele>33.0</ele><time>2026-03-29T09:21:30.999Z</time></trkpt><trkpt lat="45.098217687815314" lon="10.034782028324456"><ele>33.0</ele><time>2026-03-29T09:21:31.999Z</time></trkpt><trkpt lat="45.098145235414684" lon="10.034785232593874"><ele>33.0</ele><time>2026-03-29T09:21:32.999Z</time></trkpt><trkpt lat="45.09807833750232" lon="10.0347884655325"><ele>33.0</ele><time>2026-03-29T09:21:33.999Z</time></trkpt><trkpt lat="45.09801446931747" lon="10.034792432494315"><ele>33.0</ele><time>2026-03-29T09:21:34.999Z</time></trkpt><trkpt lat="45.097949214129734" lon="10.034797863203728"><ele>33.0</ele><time>2026-03-29T09:21:35.999Z</time></trkpt><trkpt lat="45.0978310397587" lon="10.03481928312314"><ele>33.5</ele><time>2026-03-29T09:21:37.999Z</time></trkpt><trkpt lat="45.0977085721462" lon="10.034858637815947"><ele>34.0</ele><time>2026-03-29T09:21:39.999Z</time></trkpt><trkpt lat="45.09764230863919" lon="10.034867102202734"><ele>34.5</ele><time>2026-03-29T09:21:40.999Z</time></trkpt><trkpt lat="45.09757786364712" lon="10.034877343361083"><ele>35.0</ele><time>2026-03-29T09:21:41.999Z</time></trkpt><trkpt lat="45.09751426575189" lon="10.034888856809095"><ele>35.5</ele><time>2026-03-29T09:21:42.999Z</time></trkpt><trkpt lat="45.097394256536965" lon="10.03489999149989"><ele>36.0</ele><time>2026-03-29T09:21:44.999Z</time></trkpt><trkpt lat="45.097279382838714" lon="10.034905110426882"><ele>36.0</ele><time>2026-03-29T09:21:46.999Z</time></trkpt><trkpt lat="45.09716730603121" lon="10.034915621427206"><ele>36.0</ele><time>2026-03-29T09:21:48.999Z</time></trkpt><trkpt lat="45.09707916138627" lon="10.034942235219873"><ele>36.0</ele><time>2026-03-29T09:21:50.999Z</time></trkpt><trkpt lat="45.097045545381306" lon="10.035163898041539"><ele>36.0</ele><time>2026-03-29T09:21:54.999Z</time></trkpt><trkpt lat="45.09708403063643" lon="10.035260576460857"><ele>36.0</ele><time>2026-03-29T09:21:56.999Z</time></trkpt><trkpt lat="45.097134351877585" lon="10.035381671048409"><ele>36.0</ele><time>2026-03-29T09:21:58.999Z</time></trkpt><trkpt lat="45.097189389864134" lon="10.03551228359974"><ele>36.0</ele><time>2026-03-29T09:22:00.999Z</time></trkpt><trkpt lat="45.09725367823586" lon="10.035655065698478"><ele>36.0</ele><time>2026-03-29T09:22:02.999Z</time></trkpt><trkpt lat="45.097327882983855" lon="10.035795892731766"><ele>36.0</ele><time>2026-03-29T09:22:04.998Z</time></trkpt><trkpt lat="45.097405892683426" lon="10.035930517594569"><ele>36.28571428571429</ele><time>2026-03-29T09:22:06.998Z</time></trkpt><trkpt lat="45.09745872151821" lon="10.036000019036527"><ele>36.57142857142857</ele><time>2026-03-29T09:22:07.998Z</time></trkpt><trkpt lat="45.09750615397432" lon="10.036068659840346"><ele>36.85714285714286</ele><time>2026-03-29T09:22:08.998Z</time></trkpt><trkpt lat="45.097553237784034" lon="10.036135374861393"><ele>37.142857142857146</ele><time>2026-03-29T09:22:09.998Z</time></trkpt><trkpt lat="45.09762520791665" lon="10.036168279502098"><ele>37.42857142857143</ele><time>2026-03-29T09:22:10.998Z</time></trkpt><trkpt lat="45.09767570760727" lon="10.036231852735394"><ele>37.714285714285715</ele><time>2026-03-29T09:22:11.998Z</time></trkpt><trkpt lat="45.0977255747864" lon="10.036294781267749"><ele>38.0</ele><time>2026-03-29T09:22:12.998Z</time></trkpt><trkpt lat="45.09777967110803" lon="10.036355137854136"><ele>38.0</ele><time>2026-03-29T09:22:13.998Z</time></trkpt><trkpt lat="45.097839160704645" lon="10.036409025487206"><ele>38.0</ele><time>2026-03-29T09:22:14.998Z</time></trkpt><trkpt lat="45.09790349802491" lon="10.03645177462521"><ele>38.0</ele><time>2026-03-29T09:22:15.998Z</time></trkpt><trkpt lat="45.097974226163636" lon="10.036485255341377"><ele>38.0</ele><time>2026-03-29T09:22:16.998Z</time></trkpt><trkpt lat="45.098047599493725" lon="10.03651751598461"><ele>38.0</ele><time>2026-03-29T09:22:18Z</time></trkpt><trkpt lat="45.098120094212796" lon="10.036554699556785"><ele>38.0</ele><time>2026-03-29T09:22:19Z</time></trkpt><trkpt lat="45.09816508445482" lon="10.036673363372474"><ele>37.83333333333333</ele><time>2026-03-29T09:22:20Z</time></trkpt><trkpt lat="45.098230368434066" lon="10.036722441907855"><ele>37.666666666666664</ele><time>2026-03-29T09:22:21Z</time></trkpt><trkpt lat="45.09829483273531" lon="10.036776409663245"><ele>37.5</ele><time>2026-03-29T09:22:22Z</time></trkpt><trkpt lat="45.09835553737745" lon="10.036833464268257"><ele>37.333333333333336</ele><time>2026-03-29T09:22:23Z</time></trkpt><trkpt lat="45.09841755179038" lon="10.036900209964047"><ele>37.16666666666667</ele><time>2026-03-29T09:22:24Z</time></trkpt><trkpt lat="45.098479238345206" lon="10.036969545374925"><ele>37.0</ele><time>2026-03-29T09:22:25Z</time></trkpt><trkpt lat="45.09853658660006" lon="10.037038796271455"><ele>36.5</ele><time>2026-03-29T09:22:26Z</time></trkpt><trkpt lat="45.09859638483946" lon="10.037111019854763"><ele>36.0</ele><time>2026-03-29T09:22:27Z</time></trkpt><trkpt lat="45.09865423356073" lon="10.03718088881937"><ele>35.5</ele><time>2026-03-29T09:22:28Z</time></trkpt><trkpt lat="45.09871287434774" lon="10.037251714319236"><ele>35.0</ele><time>2026-03-29T09:22:29Z</time></trkpt><trkpt lat="45.098772524000296" lon="10.03732375857849"><ele>34.5</ele><time>2026-03-29T09:22:30Z</time></trkpt><trkpt lat="45.09883147398125" lon="10.03739397685124"><ele>34.0</ele><time>2026-03-29T09:22:31Z</time></trkpt><trkpt lat="45.09889048855729" lon="10.037463399614705"><ele>33.833333333333336</ele><time>2026-03-29T09:22:32Z</time></trkpt><trkpt lat="45.09894735840056" lon="10.037529083539681"><ele>33.66666666666667</ele><time>2026-03-29T09:22:33Z</time></trkpt><trkpt lat="45.09900612855268" lon="10.037596189679329"><ele>33.5</ele><time>2026-03-29T09:22:34Z</time></trkpt><trkpt lat="45.09906667892748" lon="10.037663721290732"><ele>33.333333333333336</ele><time>2026-03-29T09:22:35Z</time></trkpt><trkpt lat="45.09912676628028" lon="10.03772863940266"><ele>33.166666666666664</ele><time>2026-03-29T09:22:36Z</time></trkpt><trkpt lat="45.09918973913742" lon="10.037791742329066"><ele>33.0</ele><time>2026-03-29T09:22:37Z</time></trkpt><trkpt lat="45.09925319169594" lon="10.037850148836545"><ele>33.42857142857143</ele><time>2026-03-29T09:22:38Z</time></trkpt><trkpt lat="45.0993147203275" lon="10.037905280156151"><ele>33.85714285714286</ele><time>2026-03-29T09:22:39Z</time></trkpt><trkpt lat="45.09937814971111" lon="10.03796111317737"><ele>34.28571428571429</ele><time>2026-03-29T09:22:40Z</time></trkpt><trkpt lat="45.09944018753898" lon="10.038014673729338"><ele>34.714285714285715</ele><time>2026-03-29T09:22:41Z</time></trkpt><trkpt lat="45.09950263933907" lon="10.038068591733198"><ele>35.142857142857146</ele><time>2026-03-29T09:22:42Z</time></trkpt><trkpt lat="45.09956788930018" lon="10.038123741752035"><ele>35.57142857142858</ele><time>2026-03-29T09:22:43Z</time></trkpt><trkpt lat="45.099633504580055" lon="10.038178587455672"><ele>36.0</ele><time>2026-03-29T09:22:44Z</time></trkpt><trkpt lat="45.09969947965145" lon="10.038233734008061"><ele>36.0</ele><time>2026-03-29T09:22:45Z</time></trkpt><trkpt lat="45.099764710631426" lon="10.038288258525437"><ele>36.0</ele><time>2026-03-29T09:22:46Z</time></trkpt><trkpt lat="45.09982969825395" lon="10.038342579667955"><ele>36.0</ele><time>2026-03-29T09:22:47Z</time></trkpt><trkpt lat="45.099893365640774" lon="10.038396385562816"><ele>36.0</ele><time>2026-03-29T09:22:48Z</time></trkpt><trkpt lat="45.09995867059437" lon="10.038452409344872"><ele>36.0</ele><time>2026-03-29T09:22:49Z</time></trkpt><trkpt lat="45.10002448177502" lon="10.038508867324634"><ele>36.0</ele><time>2026-03-29T09:22:50Z</time></trkpt><trkpt lat="45.10008603187601" lon="10.038561669728148"><ele>36.28571428571429</ele><time>2026-03-29T09:22:51Z</time></trkpt><trkpt lat="45.10015093473655" lon="10.038614062608996"><ele>36.57142857142857</ele><time>2026-03-29T09:22:52Z</time></trkpt><trkpt lat="45.1002121953635" lon="10.038662687852405"><ele>36.85714285714286</ele><time>2026-03-29T09:22:53Z</time></trkpt><trkpt lat="45.100277179633615" lon="10.038709575736437"><ele>37.142857142857146</ele><time>2026-03-29T09:22:54Z</time></trkpt><trkpt lat="45.100337928446294" lon="10.038752931061614"><ele>37.42857142857143</ele><time>2026-03-29T09:22:55Z</time></trkpt><trkpt lat="45.10040108365211" lon="10.038796511779216"><ele>37.714285714285715</ele><time>2026-03-29T09:22:56Z</time></trkpt><trkpt lat="45.10047090960774" lon="10.03884373815953"><ele>38.0</ele><time>2026-03-29T09:22:57Z</time></trkpt><trkpt lat="45.1005415479274" lon="10.038887416071725"><ele>38.0</ele><time>2026-03-29T09:22:58Z</time></trkpt><trkpt lat="45.10060830011256" lon="10.038926719510911"><ele>38.0</ele><time>2026-03-29T09:22:59Z</time></trkpt><trkpt lat="45.10067178436957" lon="10.03896423514462"><ele>38.0</ele><time>2026-03-29T09:23:00Z</time></trkpt><trkpt lat="45.10073469391437" lon="10.039002154844058"><ele>38.0</ele><time>2026-03-29T09:23:01Z</time></trkpt><trkpt lat="45.10079476261207" lon="10.039038362239543"><ele>38.0</ele><time>2026-03-29T09:23:02Z</time></trkpt><trkpt lat="45.10085397307426" lon="10.039074052213433"><ele>38.0</ele><time>2026-03-29T09:23:03Z</time></trkpt><trkpt lat="45.100911934614935" lon="10.039108989490849"><ele>38.0</ele><time>2026-03-29T09:23:04Z</time></trkpt><trkpt lat="45.10097245360364" lon="10.039145468198827"><ele>37.857142857142854</ele><time>2026-03-29T09:23:05Z</time></trkpt><trkpt lat="45.1010307919393" lon="10.039181102168628"><ele>37.714285714285715</ele><time>2026-03-29T09:23:06Z</time></trkpt><trkpt lat="45.10109122739684" lon="10.0392180905979"><ele>37.57142857142857</ele><time>2026-03-29T09:23:07Z</time></trkpt><trkpt lat="45.10115466358622" lon="10.039256915569691"><ele>37.42857142857143</ele><time>2026-03-29T09:23:08Z</time></trkpt><trkpt lat="45.101216727205866" lon="10.039294900548322"><ele>37.285714285714285</ele><time>2026-03-29T09:23:09Z</time></trkpt><trkpt lat="45.10128045096716" lon="10.039333901492359"><ele>37.142857142857146</ele><time>2026-03-29T09:23:10Z</time></trkpt><trkpt lat="45.101343425405275" lon="10.039372443891919"><ele>37.0</ele><time>2026-03-29T09:23:11Z</time></trkpt><trkpt lat="45.101405876554274" lon="10.03941066596765"><ele>37.0</ele><time>2026-03-29T09:23:11.999Z</time></trkpt><trkpt lat="45.101469497344596" lon="10.039449603935322"><ele>37.0</ele><time>2026-03-29T09:23:12.999Z</time></trkpt><trkpt lat="45.10153270354789" lon="10.039488288188513"><ele>37.0</ele><time>2026-03-29T09:23:13.999Z</time></trkpt><trkpt lat="45.10159566425991" lon="10.03952682220338"><ele>37.0</ele><time>2026-03-29T09:23:14.999Z</time></trkpt><trkpt lat="45.10165984088935" lon="10.039566099055675"><ele>37.0</ele><time>2026-03-29T09:23:15.999Z</time></trkpt><trkpt lat="45.10172482848154" lon="10.039605871818354"><ele>37.0</ele><time>2026-03-29T09:23:16.999Z</time></trkpt><trkpt lat="45.101785517076415" lon="10.039644681064795"><ele>37.0</ele><time>2026-03-29T09:23:17.999Z</time></trkpt><trkpt lat="45.10184658892404" lon="10.039682648851802"><ele>36.85714285714286</ele><time>2026-03-29T09:23:18.999Z</time></trkpt><trkpt lat="45.101907988559574" lon="10.039720820323806"><ele>36.714285714285715</ele><time>2026-03-29T09:23:19.999Z</time></trkpt><trkpt lat="45.101972244967506" lon="10.039758666583895"><ele>36.57142857142857</ele><time>2026-03-29T09:23:20.999Z</time></trkpt><trkpt lat="45.10203815170367" lon="10.039795558249615"><ele>36.42857142857143</ele><time>2026-03-29T09:23:21.999Z</time></trkpt><trkpt lat="45.102102304663305" lon="10.039830260085774"><ele>36.285714285714285</ele><time>2026-03-29T09:23:22.999Z</time></trkpt><trkpt lat="45.10217085920517" lon="10.039862609728601"><ele>36.142857142857146</ele><time>2026-03-29T09:23:23.999Z</time></trkpt><trkpt lat="45.10223545880467" lon="10.039893030922372"><ele>36.0</ele><time>2026-03-29T09:23:24.999Z</time></trkpt><trkpt lat="45.10230139815429" lon="10.039923820612263"><ele>36.00000000000001</ele><time>2026-03-29T09:23:25.999Z</time></trkpt><trkpt lat="45.10236795042004" lon="10.039954375026706"><ele>36.0</ele><time>2026-03-29T09:23:26.999Z</time></trkpt><trkpt lat="45.10243472418369" lon="10.039983916133655"><ele>36.0</ele><time>2026-03-29T09:23:27.999Z</time></trkpt><trkpt lat="45.10250072111481" lon="10.040013113534354"><ele>36.0</ele><time>2026-03-29T09:23:28.999Z</time></trkpt><trkpt lat="45.10256782793685" lon="10.040042801937616"><ele>36.0</ele><time>2026-03-29T09:23:29.999Z</time></trkpt><trkpt lat="45.10263575772759" lon="10.040072856312939"><ele>36.00000000000001</ele><time>2026-03-29T09:23:30.999Z</time></trkpt><trkpt lat="45.102705141442534" lon="10.040103552048175"><ele>36.0</ele><time>2026-03-29T09:23:31.999Z</time></trkpt><trkpt lat="45.10277297966892" lon="10.040133564027686"><ele>35.85714285714286</ele><time>2026-03-29T09:23:32.999Z</time></trkpt><trkpt lat="45.102843673750996" lon="10.04016483948664"><ele>35.714285714285715</ele><time>2026-03-29T09:23:33.999Z</time></trkpt><trkpt lat="45.102911405379636" lon="10.04019483187367"><ele>35.57142857142857</ele><time>2026-03-29T09:23:34.999Z</time></trkpt><trkpt lat="45.102979432413804" lon="10.04022544035372"><ele>35.42857142857143</ele><time>2026-03-29T09:23:35.999Z</time></trkpt><trkpt lat="45.1030477058099" lon="10.040256159565727"><ele>35.285714285714285</ele><time>2026-03-29T09:23:36.999Z</time></trkpt><trkpt lat="45.103116744705694" lon="10.04028643035782"><ele>35.142857142857146</ele><time>2026-03-29T09:23:37.999Z</time></trkpt><trkpt lat="45.10318579252877" lon="10.040315852787877"><ele>35.0</ele><time>2026-03-29T09:23:38.999Z</time></trkpt><trkpt lat="45.10325791741699" lon="10.040343181493274"><ele>35.285714285714285</ele><time>2026-03-29T09:23:39.999Z</time></trkpt><trkpt lat="45.10332821102691" lon="10.040368980727985"><ele>35.57142857142857</ele><time>2026-03-29T09:23:40.999Z</time></trkpt><trkpt lat="45.103400127290705" lon="10.040393708394646"><ele>35.85714285714286</ele><time>2026-03-29T09:23:41.999Z</time></trkpt><trkpt lat="45.10347052311166" lon="10.040417813742843"><ele>36.14285714285714</ele><time>2026-03-29T09:23:42.999Z</time></trkpt><trkpt lat="45.103541259698964" lon="10.040442036311383"><ele>36.42857142857143</ele><time>2026-03-29T09:23:43.999Z</time></trkpt><trkpt lat="45.1036128187681" lon="10.040464846909622"><ele>36.714285714285715</ele><time>2026-03-29T09:23:44.999Z</time></trkpt><trkpt lat="45.10368457700422" lon="10.04048762798648"><ele>37.0</ele><time>2026-03-29T09:23:45.999Z</time></trkpt><trkpt lat="45.10375500475507" lon="10.040509662334767"><ele>37.0</ele><time>2026-03-29T09:23:46.999Z</time></trkpt><trkpt lat="45.10382338490554" lon="10.040531056049435"><ele>37.0</ele><time>2026-03-29T09:23:47.999Z</time></trkpt><trkpt lat="45.10389324484109" lon="10.040552912764134"><ele>37.0</ele><time>2026-03-29T09:23:48.999Z</time></trkpt><trkpt lat="45.103962419792204" lon="10.040574555209535"><ele>37.0</ele><time>2026-03-29T09:23:49.999Z</time></trkpt><trkpt lat="45.1040308880998" lon="10.040597551247801"><ele>37.0</ele><time>2026-03-29T09:23:50.999Z</time></trkpt><trkpt lat="45.104102193980985" lon="10.040621496906912"><ele>37.0</ele><time>2026-03-29T09:23:51.999Z</time></trkpt><trkpt lat="45.10417179315683" lon="10.04064577640575"><ele>37.0</ele><time>2026-03-29T09:23:52.999Z</time></trkpt><trkpt lat="45.10424107988407" lon="10.04067005719838"><ele>37.333333333333336</ele><time>2026-03-29T09:23:53.999Z</time></trkpt><trkpt lat="45.104307027202566" lon="10.040693167727323"><ele>37.66666666666667</ele><time>2026-03-29T09:23:54.999Z</time></trkpt><trkpt lat="45.10437105824627" lon="10.040715606714508"><ele>38.0</ele><time>2026-03-29T09:23:55.999Z</time></trkpt><trkpt lat="45.10443655862013" lon="10.040738560616177"><ele>38.333333333333336</ele><time>2026-03-29T09:23:56.999Z</time></trkpt><trkpt lat="45.10450086577201" lon="10.040761096359343"><ele>38.666666666666664</ele><time>2026-03-29T09:23:57.999Z</time></trkpt><trkpt lat="45.10456419791521" lon="10.040783115300805"><ele>39.0</ele><time>2026-03-29T09:23:58.999Z</time></trkpt><trkpt lat="45.104681651294904" lon="10.040823334796487"><ele>39.0</ele><time>2026-03-29T09:24:00.999Z</time></trkpt><trkpt lat="45.10479517309002" lon="10.04086220802424"><ele>39.0</ele><time>2026-03-29T09:24:02.999Z</time></trkpt><trkpt lat="45.10490522257564" lon="10.040899892558064"><ele>39.0</ele><time>2026-03-29T09:24:04.999Z</time></trkpt><trkpt lat="45.10500179821701" lon="10.040939336336542"><ele>39.0</ele><time>2026-03-29T09:24:06.998Z</time></trkpt><trkpt lat="45.10510725563768" lon="10.040985640920304"><ele>39.0</ele><time>2026-03-29T09:24:08.998Z</time></trkpt><trkpt lat="45.10518446666713" lon="10.04100344407171"><ele>39.0</ele><time>2026-03-29T09:24:10.998Z</time></trkpt><trkpt lat="45.105110365485515" lon="10.041207843236094"><ele>39.0</ele><time>2026-03-29T09:24:13.998Z</time></trkpt><trkpt lat="45.10504685685834" lon="10.041320038590316"><ele>39.0</ele><time>2026-03-29T09:24:15.998Z</time></trkpt><trkpt lat="45.104995093340676" lon="10.041411207180833"><ele>39.0</ele><time>2026-03-29T09:24:17.998Z</time></trkpt><trkpt lat="45.10490962586856" lon="10.041560739063412"><ele>39.0</ele><time>2026-03-29T09:24:19.998Z</time></trkpt><trkpt lat="45.10486918877556" lon="10.041630100445339"><ele>39.0</ele><time>2026-03-29T09:24:20.998Z</time></trkpt><trkpt lat="45.10481903280958" lon="10.04171582460906"><ele>39.0</ele><time>2026-03-29T09:24:21.998Z</time></trkpt><trkpt lat="45.104772069456985" lon="10.041796082518392"><ele>39.0</ele><time>2026-03-29T09:24:22.998Z</time></trkpt><trkpt lat="45.10472762021599" lon="10.041872041408237"><ele>39.0</ele><time>2026-03-29T09:24:24Z</time></trkpt><trkpt lat="45.10468463645764" lon="10.041945496093023"><ele>39.0</ele><time>2026-03-29T09:24:25Z</time></trkpt><trkpt lat="45.10464436200963" lon="10.042014320900819"><ele>39.0</ele><time>2026-03-29T09:24:26Z</time></trkpt><trkpt lat="45.104603113935745" lon="10.042084809377602"><ele>38.6</ele><time>2026-03-29T09:24:27Z</time></trkpt><trkpt lat="45.104525418366705" lon="10.042217666560054"><ele>38.2</ele><time>2026-03-29T09:24:29Z</time></trkpt><trkpt lat="45.10449793458284" lon="10.042299089810324"><ele>37.800000000000004</ele><time>2026-03-29T09:24:30Z</time></trkpt><trkpt lat="45.104413710570704" lon="10.042428306816218"><ele>37.4</ele><time>2026-03-29T09:24:32Z</time></trkpt><trkpt lat="45.10434833480001" lon="10.042468760062402"><ele>37.0</ele><time>2026-03-29T09:24:34Z</time></trkpt><trkpt lat="45.10430494665971" lon="10.042606761918105"><ele>37.0</ele><time>2026-03-29T09:24:35Z</time></trkpt><trkpt lat="45.10423305980523" lon="10.042742527407846"><ele>37.0</ele><time>2026-03-29T09:24:37Z</time></trkpt><trkpt lat="45.10419144156159" lon="10.04281154585383"><ele>37.0</ele><time>2026-03-29T09:24:38Z</time></trkpt><trkpt lat="45.10411243841002" lon="10.042946138349706"><ele>37.0</ele><time>2026-03-29T09:24:40Z</time></trkpt><trkpt lat="45.104033237477005" lon="10.043074827076682"><ele>37.0</ele><time>2026-03-29T09:24:42Z</time></trkpt><trkpt lat="45.103959376674794" lon="10.043194616520193"><ele>36.800000000000004</ele><time>2026-03-29T09:24:44Z</time></trkpt><trkpt lat="45.10388909965139" lon="10.043290532384429"><ele>36.6</ele><time>2026-03-29T09:24:46Z</time></trkpt><trkpt lat="45.10391768615703" lon="10.043447115784906"><ele>36.400000000000006</ele><time>2026-03-29T09:24:47Z</time></trkpt><trkpt lat="45.103973955800406" lon="10.043603855413561"><ele>36.2</ele><time>2026-03-29T09:24:49Z</time></trkpt><trkpt lat="45.104002709358674" lon="10.043684429624497"><ele>36.0</ele><time>2026-03-29T09:24:50Z</time></trkpt><trkpt lat="45.104060971019436" lon="10.04384769232172"><ele>36.0</ele><time>2026-03-29T09:24:52Z</time></trkpt><trkpt lat="45.1040907083245" lon="10.04393102326739"><ele>36.0</ele><time>2026-03-29T09:24:53Z</time></trkpt><trkpt lat="45.104146045920714" lon="10.04409050297621"><ele>36.0</ele><time>2026-03-29T09:24:55Z</time></trkpt><trkpt lat="45.104173557559214" lon="10.044174007666824"><ele>36.0</ele><time>2026-03-29T09:24:56Z</time></trkpt><trkpt lat="45.10422052173801" lon="10.044340151122892"><ele>36.0</ele><time>2026-03-29T09:24:58Z</time></trkpt><trkpt lat="45.10424228949183" lon="10.044428741026165"><ele>36.0</ele><time>2026-03-29T09:24:59Z</time></trkpt><trkpt lat="45.104262968053845" lon="10.04452008234063"><ele>36.00000000000001</ele><time>2026-03-29T09:25:00Z</time></trkpt><trkpt lat="45.10428333551818" lon="10.044612432568357"><ele>36.0</ele><time>2026-03-29T09:25:01Z</time></trkpt><trkpt lat="45.10431850528517" lon="10.044696882201558"><ele>36.0</ele><time>2026-03-29T09:25:02Z</time></trkpt><trkpt lat="45.10433819908751" lon="10.044789976378615"><ele>36.0</ele><time>2026-03-29T09:25:03Z</time></trkpt><trkpt lat="45.10435785855957" lon="10.044882774422257"><ele>36.0</ele><time>2026-03-29T09:25:04Z</time></trkpt><trkpt lat="45.10437697847586" lon="10.044976010440388"><ele>36.00000000000001</ele><time>2026-03-29T09:25:05Z</time></trkpt><trkpt lat="45.10439648846882" lon="10.045069891652883"><ele>36.0</ele><time>2026-03-29T09:25:06Z</time></trkpt><trkpt lat="45.104417275283915" lon="10.045161460088323"><ele>35.85714285714286</ele><time>2026-03-29T09:25:07Z</time></trkpt><trkpt lat="45.10443903624412" lon="10.04525442565204"><ele>35.714285714285715</ele><time>2026-03-29T09:25:08Z</time></trkpt><trkpt lat="45.10446040938703" lon="10.045348625268508"><ele>35.57142857142857</ele><time>2026-03-29T09:25:09Z</time></trkpt><trkpt lat="45.10448338219695" lon="10.045441803404392"><ele>35.42857142857143</ele><time>2026-03-29T09:25:10Z</time></trkpt><trkpt lat="45.104504798945364" lon="10.045535111515692"><ele>35.285714285714285</ele><time>2026-03-29T09:25:11Z</time></trkpt><trkpt lat="45.10452547336474" lon="10.045629336108226"><ele>35.142857142857146</ele><time>2026-03-29T09:25:12Z</time></trkpt><trkpt lat="45.10454551704119" lon="10.045721525396866"><ele>35.0</ele><time>2026-03-29T09:25:13Z</time></trkpt><trkpt lat="45.104567194741314" lon="10.045815919421571"><ele>34.714285714285715</ele><time>2026-03-29T09:25:14Z</time></trkpt><trkpt lat="45.10458872037361" lon="10.045906270797598"><ele>34.42857142857143</ele><time>2026-03-29T09:25:15Z</time></trkpt><trkpt lat="45.104606259832885" lon="10.045998568624668"><ele>34.14285714285714</ele><time>2026-03-29T09:25:16Z</time></trkpt><trkpt lat="45.104625735652874" lon="10.046089172203553"><ele>33.85714285714286</ele><time>2026-03-29T09:25:16.999Z</time></trkpt><trkpt lat="45.10464639950861" lon="10.046178920639276"><ele>33.57142857142857</ele><time>2026-03-29T09:25:17.999Z</time></trkpt><trkpt lat="45.104668129265484" lon="10.046268977896826"><ele>33.285714285714285</ele><time>2026-03-29T09:25:18.999Z</time></trkpt><trkpt lat="45.10468871116765" lon="10.04636277557156"><ele>33.0</ele><time>2026-03-29T09:25:19.999Z</time></trkpt><trkpt lat="45.10470688115577" lon="10.046454077157907"><ele>33.0</ele><time>2026-03-29T09:25:20.999Z</time></trkpt><trkpt lat="45.10472842576806" lon="10.0465463340747"><ele>33.0</ele><time>2026-03-29T09:25:21.999Z</time></trkpt><trkpt lat="45.10474797289371" lon="10.046636087429187"><ele>33.0</ele><time>2026-03-29T09:25:22.999Z</time></trkpt><trkpt lat="45.10477011944073" lon="10.046728368677394"><ele>33.0</ele><time>2026-03-29T09:25:23.999Z</time></trkpt><trkpt lat="45.10479185372975" lon="10.046818061423501"><ele>33.0</ele><time>2026-03-29T09:25:24.999Z</time></trkpt><trkpt lat="45.104818575836866" lon="10.046909343313716"><ele>33.0</ele><time>2026-03-29T09:25:25.999Z</time></trkpt><trkpt lat="45.10483877903295" lon="10.04699939709038"><ele>33.0</ele><time>2026-03-29T09:25:26.999Z</time></trkpt><trkpt lat="45.10485352084841" lon="10.047094359970671"><ele>33.0</ele><time>2026-03-29T09:25:27.999Z</time></trkpt><trkpt lat="45.104869562796644" lon="10.047185245194976"><ele>33.0</ele><time>2026-03-29T09:25:28.999Z</time></trkpt><trkpt lat="45.10489445921294" lon="10.04727899341732"><ele>33.0</ele><time>2026-03-29T09:25:29.999Z</time></trkpt><trkpt lat="45.10491778189933" lon="10.047366434988227"><ele>33.0</ele><time>2026-03-29T09:25:30.999Z</time></trkpt><trkpt lat="45.104940996963386" lon="10.04745461432986"><ele>33.0</ele><time>2026-03-29T09:25:31.999Z</time></trkpt><trkpt lat="45.10496480832964" lon="10.047541771082495"><ele>33.0</ele><time>2026-03-29T09:25:32.999Z</time></trkpt><trkpt lat="45.104988573983256" lon="10.047628763237153"><ele>33.0</ele><time>2026-03-29T09:25:33.999Z</time></trkpt><trkpt lat="45.105011662295425" lon="10.047718268863951"><ele>33.285714285714285</ele><time>2026-03-29T09:25:34.999Z</time></trkpt><trkpt lat="45.105032452685606" lon="10.047808641918397"><ele>33.57142857142857</ele><time>2026-03-29T09:25:35.999Z</time></trkpt><trkpt lat="45.10505035841748" lon="10.047902644535947"><ele>33.85714285714286</ele><time>2026-03-29T09:25:36.999Z</time></trkpt><trkpt lat="45.10506556736814" lon="10.047996687169475"><ele>34.14285714285714</ele><time>2026-03-29T09:25:37.999Z</time></trkpt><trkpt lat="45.10507762552945" lon="10.048092605650798"><ele>34.42857142857143</ele><time>2026-03-29T09:25:38.999Z</time></trkpt><trkpt lat="45.105087259998854" lon="10.048185539189484"><ele>34.714285714285715</ele><time>2026-03-29T09:25:39.999Z</time></trkpt><trkpt lat="45.10509679206091" lon="10.04827969237583"><ele>35.0</ele><time>2026-03-29T09:25:40.999Z</time></trkpt><trkpt lat="45.105106692479374" lon="10.048372212955597"><ele>35.0</ele><time>2026-03-29T09:25:41.999Z</time></trkpt><trkpt lat="45.105116435948446" lon="10.048466347193207"><ele>35.0</ele><time>2026-03-29T09:25:42.999Z</time></trkpt><trkpt lat="45.10512810405464" lon="10.048559578768282"><ele>35.0</ele><time>2026-03-29T09:25:43.999Z</time></trkpt><trkpt lat="45.10513852502158" lon="10.048649634855506"><ele>35.0</ele><time>2026-03-29T09:25:44.999Z</time></trkpt><trkpt lat="45.105149180408816" lon="10.048741244404285"><ele>35.0</ele><time>2026-03-29T09:25:45.999Z</time></trkpt><trkpt lat="45.10515648269305" lon="10.048833559025148"><ele>35.0</ele><time>2026-03-29T09:25:46.999Z</time></trkpt><trkpt lat="45.10516523327262" lon="10.048923465997357"><ele>35.0</ele><time>2026-03-29T09:25:47.999Z</time></trkpt><trkpt lat="45.10517375176277" lon="10.049015496269492"><ele>34.666666666666664</ele><time>2026-03-29T09:25:48.999Z</time></trkpt><trkpt lat="45.1051873486231" lon="10.049192497301618"><ele>34.33333333333333</ele><time>2026-03-29T09:25:50.999Z</time></trkpt><trkpt lat="45.10519553844074" lon="10.049285048575506"><ele>34.0</ele><time>2026-03-29T09:25:51.999Z</time></trkpt><trkpt lat="45.10520143741862" lon="10.04937697219309"><ele>33.666666666666664</ele><time>2026-03-29T09:25:52.999Z</time></trkpt><trkpt lat="45.105204695590785" lon="10.04946787703733"><ele>33.333333333333336</ele><time>2026-03-29T09:25:53.999Z</time></trkpt><trkpt lat="45.10520762439975" lon="10.049558816881294"><ele>33.0</ele><time>2026-03-29T09:25:54.999Z</time></trkpt><trkpt lat="45.105209811135374" lon="10.049652701376477"><ele>33.0</ele><time>2026-03-29T09:25:55.999Z</time></trkpt><trkpt lat="45.105213935006326" lon="10.049745121811307"><ele>33.0</ele><time>2026-03-29T09:25:56.999Z</time></trkpt><trkpt lat="45.10521776146137" lon="10.049834976204927"><ele>33.0</ele><time>2026-03-29T09:25:57.999Z</time></trkpt><trkpt lat="45.10521720777236" lon="10.049926230826873"><ele>33.0</ele><time>2026-03-29T09:25:58.999Z</time></trkpt><trkpt lat="45.10521875527061" lon="10.05001783444255"><ele>33.0</ele><time>2026-03-29T09:25:59.999Z</time></trkpt><trkpt lat="45.10521810059876" lon="10.050108320475362"><ele>33.0</ele><time>2026-03-29T09:26:00.999Z</time></trkpt><trkpt lat="45.10521853596419" lon="10.05020159996752"><ele>33.0</ele><time>2026-03-29T09:26:01.999Z</time></trkpt><trkpt lat="45.10521944288745" lon="10.050294389689265"><ele>33.0</ele><time>2026-03-29T09:26:02.999Z</time></trkpt><trkpt lat="45.105219921260385" lon="10.050385140375326"><ele>33.0</ele><time>2026-03-29T09:26:03.999Z</time></trkpt><trkpt lat="45.10521984364081" lon="10.050476644008498"><ele>33.0</ele><time>2026-03-29T09:26:04.999Z</time></trkpt><trkpt lat="45.10521988291334" lon="10.050571097292204"><ele>33.0</ele><time>2026-03-29T09:26:05.999Z</time></trkpt><trkpt lat="45.10522065827016" lon="10.050665259431144"><ele>33.0</ele><time>2026-03-29T09:26:06.999Z</time></trkpt><trkpt lat="45.10522127204759" lon="10.050757370725787"><ele>33.0</ele><time>2026-03-29T09:26:07.999Z</time></trkpt><trkpt lat="45.105222116691216" lon="10.050848704151804"><ele>33.0</ele><time>2026-03-29T09:26:08.999Z</time></trkpt><trkpt lat="45.105223334554985" lon="10.050941861917437"><ele>33.0</ele><time>2026-03-29T09:26:09.999Z</time></trkpt><trkpt lat="45.105223480721484" lon="10.051121706058598"><ele>33.0</ele><time>2026-03-29T09:26:11.998Z</time></trkpt><trkpt lat="45.10521579895134" lon="10.0512835029018"><ele>33.0</ele><time>2026-03-29T09:26:13.998Z</time></trkpt><trkpt lat="45.105177712807375" lon="10.051407960877848"><ele>33.0</ele><time>2026-03-29T09:26:15.998Z</time></trkpt><trkpt lat="45.10506034273999" lon="10.051446636039161"><ele>33.0</ele><time>2026-03-29T09:26:17.998Z</time></trkpt><trkpt lat="45.104993945129365" lon="10.051440726852563"><ele>33.0</ele><time>2026-03-29T09:26:18.998Z</time></trkpt><trkpt lat="45.10492982298158" lon="10.051438549569992"><ele>33.0</ele><time>2026-03-29T09:26:19.998Z</time></trkpt><trkpt lat="45.10486389327467" lon="10.051437969165033"><ele>33.0</ele><time>2026-03-29T09:26:20.998Z</time></trkpt><trkpt lat="45.10479549516874" lon="10.0514355728267"><ele>33.0</ele><time>2026-03-29T09:26:21.998Z</time></trkpt><trkpt lat="45.104726488460045" lon="10.051427639681181"><ele>33.0</ele><time>2026-03-29T09:26:22.998Z</time></trkpt><trkpt lat="45.10465958865147" lon="10.051422327694933"><ele>33.0</ele><time>2026-03-29T09:26:23.998Z</time></trkpt><trkpt lat="45.1045918212582" lon="10.051414152114468"><ele>33.0</ele><time>2026-03-29T09:26:24.998Z</time></trkpt><trkpt lat="45.10452522764683" lon="10.051399460119372"><ele>33.0</ele><time>2026-03-29T09:26:25.998Z</time></trkpt><trkpt lat="45.104457645367056" lon="10.051388569234241"><ele>33.0</ele><time>2026-03-29T09:26:26.998Z</time></trkpt><trkpt lat="45.10438961425673" lon="10.051378808306163"><ele>33.0</ele><time>2026-03-29T09:26:27.998Z</time></trkpt><trkpt lat="45.104321722527175" lon="10.051370097980973"><ele>33.0</ele><time>2026-03-29T09:26:28.998Z</time></trkpt><trkpt lat="45.10425076666593" lon="10.051363209237888"><ele>33.0</ele><time>2026-03-29T09:26:30Z</time></trkpt><trkpt lat="45.104180106518065" lon="10.051352937354133"><ele>33.0</ele><time>2026-03-29T09:26:31Z</time></trkpt><trkpt lat="45.104108563016446" lon="10.051338128712587"><ele>33.14285714285714</ele><time>2026-03-29T09:26:32Z</time></trkpt><trkpt lat="45.10403847132203" lon="10.051323532595477"><ele>33.285714285714285</ele><time>2026-03-29T09:26:33Z</time></trkpt><trkpt lat="45.10396682193952" lon="10.051310396889454"><ele>33.42857142857143</ele><time>2026-03-29T09:26:34Z</time></trkpt><trkpt lat="45.103895365572406" lon="10.051298076530443"><ele>33.57142857142857</ele><time>2026-03-29T09:26:35Z</time></trkpt><trkpt lat="45.103824597032904" lon="10.051286355432481"><ele>33.714285714285715</ele><time>2026-03-29T09:26:36Z</time></trkpt><trkpt lat="45.10375400435095" lon="10.051273997085625"><ele>33.857142857142854</ele><time>2026-03-29T09:26:37Z</time></trkpt><trkpt lat="45.103683707343805" lon="10.051263765067917"><ele>34.0</ele><time>2026-03-29T09:26:38Z</time></trkpt><trkpt lat="45.10361422484341" lon="10.05125101715363"><ele>33.99999999999999</ele><time>2026-03-29T09:26:39Z</time></trkpt><trkpt lat="45.103544917639766" lon="10.051235932654563"><ele>34.0</ele><time>2026-03-29T09:26:40Z</time></trkpt><trkpt lat="45.103475006914344" lon="10.051224292247078"><ele>34.0</ele><time>2026-03-29T09:26:41Z</time></trkpt><trkpt lat="45.103405175759754" lon="10.051213035696788"><ele>34.0</ele><time>2026-03-29T09:26:42Z</time></trkpt><trkpt lat="45.10333677787611" lon="10.051202384052777"><ele>34.0</ele><time>2026-03-29T09:26:43Z</time></trkpt><trkpt lat="45.103270006681136" lon="10.051192616910416"><ele>33.99999999999999</ele><time>2026-03-29T09:26:44Z</time></trkpt><trkpt lat="45.103199351602946" lon="10.051179443748655"><ele>34.0</ele><time>2026-03-29T09:26:45Z</time></trkpt><trkpt lat="45.10313013605762" lon="10.051168140846935"><ele>34.14285714285714</ele><time>2026-03-29T09:26:46Z</time></trkpt><trkpt lat="45.10305974941084" lon="10.05115667757747"><ele>34.285714285714285</ele><time>2026-03-29T09:26:47Z</time></trkpt><trkpt lat="45.10298998341978" lon="10.051145869988698"><ele>34.42857142857143</ele><time>2026-03-29T09:26:48Z</time></trkpt><trkpt lat="45.10291762613623" lon="10.051135086235195"><ele>34.57142857142857</ele><time>2026-03-29T09:26:49Z</time></trkpt><trkpt lat="45.10284585597279" lon="10.051127074134818"><ele>34.714285714285715</ele><time>2026-03-29T09:26:50Z</time></trkpt><trkpt lat="45.102773918542724" lon="10.051117998939509"><ele>34.857142857142854</ele><time>2026-03-29T09:26:51Z</time></trkpt><trkpt lat="45.10270101048924" lon="10.051108104364287"><ele>35.0</ele><time>2026-03-29T09:26:52Z</time></trkpt><trkpt lat="45.10262769040032" lon="10.05109705787332"><ele>35.0</ele><time>2026-03-29T09:26:53Z</time></trkpt><trkpt lat="45.10255764858998" lon="10.05108802188036"><ele>35.0</ele><time>2026-03-29T09:26:54Z</time></trkpt><trkpt lat="45.10248476005092" lon="10.051081290869314"><ele>35.0</ele><time>2026-03-29T09:26:55Z</time></trkpt><trkpt lat="45.10241447729846" lon="10.051073463254184"><ele>35.0</ele><time>2026-03-29T09:26:56Z</time></trkpt><trkpt lat="45.10234256050795" lon="10.051067466179196"><ele>35.0</ele><time>2026-03-29T09:26:57Z</time></trkpt><trkpt lat="45.102272514908755" lon="10.05105902503223"><ele>35.0</ele><time>2026-03-29T09:26:58Z</time></trkpt><trkpt lat="45.10220110934096" lon="10.051051727631721"><ele>35.0</ele><time>2026-03-29T09:26:59Z</time></trkpt><trkpt lat="45.102129457421306" lon="10.05104559475483"><ele>35.285714285714285</ele><time>2026-03-29T09:27:00Z</time></trkpt><trkpt lat="45.10205587369837" lon="10.051038222707962"><ele>35.57142857142857</ele><time>2026-03-29T09:27:01Z</time></trkpt><trkpt lat="45.10198484051673" lon="10.0510301177368"><ele>35.85714285714286</ele><time>2026-03-29T09:27:02Z</time></trkpt><trkpt lat="45.10191277243975" lon="10.051018029442691"><ele>36.14285714285714</ele><time>2026-03-29T09:27:03Z</time></trkpt><trkpt lat="45.10184122539562" lon="10.051003514981804"><ele>36.42857142857143</ele><time>2026-03-29T09:27:04Z</time></trkpt><trkpt lat="45.101773075216265" lon="10.050986740272533"><ele>36.714285714285715</ele><time>2026-03-29T09:27:05Z</time></trkpt><trkpt lat="45.10170302572832" lon="10.050985107572965"><ele>37.0</ele><time>2026-03-29T09:27:06Z</time></trkpt><trkpt lat="45.101639587797834" lon="10.050978755528448"><ele>37.0</ele><time>2026-03-29T09:27:07Z</time></trkpt><trkpt lat="45.10157582859374" lon="10.051048489276683"><ele>37.0</ele><time>2026-03-29T09:27:08Z</time></trkpt><trkpt lat="45.10154144063766" lon="10.051264097046872"><ele>37.0</ele><time>2026-03-29T09:27:10Z</time></trkpt><trkpt lat="45.10153920660234" lon="10.051360142022375"><ele>37.0</ele><time>2026-03-29T09:27:11Z</time></trkpt><trkpt lat="45.101535301115554" lon="10.051457407474862"><ele>37.0</ele><time>2026-03-29T09:27:12Z</time></trkpt><trkpt lat="45.101527338165724" lon="10.051554414397422"><ele>37.0</ele><time>2026-03-29T09:27:13Z</time></trkpt><trkpt lat="45.101521193943285" lon="10.051650912849313"><ele>36.85714285714286</ele><time>2026-03-29T09:27:14Z</time></trkpt><trkpt lat="45.101515369516484" lon="10.051750058407706"><ele>36.714285714285715</ele><time>2026-03-29T09:27:15Z</time></trkpt><trkpt lat="45.10150778981725" lon="10.051845343991815"><ele>36.57142857142857</ele><time>2026-03-29T09:27:16Z</time></trkpt><trkpt lat="45.10149888783378" lon="10.05194584743275"><ele>36.42857142857143</ele><time>2026-03-29T09:27:17Z</time></trkpt><trkpt lat="45.10149105333975" lon="10.052045840046674"><ele>36.285714285714285</ele><time>2026-03-29T09:27:18Z</time></trkpt><trkpt lat="45.10148579498523" lon="10.052145926660168"><ele>36.142857142857146</ele><time>2026-03-29T09:27:19Z</time></trkpt><trkpt lat="45.101479157453205" lon="10.05224637994047"><ele>36.0</ele><time>2026-03-29T09:27:20Z</time></trkpt><trkpt lat="45.10147095780283" lon="10.052344221246937"><ele>36.00000000000001</ele><time>2026-03-29T09:27:21Z</time></trkpt><trkpt lat="45.10146444615614" lon="10.05244401066684"><ele>36.0</ele><time>2026-03-29T09:27:22Z</time></trkpt><trkpt lat="45.101457560752934" lon="10.052543205927435"><ele>36.0</ele><time>2026-03-29T09:27:23Z</time></trkpt><trkpt lat="45.10145143861008" lon="10.052642405444042"><ele>36.0</ele><time>2026-03-29T09:27:23.999Z</time></trkpt><trkpt lat="45.10144536446074" lon="10.052739162541977"><ele>36.0</ele><time>2026-03-29T09:27:24.999Z</time></trkpt><trkpt lat="45.10143598177455" lon="10.052837579310436"><ele>36.00000000000001</ele><time>2026-03-29T09:27:25.999Z</time></trkpt><trkpt lat="45.10142888165375" lon="10.052933196922583"><ele>36.0</ele><time>2026-03-29T09:27:26.999Z</time></trkpt><trkpt lat="45.10142098731169" lon="10.053028687516095"><ele>35.85714285714286</ele><time>2026-03-29T09:27:27.999Z</time></trkpt><trkpt lat="45.101396407019514" lon="10.053121459546755"><ele>35.714285714285715</ele><time>2026-03-29T09:27:28.999Z</time></trkpt><trkpt lat="45.1013883645825" lon="10.053216755768187"><ele>35.57142857142857</ele><time>2026-03-29T09:27:29.999Z</time></trkpt><trkpt lat="45.10138106872784" lon="10.053308365151276"><ele>35.42857142857143</ele><time>2026-03-29T09:27:30.999Z</time></trkpt><trkpt lat="45.10137376424019" lon="10.05340542186339"><ele>35.285714285714285</ele><time>2026-03-29T09:27:31.999Z</time></trkpt><trkpt lat="45.10136740475746" lon="10.053498972861602"><ele>35.142857142857146</ele><time>2026-03-29T09:27:32.999Z</time></trkpt><trkpt lat="45.10136211110561" lon="10.053595029573096"><ele>35.0</ele><time>2026-03-29T09:27:33.999Z</time></trkpt><trkpt lat="45.10135768397253" lon="10.053690031204825"><ele>35.0</ele><time>2026-03-29T09:27:34.999Z</time></trkpt><trkpt lat="45.101354219366314" lon="10.053790424032478"><ele>35.0</ele><time>2026-03-29T09:27:35.999Z</time></trkpt><trkpt lat="45.10135137424662" lon="10.053887507285415"><ele>35.0</ele><time>2026-03-29T09:27:36.999Z</time></trkpt><trkpt lat="45.101351166543" lon="10.053989337745506"><ele>35.0</ele><time>2026-03-29T09:27:37.999Z</time></trkpt><trkpt lat="45.10135497738883" lon="10.054086100280202"><ele>35.0</ele><time>2026-03-29T09:27:38.999Z</time></trkpt><trkpt lat="45.101363994568146" lon="10.05418315873767"><ele>35.0</ele><time>2026-03-29T09:27:39.999Z</time></trkpt><trkpt lat="45.10139540729252" lon="10.054274876213256"><ele>35.0</ele><time>2026-03-29T09:27:40.999Z</time></trkpt><trkpt lat="45.10141377131958" lon="10.05436890833967"><ele>35.0</ele><time>2026-03-29T09:27:41.999Z</time></trkpt><trkpt lat="45.101442507210756" lon="10.054457198660762"><ele>35.0</ele><time>2026-03-29T09:27:42.999Z</time></trkpt><trkpt lat="45.10145880495925" lon="10.054551843523075"><ele>35.0</ele><time>2026-03-29T09:27:43.999Z</time></trkpt><trkpt lat="45.10148536455404" lon="10.054638150011472"><ele>35.0</ele><time>2026-03-29T09:27:44.999Z</time></trkpt><trkpt lat="45.101512367240986" lon="10.054722836925086"><ele>35.0</ele><time>2026-03-29T09:27:45.999Z</time></trkpt><trkpt lat="45.10153992995373" lon="10.054808026466926"><ele>35.0</ele><time>2026-03-29T09:27:46.999Z</time></trkpt><trkpt lat="45.101580909284976" lon="10.05488457339653"><ele>35.0</ele><time>2026-03-29T09:27:47.999Z</time></trkpt><trkpt lat="45.101604549339534" lon="10.054967246677116"><ele>34.857142857142854</ele><time>2026-03-29T09:27:48.999Z</time></trkpt><trkpt lat="45.10163025965033" lon="10.055054652612988"><ele>34.714285714285715</ele><time>2026-03-29T09:27:49.999Z</time></trkpt><trkpt lat="45.101657929539144" lon="10.055139396234694"><ele>34.57142857142857</ele><time>2026-03-29T09:27:50.999Z</time></trkpt><trkpt lat="45.10168495187741" lon="10.055227648057429"><ele>34.42857142857143</ele><time>2026-03-29T09:27:51.999Z</time></trkpt><trkpt lat="45.101712533761415" lon="10.055312361346347"><ele>34.285714285714285</ele><time>2026-03-29T09:27:52.999Z</time></trkpt><trkpt lat="45.101738949664586" lon="10.055399954903592"><ele>34.14285714285714</ele><time>2026-03-29T09:27:53.999Z</time></trkpt><trkpt lat="45.10176832334342" lon="10.055489776654168"><ele>34.0</ele><time>2026-03-29T09:27:54.999Z</time></trkpt><trkpt lat="45.10179874511785" lon="10.055578089319596"><ele>33.99999999999999</ele><time>2026-03-29T09:27:55.999Z</time></trkpt><trkpt lat="45.10182874361768" lon="10.055666894539817"><ele>34.0</ele><time>2026-03-29T09:27:56.999Z</time></trkpt><trkpt lat="45.10185874377809" lon="10.055754216403445"><ele>34.0</ele><time>2026-03-29T09:27:57.999Z</time></trkpt><trkpt lat="45.101887662249005" lon="10.05584166991558"><ele>34.0</ele><time>2026-03-29T09:27:58.999Z</time></trkpt><trkpt lat="45.10191578821721" lon="10.055924123841779"><ele>34.0</ele><time>2026-03-29T09:27:59.999Z</time></trkpt><trkpt lat="45.101943866082685" lon="10.056005948803088"><ele>33.99999999999999</ele><time>2026-03-29T09:28:00.999Z</time></trkpt><trkpt lat="45.101970104306204" lon="10.056089838828694"><ele>34.0</ele><time>2026-03-29T09:28:01.999Z</time></trkpt><trkpt lat="45.101994254141445" lon="10.056173002938126"><ele>34.4</ele><time>2026-03-29T09:28:02.999Z</time></trkpt><trkpt lat="45.102021160208714" lon="10.0562582060076"><ele>34.8</ele><time>2026-03-29T09:28:03.999Z</time></trkpt><trkpt lat="45.1020467516786" lon="10.056340106407834"><ele>35.2</ele><time>2026-03-29T09:28:04.999Z</time></trkpt><trkpt lat="45.102093426819096" lon="10.056496367504613"><ele>35.6</ele><time>2026-03-29T09:28:06.999Z</time></trkpt><trkpt lat="45.1021391035412" lon="10.056654640471521"><ele>36.0</ele><time>2026-03-29T09:28:08.999Z</time></trkpt><trkpt lat="45.1021946823317" lon="10.056806864405969"><ele>36.4</ele><time>2026-03-29T09:28:10.999Z</time></trkpt><trkpt lat="45.102249038751864" lon="10.056965901958137"><ele>36.8</ele><time>2026-03-29T09:28:12.999Z</time></trkpt><trkpt lat="45.102299894689395" lon="10.057126353245591"><ele>37.199999999999996</ele><time>2026-03-29T09:28:14.999Z</time></trkpt><trkpt lat="45.1023533007928" lon="10.057285624945802"><ele>37.6</ele><time>2026-03-29T09:28:16.999Z</time></trkpt><trkpt lat="45.10238048849328" lon="10.057366245187207"><ele>38.0</ele><time>2026-03-29T09:28:17.998Z</time></trkpt><trkpt lat="45.10240765641234" lon="10.057448597047465"><ele>38.285714285714285</ele><time>2026-03-29T09:28:18.998Z</time></trkpt><trkpt lat="45.102436839190354" lon="10.05753843369848"><ele>38.57142857142858</ele><time>2026-03-29T09:28:19.998Z</time></trkpt><trkpt lat="45.10246656239564" lon="10.057623899451748"><ele>38.85714285714286</ele><time>2026-03-29T09:28:20.998Z</time></trkpt><trkpt lat="45.10249548873429" lon="10.057713919706107"><ele>39.14285714285714</ele><time>2026-03-29T09:28:21.998Z</time></trkpt><trkpt lat="45.10252102241796" lon="10.057800465891955"><ele>39.42857142857143</ele><time>2026-03-29T09:28:22.998Z</time></trkpt><trkpt lat="45.10254778241231" lon="10.0578840067576"><ele>39.714285714285715</ele><time>2026-03-29T09:28:23.998Z</time></trkpt><trkpt lat="45.10257387072953" lon="10.05796688812538"><ele>40.0</ele><time>2026-03-29T09:28:24.998Z</time></trkpt><trkpt lat="45.102599174891985" lon="10.058051258750805"><ele>40.0</ele><time>2026-03-29T09:28:25.998Z</time></trkpt><trkpt lat="45.102620964139064" lon="10.05813575483206"><ele>40.0</ele><time>2026-03-29T09:28:26.998Z</time></trkpt><trkpt lat="45.102638428798144" lon="10.05822177800437"><ele>40.0</ele><time>2026-03-29T09:28:27.998Z</time></trkpt><trkpt lat="45.10267071476667" lon="10.058397566771102"><ele>40.0</ele><time>2026-03-29T09:28:29.998Z</time></trkpt><trkpt lat="45.10268644573768" lon="10.058484389727996"><ele>40.0</ele><time>2026-03-29T09:28:30.998Z</time></trkpt><trkpt lat="45.102715843846894" lon="10.058643735441667"><ele>40.0</ele><time>2026-03-29T09:28:32.998Z</time></trkpt><trkpt lat="45.10273927430848" lon="10.058797303438217"><ele>39.4</ele><time>2026-03-29T09:28:34.998Z</time></trkpt><trkpt lat="45.102770041435804" lon="10.058932172580542"><ele>38.8</ele><time>2026-03-29T09:28:37Z</time></trkpt><trkpt lat="45.102825136854214" lon="10.059062057106576"><ele>38.2</ele><time>2026-03-29T09:28:39Z</time></trkpt><trkpt lat="45.102928897849125" lon="10.059130970075165"><ele>37.6</ele><time>2026-03-29T09:28:41Z</time></trkpt><trkpt lat="45.10304718585139" lon="10.059149345915593"><ele>37.0</ele><time>2026-03-29T09:28:43Z</time></trkpt><trkpt lat="45.10316287650181" lon="10.05919550447704"><ele>36.5</ele><time>2026-03-29T09:28:45Z</time></trkpt><trkpt lat="45.10324947332837" lon="10.05932023687768"><ele>36.0</ele><time>2026-03-29T09:28:47Z</time></trkpt><trkpt lat="45.10328805943855" lon="10.059487454797456"><ele>35.5</ele><time>2026-03-29T09:28:49Z</time></trkpt><trkpt lat="45.103281686449684" lon="10.05965808588827"><ele>35.0</ele><time>2026-03-29T09:28:51Z</time></trkpt><trkpt lat="45.1032820122213" lon="10.059823069688262"><ele>34.75</ele><time>2026-03-29T09:28:53Z</time></trkpt><trkpt lat="45.1032818112321" lon="10.059986255201837"><ele>34.5</ele><time>2026-03-29T09:28:55Z</time></trkpt><trkpt lat="45.10328175358188" lon="10.060147634238799"><ele>34.25</ele><time>2026-03-29T09:28:57Z</time></trkpt><trkpt lat="45.10327651383481" lon="10.060306927876963"><ele>34.0</ele><time>2026-03-29T09:28:59Z</time></trkpt><trkpt lat="45.10327761825859" lon="10.060465338671392"><ele>34.0</ele><time>2026-03-29T09:29:01Z</time></trkpt><trkpt lat="45.10327679976821" lon="10.060626638391584"><ele>34.0</ele><time>2026-03-29T09:29:03Z</time></trkpt><trkpt lat="45.10327610168526" lon="10.06078135522981"><ele>34.0</ele><time>2026-03-29T09:29:05Z</time></trkpt><trkpt lat="45.10327929648132" lon="10.060944038032531"><ele>34.0</ele><time>2026-03-29T09:29:07Z</time></trkpt><trkpt lat="45.10327973701383" lon="10.061099265437218"><ele>34.0</ele><time>2026-03-29T09:29:09Z</time></trkpt><trkpt lat="45.10327049103034" lon="10.061261233466977"><ele>34.16666666666667</ele><time>2026-03-29T09:29:11Z</time></trkpt><trkpt lat="45.10325879508007" lon="10.061422918732577"><ele>34.333333333333336</ele><time>2026-03-29T09:29:13Z</time></trkpt><trkpt lat="45.10327538875914" lon="10.061512416495683"><ele>34.5</ele><time>2026-03-29T09:29:14Z</time></trkpt><trkpt lat="45.103268451582395" lon="10.06168965438943"><ele>34.666666666666664</ele><time>2026-03-29T09:29:16Z</time></trkpt><trkpt lat="45.10326780884153" lon="10.061780487822489"><ele>34.83333333333333</ele><time>2026-03-29T09:29:17Z</time></trkpt><trkpt lat="45.10326712696059" lon="10.061875078835596"><ele>35.0</ele><time>2026-03-29T09:29:18Z</time></trkpt><trkpt lat="45.10326462746423" lon="10.061971861396618"><ele>35.0</ele><time>2026-03-29T09:29:19Z</time></trkpt><trkpt lat="45.103263809698014" lon="10.06207031630067"><ele>35.0</ele><time>2026-03-29T09:29:20Z</time></trkpt><trkpt lat="45.103261496755195" lon="10.06216598199295"><ele>35.0</ele><time>2026-03-29T09:29:21Z</time></trkpt><trkpt lat="45.10325668551519" lon="10.06225970583632"><ele>35.0</ele><time>2026-03-29T09:29:22Z</time></trkpt><trkpt lat="45.10325016355154" lon="10.062348932695459"><ele>35.0</ele><time>2026-03-29T09:29:23Z</time></trkpt><trkpt lat="45.10324078116863" lon="10.06252066580398"><ele>35.0</ele><time>2026-03-29T09:29:25Z</time></trkpt><trkpt lat="45.103243698699906" lon="10.062681235286545"><ele>34.83333333333333</ele><time>2026-03-29T09:29:27Z</time></trkpt><trkpt lat="45.1032904719183" lon="10.062746114471748"><ele>34.666666666666664</ele><time>2026-03-29T09:29:27.999Z</time></trkpt><trkpt lat="45.103358112423564" lon="10.062766644845446"><ele>34.5</ele><time>2026-03-29T09:29:28.999Z</time></trkpt><trkpt lat="45.10342338119904" lon="10.0627438821403"><ele>34.333333333333336</ele><time>2026-03-29T09:29:29.999Z</time></trkpt><trkpt lat="45.10352900005999" lon="10.062675216594156"><ele>34.16666666666667</ele><time>2026-03-29T09:29:31.999Z</time></trkpt><trkpt lat="45.10363348703012" lon="10.062615480522007"><ele>34.0</ele><time>2026-03-29T09:29:33.999Z</time></trkpt><trkpt lat="45.103746917999864" lon="10.06255095030703"><ele>33.99999999999999</ele><time>2026-03-29T09:29:35.999Z</time></trkpt><trkpt lat="45.10386072201068" lon="10.062486227315643"><ele>34.0</ele><time>2026-03-29T09:29:37.999Z</time></trkpt><trkpt lat="45.10391979360286" lon="10.06245246516773"><ele>34.0</ele><time>2026-03-29T09:29:38.999Z</time></trkpt><trkpt lat="45.10397885750561" lon="10.062418247996185"><ele>34.0</ele><time>2026-03-29T09:29:39.999Z</time></trkpt><trkpt lat="45.10403759452854" lon="10.062384220208612"><ele>34.0</ele><time>2026-03-29T09:29:40.999Z</time></trkpt><trkpt lat="45.104090651892086" lon="10.062331383687232"><ele>33.99999999999999</ele><time>2026-03-29T09:29:41.999Z</time></trkpt><trkpt lat="45.10415059501442" lon="10.062298753464747"><ele>34.0</ele><time>2026-03-29T09:29:42.999Z</time></trkpt><trkpt lat="45.10420898808584" lon="10.062265033860221"><ele>33.71428571428571</ele><time>2026-03-29T09:29:43.999Z</time></trkpt><trkpt lat="45.10426857260536" lon="10.062230312574885"><ele>33.42857142857143</ele><time>2026-03-29T09:29:44.999Z</time></trkpt><trkpt lat="45.10433394518552" lon="10.062212537093547"><ele>33.14285714285714</ele><time>2026-03-29T09:29:45.999Z</time></trkpt><trkpt lat="45.10439368344261" lon="10.062177929014679"><ele>32.857142857142854</ele><time>2026-03-29T09:29:46.999Z</time></trkpt><trkpt lat="45.10445478859309" lon="10.062143615725088"><ele>32.57142857142857</ele><time>2026-03-29T09:29:47.999Z</time></trkpt><trkpt lat="45.10451559205567" lon="10.0621094518391"><ele>32.285714285714285</ele><time>2026-03-29T09:29:48.999Z</time></trkpt><trkpt lat="45.10457285345726" lon="10.062057286948557"><ele>32.0</ele><time>2026-03-29T09:29:49.999Z</time></trkpt><trkpt lat="45.104636864828734" lon="10.062027277613243"><ele>32.0</ele><time>2026-03-29T09:29:50.999Z</time></trkpt><trkpt lat="45.104704014233576" lon="10.062000236365604"><ele>31.999999999999996</ele><time>2026-03-29T09:29:51.999Z</time></trkpt><trkpt lat="45.104774353321886" lon="10.062001544571965"><ele>32.0</ele><time>2026-03-29T09:29:52.999Z</time></trkpt><trkpt lat="45.10484228686717" lon="10.061995887169433"><ele>32.0</ele><time>2026-03-29T09:29:53.999Z</time></trkpt><trkpt lat="45.1049123957257" lon="10.061975768160304"><ele>31.999999999999996</ele><time>2026-03-29T09:29:54.999Z</time></trkpt><trkpt lat="45.10498223310665" lon="10.062015934547304"><ele>32.0</ele><time>2026-03-29T09:29:55.999Z</time></trkpt><trkpt lat="45.105047778509025" lon="10.062043009397449"><ele>32.0</ele><time>2026-03-29T09:29:56.999Z</time></trkpt><trkpt lat="45.10511125714947" lon="10.062079694280705"><ele>31.999999999999996</ele><time>2026-03-29T09:29:57.999Z</time></trkpt><trkpt lat="45.10517487005954" lon="10.062120341188807"><ele>32.0</ele><time>2026-03-29T09:29:58.999Z</time></trkpt><trkpt lat="45.105234919085994" lon="10.062163628286596"><ele>32.0</ele><time>2026-03-29T09:29:59.999Z</time></trkpt><trkpt lat="45.10529044397583" lon="10.062209097510612"><ele>32.0</ele><time>2026-03-29T09:30:00.999Z</time></trkpt><trkpt lat="45.105352423567" lon="10.062239456467783"><ele>31.999999999999996</ele><time>2026-03-29T09:30:01.999Z</time></trkpt><trkpt lat="45.105447823989536" lon="10.062345828593958"><ele>32.0</ele><time>2026-03-29T09:30:03.999Z</time></trkpt><trkpt lat="45.105527335053885" lon="10.062459694484925"><ele>32.4</ele><time>2026-03-29T09:30:05.999Z</time></trkpt><trkpt lat="45.10558398800328" lon="10.062582789369953"><ele>32.800000000000004</ele><time>2026-03-29T09:30:07.999Z</time></trkpt><trkpt lat="45.105658704882906" lon="10.062666467460248"><ele>33.2</ele><time>2026-03-29T09:30:09.999Z</time></trkpt><trkpt lat="45.105719730093256" lon="10.062793829650248"><ele>33.6</ele><time>2026-03-29T09:30:11.999Z</time></trkpt><trkpt lat="45.10579760061832" lon="10.062889941095118"><ele>34.0</ele><time>2026-03-29T09:30:13.999Z</time></trkpt><trkpt lat="45.10585243625407" lon="10.062967690846666"><ele>34.0</ele><time>2026-03-29T09:30:15.999Z</time></trkpt><trkpt lat="45.105918720376266" lon="10.063079479340244"><ele>34.0</ele><time>2026-03-29T09:30:17.999Z</time></trkpt><trkpt lat="45.105985488807384" lon="10.063176036312047"><ele>34.0</ele><time>2026-03-29T09:30:19.999Z</time></trkpt><trkpt lat="45.1060435969506" lon="10.063269170590813"><ele>34.0</ele><time>2026-03-29T09:30:21.998Z</time></trkpt><trkpt lat="45.106106721329375" lon="10.063372519341126"><ele>34.0</ele><time>2026-03-29T09:30:23.998Z</time></trkpt><trkpt lat="45.106195233293015" lon="10.06351062511342"><ele>34.16666666666667</ele><time>2026-03-29T09:30:25.998Z</time></trkpt><trkpt lat="45.10627184522975" lon="10.063639276296184"><ele>34.333333333333336</ele><time>2026-03-29T09:30:27.998Z</time></trkpt><trkpt lat="45.10635592629313" lon="10.06376629123096"><ele>34.5</ele><time>2026-03-29T09:30:29.998Z</time></trkpt><trkpt lat="45.106397505998636" lon="10.063834135792614"><ele>34.666666666666664</ele><time>2026-03-29T09:30:30.998Z</time></trkpt><trkpt lat="45.10644060889833" lon="10.063902712526438"><ele>34.83333333333333</ele><time>2026-03-29T09:30:31.998Z</time></trkpt><trkpt lat="45.10648171603198" lon="10.063972365985013"><ele>35.0</ele><time>2026-03-29T09:30:32.998Z</time></trkpt><trkpt lat="45.1065236280333" lon="10.064043621765215"><ele>35.0</ele><time>2026-03-29T09:30:33.998Z</time></trkpt><trkpt lat="45.10656498384379" lon="10.064113732158775"><ele>35.0</ele><time>2026-03-29T09:30:34.998Z</time></trkpt><trkpt lat="45.106608121147346" lon="10.064182747441166"><ele>35.0</ele><time>2026-03-29T09:30:35.998Z</time></trkpt><trkpt lat="45.10665016733079" lon="10.064252992934973"><ele>35.0</ele><time>2026-03-29T09:30:36.998Z</time></trkpt><trkpt lat="45.10669255821665" lon="10.064322619333566"><ele>35.0</ele><time>2026-03-29T09:30:37.998Z</time></trkpt><trkpt lat="45.106735303553656" lon="10.064389302157645"><ele>35.0</ele><time>2026-03-29T09:30:38.998Z</time></trkpt><trkpt lat="45.10677942800429" lon="10.064452954531156"><ele>35.0</ele><time>2026-03-29T09:30:39.998Z</time></trkpt><trkpt lat="45.1068214764748" lon="10.06451937732964"><ele>35.0</ele><time>2026-03-29T09:30:40.998Z</time></trkpt><trkpt lat="45.10689077943415" lon="10.064663530254736"><ele>34.5</ele><time>2026-03-29T09:30:43Z</time></trkpt><trkpt lat="45.1069707739656" lon="10.064791423990242"><ele>34.0</ele><time>2026-03-29T09:30:45Z</time></trkpt><trkpt lat="45.107052128152475" lon="10.064921491898811"><ele>33.5</ele><time>2026-03-29T09:30:47Z</time></trkpt><trkpt lat="45.107131496639425" lon="10.065048384979479"><ele>33.0</ele><time>2026-03-29T09:30:49Z</time></trkpt><trkpt lat="45.10721043842556" lon="10.0651745959063"><ele>33.0</ele><time>2026-03-29T09:30:51Z</time></trkpt><trkpt lat="45.10730198728957" lon="10.065289322641224"><ele>33.0</ele><time>2026-03-29T09:30:53Z</time></trkpt><trkpt lat="45.10738522483703" lon="10.065418970824568"><ele>33.0</ele><time>2026-03-29T09:30:55Z</time></trkpt><trkpt lat="45.10741358394675" lon="10.065499381721986"><ele>33.0</ele><time>2026-03-29T09:30:56Z</time></trkpt><trkpt lat="45.107504720523266" lon="10.065614224362472"><ele>33.0</ele><time>2026-03-29T09:30:58Z</time></trkpt><trkpt lat="45.10758319761903" lon="10.065745058536521"><ele>33.0</ele><time>2026-03-29T09:31:00Z</time></trkpt><trkpt lat="45.10766299664141" lon="10.065872482963332"><ele>33.0</ele><time>2026-03-29T09:31:02Z</time></trkpt><trkpt lat="45.10774297446681" lon="10.065992339199646"><ele>33.0</ele><time>2026-03-29T09:31:04Z</time></trkpt><trkpt lat="45.107819178745615" lon="10.066115196552309"><ele>33.0</ele><time>2026-03-29T09:31:06Z</time></trkpt><trkpt lat="45.1078972518203" lon="10.066241228348296"><ele>33.0</ele><time>2026-03-29T09:31:08Z</time></trkpt><trkpt lat="45.1079706052263" lon="10.066369134858695"><ele>33.0</ele><time>2026-03-29T09:31:10Z</time></trkpt><trkpt lat="45.108045361277256" lon="10.06650119046722"><ele>33.0</ele><time>2026-03-29T09:31:12Z</time></trkpt><trkpt lat="45.108122755728964" lon="10.066626006116868"><ele>33.0</ele><time>2026-03-29T09:31:14Z</time></trkpt><trkpt lat="45.10819063155995" lon="10.06676438998104"><ele>33.0</ele><time>2026-03-29T09:31:16Z</time></trkpt><trkpt lat="45.10827795037795" lon="10.066881503606163"><ele>33.0</ele><time>2026-03-29T09:31:18Z</time></trkpt><trkpt lat="45.10835075107108" lon="10.067019559889822"><ele>33.0</ele><time>2026-03-29T09:31:20Z</time></trkpt><trkpt lat="45.10842844442384" lon="10.0671505024926"><ele>33.0</ele><time>2026-03-29T09:31:22Z</time></trkpt><trkpt lat="45.10850862578862" lon="10.067281363018418"><ele>33.0</ele><time>2026-03-29T09:31:24Z</time></trkpt><trkpt lat="45.10858732807545" lon="10.067411463318798"><ele>33.0</ele><time>2026-03-29T09:31:26Z</time></trkpt><trkpt lat="45.10866739460452" lon="10.067544240930097"><ele>33.0</ele><time>2026-03-29T09:31:28Z</time></trkpt><trkpt lat="45.10874338218999" lon="10.067672361099547"><ele>33.0</ele><time>2026-03-29T09:31:30Z</time></trkpt><trkpt lat="45.10882050423793" lon="10.067802489705796"><ele>33.0</ele><time>2026-03-29T09:31:32Z</time></trkpt><trkpt lat="45.108897410872125" lon="10.06792862869094"><ele>33.0</ele><time>2026-03-29T09:31:33.999Z</time></trkpt><trkpt lat="45.10897585308683" lon="10.068055431297084"><ele>33.0</ele><time>2026-03-29T09:31:35.999Z</time></trkpt><trkpt lat="45.10904775453086" lon="10.068184874561272"><ele>33.0</ele><time>2026-03-29T09:31:37.999Z</time></trkpt><trkpt lat="45.10912515659647" lon="10.068310040506955"><ele>33.0</ele><time>2026-03-29T09:31:39.999Z</time></trkpt><trkpt lat="45.109203889512706" lon="10.068439419221228"><ele>33.0</ele><time>2026-03-29T09:31:41.999Z</time></trkpt><trkpt lat="45.109279451613354" lon="10.0685675950864"><ele>33.0</ele><time>2026-03-29T09:31:43.999Z</time></trkpt><trkpt lat="45.1093551244791" lon="10.06869496978027"><ele>33.0</ele><time>2026-03-29T09:31:45.999Z</time></trkpt><trkpt lat="45.10943124781864" lon="10.068826081816837"><ele>33.0</ele><time>2026-03-29T09:31:47.999Z</time></trkpt><trkpt lat="45.10950836735242" lon="10.068954480001173"><ele>33.0</ele><time>2026-03-29T09:31:49.999Z</time></trkpt><trkpt lat="45.10957083393621" lon="10.069093092860937"><ele>33.0</ele><time>2026-03-29T09:31:51.999Z</time></trkpt><trkpt lat="45.109631497637" lon="10.069222224317524"><ele>33.0</ele><time>2026-03-29T09:31:53.999Z</time></trkpt><trkpt lat="45.10968715068625" lon="10.069366601235197"><ele>33.0</ele><time>2026-03-29T09:31:55.999Z</time></trkpt><trkpt lat="45.10974056938088" lon="10.069512981959727"><ele>33.0</ele><time>2026-03-29T09:31:57.999Z</time></trkpt><trkpt lat="45.109807873838264" lon="10.069652628745603"><ele>33.0</ele><time>2026-03-29T09:31:59.999Z</time></trkpt><trkpt lat="45.109857675187484" lon="10.06980508957779"><ele>33.0</ele><time>2026-03-29T09:32:01.999Z</time></trkpt><trkpt lat="45.10990548819408" lon="10.069951487871357"><ele>33.8</ele><time>2026-03-29T09:32:03.999Z</time></trkpt><trkpt lat="45.1099503229659" lon="10.070097934608253"><ele>34.599999999999994</ele><time>2026-03-29T09:32:05.999Z</time></trkpt><trkpt lat="45.109993346079264" lon="10.070240328873089"><ele>35.400000000000006</ele><time>2026-03-29T09:32:07.999Z</time></trkpt><trkpt lat="45.110048898196474" lon="10.070368074452961"><ele>36.2</ele><time>2026-03-29T09:32:09.999Z</time></trkpt><trkpt lat="45.11011618217763" lon="10.070484336336108"><ele>37.0</ele><time>2026-03-29T09:32:11.999Z</time></trkpt><trkpt lat="45.11018658251731" lon="10.07058862735984"><ele>37.0</ele><time>2026-03-29T09:32:13.999Z</time></trkpt><trkpt lat="45.11028249120418" lon="10.070649076470966"><ele>37.0</ele><time>2026-03-29T09:32:15.999Z</time></trkpt><trkpt lat="45.110364586677186" lon="10.070723549781947"><ele>37.0</ele><time>2026-03-29T09:32:17.999Z</time></trkpt><trkpt lat="45.11046226936352" lon="10.07079239639348"><ele>37.0</ele><time>2026-03-29T09:32:19.999Z</time></trkpt><trkpt lat="45.11056167128805" lon="10.07085073894737"><ele>37.0</ele><time>2026-03-29T09:32:21.999Z</time></trkpt><trkpt lat="45.11065589962474" lon="10.070909994946451"><ele>37.66666666666667</ele><time>2026-03-29T09:32:23.999Z</time></trkpt><trkpt lat="45.1107218873183" lon="10.070968503210404"><ele>38.333333333333336</ele><time>2026-03-29T09:32:25.999Z</time></trkpt><trkpt lat="45.1107465108736" lon="10.071068435489794"><ele>39.0</ele><time>2026-03-29T09:32:28.998Z</time></trkpt><trkpt lat="45.11068435282395" lon="10.071154597077024"><ele>39.666666666666664</ele><time>2026-03-29T09:32:32.998Z</time></trkpt><trkpt lat="45.11063773838557" lon="10.071277797911772"><ele>40.33333333333333</ele><time>2026-03-29T09:32:35.998Z</time></trkpt><trkpt lat="45.110580639276606" lon="10.071378525584015"><ele>41.0</ele><time>2026-03-29T09:32:37.998Z</time></trkpt><trkpt lat="45.11052934384182" lon="10.071494172893601"><ele>41.0</ele><time>2026-03-29T09:32:39.998Z</time></trkpt><trkpt lat="45.110483795929454" lon="10.071618642856059"><ele>41.0</ele><time>2026-03-29T09:32:41.998Z</time></trkpt><trkpt lat="45.11044036574694" lon="10.07175398779321"><ele>41.0</ele><time>2026-03-29T09:32:43.998Z</time></trkpt><trkpt lat="45.11040631341536" lon="10.071839534730449"><ele>41.0</ele><time>2026-03-29T09:32:45.998Z</time></trkpt><trkpt lat="45.110361417546784" lon="10.07204174250463"><ele>41.0</ele><time>2026-03-29T09:32:48Z</time></trkpt><trkpt lat="45.110312679080934" lon="10.072169700072424"><ele>41.0</ele><time>2026-03-29T09:32:50Z</time></trkpt><trkpt lat="45.11025946852376" lon="10.0722994805412"><ele>41.0</ele><time>2026-03-29T09:32:52Z</time></trkpt><trkpt lat="45.110200041042965" lon="10.072435102769086"><ele>41.0</ele><time>2026-03-29T09:32:54Z</time></trkpt><trkpt lat="45.11013672344685" lon="10.072568246756411"><ele>41.0</ele><time>2026-03-29T09:32:56Z</time></trkpt><trkpt lat="45.1100617347065" lon="10.072707977046315"><ele>41.0</ele><time>2026-03-29T09:32:58Z</time></trkpt><trkpt lat="45.10998615790048" lon="10.072849360614756"><ele>41.0</ele><time>2026-03-29T09:33:00Z</time></trkpt><trkpt lat="45.10994758543825" lon="10.07292304047404"><ele>41.0</ele><time>2026-03-29T09:33:01Z</time></trkpt><trkpt lat="45.109910023807664" lon="10.072997065390627"><ele>41.0</ele><time>2026-03-29T09:33:02Z</time></trkpt><trkpt lat="45.10987211473467" lon="10.073071539946694"><ele>41.0</ele><time>2026-03-29T09:33:03Z</time></trkpt><trkpt lat="45.10979840798337" lon="10.073210966841806"><ele>41.0</ele><time>2026-03-29T09:33:05Z</time></trkpt><trkpt lat="45.1097203167476" lon="10.073348384174245"><ele>41.0</ele><time>2026-03-29T09:33:07Z</time></trkpt><trkpt lat="45.10963298797356" lon="10.073461889451359"><ele>41.0</ele><time>2026-03-29T09:33:09Z</time></trkpt><trkpt lat="45.109594552717944" lon="10.073542971451394"><ele>41.0</ele><time>2026-03-29T09:33:10Z</time></trkpt><trkpt lat="45.10955495127755" lon="10.073620948517627"><ele>41.0</ele><time>2026-03-29T09:33:11Z</time></trkpt><trkpt lat="45.109512325371746" lon="10.073693187520151"><ele>41.0</ele><time>2026-03-29T09:33:12Z</time></trkpt><trkpt lat="45.10944322884612" lon="10.073832381738244"><ele>41.0</ele><time>2026-03-29T09:33:14Z</time></trkpt><trkpt lat="45.10936251815882" lon="10.073973915575744"><ele>40.99999999999999</ele><time>2026-03-29T09:33:16Z</time></trkpt><trkpt lat="45.10932035083181" lon="10.074046545559959"><ele>41.0</ele><time>2026-03-29T09:33:17Z</time></trkpt><trkpt lat="45.109258809451" lon="10.074183539156436"><ele>41.0</ele><time>2026-03-29T09:33:19Z</time></trkpt><trkpt lat="45.10921928249585" lon="10.074261134663205"><ele>41.0</ele><time>2026-03-29T09:33:20Z</time></trkpt><trkpt lat="45.10917905245527" lon="10.07433609130125"><ele>41.0</ele><time>2026-03-29T09:33:21Z</time></trkpt><trkpt lat="45.10914676808232" lon="10.074415797732305"><ele>40.99999999999999</ele><time>2026-03-29T09:33:22Z</time></trkpt><trkpt lat="45.10912416009857" lon="10.074506070286901"><ele>41.0</ele><time>2026-03-29T09:33:23Z</time></trkpt><trkpt lat="45.10910275743721" lon="10.074596897260493"><ele>40.71428571428571</ele><time>2026-03-29T09:33:24Z</time></trkpt><trkpt lat="45.10908056193138" lon="10.074687243943371"><ele>40.42857142857143</ele><time>2026-03-29T09:33:25Z</time></trkpt><trkpt lat="45.109052811317866" lon="10.07477585635264"><ele>40.14285714285714</ele><time>2026-03-29T09:33:26Z</time></trkpt><trkpt lat="45.10902612123305" lon="10.074866114536576"><ele>39.857142857142854</ele><time>2026-03-29T09:33:27Z</time></trkpt><trkpt lat="45.10900321563497" lon="10.074958810765674"><ele>39.57142857142857</ele><time>2026-03-29T09:33:28Z</time></trkpt><trkpt lat="45.10898095685423" lon="10.075049337531071"><ele>39.285714285714285</ele><time>2026-03-29T09:33:29Z</time></trkpt><trkpt lat="45.10895927797543" lon="10.0751376668853"><ele>39.0</ele><time>2026-03-29T09:33:30Z</time></trkpt><trkpt lat="45.10893437560115" lon="10.075222423787409"><ele>39.2</ele><time>2026-03-29T09:33:31Z</time></trkpt><trkpt lat="45.10890978460423" lon="10.075305063375302"><ele>39.4</ele><time>2026-03-29T09:33:32Z</time></trkpt><trkpt lat="45.10885805129383" lon="10.075463678703303"><ele>39.6</ele><time>2026-03-29T09:33:34Z</time></trkpt><trkpt lat="45.10879515904645" lon="10.075612275806115"><ele>39.8</ele><time>2026-03-29T09:33:35.999Z</time></trkpt><trkpt lat="45.1087179773175" lon="10.075740663907247"><ele>40.0</ele><time>2026-03-29T09:33:37.999Z</time></trkpt><trkpt lat="45.108626953968404" lon="10.07585323397808"><ele>40.0</ele><time>2026-03-29T09:33:39.999Z</time></trkpt><trkpt lat="45.10852660292973" lon="10.075943804665107"><ele>40.0</ele><time>2026-03-29T09:33:41.999Z</time></trkpt><trkpt lat="45.108413888641444" lon="10.07601582982845"><ele>40.0</ele><time>2026-03-29T09:33:43.999Z</time></trkpt><trkpt lat="45.10830034991663" lon="10.076089579528924"><ele>40.0</ele><time>2026-03-29T09:33:45.999Z</time></trkpt><trkpt lat="45.10818378444761" lon="10.076153821432642"><ele>39.714285714285715</ele><time>2026-03-29T09:33:47.999Z</time></trkpt><trkpt lat="45.10812429114537" lon="10.076189235278136"><ele>39.42857142857143</ele><time>2026-03-29T09:33:48.999Z</time></trkpt><trkpt lat="45.10806683971212" lon="10.07622627112965"><ele>39.14285714285714</ele><time>2026-03-29T09:33:49.999Z</time></trkpt><trkpt lat="45.10800829979432" lon="10.076264654581413"><ele>38.85714285714286</ele><time>2026-03-29T09:33:50.999Z</time></trkpt><trkpt lat="45.107951338373695" lon="10.076308641637542"><ele>38.57142857142858</ele><time>2026-03-29T09:33:51.999Z</time></trkpt><trkpt lat="45.107893280385696" lon="10.076350581415427"><ele>38.285714285714285</ele><time>2026-03-29T09:33:52.999Z</time></trkpt><trkpt lat="45.10783872433435" lon="10.076399365284809"><ele>38.0</ele><time>2026-03-29T09:33:53.999Z</time></trkpt><trkpt lat="45.1077866308081" lon="10.076455790285413"><ele>38.0</ele><time>2026-03-29T09:33:54.999Z</time></trkpt><trkpt lat="45.10773583629045" lon="10.076519105582962"><ele>38.0</ele><time>2026-03-29T09:33:55.999Z</time></trkpt><trkpt lat="45.10768478372219" lon="10.076578937947106"><ele>38.0</ele><time>2026-03-29T09:33:56.999Z</time></trkpt><trkpt lat="45.10763409438346" lon="10.076640103683346"><ele>38.0</ele><time>2026-03-29T09:33:57.999Z</time></trkpt><trkpt lat="45.107588300269654" lon="10.076709422894314"><ele>38.0</ele><time>2026-03-29T09:33:58.999Z</time></trkpt><trkpt lat="45.10754725614608" lon="10.076781771458213"><ele>38.0</ele><time>2026-03-29T09:33:59.999Z</time></trkpt><trkpt lat="45.1075064320977" lon="10.076852402853657"><ele>38.0</ele><time>2026-03-29T09:34:00.999Z</time></trkpt><trkpt lat="45.10742917195593" lon="10.076979225845449"><ele>38.0</ele><time>2026-03-29T09:34:02.999Z</time></trkpt><trkpt lat="45.10735609511182" lon="10.077089124699734"><ele>38.0</ele><time>2026-03-29T09:34:04.999Z</time></trkpt><trkpt lat="45.10729482808962" lon="10.077192473848525"><ele>38.0</ele><time>2026-03-29T09:34:06.999Z</time></trkpt><trkpt lat="45.1072303767488" lon="10.077298872085704"><ele>38.0</ele><time>2026-03-29T09:34:08.999Z</time></trkpt><trkpt lat="45.107177767032375" lon="10.077379172234973"><ele>38.0</ele><time>2026-03-29T09:34:10.999Z</time></trkpt><trkpt lat="45.107279937012215" lon="10.077520812460461"><ele>38.0</ele><time>2026-03-29T09:34:12.999Z</time></trkpt><trkpt lat="45.10739418939733" lon="10.077569220858614"><ele>38.0</ele><time>2026-03-29T09:34:14.999Z</time></trkpt><trkpt lat="45.10750209740492" lon="10.077621589445414"><ele>38.0</ele><time>2026-03-29T09:34:16.999Z</time></trkpt><trkpt lat="45.10760451864074" lon="10.07767024893301"><ele>38.0</ele><time>2026-03-29T09:34:18.999Z</time></trkpt><trkpt lat="45.10771086045718" lon="10.077713802173633"><ele>38.599999999999994</ele><time>2026-03-29T09:34:20.999Z</time></trkpt><trkpt lat="45.10781837708448" lon="10.077754350288052"><ele>39.199999999999996</ele><time>2026-03-29T09:34:22.999Z</time></trkpt><trkpt lat="45.107920382152486" lon="10.07778025532819"><ele>39.8</ele><time>2026-03-29T09:34:24.999Z</time></trkpt><trkpt lat="45.10801388216785" lon="10.077804676871068"><ele>40.4</ele><time>2026-03-29T09:34:26.999Z</time></trkpt><trkpt lat="45.10812407113248" lon="10.077829506026362"><ele>41.0</ele><time>2026-03-29T09:34:28.999Z</time></trkpt><trkpt lat="45.1082294524666" lon="10.077859781512755"><ele>41.199999999999996</ele><time>2026-03-29T09:34:30.998Z</time></trkpt><trkpt lat="45.10832724859098" lon="10.077885815256462"><ele>41.4</ele><time>2026-03-29T09:34:32.998Z</time></trkpt><trkpt lat="45.10841905642515" lon="10.077899435541742"><ele>41.6</ele><time>2026-03-29T09:34:34.998Z</time></trkpt><trkpt lat="45.10850813269359" lon="10.07789242120472"><ele>41.8</ele><time>2026-03-29T09:34:36.998Z</time></trkpt><trkpt lat="45.108593935539076" lon="10.077895241385086"><ele>42.0</ele><time>2026-03-29T09:34:38.998Z</time></trkpt><trkpt lat="45.10867794968592" lon="10.077906194222392"><ele>42.0</ele><time>2026-03-29T09:34:40.998Z</time></trkpt><trkpt lat="45.108753497617215" lon="10.077936346517518"><ele>42.0</ele><time>2026-03-29T09:34:42.998Z</time></trkpt><trkpt lat="45.10879815841055" lon="10.07778086845628"><ele>42.0</ele><time>2026-03-29T09:34:44.998Z</time></trkpt><trkpt lat="45.10881073631032" lon="10.07767443879714"><ele>42.0</ele><time>2026-03-29T09:34:46.998Z</time></trkpt><trkpt lat="45.10882866941112" lon="10.077561401037466"><ele>42.0</ele><time>2026-03-29T09:34:48.998Z</time></trkpt><trkpt lat="45.108824352999314" lon="10.077444916659964"><ele>42.0</ele><time>2026-03-29T09:34:50.998Z</time></trkpt><trkpt lat="45.1088424913648" lon="10.07733972537905"><ele>41.833333333333336</ele><time>2026-03-29T09:34:52.998Z</time></trkpt><trkpt lat="45.108857345327344" lon="10.077239003253032"><ele>41.666666666666664</ele><time>2026-03-29T09:34:55Z</time></trkpt><trkpt lat="45.10885891417041" lon="10.077133494762794"><ele>41.5</ele><time>2026-03-29T09:34:57Z</time></trkpt><trkpt lat="45.10885423954363" lon="10.077024473156726"><ele>41.33333333333333</ele><time>2026-03-29T09:34:59Z</time></trkpt><trkpt lat="45.108822559686914" lon="10.076926102709864"><ele>41.166666666666664</ele><time>2026-03-29T09:35:01Z</time></trkpt><trkpt lat="45.10877723123159" lon="10.076843398156244"><ele>41.0</ele><time>2026-03-29T09:35:03Z</time></trkpt><trkpt lat="45.10871781912756" lon="10.076777910499972"><ele>40.99999999999999</ele><time>2026-03-29T09:35:05Z</time></trkpt><trkpt lat="45.10866240924001" lon="10.076715097170112"><ele>41.0</ele><time>2026-03-29T09:35:08Z</time></trkpt><trkpt lat="45.108588464219096" lon="10.07668803822088"><ele>41.0</ele><time>2026-03-29T09:35:34Z</time></trkpt><trkpt lat="45.10852243863754" lon="10.076710794076856"><ele>41.0</ele><time>2026-03-29T09:35:37Z</time></trkpt><trkpt lat="45.10845979185423" lon="10.076739505200377"><ele>41.0</ele><time>2026-03-29T09:35:40Z</time></trkpt><trkpt lat="45.10839379758252" lon="10.07677025533499"><ele>40.99999999999999</ele><time>2026-03-29T09:35:42.999Z</time></trkpt><trkpt lat="45.108318908601014" lon="10.076771277323592"><ele>41.0</ele><time>2026-03-29T09:35:45.999Z</time></trkpt><trkpt lat="45.10824718547401" lon="10.07678009870547"><ele>40.857142857142854</ele><time>2026-03-29T09:35:48.999Z</time></trkpt><trkpt lat="45.10818930727374" lon="10.076820886895124"><ele>40.714285714285715</ele><time>2026-03-29T09:37:14Z</time></trkpt><trkpt lat="45.10811931675472" lon="10.076853090960048"><ele>40.57142857142857</ele><time>2026-03-29T09:37:19Z</time></trkpt><trkpt lat="45.10809386203961" lon="10.076941577640683"><ele>40.42857142857143</ele><time>2026-03-29T09:37:25Z</time></trkpt><trkpt lat="45.10803904424866" lon="10.077025881074256"><ele>40.285714285714285</ele><time>2026-03-29T09:37:31Z</time></trkpt><trkpt lat="45.10797298669627" lon="10.07701754890126"><ele>40.14285714285714</ele><time>2026-03-29T09:37:38Z</time></trkpt><trkpt lat="45.107905112089675" lon="10.076980150812869"><ele>40.0</ele><time>2026-03-29T09:37:44.999Z</time></trkpt><trkpt lat="45.107882493626214" lon="10.076895535483665"><ele>40.0</ele><time>2026-03-29T09:38:15.999Z</time></trkpt><trkpt lat="45.10786261506476" lon="10.077008404332341"><ele>40.0</ele><time>2026-03-29T09:38:18.999Z</time></trkpt><trkpt lat="45.10795816142688" lon="10.076922146452128"><ele>40.0</ele><time>2026-03-29T09:38:45.066Z</time></trkpt><trkpt lat="45.10789212306651" lon="10.07701217856261"><ele>40.0</ele><time>2026-03-29T09:39:20.047Z</time></trkpt><trkpt lat="45.10787989174844" lon="10.077119296257415"><ele>40.0</ele><time>2026-03-29T09:39:45.493Z</time></trkpt><trkpt lat="45.107845842667054" lon="10.077288136862391"><ele>40.0</ele><time>2026-03-29T09:39:48.043Z</time></trkpt><trkpt lat="45.107873125492915" lon="10.077139038147115"><ele>40.0</ele><time>2026-03-29T09:40:03.489Z</time></trkpt><trkpt lat="45.107807945181776" lon="10.077127846420087"><ele>40.0</ele><time>2026-03-29T09:41:07.012Z</time></trkpt></trkseg></trk></gpx>